<?xml version='1.0' encoding='UTF-8'?><gpx version="1.1" creator="JPX - https://github.com/jenetics/jpx" xmlns="http://www.topografix.com/GPX/1/1"><trk><trkseg><trkpt lat="44.39805400064154" lon="12.185950317567562"><ele>1.9999999999999998</ele><time>2026-05-02T06:29:41Z</time></trkpt><trkpt lat="44.3980981107329" lon="12.186025213196444"><ele>2.0</ele><time>2026-05-02T06:30:19Z</time></trkpt><trkpt lat="44.39813329256378" lon="12.186127907857461"><ele>2.0</ele><time>2026-05-02T06:30:21Z</time></trkpt><trkpt lat="44.39818738650186" lon="12.186285806398555"><ele>2.0</ele><time>2026-05-02T06:30:23Z</time></trkpt><trkpt lat="44.398218897095276" lon="12.186377784853912"><ele>1.9999999999999998</ele><time>2026-05-02T06:30:24Z</time></trkpt><trkpt lat="44.39825008389631" lon="12.186468818172978"><ele>2.0</ele><time>2026-05-02T06:30:25Z</time></trkpt><trkpt lat="44.39828102638461" lon="12.186559138345133"><ele>2.5</ele><time>2026-05-02T06:30:26Z</time></trkpt><trkpt lat="44.398336396347695" lon="12.186694479158124"><ele>3.0</ele><time>2026-05-02T06:30:28Z</time></trkpt><trkpt lat="44.398326919168966" lon="12.186795506953782"><ele>3.5</ele><time>2026-05-02T06:30:30Z</time></trkpt><trkpt lat="44.39812410975543" lon="12.18694612218419"><ele>4.0</ele><time>2026-05-02T06:30:33Z</time></trkpt><trkpt lat="44.398061305907" lon="12.187001329027277"><ele>3.9999999999999996</ele><time>2026-05-02T06:30:34Z</time></trkpt><trkpt lat="44.39800199942399" lon="12.187043511445273"><ele>4.0</ele><time>2026-05-02T06:30:35Z</time></trkpt><trkpt lat="44.39793672370988" lon="12.18708224998291"><ele>4.0</ele><time>2026-05-02T06:30:37Z</time></trkpt><trkpt lat="44.397903276544355" lon="12.18718403093192"><ele>4.0</ele><time>2026-05-02T06:30:41Z</time></trkpt><trkpt lat="44.397895297536856" lon="12.187291398689656"><ele>3.9999999999999996</ele><time>2026-05-02T06:30:42Z</time></trkpt><trkpt lat="44.39792654951116" lon="12.187368303433509"><ele>4.0</ele><time>2026-05-02T06:30:43Z</time></trkpt><trkpt lat="44.39798782875509" lon="12.187487032168606"><ele>3.6666666666666665</ele><time>2026-05-02T06:30:44Z</time></trkpt><trkpt lat="44.398012641034555" lon="12.187573225222888"><ele>3.333333333333333</ele><time>2026-05-02T06:30:45Z</time></trkpt><trkpt lat="44.39804147374468" lon="12.187681894903362"><ele>3.0</ele><time>2026-05-02T06:30:47Z</time></trkpt><trkpt lat="44.397988112366" lon="12.187784677510532"><ele>2.6666666666666665</ele><time>2026-05-02T06:30:50Z</time></trkpt><trkpt lat="44.39791224569556" lon="12.187813499855418"><ele>2.333333333333333</ele><time>2026-05-02T06:30:51Z</time></trkpt><trkpt lat="44.3978200309307" lon="12.187878015913915"><ele>2.0</ele><time>2026-05-02T06:30:52Z</time></trkpt><trkpt lat="44.39771647966408" lon="12.187945692863384"><ele>2.0</ele><time>2026-05-02T06:30:53Z</time></trkpt><trkpt lat="44.39761966187164" lon="12.188029292365204"><ele>2.0</ele><time>2026-05-02T06:30:54Z</time></trkpt><trkpt lat="44.39751608330251" lon="12.188107312809361"><ele>2.0</ele><time>2026-05-02T06:30:55Z</time></trkpt><trkpt lat="44.3974038477848" lon="12.18818670382731"><ele>2.0</ele><time>2026-05-02T06:30:56Z</time></trkpt><trkpt lat="44.39729285654856" lon="12.188260486284696"><ele>1.9999999999999998</ele><time>2026-05-02T06:30:57Z</time></trkpt><trkpt lat="44.39719878922548" lon="12.188327803887816"><ele>2.0</ele><time>2026-05-02T06:30:58Z</time></trkpt><trkpt lat="44.397117544938126" lon="12.188396383783797"><ele>2.0</ele><time>2026-05-02T06:30:59Z</time></trkpt><trkpt lat="44.3970378758631" lon="12.18844453241296"><ele>2.0</ele><time>2026-05-02T06:31:00Z</time></trkpt><trkpt lat="44.39697217031781" lon="12.18848216013478"><ele>1.9999999999999998</ele><time>2026-05-02T06:31:01Z</time></trkpt><trkpt lat="44.396920169264334" lon="12.188545138264205"><ele>2.0</ele><time>2026-05-02T06:31:02Z</time></trkpt><trkpt lat="44.3968713206325" lon="12.18861158421423"><ele>2.0</ele><time>2026-05-02T06:31:04Z</time></trkpt><trkpt lat="44.396916905985776" lon="12.1888217305681"><ele>2.0</ele><time>2026-05-02T06:31:05Z</time></trkpt><trkpt lat="44.396972936918836" lon="12.188881007388622"><ele>2.0</ele><time>2026-05-02T06:31:06Z</time></trkpt><trkpt lat="44.39703665934226" lon="12.188906527010896"><ele>2.0</ele><time>2026-05-02T06:31:07Z</time></trkpt><trkpt lat="44.397136359390124" lon="12.188804146394357"><ele>2.0</ele><time>2026-05-02T06:31:08Z</time></trkpt><trkpt lat="44.39721289576039" lon="12.188749966792217"><ele>2.0</ele><time>2026-05-02T06:31:09Z</time></trkpt><trkpt lat="44.39730092795234" lon="12.188682380490024"><ele>2.0</ele><time>2026-05-02T06:31:10Z</time></trkpt><trkpt lat="44.3973995271817" lon="12.18861463101819"><ele>2.0</ele><time>2026-05-02T06:31:11Z</time></trkpt><trkpt lat="44.39752254229071" lon="12.188524474524137"><ele>2.0</ele><time>2026-05-02T06:31:12Z</time></trkpt><trkpt lat="44.39764138786155" lon="12.188436612327022"><ele>2.0</ele><time>2026-05-02T06:31:13Z</time></trkpt><trkpt lat="44.39776756880478" lon="12.188354847226108"><ele>2.0</ele><time>2026-05-02T06:31:14Z</time></trkpt><trkpt lat="44.3978836137511" lon="12.188277837190498"><ele>2.0</ele><time>2026-05-02T06:31:15Z</time></trkpt><trkpt lat="44.39799155932266" lon="12.188205929775657"><ele>2.0</ele><time>2026-05-02T06:31:16Z</time></trkpt><trkpt lat="44.398091486250486" lon="12.188120174655943"><ele>2.0</ele><time>2026-05-02T06:31:17Z</time></trkpt><trkpt lat="44.39819566720343" lon="12.188014552386663"><ele>2.0</ele><time>2026-05-02T06:31:18Z</time></trkpt><trkpt lat="44.398288410089926" lon="12.18788084034084"><ele>2.0</ele><time>2026-05-02T06:31:19Z</time></trkpt><trkpt lat="44.39838390477754" lon="12.187732513429605"><ele>2.0</ele><time>2026-05-02T06:31:20Z</time></trkpt><trkpt lat="44.39847711676854" lon="12.187580792877885"><ele>2.0</ele><time>2026-05-02T06:31:21Z</time></trkpt><trkpt lat="44.3985708833157" lon="12.187456546126883"><ele>2.0</ele><time>2026-05-02T06:31:22Z</time></trkpt><trkpt lat="44.39867578403063" lon="12.187357932666526"><ele>2.0</ele><time>2026-05-02T06:31:23Z</time></trkpt><trkpt lat="44.39878718254954" lon="12.187263938338194"><ele>2.0</ele><time>2026-05-02T06:31:24Z</time></trkpt><trkpt lat="44.39890687150234" lon="12.187178411107778"><ele>2.5</ele><time>2026-05-02T06:31:25Z</time></trkpt><trkpt lat="44.39902568226545" lon="12.187086628776306"><ele>3.0</ele><time>2026-05-02T06:31:26Z</time></trkpt><trkpt lat="44.39914474922771" lon="12.186993461121762"><ele>3.5</ele><time>2026-05-02T06:31:27Z</time></trkpt><trkpt lat="44.39926606303086" lon="12.186909690201814"><ele>4.0</ele><time>2026-05-02T06:31:28Z</time></trkpt><trkpt lat="44.399384752293074" lon="12.186818008384412"><ele>4.0</ele><time>2026-05-02T06:31:29Z</time></trkpt><trkpt lat="44.39950942640472" lon="12.186740018839375"><ele>4.0</ele><time>2026-05-02T06:31:30Z</time></trkpt><trkpt lat="44.39963147326769" lon="12.186657053969284"><ele>4.0</ele><time>2026-05-02T06:31:31Z</time></trkpt><trkpt lat="44.39973282680847" lon="12.186560980802643"><ele>4.0</ele><time>2026-05-02T06:31:32Z</time></trkpt><trkpt lat="44.39984191551551" lon="12.18646687081291"><ele>4.0</ele><time>2026-05-02T06:31:33Z</time></trkpt><trkpt lat="44.399952517811805" lon="12.186384759773238"><ele>4.0</ele><time>2026-05-02T06:31:34Z</time></trkpt><trkpt lat="44.40005778321931" lon="12.186300199416895"><ele>4.0</ele><time>2026-05-02T06:31:35Z</time></trkpt><trkpt lat="44.40016046516077" lon="12.186218382780606"><ele>4.0</ele><time>2026-05-02T06:31:36Z</time></trkpt><trkpt lat="44.40027922365607" lon="12.186149114315125"><ele>4.0</ele><time>2026-05-02T06:31:37Z</time></trkpt><trkpt lat="44.40038570229438" lon="12.186075804081257"><ele>4.0</ele><time>2026-05-02T06:31:38Z</time></trkpt><trkpt lat="44.40049326523922" lon="12.185988073416588"><ele>4.0</ele><time>2026-05-02T06:31:39Z</time></trkpt><trkpt lat="44.40060196820367" lon="12.185897745632596"><ele>4.0</ele><time>2026-05-02T06:31:40Z</time></trkpt><trkpt lat="44.400713592285925" lon="12.185817798622267"><ele>4.0</ele><time>2026-05-02T06:31:41Z</time></trkpt><trkpt lat="44.400828602608996" lon="12.185744458356778"><ele>4.0</ele><time>2026-05-02T06:31:42Z</time></trkpt><trkpt lat="44.40094474453703" lon="12.185669266078015"><ele>4.0</ele><time>2026-05-02T06:31:43Z</time></trkpt><trkpt lat="44.401060201933475" lon="12.185580479175062"><ele>4.0</ele><time>2026-05-02T06:31:44Z</time></trkpt><trkpt lat="44.40116311712426" lon="12.185510976266277"><ele>3.8000000000000003</ele><time>2026-05-02T06:31:45Z</time></trkpt><trkpt lat="44.40127613938464" lon="12.185499786947982"><ele>3.6000000000000005</ele><time>2026-05-02T06:31:46Z</time></trkpt><trkpt lat="44.40133995663616" lon="12.185370931308842"><ele>3.4</ele><time>2026-05-02T06:31:47Z</time></trkpt><trkpt lat="44.40142820409132" lon="12.185294589613543"><ele>3.2</ele><time>2026-05-02T06:31:48Z</time></trkpt><trkpt lat="44.401516959368166" lon="12.18523293522341"><ele>3.0</ele><time>2026-05-02T06:31:49Z</time></trkpt><trkpt lat="44.401610259275365" lon="12.185175586590073"><ele>2.8</ele><time>2026-05-02T06:31:50Z</time></trkpt><trkpt lat="44.40168905018258" lon="12.18511882330927"><ele>2.5999999999999996</ele><time>2026-05-02T06:31:51Z</time></trkpt><trkpt lat="44.40177006467538" lon="12.185067767140673"><ele>2.4000000000000004</ele><time>2026-05-02T06:31:52Z</time></trkpt><trkpt lat="44.401851543441246" lon="12.185005238765717"><ele>2.2</ele><time>2026-05-02T06:31:53Z</time></trkpt><trkpt lat="44.401931885349065" lon="12.184941875768088"><ele>2.0</ele><time>2026-05-02T06:31:54Z</time></trkpt><trkpt lat="44.402034286965424" lon="12.184965814969996"><ele>1.9999999999999998</ele><time>2026-05-02T06:31:55Z</time></trkpt><trkpt lat="44.402078855512194" lon="12.184848078141505"><ele>2.0</ele><time>2026-05-02T06:31:56Z</time></trkpt><trkpt lat="44.40214028178633" lon="12.184799650421201"><ele>2.0</ele><time>2026-05-02T06:31:57Z</time></trkpt><trkpt lat="44.40223427937661" lon="12.184758023714362"><ele>2.0</ele><time>2026-05-02T06:31:59Z</time></trkpt><trkpt lat="44.40228833621564" lon="12.184817290621691"><ele>1.9999999999999998</ele><time>2026-05-02T06:32:01Z</time></trkpt><trkpt lat="44.4023659276084" lon="12.184810724359846"><ele>2.0</ele><time>2026-05-02T06:32:06Z</time></trkpt><trkpt lat="44.4024829866813" lon="12.184816265796917"><ele>2.0</ele><time>2026-05-02T06:32:08Z</time></trkpt><trkpt lat="44.402563007500866" lon="12.18485176723813"><ele>2.0</ele><time>2026-05-02T06:32:09Z</time></trkpt><trkpt lat="44.402643677347754" lon="12.184852470434146"><ele>2.0</ele><time>2026-05-02T06:32:10Z</time></trkpt><trkpt lat="44.40271859313589" lon="12.184843278307392"><ele>2.0</ele><time>2026-05-02T06:32:11Z</time></trkpt><trkpt lat="44.40281517163388" lon="12.184704769404492"><ele>2.0</ele><time>2026-05-02T06:32:12Z</time></trkpt><trkpt lat="44.40285349242906" lon="12.184568495616526"><ele>2.4000000000000004</ele><time>2026-05-02T06:32:13Z</time></trkpt><trkpt lat="44.402845123328945" lon="12.184438690086152"><ele>2.8000000000000003</ele><time>2026-05-02T06:32:14Z</time></trkpt><trkpt lat="44.40283263233296" lon="12.18427982989806"><ele>3.2</ele><time>2026-05-02T06:32:16Z</time></trkpt><trkpt lat="44.40271337011753" lon="12.184222738784026"><ele>3.6</ele><time>2026-05-02T06:32:17Z</time></trkpt><trkpt lat="44.40263552632752" lon="12.184178703481518"><ele>4.0</ele><time>2026-05-02T06:32:18Z</time></trkpt><trkpt lat="44.402558383277025" lon="12.184154932546887"><ele>3.9999999999999996</ele><time>2026-05-02T06:32:19Z</time></trkpt><trkpt lat="44.40247635754059" lon="12.184131344423788"><ele>4.0</ele><time>2026-05-02T06:32:20Z</time></trkpt><trkpt lat="44.402405261556076" lon="12.184100174260315"><ele>4.0</ele><time>2026-05-02T06:32:21Z</time></trkpt><trkpt lat="44.40233415111568" lon="12.184052226737066"><ele>4.0</ele><time>2026-05-02T06:32:22Z</time></trkpt><trkpt lat="44.40226854274498" lon="12.183993137769097"><ele>3.9999999999999996</ele><time>2026-05-02T06:32:23Z</time></trkpt><trkpt lat="44.40220744460388" lon="12.183923379812263"><ele>4.0</ele><time>2026-05-02T06:32:24Z</time></trkpt><trkpt lat="44.402147958261594" lon="12.183858633125725"><ele>3.9999999999999996</ele><time>2026-05-02T06:32:25Z</time></trkpt><trkpt lat="44.40209246376537" lon="12.183801829675025"><ele>4.0</ele><time>2026-05-02T06:32:26Z</time></trkpt><trkpt lat="44.40199616382481" lon="12.183729326829791"><ele>4.0</ele><time>2026-05-02T06:32:28Z</time></trkpt><trkpt lat="44.40196102472895" lon="12.183649893250164"><ele>4.0</ele><time>2026-05-02T06:32:29Z</time></trkpt><trkpt lat="44.40186778288717" lon="12.183535800567977"><ele>3.9999999999999996</ele><time>2026-05-02T06:32:31Z</time></trkpt><trkpt lat="44.40180776475297" lon="12.183460440699966"><ele>4.0</ele><time>2026-05-02T06:32:32Z</time></trkpt><trkpt lat="44.401733503900495" lon="12.183392040577457"><ele>4.0</ele><time>2026-05-02T06:32:33Z</time></trkpt><trkpt lat="44.401667194743965" lon="12.183295209154343"><ele>4.0</ele><time>2026-05-02T06:32:34Z</time></trkpt><trkpt lat="44.401590580066014" lon="12.183197259676566"><ele>4.0</ele><time>2026-05-02T06:32:35Z</time></trkpt><trkpt lat="44.401505149339094" lon="12.183084802670999"><ele>4.0</ele><time>2026-05-02T06:32:36Z</time></trkpt><trkpt lat="44.40141535513671" lon="12.182962007636874"><ele>4.0</ele><time>2026-05-02T06:32:37Z</time></trkpt><trkpt lat="44.401328246351106" lon="12.182839349091873"><ele>4.0</ele><time>2026-05-02T06:32:38Z</time></trkpt><trkpt lat="44.40123575062455" lon="12.182706367749923"><ele>4.0</ele><time>2026-05-02T06:32:39Z</time></trkpt><trkpt lat="44.40114159274974" lon="12.182573274281026"><ele>4.0</ele><time>2026-05-02T06:32:40Z</time></trkpt><trkpt lat="44.40103784602108" lon="12.182449288663648"><ele>4.0</ele><time>2026-05-02T06:32:41Z</time></trkpt><trkpt lat="44.40093467622499" lon="12.182318584019145"><ele>4.0</ele><time>2026-05-02T06:32:42Z</time></trkpt><trkpt lat="44.400831676413446" lon="12.182191530217569"><ele>4.0</ele><time>2026-05-02T06:32:43Z</time></trkpt><trkpt lat="44.400730312337025" lon="12.182068859096157"><ele>4.0</ele><time>2026-05-02T06:32:44Z</time></trkpt><trkpt lat="44.40062488592527" lon="12.181946286651925"><ele>4.0</ele><time>2026-05-02T06:32:45Z</time></trkpt><trkpt lat="44.400522390524095" lon="12.181812482331754"><ele>4.0</ele><time>2026-05-02T06:32:46Z</time></trkpt><trkpt lat="44.4004233675156" lon="12.181666332157778"><ele>4.0</ele><time>2026-05-02T06:32:47Z</time></trkpt><trkpt lat="44.40031366806129" lon="12.181527843342323"><ele>4.0</ele><time>2026-05-02T06:32:48Z</time></trkpt><trkpt lat="44.40022993810776" lon="12.181343530553608"><ele>4.0</ele><time>2026-05-02T06:32:49Z</time></trkpt><trkpt lat="44.40012055703441" lon="12.181193509783283"><ele>4.0</ele><time>2026-05-02T06:32:50Z</time></trkpt><trkpt lat="44.400009932923346" lon="12.181041784132656"><ele>4.0</ele><time>2026-05-02T06:32:51Z</time></trkpt><trkpt lat="44.39989745666512" lon="12.180887209480762"><ele>4.0</ele><time>2026-05-02T06:32:52Z</time></trkpt><trkpt lat="44.39978191702596" lon="12.180729452122991"><ele>3.6666666666666665</ele><time>2026-05-02T06:32:53Z</time></trkpt><trkpt lat="44.399665340051" lon="12.180569827231428"><ele>3.333333333333333</ele><time>2026-05-02T06:32:54Z</time></trkpt><trkpt lat="44.39954504575041" lon="12.180405371544136"><ele>3.0</ele><time>2026-05-02T06:32:55Z</time></trkpt><trkpt lat="44.399415363924014" lon="12.180261630726543"><ele>3.0</ele><time>2026-05-02T06:32:56Z</time></trkpt><trkpt lat="44.3993009497671" lon="12.180104836552665"><ele>3.0</ele><time>2026-05-02T06:32:57Z</time></trkpt><trkpt lat="44.39918816057218" lon="12.17994768801017"><ele>3.0</ele><time>2026-05-02T06:32:58Z</time></trkpt><trkpt lat="44.39907306637061" lon="12.179786082016522"><ele>3.0</ele><time>2026-05-02T06:32:59Z</time></trkpt><trkpt lat="44.39895602096445" lon="12.179630513213619"><ele>3.0</ele><time>2026-05-02T06:33:00Z</time></trkpt><trkpt lat="44.39886032862368" lon="12.17946811441938"><ele>3.0</ele><time>2026-05-02T06:33:01Z</time></trkpt><trkpt lat="44.39876811305056" lon="12.179340732990488"><ele>3.0</ele><time>2026-05-02T06:33:02Z</time></trkpt><trkpt lat="44.39868517624895" lon="12.179243888593389"><ele>3.0</ele><time>2026-05-02T06:33:03Z</time></trkpt><trkpt lat="44.39863328941995" lon="12.179135831219604"><ele>3.0</ele><time>2026-05-02T06:33:04Z</time></trkpt><trkpt lat="44.39860448865496" lon="12.179021188772357"><ele>3.0</ele><time>2026-05-02T06:33:05Z</time></trkpt><trkpt lat="44.39859299032648" lon="12.178893117017683"><ele>3.0</ele><time>2026-05-02T06:33:06Z</time></trkpt><trkpt lat="44.39859063523078" lon="12.178744609783317"><ele>3.0</ele><time>2026-05-02T06:33:07Z</time></trkpt><trkpt lat="44.398569209868654" lon="12.178582714606298"><ele>3.0</ele><time>2026-05-02T06:33:08Z</time></trkpt><trkpt lat="44.398555809384256" lon="12.178422972075358"><ele>3.0</ele><time>2026-05-02T06:33:09Z</time></trkpt><trkpt lat="44.39856557841173" lon="12.178262179879033"><ele>3.0</ele><time>2026-05-02T06:33:10Z</time></trkpt><trkpt lat="44.398615462640045" lon="12.178110077423637"><ele>3.0</ele><time>2026-05-02T06:33:11Z</time></trkpt><trkpt lat="44.39868547781761" lon="12.177960689624147"><ele>3.0</ele><time>2026-05-02T06:33:12Z</time></trkpt><trkpt lat="44.398755808468316" lon="12.177808154217532"><ele>3.0</ele><time>2026-05-02T06:33:13Z</time></trkpt><trkpt lat="44.39880940386056" lon="12.17765355328649"><ele>3.0</ele><time>2026-05-02T06:33:14Z</time></trkpt><trkpt lat="44.39885293406499" lon="12.177489565542626"><ele>3.0</ele><time>2026-05-02T06:33:15Z</time></trkpt><trkpt lat="44.398891389491524" lon="12.17731349496432"><ele>3.25</ele><time>2026-05-02T06:33:16Z</time></trkpt><trkpt lat="44.39893110363442" lon="12.17712915866056"><ele>3.5</ele><time>2026-05-02T06:33:17Z</time></trkpt><trkpt lat="44.39896755489924" lon="12.17694851563017"><ele>3.75</ele><time>2026-05-02T06:33:18Z</time></trkpt><trkpt lat="44.399002607860034" lon="12.176772403060314"><ele>4.0</ele><time>2026-05-02T06:33:19Z</time></trkpt><trkpt lat="44.399039676711645" lon="12.17659086015309"><ele>4.0</ele><time>2026-05-02T06:33:20Z</time></trkpt><trkpt lat="44.39907502801509" lon="12.176411535046356"><ele>4.0</ele><time>2026-05-02T06:33:21Z</time></trkpt><trkpt lat="44.39911837615105" lon="12.176236300453285"><ele>4.0</ele><time>2026-05-02T06:33:22Z</time></trkpt><trkpt lat="44.39915666583952" lon="12.176048847472446"><ele>4.0</ele><time>2026-05-02T06:33:23Z</time></trkpt><trkpt lat="44.39919480235469" lon="12.175859215760944"><ele>4.0</ele><time>2026-05-02T06:33:24Z</time></trkpt><trkpt lat="44.399231818679716" lon="12.175694171737234"><ele>4.0</ele><time>2026-05-02T06:33:25Z</time></trkpt><trkpt lat="44.39926424125294" lon="12.175551239781571"><ele>4.0</ele><time>2026-05-02T06:33:26Z</time></trkpt><trkpt lat="44.39929291069962" lon="12.175431290604974"><ele>4.0</ele><time>2026-05-02T06:33:27Z</time></trkpt><trkpt lat="44.399325709026535" lon="12.175330497193073"><ele>4.0</ele><time>2026-05-02T06:33:28Z</time></trkpt><trkpt lat="44.39936257513503" lon="12.175255364490532"><ele>4.0</ele><time>2026-05-02T06:33:29Z</time></trkpt><trkpt lat="44.39942918174848" lon="12.175132124491691"><ele>4.0</ele><time>2026-05-02T06:33:31Z</time></trkpt><trkpt lat="44.3993995101355" lon="12.175014487353732"><ele>4.0</ele><time>2026-05-02T06:33:33Z</time></trkpt><trkpt lat="44.399277479844606" lon="12.17502096447763"><ele>4.0</ele><time>2026-05-02T06:33:35Z</time></trkpt><trkpt lat="44.399197415366245" lon="12.175011483875496"><ele>4.0</ele><time>2026-05-02T06:33:36Z</time></trkpt><trkpt lat="44.399093323267486" lon="12.174968778640045"><ele>4.0</ele><time>2026-05-02T06:33:37Z</time></trkpt><trkpt lat="44.39898046052213" lon="12.174919909475937"><ele>4.0</ele><time>2026-05-02T06:33:38Z</time></trkpt><trkpt lat="44.39885705249019" lon="12.174870542200122"><ele>4.0</ele><time>2026-05-02T06:33:39Z</time></trkpt><trkpt lat="44.398722475322245" lon="12.174821903439783"><ele>4.0</ele><time>2026-05-02T06:33:40Z</time></trkpt><trkpt lat="44.39858116892434" lon="12.174768827992763"><ele>5.0</ele><time>2026-05-02T06:33:41Z</time></trkpt><trkpt lat="44.39843475063878" lon="12.17471600820078"><ele>6.0</ele><time>2026-05-02T06:33:42Z</time></trkpt><trkpt lat="44.398284799540576" lon="12.174654170009873"><ele>7.0</ele><time>2026-05-02T06:33:43Z</time></trkpt><trkpt lat="44.39813849431799" lon="12.174567355699784"><ele>6.0</ele><time>2026-05-02T06:33:44Z</time></trkpt><trkpt lat="44.39799864516948" lon="12.174496593535261"><ele>5.0</ele><time>2026-05-02T06:33:45Z</time></trkpt><trkpt lat="44.39785853539287" lon="12.174438680945565"><ele>4.0</ele><time>2026-05-02T06:33:46Z</time></trkpt><trkpt lat="44.39772491557925" lon="12.174374439090041"><ele>3.0</ele><time>2026-05-02T06:33:47Z</time></trkpt><trkpt lat="44.397587146249016" lon="12.174316072410186"><ele>3.0</ele><time>2026-05-02T06:33:48Z</time></trkpt><trkpt lat="44.39744707784888" lon="12.174253836370978"><ele>3.0</ele><time>2026-05-02T06:33:49Z</time></trkpt><trkpt lat="44.397303042629346" lon="12.17419240090002"><ele>3.0</ele><time>2026-05-02T06:33:50Z</time></trkpt><trkpt lat="44.3971578549921" lon="12.174131321017848"><ele>3.0</ele><time>2026-05-02T06:33:51Z</time></trkpt><trkpt lat="44.39701152609754" lon="12.174070892954996"><ele>2.5</ele><time>2026-05-02T06:33:52Z</time></trkpt><trkpt lat="44.39686959628023" lon="12.174012783865521"><ele>2.0</ele><time>2026-05-02T06:33:53Z</time></trkpt><trkpt lat="44.39672802007072" lon="12.173952725344401"><ele>1.5</ele><time>2026-05-02T06:33:54Z</time></trkpt><trkpt lat="44.396584972144204" lon="12.173890561359332"><ele>1.0</ele><time>2026-05-02T06:33:55Z</time></trkpt><trkpt lat="44.39644217540167" lon="12.173823762255445"><ele>1.6666666666666665</ele><time>2026-05-02T06:33:56Z</time></trkpt><trkpt lat="44.39629886315402" lon="12.17375434765144"><ele>2.3333333333333335</ele><time>2026-05-02T06:33:57Z</time></trkpt><trkpt lat="44.39615334338303" lon="12.173691702845334"><ele>3.0</ele><time>2026-05-02T06:33:58Z</time></trkpt><trkpt lat="44.3960045056257" lon="12.173625233709647"><ele>3.0</ele><time>2026-05-02T06:33:59Z</time></trkpt><trkpt lat="44.39585389512792" lon="12.173550856856107"><ele>3.0</ele><time>2026-05-02T06:34:00Z</time></trkpt><trkpt lat="44.395707497436916" lon="12.173472132146282"><ele>3.0</ele><time>2026-05-02T06:34:01Z</time></trkpt><trkpt lat="44.39556522799608" lon="12.173393664947522"><ele>3.333333333333333</ele><time>2026-05-02T06:34:02Z</time></trkpt><trkpt lat="44.395422744617115" lon="12.173302435293815"><ele>3.6666666666666665</ele><time>2026-05-02T06:34:03Z</time></trkpt><trkpt lat="44.39528433171421" lon="12.173210956001421"><ele>4.0</ele><time>2026-05-02T06:34:04Z</time></trkpt><trkpt lat="44.39514965241099" lon="12.173100393392751"><ele>4.0</ele><time>2026-05-02T06:34:05Z</time></trkpt><trkpt lat="44.39501090941168" lon="12.172997314359174"><ele>4.0</ele><time>2026-05-02T06:34:06Z</time></trkpt><trkpt lat="44.3948755453849" lon="12.172891133214316"><ele>4.0</ele><time>2026-05-02T06:34:07Z</time></trkpt><trkpt lat="44.394741701472" lon="12.172774754507197"><ele>4.333333333333333</ele><time>2026-05-02T06:34:08Z</time></trkpt><trkpt lat="44.39460936361991" lon="12.172659243809614"><ele>4.666666666666667</ele><time>2026-05-02T06:34:09Z</time></trkpt><trkpt lat="44.39448138426905" lon="12.172545369582384"><ele>5.0</ele><time>2026-05-02T06:34:10Z</time></trkpt><trkpt lat="44.39435026783134" lon="12.172431488171807"><ele>4.75</ele><time>2026-05-02T06:34:11Z</time></trkpt><trkpt lat="44.394219408374816" lon="12.17232508060095"><ele>4.5</ele><time>2026-05-02T06:34:12Z</time></trkpt><trkpt lat="44.39409455456136" lon="12.172217241096302"><ele>4.25</ele><time>2026-05-02T06:34:13Z</time></trkpt><trkpt lat="44.39396967004136" lon="12.172103533901245"><ele>4.0</ele><time>2026-05-02T06:34:14Z</time></trkpt><trkpt lat="44.39384345468734" lon="12.171990205095007"><ele>4.333333333333333</ele><time>2026-05-02T06:34:15Z</time></trkpt><trkpt lat="44.393709905291985" lon="12.171886390081994"><ele>4.666666666666667</ele><time>2026-05-02T06:34:16Z</time></trkpt><trkpt lat="44.39357337506028" lon="12.17177756137107"><ele>5.0</ele><time>2026-05-02T06:34:17Z</time></trkpt><trkpt lat="44.39343123708919" lon="12.171666639084618"><ele>5.0</ele><time>2026-05-02T06:34:18Z</time></trkpt><trkpt lat="44.3932894630142" lon="12.171550291607929"><ele>5.0</ele><time>2026-05-02T06:34:19Z</time></trkpt><trkpt lat="44.39315343932981" lon="12.171439860565918"><ele>5.0</ele><time>2026-05-02T06:34:20Z</time></trkpt><trkpt lat="44.39301811487017" lon="12.171329580329884"><ele>4.666666666666667</ele><time>2026-05-02T06:34:21Z</time></trkpt><trkpt lat="44.392878763972824" lon="12.17120422063034"><ele>4.333333333333333</ele><time>2026-05-02T06:34:22Z</time></trkpt><trkpt lat="44.39274098964646" lon="12.171066086447434"><ele>4.0</ele><time>2026-05-02T06:34:23Z</time></trkpt><trkpt lat="44.39260427654948" lon="12.170924509719075"><ele>4.0</ele><time>2026-05-02T06:34:24Z</time></trkpt><trkpt lat="44.39246661001714" lon="12.17078458953949"><ele>4.0</ele><time>2026-05-02T06:34:25Z</time></trkpt><trkpt lat="44.392341310168646" lon="12.1706388597784"><ele>4.0</ele><time>2026-05-02T06:34:26Z</time></trkpt><trkpt lat="44.39221691060753" lon="12.1704935378566"><ele>3.6666666666666665</ele><time>2026-05-02T06:34:27Z</time></trkpt><trkpt lat="44.392093132033345" lon="12.170347117399025"><ele>3.333333333333333</ele><time>2026-05-02T06:34:28Z</time></trkpt><trkpt lat="44.3919693368446" lon="12.17020189259815"><ele>3.0</ele><time>2026-05-02T06:34:29Z</time></trkpt><trkpt lat="44.39184781251526" lon="12.170059203650467"><ele>3.0</ele><time>2026-05-02T06:34:30Z</time></trkpt><trkpt lat="44.39172481469328" lon="12.16991497133906"><ele>3.0</ele><time>2026-05-02T06:34:31Z</time></trkpt><trkpt lat="44.39160706936082" lon="12.169775453886617"><ele>3.0</ele><time>2026-05-02T06:34:32Z</time></trkpt><trkpt lat="44.39148915006473" lon="12.169637699841832"><ele>3.0</ele><time>2026-05-02T06:34:33Z</time></trkpt><trkpt lat="44.39137070230722" lon="12.169496991571076"><ele>3.0</ele><time>2026-05-02T06:34:34Z</time></trkpt><trkpt lat="44.39124548449107" lon="12.169355135847661"><ele>3.0</ele><time>2026-05-02T06:34:35Z</time></trkpt><trkpt lat="44.39112474059983" lon="12.16921381846706"><ele>3.0</ele><time>2026-05-02T06:34:36Z</time></trkpt><trkpt lat="44.39100344891385" lon="12.1690713199582"><ele>3.0</ele><time>2026-05-02T06:34:37Z</time></trkpt><trkpt lat="44.39088288254032" lon="12.168931012620705"><ele>3.0</ele><time>2026-05-02T06:34:38Z</time></trkpt><trkpt lat="44.39076287235958" lon="12.168789266870695"><ele>2.6666666666666665</ele><time>2026-05-02T06:34:39Z</time></trkpt><trkpt lat="44.39064669982353" lon="12.168648548332957"><ele>2.333333333333333</ele><time>2026-05-02T06:34:40Z</time></trkpt><trkpt lat="44.39052617754254" lon="12.16850681958018"><ele>2.0</ele><time>2026-05-02T06:34:41Z</time></trkpt><trkpt lat="44.390406167111074" lon="12.16836969883755"><ele>2.75</ele><time>2026-05-02T06:34:42Z</time></trkpt><trkpt lat="44.39028971581872" lon="12.168239891980868"><ele>3.5</ele><time>2026-05-02T06:34:43Z</time></trkpt><trkpt lat="44.39017558270194" lon="12.168109958424745"><ele>4.25</ele><time>2026-05-02T06:34:44Z</time></trkpt><trkpt lat="44.390058954816396" lon="12.167972998093548"><ele>5.0</ele><time>2026-05-02T06:34:45Z</time></trkpt><trkpt lat="44.38994323067879" lon="12.167830455194533"><ele>5.0</ele><time>2026-05-02T06:34:46Z</time></trkpt><trkpt lat="44.38982488483012" lon="12.167686002633369"><ele>5.0</ele><time>2026-05-02T06:34:47Z</time></trkpt><trkpt lat="44.38970401905974" lon="12.167536246781859"><ele>5.0</ele><time>2026-05-02T06:34:48Z</time></trkpt><trkpt lat="44.38958782915421" lon="12.167378412481728"><ele>5.0</ele><time>2026-05-02T06:34:49Z</time></trkpt><trkpt lat="44.38947754742308" lon="12.167219892613806"><ele>5.0</ele><time>2026-05-02T06:34:50Z</time></trkpt><trkpt lat="44.38937984984823" lon="12.167049017431811"><ele>5.0</ele><time>2026-05-02T06:34:51Z</time></trkpt><trkpt lat="44.38927531995987" lon="12.166886926648772"><ele>5.0</ele><time>2026-05-02T06:34:52Z</time></trkpt><trkpt lat="44.38917458595491" lon="12.166730247248609"><ele>5.0</ele><time>2026-05-02T06:34:53Z</time></trkpt><trkpt lat="44.38907319956303" lon="12.166572552761325"><ele>5.0</ele><time>2026-05-02T06:34:54Z</time></trkpt><trkpt lat="44.38897578830712" lon="12.166424425514776"><ele>5.0</ele><time>2026-05-02T06:34:55Z</time></trkpt><trkpt lat="44.38887743873032" lon="12.166274406121088"><ele>4.333333333333334</ele><time>2026-05-02T06:34:56Z</time></trkpt><trkpt lat="44.388777234185206" lon="12.166122693295923"><ele>3.666666666666667</ele><time>2026-05-02T06:34:57Z</time></trkpt><trkpt lat="44.388673531387944" lon="12.165968047285858"><ele>3.0</ele><time>2026-05-02T06:34:58Z</time></trkpt><trkpt lat="44.388570360225806" lon="12.165815003622818"><ele>3.666666666666667</ele><time>2026-05-02T06:34:59Z</time></trkpt><trkpt lat="44.38846733051036" lon="12.165656052997196"><ele>4.333333333333334</ele><time>2026-05-02T06:35:00Z</time></trkpt><trkpt lat="44.388364788840846" lon="12.165488141621985"><ele>5.0</ele><time>2026-05-02T06:35:01Z</time></trkpt><trkpt lat="44.388259171490006" lon="12.165310707653807"><ele>5.0</ele><time>2026-05-02T06:35:02Z</time></trkpt><trkpt lat="44.38815467224757" lon="12.165138696800694"><ele>5.0</ele><time>2026-05-02T06:35:03Z</time></trkpt><trkpt lat="44.38805132827481" lon="12.164971984980701"><ele>5.0</ele><time>2026-05-02T06:35:04Z</time></trkpt><trkpt lat="44.38794720753384" lon="12.164804019434317"><ele>5.0</ele><time>2026-05-02T06:35:05Z</time></trkpt><trkpt lat="44.38784009221569" lon="12.164647033487514"><ele>5.0</ele><time>2026-05-02T06:35:06Z</time></trkpt><trkpt lat="44.38772067018705" lon="12.164500174524724"><ele>5.0</ele><time>2026-05-02T06:35:07Z</time></trkpt><trkpt lat="44.387586057271214" lon="12.164378346073343"><ele>5.0</ele><time>2026-05-02T06:35:08Z</time></trkpt><trkpt lat="44.387456017737534" lon="12.164240189260148"><ele>5.0</ele><time>2026-05-02T06:35:09Z</time></trkpt><trkpt lat="44.38731938982185" lon="12.164106172862441"><ele>5.0</ele><time>2026-05-02T06:35:10Z</time></trkpt><trkpt lat="44.38718162680894" lon="12.163966765300604"><ele>4.333333333333334</ele><time>2026-05-02T06:35:11Z</time></trkpt><trkpt lat="44.38704212287223" lon="12.163823916688093"><ele>3.666666666666667</ele><time>2026-05-02T06:35:12Z</time></trkpt><trkpt lat="44.386905973417385" lon="12.163683740363812"><ele>3.0</ele><time>2026-05-02T06:35:13Z</time></trkpt><trkpt lat="44.38678397762316" lon="12.163526884587638"><ele>3.0</ele><time>2026-05-02T06:35:14Z</time></trkpt><trkpt lat="44.38665495233098" lon="12.16338827043906"><ele>3.0</ele><time>2026-05-02T06:35:15Z</time></trkpt><trkpt lat="44.38652561470072" lon="12.163247395531412"><ele>3.0</ele><time>2026-05-02T06:35:16Z</time></trkpt><trkpt lat="44.38638720828831" lon="12.163123014468292"><ele>3.0</ele><time>2026-05-02T06:35:17Z</time></trkpt><trkpt lat="44.38626034334336" lon="12.162980238327268"><ele>3.0</ele><time>2026-05-02T06:35:18Z</time></trkpt><trkpt lat="44.38612794285407" lon="12.16283161282591"><ele>3.0</ele><time>2026-05-02T06:35:19Z</time></trkpt><trkpt lat="44.38598498802496" lon="12.16268006411225"><ele>3.0</ele><time>2026-05-02T06:35:20Z</time></trkpt><trkpt lat="44.38585332866356" lon="12.162536157398815"><ele>3.0</ele><time>2026-05-02T06:35:21Z</time></trkpt><trkpt lat="44.38572657099329" lon="12.16240229665689"><ele>3.0</ele><time>2026-05-02T06:35:22Z</time></trkpt><trkpt lat="44.38561384643686" lon="12.162251209063959"><ele>3.333333333333333</ele><time>2026-05-02T06:35:23Z</time></trkpt><trkpt lat="44.38549073467432" lon="12.162118859337975"><ele>3.6666666666666665</ele><time>2026-05-02T06:35:24Z</time></trkpt><trkpt lat="44.38536553829143" lon="12.16198588583324"><ele>4.0</ele><time>2026-05-02T06:35:25Z</time></trkpt><trkpt lat="44.38524736717225" lon="12.16185807781123"><ele>4.0</ele><time>2026-05-02T06:35:26Z</time></trkpt><trkpt lat="44.385128043194086" lon="12.1617517660896"><ele>4.0</ele><time>2026-05-02T06:35:27Z</time></trkpt><trkpt lat="44.385026549865735" lon="12.161629376738512"><ele>4.0</ele><time>2026-05-02T06:35:28Z</time></trkpt><trkpt lat="44.384948787345394" lon="12.161510228390311"><ele>4.0</ele><time>2026-05-02T06:35:29Z</time></trkpt><trkpt lat="44.384865616423475" lon="12.161414207763046"><ele>3.6</ele><time>2026-05-02T06:35:30Z</time></trkpt><trkpt lat="44.384793108180716" lon="12.16132862529138"><ele>3.2</ele><time>2026-05-02T06:35:31Z</time></trkpt><trkpt lat="44.38474264517162" lon="12.161250308096532"><ele>2.8000000000000003</ele><time>2026-05-02T06:35:32Z</time></trkpt><trkpt lat="44.38471118909761" lon="12.161164614006045"><ele>2.4000000000000004</ele><time>2026-05-02T06:35:33Z</time></trkpt><trkpt lat="44.384763933904686" lon="12.160968262650755"><ele>2.0</ele><time>2026-05-02T06:35:35Z</time></trkpt><trkpt lat="44.384819375157186" lon="12.160836252929377"><ele>2.0</ele><time>2026-05-02T06:35:36Z</time></trkpt><trkpt lat="44.38490089338514" lon="12.160703184704161"><ele>2.0</ele><time>2026-05-02T06:35:37Z</time></trkpt><trkpt lat="44.38498168720292" lon="12.160555806134793"><ele>2.0</ele><time>2026-05-02T06:35:38Z</time></trkpt><trkpt lat="44.385065896755336" lon="12.160394656286078"><ele>2.0</ele><time>2026-05-02T06:35:39Z</time></trkpt><trkpt lat="44.38515661024003" lon="12.160222297462253"><ele>1.6666666666666665</ele><time>2026-05-02T06:35:40Z</time></trkpt><trkpt lat="44.38525337931713" lon="12.160038573151661"><ele>1.3333333333333333</ele><time>2026-05-02T06:35:41Z</time></trkpt><trkpt lat="44.38535277954103" lon="12.159852364097476"><ele>1.0</ele><time>2026-05-02T06:35:42Z</time></trkpt><trkpt lat="44.38545486700275" lon="12.159660052933484"><ele>1.0</ele><time>2026-05-02T06:35:43Z</time></trkpt><trkpt lat="44.38555731311724" lon="12.159465589937916"><ele>1.0</ele><time>2026-05-02T06:35:44Z</time></trkpt><trkpt lat="44.385662299112646" lon="12.159275229590673"><ele>1.0</ele><time>2026-05-02T06:35:45Z</time></trkpt><trkpt lat="44.3857675719413" lon="12.159078274274242"><ele>0.3333333333333333</ele><time>2026-05-02T06:35:46Z</time></trkpt><trkpt lat="44.38587314414561" lon="12.158880643999609"><ele>-0.3333333333333333</ele><time>2026-05-02T06:35:47Z</time></trkpt><trkpt lat="44.38597460764583" lon="12.158683649597087"><ele>-1.0</ele><time>2026-05-02T06:35:48Z</time></trkpt><trkpt lat="44.386077011908725" lon="12.158493769713356"><ele>-1.0</ele><time>2026-05-02T06:35:49Z</time></trkpt><trkpt lat="44.38617595289329" lon="12.158303276028946"><ele>-1.0</ele><time>2026-05-02T06:35:50Z</time></trkpt><trkpt lat="44.38627767040007" lon="12.158106687407969"><ele>-1.0</ele><time>2026-05-02T06:35:51Z</time></trkpt><trkpt lat="44.38637923323426" lon="12.157913792910223"><ele>-1.3333333333333333</ele><time>2026-05-02T06:35:52Z</time></trkpt><trkpt lat="44.38648279113169" lon="12.157722337378123"><ele>-1.6666666666666665</ele><time>2026-05-02T06:35:53Z</time></trkpt><trkpt lat="44.38658664670894" lon="12.157527226662701"><ele>-2.0</ele><time>2026-05-02T06:35:54Z</time></trkpt><trkpt lat="44.38669002221748" lon="12.15732728568889"><ele>-2.0</ele><time>2026-05-02T06:35:55Z</time></trkpt><trkpt lat="44.386789558389715" lon="12.157134833956361"><ele>-2.0</ele><time>2026-05-02T06:35:56Z</time></trkpt><trkpt lat="44.386891944629866" lon="12.156945045324038"><ele>-2.0</ele><time>2026-05-02T06:35:57Z</time></trkpt><trkpt lat="44.38699216224481" lon="12.156754889233891"><ele>-2.0</ele><time>2026-05-02T06:35:58Z</time></trkpt><trkpt lat="44.387092483875385" lon="12.156565855245098"><ele>-2.0</ele><time>2026-05-02T06:35:59Z</time></trkpt><trkpt lat="44.387190536396474" lon="12.156378188697364"><ele>-2.0</ele><time>2026-05-02T06:36:00Z</time></trkpt><trkpt lat="44.38728638665408" lon="12.156192774895834"><ele>-2.0</ele><time>2026-05-02T06:36:01Z</time></trkpt><trkpt lat="44.38738412273228" lon="12.156003896247386"><ele>-2.0</ele><time>2026-05-02T06:36:02Z</time></trkpt><trkpt lat="44.38748345404398" lon="12.155817626185048"><ele>-2.0</ele><time>2026-05-02T06:36:03Z</time></trkpt><trkpt lat="44.38758357745467" lon="12.155631475135182"><ele>-2.0</ele><time>2026-05-02T06:36:04Z</time></trkpt><trkpt lat="44.38768565580432" lon="12.15544568745227"><ele>-2.0</ele><time>2026-05-02T06:36:05Z</time></trkpt><trkpt lat="44.387784779292645" lon="12.155260312243415"><ele>-2.0</ele><time>2026-05-02T06:36:06Z</time></trkpt><trkpt lat="44.38788488221413" lon="12.155070457762825"><ele>-2.0</ele><time>2026-05-02T06:36:07Z</time></trkpt><trkpt lat="44.3879850631711" lon="12.154882011719607"><ele>-2.0</ele><time>2026-05-02T06:36:08Z</time></trkpt><trkpt lat="44.38808538354985" lon="12.154695742550574"><ele>-2.0</ele><time>2026-05-02T06:36:09Z</time></trkpt><trkpt lat="44.388184130993515" lon="12.154508231489888"><ele>-1.6666666666666665</ele><time>2026-05-02T06:36:10Z</time></trkpt><trkpt lat="44.38828354748964" lon="12.154320591847917"><ele>-1.3333333333333333</ele><time>2026-05-02T06:36:11Z</time></trkpt><trkpt lat="44.38838318746793" lon="12.154133520451108"><ele>-1.0</ele><time>2026-05-02T06:36:12Z</time></trkpt><trkpt lat="44.388483546781245" lon="12.153947222376033"><ele>-1.0</ele><time>2026-05-02T06:36:13Z</time></trkpt><trkpt lat="44.3885810348252" lon="12.153760824401333"><ele>-1.0</ele><time>2026-05-02T06:36:14Z</time></trkpt><trkpt lat="44.38867586582168" lon="12.153574257213458"><ele>-1.0</ele><time>2026-05-02T06:36:15Z</time></trkpt><trkpt lat="44.38877733916927" lon="12.153387140021074"><ele>-1.0</ele><time>2026-05-02T06:36:16Z</time></trkpt><trkpt lat="44.388872236085824" lon="12.15320484500815"><ele>-1.0</ele><time>2026-05-02T06:36:17Z</time></trkpt><trkpt lat="44.38896662433263" lon="12.153021940258444"><ele>-1.0</ele><time>2026-05-02T06:36:18Z</time></trkpt><trkpt lat="44.38905821587478" lon="12.152839487094107"><ele>-1.0</ele><time>2026-05-02T06:36:19Z</time></trkpt><trkpt lat="44.38915333277219" lon="12.152658079143167"><ele>-1.0</ele><time>2026-05-02T06:36:20Z</time></trkpt><trkpt lat="44.38925183249074" lon="12.152476520579926"><ele>-1.0</ele><time>2026-05-02T06:36:21Z</time></trkpt><trkpt lat="44.389347429449266" lon="12.15229522213911"><ele>-1.3333333333333333</ele><time>2026-05-02T06:36:22Z</time></trkpt><trkpt lat="44.38944539536997" lon="12.152113514788415"><ele>-1.6666666666666665</ele><time>2026-05-02T06:36:23Z</time></trkpt><trkpt lat="44.38954414232904" lon="12.151920464949386"><ele>-2.0</ele><time>2026-05-02T06:36:24Z</time></trkpt><trkpt lat="44.38963776926049" lon="12.15172123681145"><ele>-1.6666666666666665</ele><time>2026-05-02T06:36:25Z</time></trkpt><trkpt lat="44.38973534585585" lon="12.151520140796418"><ele>-1.3333333333333333</ele><time>2026-05-02T06:36:26Z</time></trkpt><trkpt lat="44.38984068805526" lon="12.151320300987452"><ele>-1.0</ele><time>2026-05-02T06:36:27Z</time></trkpt><trkpt lat="44.38994743491154" lon="12.151120698012296"><ele>-1.0</ele><time>2026-05-02T06:36:28Z</time></trkpt><trkpt lat="44.39005185879136" lon="12.1509172111858"><ele>-1.0</ele><time>2026-05-02T06:36:29Z</time></trkpt><trkpt lat="44.39015153083664" lon="12.150717533054399"><ele>-1.0</ele><time>2026-05-02T06:36:30Z</time></trkpt><trkpt lat="44.39025307581491" lon="12.150521064618191"><ele>-1.0</ele><time>2026-05-02T06:36:31Z</time></trkpt><trkpt lat="44.39035333034177" lon="12.150324314334096"><ele>-1.0</ele><time>2026-05-02T06:36:32Z</time></trkpt><trkpt lat="44.39045483802397" lon="12.150128550089066"><ele>-1.0</ele><time>2026-05-02T06:36:33Z</time></trkpt><trkpt lat="44.39055600882082" lon="12.149929156871554"><ele>-1.3333333333333333</ele><time>2026-05-02T06:36:34Z</time></trkpt><trkpt lat="44.39065659711291" lon="12.149730335008153"><ele>-1.6666666666666665</ele><time>2026-05-02T06:36:35Z</time></trkpt><trkpt lat="44.39075501975299" lon="12.149534267025178"><ele>-2.0</ele><time>2026-05-02T06:36:36Z</time></trkpt><trkpt lat="44.39085578432322" lon="12.149336975545864"><ele>-2.0</ele><time>2026-05-02T06:36:37Z</time></trkpt><trkpt lat="44.39095833459633" lon="12.149138203063018"><ele>-2.0</ele><time>2026-05-02T06:36:38Z</time></trkpt><trkpt lat="44.39106013883326" lon="12.148941468802459"><ele>-2.0</ele><time>2026-05-02T06:36:39Z</time></trkpt><trkpt lat="44.3911569802845" lon="12.148753827690738"><ele>-2.0</ele><time>2026-05-02T06:36:40Z</time></trkpt><trkpt lat="44.39125566451048" lon="12.148562361964563"><ele>-2.0</ele><time>2026-05-02T06:36:41Z</time></trkpt><trkpt lat="44.39135513341669" lon="12.148370072385344"><ele>-2.0</ele><time>2026-05-02T06:36:42Z</time></trkpt><trkpt lat="44.391452886553274" lon="12.148177320501384"><ele>-1.6666666666666665</ele><time>2026-05-02T06:36:43Z</time></trkpt><trkpt lat="44.39155100199524" lon="12.147989626037287"><ele>-1.3333333333333333</ele><time>2026-05-02T06:36:44Z</time></trkpt><trkpt lat="44.391646529658054" lon="12.147796912406344"><ele>-1.0</ele><time>2026-05-02T06:36:45Z</time></trkpt><trkpt lat="44.39174228296197" lon="12.147594701460875"><ele>-0.6666666666666666</ele><time>2026-05-02T06:36:46Z</time></trkpt><trkpt lat="44.39182730319097" lon="12.147374957408061"><ele>-0.3333333333333333</ele><time>2026-05-02T06:36:47Z</time></trkpt><trkpt lat="44.391898066162526" lon="12.1471414164548"><ele>0.0</ele><time>2026-05-02T06:36:48Z</time></trkpt><trkpt lat="44.39196209324667" lon="12.146891523456512"><ele>0.0</ele><time>2026-05-02T06:36:49Z</time></trkpt><trkpt lat="44.392027636189276" lon="12.146632429353964"><ele>0.0</ele><time>2026-05-02T06:36:50Z</time></trkpt><trkpt lat="44.392094450376334" lon="12.146377152884794"><ele>0.0</ele><time>2026-05-02T06:36:51Z</time></trkpt><trkpt lat="44.39215983254114" lon="12.146134603610289"><ele>0.0</ele><time>2026-05-02T06:36:52Z</time></trkpt><trkpt lat="44.39222264832802" lon="12.145913368527117"><ele>0.0</ele><time>2026-05-02T06:36:53Z</time></trkpt><trkpt lat="44.39228426498333" lon="12.145696383534288"><ele>0.0</ele><time>2026-05-02T06:36:54Z</time></trkpt><trkpt lat="44.39234485499694" lon="12.145476447410315"><ele>0.0</ele><time>2026-05-02T06:36:55Z</time></trkpt><trkpt lat="44.39240844193035" lon="12.145253044106216"><ele>0.0</ele><time>2026-05-02T06:36:56Z</time></trkpt><trkpt lat="44.392471053987656" lon="12.145029063027794"><ele>0.0</ele><time>2026-05-02T06:36:57Z</time></trkpt><trkpt lat="44.39253167911763" lon="12.144799681506228"><ele>-0.3333333333333333</ele><time>2026-05-02T06:36:58Z</time></trkpt><trkpt lat="44.39259295128639" lon="12.14456500235255"><ele>-0.6666666666666666</ele><time>2026-05-02T06:36:59Z</time></trkpt><trkpt lat="44.392657125292146" lon="12.144332403891857"><ele>-1.0</ele><time>2026-05-02T06:37:00Z</time></trkpt><trkpt lat="44.392723574173694" lon="12.144101193311725"><ele>-0.3333333333333333</ele><time>2026-05-02T06:37:01Z</time></trkpt><trkpt lat="44.39278992653022" lon="12.143868368034333"><ele>0.3333333333333333</ele><time>2026-05-02T06:37:02Z</time></trkpt><trkpt lat="44.39285458909118" lon="12.143631146051902"><ele>1.0</ele><time>2026-05-02T06:37:03Z</time></trkpt><trkpt lat="44.39291776829084" lon="12.143397925767394"><ele>1.0</ele><time>2026-05-02T06:37:04Z</time></trkpt><trkpt lat="44.39298271025119" lon="12.143174503418258"><ele>1.0</ele><time>2026-05-02T06:37:05Z</time></trkpt><trkpt lat="44.393046054075164" lon="12.142955133649119"><ele>1.0</ele><time>2026-05-02T06:37:06Z</time></trkpt><trkpt lat="44.3931068269439" lon="12.142734846965402"><ele>1.0</ele><time>2026-05-02T06:37:07Z</time></trkpt><trkpt lat="44.39316657292229" lon="12.14250824119161"><ele>1.0</ele><time>2026-05-02T06:37:08Z</time></trkpt><trkpt lat="44.393227445177224" lon="12.142282605883297"><ele>1.0</ele><time>2026-05-02T06:37:09Z</time></trkpt><trkpt lat="44.39329116534042" lon="12.142053698860499"><ele>0.6666666666666666</ele><time>2026-05-02T06:37:10Z</time></trkpt><trkpt lat="44.393354018649404" lon="12.141817855962827"><ele>0.3333333333333333</ele><time>2026-05-02T06:37:11Z</time></trkpt><trkpt lat="44.3934174182659" lon="12.141585653947194"><ele>0.0</ele><time>2026-05-02T06:37:12Z</time></trkpt><trkpt lat="44.393481860148476" lon="12.141353491647575"><ele>0.0</ele><time>2026-05-02T06:37:13Z</time></trkpt><trkpt lat="44.39354444207822" lon="12.14112573421095"><ele>0.0</ele><time>2026-05-02T06:37:14Z</time></trkpt><trkpt lat="44.393607296159146" lon="12.140905741790665"><ele>0.0</ele><time>2026-05-02T06:37:15Z</time></trkpt><trkpt lat="44.3936689984631" lon="12.140688333501503"><ele>0.0</ele><time>2026-05-02T06:37:16Z</time></trkpt><trkpt lat="44.39372995692025" lon="12.140474911677538"><ele>0.0</ele><time>2026-05-02T06:37:17Z</time></trkpt><trkpt lat="44.39379046363521" lon="12.140254754907273"><ele>0.0</ele><time>2026-05-02T06:37:18Z</time></trkpt><trkpt lat="44.39385133501247" lon="12.140030136631012"><ele>0.3333333333333333</ele><time>2026-05-02T06:37:19Z</time></trkpt><trkpt lat="44.39391157917693" lon="12.139808282250064"><ele>0.6666666666666666</ele><time>2026-05-02T06:37:20Z</time></trkpt><trkpt lat="44.39397424825874" lon="12.139586093896494"><ele>1.0</ele><time>2026-05-02T06:37:21Z</time></trkpt><trkpt lat="44.39403826224521" lon="12.13936346132187"><ele>1.0</ele><time>2026-05-02T06:37:22Z</time></trkpt><trkpt lat="44.394102557127916" lon="12.139136717894045"><ele>1.0</ele><time>2026-05-02T06:37:23Z</time></trkpt><trkpt lat="44.39416724350035" lon="12.138909450137168"><ele>1.0</ele><time>2026-05-02T06:37:24Z</time></trkpt><trkpt lat="44.39423087411161" lon="12.13868122200484"><ele>0.6666666666666666</ele><time>2026-05-02T06:37:25Z</time></trkpt><trkpt lat="44.3942935252143" lon="12.138453472713259"><ele>0.3333333333333333</ele><time>2026-05-02T06:37:26Z</time></trkpt><trkpt lat="44.394355310816046" lon="12.138229079297913"><ele>0.0</ele><time>2026-05-02T06:37:27Z</time></trkpt><trkpt lat="44.394419327983414" lon="12.138008054007871"><ele>0.0</ele><time>2026-05-02T06:37:28Z</time></trkpt><trkpt lat="44.39448330417309" lon="12.137799928896072"><ele>0.0</ele><time>2026-05-02T06:37:29Z</time></trkpt><trkpt lat="44.39455020771879" lon="12.13760269406489"><ele>0.0</ele><time>2026-05-02T06:37:30Z</time></trkpt><trkpt lat="44.3946173426594" lon="12.137414835506751"><ele>0.3333333333333333</ele><time>2026-05-02T06:37:31Z</time></trkpt><trkpt lat="44.394687960550655" lon="12.137225157388896"><ele>0.6666666666666666</ele><time>2026-05-02T06:37:32Z</time></trkpt><trkpt lat="44.39476220945875" lon="12.137029369205177"><ele>1.0</ele><time>2026-05-02T06:37:33Z</time></trkpt><trkpt lat="44.39483710528416" lon="12.13682214653146"><ele>1.0</ele><time>2026-05-02T06:37:34Z</time></trkpt><trkpt lat="44.39491147699343" lon="12.136612021376521"><ele>1.0</ele><time>2026-05-02T06:37:35Z</time></trkpt><trkpt lat="44.3949918906823" lon="12.136387149765822"><ele>1.0</ele><time>2026-05-02T06:37:36Z</time></trkpt><trkpt lat="44.395074562745364" lon="12.13616482284935"><ele>1.0</ele><time>2026-05-02T06:37:37Z</time></trkpt><trkpt lat="44.39515206064697" lon="12.135958581743198"><ele>1.0</ele><time>2026-05-02T06:37:38Z</time></trkpt><trkpt lat="44.39522458017104" lon="12.135772378565868"><ele>1.0</ele><time>2026-05-02T06:37:39Z</time></trkpt><trkpt lat="44.39529209269247" lon="12.135600707200915"><ele>1.0</ele><time>2026-05-02T06:37:40Z</time></trkpt><trkpt lat="44.39535395196288" lon="12.135448768528692"><ele>1.0</ele><time>2026-05-02T06:37:41Z</time></trkpt><trkpt lat="44.39540696107672" lon="12.13531360340895"><ele>1.0</ele><time>2026-05-02T06:37:42Z</time></trkpt><trkpt lat="44.395433915180135" lon="12.13519523661665"><ele>1.0</ele><time>2026-05-02T06:37:43Z</time></trkpt><trkpt lat="44.39544998045734" lon="12.135063976816612"><ele>1.0</ele><time>2026-05-02T06:37:44Z</time></trkpt><trkpt lat="44.395400031829155" lon="12.134921394878955"><ele>0.75</ele><time>2026-05-02T06:37:45Z</time></trkpt><trkpt lat="44.395300032000904" lon="12.134820066932143"><ele>0.5</ele><time>2026-05-02T06:37:46Z</time></trkpt><trkpt lat="44.395183246449086" lon="12.134725988138367"><ele>0.25</ele><time>2026-05-02T06:37:47Z</time></trkpt><trkpt lat="44.39504884967968" lon="12.134617876785272"><ele>0.0</ele><time>2026-05-02T06:37:48Z</time></trkpt><trkpt lat="44.39490284089569" lon="12.134503976629965"><ele>0.0</ele><time>2026-05-02T06:37:49Z</time></trkpt><trkpt lat="44.39475812512173" lon="12.134389061944045"><ele>0.0</ele><time>2026-05-02T06:37:50Z</time></trkpt><trkpt lat="44.394615707512294" lon="12.134282378860608"><ele>0.0</ele><time>2026-05-02T06:37:51Z</time></trkpt><trkpt lat="44.39448229066661" lon="12.134181787399864"><ele>0.3333333333333333</ele><time>2026-05-02T06:37:52Z</time></trkpt><trkpt lat="44.39434703166107" lon="12.134090648820845"><ele>0.6666666666666666</ele><time>2026-05-02T06:37:53Z</time></trkpt><trkpt lat="44.3942104221776" lon="12.13399061667146"><ele>1.0</ele><time>2026-05-02T06:37:54Z</time></trkpt><trkpt lat="44.394066342521775" lon="12.133883938662416"><ele>1.0</ele><time>2026-05-02T06:37:55Z</time></trkpt><trkpt lat="44.393918221851294" lon="12.133775573592636"><ele>1.0</ele><time>2026-05-02T06:37:56Z</time></trkpt><trkpt lat="44.39376800098261" lon="12.133670807416213"><ele>1.0</ele><time>2026-05-02T06:37:57Z</time></trkpt><trkpt lat="44.39362119139871" lon="12.133568371483225"><ele>1.0</ele><time>2026-05-02T06:37:58Z</time></trkpt><trkpt lat="44.39347972524046" lon="12.133465599329147"><ele>1.0</ele><time>2026-05-02T06:37:59Z</time></trkpt><trkpt lat="44.39333594087633" lon="12.133363014121786"><ele>1.0</ele><time>2026-05-02T06:38:00Z</time></trkpt><trkpt lat="44.393187568228946" lon="12.133265252222925"><ele>0.6666666666666666</ele><time>2026-05-02T06:38:01Z</time></trkpt><trkpt lat="44.39303800443909" lon="12.133169249752363"><ele>0.3333333333333333</ele><time>2026-05-02T06:38:02Z</time></trkpt><trkpt lat="44.39288868511129" lon="12.13307284374007"><ele>0.0</ele><time>2026-05-02T06:38:03Z</time></trkpt><trkpt lat="44.39273891695085" lon="12.132977839538212"><ele>0.0</ele><time>2026-05-02T06:38:04Z</time></trkpt><trkpt lat="44.392589708509156" lon="12.132888631699089"><ele>0.0</ele><time>2026-05-02T06:38:05Z</time></trkpt><trkpt lat="44.392446738076515" lon="12.132806526870077"><ele>0.0</ele><time>2026-05-02T06:38:06Z</time></trkpt><trkpt lat="44.39231415476388" lon="12.132731036276192"><ele>0.0</ele><time>2026-05-02T06:38:07Z</time></trkpt><trkpt lat="44.392185993855016" lon="12.132662566781649"><ele>0.0</ele><time>2026-05-02T06:38:08Z</time></trkpt><trkpt lat="44.39205215280159" lon="12.13259666952635"><ele>0.0</ele><time>2026-05-02T06:38:09Z</time></trkpt><trkpt lat="44.391912192171155" lon="12.132533756950997"><ele>0.0</ele><time>2026-05-02T06:38:10Z</time></trkpt><trkpt lat="44.3917831383848" lon="12.132477668279858"><ele>0.0</ele><time>2026-05-02T06:38:11Z</time></trkpt><trkpt lat="44.39167785127821" lon="12.132427989752196"><ele>0.0</ele><time>2026-05-02T06:38:12Z</time></trkpt><trkpt lat="44.39159490191493" lon="12.132370968427796"><ele>0.0</ele><time>2026-05-02T06:38:13Z</time></trkpt><trkpt lat="44.391543880490175" lon="12.132278119446434"><ele>0.0</ele><time>2026-05-02T06:38:14Z</time></trkpt><trkpt lat="44.39152437216399" lon="12.132146624860729"><ele>0.0</ele><time>2026-05-02T06:38:15Z</time></trkpt><trkpt lat="44.39152886927497" lon="12.13198713164188"><ele>0.0</ele><time>2026-05-02T06:38:16Z</time></trkpt><trkpt lat="44.391544702088495" lon="12.131803133691262"><ele>0.0</ele><time>2026-05-02T06:38:17Z</time></trkpt><trkpt lat="44.39156669911282" lon="12.131598761077582"><ele>0.0</ele><time>2026-05-02T06:38:18Z</time></trkpt><trkpt lat="44.391592471078404" lon="12.131380850125277"><ele>0.0</ele><time>2026-05-02T06:38:19Z</time></trkpt><trkpt lat="44.39162566763224" lon="12.131151724515412"><ele>0.6666666666666666</ele><time>2026-05-02T06:38:20Z</time></trkpt><trkpt lat="44.3916673553964" lon="12.130921036447905"><ele>1.3333333333333333</ele><time>2026-05-02T06:38:21Z</time></trkpt><trkpt lat="44.39171460342258" lon="12.130691240410352"><ele>2.0</ele><time>2026-05-02T06:38:22Z</time></trkpt><trkpt lat="44.39176141930652" lon="12.130470258780075"><ele>2.0</ele><time>2026-05-02T06:38:23Z</time></trkpt><trkpt lat="44.391807003537124" lon="12.130254024714473"><ele>2.0</ele><time>2026-05-02T06:38:24Z</time></trkpt><trkpt lat="44.391852266467986" lon="12.130037605663981"><ele>2.0</ele><time>2026-05-02T06:38:25Z</time></trkpt><trkpt lat="44.391899534740965" lon="12.129820480122433"><ele>2.0</ele><time>2026-05-02T06:38:26Z</time></trkpt><trkpt lat="44.39195081866668" lon="12.129603726139415"><ele>2.0</ele><time>2026-05-02T06:38:27Z</time></trkpt><trkpt lat="44.39200801254009" lon="12.129382395664353"><ele>2.0</ele><time>2026-05-02T06:38:28Z</time></trkpt><trkpt lat="44.39207572516827" lon="12.129157880167652"><ele>1.6666666666666665</ele><time>2026-05-02T06:38:29Z</time></trkpt><trkpt lat="44.39215491769452" lon="12.128941768154924"><ele>1.3333333333333333</ele><time>2026-05-02T06:38:30Z</time></trkpt><trkpt lat="44.39223906905525" lon="12.128727976023496"><ele>1.0</ele><time>2026-05-02T06:38:31Z</time></trkpt><trkpt lat="44.39231755780008" lon="12.128523736665317"><ele>1.0</ele><time>2026-05-02T06:38:32Z</time></trkpt><trkpt lat="44.39238952586828" lon="12.128336831645315"><ele>1.0</ele><time>2026-05-02T06:38:33Z</time></trkpt><trkpt lat="44.392462443023994" lon="12.128151280713725"><ele>1.0</ele><time>2026-05-02T06:38:34Z</time></trkpt><trkpt lat="44.39253700441266" lon="12.127959229833326"><ele>0.6666666666666666</ele><time>2026-05-02T06:38:35Z</time></trkpt><trkpt lat="44.392612044562725" lon="12.127761802203144"><ele>0.3333333333333333</ele><time>2026-05-02T06:38:36Z</time></trkpt><trkpt lat="44.39268799139234" lon="12.12756448055229"><ele>0.0</ele><time>2026-05-02T06:38:37Z</time></trkpt><trkpt lat="44.39276384284991" lon="12.127364550952704"><ele>0.0</ele><time>2026-05-02T06:38:38Z</time></trkpt><trkpt lat="44.39284048961356" lon="12.12716716855534"><ele>0.0</ele><time>2026-05-02T06:38:39Z</time></trkpt><trkpt lat="44.39291626710262" lon="12.126976773462257"><ele>0.0</ele><time>2026-05-02T06:38:40Z</time></trkpt><trkpt lat="44.39299081158864" lon="12.12679453942084"><ele>-0.3333333333333333</ele><time>2026-05-02T06:38:41Z</time></trkpt><trkpt lat="44.39306403846567" lon="12.126612450808873"><ele>-0.6666666666666666</ele><time>2026-05-02T06:38:42Z</time></trkpt><trkpt lat="44.393138456771155" lon="12.126429945989006"><ele>-1.0</ele><time>2026-05-02T06:38:43Z</time></trkpt><trkpt lat="44.393214359888916" lon="12.126246945777543"><ele>-1.0</ele><time>2026-05-02T06:38:44Z</time></trkpt><trkpt lat="44.39329260595007" lon="12.126064442478718"><ele>-1.0</ele><time>2026-05-02T06:38:45Z</time></trkpt><trkpt lat="44.39336842686585" lon="12.125888790770405"><ele>-1.0</ele><time>2026-05-02T06:38:46Z</time></trkpt><trkpt lat="44.39344067065946" lon="12.125712311613723"><ele>-1.0</ele><time>2026-05-02T06:38:47Z</time></trkpt><trkpt lat="44.39351324858571" lon="12.125542337353643"><ele>-1.0</ele><time>2026-05-02T06:38:48Z</time></trkpt><trkpt lat="44.39358582647605" lon="12.125380528764554"><ele>-1.0</ele><time>2026-05-02T06:38:49Z</time></trkpt><trkpt lat="44.39364975647697" lon="12.125240737530415"><ele>-1.0</ele><time>2026-05-02T06:38:50Z</time></trkpt><trkpt lat="44.39370971887036" lon="12.12511851899476"><ele>-1.0</ele><time>2026-05-02T06:38:51Z</time></trkpt><trkpt lat="44.39375848529881" lon="12.1250110310488"><ele>-1.0</ele><time>2026-05-02T06:38:52Z</time></trkpt><trkpt lat="44.39379923769305" lon="12.124921266001959"><ele>-0.9999999999999999</ele><time>2026-05-02T06:38:53Z</time></trkpt><trkpt lat="44.39383700774964" lon="12.124841044420233"><ele>-1.0</ele><time>2026-05-02T06:38:54Z</time></trkpt><trkpt lat="44.39387124683724" lon="12.124761062554231"><ele>-1.0</ele><time>2026-05-02T06:38:55Z</time></trkpt><trkpt lat="44.39390362089293" lon="12.124677660159954"><ele>-0.9999999999999999</ele><time>2026-05-02T06:38:56Z</time></trkpt><trkpt lat="44.39393484345961" lon="12.12459336079304"><ele>-1.0</ele><time>2026-05-02T06:38:57Z</time></trkpt><trkpt lat="44.39398145447174" lon="12.124472569392724"><ele>-1.0</ele><time>2026-05-02T06:38:59Z</time></trkpt><trkpt lat="44.39387963159406" lon="12.124365758510633"><ele>-0.8</ele><time>2026-05-02T06:39:00Z</time></trkpt><trkpt lat="44.39379664461628" lon="12.124310311623208"><ele>-0.6000000000000001</ele><time>2026-05-02T06:39:01Z</time></trkpt><trkpt lat="44.39370363578758" lon="12.12424859553872"><ele>-0.4</ele><time>2026-05-02T06:39:02Z</time></trkpt><trkpt lat="44.39359718143142" lon="12.124175722892764"><ele>-0.2</ele><time>2026-05-02T06:39:03Z</time></trkpt><trkpt lat="44.39348429196537" lon="12.124097470561123"><ele>0.0</ele><time>2026-05-02T06:39:04Z</time></trkpt><trkpt lat="44.39336285878337" lon="12.12401756937048"><ele>0.0</ele><time>2026-05-02T06:39:05Z</time></trkpt><trkpt lat="44.39324065337623" lon="12.123916641419578"><ele>0.0</ele><time>2026-05-02T06:39:06Z</time></trkpt><trkpt lat="44.39310713822689" lon="12.123823872372288"><ele>0.0</ele><time>2026-05-02T06:39:07Z</time></trkpt><trkpt lat="44.39296351952076" lon="12.123724771084555"><ele>0.0</ele><time>2026-05-02T06:39:08Z</time></trkpt><trkpt lat="44.39281721209471" lon="12.123622441175483"><ele>0.0</ele><time>2026-05-02T06:39:09Z</time></trkpt><trkpt lat="44.39267203290645" lon="12.1235175075825"><ele>0.0</ele><time>2026-05-02T06:39:10Z</time></trkpt><trkpt lat="44.39252449237401" lon="12.123411274076608"><ele>0.0</ele><time>2026-05-02T06:39:11Z</time></trkpt><trkpt lat="44.392382514373196" lon="12.12331235626939"><ele>0.0</ele><time>2026-05-02T06:39:12Z</time></trkpt><trkpt lat="44.392247829905784" lon="12.123221031283567"><ele>0.0</ele><time>2026-05-02T06:39:13Z</time></trkpt><trkpt lat="44.39211039053934" lon="12.123127302925491"><ele>0.3333333333333333</ele><time>2026-05-02T06:39:14Z</time></trkpt><trkpt lat="44.391967278635136" lon="12.123037542679404"><ele>0.6666666666666666</ele><time>2026-05-02T06:39:15Z</time></trkpt><trkpt lat="44.39182053699043" lon="12.122954114856393"><ele>1.0</ele><time>2026-05-02T06:39:16Z</time></trkpt><trkpt lat="44.39167335359936" lon="12.122867751811258"><ele>1.0</ele><time>2026-05-02T06:39:17Z</time></trkpt><trkpt lat="44.391523148766744" lon="12.122789400958942"><ele>1.0</ele><time>2026-05-02T06:39:18Z</time></trkpt><trkpt lat="44.3913784252541" lon="12.122708854172272"><ele>1.0</ele><time>2026-05-02T06:39:19Z</time></trkpt><trkpt lat="44.391230646556835" lon="12.122630077834605"><ele>0.6666666666666666</ele><time>2026-05-02T06:39:20Z</time></trkpt><trkpt lat="44.39108350783888" lon="12.122552866171143"><ele>0.3333333333333333</ele><time>2026-05-02T06:39:21Z</time></trkpt><trkpt lat="44.39093811359254" lon="12.12247763404308"><ele>0.0</ele><time>2026-05-02T06:39:22Z</time></trkpt><trkpt lat="44.390789570687886" lon="12.122397118868465"><ele>0.0</ele><time>2026-05-02T06:39:23Z</time></trkpt><trkpt lat="44.390636343870796" lon="12.12231480960188"><ele>0.0</ele><time>2026-05-02T06:39:24Z</time></trkpt><trkpt lat="44.39048546977535" lon="12.122235030311767"><ele>0.0</ele><time>2026-05-02T06:39:25Z</time></trkpt><trkpt lat="44.3903330370549" lon="12.122152602640782"><ele>-0.3333333333333333</ele><time>2026-05-02T06:39:26Z</time></trkpt><trkpt lat="44.390186088617675" lon="12.12207264563694"><ele>-0.6666666666666666</ele><time>2026-05-02T06:39:27Z</time></trkpt><trkpt lat="44.39003851792474" lon="12.12199260632443"><ele>-1.0</ele><time>2026-05-02T06:39:28Z</time></trkpt><trkpt lat="44.389892376879004" lon="12.121912614004344"><ele>-1.0</ele><time>2026-05-02T06:39:29Z</time></trkpt><trkpt lat="44.38975287357562" lon="12.121834828943657"><ele>-1.0</ele><time>2026-05-02T06:39:30Z</time></trkpt><trkpt lat="44.38961554187879" lon="12.121761645258802"><ele>-1.0</ele><time>2026-05-02T06:39:31Z</time></trkpt><trkpt lat="44.38947342670271" lon="12.121690801905274"><ele>-1.0</ele><time>2026-05-02T06:39:32Z</time></trkpt><trkpt lat="44.38932678830949" lon="12.1216290306452"><ele>-0.3333333333333333</ele><time>2026-05-02T06:39:33Z</time></trkpt><trkpt lat="44.38918429372847" lon="12.121556139521394"><ele>0.3333333333333333</ele><time>2026-05-02T06:39:34Z</time></trkpt><trkpt lat="44.389031103421594" lon="12.121503622615839"><ele>1.0</ele><time>2026-05-02T06:39:35Z</time></trkpt><trkpt lat="44.388881938360996" lon="12.121452418889966"><ele>1.0</ele><time>2026-05-02T06:39:36Z</time></trkpt><trkpt lat="44.38873309962487" lon="12.1213998583248"><ele>1.0</ele><time>2026-05-02T06:39:37Z</time></trkpt><trkpt lat="44.38858152852433" lon="12.121346483645498"><ele>1.0</ele><time>2026-05-02T06:39:38Z</time></trkpt><trkpt lat="44.38842893318027" lon="12.121294575574463"><ele>1.0</ele><time>2026-05-02T06:39:39Z</time></trkpt><trkpt lat="44.388288569848484" lon="12.121240281552296"><ele>1.0</ele><time>2026-05-02T06:39:40Z</time></trkpt><trkpt lat="44.38814450093939" lon="12.121183813666244"><ele>1.0</ele><time>2026-05-02T06:39:41Z</time></trkpt><trkpt lat="44.38800047977028" lon="12.12112659308915"><ele>1.0</ele><time>2026-05-02T06:39:42Z</time></trkpt><trkpt lat="44.38785753335683" lon="12.12107024686214"><ele>0.6666666666666666</ele><time>2026-05-02T06:39:43Z</time></trkpt><trkpt lat="44.38771179233789" lon="12.121014711975747"><ele>0.3333333333333333</ele><time>2026-05-02T06:39:44Z</time></trkpt><trkpt lat="44.387565742393605" lon="12.120936653747137"><ele>0.0</ele><time>2026-05-02T06:39:45Z</time></trkpt><trkpt lat="44.3874150143317" lon="12.1208753175085"><ele>0.0</ele><time>2026-05-02T06:39:46Z</time></trkpt><trkpt lat="44.38725759908602" lon="12.120831623696123"><ele>0.0</ele><time>2026-05-02T06:39:47.001Z</time></trkpt><trkpt lat="44.3871063587046" lon="12.120749286031534"><ele>0.0</ele><time>2026-05-02T06:39:48Z</time></trkpt><trkpt lat="44.38695280913435" lon="12.12065560971432"><ele>0.3333333333333333</ele><time>2026-05-02T06:39:49Z</time></trkpt><trkpt lat="44.38680822779879" lon="12.120525999204636"><ele>0.6666666666666666</ele><time>2026-05-02T06:39:50Z</time></trkpt><trkpt lat="44.38666527542831" lon="12.120410619615084"><ele>1.0</ele><time>2026-05-02T06:39:51Z</time></trkpt><trkpt lat="44.386526267643895" lon="12.120297262554898"><ele>1.0</ele><time>2026-05-02T06:39:52Z</time></trkpt><trkpt lat="44.38639097636734" lon="12.120186936345934"><ele>1.0</ele><time>2026-05-02T06:39:53Z</time></trkpt><trkpt lat="44.38625455657083" lon="12.120100207865171"><ele>1.0</ele><time>2026-05-02T06:39:54Z</time></trkpt><trkpt lat="44.38612594141026" lon="12.119995322150483"><ele>0.75</ele><time>2026-05-02T06:39:55Z</time></trkpt><trkpt lat="44.385999946095986" lon="12.119896928844478"><ele>0.5</ele><time>2026-05-02T06:39:56Z</time></trkpt><trkpt lat="44.38587586041687" lon="12.119795892948986"><ele>0.25</ele><time>2026-05-02T06:39:57Z</time></trkpt><trkpt lat="44.38576135814617" lon="12.11967769349211"><ele>0.0</ele><time>2026-05-02T06:39:58Z</time></trkpt><trkpt lat="44.38563285974162" lon="12.11957590028311"><ele>0.3333333333333333</ele><time>2026-05-02T06:39:59Z</time></trkpt><trkpt lat="44.38550365996136" lon="12.11947463502181"><ele>0.6666666666666666</ele><time>2026-05-02T06:40:00Z</time></trkpt><trkpt lat="44.38536983782824" lon="12.119371793343452"><ele>1.0</ele><time>2026-05-02T06:40:01Z</time></trkpt><trkpt lat="44.38523526108193" lon="12.119281513356723"><ele>1.0</ele><time>2026-05-02T06:40:02Z</time></trkpt><trkpt lat="44.3850976268845" lon="12.119186255507465"><ele>1.0</ele><time>2026-05-02T06:40:03Z</time></trkpt><trkpt lat="44.38495592615741" lon="12.119095054183694"><ele>1.0</ele><time>2026-05-02T06:40:04Z</time></trkpt><trkpt lat="44.38481617271051" lon="12.119010827719775"><ele>1.0</ele><time>2026-05-02T06:40:05Z</time></trkpt><trkpt lat="44.384679797172424" lon="12.118930956207235"><ele>1.0</ele><time>2026-05-02T06:40:06Z</time></trkpt><trkpt lat="44.38454749220753" lon="12.11885295878925"><ele>1.0</ele><time>2026-05-02T06:40:07Z</time></trkpt><trkpt lat="44.38441904240521" lon="12.11877107965461"><ele>1.0</ele><time>2026-05-02T06:40:08Z</time></trkpt><trkpt lat="44.38428846685677" lon="12.118685293544434"><ele>0.75</ele><time>2026-05-02T06:40:09Z</time></trkpt><trkpt lat="44.38415432464159" lon="12.118601596348737"><ele>0.5</ele><time>2026-05-02T06:40:10Z</time></trkpt><trkpt lat="44.38402271087117" lon="12.118518320427611"><ele>0.25</ele><time>2026-05-02T06:40:11Z</time></trkpt><trkpt lat="44.3838913648211" lon="12.118437766307721"><ele>0.0</ele><time>2026-05-02T06:40:12Z</time></trkpt><trkpt lat="44.38375632517108" lon="12.118352261574865"><ele>0.6666666666666666</ele><time>2026-05-02T06:40:13.001Z</time></trkpt><trkpt lat="44.38361622088296" lon="12.118266286998141"><ele>1.3333333333333333</ele><time>2026-05-02T06:40:14Z</time></trkpt><trkpt lat="44.383475868140465" lon="12.118182847152"><ele>2.0</ele><time>2026-05-02T06:40:15Z</time></trkpt><trkpt lat="44.383343355125845" lon="12.118097517233656"><ele>2.25</ele><time>2026-05-02T06:40:16Z</time></trkpt><trkpt lat="44.38320410155684" lon="12.118015120522445"><ele>2.5</ele><time>2026-05-02T06:40:17Z</time></trkpt><trkpt lat="44.383074730154405" lon="12.117933791011264"><ele>2.75</ele><time>2026-05-02T06:40:18Z</time></trkpt><trkpt lat="44.38295653003189" lon="12.117829275912381"><ele>3.0</ele><time>2026-05-02T06:40:19Z</time></trkpt><trkpt lat="44.38283216621041" lon="12.117748017860878"><ele>3.25</ele><time>2026-05-02T06:40:20Z</time></trkpt><trkpt lat="44.38270628349868" lon="12.117668385069763"><ele>3.5</ele><time>2026-05-02T06:40:21Z</time></trkpt><trkpt lat="44.382575201608915" lon="12.117585584083836"><ele>3.75</ele><time>2026-05-02T06:40:22Z</time></trkpt><trkpt lat="44.382440167220125" lon="12.11750473380841"><ele>4.0</ele><time>2026-05-02T06:40:23Z</time></trkpt><trkpt lat="44.38229866238549" lon="12.117422033802784"><ele>2.6666666666666665</ele><time>2026-05-02T06:40:24Z</time></trkpt><trkpt lat="44.38215363457955" lon="12.117340510514033"><ele>1.3333333333333333</ele><time>2026-05-02T06:40:25Z</time></trkpt><trkpt lat="44.38199990055274" lon="12.117264306515292"><ele>0.0</ele><time>2026-05-02T06:40:26Z</time></trkpt><trkpt lat="44.38184335169588" lon="12.117215567022386"><ele>0.0</ele><time>2026-05-02T06:40:27Z</time></trkpt><trkpt lat="44.38169672699653" lon="12.117149459176071"><ele>0.0</ele><time>2026-05-02T06:40:28Z</time></trkpt><trkpt lat="44.38155191707981" lon="12.117087430772008"><ele>0.0</ele><time>2026-05-02T06:40:29Z</time></trkpt><trkpt lat="44.381412427510575" lon="12.11702078750621"><ele>0.25</ele><time>2026-05-02T06:40:30Z</time></trkpt><trkpt lat="44.381271254596335" lon="12.11696316644956"><ele>0.5</ele><time>2026-05-02T06:40:31Z</time></trkpt><trkpt lat="44.38113191508408" lon="12.116906339652905"><ele>0.75</ele><time>2026-05-02T06:40:32Z</time></trkpt><trkpt lat="44.380991238788006" lon="12.116853201428583"><ele>1.0</ele><time>2026-05-02T06:40:33Z</time></trkpt><trkpt lat="44.38085089464206" lon="12.116797708816947"><ele>1.0</ele><time>2026-05-02T06:40:34Z</time></trkpt><trkpt lat="44.380708908352055" lon="12.11675276818964"><ele>1.0</ele><time>2026-05-02T06:40:35Z</time></trkpt><trkpt lat="44.380570070975004" lon="12.116683410218227"><ele>1.0</ele><time>2026-05-02T06:40:36Z</time></trkpt><trkpt lat="44.38042275448735" lon="12.11666887535084"><ele>1.0</ele><time>2026-05-02T06:40:37Z</time></trkpt><trkpt lat="44.380275332365805" lon="12.116629546750339"><ele>1.0</ele><time>2026-05-02T06:40:38Z</time></trkpt><trkpt lat="44.38013136822296" lon="12.116593997736153"><ele>1.0</ele><time>2026-05-02T06:40:39Z</time></trkpt><trkpt lat="44.379988060115394" lon="12.116565373915494"><ele>1.0</ele><time>2026-05-02T06:40:40.001Z</time></trkpt><trkpt lat="44.37985000752117" lon="12.11652860770282"><ele>1.0</ele><time>2026-05-02T06:40:41Z</time></trkpt><trkpt lat="44.37971760934807" lon="12.116479976468828"><ele>1.25</ele><time>2026-05-02T06:40:42Z</time></trkpt><trkpt lat="44.37959028811962" lon="12.11640800081768"><ele>1.5</ele><time>2026-05-02T06:40:43Z</time></trkpt><trkpt lat="44.3794557638156" lon="12.11633609205131"><ele>1.75</ele><time>2026-05-02T06:40:44Z</time></trkpt><trkpt lat="44.37933518779909" lon="12.116238793788625"><ele>2.0</ele><time>2026-05-02T06:40:45Z</time></trkpt><trkpt lat="44.379209221287674" lon="12.116150798369127"><ele>2.0</ele><time>2026-05-02T06:40:46Z</time></trkpt><trkpt lat="44.379089438779175" lon="12.116067122837325"><ele>2.0</ele><time>2026-05-02T06:40:47Z</time></trkpt><trkpt lat="44.37897812865888" lon="12.115989365944285"><ele>2.0</ele><time>2026-05-02T06:40:48Z</time></trkpt><trkpt lat="44.37886723885768" lon="12.115911902580011"><ele>2.0</ele><time>2026-05-02T06:40:49Z</time></trkpt><trkpt lat="44.37875260733855" lon="12.11583207723557"><ele>2.0</ele><time>2026-05-02T06:40:50Z</time></trkpt><trkpt lat="44.378646522594536" lon="12.11575825279621"><ele>2.0</ele><time>2026-05-02T06:40:51Z</time></trkpt><trkpt lat="44.37854728364441" lon="12.115689192405773"><ele>2.0</ele><time>2026-05-02T06:40:52Z</time></trkpt><trkpt lat="44.37845414357023" lon="12.11562452459573"><ele>2.0</ele><time>2026-05-02T06:40:53Z</time></trkpt><trkpt lat="44.37837018573765" lon="12.115567736099777"><ele>2.0</ele><time>2026-05-02T06:40:54Z</time></trkpt><trkpt lat="44.37829409959169" lon="12.115518215574319"><ele>1.9999999999999998</ele><time>2026-05-02T06:40:55Z</time></trkpt><trkpt lat="44.378221688543896" lon="12.11549880125746"><ele>2.0</ele><time>2026-05-02T06:40:56Z</time></trkpt><trkpt lat="44.37814151858415" lon="12.115419837221603"><ele>2.0</ele><time>2026-05-02T06:40:58Z</time></trkpt><trkpt lat="44.3781854444393" lon="12.115271581690816"><ele>2.0</ele><time>2026-05-02T06:41:01.001Z</time></trkpt><trkpt lat="44.37824199925741" lon="12.11520489354559"><ele>1.9999999999999998</ele><time>2026-05-02T06:41:03.001Z</time></trkpt><trkpt lat="44.37829906454932" lon="12.11515259268943"><ele>2.0</ele><time>2026-05-02T06:41:07.001Z</time></trkpt><trkpt lat="44.3782869666836" lon="12.11500666042291"><ele>1.9999999999999998</ele><time>2026-05-02T06:49:09.002Z</time></trkpt><trkpt lat="44.37836544787949" lon="12.115016577594025"><ele>2.0</ele><time>2026-05-02T06:53:39Z</time></trkpt><trkpt lat="44.37847112991199" lon="12.11494620382294"><ele>2.0</ele><time>2026-05-02T06:53:41Z</time></trkpt><trkpt lat="44.37852436689544" lon="12.114881782241595"><ele>2.0</ele><time>2026-05-02T06:53:42Z</time></trkpt><trkpt lat="44.378591292015955" lon="12.114799357190156"><ele>1.9999999999999998</ele><time>2026-05-02T06:53:43Z</time></trkpt><trkpt lat="44.37865920010001" lon="12.114714832009842"><ele>2.0</ele><time>2026-05-02T06:53:44Z</time></trkpt><trkpt lat="44.378727606946185" lon="12.114622211204672"><ele>2.0</ele><time>2026-05-02T06:53:45Z</time></trkpt><trkpt lat="44.37878933129844" lon="12.114504100301081"><ele>2.0</ele><time>2026-05-02T06:53:46Z</time></trkpt><trkpt lat="44.3788572368707" lon="12.114385018691928"><ele>2.0</ele><time>2026-05-02T06:53:47Z</time></trkpt><trkpt lat="44.37891221350895" lon="12.114261431353734"><ele>2.0</ele><time>2026-05-02T06:53:48Z</time></trkpt><trkpt lat="44.378961339675875" lon="12.114138962355371"><ele>2.0</ele><time>2026-05-02T06:53:49Z</time></trkpt><trkpt lat="44.379004894472885" lon="12.114013453857556"><ele>2.2</ele><time>2026-05-02T06:53:50Z</time></trkpt><trkpt lat="44.37904495986512" lon="12.1138957965793"><ele>2.4000000000000004</ele><time>2026-05-02T06:53:51Z</time></trkpt><trkpt lat="44.379085840574135" lon="12.113776689213054"><ele>2.5999999999999996</ele><time>2026-05-02T06:53:52Z</time></trkpt><trkpt lat="44.379126762488404" lon="12.11365275584685"><ele>2.8</ele><time>2026-05-02T06:53:53Z</time></trkpt><trkpt lat="44.379169903429414" lon="12.113525120124008"><ele>3.0</ele><time>2026-05-02T06:53:54Z</time></trkpt><trkpt lat="44.379215805241046" lon="12.113392714831148"><ele>3.0</ele><time>2026-05-02T06:53:55Z</time></trkpt><trkpt lat="44.37926393174945" lon="12.113257975081105"><ele>3.0</ele><time>2026-05-02T06:53:56Z</time></trkpt><trkpt lat="44.37932718385514" lon="12.113132568492455"><ele>3.0</ele><time>2026-05-02T06:53:57Z</time></trkpt><trkpt lat="44.37937605296026" lon="12.112996992590457"><ele>3.0</ele><time>2026-05-02T06:53:58Z</time></trkpt><trkpt lat="44.37942330976057" lon="12.112854505575385"><ele>3.0</ele><time>2026-05-02T06:53:59Z</time></trkpt><trkpt lat="44.37947361645042" lon="12.112707676321678"><ele>3.0</ele><time>2026-05-02T06:54:00Z</time></trkpt><trkpt lat="44.3795221762113" lon="12.112561871829218"><ele>3.0</ele><time>2026-05-02T06:54:01Z</time></trkpt><trkpt lat="44.37957207699183" lon="12.112415177073299"><ele>3.0</ele><time>2026-05-02T06:54:02Z</time></trkpt><trkpt lat="44.37962384239085" lon="12.112285084788848"><ele>3.0</ele><time>2026-05-02T06:54:03Z</time></trkpt><trkpt lat="44.379670516394164" lon="12.112151733914356"><ele>3.0</ele><time>2026-05-02T06:54:04Z</time></trkpt><trkpt lat="44.379716745205045" lon="12.11201365019377"><ele>3.0</ele><time>2026-05-02T06:54:05Z</time></trkpt><trkpt lat="44.37976558540939" lon="12.111870269078045"><ele>3.0</ele><time>2026-05-02T06:54:06Z</time></trkpt><trkpt lat="44.37982398729292" lon="12.111728595008827"><ele>3.0</ele><time>2026-05-02T06:54:07Z</time></trkpt><trkpt lat="44.37988328794632" lon="12.111581790381608"><ele>3.0</ele><time>2026-05-02T06:54:08Z</time></trkpt><trkpt lat="44.379940565889214" lon="12.111429742779675"><ele>2.8</ele><time>2026-05-02T06:54:09Z</time></trkpt><trkpt lat="44.379999198309484" lon="12.11128397905738"><ele>2.5999999999999996</ele><time>2026-05-02T06:54:10Z</time></trkpt><trkpt lat="44.38004977412629" lon="12.11114877321265"><ele>2.4000000000000004</ele><time>2026-05-02T06:54:11Z</time></trkpt><trkpt lat="44.38009399437006" lon="12.111012495925388"><ele>2.2</ele><time>2026-05-02T06:54:12Z</time></trkpt><trkpt lat="44.38014553094538" lon="12.110881186988527"><ele>2.0</ele><time>2026-05-02T06:54:13Z</time></trkpt><trkpt lat="44.38020297493104" lon="12.110733709715763"><ele>1.75</ele><time>2026-05-02T06:54:14Z</time></trkpt><trkpt lat="44.38026885438562" lon="12.110573229139403"><ele>1.5</ele><time>2026-05-02T06:54:15Z</time></trkpt><trkpt lat="44.380333602474835" lon="12.110405910314954"><ele>1.25</ele><time>2026-05-02T06:54:16Z</time></trkpt><trkpt lat="44.38040634732653" lon="12.11023157723899"><ele>1.0</ele><time>2026-05-02T06:54:17Z</time></trkpt><trkpt lat="44.3804745242804" lon="12.110058376477982"><ele>1.0</ele><time>2026-05-02T06:54:18Z</time></trkpt><trkpt lat="44.38054297579264" lon="12.109894422258652"><ele>1.0</ele><time>2026-05-02T06:54:19Z</time></trkpt><trkpt lat="44.380611129769264" lon="12.109727878347863"><ele>1.0</ele><time>2026-05-02T06:54:20Z</time></trkpt><trkpt lat="44.380679236228794" lon="12.109558135107644"><ele>1.0</ele><time>2026-05-02T06:54:21Z</time></trkpt><trkpt lat="44.38074823963353" lon="12.109388706695857"><ele>1.0</ele><time>2026-05-02T06:54:22Z</time></trkpt><trkpt lat="44.38081624236321" lon="12.10921523706908"><ele>1.0</ele><time>2026-05-02T06:54:23Z</time></trkpt><trkpt lat="44.38088728631189" lon="12.109037350686178"><ele>1.0</ele><time>2026-05-02T06:54:24Z</time></trkpt><trkpt lat="44.380956225866164" lon="12.108851277266707"><ele>1.0</ele><time>2026-05-02T06:54:25Z</time></trkpt><trkpt lat="44.381025373948574" lon="12.108653110110978"><ele>1.0</ele><time>2026-05-02T06:54:26Z</time></trkpt><trkpt lat="44.38109771632206" lon="12.108446368215311"><ele>1.0</ele><time>2026-05-02T06:54:27Z</time></trkpt><trkpt lat="44.38116974477001" lon="12.1082295678746"><ele>1.0</ele><time>2026-05-02T06:54:28Z</time></trkpt><trkpt lat="44.381242160364934" lon="12.108000180633605"><ele>1.0</ele><time>2026-05-02T06:54:29Z</time></trkpt><trkpt lat="44.381315829579385" lon="12.107767238794288"><ele>1.0</ele><time>2026-05-02T06:54:30Z</time></trkpt><trkpt lat="44.38139045985756" lon="12.107540375625662"><ele>1.0</ele><time>2026-05-02T06:54:31Z</time></trkpt><trkpt lat="44.38146576841621" lon="12.10732037027792"><ele>0.6666666666666666</ele><time>2026-05-02T06:54:32Z</time></trkpt><trkpt lat="44.38153803329072" lon="12.107103359167489"><ele>0.3333333333333333</ele><time>2026-05-02T06:54:33Z</time></trkpt><trkpt lat="44.38160361580833" lon="12.106895539100286"><ele>0.0</ele><time>2026-05-02T06:54:34Z</time></trkpt><trkpt lat="44.38166955038392" lon="12.106700770984547"><ele>0.25</ele><time>2026-05-02T06:54:35Z</time></trkpt><trkpt lat="44.38172913227889" lon="12.106506650950488"><ele>0.5</ele><time>2026-05-02T06:54:36Z</time></trkpt><trkpt lat="44.38177401066261" lon="12.106321905948446"><ele>0.75</ele><time>2026-05-02T06:54:36.999Z</time></trkpt><trkpt lat="44.381812601965024" lon="12.106116229279673"><ele>1.0</ele><time>2026-05-02T06:54:37.999Z</time></trkpt><trkpt lat="44.381807439241" lon="12.105884464891602"><ele>1.0</ele><time>2026-05-02T06:54:38.999Z</time></trkpt><trkpt lat="44.381805372120674" lon="12.105652163336384"><ele>1.0</ele><time>2026-05-02T06:54:39.999Z</time></trkpt><trkpt lat="44.3818012895014" lon="12.10541001544479"><ele>1.0</ele><time>2026-05-02T06:54:40.999Z</time></trkpt><trkpt lat="44.38179694998698" lon="12.105166124006805"><ele>1.0</ele><time>2026-05-02T06:54:41.999Z</time></trkpt><trkpt lat="44.38179273657113" lon="12.104929319767873"><ele>1.0</ele><time>2026-05-02T06:54:42.999Z</time></trkpt><trkpt lat="44.38177404626637" lon="12.104701122483034"><ele>1.0</ele><time>2026-05-02T06:54:43.999Z</time></trkpt><trkpt lat="44.3817693898449" lon="12.10447292116352"><ele>1.0</ele><time>2026-05-02T06:54:44.999Z</time></trkpt><trkpt lat="44.38176187201722" lon="12.104247444355034"><ele>1.0</ele><time>2026-05-02T06:54:45.998Z</time></trkpt><trkpt lat="44.38175163759351" lon="12.104023754318124"><ele>1.0</ele><time>2026-05-02T06:54:46.999Z</time></trkpt><trkpt lat="44.38175662222945" lon="12.10380194514144"><ele>1.0</ele><time>2026-05-02T06:54:47.999Z</time></trkpt><trkpt lat="44.38174310197281" lon="12.103584329165177"><ele>1.0</ele><time>2026-05-02T06:54:48.999Z</time></trkpt><trkpt lat="44.38172939360017" lon="12.103363685374173"><ele>1.0</ele><time>2026-05-02T06:54:49.999Z</time></trkpt><trkpt lat="44.38170206021925" lon="12.103147313308344"><ele>1.0</ele><time>2026-05-02T06:54:50.999Z</time></trkpt><trkpt lat="44.38168864460676" lon="12.102930997006553"><ele>1.0</ele><time>2026-05-02T06:54:51.999Z</time></trkpt><trkpt lat="44.38167479363661" lon="12.102712996320415"><ele>1.0</ele><time>2026-05-02T06:54:52.999Z</time></trkpt><trkpt lat="44.381660933167176" lon="12.102495807227182"><ele>0.6666666666666666</ele><time>2026-05-02T06:54:53.999Z</time></trkpt><trkpt lat="44.38165070098406" lon="12.102278194281567"><ele>0.3333333333333333</ele><time>2026-05-02T06:54:54.999Z</time></trkpt><trkpt lat="44.38165703149593" lon="12.102063086495004"><ele>0.0</ele><time>2026-05-02T06:54:55.999Z</time></trkpt><trkpt lat="44.38163887793984" lon="12.101855756188638"><ele>0.0</ele><time>2026-05-02T06:54:56.999Z</time></trkpt><trkpt lat="44.381642425950886" lon="12.101653901488945"><ele>0.0</ele><time>2026-05-02T06:54:57.999Z</time></trkpt><trkpt lat="44.38165714121222" lon="12.101465427822477"><ele>0.0</ele><time>2026-05-02T06:54:58.999Z</time></trkpt><trkpt lat="44.38170014429887" lon="12.101284160272382"><ele>0.0</ele><time>2026-05-02T06:54:59.999Z</time></trkpt><trkpt lat="44.38174477817747" lon="12.101100131794416"><ele>0.0</ele><time>2026-05-02T06:55:00.999Z</time></trkpt><trkpt lat="44.38179115351934" lon="12.10091963771942"><ele>0.0</ele><time>2026-05-02T06:55:01.999Z</time></trkpt><trkpt lat="44.38183418403465" lon="12.100731401469192"><ele>0.0</ele><time>2026-05-02T06:55:02.999Z</time></trkpt><trkpt lat="44.3818663744182" lon="12.10053753941134"><ele>0.0</ele><time>2026-05-02T06:55:03.999Z</time></trkpt><trkpt lat="44.381886863575666" lon="12.100340065869766"><ele>0.0</ele><time>2026-05-02T06:55:04.999Z</time></trkpt><trkpt lat="44.38190031717466" lon="12.100149886448277"><ele>0.0</ele><time>2026-05-02T06:55:05.999Z</time></trkpt><trkpt lat="44.381893343798865" lon="12.099967395835876"><ele>0.0</ele><time>2026-05-02T06:55:06.999Z</time></trkpt><trkpt lat="44.381903759238575" lon="12.099801416637106"><ele>0.0</ele><time>2026-05-02T06:55:07.999Z</time></trkpt><trkpt lat="44.3819263730433" lon="12.099645963546717"><ele>0.0</ele><time>2026-05-02T06:55:08.999Z</time></trkpt><trkpt lat="44.3819553247158" lon="12.099486040653721"><ele>0.0</ele><time>2026-05-02T06:55:09.999Z</time></trkpt><trkpt lat="44.381993977035336" lon="12.099317818923334"><ele>0.0</ele><time>2026-05-02T06:55:10.999Z</time></trkpt><trkpt lat="44.38202242797047" lon="12.099138990353"><ele>0.0</ele><time>2026-05-02T06:55:11.999Z</time></trkpt><trkpt lat="44.382065783721245" lon="12.098968497026268"><ele>0.0</ele><time>2026-05-02T06:55:12.999Z</time></trkpt><trkpt lat="44.38212019245204" lon="12.098800221398788"><ele>0.0</ele><time>2026-05-02T06:55:13.999Z</time></trkpt><trkpt lat="44.38216401377667" lon="12.098639773594176"><ele>0.0</ele><time>2026-05-02T06:55:14.999Z</time></trkpt><trkpt lat="44.382209712065176" lon="12.098476989069015"><ele>0.0</ele><time>2026-05-02T06:55:15.999Z</time></trkpt><trkpt lat="44.38227266940259" lon="12.098331389274938"><ele>0.0</ele><time>2026-05-02T06:55:16.999Z</time></trkpt><trkpt lat="44.38235602973689" lon="12.098214372031194"><ele>0.0</ele><time>2026-05-02T06:55:17.999Z</time></trkpt><trkpt lat="44.38246164359034" lon="12.098114991045255"><ele>0.0</ele><time>2026-05-02T06:55:18.999Z</time></trkpt><trkpt lat="44.38258661421352" lon="12.098045707610765"><ele>0.0</ele><time>2026-05-02T06:55:19.999Z</time></trkpt><trkpt lat="44.3827150952981" lon="12.097969305934845"><ele>0.0</ele><time>2026-05-02T06:55:20.999Z</time></trkpt><trkpt lat="44.38283839802535" lon="12.097863355347071"><ele>0.0</ele><time>2026-05-02T06:55:21.999Z</time></trkpt><trkpt lat="44.38296182951232" lon="12.097753424088708"><ele>0.0</ele><time>2026-05-02T06:55:22.999Z</time></trkpt><trkpt lat="44.38308798627553" lon="12.097646218011686"><ele>0.0</ele><time>2026-05-02T06:55:23.999Z</time></trkpt><trkpt lat="44.38321233028167" lon="12.097546174873864"><ele>0.0</ele><time>2026-05-02T06:55:24.999Z</time></trkpt><trkpt lat="44.38333313550768" lon="12.097458515291358"><ele>0.0</ele><time>2026-05-02T06:55:25.999Z</time></trkpt><trkpt lat="44.38345257031245" lon="12.09737899617393"><ele>0.0</ele><time>2026-05-02T06:55:26.999Z</time></trkpt><trkpt lat="44.38357174290355" lon="12.097300177551336"><ele>0.0</ele><time>2026-05-02T06:55:27.999Z</time></trkpt><trkpt lat="44.38369353860754" lon="12.097216148150812"><ele>0.0</ele><time>2026-05-02T06:55:28.999Z</time></trkpt><trkpt lat="44.3838131483329" lon="12.097123003351452"><ele>0.0</ele><time>2026-05-02T06:55:29.999Z</time></trkpt><trkpt lat="44.383924582592" lon="12.0970211051746"><ele>0.0</ele><time>2026-05-02T06:55:30.999Z</time></trkpt><trkpt lat="44.38403295488654" lon="12.096911988732147"><ele>0.0</ele><time>2026-05-02T06:55:31.999Z</time></trkpt><trkpt lat="44.384141052208555" lon="12.096799054279744"><ele>0.25</ele><time>2026-05-02T06:55:32.999Z</time></trkpt><trkpt lat="44.384253336128786" lon="12.096673944227717"><ele>0.5</ele><time>2026-05-02T06:55:33.999Z</time></trkpt><trkpt lat="44.38436559733367" lon="12.096545815271442"><ele>0.75</ele><time>2026-05-02T06:55:34.999Z</time></trkpt><trkpt lat="44.384472754450705" lon="12.096416087558879"><ele>1.0</ele><time>2026-05-02T06:55:35.999Z</time></trkpt><trkpt lat="44.38457351211834" lon="12.096278851859802"><ele>1.0</ele><time>2026-05-02T06:55:36.999Z</time></trkpt><trkpt lat="44.384665562449186" lon="12.096127229063557"><ele>1.0</ele><time>2026-05-02T06:55:37.999Z</time></trkpt><trkpt lat="44.384752495621754" lon="12.095968779853404"><ele>1.0</ele><time>2026-05-02T06:55:38.999Z</time></trkpt><trkpt lat="44.38483822596474" lon="12.095812576052339"><ele>1.0</ele><time>2026-05-02T06:55:39.999Z</time></trkpt><trkpt lat="44.384932720842265" lon="12.095660905247785"><ele>1.25</ele><time>2026-05-02T06:55:40.999Z</time></trkpt><trkpt lat="44.38503237941691" lon="12.095515149855757"><ele>1.5</ele><time>2026-05-02T06:55:41.999Z</time></trkpt><trkpt lat="44.385132039875856" lon="12.095372771887568"><ele>1.75</ele><time>2026-05-02T06:55:42.999Z</time></trkpt><trkpt lat="44.385232549913496" lon="12.095233922548198"><ele>2.0</ele><time>2026-05-02T06:55:43.999Z</time></trkpt><trkpt lat="44.385333341369154" lon="12.095096526583898"><ele>2.0</ele><time>2026-05-02T06:55:44.999Z</time></trkpt><trkpt lat="44.38543801049117" lon="12.0949701703962"><ele>2.0</ele><time>2026-05-02T06:55:45.999Z</time></trkpt><trkpt lat="44.38554216377852" lon="12.094837194696987"><ele>2.0</ele><time>2026-05-02T06:55:46.999Z</time></trkpt><trkpt lat="44.38565076413903" lon="12.094695505384166"><ele>2.0</ele><time>2026-05-02T06:55:47.999Z</time></trkpt><trkpt lat="44.38575805193915" lon="12.094541952553087"><ele>1.6666666666666665</ele><time>2026-05-02T06:55:48.999Z</time></trkpt><trkpt lat="44.38586691263668" lon="12.094393583878814"><ele>1.3333333333333333</ele><time>2026-05-02T06:55:49.999Z</time></trkpt><trkpt lat="44.38597914608739" lon="12.094230688409057"><ele>1.0</ele><time>2026-05-02T06:55:50.999Z</time></trkpt><trkpt lat="44.38608485606053" lon="12.09407545045855"><ele>0.6666666666666666</ele><time>2026-05-02T06:55:51.999Z</time></trkpt><trkpt lat="44.38619593456442" lon="12.093927064402582"><ele>0.3333333333333333</ele><time>2026-05-02T06:55:52.999Z</time></trkpt><trkpt lat="44.38630754733079" lon="12.093778565824588"><ele>0.0</ele><time>2026-05-02T06:55:53.999Z</time></trkpt><trkpt lat="44.38642074288305" lon="12.093634164753235"><ele>0.0</ele><time>2026-05-02T06:55:54.999Z</time></trkpt><trkpt lat="44.38654379047753" lon="12.093500133648138"><ele>0.0</ele><time>2026-05-02T06:55:55.999Z</time></trkpt><trkpt lat="44.38667292764994" lon="12.093378899709428"><ele>0.0</ele><time>2026-05-02T06:55:56.999Z</time></trkpt><trkpt lat="44.386800217057186" lon="12.093267303803453"><ele>0.0</ele><time>2026-05-02T06:55:57.999Z</time></trkpt><trkpt lat="44.386916490563785" lon="12.09316734679193"><ele>0.0</ele><time>2026-05-02T06:55:58.999Z</time></trkpt><trkpt lat="44.38702113014553" lon="12.09307436157577"><ele>0.0</ele><time>2026-05-02T06:55:59.999Z</time></trkpt><trkpt lat="44.387111303281856" lon="12.092967561932161"><ele>0.0</ele><time>2026-05-02T06:56:00.999Z</time></trkpt><trkpt lat="44.38718144444688" lon="12.09284381789706"><ele>0.0</ele><time>2026-05-02T06:56:01.999Z</time></trkpt><trkpt lat="44.38724061441577" lon="12.092703012875129"><ele>0.0</ele><time>2026-05-02T06:56:02.999Z</time></trkpt><trkpt lat="44.3872839970814" lon="12.092548337713666"><ele>0.0</ele><time>2026-05-02T06:56:03.999Z</time></trkpt><trkpt lat="44.38732865745191" lon="12.092385864651238"><ele>0.0</ele><time>2026-05-02T06:56:04.999Z</time></trkpt><trkpt lat="44.387336410426535" lon="12.092201779171955"><ele>0.0</ele><time>2026-05-02T06:56:05.999Z</time></trkpt><trkpt lat="44.387318707915306" lon="12.092018607231397"><ele>0.0</ele><time>2026-05-02T06:56:06.999Z</time></trkpt><trkpt lat="44.38726686969146" lon="12.09184001194158"><ele>0.0</ele><time>2026-05-02T06:56:07.999Z</time></trkpt><trkpt lat="44.38716655579787" lon="12.091676342787801"><ele>0.0</ele><time>2026-05-02T06:56:08.999Z</time></trkpt><trkpt lat="44.38707851322846" lon="12.091490291830773"><ele>0.3333333333333333</ele><time>2026-05-02T06:56:09.999Z</time></trkpt><trkpt lat="44.38698035638438" lon="12.091320938543456"><ele>0.6666666666666666</ele><time>2026-05-02T06:56:10.999Z</time></trkpt><trkpt lat="44.38688663766221" lon="12.091158903239801"><ele>1.0</ele><time>2026-05-02T06:56:11.999Z</time></trkpt><trkpt lat="44.38679192411075" lon="12.09099514766628"><ele>1.0</ele><time>2026-05-02T06:56:12.999Z</time></trkpt><trkpt lat="44.38669977555061" lon="12.090835021657988"><ele>1.0</ele><time>2026-05-02T06:56:13.999Z</time></trkpt><trkpt lat="44.38661830844894" lon="12.090669815021068"><ele>1.0</ele><time>2026-05-02T06:56:14.999Z</time></trkpt><trkpt lat="44.38655267962092" lon="12.090484530516035"><ele>1.0</ele><time>2026-05-02T06:56:15.999Z</time></trkpt><trkpt lat="44.38648847667749" lon="12.090300235772908"><ele>0.75</ele><time>2026-05-02T06:56:16.999Z</time></trkpt><trkpt lat="44.386429026769996" lon="12.090128886219894"><ele>0.5</ele><time>2026-05-02T06:56:17.999Z</time></trkpt><trkpt lat="44.38636933397746" lon="12.08995069318602"><ele>0.25</ele><time>2026-05-02T06:56:18.999Z</time></trkpt><trkpt lat="44.386302464896815" lon="12.089769854911438"><ele>0.0</ele><time>2026-05-02T06:56:19.999Z</time></trkpt><trkpt lat="44.38620827319504" lon="12.089588222382067"><ele>0.0</ele><time>2026-05-02T06:56:20.999Z</time></trkpt><trkpt lat="44.38608687655218" lon="12.089417620533835"><ele>0.0</ele><time>2026-05-02T06:56:21.999Z</time></trkpt><trkpt lat="44.38595474242053" lon="12.08926784302634"><ele>0.0</ele><time>2026-05-02T06:56:22.999Z</time></trkpt><trkpt lat="44.38581226145831" lon="12.089133988096423"><ele>0.3333333333333333</ele><time>2026-05-02T06:56:23.999Z</time></trkpt><trkpt lat="44.38567911969323" lon="12.089006785204097"><ele>0.6666666666666666</ele><time>2026-05-02T06:56:24.999Z</time></trkpt><trkpt lat="44.38555286444986" lon="12.088882003762349"><ele>1.0</ele><time>2026-05-02T06:56:25.999Z</time></trkpt><trkpt lat="44.38542842498634" lon="12.088747307291973"><ele>1.0</ele><time>2026-05-02T06:56:26.999Z</time></trkpt><trkpt lat="44.38531940594235" lon="12.088577009937287"><ele>1.0</ele><time>2026-05-02T06:56:27.999Z</time></trkpt><trkpt lat="44.38520230683798" lon="12.088407323643452"><ele>1.0</ele><time>2026-05-02T06:56:28.999Z</time></trkpt><trkpt lat="44.385068614572276" lon="12.088242020855503"><ele>1.0</ele><time>2026-05-02T06:56:29.999Z</time></trkpt><trkpt lat="44.38496518028738" lon="12.088058062870566"><ele>1.0</ele><time>2026-05-02T06:56:30.999Z</time></trkpt><trkpt lat="44.384862222758564" lon="12.087904369716515"><ele>1.0</ele><time>2026-05-02T06:56:31.999Z</time></trkpt><trkpt lat="44.384773291750555" lon="12.08777024437055"><ele>1.0</ele><time>2026-05-02T06:56:32.999Z</time></trkpt><trkpt lat="44.384702095857044" lon="12.087634616162877"><ele>1.25</ele><time>2026-05-02T06:56:33.999Z</time></trkpt><trkpt lat="44.38466589265351" lon="12.087470641640929"><ele>1.5</ele><time>2026-05-02T06:56:34.999Z</time></trkpt><trkpt lat="44.38465518137258" lon="12.087269630629297"><ele>1.75</ele><time>2026-05-02T06:56:35.999Z</time></trkpt><trkpt lat="44.38462371114314" lon="12.087033547610233"><ele>2.0</ele><time>2026-05-02T06:56:36.999Z</time></trkpt><trkpt lat="44.38460680629079" lon="12.08680291950849"><ele>2.0</ele><time>2026-05-02T06:56:37.999Z</time></trkpt><trkpt lat="44.38458948569388" lon="12.086565053248515"><ele>2.0</ele><time>2026-05-02T06:56:38.999Z</time></trkpt><trkpt lat="44.384573530383015" lon="12.086319315798985"><ele>2.0</ele><time>2026-05-02T06:56:39.999Z</time></trkpt><trkpt lat="44.38456988127438" lon="12.086067823757588"><ele>2.0</ele><time>2026-05-02T06:56:40.999Z</time></trkpt><trkpt lat="44.384577952320356" lon="12.085814338514536"><ele>2.0</ele><time>2026-05-02T06:56:41.999Z</time></trkpt><trkpt lat="44.38459569230512" lon="12.08556264781885"><ele>2.0</ele><time>2026-05-02T06:56:42.997Z</time></trkpt><trkpt lat="44.384614707680115" lon="12.085317043950731"><ele>2.333333333333333</ele><time>2026-05-02T06:56:43.998Z</time></trkpt><trkpt lat="44.38463381197465" lon="12.085079249221225"><ele>2.6666666666666665</ele><time>2026-05-02T06:56:44.998Z</time></trkpt><trkpt lat="44.38464656992908" lon="12.084847450401329"><ele>3.0</ele><time>2026-05-02T06:56:45.997Z</time></trkpt><trkpt lat="44.38465760945873" lon="12.084614587059741"><ele>3.0</ele><time>2026-05-02T06:56:46.997Z</time></trkpt><trkpt lat="44.38466966851242" lon="12.08438372478909"><ele>3.0</ele><time>2026-05-02T06:56:47.997Z</time></trkpt><trkpt lat="44.38468044577275" lon="12.08414977491347"><ele>3.0</ele><time>2026-05-02T06:56:48.997Z</time></trkpt><trkpt lat="44.38469128581284" lon="12.083918384025589"><ele>3.0</ele><time>2026-05-02T06:56:49.997Z</time></trkpt><trkpt lat="44.384701373125026" lon="12.083695840291158"><ele>3.0</ele><time>2026-05-02T06:56:50.997Z</time></trkpt><trkpt lat="44.38471627345432" lon="12.083476078423386"><ele>3.0</ele><time>2026-05-02T06:56:51.997Z</time></trkpt><trkpt lat="44.384754373794316" lon="12.08325855435604"><ele>2.6666666666666665</ele><time>2026-05-02T06:56:52.997Z</time></trkpt><trkpt lat="44.384825182203635" lon="12.083053368626054"><ele>2.333333333333333</ele><time>2026-05-02T06:56:53.997Z</time></trkpt><trkpt lat="44.38492607953606" lon="12.082866544428983"><ele>2.0</ele><time>2026-05-02T06:56:54.997Z</time></trkpt><trkpt lat="44.3850216472225" lon="12.082683655137176"><ele>2.0</ele><time>2026-05-02T06:56:55.997Z</time></trkpt><trkpt lat="44.38508145555664" lon="12.082482456223461"><ele>2.0</ele><time>2026-05-02T06:56:56.997Z</time></trkpt><trkpt lat="44.385120110147945" lon="12.082249071185032"><ele>2.0</ele><time>2026-05-02T06:56:57.997Z</time></trkpt><trkpt lat="44.38515361579229" lon="12.082010886864595"><ele>2.0</ele><time>2026-05-02T06:56:58.997Z</time></trkpt><trkpt lat="44.385196554896595" lon="12.081787675994734"><ele>2.0</ele><time>2026-05-02T06:56:59.997Z</time></trkpt><trkpt lat="44.38519585135296" lon="12.081573391852"><ele>2.0</ele><time>2026-05-02T06:57:00.997Z</time></trkpt><trkpt lat="44.385230576516804" lon="12.081371680198282"><ele>2.0</ele><time>2026-05-02T06:57:01.997Z</time></trkpt><trkpt lat="44.385290254272164" lon="12.081168537324897"><ele>2.0</ele><time>2026-05-02T06:57:02.997Z</time></trkpt><trkpt lat="44.385370844804434" lon="12.080970019087236"><ele>2.0</ele><time>2026-05-02T06:57:03.997Z</time></trkpt><trkpt lat="44.38548358476542" lon="12.080791149938978"><ele>2.0</ele><time>2026-05-02T06:57:04.997Z</time></trkpt><trkpt lat="44.38561683605088" lon="12.08063872168062"><ele>2.0</ele><time>2026-05-02T06:57:05.997Z</time></trkpt><trkpt lat="44.38574144879634" lon="12.080481663204253"><ele>2.0</ele><time>2026-05-02T06:57:06.997Z</time></trkpt><trkpt lat="44.38584402520385" lon="12.08029445801596"><ele>2.0</ele><time>2026-05-02T06:57:07.997Z</time></trkpt><trkpt lat="44.38593681977456" lon="12.080088404949246"><ele>2.0</ele><time>2026-05-02T06:57:08.997Z</time></trkpt><trkpt lat="44.38601617293587" lon="12.07988090801866"><ele>2.0</ele><time>2026-05-02T06:57:09.997Z</time></trkpt><trkpt lat="44.38608025144532" lon="12.079659537618111"><ele>2.0</ele><time>2026-05-02T06:57:10.997Z</time></trkpt><trkpt lat="44.38612447332965" lon="12.07941887705556"><ele>2.0</ele><time>2026-05-02T06:57:11.997Z</time></trkpt><trkpt lat="44.38615650248581" lon="12.079170412767311"><ele>2.0</ele><time>2026-05-02T06:57:12.997Z</time></trkpt><trkpt lat="44.386185076954995" lon="12.07893658902057"><ele>2.0</ele><time>2026-05-02T06:57:13.997Z</time></trkpt><trkpt lat="44.38622133224154" lon="12.078717958060343"><ele>2.0</ele><time>2026-05-02T06:57:14.997Z</time></trkpt><trkpt lat="44.386261754522856" lon="12.078520542094923"><ele>2.0</ele><time>2026-05-02T06:57:15.997Z</time></trkpt><trkpt lat="44.38629859746774" lon="12.07834888154599"><ele>2.0</ele><time>2026-05-02T06:57:16.997Z</time></trkpt><trkpt lat="44.38633074160417" lon="12.078204045007386"><ele>2.4000000000000004</ele><time>2026-05-02T06:57:17.997Z</time></trkpt><trkpt lat="44.38636332065332" lon="12.078073065899487"><ele>2.8000000000000003</ele><time>2026-05-02T06:57:18.997Z</time></trkpt><trkpt lat="44.38639203188166" lon="12.077947651162056"><ele>3.2</ele><time>2026-05-02T06:57:19.997Z</time></trkpt><trkpt lat="44.38642238405984" lon="12.07781142564925"><ele>3.6</ele><time>2026-05-02T06:57:20.997Z</time></trkpt><trkpt lat="44.38645819323749" lon="12.07768032979102"><ele>4.0</ele><time>2026-05-02T06:57:21.997Z</time></trkpt><trkpt lat="44.38649280299684" lon="12.077577540947932"><ele>4.0</ele><time>2026-05-02T06:57:22.997Z</time></trkpt><trkpt lat="44.386524459661395" lon="12.077500203334584"><ele>4.0</ele><time>2026-05-02T06:57:23.997Z</time></trkpt><trkpt lat="44.386575575966326" lon="12.077410988509556"><ele>4.0</ele><time>2026-05-02T06:57:25.997Z</time></trkpt><trkpt lat="44.38673930358377" lon="12.077465491789418"><ele>4.0</ele><time>2026-05-02T06:57:27.997Z</time></trkpt><trkpt lat="44.38682749493634" lon="12.077531262948142"><ele>4.0</ele><time>2026-05-02T06:57:28.997Z</time></trkpt><trkpt lat="44.38693188641775" lon="12.07759889587655"><ele>4.0</ele><time>2026-05-02T06:57:29.997Z</time></trkpt><trkpt lat="44.38705364557022" lon="12.077658241120465"><ele>4.0</ele><time>2026-05-02T06:57:30.997Z</time></trkpt><trkpt lat="44.38718979949256" lon="12.077708514204222"><ele>4.0</ele><time>2026-05-02T06:57:31.997Z</time></trkpt><trkpt lat="44.38734212441843" lon="12.077753946525496"><ele>4.0</ele><time>2026-05-02T06:57:32.997Z</time></trkpt><trkpt lat="44.387506911220854" lon="12.077799504069773"><ele>4.0</ele><time>2026-05-02T06:57:33.997Z</time></trkpt><trkpt lat="44.38768340631375" lon="12.07783992041335"><ele>4.0</ele><time>2026-05-02T06:57:34.997Z</time></trkpt><trkpt lat="44.38786597235307" lon="12.0778777702711"><ele>4.0</ele><time>2026-05-02T06:57:35.997Z</time></trkpt><trkpt lat="44.38805568872206" lon="12.077914226672206"><ele>3.6666666666666665</ele><time>2026-05-02T06:57:36.997Z</time></trkpt><trkpt lat="44.38824994988812" lon="12.077952063386276"><ele>3.333333333333333</ele><time>2026-05-02T06:57:37.997Z</time></trkpt><trkpt lat="44.38844918308604" lon="12.077991410983406"><ele>3.0</ele><time>2026-05-02T06:57:38.997Z</time></trkpt><trkpt lat="44.38865029299468" lon="12.078034748460835"><ele>3.666666666666667</ele><time>2026-05-02T06:57:39.997Z</time></trkpt><trkpt lat="44.3888519576257" lon="12.078078452361858"><ele>4.333333333333334</ele><time>2026-05-02T06:57:40.997Z</time></trkpt><trkpt lat="44.38905867947301" lon="12.078121177497513"><ele>5.0</ele><time>2026-05-02T06:57:41.997Z</time></trkpt><trkpt lat="44.389263216151384" lon="12.07816028183326"><ele>5.0</ele><time>2026-05-02T06:57:42.997Z</time></trkpt><trkpt lat="44.389452181328245" lon="12.078200452626259"><ele>5.0</ele><time>2026-05-02T06:57:43.997Z</time></trkpt><trkpt lat="44.38962662861538" lon="12.078244219896684"><ele>5.0</ele><time>2026-05-02T06:57:44.997Z</time></trkpt><trkpt lat="44.38980343101912" lon="12.078297498600183"><ele>5.0</ele><time>2026-05-02T06:57:45.997Z</time></trkpt><trkpt lat="44.389976780690546" lon="12.07838028168725"><ele>5.0</ele><time>2026-05-02T06:57:46.997Z</time></trkpt><trkpt lat="44.39014488726296" lon="12.078498799490314"><ele>5.0</ele><time>2026-05-02T06:57:47.997Z</time></trkpt><trkpt lat="44.39030700077331" lon="12.07864812074171"><ele>5.0</ele><time>2026-05-02T06:57:48.997Z</time></trkpt><trkpt lat="44.39046991601281" lon="12.078815960193232"><ele>5.0</ele><time>2026-05-02T06:57:49.997Z</time></trkpt><trkpt lat="44.39064018807238" lon="12.078988065713494"><ele>5.0</ele><time>2026-05-02T06:57:50.997Z</time></trkpt><trkpt lat="44.39081250627159" lon="12.079155089270607"><ele>4.0</ele><time>2026-05-02T06:57:51.997Z</time></trkpt><trkpt lat="44.39097437404958" lon="12.079300959679859"><ele>3.0</ele><time>2026-05-02T06:57:52.997Z</time></trkpt><trkpt lat="44.391134963684046" lon="12.079428037470677"><ele>2.0</ele><time>2026-05-02T06:57:53.997Z</time></trkpt><trkpt lat="44.391298285747325" lon="12.079532650836285"><ele>2.6666666666666665</ele><time>2026-05-02T06:57:54.997Z</time></trkpt><trkpt lat="44.391464589492685" lon="12.07961406721411"><ele>3.333333333333333</ele><time>2026-05-02T06:57:55.997Z</time></trkpt><trkpt lat="44.39162924932292" lon="12.079674855274295"><ele>4.0</ele><time>2026-05-02T06:57:56.997Z</time></trkpt><trkpt lat="44.391795592352054" lon="12.079721837328176"><ele>4.0</ele><time>2026-05-02T06:57:57.997Z</time></trkpt><trkpt lat="44.39195909393864" lon="12.079755786216243"><ele>4.0</ele><time>2026-05-02T06:57:58.997Z</time></trkpt><trkpt lat="44.39212391255835" lon="12.079793572596012"><ele>4.0</ele><time>2026-05-02T06:57:59.997Z</time></trkpt><trkpt lat="44.39228905752562" lon="12.079835156778394"><ele>4.0</ele><time>2026-05-02T06:58:00.997Z</time></trkpt><trkpt lat="44.3924563056011" lon="12.079874646766884"><ele>4.0</ele><time>2026-05-02T06:58:01.997Z</time></trkpt><trkpt lat="44.39262756713511" lon="12.079912163566414"><ele>4.0</ele><time>2026-05-02T06:58:02.997Z</time></trkpt><trkpt lat="44.39279121324987" lon="12.079957879464521"><ele>4.0</ele><time>2026-05-02T06:58:03.997Z</time></trkpt><trkpt lat="44.39295753039468" lon="12.080012061469478"><ele>4.0</ele><time>2026-05-02T06:58:04.997Z</time></trkpt><trkpt lat="44.39312172209707" lon="12.080079107576358"><ele>4.0</ele><time>2026-05-02T06:58:05.997Z</time></trkpt><trkpt lat="44.393289595462676" lon="12.080166426303144"><ele>4.0</ele><time>2026-05-02T06:58:06.997Z</time></trkpt><trkpt lat="44.393456473928836" lon="12.080275047568595"><ele>4.0</ele><time>2026-05-02T06:58:07.997Z</time></trkpt><trkpt lat="44.393612924053436" lon="12.080396060582347"><ele>4.0</ele><time>2026-05-02T06:58:08.997Z</time></trkpt><trkpt lat="44.39376185691026" lon="12.08051548984781"><ele>4.0</ele><time>2026-05-02T06:58:09.997Z</time></trkpt><trkpt lat="44.393899972173095" lon="12.080635577104534"><ele>4.0</ele><time>2026-05-02T06:58:10.997Z</time></trkpt><trkpt lat="44.39402726950335" lon="12.08075326183636"><ele>4.0</ele><time>2026-05-02T06:58:11.997Z</time></trkpt><trkpt lat="44.394141806918036" lon="12.080856764782812"><ele>4.0</ele><time>2026-05-02T06:58:12.997Z</time></trkpt><trkpt lat="44.394237659378746" lon="12.080943239658154"><ele>4.0</ele><time>2026-05-02T06:58:13.997Z</time></trkpt><trkpt lat="44.39431389165585" lon="12.081004451066411"><ele>4.0</ele><time>2026-05-02T06:58:14.997Z</time></trkpt><trkpt lat="44.39437624891499" lon="12.081057076886681"><ele>4.0</ele><time>2026-05-02T06:58:15.997Z</time></trkpt><trkpt lat="44.394447480548926" lon="12.081117267998556"><ele>4.0</ele><time>2026-05-02T06:58:17.997Z</time></trkpt><trkpt lat="44.39456425040555" lon="12.080943461266518"><ele>4.0</ele><time>2026-05-02T06:58:20.997Z</time></trkpt><trkpt lat="44.39457476430068" lon="12.08082761843571"><ele>4.0</ele><time>2026-05-02T06:58:21.997Z</time></trkpt><trkpt lat="44.3945657552085" lon="12.080693528434391"><ele>4.0</ele><time>2026-05-02T06:58:22.997Z</time></trkpt><trkpt lat="44.39453677101225" lon="12.08053350870009"><ele>4.0</ele><time>2026-05-02T06:58:23.997Z</time></trkpt><trkpt lat="44.39450673488259" lon="12.080352388781877"><ele>4.0</ele><time>2026-05-02T06:58:24.997Z</time></trkpt><trkpt lat="44.39447746190713" lon="12.080160965803241"><ele>4.333333333333333</ele><time>2026-05-02T06:58:25.997Z</time></trkpt><trkpt lat="44.39442251977026" lon="12.07995665312591"><ele>4.666666666666667</ele><time>2026-05-02T06:58:26.997Z</time></trkpt><trkpt lat="44.39435784704636" lon="12.079756236881995"><ele>5.0</ele><time>2026-05-02T06:58:27.997Z</time></trkpt><trkpt lat="44.39426399323335" lon="12.079548426829744"><ele>5.333333333333334</ele><time>2026-05-02T06:58:28.997Z</time></trkpt><trkpt lat="44.39416193219386" lon="12.079358099985209"><ele>5.666666666666667</ele><time>2026-05-02T06:58:29.997Z</time></trkpt><trkpt lat="44.39404675068998" lon="12.079158064583597"><ele>6.0</ele><time>2026-05-02T06:58:30.997Z</time></trkpt><trkpt lat="44.39393467257081" lon="12.078956006533701"><ele>6.333333333333334</ele><time>2026-05-02T06:58:31.997Z</time></trkpt><trkpt lat="44.393825127322685" lon="12.078747798294058"><ele>6.666666666666667</ele><time>2026-05-02T06:58:32.997Z</time></trkpt><trkpt lat="44.39372003564689" lon="12.078554397848663"><ele>7.0</ele><time>2026-05-02T06:58:33.997Z</time></trkpt><trkpt lat="44.39362549272749" lon="12.078364392622303"><ele>7.0</ele><time>2026-05-02T06:58:34.997Z</time></trkpt><trkpt lat="44.393532352001536" lon="12.078168804449438"><ele>7.0</ele><time>2026-05-02T06:58:35.997Z</time></trkpt><trkpt lat="44.39344364961881" lon="12.077969611744985"><ele>7.0</ele><time>2026-05-02T06:58:36.997Z</time></trkpt><trkpt lat="44.39336076615808" lon="12.077772054153304"><ele>7.0</ele><time>2026-05-02T06:58:37.997Z</time></trkpt><trkpt lat="44.3932808677777" lon="12.077577923415351"><ele>7.0</ele><time>2026-05-02T06:58:38.997Z</time></trkpt><trkpt lat="44.39321324503985" lon="12.077389070040992"><ele>7.0</ele><time>2026-05-02T06:58:39.997Z</time></trkpt><trkpt lat="44.39315020502457" lon="12.077201376028942"><ele>7.0</ele><time>2026-05-02T06:58:40.997Z</time></trkpt><trkpt lat="44.393086193575044" lon="12.077017165570979"><ele>7.0</ele><time>2026-05-02T06:58:41.997Z</time></trkpt><trkpt lat="44.393034622127345" lon="12.076840935286105"><ele>7.0</ele><time>2026-05-02T06:58:42.997Z</time></trkpt><trkpt lat="44.39298820182219" lon="12.076656033334658"><ele>7.0</ele><time>2026-05-02T06:58:43.997Z</time></trkpt><trkpt lat="44.39295895840256" lon="12.07647447103095"><ele>7.0</ele><time>2026-05-02T06:58:44.997Z</time></trkpt><trkpt lat="44.39292664487272" lon="12.076288711954934"><ele>7.0</ele><time>2026-05-02T06:58:45.997Z</time></trkpt><trkpt lat="44.39289822481852" lon="12.076099898303653"><ele>7.0</ele><time>2026-05-02T06:58:46.997Z</time></trkpt><trkpt lat="44.39287148913454" lon="12.075912124105196"><ele>7.0</ele><time>2026-05-02T06:58:47.997Z</time></trkpt><trkpt lat="44.39284276210051" lon="12.075740234066695"><ele>6.75</ele><time>2026-05-02T06:58:48.997Z</time></trkpt><trkpt lat="44.3928110724709" lon="12.075576357264461"><ele>6.5</ele><time>2026-05-02T06:58:49.996Z</time></trkpt><trkpt lat="44.39280459416603" lon="12.075415227676412"><ele>6.25</ele><time>2026-05-02T06:58:50.996Z</time></trkpt><trkpt lat="44.3927629697347" lon="12.075254427802113"><ele>6.0</ele><time>2026-05-02T06:58:51.996Z</time></trkpt><trkpt lat="44.3927188929747" lon="12.075090296789345"><ele>6.0</ele><time>2026-05-02T06:58:52.997Z</time></trkpt><trkpt lat="44.392671150951074" lon="12.07493531613654"><ele>6.0</ele><time>2026-05-02T06:58:53.997Z</time></trkpt><trkpt lat="44.39262904223488" lon="12.074799566380156"><ele>6.0</ele><time>2026-05-02T06:58:54.996Z</time></trkpt><trkpt lat="44.39260292177164" lon="12.074696045438174"><ele>6.0</ele><time>2026-05-02T06:58:55.996Z</time></trkpt><trkpt lat="44.39255553143308" lon="12.074548206692294"><ele>6.0</ele><time>2026-05-02T06:58:57.997Z</time></trkpt><trkpt lat="44.39251116000868" lon="12.07443516430074"><ele>6.0</ele><time>2026-05-02T06:59:00.996Z</time></trkpt><trkpt lat="44.39248463640516" lon="12.07435018790369"><ele>6.0</ele><time>2026-05-02T06:59:03.996Z</time></trkpt><trkpt lat="44.39241899259861" lon="12.074251648039189"><ele>6.0</ele><time>2026-05-02T07:01:25.996Z</time></trkpt><trkpt lat="44.39240898202045" lon="12.074347515441945"><ele>6.0</ele><time>2026-05-02T07:03:25.995Z</time></trkpt><trkpt lat="44.39236766654644" lon="12.074433978437675"><ele>6.0</ele><time>2026-05-02T07:05:52.137Z</time></trkpt><trkpt lat="44.392471485474296" lon="12.074514872025645"><ele>6.0</ele><time>2026-05-02T07:12:23.989Z</time></trkpt><trkpt lat="44.39246551325149" lon="12.074414623734322"><ele>5.999999999999999</ele><time>2026-05-02T07:12:29.989Z</time></trkpt><trkpt lat="44.392447221005746" lon="12.074326340987355"><ele>6.0</ele><time>2026-05-02T07:12:36.989Z</time></trkpt><trkpt lat="44.39236346658049" lon="12.074298077859323"><ele>6.0</ele><time>2026-05-02T07:14:47.987Z</time></trkpt><trkpt lat="44.39230590991506" lon="12.074256255484153"><ele>6.0</ele><time>2026-05-02T07:15:55.985Z</time></trkpt><trkpt lat="44.392263219609106" lon="12.074163059346095"><ele>6.0</ele><time>2026-05-02T07:15:57.985Z</time></trkpt><trkpt lat="44.39221732442425" lon="12.074102114640661"><ele>5.999999999999999</ele><time>2026-05-02T07:15:58.985Z</time></trkpt><trkpt lat="44.39216604806156" lon="12.074027204399448"><ele>6.0</ele><time>2026-05-02T07:15:59.985Z</time></trkpt><trkpt lat="44.392106477103916" lon="12.073940935961923"><ele>5.75</ele><time>2026-05-02T07:16:00.985Z</time></trkpt><trkpt lat="44.39204536949736" lon="12.073832540194283"><ele>5.5</ele><time>2026-05-02T07:16:01.985Z</time></trkpt><trkpt lat="44.3920567754896" lon="12.073616182087802"><ele>5.25</ele><time>2026-05-02T07:16:02.985Z</time></trkpt><trkpt lat="44.39198618840067" lon="12.07349380774059"><ele>5.0</ele><time>2026-05-02T07:16:03.985Z</time></trkpt><trkpt lat="44.39182769398758" lon="12.073441012800675"><ele>5.0</ele><time>2026-05-02T07:16:04.985Z</time></trkpt><trkpt lat="44.391760959516745" lon="12.073279280630512"><ele>5.0</ele><time>2026-05-02T07:16:05.985Z</time></trkpt><trkpt lat="44.39170004433222" lon="12.073118687257772"><ele>5.0</ele><time>2026-05-02T07:16:06.985Z</time></trkpt><trkpt lat="44.391630708076065" lon="12.072963791938761"><ele>5.0</ele><time>2026-05-02T07:16:07.985Z</time></trkpt><trkpt lat="44.39157888934416" lon="12.072790694600371"><ele>5.25</ele><time>2026-05-02T07:16:08.985Z</time></trkpt><trkpt lat="44.39155714395522" lon="12.072608374939396"><ele>5.5</ele><time>2026-05-02T07:16:09.985Z</time></trkpt><trkpt lat="44.39152876775148" lon="12.072448682816024"><ele>5.75</ele><time>2026-05-02T07:16:10.985Z</time></trkpt><trkpt lat="44.39154838096449" lon="12.072287611988878"><ele>6.0</ele><time>2026-05-02T07:16:11.985Z</time></trkpt><trkpt lat="44.39152319270595" lon="12.072154361260559"><ele>6.0</ele><time>2026-05-02T07:16:12.985Z</time></trkpt><trkpt lat="44.391495972888855" lon="12.07201036322085"><ele>6.0</ele><time>2026-05-02T07:16:13.985Z</time></trkpt><trkpt lat="44.39146701042245" lon="12.07185702440075"><ele>6.0</ele><time>2026-05-02T07:16:14.985Z</time></trkpt><trkpt lat="44.39143758345001" lon="12.071701157681387"><ele>6.0</ele><time>2026-05-02T07:16:15.985Z</time></trkpt><trkpt lat="44.3914075642227" lon="12.071542154086453"><ele>6.5</ele><time>2026-05-02T07:16:16.985Z</time></trkpt><trkpt lat="44.391377647430666" lon="12.071383692760197"><ele>7.0</ele><time>2026-05-02T07:16:17.985Z</time></trkpt><trkpt lat="44.391346172365395" lon="12.071221227248214"><ele>7.5</ele><time>2026-05-02T07:16:18.985Z</time></trkpt><trkpt lat="44.39129966371718" lon="12.071072924285296"><ele>8.0</ele><time>2026-05-02T07:16:19.985Z</time></trkpt><trkpt lat="44.391280825449826" lon="12.070917208027607"><ele>8.0</ele><time>2026-05-02T07:16:20.985Z</time></trkpt><trkpt lat="44.391249537554515" lon="12.070769306875698"><ele>8.0</ele><time>2026-05-02T07:16:21.985Z</time></trkpt><trkpt lat="44.391225186750326" lon="12.07063038702972"><ele>8.0</ele><time>2026-05-02T07:16:22.985Z</time></trkpt><trkpt lat="44.391194882632696" lon="12.070505886802355"><ele>8.0</ele><time>2026-05-02T07:16:23.985Z</time></trkpt><trkpt lat="44.39117921825195" lon="12.07039118935007"><ele>8.0</ele><time>2026-05-02T07:16:24.985Z</time></trkpt><trkpt lat="44.391152831083005" lon="12.070262865488484"><ele>8.0</ele><time>2026-05-02T07:16:25.985Z</time></trkpt><trkpt lat="44.391126201749636" lon="12.070131413655014"><ele>8.0</ele><time>2026-05-02T07:16:26.985Z</time></trkpt><trkpt lat="44.39110049209784" lon="12.069998943722586"><ele>8.0</ele><time>2026-05-02T07:16:27.985Z</time></trkpt><trkpt lat="44.391072802663146" lon="12.069878612869935"><ele>8.0</ele><time>2026-05-02T07:16:28.985Z</time></trkpt><trkpt lat="44.39103994538562" lon="12.069749435710225"><ele>8.0</ele><time>2026-05-02T07:16:29.985Z</time></trkpt><trkpt lat="44.3910003192019" lon="12.069616564364335"><ele>8.200000000000001</ele><time>2026-05-02T07:16:30.985Z</time></trkpt><trkpt lat="44.390957459159004" lon="12.069489690216425"><ele>8.4</ele><time>2026-05-02T07:16:31.985Z</time></trkpt><trkpt lat="44.390918195100845" lon="12.06937297198862"><ele>8.600000000000001</ele><time>2026-05-02T07:16:32.985Z</time></trkpt><trkpt lat="44.39087354552292" lon="12.0692517859558"><ele>8.8</ele><time>2026-05-02T07:16:33.985Z</time></trkpt><trkpt lat="44.39081794260957" lon="12.069121576629087"><ele>9.0</ele><time>2026-05-02T07:16:34.985Z</time></trkpt><trkpt lat="44.390761240830344" lon="12.068985593820674"><ele>9.25</ele><time>2026-05-02T07:16:35.985Z</time></trkpt><trkpt lat="44.390705626090465" lon="12.068845752206412"><ele>9.5</ele><time>2026-05-02T07:16:36.985Z</time></trkpt><trkpt lat="44.39065122538408" lon="12.068707221703995"><ele>9.75</ele><time>2026-05-02T07:16:37.985Z</time></trkpt><trkpt lat="44.390595349960236" lon="12.068571827473166"><ele>10.0</ele><time>2026-05-02T07:16:38.985Z</time></trkpt><trkpt lat="44.39054397369853" lon="12.068432147272286"><ele>9.0</ele><time>2026-05-02T07:16:39.985Z</time></trkpt><trkpt lat="44.39048581722117" lon="12.068284925340688"><ele>8.0</ele><time>2026-05-02T07:16:40.985Z</time></trkpt><trkpt lat="44.39042401895459" lon="12.068135043082746"><ele>7.0</ele><time>2026-05-02T07:16:41.985Z</time></trkpt><trkpt lat="44.39036526024855" lon="12.06797713291423"><ele>6.0</ele><time>2026-05-02T07:16:42.985Z</time></trkpt><trkpt lat="44.39030885436888" lon="12.067820125835375"><ele>6.0</ele><time>2026-05-02T07:16:43.985Z</time></trkpt><trkpt lat="44.39025051898942" lon="12.067659258543157"><ele>6.0</ele><time>2026-05-02T07:16:44.985Z</time></trkpt><trkpt lat="44.39018032794311" lon="12.067490418917957"><ele>6.0</ele><time>2026-05-02T07:16:45.985Z</time></trkpt><trkpt lat="44.39010961839153" lon="12.067325737678484"><ele>6.0</ele><time>2026-05-02T07:16:46.985Z</time></trkpt><trkpt lat="44.390044048996465" lon="12.067164222886717"><ele>6.0</ele><time>2026-05-02T07:16:47.985Z</time></trkpt><trkpt lat="44.38997501149737" lon="12.066990047309856"><ele>6.0</ele><time>2026-05-02T07:16:48.985Z</time></trkpt><trkpt lat="44.389916838078726" lon="12.066820072716892"><ele>6.0</ele><time>2026-05-02T07:16:49.985Z</time></trkpt><trkpt lat="44.38987135499458" lon="12.066638951380519"><ele>6.0</ele><time>2026-05-02T07:16:50.985Z</time></trkpt><trkpt lat="44.38982843539041" lon="12.066444089190968"><ele>5.75</ele><time>2026-05-02T07:16:51.985Z</time></trkpt><trkpt lat="44.38980042475091" lon="12.066262091631312"><ele>5.5</ele><time>2026-05-02T07:16:52.985Z</time></trkpt><trkpt lat="44.389780134265834" lon="12.06609225252031"><ele>5.25</ele><time>2026-05-02T07:16:53.985Z</time></trkpt><trkpt lat="44.38977148930141" lon="12.065929749415055"><ele>5.0</ele><time>2026-05-02T07:16:54.985Z</time></trkpt><trkpt lat="44.38976882947376" lon="12.065779647048176"><ele>5.2</ele><time>2026-05-02T07:16:55.985Z</time></trkpt><trkpt lat="44.38977305838864" lon="12.065638172843368"><ele>5.4</ele><time>2026-05-02T07:16:56.985Z</time></trkpt><trkpt lat="44.389781725365076" lon="12.06550579562322"><ele>5.6</ele><time>2026-05-02T07:16:57.985Z</time></trkpt><trkpt lat="44.38978906032028" lon="12.06537111146278"><ele>5.8</ele><time>2026-05-02T07:16:58.985Z</time></trkpt><trkpt lat="44.38981040511248" lon="12.065238575801336"><ele>6.0</ele><time>2026-05-02T07:16:59.985Z</time></trkpt><trkpt lat="44.38983700608935" lon="12.06510489569889"><ele>6.0</ele><time>2026-05-02T07:17:00.985Z</time></trkpt><trkpt lat="44.389871165747955" lon="12.064960203852579"><ele>6.0</ele><time>2026-05-02T07:17:01.985Z</time></trkpt><trkpt lat="44.38991294685166" lon="12.064806027031453"><ele>6.0</ele><time>2026-05-02T07:17:02.985Z</time></trkpt><trkpt lat="44.38996298886853" lon="12.064649728810888"><ele>6.0</ele><time>2026-05-02T07:17:03.982Z</time></trkpt><trkpt lat="44.39002105152362" lon="12.064478973050765"><ele>6.0</ele><time>2026-05-02T07:17:04.983Z</time></trkpt><trkpt lat="44.390104431986686" lon="12.064299229539508"><ele>6.0</ele><time>2026-05-02T07:17:05.983Z</time></trkpt><trkpt lat="44.39018751269058" lon="12.064084866602151"><ele>6.0</ele><time>2026-05-02T07:17:06.982Z</time></trkpt><trkpt lat="44.39025994825126" lon="12.063851033235839"><ele>6.0</ele><time>2026-05-02T07:17:07.983Z</time></trkpt><trkpt lat="44.390353199270066" lon="12.063628485836489"><ele>6.0</ele><time>2026-05-02T07:17:08.983Z</time></trkpt><trkpt lat="44.390431013644594" lon="12.063419104805702"><ele>6.0</ele><time>2026-05-02T07:17:09.983Z</time></trkpt><trkpt lat="44.39050036911202" lon="12.063231651297288"><ele>5.75</ele><time>2026-05-02T07:17:10.982Z</time></trkpt><trkpt lat="44.39056640498296" lon="12.06305396581242"><ele>5.5</ele><time>2026-05-02T07:17:11.982Z</time></trkpt><trkpt lat="44.390628020432274" lon="12.062874837297658"><ele>5.25</ele><time>2026-05-02T07:17:12.983Z</time></trkpt><trkpt lat="44.39067946724437" lon="12.062683166703568"><ele>5.0</ele><time>2026-05-02T07:17:13.983Z</time></trkpt><trkpt lat="44.390716414035296" lon="12.062482343786561"><ele>5.333333333333334</ele><time>2026-05-02T07:17:14.983Z</time></trkpt><trkpt lat="44.39073779472257" lon="12.062265304253696"><ele>5.666666666666667</ele><time>2026-05-02T07:17:15.983Z</time></trkpt><trkpt lat="44.39074731380796" lon="12.062031964038434"><ele>6.0</ele><time>2026-05-02T07:17:16.983Z</time></trkpt><trkpt lat="44.39074547815001" lon="12.06179368098993"><ele>5.666666666666667</ele><time>2026-05-02T07:17:17.983Z</time></trkpt><trkpt lat="44.39072931168984" lon="12.061550394532244"><ele>5.333333333333334</ele><time>2026-05-02T07:17:18.983Z</time></trkpt><trkpt lat="44.390698579606294" lon="12.06130267658963"><ele>5.0</ele><time>2026-05-02T07:17:19.983Z</time></trkpt><trkpt lat="44.39065554099606" lon="12.061050179171222"><ele>5.0</ele><time>2026-05-02T07:17:20.983Z</time></trkpt><trkpt lat="44.39060020111153" lon="12.060808908092488"><ele>5.0</ele><time>2026-05-02T07:17:21.983Z</time></trkpt><trkpt lat="44.3905513226725" lon="12.060575754064516"><ele>5.0</ele><time>2026-05-02T07:17:22.983Z</time></trkpt><trkpt lat="44.3905051671298" lon="12.060340132881231"><ele>5.333333333333334</ele><time>2026-05-02T07:17:23.983Z</time></trkpt><trkpt lat="44.39046758239815" lon="12.060099340463854"><ele>5.666666666666667</ele><time>2026-05-02T07:17:24.983Z</time></trkpt><trkpt lat="44.390438917323294" lon="12.059858182109505"><ele>6.0</ele><time>2026-05-02T07:17:25.983Z</time></trkpt><trkpt lat="44.39042826109923" lon="12.05961001710978"><ele>6.0</ele><time>2026-05-02T07:17:26.983Z</time></trkpt><trkpt lat="44.39043635496919" lon="12.059355645837982"><ele>6.0</ele><time>2026-05-02T07:17:27.983Z</time></trkpt><trkpt lat="44.390455565498186" lon="12.059101785769245"><ele>6.0</ele><time>2026-05-02T07:17:28.983Z</time></trkpt><trkpt lat="44.39048796347011" lon="12.05884844243132"><ele>6.0</ele><time>2026-05-02T07:17:29.983Z</time></trkpt><trkpt lat="44.390526190885936" lon="12.05859721823687"><ele>6.0</ele><time>2026-05-02T07:17:30.983Z</time></trkpt><trkpt lat="44.39056573126496" lon="12.058346633995216"><ele>6.0</ele><time>2026-05-02T07:17:31.983Z</time></trkpt><trkpt lat="44.39060344154346" lon="12.058099848357637"><ele>6.0</ele><time>2026-05-02T07:17:32.983Z</time></trkpt><trkpt lat="44.390634364878544" lon="12.057866629664678"><ele>6.0</ele><time>2026-05-02T07:17:33.983Z</time></trkpt><trkpt lat="44.39066068515516" lon="12.057634572418706"><ele>6.0</ele><time>2026-05-02T07:17:34.983Z</time></trkpt><trkpt lat="44.39068094114998" lon="12.05741350083273"><ele>6.0</ele><time>2026-05-02T07:17:35.983Z</time></trkpt><trkpt lat="44.39070020414138" lon="12.057203364177532"><ele>6.0</ele><time>2026-05-02T07:17:36.983Z</time></trkpt><trkpt lat="44.390715765244344" lon="12.057008128649688"><ele>6.0</ele><time>2026-05-02T07:17:37.983Z</time></trkpt><trkpt lat="44.39073231871971" lon="12.056821408867638"><ele>6.0</ele><time>2026-05-02T07:17:38.983Z</time></trkpt><trkpt lat="44.39074658170045" lon="12.056649995921317"><ele>6.4</ele><time>2026-05-02T07:17:39.983Z</time></trkpt><trkpt lat="44.390757880687254" lon="12.056494864391594"><ele>6.8</ele><time>2026-05-02T07:17:40.983Z</time></trkpt><trkpt lat="44.39077030899318" lon="12.056354849732516"><ele>7.200000000000001</ele><time>2026-05-02T07:17:41.983Z</time></trkpt><trkpt lat="44.39079293325168" lon="12.05623984967462"><ele>7.6000000000000005</ele><time>2026-05-02T07:17:42.983Z</time></trkpt><trkpt lat="44.390826662809744" lon="12.056136407671778"><ele>8.0</ele><time>2026-05-02T07:17:43.983Z</time></trkpt><trkpt lat="44.39086973904662" lon="12.05605292754133"><ele>8.0</ele><time>2026-05-02T07:17:44.983Z</time></trkpt><trkpt lat="44.390941486017404" lon="12.055928565792621"><ele>8.0</ele><time>2026-05-02T07:17:46.983Z</time></trkpt><trkpt lat="44.39097824789249" lon="12.055856761891516"><ele>8.0</ele><time>2026-05-02T07:17:47.983Z</time></trkpt><trkpt lat="44.39097939550218" lon="12.055622157670255"><ele>8.0</ele><time>2026-05-02T07:17:49.983Z</time></trkpt><trkpt lat="44.39094885413727" lon="12.055467607963646"><ele>8.0</ele><time>2026-05-02T07:17:50.983Z</time></trkpt><trkpt lat="44.39091139816537" lon="12.055291109353256"><ele>8.0</ele><time>2026-05-02T07:17:51.983Z</time></trkpt><trkpt lat="44.39086847960083" lon="12.05509359041373"><ele>8.0</ele><time>2026-05-02T07:17:52.983Z</time></trkpt><trkpt lat="44.390819370473466" lon="12.054880745996112"><ele>8.0</ele><time>2026-05-02T07:17:53.983Z</time></trkpt><trkpt lat="44.39076830059098" lon="12.054661873971849"><ele>8.0</ele><time>2026-05-02T07:17:54.983Z</time></trkpt><trkpt lat="44.390711304868454" lon="12.054413389220377"><ele>8.0</ele><time>2026-05-02T07:17:55.983Z</time></trkpt><trkpt lat="44.390652165530156" lon="12.054145370183706"><ele>8.0</ele><time>2026-05-02T07:17:56.983Z</time></trkpt><trkpt lat="44.39059271722141" lon="12.053868796196468"><ele>8.0</ele><time>2026-05-02T07:17:57.983Z</time></trkpt><trkpt lat="44.3905336850193" lon="12.053587793715534"><ele>8.0</ele><time>2026-05-02T07:17:58.983Z</time></trkpt><trkpt lat="44.390476897889506" lon="12.053308080957104"><ele>8.0</ele><time>2026-05-02T07:17:59.983Z</time></trkpt><trkpt lat="44.39042401224067" lon="12.053044860290827"><ele>8.0</ele><time>2026-05-02T07:18:00.983Z</time></trkpt><trkpt lat="44.39037591482079" lon="12.052804999613109"><ele>8.0</ele><time>2026-05-02T07:18:01.983Z</time></trkpt><trkpt lat="44.39033988356453" lon="12.052575118321393"><ele>8.0</ele><time>2026-05-02T07:18:02.983Z</time></trkpt><trkpt lat="44.39029700440242" lon="12.052348002152309"><ele>8.25</ele><time>2026-05-02T07:18:03.983Z</time></trkpt><trkpt lat="44.39024831337073" lon="12.05213516460215"><ele>8.5</ele><time>2026-05-02T07:18:04.983Z</time></trkpt><trkpt lat="44.39020593748047" lon="12.051947341449562"><ele>8.75</ele><time>2026-05-02T07:18:05.983Z</time></trkpt><trkpt lat="44.390160979350554" lon="12.051790158998267"><ele>9.0</ele><time>2026-05-02T07:18:06.983Z</time></trkpt><trkpt lat="44.39012686738342" lon="12.051656404743706"><ele>9.0</ele><time>2026-05-02T07:18:07.983Z</time></trkpt><trkpt lat="44.39010200900322" lon="12.051532461987907"><ele>9.0</ele><time>2026-05-02T07:18:08.983Z</time></trkpt><trkpt lat="44.39009341971579" lon="12.051416471970187"><ele>9.0</ele><time>2026-05-02T07:18:09.983Z</time></trkpt><trkpt lat="44.39010562474097" lon="12.05131550849687"><ele>9.0</ele><time>2026-05-02T07:18:10.983Z</time></trkpt><trkpt lat="44.390134924447075" lon="12.051208957593126"><ele>9.0</ele><time>2026-05-02T07:18:11.983Z</time></trkpt><trkpt lat="44.39017711432633" lon="12.051102119621046"><ele>9.0</ele><time>2026-05-02T07:18:12.983Z</time></trkpt><trkpt lat="44.39023381616132" lon="12.050997156642353"><ele>9.0</ele><time>2026-05-02T07:18:13.983Z</time></trkpt><trkpt lat="44.390298974830834" lon="12.050882913224406"><ele>9.0</ele><time>2026-05-02T07:18:14.983Z</time></trkpt><trkpt lat="44.39036641155387" lon="12.050757723280022"><ele>9.0</ele><time>2026-05-02T07:18:15.983Z</time></trkpt><trkpt lat="44.39040798362867" lon="12.050599384676095"><ele>9.0</ele><time>2026-05-02T07:18:16.983Z</time></trkpt><trkpt lat="44.390409732293456" lon="12.050425067362237"><ele>8.5</ele><time>2026-05-02T07:18:17.983Z</time></trkpt><trkpt lat="44.39037349682656" lon="12.050253767255867"><ele>8.0</ele><time>2026-05-02T07:18:18.983Z</time></trkpt><trkpt lat="44.39028914140789" lon="12.050110013573436"><ele>7.5</ele><time>2026-05-02T07:18:19.983Z</time></trkpt><trkpt lat="44.39017628518732" lon="12.050010488879781"><ele>7.0</ele><time>2026-05-02T07:18:20.983Z</time></trkpt><trkpt lat="44.39003934535908" lon="12.049973723469927"><ele>7.0</ele><time>2026-05-02T07:18:21.983Z</time></trkpt><trkpt lat="44.38989289993355" lon="12.049997576625293"><ele>7.0</ele><time>2026-05-02T07:18:22.983Z</time></trkpt><trkpt lat="44.38976148766134" lon="12.050078255948877"><ele>7.0</ele><time>2026-05-02T07:18:23.983Z</time></trkpt><trkpt lat="44.38964563491563" lon="12.050159508693765"><ele>7.0</ele><time>2026-05-02T07:18:24.983Z</time></trkpt><trkpt lat="44.38953320774734" lon="12.050195607272615"><ele>7.5</ele><time>2026-05-02T07:18:25.983Z</time></trkpt><trkpt lat="44.38941177046381" lon="12.05017260612307"><ele>8.0</ele><time>2026-05-02T07:18:26.983Z</time></trkpt><trkpt lat="44.389288626379226" lon="12.050097282726403"><ele>8.5</ele><time>2026-05-02T07:18:27.983Z</time></trkpt><trkpt lat="44.389173256571475" lon="12.049975479843704"><ele>9.0</ele><time>2026-05-02T07:18:28.983Z</time></trkpt><trkpt lat="44.389091618271905" lon="12.04978691426043"><ele>9.0</ele><time>2026-05-02T07:18:29.983Z</time></trkpt><trkpt lat="44.38898633402742" lon="12.049613094068324"><ele>9.0</ele><time>2026-05-02T07:18:30.983Z</time></trkpt><trkpt lat="44.38890517338568" lon="12.049417745493914"><ele>9.0</ele><time>2026-05-02T07:18:31.983Z</time></trkpt><trkpt lat="44.388812791010416" lon="12.049232116032348"><ele>8.666666666666666</ele><time>2026-05-02T07:18:32.983Z</time></trkpt><trkpt lat="44.38871961506338" lon="12.049054063254012"><ele>8.333333333333332</ele><time>2026-05-02T07:18:33.983Z</time></trkpt><trkpt lat="44.38861747874251" lon="12.048871618204412"><ele>8.0</ele><time>2026-05-02T07:18:34.983Z</time></trkpt><trkpt lat="44.388514912321554" lon="12.048678757061028"><ele>8.0</ele><time>2026-05-02T07:18:35.983Z</time></trkpt><trkpt lat="44.38841185885309" lon="12.048483739202537"><ele>8.0</ele><time>2026-05-02T07:18:36.983Z</time></trkpt><trkpt lat="44.38830075903547" lon="12.048281900851787"><ele>8.0</ele><time>2026-05-02T07:18:37.983Z</time></trkpt><trkpt lat="44.388188736820574" lon="12.048077423118862"><ele>8.0</ele><time>2026-05-02T07:18:38.983Z</time></trkpt><trkpt lat="44.38807798561187" lon="12.047869977777527"><ele>8.0</ele><time>2026-05-02T07:18:39.983Z</time></trkpt><trkpt lat="44.38796818620481" lon="12.047661211694944"><ele>8.0</ele><time>2026-05-02T07:18:40.983Z</time></trkpt><trkpt lat="44.38785427522456" lon="12.04744676059505"><ele>8.0</ele><time>2026-05-02T07:18:41.983Z</time></trkpt><trkpt lat="44.38774257002074" lon="12.047232135438827"><ele>8.0</ele><time>2026-05-02T07:18:42.983Z</time></trkpt><trkpt lat="44.38762888191838" lon="12.04703108277214"><ele>8.0</ele><time>2026-05-02T07:18:43.983Z</time></trkpt><trkpt lat="44.38751891699474" lon="12.046823678138947"><ele>7.666666666666666</ele><time>2026-05-02T07:18:44.983Z</time></trkpt><trkpt lat="44.3874148488009" lon="12.046624793845728"><ele>7.333333333333334</ele><time>2026-05-02T07:18:45.983Z</time></trkpt><trkpt lat="44.38731145541682" lon="12.046433869604549"><ele>7.0</ele><time>2026-05-02T07:18:46.983Z</time></trkpt><trkpt lat="44.38721202124786" lon="12.046248323021238"><ele>7.666666666666667</ele><time>2026-05-02T07:18:47.983Z</time></trkpt><trkpt lat="44.38711712484322" lon="12.046078055013401"><ele>8.333333333333334</ele><time>2026-05-02T07:18:48.983Z</time></trkpt><trkpt lat="44.38702480009358" lon="12.045904022969223"><ele>9.0</ele><time>2026-05-02T07:18:49.983Z</time></trkpt><trkpt lat="44.38693219505509" lon="12.045726621212049"><ele>9.0</ele><time>2026-05-02T07:18:50.983Z</time></trkpt><trkpt lat="44.38684609013471" lon="12.045544972987157"><ele>9.0</ele><time>2026-05-02T07:18:51.983Z</time></trkpt><trkpt lat="44.38676259910131" lon="12.045366179656515"><ele>9.0</ele><time>2026-05-02T07:18:52.983Z</time></trkpt><trkpt lat="44.38670875405345" lon="12.045173412057299"><ele>9.0</ele><time>2026-05-02T07:18:53.983Z</time></trkpt><trkpt lat="44.38664540681775" lon="12.044995342628761"><ele>9.0</ele><time>2026-05-02T07:18:54.983Z</time></trkpt><trkpt lat="44.386582138728755" lon="12.044822761698988"><ele>9.0</ele><time>2026-05-02T07:18:55.983Z</time></trkpt><trkpt lat="44.386499493579116" lon="12.044658897342446"><ele>9.0</ele><time>2026-05-02T07:18:56.983Z</time></trkpt><trkpt lat="44.386439733372804" lon="12.044470879174508"><ele>9.0</ele><time>2026-05-02T07:18:57.983Z</time></trkpt><trkpt lat="44.38635946978195" lon="12.044283185603053"><ele>9.0</ele><time>2026-05-02T07:18:58.983Z</time></trkpt><trkpt lat="44.386280412989784" lon="12.044099396541908"><ele>9.0</ele><time>2026-05-02T07:18:59.983Z</time></trkpt><trkpt lat="44.386200590274164" lon="12.043914568304864"><ele>8.333333333333334</ele><time>2026-05-02T07:19:00.983Z</time></trkpt><trkpt lat="44.38611964945755" lon="12.043728553191983"><ele>7.666666666666667</ele><time>2026-05-02T07:19:01.983Z</time></trkpt><trkpt lat="44.38603692761862" lon="12.043538448123508"><ele>7.0</ele><time>2026-05-02T07:19:02.983Z</time></trkpt><trkpt lat="44.38595143338696" lon="12.0433461404485"><ele>7.0</ele><time>2026-05-02T07:19:03.983Z</time></trkpt><trkpt lat="44.3858662271427" lon="12.043153611040996"><ele>7.0</ele><time>2026-05-02T07:19:04.983Z</time></trkpt><trkpt lat="44.38578244690392" lon="12.042962236135352"><ele>7.0</ele><time>2026-05-02T07:19:05.983Z</time></trkpt><trkpt lat="44.385706763718275" lon="12.042787983055279"><ele>7.0</ele><time>2026-05-02T07:19:06.983Z</time></trkpt><trkpt lat="44.3856437759034" lon="12.042642780744853"><ele>7.0</ele><time>2026-05-02T07:19:07.983Z</time></trkpt><trkpt lat="44.38558557631963" lon="12.042508775230447"><ele>7.0</ele><time>2026-05-02T07:19:08.983Z</time></trkpt><trkpt lat="44.385528657390175" lon="12.04237853726658"><ele>7.0</ele><time>2026-05-02T07:19:09.981Z</time></trkpt><trkpt lat="44.38547145787822" lon="12.042247657525408"><ele>7.5</ele><time>2026-05-02T07:19:10.981Z</time></trkpt><trkpt lat="44.38541282677461" lon="12.042113504553287"><ele>8.0</ele><time>2026-05-02T07:19:11.981Z</time></trkpt><trkpt lat="44.38534623101399" lon="12.04196306069867"><ele>8.5</ele><time>2026-05-02T07:19:12.981Z</time></trkpt><trkpt lat="44.38527748661567" lon="12.04180737638811"><ele>9.0</ele><time>2026-05-02T07:19:13.981Z</time></trkpt><trkpt lat="44.38520223379807" lon="12.041636952680145"><ele>8.5</ele><time>2026-05-02T07:19:14.981Z</time></trkpt><trkpt lat="44.38512282455575" lon="12.041459825396885"><ele>8.0</ele><time>2026-05-02T07:19:15.981Z</time></trkpt><trkpt lat="44.385025020934144" lon="12.041303566706919"><ele>7.5</ele><time>2026-05-02T07:19:16.98Z</time></trkpt><trkpt lat="44.38494892218949" lon="12.041140408462212"><ele>7.0</ele><time>2026-05-02T07:19:17.98Z</time></trkpt><trkpt lat="44.38487349096865" lon="12.040970824530932"><ele>7.0</ele><time>2026-05-02T07:19:18.98Z</time></trkpt><trkpt lat="44.384795928337184" lon="12.040809574667676"><ele>7.0</ele><time>2026-05-02T07:19:19.981Z</time></trkpt><trkpt lat="44.384721034139254" lon="12.040653987447559"><ele>7.0</ele><time>2026-05-02T07:19:20.981Z</time></trkpt><trkpt lat="44.384675033516075" lon="12.04048505956918"><ele>7.0</ele><time>2026-05-02T07:19:21.981Z</time></trkpt><trkpt lat="44.3846157566464" lon="12.04035114810241"><ele>6.833333333333334</ele><time>2026-05-02T07:19:22.981Z</time></trkpt><trkpt lat="44.38455436703287" lon="12.040242033709479"><ele>6.666666666666667</ele><time>2026-05-02T07:19:23.981Z</time></trkpt><trkpt lat="44.384532975671014" lon="12.040119588466451"><ele>6.5</ele><time>2026-05-02T07:19:24.981Z</time></trkpt><trkpt lat="44.38453408126678" lon="12.039999662393406"><ele>6.333333333333334</ele><time>2026-05-02T07:19:25.981Z</time></trkpt><trkpt lat="44.384535331282954" lon="12.039884426493833"><ele>6.166666666666667</ele><time>2026-05-02T07:19:26.981Z</time></trkpt><trkpt lat="44.384500903016686" lon="12.039767434701416"><ele>6.0</ele><time>2026-05-02T07:19:27.981Z</time></trkpt><trkpt lat="44.384429252527" lon="12.039664326520885"><ele>6.0</ele><time>2026-05-02T07:19:28.981Z</time></trkpt><trkpt lat="44.38432304136269" lon="12.039576485877419"><ele>6.0</ele><time>2026-05-02T07:19:29.981Z</time></trkpt><trkpt lat="44.38421890691524" lon="12.03948418827333"><ele>6.0</ele><time>2026-05-02T07:19:30.981Z</time></trkpt><trkpt lat="44.38416250463948" lon="12.039339593783707"><ele>6.0</ele><time>2026-05-02T07:19:31.981Z</time></trkpt><trkpt lat="44.38409697297812" lon="12.03919322141741"><ele>6.25</ele><time>2026-05-02T07:19:32.981Z</time></trkpt><trkpt lat="44.38402974104585" lon="12.039044182630258"><ele>6.5</ele><time>2026-05-02T07:19:33.981Z</time></trkpt><trkpt lat="44.38396289088963" lon="12.038895990210685"><ele>6.75</ele><time>2026-05-02T07:19:34.981Z</time></trkpt><trkpt lat="44.38389716671242" lon="12.03875029379876"><ele>7.0</ele><time>2026-05-02T07:19:35.981Z</time></trkpt><trkpt lat="44.383827486142096" lon="12.038595824458758"><ele>7.75</ele><time>2026-05-02T07:19:36.981Z</time></trkpt><trkpt lat="44.383743059185626" lon="12.038450672932404"><ele>8.5</ele><time>2026-05-02T07:19:37.981Z</time></trkpt><trkpt lat="44.38368750793141" lon="12.03828179404507"><ele>9.25</ele><time>2026-05-02T07:19:38.981Z</time></trkpt><trkpt lat="44.38361759063861" lon="12.038132103643628"><ele>10.0</ele><time>2026-05-02T07:19:39.981Z</time></trkpt><trkpt lat="44.383544786503194" lon="12.037978296622533"><ele>10.0</ele><time>2026-05-02T07:19:40.981Z</time></trkpt><trkpt lat="44.38347147061477" lon="12.037818074536412"><ele>10.0</ele><time>2026-05-02T07:19:41.981Z</time></trkpt><trkpt lat="44.38339896548522" lon="12.037652169201811"><ele>10.0</ele><time>2026-05-02T07:19:42.981Z</time></trkpt><trkpt lat="44.38330831438426" lon="12.03750816590636"><ele>10.0</ele><time>2026-05-02T07:19:43.981Z</time></trkpt><trkpt lat="44.38321180746098" lon="12.037349801371398"><ele>10.0</ele><time>2026-05-02T07:19:44.981Z</time></trkpt><trkpt lat="44.38311007552211" lon="12.037198161370911"><ele>10.0</ele><time>2026-05-02T07:19:45.981Z</time></trkpt><trkpt lat="44.383008071986026" lon="12.037055030841696"><ele>10.0</ele><time>2026-05-02T07:19:46.981Z</time></trkpt><trkpt lat="44.38290548581682" lon="12.03690112130324"><ele>10.0</ele><time>2026-05-02T07:19:47.981Z</time></trkpt><trkpt lat="44.38280177469478" lon="12.036736417234977"><ele>10.0</ele><time>2026-05-02T07:19:48.981Z</time></trkpt><trkpt lat="44.38268873149189" lon="12.036569640496635"><ele>10.0</ele><time>2026-05-02T07:19:49.981Z</time></trkpt><trkpt lat="44.38257695617731" lon="12.036398091535375"><ele>10.0</ele><time>2026-05-02T07:19:50.981Z</time></trkpt><trkpt lat="44.38246920107951" lon="12.036232144816752"><ele>10.0</ele><time>2026-05-02T07:19:51.981Z</time></trkpt><trkpt lat="44.382363048619645" lon="12.036073222953526"><ele>10.0</ele><time>2026-05-02T07:19:52.981Z</time></trkpt><trkpt lat="44.38226252220477" lon="12.035920151260305"><ele>10.0</ele><time>2026-05-02T07:19:53.981Z</time></trkpt><trkpt lat="44.382168319069116" lon="12.035777637905735"><ele>10.0</ele><time>2026-05-02T07:19:54.981Z</time></trkpt><trkpt lat="44.382075976978136" lon="12.035654817303168"><ele>10.0</ele><time>2026-05-02T07:19:55.981Z</time></trkpt><trkpt lat="44.38198759068663" lon="12.035539048163656"><ele>10.0</ele><time>2026-05-02T07:19:56.981Z</time></trkpt><trkpt lat="44.38190671605994" lon="12.035416458392627"><ele>10.0</ele><time>2026-05-02T07:19:57.981Z</time></trkpt><trkpt lat="44.3818142081736" lon="12.035306914204796"><ele>10.0</ele><time>2026-05-02T07:19:58.981Z</time></trkpt><trkpt lat="44.38171491038501" lon="12.035215129286525"><ele>10.0</ele><time>2026-05-02T07:19:59.981Z</time></trkpt><trkpt lat="44.381608187374574" lon="12.035145285850007"><ele>10.0</ele><time>2026-05-02T07:20:00.981Z</time></trkpt><trkpt lat="44.38150016412856" lon="12.035093253938943"><ele>10.0</ele><time>2026-05-02T07:20:01.981Z</time></trkpt><trkpt lat="44.38139064895522" lon="12.03505167728892"><ele>10.0</ele><time>2026-05-02T07:20:02.981Z</time></trkpt><trkpt lat="44.381273741002055" lon="12.035008216607597"><ele>10.2</ele><time>2026-05-02T07:20:03.981Z</time></trkpt><trkpt lat="44.38115904262495" lon="12.034956644327941"><ele>10.4</ele><time>2026-05-02T07:20:04.981Z</time></trkpt><trkpt lat="44.38104983760881" lon="12.03490862641253"><ele>10.600000000000001</ele><time>2026-05-02T07:20:05.981Z</time></trkpt><trkpt lat="44.38095048737731" lon="12.034865886584145"><ele>10.8</ele><time>2026-05-02T07:20:06.981Z</time></trkpt><trkpt lat="44.38085070086573" lon="12.034823936009392"><ele>11.0</ele><time>2026-05-02T07:20:07.981Z</time></trkpt><trkpt lat="44.38074656128764" lon="12.034780730405041"><ele>11.0</ele><time>2026-05-02T07:20:08.981Z</time></trkpt><trkpt lat="44.38063784935054" lon="12.03473341070579"><ele>11.0</ele><time>2026-05-02T07:20:09.981Z</time></trkpt><trkpt lat="44.38052328684771" lon="12.034686003130503"><ele>11.0</ele><time>2026-05-02T07:20:10.981Z</time></trkpt><trkpt lat="44.38040969903319" lon="12.03463743445218"><ele>11.0</ele><time>2026-05-02T07:20:11.981Z</time></trkpt><trkpt lat="44.3802882377787" lon="12.034582407832293"><ele>10.75</ele><time>2026-05-02T07:20:12.981Z</time></trkpt><trkpt lat="44.38016639945648" lon="12.034522834364145"><ele>10.5</ele><time>2026-05-02T07:20:13.981Z</time></trkpt><trkpt lat="44.3800450489926" lon="12.034467168616212"><ele>10.25</ele><time>2026-05-02T07:20:14.981Z</time></trkpt><trkpt lat="44.3799196940611" lon="12.0344154757744"><ele>10.0</ele><time>2026-05-02T07:20:15.981Z</time></trkpt><trkpt lat="44.37978953320812" lon="12.034371253313804"><ele>10.0</ele><time>2026-05-02T07:20:16.981Z</time></trkpt><trkpt lat="44.37966260954378" lon="12.034324945604448"><ele>10.0</ele><time>2026-05-02T07:20:17.981Z</time></trkpt><trkpt lat="44.37953612368866" lon="12.034273494639843"><ele>10.0</ele><time>2026-05-02T07:20:18.981Z</time></trkpt><trkpt lat="44.379409525660776" lon="12.034220601082751"><ele>10.0</ele><time>2026-05-02T07:20:19.981Z</time></trkpt><trkpt lat="44.37928259160512" lon="12.03416495607344"><ele>10.25</ele><time>2026-05-02T07:20:20.981Z</time></trkpt><trkpt lat="44.37916308637935" lon="12.034116952828535"><ele>10.5</ele><time>2026-05-02T07:20:21.981Z</time></trkpt><trkpt lat="44.379051511524864" lon="12.034041912351988"><ele>10.75</ele><time>2026-05-02T07:20:22.981Z</time></trkpt><trkpt lat="44.37892543893015" lon="12.03399057726986"><ele>11.0</ele><time>2026-05-02T07:20:23.981Z</time></trkpt><trkpt lat="44.3787898933275" lon="12.033926669055116"><ele>11.25</ele><time>2026-05-02T07:20:24.981Z</time></trkpt><trkpt lat="44.378653100814226" lon="12.033859521524628"><ele>11.5</ele><time>2026-05-02T07:20:25.981Z</time></trkpt><trkpt lat="44.378523722053174" lon="12.033794085294467"><ele>11.75</ele><time>2026-05-02T07:20:26.981Z</time></trkpt><trkpt lat="44.3783916342717" lon="12.033724180509541"><ele>12.0</ele><time>2026-05-02T07:20:27.981Z</time></trkpt><trkpt lat="44.37824373882889" lon="12.033677465300888"><ele>12.0</ele><time>2026-05-02T07:20:28.981Z</time></trkpt><trkpt lat="44.37809225860743" lon="12.03362658165067"><ele>12.0</ele><time>2026-05-02T07:20:29.981Z</time></trkpt><trkpt lat="44.37796538894807" lon="12.03357188138375"><ele>12.0</ele><time>2026-05-02T07:20:30.981Z</time></trkpt><trkpt lat="44.377848163376214" lon="12.03355454250932"><ele>12.0</ele><time>2026-05-02T07:20:31.981Z</time></trkpt><trkpt lat="44.377760808512555" lon="12.033478301535606"><ele>11.8</ele><time>2026-05-02T07:20:32.981Z</time></trkpt><trkpt lat="44.377661718322045" lon="12.03344399867413"><ele>11.6</ele><time>2026-05-02T07:20:33.981Z</time></trkpt><trkpt lat="44.3775595277948" lon="12.033403190240548"><ele>11.4</ele><time>2026-05-02T07:20:34.981Z</time></trkpt><trkpt lat="44.37744698083052" lon="12.033359366757931"><ele>11.200000000000001</ele><time>2026-05-02T07:20:35.981Z</time></trkpt><trkpt lat="44.37733098178183" lon="12.033303278612387"><ele>11.0</ele><time>2026-05-02T07:20:36.981Z</time></trkpt><trkpt lat="44.37721705033518" lon="12.03325643072266"><ele>11.0</ele><time>2026-05-02T07:20:37.981Z</time></trkpt><trkpt lat="44.377098503410146" lon="12.033208026134874"><ele>11.0</ele><time>2026-05-02T07:20:38.981Z</time></trkpt><trkpt lat="44.37697974176945" lon="12.033156629441429"><ele>11.0</ele><time>2026-05-02T07:20:39.981Z</time></trkpt><trkpt lat="44.376858533075705" lon="12.03310519010886"><ele>11.0</ele><time>2026-05-02T07:20:40.981Z</time></trkpt><trkpt lat="44.37674254110136" lon="12.0330626280895"><ele>11.0</ele><time>2026-05-02T07:20:41.981Z</time></trkpt><trkpt lat="44.376619189336935" lon="12.033012914830438"><ele>11.0</ele><time>2026-05-02T07:20:42.981Z</time></trkpt><trkpt lat="44.37650084968342" lon="12.032968043881677"><ele>11.0</ele><time>2026-05-02T07:20:43.981Z</time></trkpt><trkpt lat="44.37639040668711" lon="12.032926224972288"><ele>11.0</ele><time>2026-05-02T07:20:44.981Z</time></trkpt><trkpt lat="44.376283542556614" lon="12.032888370599178"><ele>10.8</ele><time>2026-05-02T07:20:45.981Z</time></trkpt><trkpt lat="44.376173804105804" lon="12.032848457716323"><ele>10.600000000000001</ele><time>2026-05-02T07:20:46.981Z</time></trkpt><trkpt lat="44.37606908379618" lon="12.03280528437415"><ele>10.4</ele><time>2026-05-02T07:20:47.981Z</time></trkpt><trkpt lat="44.37596642199068" lon="12.032763276451291"><ele>10.2</ele><time>2026-05-02T07:20:48.981Z</time></trkpt><trkpt lat="44.37585753005278" lon="12.03272268277079"><ele>10.0</ele><time>2026-05-02T07:20:49.981Z</time></trkpt><trkpt lat="44.37576686821262" lon="12.032687868596511"><ele>10.0</ele><time>2026-05-02T07:20:50.981Z</time></trkpt><trkpt lat="44.375680263970786" lon="12.032652879694586"><ele>10.0</ele><time>2026-05-02T07:20:51.981Z</time></trkpt><trkpt lat="44.375593172623525" lon="12.032613692596069"><ele>10.0</ele><time>2026-05-02T07:20:52.981Z</time></trkpt><trkpt lat="44.375501555241634" lon="12.0325744808176"><ele>10.0</ele><time>2026-05-02T07:20:53.981Z</time></trkpt><trkpt lat="44.37541361406858" lon="12.032535386375356"><ele>10.0</ele><time>2026-05-02T07:20:54.981Z</time></trkpt><trkpt lat="44.375317572737046" lon="12.032490111970693"><ele>10.2</ele><time>2026-05-02T07:20:55.981Z</time></trkpt><trkpt lat="44.375226214964165" lon="12.03245143118719"><ele>10.4</ele><time>2026-05-02T07:20:56.981Z</time></trkpt><trkpt lat="44.37512571135543" lon="12.032416937493501"><ele>10.600000000000001</ele><time>2026-05-02T07:20:57.981Z</time></trkpt><trkpt lat="44.37502265338482" lon="12.032377690193188"><ele>10.8</ele><time>2026-05-02T07:20:58.981Z</time></trkpt><trkpt lat="44.37491593866284" lon="12.032338795746112"><ele>11.0</ele><time>2026-05-02T07:20:59.981Z</time></trkpt><trkpt lat="44.37480166926165" lon="12.032280413220779"><ele>11.0</ele><time>2026-05-02T07:21:00.981Z</time></trkpt><trkpt lat="44.37468858729961" lon="12.032216816571777"><ele>11.0</ele><time>2026-05-02T07:21:01.981Z</time></trkpt><trkpt lat="44.37457333402499" lon="12.032174921318965"><ele>11.0</ele><time>2026-05-02T07:21:02.981Z</time></trkpt><trkpt lat="44.374470365337444" lon="12.032123372426677"><ele>11.0</ele><time>2026-05-02T07:21:03.981Z</time></trkpt><trkpt lat="44.37437561214668" lon="12.032076198799825"><ele>11.4</ele><time>2026-05-02T07:21:04.981Z</time></trkpt><trkpt lat="44.37427582766355" lon="12.03204098520202"><ele>11.8</ele><time>2026-05-02T07:21:05.981Z</time></trkpt><trkpt lat="44.37417497583782" lon="12.03200283628905"><ele>12.200000000000001</ele><time>2026-05-02T07:21:06.981Z</time></trkpt><trkpt lat="44.37407907008646" lon="12.031964872851692"><ele>12.600000000000001</ele><time>2026-05-02T07:21:07.981Z</time></trkpt><trkpt lat="44.37399771365684" lon="12.031934231218395"><ele>13.0</ele><time>2026-05-02T07:21:08.981Z</time></trkpt><trkpt lat="44.37392614051197" lon="12.03190646152861"><ele>12.999999999999998</ele><time>2026-05-02T07:21:09.981Z</time></trkpt><trkpt lat="44.373864761248896" lon="12.031881124255435"><ele>13.0</ele><time>2026-05-02T07:21:10.981Z</time></trkpt><trkpt lat="44.373768955722056" lon="12.031845600992883"><ele>13.0</ele><time>2026-05-02T07:21:12.981Z</time></trkpt><trkpt lat="44.37369982100622" lon="12.031814951772157"><ele>13.0</ele><time>2026-05-02T07:21:14.981Z</time></trkpt><trkpt lat="44.373620037940384" lon="12.031810769668816"><ele>12.999999999999998</ele><time>2026-05-02T07:21:17.979Z</time></trkpt><trkpt lat="44.37355230862717" lon="12.031758630634531"><ele>13.0</ele><time>2026-05-02T07:21:47.979Z</time></trkpt><trkpt lat="44.37345403409131" lon="12.031730934560727"><ele>12.833333333333332</ele><time>2026-05-02T07:21:49.979Z</time></trkpt><trkpt lat="44.37339059592913" lon="12.031681934086471"><ele>12.666666666666666</ele><time>2026-05-02T07:21:50.979Z</time></trkpt><trkpt lat="44.37331936993251" lon="12.031652300264373"><ele>12.5</ele><time>2026-05-02T07:21:51.979Z</time></trkpt><trkpt lat="44.37323931633731" lon="12.031618452541975"><ele>12.333333333333332</ele><time>2026-05-02T07:21:52.979Z</time></trkpt><trkpt lat="44.37316217208236" lon="12.031584490001409"><ele>12.166666666666666</ele><time>2026-05-02T07:21:53.979Z</time></trkpt><trkpt lat="44.37308821802349" lon="12.031552998965136"><ele>12.0</ele><time>2026-05-02T07:21:54.979Z</time></trkpt><trkpt lat="44.373007764286776" lon="12.031517035508912"><ele>12.0</ele><time>2026-05-02T07:21:55.979Z</time></trkpt><trkpt lat="44.37293023368045" lon="12.031455432017301"><ele>12.0</ele><time>2026-05-02T07:21:56.979Z</time></trkpt><trkpt lat="44.372845155284104" lon="12.031405413628326"><ele>12.0</ele><time>2026-05-02T07:21:57.979Z</time></trkpt><trkpt lat="44.37276508257956" lon="12.031358338098205"><ele>12.0</ele><time>2026-05-02T07:21:58.979Z</time></trkpt><trkpt lat="44.37269426079974" lon="12.031316700263678"><ele>12.0</ele><time>2026-05-02T07:21:59.979Z</time></trkpt><trkpt lat="44.37262870019349" lon="12.031273315672179"><ele>12.0</ele><time>2026-05-02T07:22:00.979Z</time></trkpt><trkpt lat="44.37256777620774" lon="12.031232884843748"><ele>11.999999999999998</ele><time>2026-05-02T07:22:01.979Z</time></trkpt><trkpt lat="44.37250321725689" lon="12.031184069342887"><ele>12.0</ele><time>2026-05-02T07:22:02.979Z</time></trkpt><trkpt lat="44.372437305006294" lon="12.031159309632288"><ele>12.0</ele><time>2026-05-02T07:22:03.979Z</time></trkpt><trkpt lat="44.37238222577296" lon="12.031109414222069"><ele>12.0</ele><time>2026-05-02T07:22:04.979Z</time></trkpt><trkpt lat="44.37231669624491" lon="12.031058750154498"><ele>12.0</ele><time>2026-05-02T07:22:05.979Z</time></trkpt><trkpt lat="44.37224695669206" lon="12.03102192193429"><ele>11.999999999999998</ele><time>2026-05-02T07:22:06.979Z</time></trkpt><trkpt lat="44.37217438658336" lon="12.031008870309336"><ele>12.0</ele><time>2026-05-02T07:22:07.979Z</time></trkpt><trkpt lat="44.372101344835386" lon="12.031014988284053"><ele>12.0</ele><time>2026-05-02T07:22:08.979Z</time></trkpt><trkpt lat="44.37203266897675" lon="12.031044408473749"><ele>12.0</ele><time>2026-05-02T07:22:09.979Z</time></trkpt><trkpt lat="44.3719636095343" lon="12.031095830160007"><ele>12.0</ele><time>2026-05-02T07:22:10.979Z</time></trkpt><trkpt lat="44.371900825549176" lon="12.031139357420166"><ele>12.0</ele><time>2026-05-02T07:22:11.979Z</time></trkpt><trkpt lat="44.37183782155061" lon="12.031195975788354"><ele>12.0</ele><time>2026-05-02T07:22:12.979Z</time></trkpt><trkpt lat="44.37177595502666" lon="12.031234288787466"><ele>12.0</ele><time>2026-05-02T07:22:13.979Z</time></trkpt><trkpt lat="44.371670948105795" lon="12.031224549975663"><ele>12.0</ele><time>2026-05-02T07:22:15.979Z</time></trkpt><trkpt lat="44.37161434628755" lon="12.031142356101414"><ele>12.0</ele><time>2026-05-02T07:22:16.979Z</time></trkpt><trkpt lat="44.37155237473204" lon="12.031045384222438"><ele>12.0</ele><time>2026-05-02T07:22:17.979Z</time></trkpt><trkpt lat="44.37148557140919" lon="12.030934195322743"><ele>12.0</ele><time>2026-05-02T07:22:18.979Z</time></trkpt><trkpt lat="44.37140739704037" lon="12.03082173221177"><ele>12.0</ele><time>2026-05-02T07:22:19.979Z</time></trkpt><trkpt lat="44.371323258321326" lon="12.030698682774553"><ele>11.5</ele><time>2026-05-02T07:22:20.979Z</time></trkpt><trkpt lat="44.371238478443885" lon="12.030565961894789"><ele>11.0</ele><time>2026-05-02T07:22:21.979Z</time></trkpt><trkpt lat="44.37115417724269" lon="12.030429067774962"><ele>10.5</ele><time>2026-05-02T07:22:22.979Z</time></trkpt><trkpt lat="44.371073058451614" lon="12.030297042751332"><ele>10.0</ele><time>2026-05-02T07:22:23.979Z</time></trkpt><trkpt lat="44.37099496590896" lon="12.030168734959995"><ele>10.0</ele><time>2026-05-02T07:22:24.979Z</time></trkpt><trkpt lat="44.37092377261181" lon="12.030050588998652"><ele>10.0</ele><time>2026-05-02T07:22:25.979Z</time></trkpt><trkpt lat="44.37085027389099" lon="12.029926497477168"><ele>10.0</ele><time>2026-05-02T07:22:26.979Z</time></trkpt><trkpt lat="44.37077215232273" lon="12.029793653398096"><ele>10.0</ele><time>2026-05-02T07:22:27.979Z</time></trkpt><trkpt lat="44.37069502336461" lon="12.029662497384294"><ele>10.0</ele><time>2026-05-02T07:22:28.979Z</time></trkpt><trkpt lat="44.370617427131975" lon="12.029526006310835"><ele>10.0</ele><time>2026-05-02T07:22:29.979Z</time></trkpt><trkpt lat="44.37053798395054" lon="12.029386152355698"><ele>10.0</ele><time>2026-05-02T07:22:30.979Z</time></trkpt><trkpt lat="44.37045716015645" lon="12.029245777425627"><ele>10.0</ele><time>2026-05-02T07:22:31.979Z</time></trkpt><trkpt lat="44.37036144632701" lon="12.029117766985335"><ele>10.0</ele><time>2026-05-02T07:22:32.979Z</time></trkpt><trkpt lat="44.37029541947546" lon="12.028970460369555"><ele>10.0</ele><time>2026-05-02T07:22:33.979Z</time></trkpt><trkpt lat="44.370218982874704" lon="12.028835348747645"><ele>10.0</ele><time>2026-05-02T07:22:34.979Z</time></trkpt><trkpt lat="44.37014405435142" lon="12.028702509885484"><ele>10.0</ele><time>2026-05-02T07:22:35.979Z</time></trkpt><trkpt lat="44.37006887090878" lon="12.028567298184873"><ele>10.0</ele><time>2026-05-02T07:22:36.979Z</time></trkpt><trkpt lat="44.369992360942454" lon="12.028433485495311"><ele>10.0</ele><time>2026-05-02T07:22:37.979Z</time></trkpt><trkpt lat="44.369910607335335" lon="12.028305810165147"><ele>10.0</ele><time>2026-05-02T07:22:38.979Z</time></trkpt><trkpt lat="44.369846778075875" lon="12.02817071661797"><ele>10.0</ele><time>2026-05-02T07:22:39.979Z</time></trkpt><trkpt lat="44.36977180189454" lon="12.02803965516525"><ele>10.0</ele><time>2026-05-02T07:22:40.979Z</time></trkpt><trkpt lat="44.36969753761016" lon="12.027906721147588"><ele>10.0</ele><time>2026-05-02T07:22:41.979Z</time></trkpt><trkpt lat="44.36961987488898" lon="12.027779295843107"><ele>10.0</ele><time>2026-05-02T07:22:42.979Z</time></trkpt><trkpt lat="44.36954717050226" lon="12.027655780573252"><ele>10.0</ele><time>2026-05-02T07:22:43.979Z</time></trkpt><trkpt lat="44.369475622425966" lon="12.027539767756103"><ele>10.0</ele><time>2026-05-02T07:22:44.979Z</time></trkpt><trkpt lat="44.369403844645255" lon="12.027413573339654"><ele>10.0</ele><time>2026-05-02T07:22:45.979Z</time></trkpt><trkpt lat="44.36933056124403" lon="12.027287846506427"><ele>10.0</ele><time>2026-05-02T07:22:46.979Z</time></trkpt><trkpt lat="44.369258764992956" lon="12.027167661905356"><ele>10.0</ele><time>2026-05-02T07:22:47.979Z</time></trkpt><trkpt lat="44.369186673825624" lon="12.027044068776405"><ele>10.0</ele><time>2026-05-02T07:22:48.979Z</time></trkpt><trkpt lat="44.36911560326028" lon="12.026920378357953"><ele>10.0</ele><time>2026-05-02T07:22:49.979Z</time></trkpt><trkpt lat="44.36904499776321" lon="12.026798080153242"><ele>10.0</ele><time>2026-05-02T07:22:50.979Z</time></trkpt><trkpt lat="44.368970246169596" lon="12.026672832033409"><ele>10.0</ele><time>2026-05-02T07:22:51.979Z</time></trkpt><trkpt lat="44.36889352148933" lon="12.026542077141098"><ele>10.25</ele><time>2026-05-02T07:22:52.979Z</time></trkpt><trkpt lat="44.368840428401185" lon="12.026398336000645"><ele>10.5</ele><time>2026-05-02T07:22:53.979Z</time></trkpt><trkpt lat="44.36875978829168" lon="12.026274467928777"><ele>10.75</ele><time>2026-05-02T07:22:54.979Z</time></trkpt><trkpt lat="44.36868630176305" lon="12.0261489857216"><ele>11.0</ele><time>2026-05-02T07:22:55.979Z</time></trkpt><trkpt lat="44.36861887722066" lon="12.02602501223411"><ele>11.0</ele><time>2026-05-02T07:22:56.979Z</time></trkpt><trkpt lat="44.36855615511309" lon="12.025904137078257"><ele>11.0</ele><time>2026-05-02T07:22:57.979Z</time></trkpt><trkpt lat="44.36849300954595" lon="12.025793166853358"><ele>11.0</ele><time>2026-05-02T07:22:58.979Z</time></trkpt><trkpt lat="44.3684279363141" lon="12.025682036094643"><ele>11.0</ele><time>2026-05-02T07:22:59.979Z</time></trkpt><trkpt lat="44.36836117923724" lon="12.025573668767942"><ele>11.0</ele><time>2026-05-02T07:23:00.979Z</time></trkpt><trkpt lat="44.368296918303805" lon="12.025465745278177"><ele>10.8</ele><time>2026-05-02T07:23:01.979Z</time></trkpt><trkpt lat="44.36823985074222" lon="12.025356286219024"><ele>10.600000000000001</ele><time>2026-05-02T07:23:02.979Z</time></trkpt><trkpt lat="44.36817607780172" lon="12.025234239791128"><ele>10.4</ele><time>2026-05-02T07:23:03.979Z</time></trkpt><trkpt lat="44.36810641205744" lon="12.025102486197705"><ele>10.2</ele><time>2026-05-02T07:23:04.979Z</time></trkpt><trkpt lat="44.36803631915318" lon="12.024964933034301"><ele>10.0</ele><time>2026-05-02T07:23:05.979Z</time></trkpt><trkpt lat="44.36796739999577" lon="12.024805912534253"><ele>9.5</ele><time>2026-05-02T07:23:06.979Z</time></trkpt><trkpt lat="44.36788325669039" lon="12.02464736961815"><ele>9.0</ele><time>2026-05-02T07:23:07.979Z</time></trkpt><trkpt lat="44.36779797840984" lon="12.024496798679564"><ele>8.5</ele><time>2026-05-02T07:23:08.979Z</time></trkpt><trkpt lat="44.367729820073045" lon="12.02436600026547"><ele>8.0</ele><time>2026-05-02T07:23:09.979Z</time></trkpt><trkpt lat="44.36767216788829" lon="12.024248056541607"><ele>7.800000000000001</ele><time>2026-05-02T07:23:10.979Z</time></trkpt><trkpt lat="44.36762905384665" lon="12.024140533821502"><ele>7.6000000000000005</ele><time>2026-05-02T07:23:11.979Z</time></trkpt><trkpt lat="44.3675975929414" lon="12.024026955650893"><ele>7.3999999999999995</ele><time>2026-05-02T07:23:12.979Z</time></trkpt><trkpt lat="44.36757107452352" lon="12.023897547013576"><ele>7.199999999999999</ele><time>2026-05-02T07:23:13.979Z</time></trkpt><trkpt lat="44.367533412912735" lon="12.023764970034495"><ele>7.0</ele><time>2026-05-02T07:23:14.979Z</time></trkpt><trkpt lat="44.367430972312484" lon="12.023677975261094"><ele>7.0</ele><time>2026-05-02T07:23:15.979Z</time></trkpt><trkpt lat="44.36731339074634" lon="12.02357754863133"><ele>7.0</ele><time>2026-05-02T07:23:16.979Z</time></trkpt><trkpt lat="44.367190601504916" lon="12.023453445663174"><ele>7.0</ele><time>2026-05-02T07:23:17.979Z</time></trkpt><trkpt lat="44.3670682419051" lon="12.023299979860846"><ele>8.666666666666668</ele><time>2026-05-02T07:23:18.979Z</time></trkpt><trkpt lat="44.36694815351777" lon="12.023113478188712"><ele>10.333333333333334</ele><time>2026-05-02T07:23:19.979Z</time></trkpt><trkpt lat="44.36683468968319" lon="12.022915189128293"><ele>12.0</ele><time>2026-05-02T07:23:20.979Z</time></trkpt><trkpt lat="44.36672177571248" lon="12.0227157143012"><ele>12.0</ele><time>2026-05-02T07:23:21.978Z</time></trkpt><trkpt lat="44.36660457970992" lon="12.022511452429754"><ele>12.0</ele><time>2026-05-02T07:23:22.978Z</time></trkpt><trkpt lat="44.366493110954686" lon="12.022311508640962"><ele>12.0</ele><time>2026-05-02T07:23:23.978Z</time></trkpt><trkpt lat="44.36637653393565" lon="12.022102790215948"><ele>11.666666666666666</ele><time>2026-05-02T07:23:24.978Z</time></trkpt><trkpt lat="44.366256184092826" lon="12.02188961144399"><ele>11.333333333333332</ele><time>2026-05-02T07:23:25.978Z</time></trkpt><trkpt lat="44.36613284747236" lon="12.02167987038176"><ele>11.0</ele><time>2026-05-02T07:23:26.978Z</time></trkpt><trkpt lat="44.36601246706047" lon="12.021467286997362"><ele>11.0</ele><time>2026-05-02T07:23:27.978Z</time></trkpt><trkpt lat="44.365893566492836" lon="12.021260357937262"><ele>11.0</ele><time>2026-05-02T07:23:28.978Z</time></trkpt><trkpt lat="44.365773560672366" lon="12.021053550563204"><ele>11.0</ele><time>2026-05-02T07:23:29.978Z</time></trkpt><trkpt lat="44.36565176480969" lon="12.02084013356909"><ele>11.0</ele><time>2026-05-02T07:23:30.978Z</time></trkpt><trkpt lat="44.36552843646257" lon="12.020624033958118"><ele>11.0</ele><time>2026-05-02T07:23:31.978Z</time></trkpt><trkpt lat="44.36540863657386" lon="12.020413581959083"><ele>11.0</ele><time>2026-05-02T07:23:32.978Z</time></trkpt><trkpt lat="44.36528373516166" lon="12.020210425286848"><ele>11.0</ele><time>2026-05-02T07:23:33.978Z</time></trkpt><trkpt lat="44.36517432301033" lon="12.020029044033198"><ele>11.0</ele><time>2026-05-02T07:23:34.978Z</time></trkpt><trkpt lat="44.36507310892172" lon="12.019848803894368"><ele>11.0</ele><time>2026-05-02T07:23:35.978Z</time></trkpt><trkpt lat="44.36497928500169" lon="12.01968094756077"><ele>11.0</ele><time>2026-05-02T07:23:36.978Z</time></trkpt><trkpt lat="44.36488398580673" lon="12.019508825388368"><ele>11.0</ele><time>2026-05-02T07:23:37.978Z</time></trkpt><trkpt lat="44.364788208971525" lon="12.019333153670994"><ele>11.0</ele><time>2026-05-02T07:23:38.978Z</time></trkpt><trkpt lat="44.36468930607834" lon="12.019161567306272"><ele>11.0</ele><time>2026-05-02T07:23:39.978Z</time></trkpt><trkpt lat="44.36459287956577" lon="12.018994457041018"><ele>11.0</ele><time>2026-05-02T07:23:40.978Z</time></trkpt><trkpt lat="44.364503079411236" lon="12.018831492464678"><ele>11.0</ele><time>2026-05-02T07:23:41.978Z</time></trkpt><trkpt lat="44.36441517203761" lon="12.018671770489442"><ele>11.0</ele><time>2026-05-02T07:23:42.978Z</time></trkpt><trkpt lat="44.36432334701254" lon="12.018510458021233"><ele>11.0</ele><time>2026-05-02T07:23:43.978Z</time></trkpt><trkpt lat="44.36422740486872" lon="12.018355234418575"><ele>11.0</ele><time>2026-05-02T07:23:44.978Z</time></trkpt><trkpt lat="44.36412923819565" lon="12.018189093377224"><ele>11.0</ele><time>2026-05-02T07:23:45.978Z</time></trkpt><trkpt lat="44.36402940253626" lon="12.018018648339572"><ele>11.0</ele><time>2026-05-02T07:23:46.978Z</time></trkpt><trkpt lat="44.363929215750915" lon="12.017847818100236"><ele>11.0</ele><time>2026-05-02T07:23:47.978Z</time></trkpt><trkpt lat="44.363845414608825" lon="12.017663454646128"><ele>11.0</ele><time>2026-05-02T07:23:48.978Z</time></trkpt><trkpt lat="44.36374092726744" lon="12.017476263169899"><ele>11.333333333333332</ele><time>2026-05-02T07:23:49.978Z</time></trkpt><trkpt lat="44.36363675513853" lon="12.017292463900716"><ele>11.666666666666666</ele><time>2026-05-02T07:23:50.978Z</time></trkpt><trkpt lat="44.36353701911185" lon="12.017119446003488"><ele>12.0</ele><time>2026-05-02T07:23:51.978Z</time></trkpt><trkpt lat="44.36344252348478" lon="12.016954023559755"><ele>12.0</ele><time>2026-05-02T07:23:52.978Z</time></trkpt><trkpt lat="44.363348362124064" lon="12.016791386438033"><ele>12.0</ele><time>2026-05-02T07:23:53.978Z</time></trkpt><trkpt lat="44.36326284973156" lon="12.016642994718868"><ele>12.0</ele><time>2026-05-02T07:23:54.978Z</time></trkpt><trkpt lat="44.363178691056405" lon="12.016500647216054"><ele>12.0</ele><time>2026-05-02T07:23:55.978Z</time></trkpt><trkpt lat="44.36309252480307" lon="12.016357349094026"><ele>12.25</ele><time>2026-05-02T07:23:56.978Z</time></trkpt><trkpt lat="44.36299944181961" lon="12.016222529535149"><ele>12.5</ele><time>2026-05-02T07:23:57.978Z</time></trkpt><trkpt lat="44.36289193419295" lon="12.016091813189584"><ele>12.75</ele><time>2026-05-02T07:23:58.978Z</time></trkpt><trkpt lat="44.36278074212903" lon="12.01595565456676"><ele>13.0</ele><time>2026-05-02T07:23:59.978Z</time></trkpt><trkpt lat="44.36266605306667" lon="12.015825645683782"><ele>12.666666666666666</ele><time>2026-05-02T07:24:00.978Z</time></trkpt><trkpt lat="44.36254214960029" lon="12.015700523473404"><ele>12.333333333333332</ele><time>2026-05-02T07:24:01.978Z</time></trkpt><trkpt lat="44.36240576673128" lon="12.015583655049397"><ele>12.0</ele><time>2026-05-02T07:24:02.978Z</time></trkpt><trkpt lat="44.362259625903754" lon="12.015463024690979"><ele>11.333333333333334</ele><time>2026-05-02T07:24:03.978Z</time></trkpt><trkpt lat="44.362116895771564" lon="12.0153162467136"><ele>10.666666666666668</ele><time>2026-05-02T07:24:04.978Z</time></trkpt><trkpt lat="44.361959818486596" lon="12.015182969589157"><ele>10.0</ele><time>2026-05-02T07:24:05.978Z</time></trkpt><trkpt lat="44.36180392708316" lon="12.015050698732253"><ele>10.0</ele><time>2026-05-02T07:24:06.978Z</time></trkpt><trkpt lat="44.36165442053206" lon="12.014923845376753"><ele>10.0</ele><time>2026-05-02T07:24:07.978Z</time></trkpt><trkpt lat="44.36151304825075" lon="12.01480389769001"><ele>10.0</ele><time>2026-05-02T07:24:08.978Z</time></trkpt><trkpt lat="44.361375013149164" lon="12.01468554081213"><ele>10.333333333333334</ele><time>2026-05-02T07:24:09.978Z</time></trkpt><trkpt lat="44.36124640396953" lon="12.014574801704008"><ele>10.666666666666666</ele><time>2026-05-02T07:24:10.978Z</time></trkpt><trkpt lat="44.36110622877634" lon="12.014480738100914"><ele>11.0</ele><time>2026-05-02T07:24:11.978Z</time></trkpt><trkpt lat="44.36097673371386" lon="12.014367407448503"><ele>11.0</ele><time>2026-05-02T07:24:12.978Z</time></trkpt><trkpt lat="44.36085105071526" lon="12.014257540585678"><ele>11.0</ele><time>2026-05-02T07:24:13.978Z</time></trkpt><trkpt lat="44.36072906691495" lon="12.014128034313352"><ele>11.0</ele><time>2026-05-02T07:24:14.978Z</time></trkpt><trkpt lat="44.36059300175442" lon="12.014010529611284"><ele>11.0</ele><time>2026-05-02T07:24:15.978Z</time></trkpt><trkpt lat="44.36045008717756" lon="12.013888093196313"><ele>11.0</ele><time>2026-05-02T07:24:16.978Z</time></trkpt><trkpt lat="44.36030333304928" lon="12.013763876481638"><ele>11.0</ele><time>2026-05-02T07:24:17.978Z</time></trkpt><trkpt lat="44.36014919221784" lon="12.013629459554013"><ele>11.0</ele><time>2026-05-02T07:24:18.978Z</time></trkpt><trkpt lat="44.35998475608028" lon="12.01348197901856"><ele>11.0</ele><time>2026-05-02T07:24:19.978Z</time></trkpt><trkpt lat="44.359815693498554" lon="12.01333902209774"><ele>11.0</ele><time>2026-05-02T07:24:20.978Z</time></trkpt><trkpt lat="44.35964403196439" lon="12.013196410218448"><ele>10.666666666666666</ele><time>2026-05-02T07:24:21.978Z</time></trkpt><trkpt lat="44.359458019752026" lon="12.013052877072184"><ele>10.333333333333334</ele><time>2026-05-02T07:24:22.978Z</time></trkpt><trkpt lat="44.35926187434558" lon="12.01289852726358"><ele>10.0</ele><time>2026-05-02T07:24:23.978Z</time></trkpt><trkpt lat="44.35907817455122" lon="12.01273891196886"><ele>10.0</ele><time>2026-05-02T07:24:24.978Z</time></trkpt><trkpt lat="44.35891359230922" lon="12.012591221660575"><ele>10.0</ele><time>2026-05-02T07:24:25.978Z</time></trkpt><trkpt lat="44.358760823000935" lon="12.012450429161069"><ele>10.0</ele><time>2026-05-02T07:24:26.978Z</time></trkpt><trkpt lat="44.35861479967619" lon="12.012326966399286"><ele>10.0</ele><time>2026-05-02T07:24:27.978Z</time></trkpt><trkpt lat="44.3584712414862" lon="12.012213021951217"><ele>10.0</ele><time>2026-05-02T07:24:28.978Z</time></trkpt><trkpt lat="44.35832850495572" lon="12.012104653266157"><ele>10.0</ele><time>2026-05-02T07:24:29.978Z</time></trkpt><trkpt lat="44.3581799806501" lon="12.012002162400796"><ele>9.666666666666668</ele><time>2026-05-02T07:24:30.978Z</time></trkpt><trkpt lat="44.35803346538028" lon="12.011906582463798"><ele>9.333333333333334</ele><time>2026-05-02T07:24:31.978Z</time></trkpt><trkpt lat="44.35787870396145" lon="12.011822832453722"><ele>9.0</ele><time>2026-05-02T07:24:32.978Z</time></trkpt><trkpt lat="44.35770291610254" lon="12.01172652451546"><ele>9.333333333333334</ele><time>2026-05-02T07:24:33.978Z</time></trkpt><trkpt lat="44.3575174823644" lon="12.011593646272006"><ele>9.666666666666668</ele><time>2026-05-02T07:24:34.978Z</time></trkpt><trkpt lat="44.357303259042276" lon="12.011448719239882"><ele>10.0</ele><time>2026-05-02T07:24:35.978Z</time></trkpt><trkpt lat="44.35707328921093" lon="12.011298863216883"><ele>10.0</ele><time>2026-05-02T07:24:36.978Z</time></trkpt><trkpt lat="44.356835073867124" lon="12.011153763099937"><ele>10.0</ele><time>2026-05-02T07:24:37.978Z</time></trkpt><trkpt lat="44.356603479829595" lon="12.01101423072226"><ele>10.0</ele><time>2026-05-02T07:24:38.978Z</time></trkpt><trkpt lat="44.356388204501584" lon="12.010882628641458"><ele>10.0</ele><time>2026-05-02T07:24:39.978Z</time></trkpt><trkpt lat="44.35618740657158" lon="12.010763890268272"><ele>9.666666666666668</ele><time>2026-05-02T07:24:40.978Z</time></trkpt><trkpt lat="44.35599844601913" lon="12.010653335945157"><ele>9.333333333333334</ele><time>2026-05-02T07:24:41.978Z</time></trkpt><trkpt lat="44.35581893053924" lon="12.01054218955089"><ele>9.0</ele><time>2026-05-02T07:24:42.978Z</time></trkpt><trkpt lat="44.3556520040788" lon="12.010437209507122"><ele>9.333333333333334</ele><time>2026-05-02T07:24:43.978Z</time></trkpt><trkpt lat="44.35549469426508" lon="12.010340029522247"><ele>9.666666666666668</ele><time>2026-05-02T07:24:44.978Z</time></trkpt><trkpt lat="44.355339878965474" lon="12.010244110214108"><ele>10.0</ele><time>2026-05-02T07:24:45.978Z</time></trkpt><trkpt lat="44.355182302980054" lon="12.010146376253573"><ele>10.0</ele><time>2026-05-02T07:24:46.978Z</time></trkpt><trkpt lat="44.35502387381935" lon="12.01004912987443"><ele>10.0</ele><time>2026-05-02T07:24:47.978Z</time></trkpt><trkpt lat="44.354858047360324" lon="12.009953874036833"><ele>10.0</ele><time>2026-05-02T07:24:48.978Z</time></trkpt><trkpt lat="44.354682030166856" lon="12.00985444405651"><ele>10.666666666666668</ele><time>2026-05-02T07:24:49.978Z</time></trkpt><trkpt lat="44.354489408425685" lon="12.009745240339791"><ele>11.333333333333334</ele><time>2026-05-02T07:24:50.978Z</time></trkpt><trkpt lat="44.35428227851619" lon="12.00961801468635"><ele>12.0</ele><time>2026-05-02T07:24:51.978Z</time></trkpt><trkpt lat="44.35406244244764" lon="12.009470210100467"><ele>12.5</ele><time>2026-05-02T07:24:52.978Z</time></trkpt><trkpt lat="44.35383798453778" lon="12.009317259222652"><ele>13.0</ele><time>2026-05-02T07:24:53.978Z</time></trkpt><trkpt lat="44.35360302695154" lon="12.009165755219778"><ele>12.5</ele><time>2026-05-02T07:24:54.978Z</time></trkpt><trkpt lat="44.35336896211551" lon="12.009023292312392"><ele>12.0</ele><time>2026-05-02T07:24:55.978Z</time></trkpt><trkpt lat="44.35314462676035" lon="12.008884442997024"><ele>11.0</ele><time>2026-05-02T07:24:56.978Z</time></trkpt><trkpt lat="44.35292754541485" lon="12.00874599028901"><ele>10.0</ele><time>2026-05-02T07:24:57.978Z</time></trkpt><trkpt lat="44.3527127628396" lon="12.008607119569184"><ele>10.0</ele><time>2026-05-02T07:24:58.978Z</time></trkpt><trkpt lat="44.35250326696738" lon="12.008474995126738"><ele>10.0</ele><time>2026-05-02T07:24:59.978Z</time></trkpt><trkpt lat="44.352297014570176" lon="12.008342409926403"><ele>10.666666666666668</ele><time>2026-05-02T07:25:00.978Z</time></trkpt><trkpt lat="44.35208850550317" lon="12.008215743589778"><ele>11.333333333333334</ele><time>2026-05-02T07:25:01.978Z</time></trkpt><trkpt lat="44.351885870842025" lon="12.00809198057476"><ele>12.0</ele><time>2026-05-02T07:25:02.978Z</time></trkpt><trkpt lat="44.35168348239948" lon="12.0079684297434"><ele>12.0</ele><time>2026-05-02T07:25:03.978Z</time></trkpt><trkpt lat="44.35148591229689" lon="12.007842730160094"><ele>12.0</ele><time>2026-05-02T07:25:04.978Z</time></trkpt><trkpt lat="44.351285978791026" lon="12.00771797371774"><ele>12.0</ele><time>2026-05-02T07:25:05.978Z</time></trkpt><trkpt lat="44.35108992062371" lon="12.007591648919927"><ele>12.0</ele><time>2026-05-02T07:25:06.978Z</time></trkpt><trkpt lat="44.350892962670386" lon="12.007467096807321"><ele>12.0</ele><time>2026-05-02T07:25:07.978Z</time></trkpt><trkpt lat="44.350695750618094" lon="12.007344116928175"><ele>12.0</ele><time>2026-05-02T07:25:08.978Z</time></trkpt><trkpt lat="44.35050048675528" lon="12.007223579182584"><ele>11.666666666666666</ele><time>2026-05-02T07:25:09.978Z</time></trkpt><trkpt lat="44.35030565920932" lon="12.007105971268828"><ele>11.333333333333332</ele><time>2026-05-02T07:25:10.978Z</time></trkpt><trkpt lat="44.35011014723617" lon="12.006988277681284"><ele>11.0</ele><time>2026-05-02T07:25:11.978Z</time></trkpt><trkpt lat="44.34991619842712" lon="12.00687380699309"><ele>11.0</ele><time>2026-05-02T07:25:12.978Z</time></trkpt><trkpt lat="44.34971377423709" lon="12.006759534600024"><ele>11.0</ele><time>2026-05-02T07:25:13.978Z</time></trkpt><trkpt lat="44.34950621018175" lon="12.006627093501328"><ele>11.0</ele><time>2026-05-02T07:25:14.978Z</time></trkpt><trkpt lat="44.34928407100744" lon="12.006524535859214"><ele>11.0</ele><time>2026-05-02T07:25:15.978Z</time></trkpt><trkpt lat="44.34906655104897" lon="12.0064226904443"><ele>11.0</ele><time>2026-05-02T07:25:16.978Z</time></trkpt><trkpt lat="44.34885456658243" lon="12.00632285544064"><ele>11.0</ele><time>2026-05-02T07:25:17.978Z</time></trkpt><trkpt lat="44.348647358835755" lon="12.006224127944328"><ele>11.0</ele><time>2026-05-02T07:25:18.978Z</time></trkpt><trkpt lat="44.348447307889714" lon="12.006128726389226"><ele>11.0</ele><time>2026-05-02T07:25:19.978Z</time></trkpt><trkpt lat="44.3482484141654" lon="12.006038666470335"><ele>11.0</ele><time>2026-05-02T07:25:20.978Z</time></trkpt><trkpt lat="44.348036667139574" lon="12.005950293683489"><ele>11.0</ele><time>2026-05-02T07:25:21.978Z</time></trkpt><trkpt lat="44.34781721882335" lon="12.005823008484759"><ele>11.0</ele><time>2026-05-02T07:25:22.978Z</time></trkpt><trkpt lat="44.34758189737568" lon="12.005707681181295"><ele>11.0</ele><time>2026-05-02T07:25:23.978Z</time></trkpt><trkpt lat="44.347335379629605" lon="12.005611325403356"><ele>10.5</ele><time>2026-05-02T07:25:24.978Z</time></trkpt><trkpt lat="44.34708790783367" lon="12.005465234319706"><ele>10.0</ele><time>2026-05-02T07:25:25.978Z</time></trkpt><trkpt lat="44.346831000469535" lon="12.005345698009084"><ele>10.0</ele><time>2026-05-02T07:25:26.978Z</time></trkpt><trkpt lat="44.346576691316535" lon="12.005232113426985"><ele>10.0</ele><time>2026-05-02T07:25:27.977Z</time></trkpt><trkpt lat="44.34633352538104" lon="12.0051251925959"><ele>10.5</ele><time>2026-05-02T07:25:28.977Z</time></trkpt><trkpt lat="44.34610462791019" lon="12.005020267013474"><ele>11.0</ele><time>2026-05-02T07:25:29.977Z</time></trkpt><trkpt lat="44.345881634537285" lon="12.004915489484183"><ele>11.0</ele><time>2026-05-02T07:25:30.977Z</time></trkpt><trkpt lat="44.34566471345293" lon="12.004816482554315"><ele>11.0</ele><time>2026-05-02T07:25:31.977Z</time></trkpt><trkpt lat="44.34545088863576" lon="12.004717729139857"><ele>11.5</ele><time>2026-05-02T07:25:32.977Z</time></trkpt><trkpt lat="44.34523286870347" lon="12.004622497309299"><ele>12.0</ele><time>2026-05-02T07:25:33.977Z</time></trkpt><trkpt lat="44.34501591818028" lon="12.004523692609565"><ele>12.0</ele><time>2026-05-02T07:25:34.977Z</time></trkpt><trkpt lat="44.34480817911109" lon="12.004428628515099"><ele>12.0</ele><time>2026-05-02T07:25:35.977Z</time></trkpt><trkpt lat="44.34461573057572" lon="12.004331567742437"><ele>12.0</ele><time>2026-05-02T07:25:36.977Z</time></trkpt><trkpt lat="44.34443425850167" lon="12.004239683810667"><ele>12.333333333333332</ele><time>2026-05-02T07:25:37.977Z</time></trkpt><trkpt lat="44.344250493688456" lon="12.004151826878488"><ele>12.666666666666666</ele><time>2026-05-02T07:25:38.977Z</time></trkpt><trkpt lat="44.34406513076252" lon="12.004051184463343"><ele>13.0</ele><time>2026-05-02T07:25:39.977Z</time></trkpt><trkpt lat="44.343887555447886" lon="12.003943801635975"><ele>13.0</ele><time>2026-05-02T07:25:40.977Z</time></trkpt><trkpt lat="44.34369645052355" lon="12.003794197248396"><ele>13.0</ele><time>2026-05-02T07:25:41.977Z</time></trkpt><trkpt lat="44.34350053657959" lon="12.00363966257414"><ele>13.0</ele><time>2026-05-02T07:25:42.977Z</time></trkpt><trkpt lat="44.34330378197559" lon="12.003485134298"><ele>13.0</ele><time>2026-05-02T07:25:43.977Z</time></trkpt><trkpt lat="44.34310557795634" lon="12.003331508536316"><ele>13.0</ele><time>2026-05-02T07:25:44.977Z</time></trkpt><trkpt lat="44.3429123860047" lon="12.00317784126611"><ele>13.0</ele><time>2026-05-02T07:25:45.977Z</time></trkpt><trkpt lat="44.34271981885189" lon="12.00302510094271"><ele>13.0</ele><time>2026-05-02T07:25:46.977Z</time></trkpt><trkpt lat="44.34253142682306" lon="12.002875029125448"><ele>13.0</ele><time>2026-05-02T07:25:47.977Z</time></trkpt><trkpt lat="44.342345503499416" lon="12.00272968170966"><ele>13.0</ele><time>2026-05-02T07:25:48.977Z</time></trkpt><trkpt lat="44.34215774478388" lon="12.002585214496635"><ele>13.333333333333332</ele><time>2026-05-02T07:25:49.977Z</time></trkpt><trkpt lat="44.34196887176043" lon="12.00243906305942"><ele>13.666666666666668</ele><time>2026-05-02T07:25:50.977Z</time></trkpt><trkpt lat="44.341775360311" lon="12.002289774010459"><ele>14.0</ele><time>2026-05-02T07:25:51.977Z</time></trkpt><trkpt lat="44.34157567488396" lon="12.00213395041614"><ele>14.0</ele><time>2026-05-02T07:25:52.977Z</time></trkpt><trkpt lat="44.341372174073555" lon="12.001980561724423"><ele>14.0</ele><time>2026-05-02T07:25:53.977Z</time></trkpt><trkpt lat="44.341169578437025" lon="12.00182103844056"><ele>14.0</ele><time>2026-05-02T07:25:54.977Z</time></trkpt><trkpt lat="44.34096878055687" lon="12.001659970549243"><ele>14.0</ele><time>2026-05-02T07:25:55.977Z</time></trkpt><trkpt lat="44.34076901197856" lon="12.001504924528922"><ele>14.0</ele><time>2026-05-02T07:25:56.977Z</time></trkpt><trkpt lat="44.34057012732837" lon="12.00134365939722"><ele>14.0</ele><time>2026-05-02T07:25:57.977Z</time></trkpt><trkpt lat="44.340368144283666" lon="12.001187931745392"><ele>14.0</ele><time>2026-05-02T07:25:58.977Z</time></trkpt><trkpt lat="44.34016809060051" lon="12.001033005379748"><ele>14.0</ele><time>2026-05-02T07:25:59.977Z</time></trkpt><trkpt lat="44.339979712676545" lon="12.000884723274334"><ele>14.0</ele><time>2026-05-02T07:26:00.977Z</time></trkpt><trkpt lat="44.339800831902515" lon="12.000743702187464"><ele>14.333333333333334</ele><time>2026-05-02T07:26:01.977Z</time></trkpt><trkpt lat="44.33961885719825" lon="12.00059880671438"><ele>14.666666666666668</ele><time>2026-05-02T07:26:02.977Z</time></trkpt><trkpt lat="44.3394373128919" lon="12.000454400546245"><ele>15.0</ele><time>2026-05-02T07:26:03.977Z</time></trkpt><trkpt lat="44.33925265049356" lon="12.000309688354436"><ele>15.0</ele><time>2026-05-02T07:26:04.977Z</time></trkpt><trkpt lat="44.33906390362945" lon="12.000159324523922"><ele>15.0</ele><time>2026-05-02T07:26:05.977Z</time></trkpt><trkpt lat="44.338869428486575" lon="12.000009874599288"><ele>15.0</ele><time>2026-05-02T07:26:06.977Z</time></trkpt><trkpt lat="44.33867367304236" lon="11.999856349170283"><ele>13.5</ele><time>2026-05-02T07:26:07.977Z</time></trkpt><trkpt lat="44.338480965901034" lon="11.999700670051531"><ele>12.0</ele><time>2026-05-02T07:26:08.977Z</time></trkpt><trkpt lat="44.33828152417319" lon="11.999547014511828"><ele>12.0</ele><time>2026-05-02T07:26:09.977Z</time></trkpt><trkpt lat="44.33807999583319" lon="11.999391386157042"><ele>12.0</ele><time>2026-05-02T07:26:10.977Z</time></trkpt><trkpt lat="44.33787827678954" lon="11.999230814582662"><ele>12.0</ele><time>2026-05-02T07:26:11.977Z</time></trkpt><trkpt lat="44.33767676933776" lon="11.999072171430054"><ele>12.0</ele><time>2026-05-02T07:26:12.977Z</time></trkpt><trkpt lat="44.33748254145635" lon="11.998919120466748"><ele>12.0</ele><time>2026-05-02T07:26:13.977Z</time></trkpt><trkpt lat="44.33730207394812" lon="11.998779269170496"><ele>12.0</ele><time>2026-05-02T07:26:14.977Z</time></trkpt><trkpt lat="44.33713868891892" lon="11.99865312323944"><ele>12.0</ele><time>2026-05-02T07:26:15.977Z</time></trkpt><trkpt lat="44.33699082486519" lon="11.998535842438221"><ele>12.666666666666668</ele><time>2026-05-02T07:26:16.977Z</time></trkpt><trkpt lat="44.33685275701144" lon="11.998426128328617"><ele>13.333333333333334</ele><time>2026-05-02T07:26:17.977Z</time></trkpt><trkpt lat="44.336720142567906" lon="11.998321975674825"><ele>14.0</ele><time>2026-05-02T07:26:18.977Z</time></trkpt><trkpt lat="44.33658396391068" lon="11.998219319040949"><ele>14.0</ele><time>2026-05-02T07:26:19.977Z</time></trkpt><trkpt lat="44.33644416018568" lon="11.998113810071729"><ele>14.0</ele><time>2026-05-02T07:26:20.977Z</time></trkpt><trkpt lat="44.3362967423796" lon="11.997998599146074"><ele>14.0</ele><time>2026-05-02T07:26:21.977Z</time></trkpt><trkpt lat="44.33614812658912" lon="11.997882097003103"><ele>13.666666666666668</ele><time>2026-05-02T07:26:22.977Z</time></trkpt><trkpt lat="44.33601406281615" lon="11.997770743788449"><ele>13.333333333333332</ele><time>2026-05-02T07:26:23.977Z</time></trkpt><trkpt lat="44.33588864663158" lon="11.99765830826099"><ele>13.0</ele><time>2026-05-02T07:26:24.977Z</time></trkpt><trkpt lat="44.33576210314692" lon="11.997541036045844"><ele>13.0</ele><time>2026-05-02T07:26:25.977Z</time></trkpt><trkpt lat="44.335636393307276" lon="11.997422178822104"><ele>13.0</ele><time>2026-05-02T07:26:26.977Z</time></trkpt><trkpt lat="44.33552305788345" lon="11.997306911003413"><ele>13.0</ele><time>2026-05-02T07:26:27.977Z</time></trkpt><trkpt lat="44.33542103564306" lon="11.997198292774462"><ele>13.0</ele><time>2026-05-02T07:26:28.977Z</time></trkpt><trkpt lat="44.335328231656526" lon="11.997092197255538"><ele>12.999999999999998</ele><time>2026-05-02T07:26:29.977Z</time></trkpt><trkpt lat="44.33525046971396" lon="11.996997453535664"><ele>13.0</ele><time>2026-05-02T07:26:30.977Z</time></trkpt><trkpt lat="44.335188245749265" lon="11.996908159164427"><ele>13.0</ele><time>2026-05-02T07:26:31.977Z</time></trkpt><trkpt lat="44.33513246188808" lon="11.996827746630885"><ele>13.0</ele><time>2026-05-02T07:26:32.977Z</time></trkpt><trkpt lat="44.33507392236928" lon="11.996779161338406"><ele>12.999999999999998</ele><time>2026-05-02T07:26:33.977Z</time></trkpt><trkpt lat="44.33499688511077" lon="11.99677395788718"><ele>13.0</ele><time>2026-05-02T07:26:34.977Z</time></trkpt><trkpt lat="44.33491012720069" lon="11.996833718890203"><ele>13.0</ele><time>2026-05-02T07:26:35.977Z</time></trkpt><trkpt lat="44.33482026692875" lon="11.99688322680648"><ele>13.0</ele><time>2026-05-02T07:26:36.977Z</time></trkpt><trkpt lat="44.33471961416925" lon="11.996946188705065"><ele>13.0</ele><time>2026-05-02T07:26:37.977Z</time></trkpt><trkpt lat="44.334583625940084" lon="11.99686587094608"><ele>13.0</ele><time>2026-05-02T07:26:38.977Z</time></trkpt><trkpt lat="44.3344563007936" lon="11.99681483613197"><ele>13.0</ele><time>2026-05-02T07:26:39.977Z</time></trkpt><trkpt lat="44.33432564657826" lon="11.996735398263292"><ele>13.0</ele><time>2026-05-02T07:26:40.977Z</time></trkpt><trkpt lat="44.33420194900704" lon="11.996630005312955"><ele>13.0</ele><time>2026-05-02T07:26:41.977Z</time></trkpt><trkpt lat="44.33406066641933" lon="11.996549784450186"><ele>13.0</ele><time>2026-05-02T07:26:42.977Z</time></trkpt><trkpt lat="44.333921842044035" lon="11.996445881417845"><ele>13.333333333333332</ele><time>2026-05-02T07:26:43.977Z</time></trkpt><trkpt lat="44.333775195156264" lon="11.996339085791604"><ele>13.666666666666668</ele><time>2026-05-02T07:26:44.977Z</time></trkpt><trkpt lat="44.33362666654654" lon="11.996223971978923"><ele>14.0</ele><time>2026-05-02T07:26:45.977Z</time></trkpt><trkpt lat="44.33349460396054" lon="11.996126376827416"><ele>14.0</ele><time>2026-05-02T07:26:46.977Z</time></trkpt><trkpt lat="44.333377454782536" lon="11.996041137928323"><ele>14.0</ele><time>2026-05-02T07:26:47.977Z</time></trkpt><trkpt lat="44.33326021022508" lon="11.995949992663496"><ele>14.0</ele><time>2026-05-02T07:26:48.977Z</time></trkpt><trkpt lat="44.33314571414859" lon="11.995838252862319"><ele>14.0</ele><time>2026-05-02T07:26:49.977Z</time></trkpt><trkpt lat="44.33303066047667" lon="11.995723572237276"><ele>13.75</ele><time>2026-05-02T07:26:50.977Z</time></trkpt><trkpt lat="44.33295500520334" lon="11.995543229841516"><ele>13.5</ele><time>2026-05-02T07:26:51.977Z</time></trkpt><trkpt lat="44.332850992616294" lon="11.99539117180749"><ele>13.25</ele><time>2026-05-02T07:26:52.977Z</time></trkpt><trkpt lat="44.332764254924484" lon="11.995243862449271"><ele>13.0</ele><time>2026-05-02T07:26:53.977Z</time></trkpt><trkpt lat="44.33266436714363" lon="11.995120161314624"><ele>13.0</ele><time>2026-05-02T07:26:54.977Z</time></trkpt><trkpt lat="44.33255080216637" lon="11.995033406477091"><ele>13.0</ele><time>2026-05-02T07:26:55.977Z</time></trkpt><trkpt lat="44.33241256528797" lon="11.995009947065345"><ele>13.0</ele><time>2026-05-02T07:26:56.977Z</time></trkpt><trkpt lat="44.332273822238186" lon="11.995034750383965"><ele>13.0</ele><time>2026-05-02T07:26:57.977Z</time></trkpt><trkpt lat="44.332136377198516" lon="11.99510653127452"><ele>13.333333333333332</ele><time>2026-05-02T07:26:58.977Z</time></trkpt><trkpt lat="44.3319996273768" lon="11.99521063395771"><ele>13.666666666666668</ele><time>2026-05-02T07:26:59.977Z</time></trkpt><trkpt lat="44.33186791709651" lon="11.995312585682235"><ele>14.0</ele><time>2026-05-02T07:27:00.977Z</time></trkpt><trkpt lat="44.33172885498912" lon="11.99541155553221"><ele>14.0</ele><time>2026-05-02T07:27:01.977Z</time></trkpt><trkpt lat="44.3315771111855" lon="11.995483397972585"><ele>14.0</ele><time>2026-05-02T07:27:02.977Z</time></trkpt><trkpt lat="44.331435547846624" lon="11.995588884655216"><ele>14.0</ele><time>2026-05-02T07:27:03.977Z</time></trkpt><trkpt lat="44.33128374379978" lon="11.99567927409045"><ele>14.0</ele><time>2026-05-02T07:27:04.977Z</time></trkpt><trkpt lat="44.3311286736039" lon="11.99574576728199"><ele>14.0</ele><time>2026-05-02T07:27:05.977Z</time></trkpt><trkpt lat="44.3309576117022" lon="11.99578187859764"><ele>14.0</ele><time>2026-05-02T07:27:06.977Z</time></trkpt><trkpt lat="44.33078275977689" lon="11.995778535830441"><ele>14.0</ele><time>2026-05-02T07:27:07.977Z</time></trkpt><trkpt lat="44.33060482160329" lon="11.995717526337828"><ele>14.0</ele><time>2026-05-02T07:27:08.977Z</time></trkpt><trkpt lat="44.33041776182207" lon="11.995666399232862"><ele>14.0</ele><time>2026-05-02T07:27:09.977Z</time></trkpt><trkpt lat="44.33023347698993" lon="11.995576407563997"><ele>14.666666666666668</ele><time>2026-05-02T07:27:10.977Z</time></trkpt><trkpt lat="44.33004940788522" lon="11.995484473375345"><ele>15.333333333333332</ele><time>2026-05-02T07:27:11.977Z</time></trkpt><trkpt lat="44.329858015581074" lon="11.995406675607606"><ele>16.0</ele><time>2026-05-02T07:27:12.977Z</time></trkpt><trkpt lat="44.32967379267321" lon="11.99535307965976"><ele>16.0</ele><time>2026-05-02T07:27:13.977Z</time></trkpt><trkpt lat="44.32949483226365" lon="11.99532396899127"><ele>16.0</ele><time>2026-05-02T07:27:14.977Z</time></trkpt><trkpt lat="44.32933966243138" lon="11.99531444871429"><ele>16.0</ele><time>2026-05-02T07:27:15.977Z</time></trkpt><trkpt lat="44.329180763046985" lon="11.995334683548217"><ele>16.0</ele><time>2026-05-02T07:27:16.977Z</time></trkpt><trkpt lat="44.32902091456505" lon="11.99536687008103"><ele>16.0</ele><time>2026-05-02T07:27:17.977Z</time></trkpt><trkpt lat="44.3288529976856" lon="11.995425448083509"><ele>16.0</ele><time>2026-05-02T07:27:18.977Z</time></trkpt><trkpt lat="44.3286846943066" lon="11.99548641331901"><ele>15.333333333333332</ele><time>2026-05-02T07:27:19.977Z</time></trkpt><trkpt lat="44.328503270312765" lon="11.995537471337371"><ele>14.666666666666668</ele><time>2026-05-02T07:27:20.977Z</time></trkpt><trkpt lat="44.32831651982838" lon="11.995577748423809"><ele>14.0</ele><time>2026-05-02T07:27:21.977Z</time></trkpt><trkpt lat="44.32812337316709" lon="11.995609255482695"><ele>14.333333333333334</ele><time>2026-05-02T07:27:22.977Z</time></trkpt><trkpt lat="44.32792648296707" lon="11.995652006183441"><ele>14.666666666666668</ele><time>2026-05-02T07:27:23.977Z</time></trkpt><trkpt lat="44.32772612937264" lon="11.99569409583517"><ele>15.0</ele><time>2026-05-02T07:27:24.977Z</time></trkpt><trkpt lat="44.32752215354341" lon="11.995743851610197"><ele>15.0</ele><time>2026-05-02T07:27:25.977Z</time></trkpt><trkpt lat="44.32731583508171" lon="11.995797691915357"><ele>15.0</ele><time>2026-05-02T07:27:26.977Z</time></trkpt><trkpt lat="44.32710066183219" lon="11.99584362682222"><ele>15.0</ele><time>2026-05-02T07:27:27.977Z</time></trkpt><trkpt lat="44.32688653023304" lon="11.99588675552696"><ele>15.0</ele><time>2026-05-02T07:27:28.977Z</time></trkpt><trkpt lat="44.32668185761587" lon="11.995918013119597"><ele>15.0</ele><time>2026-05-02T07:27:29.977Z</time></trkpt><trkpt lat="44.32649932049299" lon="11.995931720483334"><ele>15.0</ele><time>2026-05-02T07:27:30.977Z</time></trkpt><trkpt lat="44.32632772400658" lon="11.995961139393918"><ele>14.75</ele><time>2026-05-02T07:27:31.977Z</time></trkpt><trkpt lat="44.32616910796165" lon="11.995969162757847"><ele>14.5</ele><time>2026-05-02T07:27:32.977Z</time></trkpt><trkpt lat="44.32602984444234" lon="11.99596291669244"><ele>14.25</ele><time>2026-05-02T07:27:33.977Z</time></trkpt><trkpt lat="44.32589225635182" lon="11.995918682421985"><ele>14.0</ele><time>2026-05-02T07:27:34.977Z</time></trkpt><trkpt lat="44.325767909246146" lon="11.995793701676806"><ele>14.333333333333334</ele><time>2026-05-02T07:27:35.977Z</time></trkpt><trkpt lat="44.325637174624205" lon="11.995651652020884"><ele>14.666666666666668</ele><time>2026-05-02T07:27:36.976Z</time></trkpt><trkpt lat="44.3255074429716" lon="11.995488924336232"><ele>15.0</ele><time>2026-05-02T07:27:37.977Z</time></trkpt><trkpt lat="44.32537828188834" lon="11.995297550096408"><ele>15.0</ele><time>2026-05-02T07:27:38.977Z</time></trkpt><trkpt lat="44.32523517347993" lon="11.995101415454466"><ele>15.0</ele><time>2026-05-02T07:27:39.976Z</time></trkpt><trkpt lat="44.32511002785913" lon="11.994896219509926"><ele>15.0</ele><time>2026-05-02T07:27:40.977Z</time></trkpt><trkpt lat="44.32498790709504" lon="11.994712298498346"><ele>15.333333333333332</ele><time>2026-05-02T07:27:41.977Z</time></trkpt><trkpt lat="44.32486958448328" lon="11.994531696791958"><ele>15.666666666666666</ele><time>2026-05-02T07:27:42.976Z</time></trkpt><trkpt lat="44.32473892834273" lon="11.994347492233775"><ele>16.0</ele><time>2026-05-02T07:27:43.977Z</time></trkpt><trkpt lat="44.32459641883419" lon="11.994175523652624"><ele>15.666666666666666</ele><time>2026-05-02T07:27:44.977Z</time></trkpt><trkpt lat="44.324441545789604" lon="11.994009935764108"><ele>15.333333333333332</ele><time>2026-05-02T07:27:45.977Z</time></trkpt><trkpt lat="44.32427840894612" lon="11.99385703033549"><ele>15.0</ele><time>2026-05-02T07:27:46.977Z</time></trkpt><trkpt lat="44.32411449336223" lon="11.993714716153582"><ele>15.0</ele><time>2026-05-02T07:27:47.977Z</time></trkpt><trkpt lat="44.32395476113359" lon="11.993582614342518"><ele>15.0</ele><time>2026-05-02T07:27:48.977Z</time></trkpt><trkpt lat="44.32378489407032" lon="11.993491158287084"><ele>15.0</ele><time>2026-05-02T07:27:49.977Z</time></trkpt><trkpt lat="44.323603564544655" lon="11.99346129404529"><ele>15.0</ele><time>2026-05-02T07:27:50.977Z</time></trkpt><trkpt lat="44.323412531544705" lon="11.993478298220166"><ele>15.0</ele><time>2026-05-02T07:27:51.977Z</time></trkpt><trkpt lat="44.3232132652313" lon="11.993475645889744"><ele>15.0</ele><time>2026-05-02T07:27:52.977Z</time></trkpt><trkpt lat="44.323023298707945" lon="11.993379534810536"><ele>15.0</ele><time>2026-05-02T07:27:53.977Z</time></trkpt><trkpt lat="44.322849891140386" lon="11.993298953676412"><ele>15.0</ele><time>2026-05-02T07:27:54.977Z</time></trkpt><trkpt lat="44.32271677612625" lon="11.99323709617511"><ele>15.0</ele><time>2026-05-02T07:27:55.977Z</time></trkpt><trkpt lat="44.32259926943983" lon="11.993165505498343"><ele>15.0</ele><time>2026-05-02T07:27:56.977Z</time></trkpt><trkpt lat="44.32250584993098" lon="11.993046119214455"><ele>15.0</ele><time>2026-05-02T07:27:57.977Z</time></trkpt><trkpt lat="44.32241818123947" lon="11.992885653281567"><ele>15.0</ele><time>2026-05-02T07:27:58.977Z</time></trkpt><trkpt lat="44.322365927269665" lon="11.992698526669153"><ele>15.0</ele><time>2026-05-02T07:27:59.977Z</time></trkpt><trkpt lat="44.322318754011" lon="11.992503279457207"><ele>15.333333333333332</ele><time>2026-05-02T07:28:00.977Z</time></trkpt><trkpt lat="44.322324985729665" lon="11.992288685240975"><ele>15.666666666666666</ele><time>2026-05-02T07:28:01.977Z</time></trkpt><trkpt lat="44.322324938365576" lon="11.992062254118231"><ele>16.0</ele><time>2026-05-02T07:28:02.977Z</time></trkpt><trkpt lat="44.322335208331175" lon="11.991842733414783"><ele>16.0</ele><time>2026-05-02T07:28:03.977Z</time></trkpt><trkpt lat="44.32232614108523" lon="11.991627320902571"><ele>16.0</ele><time>2026-05-02T07:28:04.977Z</time></trkpt><trkpt lat="44.322294523926864" lon="11.99142155023827"><ele>16.0</ele><time>2026-05-02T07:28:05.977Z</time></trkpt><trkpt lat="44.32224602691337" lon="11.991213725161904"><ele>15.666666666666666</ele><time>2026-05-02T07:28:06.977Z</time></trkpt><trkpt lat="44.3221791727125" lon="11.991012983153427"><ele>15.333333333333332</ele><time>2026-05-02T07:28:07.977Z</time></trkpt><trkpt lat="44.322093793662255" lon="11.990818763865342"><ele>15.0</ele><time>2026-05-02T07:28:08.977Z</time></trkpt><trkpt lat="44.32199039151988" lon="11.990629637459831"><ele>15.0</ele><time>2026-05-02T07:28:09.977Z</time></trkpt><trkpt lat="44.32188722405029" lon="11.990430633295995"><ele>15.0</ele><time>2026-05-02T07:28:10.977Z</time></trkpt><trkpt lat="44.32178314088776" lon="11.990225484644027"><ele>15.0</ele><time>2026-05-02T07:28:11.977Z</time></trkpt><trkpt lat="44.32168517793724" lon="11.98999492963508"><ele>15.333333333333332</ele><time>2026-05-02T07:28:12.977Z</time></trkpt><trkpt lat="44.32160967851256" lon="11.98977539395451"><ele>15.666666666666666</ele><time>2026-05-02T07:28:13.977Z</time></trkpt><trkpt lat="44.32154129510483" lon="11.989563583371515"><ele>16.0</ele><time>2026-05-02T07:28:14.977Z</time></trkpt><trkpt lat="44.321455944058435" lon="11.989347820856203"><ele>15.666666666666666</ele><time>2026-05-02T07:28:15.977Z</time></trkpt><trkpt lat="44.32134472310007" lon="11.989142251687012"><ele>15.333333333333332</ele><time>2026-05-02T07:28:16.977Z</time></trkpt><trkpt lat="44.32120811159018" lon="11.988950917281645"><ele>15.0</ele><time>2026-05-02T07:28:17.977Z</time></trkpt><trkpt lat="44.32106639414108" lon="11.988765666269382"><ele>15.0</ele><time>2026-05-02T07:28:18.977Z</time></trkpt><trkpt lat="44.32092858369265" lon="11.988583894057939"><ele>15.0</ele><time>2026-05-02T07:28:19.977Z</time></trkpt><trkpt lat="44.32080081226324" lon="11.988408994086553"><ele>15.0</ele><time>2026-05-02T07:28:20.977Z</time></trkpt><trkpt lat="44.320672535732236" lon="11.988232655822072"><ele>15.0</ele><time>2026-05-02T07:28:21.977Z</time></trkpt><trkpt lat="44.32054452203385" lon="11.988051563923332"><ele>15.0</ele><time>2026-05-02T07:28:22.977Z</time></trkpt><trkpt lat="44.32041686250384" lon="11.98786520060646"><ele>15.0</ele><time>2026-05-02T07:28:23.977Z</time></trkpt><trkpt lat="44.32029818892897" lon="11.98767183761638"><ele>15.333333333333332</ele><time>2026-05-02T07:28:24.977Z</time></trkpt><trkpt lat="44.32019119318287" lon="11.987482751587764"><ele>15.666666666666666</ele><time>2026-05-02T07:28:25.977Z</time></trkpt><trkpt lat="44.32008945771416" lon="11.987305450220372"><ele>16.0</ele><time>2026-05-02T07:28:26.977Z</time></trkpt><trkpt lat="44.31996839498312" lon="11.987150661437049"><ele>16.0</ele><time>2026-05-02T07:28:27.977Z</time></trkpt><trkpt lat="44.31981917627237" lon="11.98702478361828"><ele>16.0</ele><time>2026-05-02T07:28:28.977Z</time></trkpt><trkpt lat="44.31964333594524" lon="11.98693178938756"><ele>16.0</ele><time>2026-05-02T07:28:29.977Z</time></trkpt><trkpt lat="44.319453166079015" lon="11.98685586971975"><ele>15.666666666666666</ele><time>2026-05-02T07:28:30.977Z</time></trkpt><trkpt lat="44.319255656098306" lon="11.986779701981257"><ele>15.333333333333332</ele><time>2026-05-02T07:28:31.977Z</time></trkpt><trkpt lat="44.31906608237005" lon="11.986702075792099"><ele>15.0</ele><time>2026-05-02T07:28:32.977Z</time></trkpt><trkpt lat="44.318890281934166" lon="11.986599435912737"><ele>15.0</ele><time>2026-05-02T07:28:33.977Z</time></trkpt><trkpt lat="44.31871447231711" lon="11.98652005376025"><ele>15.0</ele><time>2026-05-02T07:28:34.977Z</time></trkpt><trkpt lat="44.3185479146756" lon="11.986444849040511"><ele>15.0</ele><time>2026-05-02T07:28:35.977Z</time></trkpt><trkpt lat="44.318389528826835" lon="11.986374539174435"><ele>15.0</ele><time>2026-05-02T07:28:36.977Z</time></trkpt><trkpt lat="44.318226725679615" lon="11.986298382167574"><ele>15.0</ele><time>2026-05-02T07:28:37.977Z</time></trkpt><trkpt lat="44.318062584701934" lon="11.986218473748915"><ele>15.0</ele><time>2026-05-02T07:28:38.977Z</time></trkpt><trkpt lat="44.31789483953503" lon="11.986124669670854"><ele>15.0</ele><time>2026-05-02T07:28:39.977Z</time></trkpt><trkpt lat="44.31773275156816" lon="11.985985007770683"><ele>15.0</ele><time>2026-05-02T07:28:40.977Z</time></trkpt><trkpt lat="44.31757519461432" lon="11.985819029363249"><ele>15.0</ele><time>2026-05-02T07:28:41.977Z</time></trkpt><trkpt lat="44.31742005685471" lon="11.985646272279096"><ele>15.0</ele><time>2026-05-02T07:28:42.977Z</time></trkpt><trkpt lat="44.31725342784947" lon="11.985491068560119"><ele>15.0</ele><time>2026-05-02T07:28:43.977Z</time></trkpt><trkpt lat="44.317066084316835" lon="11.985356466298285"><ele>15.0</ele><time>2026-05-02T07:28:44.977Z</time></trkpt><trkpt lat="44.31686512679181" lon="11.98522588016037"><ele>15.0</ele><time>2026-05-02T07:28:45.977Z</time></trkpt><trkpt lat="44.31665808098609" lon="11.98508866782927"><ele>15.0</ele><time>2026-05-02T07:28:46.977Z</time></trkpt><trkpt lat="44.31645052222091" lon="11.984944427914037"><ele>15.0</ele><time>2026-05-02T07:28:47.977Z</time></trkpt><trkpt lat="44.31625385014292" lon="11.984782670811384"><ele>15.0</ele><time>2026-05-02T07:28:48.977Z</time></trkpt><trkpt lat="44.316063797500696" lon="11.984602560997141"><ele>15.0</ele><time>2026-05-02T07:28:49.977Z</time></trkpt><trkpt lat="44.31589297459674" lon="11.984405419982286"><ele>15.0</ele><time>2026-05-02T07:28:50.977Z</time></trkpt><trkpt lat="44.315734777096665" lon="11.98419328706563"><ele>15.0</ele><time>2026-05-02T07:28:51.977Z</time></trkpt><trkpt lat="44.31559612269545" lon="11.983969197078018"><ele>15.0</ele><time>2026-05-02T07:28:52.977Z</time></trkpt><trkpt lat="44.315472989683194" lon="11.983735687937845"><ele>15.0</ele><time>2026-05-02T07:28:53.977Z</time></trkpt><trkpt lat="44.31535988278027" lon="11.983499361624805"><ele>15.0</ele><time>2026-05-02T07:28:54.977Z</time></trkpt><trkpt lat="44.31526707285701" lon="11.98325675287189"><ele>15.333333333333332</ele><time>2026-05-02T07:28:55.977Z</time></trkpt><trkpt lat="44.31518680441504" lon="11.98300110570238"><ele>15.666666666666666</ele><time>2026-05-02T07:28:56.977Z</time></trkpt><trkpt lat="44.31511452440052" lon="11.982734505054239"><ele>16.0</ele><time>2026-05-02T07:28:57.977Z</time></trkpt><trkpt lat="44.31502831842629" lon="11.982478507453886"><ele>16.0</ele><time>2026-05-02T07:28:58.977Z</time></trkpt><trkpt lat="44.31495166995383" lon="11.98224117131629"><ele>16.0</ele><time>2026-05-02T07:28:59.977Z</time></trkpt><trkpt lat="44.31483684793034" lon="11.98201769442057"><ele>16.0</ele><time>2026-05-02T07:29:00.977Z</time></trkpt><trkpt lat="44.3147170545918" lon="11.981796559613985"><ele>16.333333333333332</ele><time>2026-05-02T07:29:01.977Z</time></trkpt><trkpt lat="44.31459425378486" lon="11.981580229001061"><ele>16.666666666666668</ele><time>2026-05-02T07:29:02.977Z</time></trkpt><trkpt lat="44.31446723294993" lon="11.981365014795198"><ele>17.0</ele><time>2026-05-02T07:29:03.977Z</time></trkpt><trkpt lat="44.31433050646921" lon="11.981156200778956"><ele>17.0</ele><time>2026-05-02T07:29:04.977Z</time></trkpt><trkpt lat="44.31419812652487" lon="11.980950967494442"><ele>17.0</ele><time>2026-05-02T07:29:05.977Z</time></trkpt><trkpt lat="44.314063569846525" lon="11.98074184360982"><ele>17.0</ele><time>2026-05-02T07:29:06.977Z</time></trkpt><trkpt lat="44.313928595415156" lon="11.980539185612173"><ele>16.666666666666668</ele><time>2026-05-02T07:29:07.977Z</time></trkpt><trkpt lat="44.31379829623931" lon="11.98035544870083"><ele>16.333333333333332</ele><time>2026-05-02T07:29:08.977Z</time></trkpt><trkpt lat="44.31367039678021" lon="11.980192018198686"><ele>16.0</ele><time>2026-05-02T07:29:09.977Z</time></trkpt><trkpt lat="44.313541862500784" lon="11.980054928858502"><ele>16.666666666666664</ele><time>2026-05-02T07:29:10.977Z</time></trkpt><trkpt lat="44.31339734560971" lon="11.979945524624393"><ele>17.333333333333332</ele><time>2026-05-02T07:29:11.977Z</time></trkpt><trkpt lat="44.31323127428342" lon="11.979888951881646"><ele>18.0</ele><time>2026-05-02T07:29:12.977Z</time></trkpt><trkpt lat="44.313036099006084" lon="11.979876826648816"><ele>18.0</ele><time>2026-05-02T07:29:13.977Z</time></trkpt><trkpt lat="44.312847797493426" lon="11.979859382308515"><ele>18.0</ele><time>2026-05-02T07:29:14.977Z</time></trkpt><trkpt lat="44.31265631501448" lon="11.979835130702954"><ele>18.0</ele><time>2026-05-02T07:29:15.977Z</time></trkpt><trkpt lat="44.31246309381305" lon="11.979805451145387"><ele>18.0</ele><time>2026-05-02T07:29:16.977Z</time></trkpt><trkpt lat="44.31226422291303" lon="11.97977140288795"><ele>18.0</ele><time>2026-05-02T07:29:17.977Z</time></trkpt><trkpt lat="44.31205615355829" lon="11.979737802440743"><ele>18.0</ele><time>2026-05-02T07:29:18.977Z</time></trkpt><trkpt lat="44.31184300721348" lon="11.979703530081428"><ele>18.0</ele><time>2026-05-02T07:29:19.977Z</time></trkpt><trkpt lat="44.311627913604724" lon="11.979670206927509"><ele>18.0</ele><time>2026-05-02T07:29:20.977Z</time></trkpt><trkpt lat="44.31142381803596" lon="11.979637416138933"><ele>18.0</ele><time>2026-05-02T07:29:21.977Z</time></trkpt><trkpt lat="44.31123025369521" lon="11.979593214441191"><ele>17.666666666666668</ele><time>2026-05-02T07:29:22.977Z</time></trkpt><trkpt lat="44.31104509152617" lon="11.979528854222954"><ele>17.333333333333336</ele><time>2026-05-02T07:29:23.977Z</time></trkpt><trkpt lat="44.31086301841865" lon="11.979435502844145"><ele>17.0</ele><time>2026-05-02T07:29:24.977Z</time></trkpt><trkpt lat="44.31068408955278" lon="11.979323428781623"><ele>17.0</ele><time>2026-05-02T07:29:25.977Z</time></trkpt><trkpt lat="44.31051304138631" lon="11.979193656679692"><ele>17.0</ele><time>2026-05-02T07:29:26.977Z</time></trkpt><trkpt lat="44.31035811038298" lon="11.979007727939011"><ele>17.0</ele><time>2026-05-02T07:29:27.977Z</time></trkpt><trkpt lat="44.31021921776193" lon="11.97880166178685"><ele>17.0</ele><time>2026-05-02T07:29:28.977Z</time></trkpt><trkpt lat="44.31008542635244" lon="11.978585931738474"><ele>17.0</ele><time>2026-05-02T07:29:29.977Z</time></trkpt><trkpt lat="44.30995396552869" lon="11.978375241659661"><ele>17.0</ele><time>2026-05-02T07:29:30.977Z</time></trkpt><trkpt lat="44.309822565054915" lon="11.978164875400205"><ele>17.0</ele><time>2026-05-02T07:29:31.977Z</time></trkpt><trkpt lat="44.30968512908886" lon="11.977950168233246"><ele>17.0</ele><time>2026-05-02T07:29:32.977Z</time></trkpt><trkpt lat="44.30954091850743" lon="11.977728994947121"><ele>17.0</ele><time>2026-05-02T07:29:33.977Z</time></trkpt><trkpt lat="44.30939287325109" lon="11.977501923505091"><ele>17.5</ele><time>2026-05-02T07:29:34.977Z</time></trkpt><trkpt lat="44.309241085361705" lon="11.977269605228667"><ele>18.0</ele><time>2026-05-02T07:29:35.977Z</time></trkpt><trkpt lat="44.309087591063175" lon="11.977033713100305"><ele>18.0</ele><time>2026-05-02T07:29:36.977Z</time></trkpt><trkpt lat="44.308930584746435" lon="11.976792199724926"><ele>18.0</ele><time>2026-05-02T07:29:37.977Z</time></trkpt><trkpt lat="44.30877059853997" lon="11.976548563092733"><ele>18.0</ele><time>2026-05-02T07:29:38.977Z</time></trkpt><trkpt lat="44.30861012473388" lon="11.976305268967595"><ele>18.0</ele><time>2026-05-02T07:29:39.976Z</time></trkpt><trkpt lat="44.30844971648381" lon="11.976053510927017"><ele>18.0</ele><time>2026-05-02T07:29:40.976Z</time></trkpt><trkpt lat="44.30828044877204" lon="11.97579823880959"><ele>18.0</ele><time>2026-05-02T07:29:41.976Z</time></trkpt><trkpt lat="44.30810542613278" lon="11.975542127284445"><ele>18.0</ele><time>2026-05-02T07:29:42.976Z</time></trkpt><trkpt lat="44.30793708570801" lon="11.975280791668826"><ele>18.0</ele><time>2026-05-02T07:29:43.976Z</time></trkpt><trkpt lat="44.30776854828293" lon="11.97500000592796"><ele>18.0</ele><time>2026-05-02T07:29:44.976Z</time></trkpt><trkpt lat="44.30759865441894" lon="11.974741714104182"><ele>18.0</ele><time>2026-05-02T07:29:45.977Z</time></trkpt><trkpt lat="44.30742643889449" lon="11.974479519415645"><ele>18.0</ele><time>2026-05-02T07:29:46.976Z</time></trkpt><trkpt lat="44.30724966784422" lon="11.97421098388982"><ele>18.0</ele><time>2026-05-02T07:29:47.976Z</time></trkpt><trkpt lat="44.30707376828238" lon="11.973940854960098"><ele>18.0</ele><time>2026-05-02T07:29:48.976Z</time></trkpt><trkpt lat="44.30689808477299" lon="11.97367569853283"><ele>18.0</ele><time>2026-05-02T07:29:49.976Z</time></trkpt><trkpt lat="44.30672509861278" lon="11.973412953796295"><ele>17.5</ele><time>2026-05-02T07:29:50.976Z</time></trkpt><trkpt lat="44.306554765785506" lon="11.973153635113347"><ele>17.0</ele><time>2026-05-02T07:29:51.977Z</time></trkpt><trkpt lat="44.306390362790374" lon="11.972895838243048"><ele>18.0</ele><time>2026-05-02T07:29:52.976Z</time></trkpt><trkpt lat="44.306228991626604" lon="11.972643245788959"><ele>19.0</ele><time>2026-05-02T07:29:53.976Z</time></trkpt><trkpt lat="44.30607082367956" lon="11.97239879547783"><ele>19.5</ele><time>2026-05-02T07:29:54.976Z</time></trkpt><trkpt lat="44.305916079112706" lon="11.972160370639374"><ele>20.0</ele><time>2026-05-02T07:29:55.976Z</time></trkpt><trkpt lat="44.30576019252116" lon="11.971929718760386"><ele>20.0</ele><time>2026-05-02T07:29:56.976Z</time></trkpt><trkpt lat="44.30560601375382" lon="11.971697424490364"><ele>20.0</ele><time>2026-05-02T07:29:57.976Z</time></trkpt><trkpt lat="44.305455655804536" lon="11.971462664550842"><ele>19.333333333333336</ele><time>2026-05-02T07:29:58.976Z</time></trkpt><trkpt lat="44.30530836530267" lon="11.971240361444655"><ele>18.666666666666668</ele><time>2026-05-02T07:29:59.976Z</time></trkpt><trkpt lat="44.30516548606572" lon="11.971018045220966"><ele>18.0</ele><time>2026-05-02T07:30:00.976Z</time></trkpt><trkpt lat="44.30502675291858" lon="11.970801923180707"><ele>18.0</ele><time>2026-05-02T07:30:01.976Z</time></trkpt><trkpt lat="44.30489375535736" lon="11.970584756089547"><ele>18.0</ele><time>2026-05-02T07:30:02.976Z</time></trkpt><trkpt lat="44.30475941239461" lon="11.970361167129484"><ele>18.0</ele><time>2026-05-02T07:30:03.976Z</time></trkpt><trkpt lat="44.30463868163699" lon="11.970137407787039"><ele>18.666666666666668</ele><time>2026-05-02T07:30:04.976Z</time></trkpt><trkpt lat="44.304526287519636" lon="11.969927329396116"><ele>19.333333333333336</ele><time>2026-05-02T07:30:05.976Z</time></trkpt><trkpt lat="44.30442001776471" lon="11.96972812969027"><ele>20.0</ele><time>2026-05-02T07:30:06.976Z</time></trkpt><trkpt lat="44.30430773116494" lon="11.969517684083767"><ele>20.0</ele><time>2026-05-02T07:30:07.976Z</time></trkpt><trkpt lat="44.304197466321995" lon="11.969305652000648"><ele>20.0</ele><time>2026-05-02T07:30:08.976Z</time></trkpt><trkpt lat="44.3040838296186" lon="11.96909623096792"><ele>20.0</ele><time>2026-05-02T07:30:09.976Z</time></trkpt><trkpt lat="44.30397328836136" lon="11.968890396834073"><ele>20.0</ele><time>2026-05-02T07:30:10.976Z</time></trkpt><trkpt lat="44.30386648958391" lon="11.968683342657858"><ele>20.0</ele><time>2026-05-02T07:30:11.976Z</time></trkpt><trkpt lat="44.303760034733635" lon="11.968472129165857"><ele>20.0</ele><time>2026-05-02T07:30:12.976Z</time></trkpt><trkpt lat="44.30364744414122" lon="11.96825199244531"><ele>20.333333333333336</ele><time>2026-05-02T07:30:13.976Z</time></trkpt><trkpt lat="44.303533953061645" lon="11.968030346079845"><ele>20.666666666666668</ele><time>2026-05-02T07:30:14.976Z</time></trkpt><trkpt lat="44.30341419410846" lon="11.9678064209578"><ele>21.0</ele><time>2026-05-02T07:30:15.976Z</time></trkpt><trkpt lat="44.30329059751244" lon="11.967571712092704"><ele>20.666666666666668</ele><time>2026-05-02T07:30:16.976Z</time></trkpt><trkpt lat="44.30316517664379" lon="11.967334690279088"><ele>20.333333333333336</ele><time>2026-05-02T07:30:17.976Z</time></trkpt><trkpt lat="44.30304117126443" lon="11.967091272822177"><ele>20.0</ele><time>2026-05-02T07:30:18.976Z</time></trkpt><trkpt lat="44.30292525694574" lon="11.966836307264177"><ele>19.333333333333336</ele><time>2026-05-02T07:30:19.976Z</time></trkpt><trkpt lat="44.30279437247142" lon="11.96658566842475"><ele>18.666666666666668</ele><time>2026-05-02T07:30:20.976Z</time></trkpt><trkpt lat="44.30265824091959" lon="11.966334488222161"><ele>18.0</ele><time>2026-05-02T07:30:21.976Z</time></trkpt><trkpt lat="44.30250300149901" lon="11.966103958622421"><ele>18.0</ele><time>2026-05-02T07:30:22.976Z</time></trkpt><trkpt lat="44.30234406674225" lon="11.96586923844449"><ele>18.0</ele><time>2026-05-02T07:30:23.976Z</time></trkpt><trkpt lat="44.302163433917734" lon="11.965650869882365"><ele>18.0</ele><time>2026-05-02T07:30:24.976Z</time></trkpt><trkpt lat="44.30197275478986" lon="11.965444073401082"><ele>18.0</ele><time>2026-05-02T07:30:25.976Z</time></trkpt><trkpt lat="44.30176551156562" lon="11.965257310645308"><ele>18.0</ele><time>2026-05-02T07:30:26.976Z</time></trkpt><trkpt lat="44.30155384899015" lon="11.965086049339398"><ele>18.0</ele><time>2026-05-02T07:30:27.976Z</time></trkpt><trkpt lat="44.301335892010236" lon="11.964930681754531"><ele>18.5</ele><time>2026-05-02T07:30:28.976Z</time></trkpt><trkpt lat="44.301122937732906" lon="11.964775339199543"><ele>19.0</ele><time>2026-05-02T07:30:29.976Z</time></trkpt><trkpt lat="44.30091063824597" lon="11.964620694002184"><ele>19.0</ele><time>2026-05-02T07:30:30.976Z</time></trkpt><trkpt lat="44.30070442233338" lon="11.964470085658723"><ele>19.0</ele><time>2026-05-02T07:30:31.976Z</time></trkpt><trkpt lat="44.3005012278238" lon="11.96431959040062"><ele>19.0</ele><time>2026-05-02T07:30:32.976Z</time></trkpt><trkpt lat="44.30030351602936" lon="11.964171753325527"><ele>19.0</ele><time>2026-05-02T07:30:33.976Z</time></trkpt><trkpt lat="44.30011360598516" lon="11.964027853653812"><ele>19.0</ele><time>2026-05-02T07:30:34.976Z</time></trkpt><trkpt lat="44.299927463142055" lon="11.963888450521962"><ele>18.333333333333332</ele><time>2026-05-02T07:30:35.976Z</time></trkpt><trkpt lat="44.299744320605335" lon="11.963752526329381"><ele>17.666666666666668</ele><time>2026-05-02T07:30:36.976Z</time></trkpt><trkpt lat="44.299561177350334" lon="11.963618715346804"><ele>17.0</ele><time>2026-05-02T07:30:37.976Z</time></trkpt><trkpt lat="44.29938876649751" lon="11.96349400561847"><ele>17.0</ele><time>2026-05-02T07:30:38.976Z</time></trkpt><trkpt lat="44.29922480219719" lon="11.963375304517067"><ele>17.0</ele><time>2026-05-02T07:30:39.976Z</time></trkpt><trkpt lat="44.299062122321196" lon="11.963249448484486"><ele>17.0</ele><time>2026-05-02T07:30:40.976Z</time></trkpt><trkpt lat="44.29889366318107" lon="11.963125529799797"><ele>17.333333333333336</ele><time>2026-05-02T07:30:41.976Z</time></trkpt><trkpt lat="44.29871900827794" lon="11.96299665721524"><ele>17.666666666666668</ele><time>2026-05-02T07:30:42.976Z</time></trkpt><trkpt lat="44.29853793116082" lon="11.962862535874207"><ele>18.0</ele><time>2026-05-02T07:30:43.976Z</time></trkpt><trkpt lat="44.29835561990069" lon="11.962723834577272"><ele>18.0</ele><time>2026-05-02T07:30:44.976Z</time></trkpt><trkpt lat="44.29816988045706" lon="11.962575195072468"><ele>18.0</ele><time>2026-05-02T07:30:45.976Z</time></trkpt><trkpt lat="44.29799441296745" lon="11.962434928081509"><ele>18.0</ele><time>2026-05-02T07:30:46.976Z</time></trkpt><trkpt lat="44.29782678947648" lon="11.962287181321152"><ele>17.333333333333332</ele><time>2026-05-02T07:30:47.976Z</time></trkpt><trkpt lat="44.29766262580927" lon="11.962133215316097"><ele>16.666666666666664</ele><time>2026-05-02T07:30:48.976Z</time></trkpt><trkpt lat="44.297497943769756" lon="11.961964805390625"><ele>16.0</ele><time>2026-05-02T07:30:49.976Z</time></trkpt><trkpt lat="44.29733484479263" lon="11.961792463643583"><ele>16.333333333333332</ele><time>2026-05-02T07:30:50.976Z</time></trkpt><trkpt lat="44.29717445203457" lon="11.961622827717134"><ele>16.666666666666668</ele><time>2026-05-02T07:30:51.976Z</time></trkpt><trkpt lat="44.29701531951943" lon="11.961456103139701"><ele>17.0</ele><time>2026-05-02T07:30:52.976Z</time></trkpt><trkpt lat="44.29685301317626" lon="11.961288317122394"><ele>17.0</ele><time>2026-05-02T07:30:53.976Z</time></trkpt><trkpt lat="44.29669056885332" lon="11.961121360609642"><ele>17.0</ele><time>2026-05-02T07:30:54.976Z</time></trkpt><trkpt lat="44.29653705193815" lon="11.960969266969919"><ele>17.0</ele><time>2026-05-02T07:30:55.976Z</time></trkpt><trkpt lat="44.296400745707956" lon="11.960831037570184"><ele>17.25</ele><time>2026-05-02T07:30:56.976Z</time></trkpt><trkpt lat="44.296280482351996" lon="11.9607116804776"><ele>17.5</ele><time>2026-05-02T07:30:57.976Z</time></trkpt><trkpt lat="44.2961709734523" lon="11.960599581732717"><ele>17.75</ele><time>2026-05-02T07:30:58.976Z</time></trkpt><trkpt lat="44.2960789203293" lon="11.960490773786443"><ele>18.0</ele><time>2026-05-02T07:30:59.976Z</time></trkpt><trkpt lat="44.296000767887826" lon="11.96037317322669"><ele>18.0</ele><time>2026-05-02T07:31:00.976Z</time></trkpt><trkpt lat="44.29594379938349" lon="11.960234289353721"><ele>18.0</ele><time>2026-05-02T07:31:01.976Z</time></trkpt><trkpt lat="44.29591355328374" lon="11.960067733380622"><ele>18.0</ele><time>2026-05-02T07:31:02.976Z</time></trkpt><trkpt lat="44.2959484572874" lon="11.959881143227339"><ele>18.0</ele><time>2026-05-02T07:31:03.976Z</time></trkpt><trkpt lat="44.295952025026786" lon="11.959677111647824"><ele>17.666666666666668</ele><time>2026-05-02T07:31:04.976Z</time></trkpt><trkpt lat="44.29598266575518" lon="11.959470078422223"><ele>17.333333333333336</ele><time>2026-05-02T07:31:05.976Z</time></trkpt><trkpt lat="44.295997510437246" lon="11.959255510238266"><ele>17.0</ele><time>2026-05-02T07:31:06.976Z</time></trkpt><trkpt lat="44.29600171043586" lon="11.95904354943614"><ele>16.666666666666668</ele><time>2026-05-02T07:31:07.976Z</time></trkpt><trkpt lat="44.296005966231114" lon="11.95882941091678"><ele>16.333333333333332</ele><time>2026-05-02T07:31:08.976Z</time></trkpt><trkpt lat="44.296009206327284" lon="11.958607085288744"><ele>16.0</ele><time>2026-05-02T07:31:09.976Z</time></trkpt><trkpt lat="44.29600885468418" lon="11.958370352585368"><ele>17.0</ele><time>2026-05-02T07:31:10.976Z</time></trkpt><trkpt lat="44.29600685604182" lon="11.958130350719301"><ele>18.0</ele><time>2026-05-02T07:31:11.976Z</time></trkpt><trkpt lat="44.296001391675226" lon="11.957885800232049"><ele>19.0</ele><time>2026-05-02T07:31:12.976Z</time></trkpt><trkpt lat="44.29600124387898" lon="11.95763121605628"><ele>18.666666666666664</ele><time>2026-05-02T07:31:13.976Z</time></trkpt><trkpt lat="44.296007852214814" lon="11.957375076683984"><ele>18.333333333333332</ele><time>2026-05-02T07:31:14.976Z</time></trkpt><trkpt lat="44.29601729162859" lon="11.957135437174557"><ele>18.0</ele><time>2026-05-02T07:31:15.976Z</time></trkpt><trkpt lat="44.29601171792366" lon="11.956906261961798"><ele>18.333333333333332</ele><time>2026-05-02T07:31:16.976Z</time></trkpt><trkpt lat="44.29598083270968" lon="11.956677079378524"><ele>18.666666666666664</ele><time>2026-05-02T07:31:17.976Z</time></trkpt><trkpt lat="44.29592746423521" lon="11.956452636511644"><ele>19.0</ele><time>2026-05-02T07:31:18.976Z</time></trkpt><trkpt lat="44.29587488838348" lon="11.956220375708575"><ele>19.0</ele><time>2026-05-02T07:31:19.976Z</time></trkpt><trkpt lat="44.2958738820684" lon="11.955957190478841"><ele>19.0</ele><time>2026-05-02T07:31:20.976Z</time></trkpt><trkpt lat="44.29585129751263" lon="11.955712670860427"><ele>19.0</ele><time>2026-05-02T07:31:21.976Z</time></trkpt><trkpt lat="44.295844679295" lon="11.955486075169143"><ele>18.666666666666664</ele><time>2026-05-02T07:31:22.976Z</time></trkpt><trkpt lat="44.29583426739337" lon="11.955272255805081"><ele>18.333333333333332</ele><time>2026-05-02T07:31:23.976Z</time></trkpt><trkpt lat="44.295806834893746" lon="11.955065622846195"><ele>18.0</ele><time>2026-05-02T07:31:24.976Z</time></trkpt><trkpt lat="44.29575046019202" lon="11.954857324671453"><ele>18.0</ele><time>2026-05-02T07:31:25.976Z</time></trkpt><trkpt lat="44.29566774666357" lon="11.954640260058284"><ele>18.0</ele><time>2026-05-02T07:31:26.976Z</time></trkpt><trkpt lat="44.295576890226144" lon="11.954425820623245"><ele>18.0</ele><time>2026-05-02T07:31:27.976Z</time></trkpt><trkpt lat="44.295484969080334" lon="11.954213355908601"><ele>18.333333333333332</ele><time>2026-05-02T07:31:28.976Z</time></trkpt><trkpt lat="44.29539114238846" lon="11.953998634846968"><ele>18.666666666666664</ele><time>2026-05-02T07:31:29.976Z</time></trkpt><trkpt lat="44.295301675848066" lon="11.95377347867644"><ele>19.0</ele><time>2026-05-02T07:31:30.976Z</time></trkpt><trkpt lat="44.29521186921014" lon="11.95354627683863"><ele>19.333333333333332</ele><time>2026-05-02T07:31:31.976Z</time></trkpt><trkpt lat="44.295120605495995" lon="11.95331499167359"><ele>19.666666666666668</ele><time>2026-05-02T07:31:32.976Z</time></trkpt><trkpt lat="44.29502579206536" lon="11.9530819250849"><ele>20.0</ele><time>2026-05-02T07:31:33.976Z</time></trkpt><trkpt lat="44.294931194838696" lon="11.952873522488453"><ele>20.0</ele><time>2026-05-02T07:31:34.976Z</time></trkpt><trkpt lat="44.29484553972384" lon="11.952689364065611"><ele>20.0</ele><time>2026-05-02T07:31:35.976Z</time></trkpt><trkpt lat="44.294779269893226" lon="11.95250547844143"><ele>20.0</ele><time>2026-05-02T07:31:36.976Z</time></trkpt><trkpt lat="44.29475236567509" lon="11.952299568977798"><ele>20.0</ele><time>2026-05-02T07:31:37.976Z</time></trkpt><trkpt lat="44.29480381281704" lon="11.95208390341714"><ele>20.0</ele><time>2026-05-02T07:31:38.976Z</time></trkpt><trkpt lat="44.29480355508198" lon="11.95186010419559"><ele>20.0</ele><time>2026-05-02T07:31:39.976Z</time></trkpt><trkpt lat="44.29479819843326" lon="11.951635451321952"><ele>20.0</ele><time>2026-05-02T07:31:40.976Z</time></trkpt><trkpt lat="44.29476786364059" lon="11.951428447750954"><ele>20.0</ele><time>2026-05-02T07:31:41.976Z</time></trkpt><trkpt lat="44.2947499855173" lon="11.951239892899943"><ele>20.0</ele><time>2026-05-02T07:31:42.976Z</time></trkpt><trkpt lat="44.294790112367885" lon="11.951040072353685"><ele>20.0</ele><time>2026-05-02T07:31:43.976Z</time></trkpt><trkpt lat="44.29486082987439" lon="11.950847759784393"><ele>20.0</ele><time>2026-05-02T07:31:44.976Z</time></trkpt><trkpt lat="44.29494392538411" lon="11.950631870419578"><ele>20.0</ele><time>2026-05-02T07:31:45.976Z</time></trkpt><trkpt lat="44.2950130012771" lon="11.9504017536568"><ele>20.0</ele><time>2026-05-02T07:31:46.975Z</time></trkpt><trkpt lat="44.29509565173324" lon="11.950188328129471"><ele>20.0</ele><time>2026-05-02T07:31:47.975Z</time></trkpt><trkpt lat="44.29517547748647" lon="11.949972302413824"><ele>20.0</ele><time>2026-05-02T07:31:48.976Z</time></trkpt><trkpt lat="44.29524951737598" lon="11.949754559536844"><ele>20.0</ele><time>2026-05-02T07:31:49.976Z</time></trkpt><trkpt lat="44.295317937208445" lon="11.94952824208893"><ele>20.0</ele><time>2026-05-02T07:31:50.976Z</time></trkpt><trkpt lat="44.295383494182204" lon="11.94930050236016"><ele>20.0</ele><time>2026-05-02T07:31:51.976Z</time></trkpt><trkpt lat="44.29544988902035" lon="11.949058817349792"><ele>20.0</ele><time>2026-05-02T07:31:52.976Z</time></trkpt><trkpt lat="44.29551779667101" lon="11.94881906171874"><ele>20.0</ele><time>2026-05-02T07:31:53.976Z</time></trkpt><trkpt lat="44.29558624457908" lon="11.94857960008855"><ele>20.0</ele><time>2026-05-02T07:31:54.976Z</time></trkpt><trkpt lat="44.29564960075009" lon="11.948349056426286"><ele>20.0</ele><time>2026-05-02T07:31:55.976Z</time></trkpt><trkpt lat="44.29570027672284" lon="11.948117614081655"><ele>20.0</ele><time>2026-05-02T07:31:56.976Z</time></trkpt><trkpt lat="44.29571624555743" lon="11.94785943293888"><ele>20.0</ele><time>2026-05-02T07:31:57.976Z</time></trkpt><trkpt lat="44.29570951816645" lon="11.947593034103786"><ele>20.0</ele><time>2026-05-02T07:31:58.976Z</time></trkpt><trkpt lat="44.29569384744736" lon="11.947323239804822"><ele>20.0</ele><time>2026-05-02T07:31:59.976Z</time></trkpt><trkpt lat="44.29567941570251" lon="11.947058577687544"><ele>20.0</ele><time>2026-05-02T07:32:00.976Z</time></trkpt><trkpt lat="44.295672243753195" lon="11.946799071031377"><ele>20.0</ele><time>2026-05-02T07:32:01.976Z</time></trkpt><trkpt lat="44.29567074246713" lon="11.946551477788265"><ele>20.333333333333336</ele><time>2026-05-02T07:32:02.976Z</time></trkpt><trkpt lat="44.295702522708126" lon="11.946327351658969"><ele>20.666666666666668</ele><time>2026-05-02T07:32:03.976Z</time></trkpt><trkpt lat="44.295703081201744" lon="11.946114476305938"><ele>21.0</ele><time>2026-05-02T07:32:04.976Z</time></trkpt><trkpt lat="44.29569827653711" lon="11.945902584116022"><ele>21.0</ele><time>2026-05-02T07:32:05.976Z</time></trkpt><trkpt lat="44.29566293898257" lon="11.945679326418912"><ele>21.0</ele><time>2026-05-02T07:32:06.976Z</time></trkpt><trkpt lat="44.295597294907594" lon="11.945454042777573"><ele>21.0</ele><time>2026-05-02T07:32:07.976Z</time></trkpt><trkpt lat="44.2955046590059" lon="11.94522447116164"><ele>21.0</ele><time>2026-05-02T07:32:08.976Z</time></trkpt><trkpt lat="44.295397142932494" lon="11.944998688167287"><ele>21.0</ele><time>2026-05-02T07:32:09.976Z</time></trkpt><trkpt lat="44.29528426915283" lon="11.944772928828431"><ele>21.0</ele><time>2026-05-02T07:32:10.976Z</time></trkpt><trkpt lat="44.29517442599601" lon="11.944542508508087"><ele>21.0</ele><time>2026-05-02T07:32:11.976Z</time></trkpt><trkpt lat="44.29506471688598" lon="11.944307618758238"><ele>21.0</ele><time>2026-05-02T07:32:12.976Z</time></trkpt><trkpt lat="44.29495464226948" lon="11.944071049947741"><ele>21.0</ele><time>2026-05-02T07:32:13.976Z</time></trkpt><trkpt lat="44.294848286652766" lon="11.943838516741064"><ele>21.0</ele><time>2026-05-02T07:32:14.976Z</time></trkpt><trkpt lat="44.29473940401651" lon="11.94360791388976"><ele>21.0</ele><time>2026-05-02T07:32:15.976Z</time></trkpt><trkpt lat="44.29462590967205" lon="11.943369036000577"><ele>21.0</ele><time>2026-05-02T07:32:16.976Z</time></trkpt><trkpt lat="44.29450942639174" lon="11.94312018134155"><ele>21.0</ele><time>2026-05-02T07:32:17.976Z</time></trkpt><trkpt lat="44.29439447954334" lon="11.942868239501271"><ele>21.0</ele><time>2026-05-02T07:32:18.976Z</time></trkpt><trkpt lat="44.29427584389771" lon="11.942617696834061"><ele>21.0</ele><time>2026-05-02T07:32:19.976Z</time></trkpt><trkpt lat="44.294164382444" lon="11.94235630726473"><ele>21.0</ele><time>2026-05-02T07:32:20.976Z</time></trkpt><trkpt lat="44.29405207263216" lon="11.942083101673388"><ele>21.0</ele><time>2026-05-02T07:32:21.976Z</time></trkpt><trkpt lat="44.29394427830928" lon="11.941809706958765"><ele>21.0</ele><time>2026-05-02T07:32:22.976Z</time></trkpt><trkpt lat="44.29383138719604" lon="11.941531985571547"><ele>21.0</ele><time>2026-05-02T07:32:23.976Z</time></trkpt><trkpt lat="44.293717778649935" lon="11.941247625273984"><ele>21.0</ele><time>2026-05-02T07:32:24.976Z</time></trkpt><trkpt lat="44.29358859745034" lon="11.940958116371402"><ele>21.0</ele><time>2026-05-02T07:32:25.976Z</time></trkpt><trkpt lat="44.29346242667013" lon="11.940658502051273"><ele>21.0</ele><time>2026-05-02T07:32:26.976Z</time></trkpt><trkpt lat="44.29333691829814" lon="11.940349279690238"><ele>21.5</ele><time>2026-05-02T07:32:27.976Z</time></trkpt><trkpt lat="44.29320747174549" lon="11.940034837795537"><ele>22.0</ele><time>2026-05-02T07:32:28.976Z</time></trkpt><trkpt lat="44.29308251998639" lon="11.939737239863566"><ele>22.5</ele><time>2026-05-02T07:32:29.976Z</time></trkpt><trkpt lat="44.29296595751684" lon="11.939453536060055"><ele>23.0</ele><time>2026-05-02T07:32:30.976Z</time></trkpt><trkpt lat="44.292864433473504" lon="11.939176222885774"><ele>23.0</ele><time>2026-05-02T07:32:31.976Z</time></trkpt><trkpt lat="44.29279949653649" lon="11.938878035686884"><ele>23.0</ele><time>2026-05-02T07:32:32.976Z</time></trkpt><trkpt lat="44.29275191750682" lon="11.938561608486765"><ele>23.0</ele><time>2026-05-02T07:32:33.976Z</time></trkpt><trkpt lat="44.29270606279302" lon="11.938229388239142"><ele>23.0</ele><time>2026-05-02T07:32:34.976Z</time></trkpt><trkpt lat="44.29264600673535" lon="11.93790493299218"><ele>23.0</ele><time>2026-05-02T07:32:35.976Z</time></trkpt><trkpt lat="44.29259604437673" lon="11.93758712324201"><ele>23.0</ele><time>2026-05-02T07:32:36.976Z</time></trkpt><trkpt lat="44.29254213257785" lon="11.937280325213617"><ele>23.333333333333336</ele><time>2026-05-02T07:32:37.976Z</time></trkpt><trkpt lat="44.2924910204138" lon="11.936976948605837"><ele>23.666666666666668</ele><time>2026-05-02T07:32:38.976Z</time></trkpt><trkpt lat="44.292440509767744" lon="11.936677202890001"><ele>24.0</ele><time>2026-05-02T07:32:39.976Z</time></trkpt><trkpt lat="44.29239127444214" lon="11.936388674929786"><ele>24.0</ele><time>2026-05-02T07:32:40.976Z</time></trkpt><trkpt lat="44.2923453849028" lon="11.936106298720182"><ele>24.0</ele><time>2026-05-02T07:32:41.976Z</time></trkpt><trkpt lat="44.292299470406554" lon="11.935823819327817"><ele>24.0</ele><time>2026-05-02T07:32:42.976Z</time></trkpt><trkpt lat="44.29225228340105" lon="11.935540653294298"><ele>24.0</ele><time>2026-05-02T07:32:43.976Z</time></trkpt><trkpt lat="44.2922044474267" lon="11.935252610042625"><ele>24.0</ele><time>2026-05-02T07:32:44.976Z</time></trkpt><trkpt lat="44.292156660799336" lon="11.934968507962394"><ele>24.0</ele><time>2026-05-02T07:32:45.976Z</time></trkpt><trkpt lat="44.29212419377828" lon="11.93468161054599"><ele>24.0</ele><time>2026-05-02T07:32:46.976Z</time></trkpt><trkpt lat="44.29205178989597" lon="11.934391548771826"><ele>24.0</ele><time>2026-05-02T07:32:47.976Z</time></trkpt><trkpt lat="44.291967458675856" lon="11.93410547448802"><ele>24.0</ele><time>2026-05-02T07:32:48.976Z</time></trkpt><trkpt lat="44.29188278501464" lon="11.933818106732067"><ele>24.0</ele><time>2026-05-02T07:32:49.976Z</time></trkpt><trkpt lat="44.291803093991575" lon="11.933547680178654"><ele>24.0</ele><time>2026-05-02T07:32:50.976Z</time></trkpt><trkpt lat="44.29172592972612" lon="11.93329241218075"><ele>24.0</ele><time>2026-05-02T07:32:51.976Z</time></trkpt><trkpt lat="44.291644914742804" lon="11.933046824908558"><ele>24.0</ele><time>2026-05-02T07:32:52.976Z</time></trkpt><trkpt lat="44.29155489856091" lon="11.932830266116772"><ele>24.0</ele><time>2026-05-02T07:32:53.976Z</time></trkpt><trkpt lat="44.29145413413565" lon="11.932636909249952"><ele>24.0</ele><time>2026-05-02T07:32:54.976Z</time></trkpt><trkpt lat="44.29135649326605" lon="11.93245238839815"><ele>23.666666666666668</ele><time>2026-05-02T07:32:55.976Z</time></trkpt><trkpt lat="44.2912865577897" lon="11.93225604616897"><ele>23.333333333333336</ele><time>2026-05-02T07:32:56.976Z</time></trkpt><trkpt lat="44.29124488989823" lon="11.93202262315032"><ele>23.0</ele><time>2026-05-02T07:32:57.976Z</time></trkpt><trkpt lat="44.2911844976324" lon="11.931801601130026"><ele>23.666666666666668</ele><time>2026-05-02T07:32:58.976Z</time></trkpt><trkpt lat="44.29112168546822" lon="11.931594934121666"><ele>24.333333333333336</ele><time>2026-05-02T07:32:59.976Z</time></trkpt><trkpt lat="44.2911958764455" lon="11.931329887162018"><ele>25.0</ele><time>2026-05-02T07:33:00.976Z</time></trkpt><trkpt lat="44.29117276579114" lon="11.931148753505452"><ele>25.0</ele><time>2026-05-02T07:33:01.976Z</time></trkpt><trkpt lat="44.29112610711427" lon="11.930998823081726"><ele>25.0</ele><time>2026-05-02T07:33:02.976Z</time></trkpt><trkpt lat="44.29104417015204" lon="11.930862875404287"><ele>25.0</ele><time>2026-05-02T07:33:03.976Z</time></trkpt><trkpt lat="44.29092896556846" lon="11.930759115603287"><ele>25.0</ele><time>2026-05-02T07:33:04.976Z</time></trkpt><trkpt lat="44.2907770379414" lon="11.930699729653664"><ele>25.333333333333336</ele><time>2026-05-02T07:33:05.976Z</time></trkpt><trkpt lat="44.29062546955607" lon="11.930630506873953"><ele>25.666666666666664</ele><time>2026-05-02T07:33:06.976Z</time></trkpt><trkpt lat="44.29047244571723" lon="11.930548755941127"><ele>26.0</ele><time>2026-05-02T07:33:07.976Z</time></trkpt><trkpt lat="44.29031521812036" lon="11.93045591370035"><ele>26.0</ele><time>2026-05-02T07:33:08.976Z</time></trkpt><trkpt lat="44.29015617904307" lon="11.930355271060806"><ele>26.0</ele><time>2026-05-02T07:33:09.976Z</time></trkpt><trkpt lat="44.28998990718347" lon="11.930251812728049"><ele>26.0</ele><time>2026-05-02T07:33:10.976Z</time></trkpt><trkpt lat="44.28981421897901" lon="11.93014538919943"><ele>26.0</ele><time>2026-05-02T07:33:11.976Z</time></trkpt><trkpt lat="44.28963511369683" lon="11.930032746077613"><ele>26.0</ele><time>2026-05-02T07:33:12.976Z</time></trkpt><trkpt lat="44.28945472027872" lon="11.929922391203146"><ele>26.0</ele><time>2026-05-02T07:33:13.976Z</time></trkpt><trkpt lat="44.28928063206018" lon="11.929813144408117"><ele>26.0</ele><time>2026-05-02T07:33:14.976Z</time></trkpt><trkpt lat="44.28911785039192" lon="11.929710762285431"><ele>26.0</ele><time>2026-05-02T07:33:15.976Z</time></trkpt><trkpt lat="44.28896328392666" lon="11.929606493491104"><ele>26.0</ele><time>2026-05-02T07:33:16.976Z</time></trkpt><trkpt lat="44.28882485174522" lon="11.92949790489106"><ele>26.0</ele><time>2026-05-02T07:33:17.976Z</time></trkpt><trkpt lat="44.28869475638473" lon="11.92937824016834"><ele>26.0</ele><time>2026-05-02T07:33:18.976Z</time></trkpt><trkpt lat="44.28858758417477" lon="11.92923596768988"><ele>26.0</ele><time>2026-05-02T07:33:19.976Z</time></trkpt><trkpt lat="44.288504657238995" lon="11.92905710474521"><ele>25.666666666666664</ele><time>2026-05-02T07:33:20.976Z</time></trkpt><trkpt lat="44.288448571420474" lon="11.928842953452948"><ele>25.333333333333336</ele><time>2026-05-02T07:33:21.976Z</time></trkpt><trkpt lat="44.28842441587812" lon="11.928597508144223"><ele>25.0</ele><time>2026-05-02T07:33:22.976Z</time></trkpt><trkpt lat="44.288411860035964" lon="11.928343619629494"><ele>25.0</ele><time>2026-05-02T07:33:23.976Z</time></trkpt><trkpt lat="44.288402862861794" lon="11.928086877987022"><ele>25.0</ele><time>2026-05-02T07:33:24.976Z</time></trkpt><trkpt lat="44.288387285475395" lon="11.92782362619537"><ele>25.0</ele><time>2026-05-02T07:33:25.976Z</time></trkpt><trkpt lat="44.28837392674756" lon="11.92755391716488"><ele>25.333333333333336</ele><time>2026-05-02T07:33:26.976Z</time></trkpt><trkpt lat="44.28835734864846" lon="11.927272690780303"><ele>25.666666666666664</ele><time>2026-05-02T07:33:27.976Z</time></trkpt><trkpt lat="44.28834584636074" lon="11.926987266428343"><ele>26.0</ele><time>2026-05-02T07:33:28.976Z</time></trkpt><trkpt lat="44.288348020270945" lon="11.926696714422993"><ele>26.333333333333332</ele><time>2026-05-02T07:33:29.976Z</time></trkpt><trkpt lat="44.28836795765057" lon="11.92640459773581"><ele>26.666666666666664</ele><time>2026-05-02T07:33:30.976Z</time></trkpt><trkpt lat="44.28839780363249" lon="11.926116468913998"><ele>27.0</ele><time>2026-05-02T07:33:31.976Z</time></trkpt><trkpt lat="44.28843863815983" lon="11.925838934616435"><ele>27.0</ele><time>2026-05-02T07:33:32.976Z</time></trkpt><trkpt lat="44.288499882303654" lon="11.925563378087055"><ele>27.0</ele><time>2026-05-02T07:33:33.976Z</time></trkpt><trkpt lat="44.28858716200075" lon="11.925291133812857"><ele>27.0</ele><time>2026-05-02T07:33:34.976Z</time></trkpt><trkpt lat="44.28868495287427" lon="11.925027064044597"><ele>27.0</ele><time>2026-05-02T07:33:35.976Z</time></trkpt><trkpt lat="44.28878218397136" lon="11.924774746306369"><ele>27.0</ele><time>2026-05-02T07:33:36.976Z</time></trkpt><trkpt lat="44.288868877583674" lon="11.924532490866898"><ele>27.0</ele><time>2026-05-02T07:33:37.976Z</time></trkpt><trkpt lat="44.28894595422985" lon="11.924307321139331"><ele>26.333333333333336</ele><time>2026-05-02T07:33:38.976Z</time></trkpt><trkpt lat="44.28900455793931" lon="11.924084389980221"><ele>25.666666666666668</ele><time>2026-05-02T07:33:39.976Z</time></trkpt><trkpt lat="44.289038133071195" lon="11.923862524979608"><ele>25.0</ele><time>2026-05-02T07:33:40.976Z</time></trkpt><trkpt lat="44.28905497472799" lon="11.923627868747266"><ele>25.0</ele><time>2026-05-02T07:33:41.976Z</time></trkpt><trkpt lat="44.28900563708235" lon="11.92339783268599"><ele>25.0</ele><time>2026-05-02T07:33:42.976Z</time></trkpt><trkpt lat="44.28893405926643" lon="11.923179942181028"><ele>25.0</ele><time>2026-05-02T07:33:43.976Z</time></trkpt><trkpt lat="44.288835421470395" lon="11.922979583920675"><ele>25.666666666666668</ele><time>2026-05-02T07:33:44.976Z</time></trkpt><trkpt lat="44.288730621947565" lon="11.922777594338061"><ele>26.333333333333336</ele><time>2026-05-02T07:33:45.976Z</time></trkpt><trkpt lat="44.28863115892382" lon="11.922565000025875"><ele>27.0</ele><time>2026-05-02T07:33:46.976Z</time></trkpt><trkpt lat="44.288527813709834" lon="11.92234568967074"><ele>27.333333333333336</ele><time>2026-05-02T07:33:47.976Z</time></trkpt><trkpt lat="44.28842763627431" lon="11.9221252636336"><ele>27.666666666666668</ele><time>2026-05-02T07:33:48.976Z</time></trkpt><trkpt lat="44.28832172002251" lon="11.921900244705816"><ele>28.0</ele><time>2026-05-02T07:33:49.976Z</time></trkpt><trkpt lat="44.288215127679514" lon="11.921677185737659"><ele>28.0</ele><time>2026-05-02T07:33:50.976Z</time></trkpt><trkpt lat="44.2880966056905" lon="11.921451794590379"><ele>28.0</ele><time>2026-05-02T07:33:51.975Z</time></trkpt><trkpt lat="44.28796965700782" lon="11.921245918873549"><ele>28.0</ele><time>2026-05-02T07:33:52.976Z</time></trkpt><trkpt lat="44.287832910912414" lon="11.921049175860542"><ele>28.0</ele><time>2026-05-02T07:33:53.976Z</time></trkpt><trkpt lat="44.28768690969173" lon="11.920855089781805"><ele>28.0</ele><time>2026-05-02T07:33:54.976Z</time></trkpt><trkpt lat="44.287539177403545" lon="11.920666030611226"><ele>28.0</ele><time>2026-05-02T07:33:55.975Z</time></trkpt><trkpt lat="44.287387027282435" lon="11.920477889670893"><ele>27.666666666666668</ele><time>2026-05-02T07:33:56.975Z</time></trkpt><trkpt lat="44.287232487347985" lon="11.92028871726872"><ele>27.333333333333336</ele><time>2026-05-02T07:33:57.975Z</time></trkpt><trkpt lat="44.28707534007328" lon="11.920094540552522"><ele>27.0</ele><time>2026-05-02T07:33:58.975Z</time></trkpt><trkpt lat="44.286915962125704" lon="11.919899423545038"><ele>27.0</ele><time>2026-05-02T07:33:59.975Z</time></trkpt><trkpt lat="44.286754787302534" lon="11.919703010279525"><ele>27.0</ele><time>2026-05-02T07:34:00.975Z</time></trkpt><trkpt lat="44.28659872635437" lon="11.919514350608354"><ele>27.0</ele><time>2026-05-02T07:34:01.975Z</time></trkpt><trkpt lat="44.2864575525186" lon="11.919336390676069"><ele>27.333333333333336</ele><time>2026-05-02T07:34:02.975Z</time></trkpt><trkpt lat="44.2863219359474" lon="11.9191776067847"><ele>27.666666666666668</ele><time>2026-05-02T07:34:03.975Z</time></trkpt><trkpt lat="44.286198894094085" lon="11.919025246247523"><ele>28.0</ele><time>2026-05-02T07:34:04.976Z</time></trkpt><trkpt lat="44.28607665389622" lon="11.918876790235247"><ele>28.0</ele><time>2026-05-02T07:34:05.976Z</time></trkpt><trkpt lat="44.28595687542498" lon="11.918733804829884"><ele>28.0</ele><time>2026-05-02T07:34:06.976Z</time></trkpt><trkpt lat="44.28582833483186" lon="11.918593777301984"><ele>28.0</ele><time>2026-05-02T07:34:07.976Z</time></trkpt><trkpt lat="44.28568907413568" lon="11.918448800643564"><ele>28.0</ele><time>2026-05-02T07:34:08.976Z</time></trkpt><trkpt lat="44.2855345496655" lon="11.918315524421953"><ele>28.0</ele><time>2026-05-02T07:34:09.976Z</time></trkpt><trkpt lat="44.28537066688263" lon="11.918184836208226"><ele>28.0</ele><time>2026-05-02T07:34:10.976Z</time></trkpt><trkpt lat="44.28519983827375" lon="11.918054265448003"><ele>28.0</ele><time>2026-05-02T07:34:11.976Z</time></trkpt><trkpt lat="44.28502342994129" lon="11.917912919621058"><ele>28.0</ele><time>2026-05-02T07:34:12.976Z</time></trkpt><trkpt lat="44.28484551935505" lon="11.917766093104534"><ele>28.0</ele><time>2026-05-02T07:34:13.976Z</time></trkpt><trkpt lat="44.28465882220694" lon="11.91761135443982"><ele>28.0</ele><time>2026-05-02T07:34:14.976Z</time></trkpt><trkpt lat="44.28446323316368" lon="11.917449288063231"><ele>28.0</ele><time>2026-05-02T07:34:15.976Z</time></trkpt><trkpt lat="44.28425499973403" lon="11.917280347135378"><ele>28.0</ele><time>2026-05-02T07:34:16.976Z</time></trkpt><trkpt lat="44.28403996051644" lon="11.917109832837898"><ele>28.0</ele><time>2026-05-02T07:34:17.976Z</time></trkpt><trkpt lat="44.283817551185706" lon="11.916944784773468"><ele>28.0</ele><time>2026-05-02T07:34:18.976Z</time></trkpt><trkpt lat="44.283586217838895" lon="11.916776081157252"><ele>28.0</ele><time>2026-05-02T07:34:19.976Z</time></trkpt><trkpt lat="44.28334720643364" lon="11.916607666581463"><ele>28.0</ele><time>2026-05-02T07:34:20.976Z</time></trkpt><trkpt lat="44.28310235175709" lon="11.916440665762735"><ele>28.0</ele><time>2026-05-02T07:34:21.976Z</time></trkpt><trkpt lat="44.28285257156644" lon="11.916272433321357"><ele>29.0</ele><time>2026-05-02T07:34:22.976Z</time></trkpt><trkpt lat="44.28259788462175" lon="11.91610082987095"><ele>30.0</ele><time>2026-05-02T07:34:23.976Z</time></trkpt><trkpt lat="44.282330061056705" lon="11.915924336681789"><ele>31.0</ele><time>2026-05-02T07:34:24.976Z</time></trkpt><trkpt lat="44.282058994135284" lon="11.915746182921716"><ele>32.0</ele><time>2026-05-02T07:34:25.976Z</time></trkpt><trkpt lat="44.281815232471736" lon="11.915579097438158"><ele>32.0</ele><time>2026-05-02T07:34:26.976Z</time></trkpt><trkpt lat="44.28159628669324" lon="11.915428002326138"><ele>32.0</ele><time>2026-05-02T07:34:27.976Z</time></trkpt><trkpt lat="44.28138775394613" lon="11.915265062751784"><ele>31.333333333333332</ele><time>2026-05-02T07:34:28.976Z</time></trkpt><trkpt lat="44.28119050048503" lon="11.915111538988416"><ele>30.666666666666664</ele><time>2026-05-02T07:34:29.976Z</time></trkpt><trkpt lat="44.28100309235975" lon="11.91496791291327"><ele>30.0</ele><time>2026-05-02T07:34:30.976Z</time></trkpt><trkpt lat="44.280819598114014" lon="11.914826989435557"><ele>30.0</ele><time>2026-05-02T07:34:31.976Z</time></trkpt><trkpt lat="44.28063540280591" lon="11.914693908731362"><ele>30.0</ele><time>2026-05-02T07:34:32.976Z</time></trkpt><trkpt lat="44.28045320809592" lon="11.914557200470103"><ele>30.0</ele><time>2026-05-02T07:34:33.976Z</time></trkpt><trkpt lat="44.28027027097859" lon="11.914420962915422"><ele>30.0</ele><time>2026-05-02T07:34:34.976Z</time></trkpt><trkpt lat="44.280090890380436" lon="11.914283517160314"><ele>30.0</ele><time>2026-05-02T07:34:35.976Z</time></trkpt><trkpt lat="44.27990776289221" lon="11.914140792288878"><ele>30.0</ele><time>2026-05-02T07:34:36.976Z</time></trkpt><trkpt lat="44.279723237050135" lon="11.913990841099302"><ele>30.333333333333336</ele><time>2026-05-02T07:34:37.976Z</time></trkpt><trkpt lat="44.27954143013725" lon="11.913835638972973"><ele>30.666666666666668</ele><time>2026-05-02T07:34:38.976Z</time></trkpt><trkpt lat="44.27936240337692" lon="11.913672851693304"><ele>31.0</ele><time>2026-05-02T07:34:39.976Z</time></trkpt><trkpt lat="44.27918500357772" lon="11.91350746608564"><ele>31.666666666666668</ele><time>2026-05-02T07:34:40.976Z</time></trkpt><trkpt lat="44.27901320676631" lon="11.913351656695"><ele>32.333333333333336</ele><time>2026-05-02T07:34:41.976Z</time></trkpt><trkpt lat="44.278847232360626" lon="11.913191135929909"><ele>33.0</ele><time>2026-05-02T07:34:42.976Z</time></trkpt><trkpt lat="44.27868251983581" lon="11.913044416239027"><ele>33.0</ele><time>2026-05-02T07:34:43.976Z</time></trkpt><trkpt lat="44.278517271759426" lon="11.91289295603462"><ele>33.0</ele><time>2026-05-02T07:34:44.976Z</time></trkpt><trkpt lat="44.278348138987674" lon="11.912753279455714"><ele>33.0</ele><time>2026-05-02T07:34:45.976Z</time></trkpt><trkpt lat="44.27818328355315" lon="11.91261894448185"><ele>33.333333333333336</ele><time>2026-05-02T07:34:46.976Z</time></trkpt><trkpt lat="44.27803364372496" lon="11.912464777951492"><ele>33.66666666666667</ele><time>2026-05-02T07:34:47.976Z</time></trkpt><trkpt lat="44.27786504500724" lon="11.912334702017565"><ele>34.0</ele><time>2026-05-02T07:34:48.976Z</time></trkpt><trkpt lat="44.27770244908073" lon="11.912205655879612"><ele>34.0</ele><time>2026-05-02T07:34:49.976Z</time></trkpt><trkpt lat="44.277539836635206" lon="11.912081020138165"><ele>34.0</ele><time>2026-05-02T07:34:50.976Z</time></trkpt><trkpt lat="44.27739120686695" lon="11.911967242018891"><ele>34.0</ele><time>2026-05-02T07:34:51.976Z</time></trkpt><trkpt lat="44.27725191002874" lon="11.91185670906531"><ele>34.0</ele><time>2026-05-02T07:34:52.976Z</time></trkpt><trkpt lat="44.27711309097283" lon="11.911747041367734"><ele>34.0</ele><time>2026-05-02T07:34:53.976Z</time></trkpt><trkpt lat="44.27697836762156" lon="11.911644320427655"><ele>34.0</ele><time>2026-05-02T07:34:54.976Z</time></trkpt><trkpt lat="44.27685022386876" lon="11.91154076835899"><ele>34.0</ele><time>2026-05-02T07:34:55.976Z</time></trkpt><trkpt lat="44.276733814312024" lon="11.911445380406064"><ele>34.0</ele><time>2026-05-02T07:34:56.976Z</time></trkpt><trkpt lat="44.27662278794485" lon="11.911364002514294"><ele>34.0</ele><time>2026-05-02T07:34:57.976Z</time></trkpt><trkpt lat="44.27651805678633" lon="11.911280019635301"><ele>34.0</ele><time>2026-05-02T07:34:58.976Z</time></trkpt><trkpt lat="44.2764248931641" lon="11.911211252501309"><ele>34.2</ele><time>2026-05-02T07:34:59.976Z</time></trkpt><trkpt lat="44.27633909230244" lon="11.911146647447739"><ele>34.4</ele><time>2026-05-02T07:35:00.976Z</time></trkpt><trkpt lat="44.2762564676213" lon="11.911079311962773"><ele>34.6</ele><time>2026-05-02T07:35:01.976Z</time></trkpt><trkpt lat="44.276172063070106" lon="11.911021500044187"><ele>34.8</ele><time>2026-05-02T07:35:02.976Z</time></trkpt><trkpt lat="44.276085352720465" lon="11.910960894176156"><ele>35.0</ele><time>2026-05-02T07:35:03.976Z</time></trkpt><trkpt lat="44.275993190304376" lon="11.910884421226353"><ele>35.0</ele><time>2026-05-02T07:35:04.976Z</time></trkpt><trkpt lat="44.27589533760003" lon="11.91080777598081"><ele>35.0</ele><time>2026-05-02T07:35:05.976Z</time></trkpt><trkpt lat="44.275794980478885" lon="11.910728161371747"><ele>35.0</ele><time>2026-05-02T07:35:06.976Z</time></trkpt><trkpt lat="44.275697726958214" lon="11.910648766199705"><ele>35.0</ele><time>2026-05-02T07:35:07.976Z</time></trkpt><trkpt lat="44.275610812590195" lon="11.910580539158566"><ele>35.0</ele><time>2026-05-02T07:35:08.976Z</time></trkpt><trkpt lat="44.275531864405366" lon="11.910519241504671"><ele>35.0</ele><time>2026-05-02T07:35:09.976Z</time></trkpt><trkpt lat="44.27546746076867" lon="11.910459765829213"><ele>35.0</ele><time>2026-05-02T07:35:10.976Z</time></trkpt><trkpt lat="44.27540864625024" lon="11.91040513990712"><ele>35.0</ele><time>2026-05-02T07:35:11.976Z</time></trkpt><trkpt lat="44.27534620469074" lon="11.910352085789787"><ele>35.0</ele><time>2026-05-02T07:35:12.976Z</time></trkpt><trkpt lat="44.275281739078295" lon="11.910290529602749"><ele>35.0</ele><time>2026-05-02T07:35:13.976Z</time></trkpt><trkpt lat="44.275221521290284" lon="11.910227753472551"><ele>35.0</ele><time>2026-05-02T07:35:14.976Z</time></trkpt><trkpt lat="44.2751460151938" lon="11.910116619800963"><ele>35.0</ele><time>2026-05-02T07:35:16.976Z</time></trkpt><trkpt lat="44.275120623192095" lon="11.909970506994155"><ele>35.0</ele><time>2026-05-02T07:35:18.976Z</time></trkpt><trkpt lat="44.275132850389426" lon="11.909864491052936"><ele>35.0</ele><time>2026-05-02T07:35:19.976Z</time></trkpt><trkpt lat="44.27516221472154" lon="11.909740918888117"><ele>35.0</ele><time>2026-05-02T07:35:20.976Z</time></trkpt><trkpt lat="44.275212004798206" lon="11.909602385009638"><ele>35.0</ele><time>2026-05-02T07:35:21.976Z</time></trkpt><trkpt lat="44.275275474811146" lon="11.90945839890252"><ele>35.0</ele><time>2026-05-02T07:35:22.976Z</time></trkpt><trkpt lat="44.27534284499172" lon="11.909292258544513"><ele>35.0</ele><time>2026-05-02T07:35:23.976Z</time></trkpt><trkpt lat="44.27540727488788" lon="11.909119120635468"><ele>35.0</ele><time>2026-05-02T07:35:24.976Z</time></trkpt><trkpt lat="44.275472161659835" lon="11.908953390964687"><ele>35.0</ele><time>2026-05-02T07:35:25.976Z</time></trkpt><trkpt lat="44.27554067279333" lon="11.908786748206683"><ele>35.25</ele><time>2026-05-02T07:35:26.976Z</time></trkpt><trkpt lat="44.275611310410326" lon="11.908616811398469"><ele>35.5</ele><time>2026-05-02T07:35:27.976Z</time></trkpt><trkpt lat="44.27568042836045" lon="11.90843430331702"><ele>35.75</ele><time>2026-05-02T07:35:28.976Z</time></trkpt><trkpt lat="44.27575597147448" lon="11.90825069764618"><ele>36.0</ele><time>2026-05-02T07:35:29.976Z</time></trkpt><trkpt lat="44.27582685064265" lon="11.90805840169716"><ele>36.0</ele><time>2026-05-02T07:35:30.976Z</time></trkpt><trkpt lat="44.275904187620654" lon="11.907858199591784"><ele>36.0</ele><time>2026-05-02T07:35:31.976Z</time></trkpt><trkpt lat="44.27598516692302" lon="11.907652955488393"><ele>36.0</ele><time>2026-05-02T07:35:32.976Z</time></trkpt><trkpt lat="44.276066295665515" lon="11.907454319341252"><ele>35.666666666666664</ele><time>2026-05-02T07:35:33.976Z</time></trkpt><trkpt lat="44.27614864265545" lon="11.907254422275601"><ele>35.33333333333333</ele><time>2026-05-02T07:35:34.976Z</time></trkpt><trkpt lat="44.27622918373708" lon="11.907055095023699"><ele>35.0</ele><time>2026-05-02T07:35:35.976Z</time></trkpt><trkpt lat="44.2763110727981" lon="11.906853373160487"><ele>34.666666666666664</ele><time>2026-05-02T07:35:36.976Z</time></trkpt><trkpt lat="44.27638921817697" lon="11.906658237235993"><ele>34.333333333333336</ele><time>2026-05-02T07:35:37.976Z</time></trkpt><trkpt lat="44.27646761348534" lon="11.906469536735527"><ele>34.0</ele><time>2026-05-02T07:35:38.976Z</time></trkpt><trkpt lat="44.27655016641398" lon="11.906282482788342"><ele>34.0</ele><time>2026-05-02T07:35:39.976Z</time></trkpt><trkpt lat="44.2766276179553" lon="11.906100736263253"><ele>34.0</ele><time>2026-05-02T07:35:40.976Z</time></trkpt><trkpt lat="44.2766983118832" lon="11.905918805023083"><ele>34.0</ele><time>2026-05-02T07:35:41.976Z</time></trkpt><trkpt lat="44.27676919786253" lon="11.905736708976866"><ele>34.0</ele><time>2026-05-02T07:35:42.976Z</time></trkpt><trkpt lat="44.276840808914805" lon="11.90555280505687"><ele>34.0</ele><time>2026-05-02T07:35:43.976Z</time></trkpt><trkpt lat="44.27690959446005" lon="11.905371232031042"><ele>34.0</ele><time>2026-05-02T07:35:44.976Z</time></trkpt><trkpt lat="44.276983010569445" lon="11.905177040744935"><ele>34.0</ele><time>2026-05-02T07:35:45.976Z</time></trkpt><trkpt lat="44.277058273313685" lon="11.904980527519136"><ele>34.333333333333336</ele><time>2026-05-02T07:35:46.976Z</time></trkpt><trkpt lat="44.27713660755941" lon="11.904781988028304"><ele>34.666666666666664</ele><time>2026-05-02T07:35:47.976Z</time></trkpt><trkpt lat="44.27721580513928" lon="11.904587591065107"><ele>35.0</ele><time>2026-05-02T07:35:48.976Z</time></trkpt><trkpt lat="44.27729501860922" lon="11.904390862391754"><ele>35.666666666666664</ele><time>2026-05-02T07:35:49.976Z</time></trkpt><trkpt lat="44.27737418893507" lon="11.904196125994801"><ele>36.333333333333336</ele><time>2026-05-02T07:35:50.976Z</time></trkpt><trkpt lat="44.277450515061986" lon="11.903999547150933"><ele>37.0</ele><time>2026-05-02T07:35:51.976Z</time></trkpt><trkpt lat="44.277527948981295" lon="11.903798214336026"><ele>37.0</ele><time>2026-05-02T07:35:52.976Z</time></trkpt><trkpt lat="44.27762398739026" lon="11.90360069230055"><ele>37.0</ele><time>2026-05-02T07:35:53.976Z</time></trkpt><trkpt lat="44.27770720539873" lon="11.903393614931414"><ele>37.0</ele><time>2026-05-02T07:35:54.976Z</time></trkpt><trkpt lat="44.277787487851725" lon="11.903192410101216"><ele>36.66666666666667</ele><time>2026-05-02T07:35:55.976Z</time></trkpt><trkpt lat="44.27786988590583" lon="11.90298651961305"><ele>36.333333333333336</ele><time>2026-05-02T07:35:56.976Z</time></trkpt><trkpt lat="44.277947937396505" lon="11.902790895859548"><ele>36.0</ele><time>2026-05-02T07:35:57.975Z</time></trkpt><trkpt lat="44.27802141244987" lon="11.902605967561872"><ele>36.25</ele><time>2026-05-02T07:35:58.975Z</time></trkpt><trkpt lat="44.27809392133996" lon="11.902423952960483"><ele>36.5</ele><time>2026-05-02T07:35:59.975Z</time></trkpt><trkpt lat="44.278163589695914" lon="11.902249301496092"><ele>36.75</ele><time>2026-05-02T07:36:00.975Z</time></trkpt><trkpt lat="44.27824330099983" lon="11.902075821361462"><ele>37.0</ele><time>2026-05-02T07:36:01.975Z</time></trkpt><trkpt lat="44.27830984102157" lon="11.901899256774751"><ele>37.0</ele><time>2026-05-02T07:36:02.975Z</time></trkpt><trkpt lat="44.27837046579936" lon="11.901722271634208"><ele>37.0</ele><time>2026-05-02T07:36:03.975Z</time></trkpt><trkpt lat="44.278440348390156" lon="11.901549887773692"><ele>37.0</ele><time>2026-05-02T07:36:04.975Z</time></trkpt><trkpt lat="44.278509454561146" lon="11.901378890534522"><ele>37.0</ele><time>2026-05-02T07:36:05.975Z</time></trkpt><trkpt lat="44.278579414982445" lon="11.901206387335789"><ele>37.0</ele><time>2026-05-02T07:36:06.975Z</time></trkpt><trkpt lat="44.2786472305705" lon="11.901029719166688"><ele>37.0</ele><time>2026-05-02T07:36:07.975Z</time></trkpt><trkpt lat="44.27871184033472" lon="11.900851696445349"><ele>37.0</ele><time>2026-05-02T07:36:08.975Z</time></trkpt><trkpt lat="44.27877587820924" lon="11.900680597366225"><ele>37.0</ele><time>2026-05-02T07:36:09.975Z</time></trkpt><trkpt lat="44.27882888451809" lon="11.900508691089998"><ele>37.25</ele><time>2026-05-02T07:36:10.975Z</time></trkpt><trkpt lat="44.27887131300283" lon="11.900327685508092"><ele>37.5</ele><time>2026-05-02T07:36:11.975Z</time></trkpt><trkpt lat="44.27891363930138" lon="11.900150233154413"><ele>37.75</ele><time>2026-05-02T07:36:12.975Z</time></trkpt><trkpt lat="44.27895014502402" lon="11.899969491160352"><ele>38.0</ele><time>2026-05-02T07:36:13.975Z</time></trkpt><trkpt lat="44.27898470591197" lon="11.899793723407084"><ele>38.25</ele><time>2026-05-02T07:36:14.975Z</time></trkpt><trkpt lat="44.27901481500603" lon="11.89962563522017"><ele>38.5</ele><time>2026-05-02T07:36:15.975Z</time></trkpt><trkpt lat="44.27904386210024" lon="11.899470900468119"><ele>38.75</ele><time>2026-05-02T07:36:16.975Z</time></trkpt><trkpt lat="44.27907131345945" lon="11.899329273769846"><ele>39.0</ele><time>2026-05-02T07:36:17.975Z</time></trkpt><trkpt lat="44.27910032863059" lon="11.899184696708637"><ele>39.0</ele><time>2026-05-02T07:36:18.975Z</time></trkpt><trkpt lat="44.2791403503472" lon="11.899038365816017"><ele>39.0</ele><time>2026-05-02T07:36:19.975Z</time></trkpt><trkpt lat="44.279189322168946" lon="11.89889638512509"><ele>39.0</ele><time>2026-05-02T07:36:20.975Z</time></trkpt><trkpt lat="44.27923295623642" lon="11.898760788638395"><ele>39.0</ele><time>2026-05-02T07:36:21.975Z</time></trkpt><trkpt lat="44.2792458945386" lon="11.89862317433457"><ele>39.0</ele><time>2026-05-02T07:36:22.975Z</time></trkpt><trkpt lat="44.27921713292972" lon="11.898473649610228"><ele>39.0</ele><time>2026-05-02T07:36:23.975Z</time></trkpt><trkpt lat="44.279167329776115" lon="11.898327584824314"><ele>39.0</ele><time>2026-05-02T07:36:24.975Z</time></trkpt><trkpt lat="44.27911702959192" lon="11.898170686385262"><ele>39.0</ele><time>2026-05-02T07:36:25.975Z</time></trkpt><trkpt lat="44.2790926645162" lon="11.89800087966805"><ele>39.0</ele><time>2026-05-02T07:36:26.975Z</time></trkpt><trkpt lat="44.279085270020644" lon="11.897818562836482"><ele>39.0</ele><time>2026-05-02T07:36:27.975Z</time></trkpt><trkpt lat="44.27908088819002" lon="11.897619044098107"><ele>39.0</ele><time>2026-05-02T07:36:28.975Z</time></trkpt><trkpt lat="44.27907432554424" lon="11.897408083219485"><ele>39.0</ele><time>2026-05-02T07:36:29.975Z</time></trkpt><trkpt lat="44.27906780710996" lon="11.897184217421042"><ele>39.0</ele><time>2026-05-02T07:36:30.975Z</time></trkpt><trkpt lat="44.27905689538497" lon="11.896957044665358"><ele>39.0</ele><time>2026-05-02T07:36:31.975Z</time></trkpt><trkpt lat="44.27904782075817" lon="11.89671944795339"><ele>39.0</ele><time>2026-05-02T07:36:32.975Z</time></trkpt><trkpt lat="44.27903638075957" lon="11.896471144887228"><ele>38.666666666666664</ele><time>2026-05-02T07:36:33.975Z</time></trkpt><trkpt lat="44.27902608479088" lon="11.896220278741987"><ele>38.33333333333333</ele><time>2026-05-02T07:36:34.975Z</time></trkpt><trkpt lat="44.27901308157085" lon="11.895964980731856"><ele>38.0</ele><time>2026-05-02T07:36:35.975Z</time></trkpt><trkpt lat="44.279002984965636" lon="11.895700117699041"><ele>38.0</ele><time>2026-05-02T07:36:36.975Z</time></trkpt><trkpt lat="44.278991556416635" lon="11.8954284516351"><ele>38.0</ele><time>2026-05-02T07:36:37.975Z</time></trkpt><trkpt lat="44.27898071033183" lon="11.895148014162709"><ele>38.0</ele><time>2026-05-02T07:36:38.975Z</time></trkpt><trkpt lat="44.278969962133786" lon="11.894863728435968"><ele>38.0</ele><time>2026-05-02T07:36:39.975Z</time></trkpt><trkpt lat="44.27895789607991" lon="11.89457132674671"><ele>38.0</ele><time>2026-05-02T07:36:40.975Z</time></trkpt><trkpt lat="44.27894590024402" lon="11.894267220825675"><ele>38.0</ele><time>2026-05-02T07:36:41.975Z</time></trkpt><trkpt lat="44.27893048306745" lon="11.893950334206565"><ele>38.0</ele><time>2026-05-02T07:36:42.975Z</time></trkpt><trkpt lat="44.27891829798058" lon="11.893621380545493"><ele>38.0</ele><time>2026-05-02T07:36:43.975Z</time></trkpt><trkpt lat="44.278908292130694" lon="11.893291817624409"><ele>38.0</ele><time>2026-05-02T07:36:44.975Z</time></trkpt><trkpt lat="44.278899546285814" lon="11.892959452807983"><ele>38.0</ele><time>2026-05-02T07:36:45.975Z</time></trkpt><trkpt lat="44.27888786518806" lon="11.89264354277103"><ele>37.666666666666664</ele><time>2026-05-02T07:36:46.975Z</time></trkpt><trkpt lat="44.278874143550496" lon="11.892334267851803"><ele>37.333333333333336</ele><time>2026-05-02T07:36:47.975Z</time></trkpt><trkpt lat="44.278864210778465" lon="11.892029500941215"><ele>37.0</ele><time>2026-05-02T07:36:48.975Z</time></trkpt><trkpt lat="44.27885378763962" lon="11.891736227001976"><ele>37.0</ele><time>2026-05-02T07:36:49.975Z</time></trkpt><trkpt lat="44.278843870967904" lon="11.89145090560485"><ele>37.0</ele><time>2026-05-02T07:36:50.975Z</time></trkpt><trkpt lat="44.278832057233764" lon="11.891162465348922"><ele>37.0</ele><time>2026-05-02T07:36:51.975Z</time></trkpt><trkpt lat="44.2788194366584" lon="11.890878754984005"><ele>36.66666666666667</ele><time>2026-05-02T07:36:52.975Z</time></trkpt><trkpt lat="44.278807646671204" lon="11.890586580849718"><ele>36.333333333333336</ele><time>2026-05-02T07:36:53.975Z</time></trkpt><trkpt lat="44.2787946254293" lon="11.890293372328685"><ele>36.0</ele><time>2026-05-02T07:36:54.975Z</time></trkpt><trkpt lat="44.27878123154838" lon="11.889991748488088"><ele>35.0</ele><time>2026-05-02T07:36:55.975Z</time></trkpt><trkpt lat="44.27877065837236" lon="11.889687335375068"><ele>34.0</ele><time>2026-05-02T07:36:56.975Z</time></trkpt><trkpt lat="44.27876085110151" lon="11.889384197346612"><ele>33.0</ele><time>2026-05-02T07:36:57.975Z</time></trkpt><trkpt lat="44.27875054414445" lon="11.889073001756772"><ele>32.333333333333336</ele><time>2026-05-02T07:36:58.975Z</time></trkpt><trkpt lat="44.278738827035966" lon="11.888761360708395"><ele>31.666666666666668</ele><time>2026-05-02T07:36:59.975Z</time></trkpt><trkpt lat="44.2787270844962" lon="11.88844773296015"><ele>31.0</ele><time>2026-05-02T07:37:00.975Z</time></trkpt><trkpt lat="44.27871525381211" lon="11.888136358622754"><ele>30.5</ele><time>2026-05-02T07:37:01.975Z</time></trkpt><trkpt lat="44.27870153149533" lon="11.887826262061775"><ele>30.0</ele><time>2026-05-02T07:37:02.975Z</time></trkpt><trkpt lat="44.27868879638249" lon="11.887507820297511"><ele>30.0</ele><time>2026-05-02T07:37:03.975Z</time></trkpt><trkpt lat="44.278672142324346" lon="11.887197703765779"><ele>30.0</ele><time>2026-05-02T07:37:04.975Z</time></trkpt><trkpt lat="44.2786604058507" lon="11.886883279199058"><ele>30.0</ele><time>2026-05-02T07:37:05.975Z</time></trkpt><trkpt lat="44.278647746145865" lon="11.886570181933886"><ele>30.0</ele><time>2026-05-02T07:37:06.975Z</time></trkpt><trkpt lat="44.278632028240814" lon="11.886260894701286"><ele>30.0</ele><time>2026-05-02T07:37:07.975Z</time></trkpt><trkpt lat="44.27861993687827" lon="11.885953033398595"><ele>30.0</ele><time>2026-05-02T07:37:08.975Z</time></trkpt><trkpt lat="44.27860499934533" lon="11.885644883845199"><ele>30.0</ele><time>2026-05-02T07:37:09.975Z</time></trkpt><trkpt lat="44.27859302791327" lon="11.885342739418771"><ele>30.0</ele><time>2026-05-02T07:37:10.975Z</time></trkpt><trkpt lat="44.27858005467563" lon="11.885043267811314"><ele>30.0</ele><time>2026-05-02T07:37:11.975Z</time></trkpt><trkpt lat="44.27856631891019" lon="11.884740846298858"><ele>30.0</ele><time>2026-05-02T07:37:12.975Z</time></trkpt><trkpt lat="44.27855483337083" lon="11.884442783731636"><ele>30.0</ele><time>2026-05-02T07:37:13.975Z</time></trkpt><trkpt lat="44.27854674598532" lon="11.884147943137442"><ele>30.0</ele><time>2026-05-02T07:37:14.975Z</time></trkpt><trkpt lat="44.27853659153429" lon="11.883849640490771"><ele>30.333333333333336</ele><time>2026-05-02T07:37:15.975Z</time></trkpt><trkpt lat="44.27852464180975" lon="11.883547852986695"><ele>30.666666666666668</ele><time>2026-05-02T07:37:16.975Z</time></trkpt><trkpt lat="44.27851363693715" lon="11.883249283031835"><ele>31.0</ele><time>2026-05-02T07:37:17.975Z</time></trkpt><trkpt lat="44.27850125259005" lon="11.882946851486725"><ele>31.0</ele><time>2026-05-02T07:37:18.975Z</time></trkpt><trkpt lat="44.27848554044045" lon="11.88264097871173"><ele>31.0</ele><time>2026-05-02T07:37:19.975Z</time></trkpt><trkpt lat="44.278475118322106" lon="11.882332038560483"><ele>31.0</ele><time>2026-05-02T07:37:20.975Z</time></trkpt><trkpt lat="44.278465751359064" lon="11.882023084992804"><ele>30.666666666666668</ele><time>2026-05-02T07:37:21.975Z</time></trkpt><trkpt lat="44.278456932923014" lon="11.881719261615688"><ele>30.333333333333336</ele><time>2026-05-02T07:37:22.975Z</time></trkpt><trkpt lat="44.27845212299675" lon="11.881426329454918"><ele>30.0</ele><time>2026-05-02T07:37:23.975Z</time></trkpt><trkpt lat="44.27845198269018" lon="11.881123389422969"><ele>30.333333333333336</ele><time>2026-05-02T07:37:24.975Z</time></trkpt><trkpt lat="44.27846382445635" lon="11.88082388700649"><ele>30.666666666666668</ele><time>2026-05-02T07:37:25.975Z</time></trkpt><trkpt lat="44.278478087196476" lon="11.880533208688888"><ele>31.0</ele><time>2026-05-02T07:37:26.975Z</time></trkpt><trkpt lat="44.278499418560365" lon="11.880254732243051"><ele>31.0</ele><time>2026-05-02T07:37:27.975Z</time></trkpt><trkpt lat="44.27852585014161" lon="11.879987988109189"><ele>31.0</ele><time>2026-05-02T07:37:28.975Z</time></trkpt><trkpt lat="44.278558373183984" lon="11.879752189464886"><ele>31.0</ele><time>2026-05-02T07:37:29.975Z</time></trkpt><trkpt lat="44.27859175138518" lon="11.879537884728485"><ele>31.0</ele><time>2026-05-02T07:37:30.975Z</time></trkpt><trkpt lat="44.278625459120946" lon="11.879336112633407"><ele>31.0</ele><time>2026-05-02T07:37:31.975Z</time></trkpt><trkpt lat="44.27866199829302" lon="11.879147230670762"><ele>31.0</ele><time>2026-05-02T07:37:32.975Z</time></trkpt><trkpt lat="44.27870198160994" lon="11.878962375884434"><ele>31.0</ele><time>2026-05-02T07:37:33.975Z</time></trkpt><trkpt lat="44.27874281079826" lon="11.878776096995162"><ele>31.0</ele><time>2026-05-02T07:37:34.975Z</time></trkpt><trkpt lat="44.278782058521564" lon="11.878590482496747"><ele>31.0</ele><time>2026-05-02T07:37:35.975Z</time></trkpt><trkpt lat="44.27882142291392" lon="11.878409571108541"><ele>31.0</ele><time>2026-05-02T07:37:36.975Z</time></trkpt><trkpt lat="44.2788991323387" lon="11.878233499525773"><ele>31.0</ele><time>2026-05-02T07:37:37.975Z</time></trkpt><trkpt lat="44.27894506359639" lon="11.87804192318186"><ele>31.0</ele><time>2026-05-02T07:37:38.975Z</time></trkpt><trkpt lat="44.279001968179294" lon="11.87784912086933"><ele>31.0</ele><time>2026-05-02T07:37:39.975Z</time></trkpt><trkpt lat="44.27906344948634" lon="11.87765742528313"><ele>31.0</ele><time>2026-05-02T07:37:40.975Z</time></trkpt><trkpt lat="44.27912949834525" lon="11.877471898087009"><ele>31.0</ele><time>2026-05-02T07:37:41.975Z</time></trkpt><trkpt lat="44.27919749104363" lon="11.877274666668358"><ele>30.666666666666668</ele><time>2026-05-02T07:37:42.975Z</time></trkpt><trkpt lat="44.279273810330025" lon="11.877080333814666"><ele>30.333333333333336</ele><time>2026-05-02T07:37:43.975Z</time></trkpt><trkpt lat="44.27935531895022" lon="11.876883172225579"><ele>30.0</ele><time>2026-05-02T07:37:44.975Z</time></trkpt><trkpt lat="44.2794384442773" lon="11.87668567338975"><ele>30.0</ele><time>2026-05-02T07:37:45.975Z</time></trkpt><trkpt lat="44.27951043663494" lon="11.876535958146242"><ele>30.0</ele><time>2026-05-02T07:37:46.975Z</time></trkpt><trkpt lat="44.279575149909505" lon="11.87640920794024"><ele>30.0</ele><time>2026-05-02T07:37:47.975Z</time></trkpt><trkpt lat="44.279632964866025" lon="11.876306598093173"><ele>30.0</ele><time>2026-05-02T07:37:48.975Z</time></trkpt><trkpt lat="44.279691520369795" lon="11.87621277785822"><ele>30.0</ele><time>2026-05-02T07:37:49.975Z</time></trkpt><trkpt lat="44.27974175666855" lon="11.876137672534385"><ele>30.5</ele><time>2026-05-02T07:37:50.975Z</time></trkpt><trkpt lat="44.279783088473344" lon="11.876062391793093"><ele>31.0</ele><time>2026-05-02T07:37:51.975Z</time></trkpt><trkpt lat="44.27983013584093" lon="11.875980005910355"><ele>31.5</ele><time>2026-05-02T07:37:52.975Z</time></trkpt><trkpt lat="44.27989054460101" lon="11.87590603275242"><ele>32.0</ele><time>2026-05-02T07:37:53.975Z</time></trkpt><trkpt lat="44.27996234252738" lon="11.875862293247888"><ele>32.5</ele><time>2026-05-02T07:37:54.975Z</time></trkpt><trkpt lat="44.28005548113039" lon="11.875868371733405"><ele>33.0</ele><time>2026-05-02T07:37:55.975Z</time></trkpt><trkpt lat="44.280157590587216" lon="11.87589144531511"><ele>33.0</ele><time>2026-05-02T07:37:56.975Z</time></trkpt><trkpt lat="44.2802645931695" lon="11.875960064616914"><ele>33.0</ele><time>2026-05-02T07:37:57.975Z</time></trkpt><trkpt lat="44.28034680841827" lon="11.876002487928126"><ele>33.0</ele><time>2026-05-02T07:37:58.975Z</time></trkpt><trkpt lat="44.280418288974595" lon="11.876034306710627"><ele>33.0</ele><time>2026-05-02T07:37:59.975Z</time></trkpt><trkpt lat="44.28048516318257" lon="11.876068166194813"><ele>33.0</ele><time>2026-05-02T07:38:00.975Z</time></trkpt><trkpt lat="44.28054879308221" lon="11.876108140470658"><ele>33.0</ele><time>2026-05-02T07:38:01.975Z</time></trkpt><trkpt lat="44.28058463797754" lon="11.876192507308545"><ele>33.0</ele><time>2026-05-02T07:38:02.975Z</time></trkpt><trkpt lat="44.28058703364056" lon="11.876324850098712"><ele>33.0</ele><time>2026-05-02T07:38:03.975Z</time></trkpt><trkpt lat="44.280559596687254" lon="11.876489009633088"><ele>33.0</ele><time>2026-05-02T07:38:04.975Z</time></trkpt><trkpt lat="44.28051569648711" lon="11.876634942818859"><ele>33.0</ele><time>2026-05-02T07:38:05.975Z</time></trkpt><trkpt lat="44.28047976128463" lon="11.876797012549083"><ele>33.0</ele><time>2026-05-02T07:38:06.975Z</time></trkpt><trkpt lat="44.28045011365273" lon="11.876958812407715"><ele>33.0</ele><time>2026-05-02T07:38:07.974Z</time></trkpt><trkpt lat="44.28042527579733" lon="11.877138088127047"><ele>33.0</ele><time>2026-05-02T07:38:08.974Z</time></trkpt><trkpt lat="44.280401794551125" lon="11.877332396756383"><ele>33.0</ele><time>2026-05-02T07:38:09.975Z</time></trkpt><trkpt lat="44.280364385985784" lon="11.877515712138992"><ele>33.0</ele><time>2026-05-02T07:38:10.975Z</time></trkpt><trkpt lat="44.28032962730234" lon="11.877705298130262"><ele>33.0</ele><time>2026-05-02T07:38:11.975Z</time></trkpt><trkpt lat="44.28029271366172" lon="11.877895769332824"><ele>33.0</ele><time>2026-05-02T07:38:12.975Z</time></trkpt><trkpt lat="44.28025775291141" lon="11.878087729377665"><ele>33.0</ele><time>2026-05-02T07:38:13.974Z</time></trkpt><trkpt lat="44.280228244073605" lon="11.878278157580127"><ele>33.4</ele><time>2026-05-02T07:38:14.974Z</time></trkpt><trkpt lat="44.28017580636959" lon="11.87844136087421"><ele>33.8</ele><time>2026-05-02T07:38:15.975Z</time></trkpt><trkpt lat="44.28014890799588" lon="11.878588810412635"><ele>34.2</ele><time>2026-05-02T07:38:16.974Z</time></trkpt><trkpt lat="44.280118193392795" lon="11.878722206568796"><ele>34.6</ele><time>2026-05-02T07:38:17.974Z</time></trkpt><trkpt lat="44.280096629101074" lon="11.878833887232535"><ele>35.0</ele><time>2026-05-02T07:38:18.974Z</time></trkpt><trkpt lat="44.28006984466793" lon="11.878916028268106"><ele>35.0</ele><time>2026-05-02T07:38:19.974Z</time></trkpt><trkpt lat="44.280053101213774" lon="11.879019837206592"><ele>35.0</ele><time>2026-05-02T07:38:21.974Z</time></trkpt><trkpt lat="44.279874091935866" lon="11.879033246410373"><ele>35.0</ele><time>2026-05-02T07:38:23.974Z</time></trkpt><trkpt lat="44.27977484364109" lon="11.879008614367844"><ele>35.0</ele><time>2026-05-02T07:38:24.974Z</time></trkpt><trkpt lat="44.27967073178626" lon="11.878956773403509"><ele>34.4</ele><time>2026-05-02T07:38:25.974Z</time></trkpt><trkpt lat="44.27956713291349" lon="11.87890537980549"><ele>33.8</ele><time>2026-05-02T07:38:26.974Z</time></trkpt><trkpt lat="44.27946060958819" lon="11.87885930285661"><ele>33.2</ele><time>2026-05-02T07:38:27.974Z</time></trkpt><trkpt lat="44.279347774048425" lon="11.878816607443971"><ele>32.6</ele><time>2026-05-02T07:38:28.974Z</time></trkpt><trkpt lat="44.27924350635545" lon="11.87877742714828"><ele>32.0</ele><time>2026-05-02T07:38:29.974Z</time></trkpt><trkpt lat="44.27915497739735" lon="11.878744966325323"><ele>31.999999999999996</ele><time>2026-05-02T07:38:30.974Z</time></trkpt><trkpt lat="44.27907007100936" lon="11.878705221719768"><ele>32.0</ele><time>2026-05-02T07:38:31.974Z</time></trkpt><trkpt lat="44.27899796610149" lon="11.878679818526953"><ele>32.0</ele><time>2026-05-02T07:38:32.974Z</time></trkpt><trkpt lat="44.27893942899427" lon="11.878642003288698"><ele>32.0</ele><time>2026-05-02T07:38:33.974Z</time></trkpt><trkpt lat="44.27884268313317" lon="11.878602604925073"><ele>31.999999999999996</ele><time>2026-05-02T07:38:35.974Z</time></trkpt><trkpt lat="44.27877060143618" lon="11.878583563461207"><ele>32.0</ele><time>2026-05-02T07:38:37.974Z</time></trkpt><trkpt lat="44.278705725218316" lon="11.878558012534155"><ele>31.999999999999996</ele><time>2026-05-02T07:38:40.974Z</time></trkpt><trkpt lat="44.27861505678425" lon="11.878534748478181"><ele>32.0</ele><time>2026-05-02T07:39:31.974Z</time></trkpt><trkpt lat="44.27854955388113" lon="11.878511133374289"><ele>32.0</ele><time>2026-05-02T07:39:32.974Z</time></trkpt><trkpt lat="44.27848031962326" lon="11.878487263855382"><ele>32.0</ele><time>2026-05-02T07:39:33.974Z</time></trkpt><trkpt lat="44.27841417812572" lon="11.87843849898794"><ele>31.999999999999996</ele><time>2026-05-02T07:39:34.974Z</time></trkpt><trkpt lat="44.278340246354794" lon="11.878413441141882"><ele>32.0</ele><time>2026-05-02T07:39:35.974Z</time></trkpt><trkpt lat="44.27826350836572" lon="11.878389743119598"><ele>31.666666666666664</ele><time>2026-05-02T07:39:36.974Z</time></trkpt><trkpt lat="44.27818847041021" lon="11.878360552066697"><ele>31.333333333333332</ele><time>2026-05-02T07:39:37.974Z</time></trkpt><trkpt lat="44.27811610906516" lon="11.878313083571218"><ele>31.0</ele><time>2026-05-02T07:39:38.974Z</time></trkpt><trkpt lat="44.27805064619018" lon="11.878257811173723"><ele>30.666666666666664</ele><time>2026-05-02T07:39:39.974Z</time></trkpt><trkpt lat="44.277988632478845" lon="11.87819864262182"><ele>30.333333333333332</ele><time>2026-05-02T07:39:40.974Z</time></trkpt><trkpt lat="44.27792772935673" lon="11.878134059913538"><ele>30.0</ele><time>2026-05-02T07:39:41.974Z</time></trkpt><trkpt lat="44.277862389199896" lon="11.878073050553576"><ele>30.0</ele><time>2026-05-02T07:39:42.975Z</time></trkpt><trkpt lat="44.27779203678803" lon="11.878015468290226"><ele>30.0</ele><time>2026-05-02T07:39:43.975Z</time></trkpt><trkpt lat="44.277722831115106" lon="11.877947957337051"><ele>30.0</ele><time>2026-05-02T07:39:44.975Z</time></trkpt><trkpt lat="44.277643280199946" lon="11.877876642256195"><ele>30.0</ele><time>2026-05-02T07:39:45.975Z</time></trkpt><trkpt lat="44.277562750571235" lon="11.877807940936066"><ele>30.0</ele><time>2026-05-02T07:39:46.975Z</time></trkpt><trkpt lat="44.27747698182348" lon="11.877738313823285"><ele>30.0</ele><time>2026-05-02T07:39:47.975Z</time></trkpt><trkpt lat="44.277385515308126" lon="11.87765868818062"><ele>30.0</ele><time>2026-05-02T07:39:48.975Z</time></trkpt><trkpt lat="44.277295250568876" lon="11.877572818120179"><ele>30.0</ele><time>2026-05-02T07:39:49.975Z</time></trkpt><trkpt lat="44.277201610484546" lon="11.87748619538334"><ele>30.0</ele><time>2026-05-02T07:39:50.975Z</time></trkpt><trkpt lat="44.27711258290113" lon="11.877400273331585"><ele>30.0</ele><time>2026-05-02T07:39:51.975Z</time></trkpt><trkpt lat="44.277025893711894" lon="11.877300929458142"><ele>30.25</ele><time>2026-05-02T07:39:52.975Z</time></trkpt><trkpt lat="44.27693270243944" lon="11.877202948163788"><ele>30.5</ele><time>2026-05-02T07:39:53.975Z</time></trkpt><trkpt lat="44.27683481199348" lon="11.877089774468088"><ele>30.75</ele><time>2026-05-02T07:39:54.975Z</time></trkpt><trkpt lat="44.27673637669738" lon="11.876973617662307"><ele>31.0</ele><time>2026-05-02T07:39:55.975Z</time></trkpt><trkpt lat="44.27663774153002" lon="11.876857846490891"><ele>31.0</ele><time>2026-05-02T07:39:56.975Z</time></trkpt><trkpt lat="44.276538922433346" lon="11.87674631994523"><ele>31.0</ele><time>2026-05-02T07:39:57.975Z</time></trkpt><trkpt lat="44.27644431088704" lon="11.876633422085417"><ele>31.0</ele><time>2026-05-02T07:39:58.975Z</time></trkpt><trkpt lat="44.27634682254277" lon="11.876519314774187"><ele>31.0</ele><time>2026-05-02T07:39:59.975Z</time></trkpt><trkpt lat="44.27624802676137" lon="11.876406618905358"><ele>31.25</ele><time>2026-05-02T07:40:00.975Z</time></trkpt><trkpt lat="44.276143803846075" lon="11.876290924515487"><ele>31.5</ele><time>2026-05-02T07:40:01.975Z</time></trkpt><trkpt lat="44.27604208819139" lon="11.876166085280428"><ele>31.75</ele><time>2026-05-02T07:40:02.975Z</time></trkpt><trkpt lat="44.27593959984838" lon="11.876044134527657"><ele>32.0</ele><time>2026-05-02T07:40:03.975Z</time></trkpt><trkpt lat="44.27583968234007" lon="11.875923052082605"><ele>32.25</ele><time>2026-05-02T07:40:04.975Z</time></trkpt><trkpt lat="44.27573787591961" lon="11.875804379725087"><ele>32.5</ele><time>2026-05-02T07:40:05.975Z</time></trkpt><trkpt lat="44.27563054283797" lon="11.875688684741466"><ele>32.75</ele><time>2026-05-02T07:40:06.975Z</time></trkpt><trkpt lat="44.2755286908261" lon="11.875569258518992"><ele>33.0</ele><time>2026-05-02T07:40:07.975Z</time></trkpt><trkpt lat="44.27543394180461" lon="11.87545070152129"><ele>32.75</ele><time>2026-05-02T07:40:08.975Z</time></trkpt><trkpt lat="44.275335203842104" lon="11.875336127528552"><ele>32.5</ele><time>2026-05-02T07:40:09.974Z</time></trkpt><trkpt lat="44.27524985039481" lon="11.87520893082692"><ele>32.25</ele><time>2026-05-02T07:40:10.973Z</time></trkpt><trkpt lat="44.27514433385944" lon="11.87511099035042"><ele>32.0</ele><time>2026-05-02T07:40:11.973Z</time></trkpt><trkpt lat="44.27502940369678" lon="11.875026741447233"><ele>32.0</ele><time>2026-05-02T07:40:12.974Z</time></trkpt><trkpt lat="44.27490546328462" lon="11.87498125239873"><ele>32.0</ele><time>2026-05-02T07:40:13.974Z</time></trkpt><trkpt lat="44.27478167380194" lon="11.874927353233556"><ele>32.0</ele><time>2026-05-02T07:40:14.974Z</time></trkpt><trkpt lat="44.274654796624375" lon="11.874894115449193"><ele>32.0</ele><time>2026-05-02T07:40:15.974Z</time></trkpt><trkpt lat="44.27453551254448" lon="11.874871022267781"><ele>31.400000000000002</ele><time>2026-05-02T07:40:16.973Z</time></trkpt><trkpt lat="44.27442242821282" lon="11.874854606639843"><ele>30.800000000000004</ele><time>2026-05-02T07:40:17.973Z</time></trkpt><trkpt lat="44.27431426862126" lon="11.874840818360925"><ele>30.2</ele><time>2026-05-02T07:40:18.974Z</time></trkpt><trkpt lat="44.27421245086946" lon="11.874829552219483"><ele>29.6</ele><time>2026-05-02T07:40:19.974Z</time></trkpt><trkpt lat="44.274108005467326" lon="11.874814397305451"><ele>29.0</ele><time>2026-05-02T07:40:20.974Z</time></trkpt><trkpt lat="44.27400640601881" lon="11.874804373905032"><ele>29.2</ele><time>2026-05-02T07:40:21.973Z</time></trkpt><trkpt lat="44.27390960846129" lon="11.874793478180843"><ele>29.4</ele><time>2026-05-02T07:40:22.974Z</time></trkpt><trkpt lat="44.27382359313247" lon="11.874764904908922"><ele>29.6</ele><time>2026-05-02T07:40:23.974Z</time></trkpt><trkpt lat="44.27375133056009" lon="11.874699429705943"><ele>29.8</ele><time>2026-05-02T07:40:24.974Z</time></trkpt><trkpt lat="44.27368419109131" lon="11.8745954556548"><ele>30.0</ele><time>2026-05-02T07:40:25.974Z</time></trkpt><trkpt lat="44.273617608394325" lon="11.874470161947457"><ele>30.0</ele><time>2026-05-02T07:40:26.974Z</time></trkpt><trkpt lat="44.27354981694913" lon="11.874332315248097"><ele>30.0</ele><time>2026-05-02T07:40:27.974Z</time></trkpt><trkpt lat="44.273465764486076" lon="11.874181491972234"><ele>30.0</ele><time>2026-05-02T07:40:28.974Z</time></trkpt><trkpt lat="44.27338128184618" lon="11.874021199865732"><ele>30.0</ele><time>2026-05-02T07:40:29.974Z</time></trkpt><trkpt lat="44.273290883661566" lon="11.873851377404057"><ele>30.333333333333336</ele><time>2026-05-02T07:40:30.974Z</time></trkpt><trkpt lat="44.27319749133684" lon="11.873677746916625"><ele>30.666666666666668</ele><time>2026-05-02T07:40:31.974Z</time></trkpt><trkpt lat="44.273098535444255" lon="11.873499678494564"><ele>31.0</ele><time>2026-05-02T07:40:32.974Z</time></trkpt><trkpt lat="44.272989666240825" lon="11.87332596349318"><ele>32.333333333333336</ele><time>2026-05-02T07:40:33.974Z</time></trkpt><trkpt lat="44.27287831659252" lon="11.873163093933954"><ele>33.666666666666664</ele><time>2026-05-02T07:40:34.974Z</time></trkpt><trkpt lat="44.272768118450294" lon="11.873009096048781"><ele>35.0</ele><time>2026-05-02T07:40:35.974Z</time></trkpt><trkpt lat="44.27266125912662" lon="11.872856199923033"><ele>35.0</ele><time>2026-05-02T07:40:36.974Z</time></trkpt><trkpt lat="44.27257509771488" lon="11.872697867251151"><ele>35.0</ele><time>2026-05-02T07:40:37.974Z</time></trkpt><trkpt lat="44.27249772475315" lon="11.872582976739265"><ele>35.0</ele><time>2026-05-02T07:40:38.974Z</time></trkpt><trkpt lat="44.27243318340707" lon="11.872472984958824"><ele>35.0</ele><time>2026-05-02T07:40:39.974Z</time></trkpt><trkpt lat="44.272384279083084" lon="11.872357510170623"><ele>34.8</ele><time>2026-05-02T07:40:40.974Z</time></trkpt><trkpt lat="44.27237257642777" lon="11.872240293673018"><ele>34.6</ele><time>2026-05-02T07:40:41.974Z</time></trkpt><trkpt lat="44.27240993221658" lon="11.872138000644847"><ele>34.4</ele><time>2026-05-02T07:40:42.974Z</time></trkpt><trkpt lat="44.272471750824174" lon="11.872047877805137"><ele>34.2</ele><time>2026-05-02T07:40:43.974Z</time></trkpt><trkpt lat="44.27255456839653" lon="11.871946645816031"><ele>34.0</ele><time>2026-05-02T07:40:44.974Z</time></trkpt><trkpt lat="44.272649200804" lon="11.871834304922164"><ele>34.5</ele><time>2026-05-02T07:40:45.974Z</time></trkpt><trkpt lat="44.27274923752514" lon="11.871708391451442"><ele>35.0</ele><time>2026-05-02T07:40:46.974Z</time></trkpt><trkpt lat="44.27285610492211" lon="11.871576139360855"><ele>35.5</ele><time>2026-05-02T07:40:47.974Z</time></trkpt><trkpt lat="44.27295921594421" lon="11.871445259796554"><ele>36.0</ele><time>2026-05-02T07:40:48.974Z</time></trkpt><trkpt lat="44.27305386059237" lon="11.87132074247244"><ele>34.75</ele><time>2026-05-02T07:40:49.974Z</time></trkpt><trkpt lat="44.27314000651853" lon="11.87120217786014"><ele>33.5</ele><time>2026-05-02T07:40:50.974Z</time></trkpt><trkpt lat="44.27321582530866" lon="11.871064257876643"><ele>32.25</ele><time>2026-05-02T07:40:51.974Z</time></trkpt><trkpt lat="44.273275892198775" lon="11.870900241215974"><ele>31.0</ele><time>2026-05-02T07:40:52.974Z</time></trkpt><trkpt lat="44.27331334486514" lon="11.870705778137655"><ele>31.0</ele><time>2026-05-02T07:40:53.974Z</time></trkpt><trkpt lat="44.273347790072414" lon="11.870504403409189"><ele>31.0</ele><time>2026-05-02T07:40:54.974Z</time></trkpt><trkpt lat="44.273392387502966" lon="11.870294995271182"><ele>31.0</ele><time>2026-05-02T07:40:55.974Z</time></trkpt><trkpt lat="44.27345250339833" lon="11.870083138483977"><ele>31.333333333333336</ele><time>2026-05-02T07:40:56.974Z</time></trkpt><trkpt lat="44.27353634494974" lon="11.869875119341804"><ele>31.666666666666664</ele><time>2026-05-02T07:40:57.974Z</time></trkpt><trkpt lat="44.273634713667505" lon="11.869669625795593"><ele>32.0</ele><time>2026-05-02T07:40:58.974Z</time></trkpt><trkpt lat="44.27374579504182" lon="11.869460331410663"><ele>32.0</ele><time>2026-05-02T07:40:59.974Z</time></trkpt><trkpt lat="44.273857364325664" lon="11.86925409401618"><ele>32.0</ele><time>2026-05-02T07:41:00.974Z</time></trkpt><trkpt lat="44.273962237212885" lon="11.86906570707571"><ele>32.0</ele><time>2026-05-02T07:41:01.974Z</time></trkpt><trkpt lat="44.274052040802744" lon="11.86890497158806"><ele>32.0</ele><time>2026-05-02T07:41:02.974Z</time></trkpt><trkpt lat="44.274123009042256" lon="11.868759707421697"><ele>32.0</ele><time>2026-05-02T07:41:03.974Z</time></trkpt><trkpt lat="44.2741592740869" lon="11.868623210958956"><ele>32.0</ele><time>2026-05-02T07:41:04.974Z</time></trkpt><trkpt lat="44.274155411088856" lon="11.868474009993102"><ele>32.0</ele><time>2026-05-02T07:41:05.974Z</time></trkpt><trkpt lat="44.27410656611561" lon="11.868333788639037"><ele>32.0</ele><time>2026-05-02T07:41:06.974Z</time></trkpt><trkpt lat="44.27402607505722" lon="11.868196344222444"><ele>32.33333333333333</ele><time>2026-05-02T07:41:07.974Z</time></trkpt><trkpt lat="44.273927629515946" lon="11.868037419397764"><ele>32.666666666666664</ele><time>2026-05-02T07:41:08.974Z</time></trkpt><trkpt lat="44.27383108912827" lon="11.867868602160195"><ele>33.0</ele><time>2026-05-02T07:41:09.974Z</time></trkpt><trkpt lat="44.273731752531596" lon="11.867686354061972"><ele>33.666666666666664</ele><time>2026-05-02T07:41:10.974Z</time></trkpt><trkpt lat="44.27362963376836" lon="11.867498130454887"><ele>34.33333333333333</ele><time>2026-05-02T07:41:11.974Z</time></trkpt><trkpt lat="44.27352259524246" lon="11.867313269023617"><ele>35.0</ele><time>2026-05-02T07:41:12.974Z</time></trkpt><trkpt lat="44.27339705427866" lon="11.867141773975286"><ele>35.0</ele><time>2026-05-02T07:41:13.974Z</time></trkpt><trkpt lat="44.27324823624413" lon="11.866975849666543"><ele>35.0</ele><time>2026-05-02T07:41:14.974Z</time></trkpt><trkpt lat="44.27308662767443" lon="11.866816537550937"><ele>35.0</ele><time>2026-05-02T07:41:15.974Z</time></trkpt><trkpt lat="44.27292973075719" lon="11.866647399287954"><ele>35.666666666666664</ele><time>2026-05-02T07:41:16.974Z</time></trkpt><trkpt lat="44.27277377124303" lon="11.866470027724384"><ele>36.333333333333336</ele><time>2026-05-02T07:41:17.974Z</time></trkpt><trkpt lat="44.27262001014308" lon="11.8662934379088"><ele>37.0</ele><time>2026-05-02T07:41:18.974Z</time></trkpt><trkpt lat="44.27246596765066" lon="11.86611677944039"><ele>36.66666666666667</ele><time>2026-05-02T07:41:19.974Z</time></trkpt><trkpt lat="44.272315289893335" lon="11.865937886134784"><ele>36.333333333333336</ele><time>2026-05-02T07:41:20.974Z</time></trkpt><trkpt lat="44.27217053959324" lon="11.865756431205472"><ele>36.0</ele><time>2026-05-02T07:41:21.974Z</time></trkpt><trkpt lat="44.272031682618184" lon="11.865602710006694"><ele>36.0</ele><time>2026-05-02T07:41:22.974Z</time></trkpt><trkpt lat="44.27189910682347" lon="11.865459198628564"><ele>36.0</ele><time>2026-05-02T07:41:23.974Z</time></trkpt><trkpt lat="44.27176308932977" lon="11.865341763488553"><ele>36.0</ele><time>2026-05-02T07:41:24.974Z</time></trkpt><trkpt lat="44.27160556114918" lon="11.865249535035478"><ele>36.0</ele><time>2026-05-02T07:41:25.974Z</time></trkpt><trkpt lat="44.271439129866586" lon="11.865185709859949"><ele>36.0</ele><time>2026-05-02T07:41:26.974Z</time></trkpt><trkpt lat="44.27125234044817" lon="11.865135316720986"><ele>36.0</ele><time>2026-05-02T07:41:27.974Z</time></trkpt><trkpt lat="44.27106035378651" lon="11.865073969150796"><ele>36.0</ele><time>2026-05-02T07:41:28.974Z</time></trkpt><trkpt lat="44.27086089419023" lon="11.864989466205534"><ele>36.0</ele><time>2026-05-02T07:41:29.974Z</time></trkpt><trkpt lat="44.270659014467135" lon="11.86490428633093"><ele>36.0</ele><time>2026-05-02T07:41:30.974Z</time></trkpt><trkpt lat="44.27046310646547" lon="11.86482388685769"><ele>35.666666666666664</ele><time>2026-05-02T07:41:31.974Z</time></trkpt><trkpt lat="44.27026762568155" lon="11.86474637852306"><ele>35.33333333333333</ele><time>2026-05-02T07:41:32.974Z</time></trkpt><trkpt lat="44.270080220944976" lon="11.864673506134686"><ele>35.0</ele><time>2026-05-02T07:41:33.974Z</time></trkpt><trkpt lat="44.26990925273031" lon="11.864606414709977"><ele>36.666666666666664</ele><time>2026-05-02T07:41:34.974Z</time></trkpt><trkpt lat="44.269746541623746" lon="11.864545969283204"><ele>38.333333333333336</ele><time>2026-05-02T07:41:35.974Z</time></trkpt><trkpt lat="44.26959480149869" lon="11.864481114327786"><ele>40.0</ele><time>2026-05-02T07:41:36.974Z</time></trkpt><trkpt lat="44.26945012955437" lon="11.864385958113328"><ele>40.333333333333336</ele><time>2026-05-02T07:41:37.974Z</time></trkpt><trkpt lat="44.26932519077923" lon="11.864247348368124"><ele>40.666666666666664</ele><time>2026-05-02T07:41:38.974Z</time></trkpt><trkpt lat="44.2691989932439" lon="11.864072910857745"><ele>41.0</ele><time>2026-05-02T07:41:39.974Z</time></trkpt><trkpt lat="44.269075078481634" lon="11.863902492762463"><ele>41.666666666666664</ele><time>2026-05-02T07:41:40.974Z</time></trkpt><trkpt lat="44.26894004645896" lon="11.863732276841409"><ele>42.333333333333336</ele><time>2026-05-02T07:41:41.974Z</time></trkpt><trkpt lat="44.26880122823941" lon="11.863552097534521"><ele>43.0</ele><time>2026-05-02T07:41:42.974Z</time></trkpt><trkpt lat="44.26866658798665" lon="11.86336283969023"><ele>43.0</ele><time>2026-05-02T07:41:43.974Z</time></trkpt><trkpt lat="44.268558068628515" lon="11.86313905677949"><ele>43.0</ele><time>2026-05-02T07:41:44.974Z</time></trkpt><trkpt lat="44.2684363227247" lon="11.862931238075646"><ele>43.0</ele><time>2026-05-02T07:41:45.974Z</time></trkpt><trkpt lat="44.2683424277659" lon="11.86272011389669"><ele>42.66666666666667</ele><time>2026-05-02T07:41:46.974Z</time></trkpt><trkpt lat="44.26829358726101" lon="11.862501697591483"><ele>42.333333333333336</ele><time>2026-05-02T07:41:47.974Z</time></trkpt><trkpt lat="44.26825458300235" lon="11.86228138892671"><ele>42.0</ele><time>2026-05-02T07:41:48.974Z</time></trkpt><trkpt lat="44.26820406381025" lon="11.862067527211751"><ele>42.0</ele><time>2026-05-02T07:41:49.974Z</time></trkpt><trkpt lat="44.26815965920853" lon="11.861867161921497"><ele>42.0</ele><time>2026-05-02T07:41:50.974Z</time></trkpt><trkpt lat="44.26808869649215" lon="11.861681493335514"><ele>42.0</ele><time>2026-05-02T07:41:51.974Z</time></trkpt><trkpt lat="44.26799319097284" lon="11.861485384014301"><ele>42.333333333333336</ele><time>2026-05-02T07:41:52.974Z</time></trkpt><trkpt lat="44.267894598285885" lon="11.861276958929032"><ele>42.66666666666667</ele><time>2026-05-02T07:41:53.974Z</time></trkpt><trkpt lat="44.26780032955114" lon="11.86104908736009"><ele>43.0</ele><time>2026-05-02T07:41:54.974Z</time></trkpt><trkpt lat="44.267709368115476" lon="11.860811897812244"><ele>43.333333333333336</ele><time>2026-05-02T07:41:55.974Z</time></trkpt><trkpt lat="44.26762061614963" lon="11.860574070664073"><ele>43.666666666666664</ele><time>2026-05-02T07:41:56.974Z</time></trkpt><trkpt lat="44.26754677219043" lon="11.860359169671504"><ele>44.0</ele><time>2026-05-02T07:41:57.974Z</time></trkpt><trkpt lat="44.267470501506544" lon="11.860161293405678"><ele>43.666666666666664</ele><time>2026-05-02T07:41:58.974Z</time></trkpt><trkpt lat="44.2673812742093" lon="11.859990441878221"><ele>43.333333333333336</ele><time>2026-05-02T07:41:59.974Z</time></trkpt><trkpt lat="44.267262917889596" lon="11.859838685938541"><ele>43.0</ele><time>2026-05-02T07:42:00.974Z</time></trkpt><trkpt lat="44.267125650521464" lon="11.859710449585535"><ele>43.0</ele><time>2026-05-02T07:42:01.974Z</time></trkpt><trkpt lat="44.26697116575851" lon="11.859590345803374"><ele>43.0</ele><time>2026-05-02T07:42:02.974Z</time></trkpt><trkpt lat="44.266809545177495" lon="11.859475500241858"><ele>43.0</ele><time>2026-05-02T07:42:03.974Z</time></trkpt><trkpt lat="44.26664687804433" lon="11.859364196958001"><ele>43.0</ele><time>2026-05-02T07:42:04.974Z</time></trkpt><trkpt lat="44.26649270994001" lon="11.859265577474188"><ele>43.0</ele><time>2026-05-02T07:42:05.974Z</time></trkpt><trkpt lat="44.266357273758935" lon="11.859161309816557"><ele>43.0</ele><time>2026-05-02T07:42:06.974Z</time></trkpt><trkpt lat="44.266230313542394" lon="11.859041141346545"><ele>43.0</ele><time>2026-05-02T07:42:07.974Z</time></trkpt><trkpt lat="44.266121280030404" lon="11.85889741923321"><ele>43.0</ele><time>2026-05-02T07:42:08.974Z</time></trkpt><trkpt lat="44.266041911144114" lon="11.858711962030188"><ele>43.0</ele><time>2026-05-02T07:42:09.974Z</time></trkpt><trkpt lat="44.2659823075527" lon="11.858515030468206"><ele>43.333333333333336</ele><time>2026-05-02T07:42:10.974Z</time></trkpt><trkpt lat="44.26591664083563" lon="11.858297351235397"><ele>43.666666666666664</ele><time>2026-05-02T07:42:11.974Z</time></trkpt><trkpt lat="44.26584270788582" lon="11.858071342592245"><ele>44.0</ele><time>2026-05-02T07:42:12.974Z</time></trkpt><trkpt lat="44.26575334590543" lon="11.857862827619734"><ele>44.0</ele><time>2026-05-02T07:42:13.974Z</time></trkpt><trkpt lat="44.265659929708" lon="11.857653382385415"><ele>44.0</ele><time>2026-05-02T07:42:14.974Z</time></trkpt><trkpt lat="44.26555346922914" lon="11.857453018669302"><ele>44.0</ele><time>2026-05-02T07:42:15.973Z</time></trkpt><trkpt lat="44.2654271438598" lon="11.857273236453164"><ele>44.33333333333333</ele><time>2026-05-02T07:42:16.973Z</time></trkpt><trkpt lat="44.265295620994955" lon="11.857078901314633"><ele>44.666666666666664</ele><time>2026-05-02T07:42:17.973Z</time></trkpt><trkpt lat="44.26517051616545" lon="11.856863566978552"><ele>45.0</ele><time>2026-05-02T07:42:18.973Z</time></trkpt><trkpt lat="44.265045213230025" lon="11.85663585814202"><ele>45.333333333333336</ele><time>2026-05-02T07:42:19.973Z</time></trkpt><trkpt lat="44.26491837473077" lon="11.856404269482377"><ele>45.66666666666667</ele><time>2026-05-02T07:42:20.973Z</time></trkpt><trkpt lat="44.26479634937654" lon="11.856166075561864"><ele>46.0</ele><time>2026-05-02T07:42:21.973Z</time></trkpt><trkpt lat="44.264672522583076" lon="11.855935600897578"><ele>46.0</ele><time>2026-05-02T07:42:22.973Z</time></trkpt><trkpt lat="44.26457718796094" lon="11.855691961496504"><ele>46.0</ele><time>2026-05-02T07:42:23.973Z</time></trkpt><trkpt lat="44.264456377258185" lon="11.855480794893614"><ele>46.0</ele><time>2026-05-02T07:42:24.973Z</time></trkpt><trkpt lat="44.26438014497861" lon="11.855256013759584"><ele>45.66666666666667</ele><time>2026-05-02T07:42:25.973Z</time></trkpt><trkpt lat="44.2642659437472" lon="11.855093979596688"><ele>45.333333333333336</ele><time>2026-05-02T07:42:26.973Z</time></trkpt><trkpt lat="44.26415196123666" lon="11.854938695754255"><ele>45.0</ele><time>2026-05-02T07:42:27.973Z</time></trkpt><trkpt lat="44.26405532761435" lon="11.854771599144495"><ele>45.0</ele><time>2026-05-02T07:42:28.973Z</time></trkpt><trkpt lat="44.263982959967244" lon="11.854572773778939"><ele>45.0</ele><time>2026-05-02T07:42:29.973Z</time></trkpt><trkpt lat="44.26392262267918" lon="11.854362284552625"><ele>45.0</ele><time>2026-05-02T07:42:30.973Z</time></trkpt><trkpt lat="44.26385864058046" lon="11.854171124002258"><ele>45.333333333333336</ele><time>2026-05-02T07:42:31.973Z</time></trkpt><trkpt lat="44.2637742422185" lon="11.854005763013197"><ele>45.66666666666667</ele><time>2026-05-02T07:42:32.973Z</time></trkpt><trkpt lat="44.26365627739982" lon="11.853858887194374"><ele>46.0</ele><time>2026-05-02T07:42:33.973Z</time></trkpt><trkpt lat="44.26351833604922" lon="11.853727166640995"><ele>46.0</ele><time>2026-05-02T07:42:34.973Z</time></trkpt><trkpt lat="44.26336825493354" lon="11.853608985449778"><ele>46.0</ele><time>2026-05-02T07:42:35.973Z</time></trkpt><trkpt lat="44.263212412362755" lon="11.853505528175916"><ele>46.0</ele><time>2026-05-02T07:42:36.973Z</time></trkpt><trkpt lat="44.263043913625445" lon="11.85340305487002"><ele>46.333333333333336</ele><time>2026-05-02T07:42:37.973Z</time></trkpt><trkpt lat="44.262873208443054" lon="11.85330816758941"><ele>46.666666666666664</ele><time>2026-05-02T07:42:38.973Z</time></trkpt><trkpt lat="44.26270471016846" lon="11.853221142079523"><ele>47.0</ele><time>2026-05-02T07:42:39.973Z</time></trkpt><trkpt lat="44.262538302541216" lon="11.853120821432913"><ele>47.0</ele><time>2026-05-02T07:42:40.973Z</time></trkpt><trkpt lat="44.262394354368666" lon="11.852969538492122"><ele>47.0</ele><time>2026-05-02T07:42:41.973Z</time></trkpt><trkpt lat="44.262232120350966" lon="11.85284309276649"><ele>47.0</ele><time>2026-05-02T07:42:42.973Z</time></trkpt><trkpt lat="44.262079152966024" lon="11.852711636523685"><ele>47.33333333333333</ele><time>2026-05-02T07:42:43.973Z</time></trkpt><trkpt lat="44.261914829716645" lon="11.852604551991906"><ele>47.666666666666664</ele><time>2026-05-02T07:42:44.973Z</time></trkpt><trkpt lat="44.26174091406928" lon="11.85252513298883"><ele>48.0</ele><time>2026-05-02T07:42:45.973Z</time></trkpt><trkpt lat="44.261567697725475" lon="11.852449523358349"><ele>48.33333333333333</ele><time>2026-05-02T07:42:46.973Z</time></trkpt><trkpt lat="44.261390282202505" lon="11.85238420278519"><ele>48.666666666666664</ele><time>2026-05-02T07:42:47.973Z</time></trkpt><trkpt lat="44.26120575199554" lon="11.85233497396026"><ele>49.0</ele><time>2026-05-02T07:42:48.973Z</time></trkpt><trkpt lat="44.261019462864226" lon="11.85229467513595"><ele>49.0</ele><time>2026-05-02T07:42:49.973Z</time></trkpt><trkpt lat="44.26083735473892" lon="11.85222926216978"><ele>49.0</ele><time>2026-05-02T07:42:50.973Z</time></trkpt><trkpt lat="44.26066228441848" lon="11.852119972948854"><ele>49.0</ele><time>2026-05-02T07:42:51.973Z</time></trkpt><trkpt lat="44.26047064770773" lon="11.852043775402436"><ele>48.666666666666664</ele><time>2026-05-02T07:42:52.973Z</time></trkpt><trkpt lat="44.26029368986084" lon="11.85195337869047"><ele>48.33333333333333</ele><time>2026-05-02T07:42:53.973Z</time></trkpt><trkpt lat="44.2601206581202" lon="11.851859967720074"><ele>48.0</ele><time>2026-05-02T07:42:54.973Z</time></trkpt><trkpt lat="44.259958138661226" lon="11.85176152508408"><ele>48.0</ele><time>2026-05-02T07:42:55.973Z</time></trkpt><trkpt lat="44.25980318192311" lon="11.851645639828666"><ele>48.0</ele><time>2026-05-02T07:42:56.973Z</time></trkpt><trkpt lat="44.25965020738211" lon="11.851512471031542"><ele>48.0</ele><time>2026-05-02T07:42:57.973Z</time></trkpt><trkpt lat="44.25951284520237" lon="11.851381954818303"><ele>48.25</ele><time>2026-05-02T07:42:58.973Z</time></trkpt><trkpt lat="44.25939208157105" lon="11.851253248527486"><ele>48.5</ele><time>2026-05-02T07:42:59.973Z</time></trkpt><trkpt lat="44.25930065150067" lon="11.851095095263183"><ele>48.75</ele><time>2026-05-02T07:43:00.973Z</time></trkpt><trkpt lat="44.259212888746205" lon="11.850932076052032"><ele>49.0</ele><time>2026-05-02T07:43:01.973Z</time></trkpt><trkpt lat="44.2591066654689" lon="11.850765105992778"><ele>49.33333333333333</ele><time>2026-05-02T07:43:02.973Z</time></trkpt><trkpt lat="44.2590098595668" lon="11.85058805920979"><ele>49.66666666666667</ele><time>2026-05-02T07:43:03.973Z</time></trkpt><trkpt lat="44.258900717016786" lon="11.85039737900306"><ele>50.0</ele><time>2026-05-02T07:43:04.973Z</time></trkpt><trkpt lat="44.258778619501406" lon="11.850208994504365"><ele>51.0</ele><time>2026-05-02T07:43:05.973Z</time></trkpt><trkpt lat="44.25864859917926" lon="11.850014273154844"><ele>52.0</ele><time>2026-05-02T07:43:06.973Z</time></trkpt><trkpt lat="44.258515483800736" lon="11.849821473885005"><ele>53.0</ele><time>2026-05-02T07:43:07.973Z</time></trkpt><trkpt lat="44.25838122948367" lon="11.849625254587604"><ele>53.0</ele><time>2026-05-02T07:43:08.973Z</time></trkpt><trkpt lat="44.25824308094759" lon="11.849423433001132"><ele>53.0</ele><time>2026-05-02T07:43:09.973Z</time></trkpt><trkpt lat="44.25810482835299" lon="11.84922344652665"><ele>53.0</ele><time>2026-05-02T07:43:10.973Z</time></trkpt><trkpt lat="44.257966252784335" lon="11.849015022677047"><ele>52.66666666666667</ele><time>2026-05-02T07:43:11.973Z</time></trkpt><trkpt lat="44.25782874048963" lon="11.848805485681938"><ele>52.33333333333333</ele><time>2026-05-02T07:43:12.973Z</time></trkpt><trkpt lat="44.2576932298359" lon="11.848588539294218"><ele>52.0</ele><time>2026-05-02T07:43:13.973Z</time></trkpt><trkpt lat="44.257566384956256" lon="11.848365205442189"><ele>52.0</ele><time>2026-05-02T07:43:14.973Z</time></trkpt><trkpt lat="44.25745358547959" lon="11.848118645497516"><ele>52.0</ele><time>2026-05-02T07:43:15.973Z</time></trkpt><trkpt lat="44.257323902151406" lon="11.847883941544518"><ele>52.0</ele><time>2026-05-02T07:43:16.973Z</time></trkpt><trkpt lat="44.25720942022743" lon="11.847628162051143"><ele>52.33333333333333</ele><time>2026-05-02T07:43:17.973Z</time></trkpt><trkpt lat="44.257086262192885" lon="11.847375513075168"><ele>52.66666666666667</ele><time>2026-05-02T07:43:18.973Z</time></trkpt><trkpt lat="44.25695118240873" lon="11.847121777250832"><ele>53.0</ele><time>2026-05-02T07:43:19.973Z</time></trkpt><trkpt lat="44.25680936726818" lon="11.846871519687609"><ele>52.66666666666667</ele><time>2026-05-02T07:43:20.973Z</time></trkpt><trkpt lat="44.25667119998069" lon="11.846636340318161"><ele>52.33333333333333</ele><time>2026-05-02T07:43:21.973Z</time></trkpt><trkpt lat="44.2565356447188" lon="11.846419374199876"><ele>52.0</ele><time>2026-05-02T07:43:22.973Z</time></trkpt><trkpt lat="44.25639450314123" lon="11.846221446507657"><ele>53.0</ele><time>2026-05-02T07:43:23.973Z</time></trkpt><trkpt lat="44.25625153856056" lon="11.846041131476824"><ele>54.0</ele><time>2026-05-02T07:43:24.973Z</time></trkpt><trkpt lat="44.25611340416107" lon="11.845868433014816"><ele>55.0</ele><time>2026-05-02T07:43:25.973Z</time></trkpt><trkpt lat="44.255973850388465" lon="11.845697331415113"><ele>55.0</ele><time>2026-05-02T07:43:26.973Z</time></trkpt><trkpt lat="44.25583011235059" lon="11.84552906329741"><ele>55.0</ele><time>2026-05-02T07:43:27.973Z</time></trkpt><trkpt lat="44.255697162961646" lon="11.84534268168932"><ele>55.0</ele><time>2026-05-02T07:43:28.973Z</time></trkpt><trkpt lat="44.25555519404988" lon="11.845167041920538"><ele>55.33333333333333</ele><time>2026-05-02T07:43:29.973Z</time></trkpt><trkpt lat="44.255415304320735" lon="11.84499022372459"><ele>55.66666666666667</ele><time>2026-05-02T07:43:30.973Z</time></trkpt><trkpt lat="44.25526737540565" lon="11.8448257599196"><ele>56.0</ele><time>2026-05-02T07:43:31.973Z</time></trkpt><trkpt lat="44.25514118656724" lon="11.844657782239205"><ele>56.0</ele><time>2026-05-02T07:43:32.973Z</time></trkpt><trkpt lat="44.25502061843158" lon="11.844506557822259"><ele>56.0</ele><time>2026-05-02T07:43:33.973Z</time></trkpt><trkpt lat="44.2548960863716" lon="11.844371773825477"><ele>56.0</ele><time>2026-05-02T07:43:34.973Z</time></trkpt><trkpt lat="44.25476909097805" lon="11.844266672642208"><ele>56.5</ele><time>2026-05-02T07:43:35.973Z</time></trkpt><trkpt lat="44.254628822181004" lon="11.84418296994594"><ele>57.0</ele><time>2026-05-02T07:43:36.973Z</time></trkpt><trkpt lat="44.25449342948134" lon="11.84411267665894"><ele>57.5</ele><time>2026-05-02T07:43:37.973Z</time></trkpt><trkpt lat="44.254357913201474" lon="11.844020414092974"><ele>58.0</ele><time>2026-05-02T07:43:38.973Z</time></trkpt><trkpt lat="44.254252409838784" lon="11.843866514818663"><ele>58.0</ele><time>2026-05-02T07:43:39.973Z</time></trkpt><trkpt lat="44.25415634897168" lon="11.843687777234775"><ele>58.0</ele><time>2026-05-02T07:43:40.973Z</time></trkpt><trkpt lat="44.25404335610959" lon="11.843501744428071"><ele>58.0</ele><time>2026-05-02T07:43:41.973Z</time></trkpt><trkpt lat="44.253942357480696" lon="11.843292141756946"><ele>58.33333333333333</ele><time>2026-05-02T07:43:42.973Z</time></trkpt><trkpt lat="44.25383206523877" lon="11.843078231967752"><ele>58.66666666666667</ele><time>2026-05-02T07:43:43.973Z</time></trkpt><trkpt lat="44.25371997383399" lon="11.842860878955618"><ele>59.0</ele><time>2026-05-02T07:43:44.973Z</time></trkpt><trkpt lat="44.25360652983288" lon="11.842634478637553"><ele>59.66666666666667</ele><time>2026-05-02T07:43:45.973Z</time></trkpt><trkpt lat="44.253503896005256" lon="11.842401626328666"><ele>60.33333333333333</ele><time>2026-05-02T07:43:46.973Z</time></trkpt><trkpt lat="44.25340548353615" lon="11.842168655825898"><ele>61.0</ele><time>2026-05-02T07:43:47.973Z</time></trkpt><trkpt lat="44.253308539129826" lon="11.84193913371282"><ele>61.0</ele><time>2026-05-02T07:43:48.973Z</time></trkpt><trkpt lat="44.25320463915046" lon="11.841707824192232"><ele>61.0</ele><time>2026-05-02T07:43:49.973Z</time></trkpt><trkpt lat="44.25308971210895" lon="11.84148739975056"><ele>61.0</ele><time>2026-05-02T07:43:50.973Z</time></trkpt><trkpt lat="44.25297219091767" lon="11.841294542528876"><ele>61.0</ele><time>2026-05-02T07:43:51.973Z</time></trkpt><trkpt lat="44.25286601401404" lon="11.84112169420983"><ele>61.0</ele><time>2026-05-02T07:43:52.973Z</time></trkpt><trkpt lat="44.25276676956487" lon="11.840971980171002"><ele>61.0</ele><time>2026-05-02T07:43:53.973Z</time></trkpt><trkpt lat="44.25266852391284" lon="11.840856710532758"><ele>61.0</ele><time>2026-05-02T07:43:54.973Z</time></trkpt><trkpt lat="44.252575997075205" lon="11.840763096786084"><ele>61.0</ele><time>2026-05-02T07:43:55.973Z</time></trkpt><trkpt lat="44.25248087261778" lon="11.840699207644292"><ele>60.99999999999999</ele><time>2026-05-02T07:43:56.973Z</time></trkpt><trkpt lat="44.25238481010684" lon="11.840670106785517"><ele>60.99999999999999</ele><time>2026-05-02T07:43:57.973Z</time></trkpt><trkpt lat="44.252286591802886" lon="11.840678540509977"><ele>61.0</ele><time>2026-05-02T07:43:58.973Z</time></trkpt><trkpt lat="44.25219210555649" lon="11.840739671259643"><ele>61.0</ele><time>2026-05-02T07:43:59.973Z</time></trkpt><trkpt lat="44.25209932138344" lon="11.84083607654612"><ele>61.0</ele><time>2026-05-02T07:44:00.973Z</time></trkpt><trkpt lat="44.2520026958635" lon="11.840949696539292"><ele>61.0</ele><time>2026-05-02T07:44:01.973Z</time></trkpt><trkpt lat="44.25187691049373" lon="11.841053915661906"><ele>61.0</ele><time>2026-05-02T07:44:02.973Z</time></trkpt><trkpt lat="44.251754534430184" lon="11.841205910367572"><ele>61.0</ele><time>2026-05-02T07:44:03.973Z</time></trkpt><trkpt lat="44.2516217742545" lon="11.841363130169654"><ele>61.0</ele><time>2026-05-02T07:44:04.973Z</time></trkpt><trkpt lat="44.25148479975175" lon="11.841521914729537"><ele>61.0</ele><time>2026-05-02T07:44:05.973Z</time></trkpt><trkpt lat="44.25134280574642" lon="11.841687649670442"><ele>61.0</ele><time>2026-05-02T07:44:06.973Z</time></trkpt><trkpt lat="44.25118961245699" lon="11.841866594734162"><ele>61.0</ele><time>2026-05-02T07:44:07.973Z</time></trkpt><trkpt lat="44.25102999799138" lon="11.84205256388088"><ele>61.0</ele><time>2026-05-02T07:44:08.973Z</time></trkpt><trkpt lat="44.250870231826894" lon="11.842246180366839"><ele>61.0</ele><time>2026-05-02T07:44:09.973Z</time></trkpt><trkpt lat="44.25070781543249" lon="11.842438018562943"><ele>62.33333333333333</ele><time>2026-05-02T07:44:10.973Z</time></trkpt><trkpt lat="44.25054478808585" lon="11.842623153087407"><ele>63.66666666666667</ele><time>2026-05-02T07:44:11.973Z</time></trkpt><trkpt lat="44.25038882110978" lon="11.842804472698287"><ele>65.0</ele><time>2026-05-02T07:44:12.973Z</time></trkpt><trkpt lat="44.25024579326593" lon="11.842974928686308"><ele>65.66666666666667</ele><time>2026-05-02T07:44:13.973Z</time></trkpt><trkpt lat="44.250115778683515" lon="11.8431299661072"><ele>66.33333333333333</ele><time>2026-05-02T07:44:14.973Z</time></trkpt><trkpt lat="44.249992474350385" lon="11.843276808144276"><ele>67.0</ele><time>2026-05-02T07:44:15.973Z</time></trkpt><trkpt lat="44.24988101034695" lon="11.843416578497342"><ele>68.6</ele><time>2026-05-02T07:44:16.973Z</time></trkpt><trkpt lat="44.24978799063231" lon="11.843535719879007"><ele>70.2</ele><time>2026-05-02T07:44:17.973Z</time></trkpt><trkpt lat="44.24971296624191" lon="11.843631027491"><ele>71.8</ele><time>2026-05-02T07:44:18.973Z</time></trkpt><trkpt lat="44.249652179388946" lon="11.843701065677587"><ele>73.4</ele><time>2026-05-02T07:44:19.973Z</time></trkpt><trkpt lat="44.24958670008215" lon="11.843746380031464"><ele>75.0</ele><time>2026-05-02T07:44:20.973Z</time></trkpt><trkpt lat="44.24949399240554" lon="11.843682027220492"><ele>75.0</ele><time>2026-05-02T07:44:22.972Z</time></trkpt><trkpt lat="44.24944939321312" lon="11.843537523111264"><ele>75.0</ele><time>2026-05-02T07:44:23.972Z</time></trkpt><trkpt lat="44.2493611277322" lon="11.843409159333248"><ele>75.0</ele><time>2026-05-02T07:44:24.972Z</time></trkpt><trkpt lat="44.24925968173878" lon="11.843257495433587"><ele>75.0</ele><time>2026-05-02T07:44:25.972Z</time></trkpt><trkpt lat="44.24915031726465" lon="11.843093622809818"><ele>73.33333333333333</ele><time>2026-05-02T07:44:26.972Z</time></trkpt><trkpt lat="44.24903092474084" lon="11.842918639724951"><ele>71.66666666666666</ele><time>2026-05-02T07:44:27.972Z</time></trkpt><trkpt lat="44.24890646487511" lon="11.84274340207346"><ele>70.0</ele><time>2026-05-02T07:44:28.972Z</time></trkpt><trkpt lat="44.24878813225952" lon="11.842577686630731"><ele>69.0</ele><time>2026-05-02T07:44:29.972Z</time></trkpt><trkpt lat="44.248678844573206" lon="11.842413046544712"><ele>68.0</ele><time>2026-05-02T07:44:30.972Z</time></trkpt><trkpt lat="44.24858555425925" lon="11.842231811469404"><ele>67.0</ele><time>2026-05-02T07:44:31.972Z</time></trkpt><trkpt lat="44.24853195198854" lon="11.842021730490899"><ele>67.0</ele><time>2026-05-02T07:44:32.972Z</time></trkpt><trkpt lat="44.24847394899876" lon="11.841826431263637"><ele>67.0</ele><time>2026-05-02T07:44:33.973Z</time></trkpt><trkpt lat="44.24841589682417" lon="11.841639787495431"><ele>67.0</ele><time>2026-05-02T07:44:34.973Z</time></trkpt><trkpt lat="44.24832624498611" lon="11.84147297431721"><ele>67.0</ele><time>2026-05-02T07:44:35.973Z</time></trkpt><trkpt lat="44.24820648943535" lon="11.841313374823997"><ele>67.33333333333333</ele><time>2026-05-02T07:44:36.973Z</time></trkpt><trkpt lat="44.24808385218986" lon="11.841148887508895"><ele>67.66666666666667</ele><time>2026-05-02T07:44:37.973Z</time></trkpt><trkpt lat="44.247965549491404" lon="11.840995016684408"><ele>68.0</ele><time>2026-05-02T07:44:38.973Z</time></trkpt><trkpt lat="44.24785493242631" lon="11.840839500203593"><ele>67.33333333333334</ele><time>2026-05-02T07:44:39.973Z</time></trkpt><trkpt lat="44.24774434226099" lon="11.840701903967492"><ele>66.66666666666667</ele><time>2026-05-02T07:44:40.973Z</time></trkpt><trkpt lat="44.24762787012757" lon="11.840554423440402"><ele>66.0</ele><time>2026-05-02T07:44:41.973Z</time></trkpt><trkpt lat="44.24750795264253" lon="11.840404664523552"><ele>66.0</ele><time>2026-05-02T07:44:42.973Z</time></trkpt><trkpt lat="44.24739095604315" lon="11.840287744624609"><ele>66.0</ele><time>2026-05-02T07:44:43.973Z</time></trkpt><trkpt lat="44.247258418184195" lon="11.840221285564382"><ele>66.0</ele><time>2026-05-02T07:44:44.973Z</time></trkpt><trkpt lat="44.24711360089844" lon="11.840177037786278"><ele>66.0</ele><time>2026-05-02T07:44:45.973Z</time></trkpt><trkpt lat="44.246981193687716" lon="11.840127667861372"><ele>66.25</ele><time>2026-05-02T07:44:46.973Z</time></trkpt><trkpt lat="44.24686390495249" lon="11.840033728455774"><ele>66.5</ele><time>2026-05-02T07:44:47.973Z</time></trkpt><trkpt lat="44.246776712251844" lon="11.839877129420369"><ele>66.75</ele><time>2026-05-02T07:44:48.973Z</time></trkpt><trkpt lat="44.24668019908256" lon="11.839707418562352"><ele>67.0</ele><time>2026-05-02T07:44:49.973Z</time></trkpt><trkpt lat="44.24657847667582" lon="11.839540048642677"><ele>67.0</ele><time>2026-05-02T07:44:50.973Z</time></trkpt><trkpt lat="44.24648956618863" lon="11.839363214823136"><ele>67.0</ele><time>2026-05-02T07:44:51.973Z</time></trkpt><trkpt lat="44.246401867773365" lon="11.839200790654486"><ele>67.0</ele><time>2026-05-02T07:44:52.973Z</time></trkpt><trkpt lat="44.246310738327765" lon="11.839055606353924"><ele>67.0</ele><time>2026-05-02T07:44:53.973Z</time></trkpt><trkpt lat="44.24619663241707" lon="11.83893462238212"><ele>68.0</ele><time>2026-05-02T07:44:54.973Z</time></trkpt><trkpt lat="44.246065371155446" lon="11.838823436303297"><ele>69.0</ele><time>2026-05-02T07:44:55.973Z</time></trkpt><trkpt lat="44.24592503631908" lon="11.838712455733468"><ele>70.0</ele><time>2026-05-02T07:44:56.973Z</time></trkpt><trkpt lat="44.24579290668659" lon="11.838593082922749"><ele>69.66666666666666</ele><time>2026-05-02T07:44:57.973Z</time></trkpt><trkpt lat="44.245664776340874" lon="11.838459846582523"><ele>69.33333333333333</ele><time>2026-05-02T07:44:58.973Z</time></trkpt><trkpt lat="44.24554067136582" lon="11.838306524782533"><ele>69.0</ele><time>2026-05-02T07:44:59.973Z</time></trkpt><trkpt lat="44.24541915353526" lon="11.8381449945255"><ele>70.0</ele><time>2026-05-02T07:45:00.973Z</time></trkpt><trkpt lat="44.24529047524831" lon="11.837989623134696"><ele>71.0</ele><time>2026-05-02T07:45:01.973Z</time></trkpt><trkpt lat="44.24515211000919" lon="11.837833594103445"><ele>72.0</ele><time>2026-05-02T07:45:02.973Z</time></trkpt><trkpt lat="44.245011596616195" lon="11.83767533111705"><ele>72.0</ele><time>2026-05-02T07:45:03.973Z</time></trkpt><trkpt lat="44.24487281279278" lon="11.837512658107705"><ele>72.0</ele><time>2026-05-02T07:45:04.973Z</time></trkpt><trkpt lat="44.24474111989384" lon="11.837347107756212"><ele>72.0</ele><time>2026-05-02T07:45:05.973Z</time></trkpt><trkpt lat="44.244618466569186" lon="11.8371762387459"><ele>72.0</ele><time>2026-05-02T07:45:06.973Z</time></trkpt><trkpt lat="44.2445355472114" lon="11.836970456107691"><ele>72.0</ele><time>2026-05-02T07:45:07.973Z</time></trkpt><trkpt lat="44.2444317484782" lon="11.83677701053129"><ele>72.0</ele><time>2026-05-02T07:45:08.973Z</time></trkpt><trkpt lat="44.24434417449195" lon="11.83656718371278"><ele>71.66666666666667</ele><time>2026-05-02T07:45:09.973Z</time></trkpt><trkpt lat="44.244232229047064" lon="11.836374336460379"><ele>71.33333333333334</ele><time>2026-05-02T07:45:10.973Z</time></trkpt><trkpt lat="44.24410270364211" lon="11.836201061179302"><ele>71.0</ele><time>2026-05-02T07:45:11.973Z</time></trkpt><trkpt lat="44.24395677127799" lon="11.836054359381627"><ele>72.0</ele><time>2026-05-02T07:45:12.973Z</time></trkpt><trkpt lat="44.24380176930506" lon="11.835906452887045"><ele>73.0</ele><time>2026-05-02T07:45:13.973Z</time></trkpt><trkpt lat="44.24364734307301" lon="11.83576624092954"><ele>74.0</ele><time>2026-05-02T07:45:14.973Z</time></trkpt><trkpt lat="44.24349475767806" lon="11.83565291509246"><ele>74.0</ele><time>2026-05-02T07:45:15.973Z</time></trkpt><trkpt lat="44.243337714380296" lon="11.835576006612522"><ele>74.0</ele><time>2026-05-02T07:45:16.973Z</time></trkpt><trkpt lat="44.24317725224766" lon="11.835499530676868"><ele>74.0</ele><time>2026-05-02T07:45:17.973Z</time></trkpt><trkpt lat="44.24301843474334" lon="11.835421877321956"><ele>75.0</ele><time>2026-05-02T07:45:18.973Z</time></trkpt><trkpt lat="44.242860323730426" lon="11.83535599850379"><ele>76.0</ele><time>2026-05-02T07:45:19.973Z</time></trkpt><trkpt lat="44.24270098223318" lon="11.835261116190546"><ele>77.0</ele><time>2026-05-02T07:45:20.973Z</time></trkpt><trkpt lat="44.24254672246535" lon="11.835134558479668"><ele>77.0</ele><time>2026-05-02T07:45:21.973Z</time></trkpt><trkpt lat="44.24241293734228" lon="11.834963957414008"><ele>77.0</ele><time>2026-05-02T07:45:22.973Z</time></trkpt><trkpt lat="44.2422597966505" lon="11.834809724673388"><ele>77.0</ele><time>2026-05-02T07:45:23.973Z</time></trkpt><trkpt lat="44.24211821444727" lon="11.834633063478385"><ele>77.66666666666667</ele><time>2026-05-02T07:45:24.973Z</time></trkpt><trkpt lat="44.24196337117821" lon="11.834464242752302"><ele>78.33333333333333</ele><time>2026-05-02T07:45:25.973Z</time></trkpt><trkpt lat="44.24179909398795" lon="11.834301706808954"><ele>79.0</ele><time>2026-05-02T07:45:26.973Z</time></trkpt><trkpt lat="44.241630316888966" lon="11.834144235182187"><ele>80.33333333333333</ele><time>2026-05-02T07:45:27.973Z</time></trkpt><trkpt lat="44.241451025731" lon="11.83398662972286"><ele>81.66666666666667</ele><time>2026-05-02T07:45:28.973Z</time></trkpt><trkpt lat="44.241273832978735" lon="11.833832609558687"><ele>83.0</ele><time>2026-05-02T07:45:29.973Z</time></trkpt><trkpt lat="44.24110070171458" lon="11.833671052769423"><ele>83.0</ele><time>2026-05-02T07:45:30.973Z</time></trkpt><trkpt lat="44.240942576671735" lon="11.833501953905293"><ele>83.0</ele><time>2026-05-02T07:45:31.973Z</time></trkpt><trkpt lat="44.24080153594734" lon="11.83333021058685"><ele>83.0</ele><time>2026-05-02T07:45:32.973Z</time></trkpt><trkpt lat="44.24067486463851" lon="11.833158963201944"><ele>84.66666666666667</ele><time>2026-05-02T07:45:33.973Z</time></trkpt><trkpt lat="44.24056244016567" lon="11.83298035100493"><ele>86.33333333333333</ele><time>2026-05-02T07:45:34.973Z</time></trkpt><trkpt lat="44.2404745579201" lon="11.832810790280694"><ele>88.0</ele><time>2026-05-02T07:45:35.973Z</time></trkpt><trkpt lat="44.240403345406385" lon="11.832658061390488"><ele>87.80000000000001</ele><time>2026-05-02T07:45:36.973Z</time></trkpt><trkpt lat="44.24037031771352" lon="11.832505493287634"><ele>87.6</ele><time>2026-05-02T07:45:37.971Z</time></trkpt><trkpt lat="44.24034918203118" lon="11.832375934257016"><ele>87.4</ele><time>2026-05-02T07:45:38.969Z</time></trkpt><trkpt lat="44.24034984889074" lon="11.83223883204141"><ele>87.19999999999999</ele><time>2026-05-02T07:45:39.967Z</time></trkpt><trkpt lat="44.24036770773198" lon="11.832094706915585"><ele>87.0</ele><time>2026-05-02T07:45:40.965Z</time></trkpt><trkpt lat="44.24045931894395" lon="11.831977289540031"><ele>87.0</ele><time>2026-05-02T07:45:41.963Z</time></trkpt><trkpt lat="44.240543334349226" lon="11.83183460204906"><ele>87.0</ele><time>2026-05-02T07:45:42.962Z</time></trkpt><trkpt lat="44.24063456527927" lon="11.831677907153395"><ele>87.0</ele><time>2026-05-02T07:45:43.96Z</time></trkpt><trkpt lat="44.240721612156506" lon="11.831530249205692"><ele>87.0</ele><time>2026-05-02T07:45:44.959Z</time></trkpt><trkpt lat="44.24079680961891" lon="11.83139819628151"><ele>86.0</ele><time>2026-05-02T07:45:45.957Z</time></trkpt><trkpt lat="44.24086359635965" lon="11.83129581343169"><ele>85.0</ele><time>2026-05-02T07:45:46.956Z</time></trkpt><trkpt lat="44.24090934521761" lon="11.831204184104156"><ele>84.0</ele><time>2026-05-02T07:45:47.955Z</time></trkpt><trkpt lat="44.24095924571219" lon="11.831050603385433"><ele>83.0</ele><time>2026-05-02T07:45:49.953Z</time></trkpt><trkpt lat="44.24094210251874" lon="11.83093779933146"><ele>82.0</ele><time>2026-05-02T07:45:50.952Z</time></trkpt><trkpt lat="44.24087276227434" lon="11.830819615206401"><ele>82.0</ele><time>2026-05-02T07:45:51.951Z</time></trkpt><trkpt lat="44.24078195595926" lon="11.830680423352602"><ele>82.0</ele><time>2026-05-02T07:45:52.95Z</time></trkpt><trkpt lat="44.24068063664342" lon="11.83052868824964"><ele>82.0</ele><time>2026-05-02T07:45:53.949Z</time></trkpt><trkpt lat="44.240574033696824" lon="11.83036460268845"><ele>82.0</ele><time>2026-05-02T07:45:54.948Z</time></trkpt><trkpt lat="44.24046047237312" lon="11.830186804788957"><ele>81.66666666666666</ele><time>2026-05-02T07:45:55.947Z</time></trkpt><trkpt lat="44.24034384065784" lon="11.830000205571057"><ele>81.33333333333333</ele><time>2026-05-02T07:45:56.947Z</time></trkpt><trkpt lat="44.24024308002856" lon="11.829792321769853"><ele>81.0</ele><time>2026-05-02T07:45:57.946Z</time></trkpt><trkpt lat="44.24012013048264" lon="11.829596502209627"><ele>81.0</ele><time>2026-05-02T07:45:58.946Z</time></trkpt><trkpt lat="44.239992407708655" lon="11.829390400387837"><ele>81.0</ele><time>2026-05-02T07:45:59.945Z</time></trkpt><trkpt lat="44.23986512653566" lon="11.82918523676141"><ele>81.0</ele><time>2026-05-02T07:46:00.945Z</time></trkpt><trkpt lat="44.23973590550994" lon="11.828974852986178"><ele>82.33333333333333</ele><time>2026-05-02T07:46:01.944Z</time></trkpt><trkpt lat="44.2396080243211" lon="11.828765840213764"><ele>83.66666666666666</ele><time>2026-05-02T07:46:02.944Z</time></trkpt><trkpt lat="44.23948175554762" lon="11.828547612411992"><ele>85.0</ele><time>2026-05-02T07:46:03.943Z</time></trkpt><trkpt lat="44.23935695719666" lon="11.82833911321136"><ele>85.0</ele><time>2026-05-02T07:46:04.943Z</time></trkpt><trkpt lat="44.23923317066142" lon="11.828129338122569"><ele>85.0</ele><time>2026-05-02T07:46:05.942Z</time></trkpt><trkpt lat="44.23910680448496" lon="11.827918650756581"><ele>85.0</ele><time>2026-05-02T07:46:06.942Z</time></trkpt><trkpt lat="44.23898865086136" lon="11.827718554554552"><ele>85.33333333333333</ele><time>2026-05-02T07:46:07.942Z</time></trkpt><trkpt lat="44.23888164542153" lon="11.827533530598979"><ele>85.66666666666667</ele><time>2026-05-02T07:46:08.941Z</time></trkpt><trkpt lat="44.238778366442425" lon="11.827355332797934"><ele>86.0</ele><time>2026-05-02T07:46:09.941Z</time></trkpt><trkpt lat="44.23867584979139" lon="11.827187986496046"><ele>86.0</ele><time>2026-05-02T07:46:10.941Z</time></trkpt><trkpt lat="44.238573566906545" lon="11.827022956187959"><ele>86.0</ele><time>2026-05-02T07:46:11.941Z</time></trkpt><trkpt lat="44.23847375090433" lon="11.826850091913713"><ele>86.0</ele><time>2026-05-02T07:46:12.94Z</time></trkpt><trkpt lat="44.238378222662355" lon="11.826665051440381"><ele>85.66666666666667</ele><time>2026-05-02T07:46:13.94Z</time></trkpt><trkpt lat="44.23827759630746" lon="11.826476512603012"><ele>85.33333333333333</ele><time>2026-05-02T07:46:14.94Z</time></trkpt><trkpt lat="44.238160773438764" lon="11.826286795114648"><ele>85.0</ele><time>2026-05-02T07:46:15.94Z</time></trkpt><trkpt lat="44.23803023810955" lon="11.826099850988697"><ele>85.33333333333333</ele><time>2026-05-02T07:46:16.939Z</time></trkpt><trkpt lat="44.23788773776749" lon="11.825915779288982"><ele>85.66666666666667</ele><time>2026-05-02T07:46:17.939Z</time></trkpt><trkpt lat="44.23773799503047" lon="11.825740380538276"><ele>86.0</ele><time>2026-05-02T07:46:18.939Z</time></trkpt><trkpt lat="44.237590720278654" lon="11.825571553705636"><ele>86.0</ele><time>2026-05-02T07:46:19.939Z</time></trkpt><trkpt lat="44.237449542915805" lon="11.825413232236803"><ele>86.0</ele><time>2026-05-02T07:46:20.939Z</time></trkpt><trkpt lat="44.23730931926493" lon="11.825266625126535"><ele>86.0</ele><time>2026-05-02T07:46:21.939Z</time></trkpt><trkpt lat="44.23717481830088" lon="11.825131979984345"><ele>85.8</ele><time>2026-05-02T07:46:22.938Z</time></trkpt><trkpt lat="44.237053339060445" lon="11.82501404679593"><ele>85.6</ele><time>2026-05-02T07:46:23.938Z</time></trkpt><trkpt lat="44.23695465822182" lon="11.824917559366018"><ele>85.4</ele><time>2026-05-02T07:46:24.938Z</time></trkpt><trkpt lat="44.236877746921714" lon="11.824825845493146"><ele>85.2</ele><time>2026-05-02T07:46:25.938Z</time></trkpt><trkpt lat="44.236821268733244" lon="11.824750406802167"><ele>85.0</ele><time>2026-05-02T07:46:26.938Z</time></trkpt><trkpt lat="44.23678992618725" lon="11.82464242323089"><ele>85.0</ele><time>2026-05-02T07:46:27.937Z</time></trkpt><trkpt lat="44.2367869395733" lon="11.824502053699488"><ele>85.0</ele><time>2026-05-02T07:46:28.937Z</time></trkpt><trkpt lat="44.23685476283791" lon="11.82436788744916"><ele>85.0</ele><time>2026-05-02T07:46:29.937Z</time></trkpt><trkpt lat="44.23691912308074" lon="11.82421731416669"><ele>85.0</ele><time>2026-05-02T07:46:30.936Z</time></trkpt><trkpt lat="44.23699673178407" lon="11.824048988021048"><ele>85.66666666666666</ele><time>2026-05-02T07:46:31.937Z</time></trkpt><trkpt lat="44.237084368734" lon="11.82386871293094"><ele>86.33333333333333</ele><time>2026-05-02T07:46:32.937Z</time></trkpt><trkpt lat="44.23718132773393" lon="11.823674883176336"><ele>87.0</ele><time>2026-05-02T07:46:33.936Z</time></trkpt><trkpt lat="44.23727559903356" lon="11.823495447704486"><ele>86.39999999999999</ele><time>2026-05-02T07:46:34.936Z</time></trkpt><trkpt lat="44.23735602229095" lon="11.82336092800303"><ele>85.8</ele><time>2026-05-02T07:46:35.936Z</time></trkpt><trkpt lat="44.2374149188861" lon="11.82323698619288"><ele>85.2</ele><time>2026-05-02T07:46:36.936Z</time></trkpt><trkpt lat="44.23744763882074" lon="11.823103135399586"><ele>84.6</ele><time>2026-05-02T07:46:37.936Z</time></trkpt><trkpt lat="44.2374434662518" lon="11.822956146753768"><ele>84.0</ele><time>2026-05-02T07:46:38.936Z</time></trkpt><trkpt lat="44.23741764315099" lon="11.822782202542735"><ele>84.0</ele><time>2026-05-02T07:46:39.936Z</time></trkpt><trkpt lat="44.23736502237331" lon="11.822616143377061"><ele>84.0</ele><time>2026-05-02T07:46:40.936Z</time></trkpt><trkpt lat="44.23729703273578" lon="11.822443029312739"><ele>84.0</ele><time>2026-05-02T07:46:41.936Z</time></trkpt><trkpt lat="44.23722844021775" lon="11.822271914662043"><ele>84.0</ele><time>2026-05-02T07:46:42.936Z</time></trkpt><trkpt lat="44.23714062782939" lon="11.822097778404176"><ele>84.0</ele><time>2026-05-02T07:46:43.936Z</time></trkpt><trkpt lat="44.23703116068224" lon="11.821921255375866"><ele>84.0</ele><time>2026-05-02T07:46:44.936Z</time></trkpt><trkpt lat="44.23691299837417" lon="11.821744341108205"><ele>84.0</ele><time>2026-05-02T07:46:45.935Z</time></trkpt><trkpt lat="44.23679297728548" lon="11.821554601473242"><ele>84.0</ele><time>2026-05-02T07:46:46.935Z</time></trkpt><trkpt lat="44.236669478134075" lon="11.821358599932069"><ele>84.0</ele><time>2026-05-02T07:46:47.935Z</time></trkpt><trkpt lat="44.236538421662736" lon="11.82115239321567"><ele>84.0</ele><time>2026-05-02T07:46:48.935Z</time></trkpt><trkpt lat="44.23640051532298" lon="11.820940109728204"><ele>84.33333333333333</ele><time>2026-05-02T07:46:49.935Z</time></trkpt><trkpt lat="44.23625845790928" lon="11.820718186842008"><ele>84.66666666666666</ele><time>2026-05-02T07:46:50.935Z</time></trkpt><trkpt lat="44.23611702697476" lon="11.820490034990472"><ele>85.0</ele><time>2026-05-02T07:46:51.935Z</time></trkpt><trkpt lat="44.23597889082184" lon="11.820255485000667"><ele>82.5</ele><time>2026-05-02T07:46:52.935Z</time></trkpt><trkpt lat="44.23586163951609" lon="11.819985966403076"><ele>80.0</ele><time>2026-05-02T07:46:53.935Z</time></trkpt><trkpt lat="44.23574253611581" lon="11.819714637865047"><ele>80.33333333333334</ele><time>2026-05-02T07:46:54.935Z</time></trkpt><trkpt lat="44.235633921615076" lon="11.819452933119877"><ele>80.66666666666667</ele><time>2026-05-02T07:46:55.935Z</time></trkpt><trkpt lat="44.23551392047466" lon="11.819205583996615"><ele>81.0</ele><time>2026-05-02T07:46:56.935Z</time></trkpt><trkpt lat="44.23541545418621" lon="11.81894702125882"><ele>81.0</ele><time>2026-05-02T07:46:57.935Z</time></trkpt><trkpt lat="44.235313666360454" lon="11.818693572789583"><ele>81.0</ele><time>2026-05-02T07:46:58.935Z</time></trkpt><trkpt lat="44.23521323358486" lon="11.818443548276283"><ele>81.0</ele><time>2026-05-02T07:46:59.935Z</time></trkpt><trkpt lat="44.2351144732166" lon="11.818186511815158"><ele>80.0</ele><time>2026-05-02T07:47:00.935Z</time></trkpt><trkpt lat="44.235017020249884" lon="11.817937726157338"><ele>79.0</ele><time>2026-05-02T07:47:01.935Z</time></trkpt><trkpt lat="44.23491678964352" lon="11.817702724915359"><ele>78.0</ele><time>2026-05-02T07:47:02.935Z</time></trkpt><trkpt lat="44.23482285615077" lon="11.817458592936564"><ele>78.0</ele><time>2026-05-02T07:47:03.935Z</time></trkpt><trkpt lat="44.23472950599164" lon="11.817219029956307"><ele>78.0</ele><time>2026-05-02T07:47:04.935Z</time></trkpt><trkpt lat="44.23463801194256" lon="11.816985807261887"><ele>78.0</ele><time>2026-05-02T07:47:05.935Z</time></trkpt><trkpt lat="44.23454707974586" lon="11.816747205259526"><ele>78.0</ele><time>2026-05-02T07:47:06.935Z</time></trkpt><trkpt lat="44.23445390601417" lon="11.81651225251387"><ele>78.0</ele><time>2026-05-02T07:47:07.935Z</time></trkpt><trkpt lat="44.23437465219168" lon="11.816273853315264"><ele>78.0</ele><time>2026-05-02T07:47:08.935Z</time></trkpt><trkpt lat="44.23425225702702" lon="11.816051046088466"><ele>78.66666666666667</ele><time>2026-05-02T07:47:09.935Z</time></trkpt><trkpt lat="44.23411840969398" lon="11.815825700406313"><ele>79.33333333333334</ele><time>2026-05-02T07:47:10.935Z</time></trkpt><trkpt lat="44.23397554701458" lon="11.815598099529751"><ele>80.0</ele><time>2026-05-02T07:47:11.935Z</time></trkpt><trkpt lat="44.23382316945453" lon="11.815365920000163"><ele>78.5</ele><time>2026-05-02T07:47:12.935Z</time></trkpt><trkpt lat="44.233665624874114" lon="11.815127811712163"><ele>77.0</ele><time>2026-05-02T07:47:13.935Z</time></trkpt><trkpt lat="44.23350872679333" lon="11.814887256188754"><ele>77.0</ele><time>2026-05-02T07:47:14.935Z</time></trkpt><trkpt lat="44.23334884717389" lon="11.814641132966376"><ele>77.0</ele><time>2026-05-02T07:47:15.935Z</time></trkpt><trkpt lat="44.23318831908049" lon="11.814396321913994"><ele>78.0</ele><time>2026-05-02T07:47:16.935Z</time></trkpt><trkpt lat="44.23302956541782" lon="11.814150512251773"><ele>79.0</ele><time>2026-05-02T07:47:17.935Z</time></trkpt><trkpt lat="44.2328832196464" lon="11.813920980332139"><ele>79.0</ele><time>2026-05-02T07:47:18.935Z</time></trkpt><trkpt lat="44.2327427970468" lon="11.813696881864562"><ele>79.0</ele><time>2026-05-02T07:47:19.935Z</time></trkpt><trkpt lat="44.23261370613644" lon="11.813487113690181"><ele>79.0</ele><time>2026-05-02T07:47:20.935Z</time></trkpt><trkpt lat="44.23249192167306" lon="11.813286419281063"><ele>78.5</ele><time>2026-05-02T07:47:21.935Z</time></trkpt><trkpt lat="44.232385337829726" lon="11.813113812927964"><ele>78.0</ele><time>2026-05-02T07:47:22.935Z</time></trkpt><trkpt lat="44.23229956467969" lon="11.812971338162079"><ele>77.5</ele><time>2026-05-02T07:47:23.935Z</time></trkpt><trkpt lat="44.232230588436735" lon="11.812868533231823"><ele>77.0</ele><time>2026-05-02T07:47:24.935Z</time></trkpt><trkpt lat="44.23215182743886" lon="11.812796863019079"><ele>77.8</ele><time>2026-05-02T07:47:25.935Z</time></trkpt><trkpt lat="44.23205291741717" lon="11.812763937377808"><ele>78.6</ele><time>2026-05-02T07:47:26.935Z</time></trkpt><trkpt lat="44.23194418997621" lon="11.812766462252238"><ele>79.39999999999999</ele><time>2026-05-02T07:47:27.935Z</time></trkpt><trkpt lat="44.2318355316812" lon="11.812815153851954"><ele>80.2</ele><time>2026-05-02T07:47:28.935Z</time></trkpt><trkpt lat="44.231735636950795" lon="11.812898969512835"><ele>81.0</ele><time>2026-05-02T07:47:29.935Z</time></trkpt><trkpt lat="44.231641011077556" lon="11.813013860048597"><ele>81.0</ele><time>2026-05-02T07:47:30.935Z</time></trkpt><trkpt lat="44.23152600925796" lon="11.813114054427412"><ele>81.0</ele><time>2026-05-02T07:47:31.935Z</time></trkpt><trkpt lat="44.23141939267739" lon="11.813236740566301"><ele>81.0</ele><time>2026-05-02T07:47:32.935Z</time></trkpt><trkpt lat="44.231308693704094" lon="11.813352810627087"><ele>81.0</ele><time>2026-05-02T07:47:33.935Z</time></trkpt><trkpt lat="44.2312021994552" lon="11.81345851758011"><ele>81.8</ele><time>2026-05-02T07:47:34.935Z</time></trkpt><trkpt lat="44.23109998648885" lon="11.813527005751101"><ele>82.6</ele><time>2026-05-02T07:47:35.935Z</time></trkpt><trkpt lat="44.23099906540267" lon="11.813558442765"><ele>83.4</ele><time>2026-05-02T07:47:36.935Z</time></trkpt><trkpt lat="44.230889692789574" lon="11.813548710909206"><ele>84.2</ele><time>2026-05-02T07:47:37.935Z</time></trkpt><trkpt lat="44.23077468199532" lon="11.813506792439833"><ele>85.0</ele><time>2026-05-02T07:47:38.935Z</time></trkpt><trkpt lat="44.23065702427934" lon="11.813425197278903"><ele>86.33333333333333</ele><time>2026-05-02T07:47:39.935Z</time></trkpt><trkpt lat="44.23052839861037" lon="11.813395617357664"><ele>87.66666666666667</ele><time>2026-05-02T07:47:40.935Z</time></trkpt><trkpt lat="44.230420574139586" lon="11.813143478703934"><ele>89.0</ele><time>2026-05-02T07:47:41.935Z</time></trkpt><trkpt lat="44.23028648203963" lon="11.812970533887173"><ele>89.0</ele><time>2026-05-02T07:47:42.935Z</time></trkpt><trkpt lat="44.23014626069833" lon="11.812795867339469"><ele>89.0</ele><time>2026-05-02T07:47:43.935Z</time></trkpt><trkpt lat="44.23001371423728" lon="11.812633068276162"><ele>89.0</ele><time>2026-05-02T07:47:44.935Z</time></trkpt><trkpt lat="44.22989034311896" lon="11.81248151581421"><ele>88.66666666666667</ele><time>2026-05-02T07:47:45.935Z</time></trkpt><trkpt lat="44.22977035932451" lon="11.81233988871751"><ele>88.33333333333333</ele><time>2026-05-02T07:47:46.935Z</time></trkpt><trkpt lat="44.22964147183661" lon="11.812220099068682"><ele>88.0</ele><time>2026-05-02T07:47:47.935Z</time></trkpt><trkpt lat="44.22949648636169" lon="11.812110550147377"><ele>88.0</ele><time>2026-05-02T07:47:48.934Z</time></trkpt><trkpt lat="44.229350305871186" lon="11.81200433662886"><ele>88.0</ele><time>2026-05-02T07:47:49.934Z</time></trkpt><trkpt lat="44.22919527842995" lon="11.811903423693781"><ele>88.0</ele><time>2026-05-02T07:47:50.934Z</time></trkpt><trkpt lat="44.229038225999865" lon="11.811804804322644"><ele>89.0</ele><time>2026-05-02T07:47:51.934Z</time></trkpt><trkpt lat="44.228886188219455" lon="11.811703363988455"><ele>90.0</ele><time>2026-05-02T07:47:52.934Z</time></trkpt><trkpt lat="44.22873038497095" lon="11.81159638000003"><ele>91.0</ele><time>2026-05-02T07:47:53.934Z</time></trkpt><trkpt lat="44.228582572533625" lon="11.811488580076983"><ele>91.0</ele><time>2026-05-02T07:47:54.934Z</time></trkpt><trkpt lat="44.228440117021485" lon="11.811364878429849"><ele>91.0</ele><time>2026-05-02T07:47:55.934Z</time></trkpt><trkpt lat="44.22829619045226" lon="11.811236014189125"><ele>91.0</ele><time>2026-05-02T07:47:56.934Z</time></trkpt><trkpt lat="44.2281467741206" lon="11.811106493698723"><ele>91.66666666666666</ele><time>2026-05-02T07:47:57.934Z</time></trkpt><trkpt lat="44.22800129250317" lon="11.81097654042442"><ele>92.33333333333333</ele><time>2026-05-02T07:47:58.934Z</time></trkpt><trkpt lat="44.22786215603137" lon="11.810854876834464"><ele>93.0</ele><time>2026-05-02T07:47:59.934Z</time></trkpt><trkpt lat="44.22773748820166" lon="11.810741935700364"><ele>93.0</ele><time>2026-05-02T07:48:00.934Z</time></trkpt><trkpt lat="44.227625190325114" lon="11.810629713195452"><ele>93.0</ele><time>2026-05-02T07:48:01.934Z</time></trkpt><trkpt lat="44.227519271765466" lon="11.810505861563623"><ele>93.0</ele><time>2026-05-02T07:48:02.934Z</time></trkpt><trkpt lat="44.22742566982195" lon="11.81035435114622"><ele>93.0</ele><time>2026-05-02T07:48:03.934Z</time></trkpt><trkpt lat="44.22734282809374" lon="11.810171245290496"><ele>91.0</ele><time>2026-05-02T07:48:04.934Z</time></trkpt><trkpt lat="44.22724787926123" lon="11.809995711396128"><ele>89.0</ele><time>2026-05-02T07:48:05.934Z</time></trkpt><trkpt lat="44.22714782820269" lon="11.809854656590167"><ele>87.0</ele><time>2026-05-02T07:48:06.934Z</time></trkpt><trkpt lat="44.227036567350964" lon="11.809755539779154"><ele>85.0</ele><time>2026-05-02T07:48:07.934Z</time></trkpt><trkpt lat="44.226938003673894" lon="11.809656053253311"><ele>85.0</ele><time>2026-05-02T07:48:08.934Z</time></trkpt><trkpt lat="44.22685061153581" lon="11.80955193464706"><ele>85.0</ele><time>2026-05-02T07:48:09.934Z</time></trkpt><trkpt lat="44.22678417992863" lon="11.809381546136965"><ele>85.0</ele><time>2026-05-02T07:48:10.934Z</time></trkpt><trkpt lat="44.22673428875972" lon="11.809172175686493"><ele>85.0</ele><time>2026-05-02T07:48:11.934Z</time></trkpt><trkpt lat="44.22670063533318" lon="11.808931469719825"><ele>82.0</ele><time>2026-05-02T07:48:12.934Z</time></trkpt><trkpt lat="44.22666383730364" lon="11.808685771777185"><ele>79.0</ele><time>2026-05-02T07:48:13.934Z</time></trkpt><trkpt lat="44.22661561371324" lon="11.80842542148155"><ele>76.0</ele><time>2026-05-02T07:48:14.934Z</time></trkpt><trkpt lat="44.226560541627244" lon="11.808155869589289"><ele>76.66666666666666</ele><time>2026-05-02T07:48:15.934Z</time></trkpt><trkpt lat="44.226505599800326" lon="11.807877030128841"><ele>77.33333333333333</ele><time>2026-05-02T07:48:16.934Z</time></trkpt><trkpt lat="44.22644621080141" lon="11.807608243224474"><ele>78.0</ele><time>2026-05-02T07:48:17.934Z</time></trkpt><trkpt lat="44.226381239762254" lon="11.807342959947649"><ele>78.0</ele><time>2026-05-02T07:48:18.934Z</time></trkpt><trkpt lat="44.22629289136486" lon="11.807085079088546"><ele>78.0</ele><time>2026-05-02T07:48:19.934Z</time></trkpt><trkpt lat="44.2262014973544" lon="11.806838521123"><ele>78.0</ele><time>2026-05-02T07:48:20.934Z</time></trkpt><trkpt lat="44.226102786322684" lon="11.80660493729866"><ele>75.66666666666667</ele><time>2026-05-02T07:48:21.934Z</time></trkpt><trkpt lat="44.22600302787621" lon="11.806382084784932"><ele>73.33333333333334</ele><time>2026-05-02T07:48:22.934Z</time></trkpt><trkpt lat="44.225905726354625" lon="11.806163103491903"><ele>71.0</ele><time>2026-05-02T07:48:23.934Z</time></trkpt><trkpt lat="44.22581713173828" lon="11.80595020174398"><ele>69.33333333333334</ele><time>2026-05-02T07:48:24.934Z</time></trkpt><trkpt lat="44.22573318380187" lon="11.805745486285613"><ele>67.66666666666667</ele><time>2026-05-02T07:48:25.934Z</time></trkpt><trkpt lat="44.22565074906223" lon="11.805537551750273"><ele>66.0</ele><time>2026-05-02T07:48:26.934Z</time></trkpt><trkpt lat="44.2255578853334" lon="11.805339409396385"><ele>69.66666666666667</ele><time>2026-05-02T07:48:27.934Z</time></trkpt><trkpt lat="44.225469627841846" lon="11.805127748595076"><ele>73.33333333333334</ele><time>2026-05-02T07:48:28.934Z</time></trkpt><trkpt lat="44.22538022814861" lon="11.804914245818498"><ele>77.0</ele><time>2026-05-02T07:48:29.934Z</time></trkpt><trkpt lat="44.225285813146705" lon="11.804694826626667"><ele>77.0</ele><time>2026-05-02T07:48:30.934Z</time></trkpt><trkpt lat="44.22519390130525" lon="11.804474273669491"><ele>77.0</ele><time>2026-05-02T07:48:31.934Z</time></trkpt><trkpt lat="44.225109338271366" lon="11.804254496949556"><ele>77.0</ele><time>2026-05-02T07:48:32.934Z</time></trkpt><trkpt lat="44.225018415293576" lon="11.804041516168846"><ele>77.66666666666667</ele><time>2026-05-02T07:48:33.934Z</time></trkpt><trkpt lat="44.22493315446223" lon="11.803821091458463"><ele>78.33333333333333</ele><time>2026-05-02T07:48:34.934Z</time></trkpt><trkpt lat="44.224854850172505" lon="11.803609015420365"><ele>79.0</ele><time>2026-05-02T07:48:35.934Z</time></trkpt><trkpt lat="44.224778262179115" lon="11.80339485273043"><ele>83.0</ele><time>2026-05-02T07:48:36.934Z</time></trkpt><trkpt lat="44.224703893325405" lon="11.80318156210114"><ele>87.0</ele><time>2026-05-02T07:48:37.934Z</time></trkpt><trkpt lat="44.22462871429165" lon="11.802965660663968"><ele>91.0</ele><time>2026-05-02T07:48:38.934Z</time></trkpt><trkpt lat="44.22454916181597" lon="11.802755806147557"><ele>91.0</ele><time>2026-05-02T07:48:39.933Z</time></trkpt><trkpt lat="44.224475557278794" lon="11.802534556642154"><ele>91.0</ele><time>2026-05-02T07:48:40.933Z</time></trkpt><trkpt lat="44.224400425980676" lon="11.8023202717254"><ele>91.0</ele><time>2026-05-02T07:48:41.933Z</time></trkpt><trkpt lat="44.22433989527827" lon="11.802130708743276"><ele>91.0</ele><time>2026-05-02T07:48:42.934Z</time></trkpt><trkpt lat="44.22429423638721" lon="11.801970948083287"><ele>91.0</ele><time>2026-05-02T07:48:43.933Z</time></trkpt><trkpt lat="44.22425498395915" lon="11.80182276160221"><ele>91.0</ele><time>2026-05-02T07:48:44.933Z</time></trkpt><trkpt lat="44.224226566631366" lon="11.801666858790151"><ele>91.0</ele><time>2026-05-02T07:48:45.934Z</time></trkpt><trkpt lat="44.224211114783564" lon="11.801496172989719"><ele>91.0</ele><time>2026-05-02T07:48:46.933Z</time></trkpt><trkpt lat="44.22421502425635" lon="11.801307478244173"><ele>91.0</ele><time>2026-05-02T07:48:47.933Z</time></trkpt><trkpt lat="44.22424814932543" lon="11.801104302694249"><ele>91.0</ele><time>2026-05-02T07:48:48.933Z</time></trkpt><trkpt lat="44.22427858099847" lon="11.800884380460447"><ele>91.0</ele><time>2026-05-02T07:48:49.933Z</time></trkpt><trkpt lat="44.22429679461909" lon="11.800655185754362"><ele>90.33333333333333</ele><time>2026-05-02T07:48:50.933Z</time></trkpt><trkpt lat="44.2243323171658" lon="11.80041570776261"><ele>89.66666666666667</ele><time>2026-05-02T07:48:51.933Z</time></trkpt><trkpt lat="44.22438128194549" lon="11.800191166968625"><ele>89.0</ele><time>2026-05-02T07:48:52.933Z</time></trkpt><trkpt lat="44.224413982471944" lon="11.799970527420323"><ele>88.33333333333334</ele><time>2026-05-02T07:48:53.933Z</time></trkpt><trkpt lat="44.224428163044664" lon="11.799751627959393"><ele>87.66666666666667</ele><time>2026-05-02T07:48:54.933Z</time></trkpt><trkpt lat="44.22445816586027" lon="11.799552835014508"><ele>87.0</ele><time>2026-05-02T07:48:55.933Z</time></trkpt><trkpt lat="44.22447762557824" lon="11.799349548775645"><ele>86.25</ele><time>2026-05-02T07:48:56.933Z</time></trkpt><trkpt lat="44.22447468655376" lon="11.799152925664684"><ele>85.5</ele><time>2026-05-02T07:48:57.933Z</time></trkpt><trkpt lat="44.22445183656667" lon="11.798965438357802"><ele>84.75</ele><time>2026-05-02T07:48:58.933Z</time></trkpt><trkpt lat="44.224413010688764" lon="11.79876952159685"><ele>84.0</ele><time>2026-05-02T07:48:59.933Z</time></trkpt><trkpt lat="44.224362109909514" lon="11.798574610468751"><ele>81.0</ele><time>2026-05-02T07:49:00.933Z</time></trkpt><trkpt lat="44.22429314585686" lon="11.798366754605807"><ele>78.0</ele><time>2026-05-02T07:49:01.933Z</time></trkpt><trkpt lat="44.224241611883095" lon="11.798145771031356"><ele>75.0</ele><time>2026-05-02T07:49:02.933Z</time></trkpt><trkpt lat="44.22423036785999" lon="11.797899464499814"><ele>74.0</ele><time>2026-05-02T07:49:03.933Z</time></trkpt><trkpt lat="44.22420937284678" lon="11.797646628068646"><ele>73.0</ele><time>2026-05-02T07:49:04.933Z</time></trkpt><trkpt lat="44.22419021978816" lon="11.797378954925577"><ele>72.0</ele><time>2026-05-02T07:49:05.933Z</time></trkpt><trkpt lat="44.22416756449884" lon="11.797105576316369"><ele>72.0</ele><time>2026-05-02T07:49:06.933Z</time></trkpt><trkpt lat="44.22414599409577" lon="11.796846814315755"><ele>72.0</ele><time>2026-05-02T07:49:07.933Z</time></trkpt><trkpt lat="44.22412917173509" lon="11.796616080385027"><ele>72.0</ele><time>2026-05-02T07:49:08.933Z</time></trkpt><trkpt lat="44.22410463516087" lon="11.796396769250784"><ele>71.25</ele><time>2026-05-02T07:49:09.933Z</time></trkpt><trkpt lat="44.22408429848461" lon="11.796192482580167"><ele>70.5</ele><time>2026-05-02T07:49:10.933Z</time></trkpt><trkpt lat="44.22407138018239" lon="11.795997760504717"><ele>69.75</ele><time>2026-05-02T07:49:11.933Z</time></trkpt><trkpt lat="44.22404025488999" lon="11.79580271952684"><ele>69.0</ele><time>2026-05-02T07:49:12.933Z</time></trkpt><trkpt lat="44.223978867812114" lon="11.795613967832164"><ele>70.33333333333333</ele><time>2026-05-02T07:49:13.933Z</time></trkpt><trkpt lat="44.22389251416552" lon="11.795431291962645"><ele>71.66666666666666</ele><time>2026-05-02T07:49:14.933Z</time></trkpt><trkpt lat="44.22377984914708" lon="11.795261485530865"><ele>73.0</ele><time>2026-05-02T07:49:15.933Z</time></trkpt><trkpt lat="44.22365568242098" lon="11.795107600687485"><ele>73.0</ele><time>2026-05-02T07:49:16.933Z</time></trkpt><trkpt lat="44.22352728020617" lon="11.794961607685453"><ele>73.0</ele><time>2026-05-02T07:49:17.933Z</time></trkpt><trkpt lat="44.22340208018789" lon="11.794796656705962"><ele>73.0</ele><time>2026-05-02T07:49:18.933Z</time></trkpt><trkpt lat="44.22329054875934" lon="11.794604468412679"><ele>73.0</ele><time>2026-05-02T07:49:19.933Z</time></trkpt><trkpt lat="44.22318805067057" lon="11.794386333093598"><ele>73.0</ele><time>2026-05-02T07:49:20.933Z</time></trkpt><trkpt lat="44.223090245582625" lon="11.79415645903348"><ele>73.0</ele><time>2026-05-02T07:49:21.933Z</time></trkpt><trkpt lat="44.22299841631441" lon="11.793920661246212"><ele>73.66666666666666</ele><time>2026-05-02T07:49:22.933Z</time></trkpt><trkpt lat="44.22290658981752" lon="11.793685718486062"><ele>74.33333333333333</ele><time>2026-05-02T07:49:23.933Z</time></trkpt><trkpt lat="44.22282440061928" lon="11.793454267235003"><ele>75.0</ele><time>2026-05-02T07:49:24.933Z</time></trkpt><trkpt lat="44.22277905346381" lon="11.793197936684656"><ele>75.0</ele><time>2026-05-02T07:49:25.933Z</time></trkpt><trkpt lat="44.22273637134799" lon="11.792937435607186"><ele>75.0</ele><time>2026-05-02T07:49:26.933Z</time></trkpt><trkpt lat="44.222695438306864" lon="11.792672260643355"><ele>75.0</ele><time>2026-05-02T07:49:27.933Z</time></trkpt><trkpt lat="44.22265170416271" lon="11.792402626934361"><ele>74.33333333333333</ele><time>2026-05-02T07:49:28.933Z</time></trkpt><trkpt lat="44.22259122592058" lon="11.792121020745435"><ele>73.66666666666666</ele><time>2026-05-02T07:49:29.933Z</time></trkpt><trkpt lat="44.22254482099786" lon="11.791827977201768"><ele>73.0</ele><time>2026-05-02T07:49:30.933Z</time></trkpt><trkpt lat="44.22249629816276" lon="11.791536216234077"><ele>72.66666666666666</ele><time>2026-05-02T07:49:31.933Z</time></trkpt><trkpt lat="44.22244245295472" lon="11.791256105928593"><ele>72.33333333333333</ele><time>2026-05-02T07:49:32.933Z</time></trkpt><trkpt lat="44.22237793713869" lon="11.79100003891027"><ele>72.0</ele><time>2026-05-02T07:49:33.933Z</time></trkpt><trkpt lat="44.22230806722089" lon="11.790767199390013"><ele>72.66666666666667</ele><time>2026-05-02T07:49:34.933Z</time></trkpt><trkpt lat="44.22222589149183" lon="11.790558500250974"><ele>73.33333333333334</ele><time>2026-05-02T07:49:35.933Z</time></trkpt><trkpt lat="44.222128402026414" lon="11.790351395554811"><ele>74.0</ele><time>2026-05-02T07:49:36.933Z</time></trkpt><trkpt lat="44.22202476610457" lon="11.790145444622937"><ele>74.0</ele><time>2026-05-02T07:49:37.933Z</time></trkpt><trkpt lat="44.22191416407276" lon="11.789942269611531"><ele>74.0</ele><time>2026-05-02T07:49:38.933Z</time></trkpt><trkpt lat="44.221808305706716" lon="11.789740070362832"><ele>74.0</ele><time>2026-05-02T07:49:39.933Z</time></trkpt><trkpt lat="44.22171152662945" lon="11.789547821462438"><ele>74.0</ele><time>2026-05-02T07:49:40.933Z</time></trkpt><trkpt lat="44.22162147646961" lon="11.789375348992044"><ele>74.0</ele><time>2026-05-02T07:49:41.933Z</time></trkpt><trkpt lat="44.22154204776475" lon="11.78921282109532"><ele>74.0</ele><time>2026-05-02T07:49:42.933Z</time></trkpt><trkpt lat="44.221473413317" lon="11.789061063504608"><ele>74.0</ele><time>2026-05-02T07:49:43.933Z</time></trkpt><trkpt lat="44.22140804213701" lon="11.788884821493797"><ele>77.66666666666667</ele><time>2026-05-02T07:49:44.933Z</time></trkpt><trkpt lat="44.22135954252734" lon="11.788697203760986"><ele>81.33333333333333</ele><time>2026-05-02T07:49:45.933Z</time></trkpt><trkpt lat="44.22133603893187" lon="11.788490513425218"><ele>85.0</ele><time>2026-05-02T07:49:46.933Z</time></trkpt><trkpt lat="44.2213269978971" lon="11.78826567740072"><ele>85.66666666666666</ele><time>2026-05-02T07:49:47.933Z</time></trkpt><trkpt lat="44.221336287780396" lon="11.788048645500586"><ele>86.33333333333333</ele><time>2026-05-02T07:49:48.933Z</time></trkpt><trkpt lat="44.22136715305234" lon="11.787836977554322"><ele>87.0</ele><time>2026-05-02T07:49:49.933Z</time></trkpt><trkpt lat="44.22143435553172" lon="11.787625808320263"><ele>81.66666666666667</ele><time>2026-05-02T07:49:50.933Z</time></trkpt><trkpt lat="44.22151487999287" lon="11.787411746388834"><ele>76.33333333333334</ele><time>2026-05-02T07:49:51.933Z</time></trkpt><trkpt lat="44.22160501101456" lon="11.787172496691444"><ele>71.0</ele><time>2026-05-02T07:49:52.933Z</time></trkpt><trkpt lat="44.22169437572532" lon="11.786929842676768"><ele>70.66666666666667</ele><time>2026-05-02T07:49:53.933Z</time></trkpt><trkpt lat="44.22178197331691" lon="11.78668937678356"><ele>70.33333333333333</ele><time>2026-05-02T07:49:54.933Z</time></trkpt><trkpt lat="44.221860187127085" lon="11.78642754547032"><ele>70.0</ele><time>2026-05-02T07:49:55.933Z</time></trkpt><trkpt lat="44.22196748299225" lon="11.78618495381923"><ele>69.66666666666666</ele><time>2026-05-02T07:49:56.933Z</time></trkpt><trkpt lat="44.2220541588726" lon="11.78595096387869"><ele>69.33333333333333</ele><time>2026-05-02T07:49:57.933Z</time></trkpt><trkpt lat="44.22213885257476" lon="11.785719521084092"><ele>69.0</ele><time>2026-05-02T07:49:58.933Z</time></trkpt><trkpt lat="44.22222454860174" lon="11.785489403543696"><ele>69.0</ele><time>2026-05-02T07:49:59.933Z</time></trkpt><trkpt lat="44.222304108297266" lon="11.785276599953132"><ele>69.0</ele><time>2026-05-02T07:50:00.932Z</time></trkpt><trkpt lat="44.22238316531939" lon="11.785059646857604"><ele>69.0</ele><time>2026-05-02T07:50:01.932Z</time></trkpt><trkpt lat="44.222441579073696" lon="11.784831630775258"><ele>69.66666666666667</ele><time>2026-05-02T07:50:02.932Z</time></trkpt><trkpt lat="44.22251605658931" lon="11.78461317509205"><ele>70.33333333333334</ele><time>2026-05-02T07:50:03.932Z</time></trkpt><trkpt lat="44.2225667009067" lon="11.784385603425797"><ele>71.0</ele><time>2026-05-02T07:50:04.932Z</time></trkpt><trkpt lat="44.22260934184834" lon="11.784166331167386"><ele>72.0</ele><time>2026-05-02T07:50:05.932Z</time></trkpt><trkpt lat="44.22266148354802" lon="11.783940398268818"><ele>73.0</ele><time>2026-05-02T07:50:06.932Z</time></trkpt><trkpt lat="44.22269988436337" lon="11.78371888914721"><ele>74.0</ele><time>2026-05-02T07:50:07.932Z</time></trkpt><trkpt lat="44.22275083851941" lon="11.783501440742702"><ele>75.33333333333334</ele><time>2026-05-02T07:50:08.932Z</time></trkpt><trkpt lat="44.22282512283913" lon="11.78329836336434"><ele>76.66666666666667</ele><time>2026-05-02T07:50:09.932Z</time></trkpt><trkpt lat="44.22289946005554" lon="11.783096069100084"><ele>78.0</ele><time>2026-05-02T07:50:10.932Z</time></trkpt><trkpt lat="44.2229812073881" lon="11.782895362832106"><ele>78.0</ele><time>2026-05-02T07:50:11.932Z</time></trkpt><trkpt lat="44.223057929103135" lon="11.78267614042064"><ele>78.0</ele><time>2026-05-02T07:50:12.932Z</time></trkpt><trkpt lat="44.223143683453074" lon="11.782469628294422"><ele>78.0</ele><time>2026-05-02T07:50:13.932Z</time></trkpt><trkpt lat="44.22322521502211" lon="11.782248817080262"><ele>78.33333333333333</ele><time>2026-05-02T07:50:14.932Z</time></trkpt><trkpt lat="44.22332915744688" lon="11.782032240723744"><ele>78.66666666666666</ele><time>2026-05-02T07:50:15.932Z</time></trkpt><trkpt lat="44.22342265572914" lon="11.781799827859864"><ele>79.0</ele><time>2026-05-02T07:50:16.932Z</time></trkpt><trkpt lat="44.223518415269034" lon="11.781559854150089"><ele>79.33333333333333</ele><time>2026-05-02T07:50:17.932Z</time></trkpt><trkpt lat="44.22360552409813" lon="11.781341142170517"><ele>79.66666666666667</ele><time>2026-05-02T07:50:18.932Z</time></trkpt><trkpt lat="44.223688823016275" lon="11.781134795341297"><ele>80.0</ele><time>2026-05-02T07:50:19.932Z</time></trkpt><trkpt lat="44.223765027945326" lon="11.780945823414527"><ele>81.66666666666667</ele><time>2026-05-02T07:50:20.932Z</time></trkpt><trkpt lat="44.22384215179116" lon="11.780762795226899"><ele>83.33333333333333</ele><time>2026-05-02T07:50:21.932Z</time></trkpt><trkpt lat="44.22393436199086" lon="11.780582113528027"><ele>85.0</ele><time>2026-05-02T07:50:22.932Z</time></trkpt><trkpt lat="44.22403806846533" lon="11.78042033387753"><ele>86.5</ele><time>2026-05-02T07:50:23.932Z</time></trkpt><trkpt lat="44.22413689766646" lon="11.780282682827787"><ele>88.0</ele><time>2026-05-02T07:50:24.932Z</time></trkpt><trkpt lat="44.224235474773465" lon="11.780171776562751"><ele>89.5</ele><time>2026-05-02T07:50:25.932Z</time></trkpt><trkpt lat="44.224319106518074" lon="11.780077286834613"><ele>91.0</ele><time>2026-05-02T07:50:26.932Z</time></trkpt><trkpt lat="44.22438889488596" lon="11.779985524087627"><ele>91.83333333333333</ele><time>2026-05-02T07:50:27.932Z</time></trkpt><trkpt lat="44.22443530022649" lon="11.77989240801263"><ele>92.66666666666666</ele><time>2026-05-02T07:50:28.932Z</time></trkpt><trkpt lat="44.224466562700094" lon="11.779792595296216"><ele>93.5</ele><time>2026-05-02T07:50:29.932Z</time></trkpt><trkpt lat="44.22448825181254" lon="11.779695044772689"><ele>94.33333333333333</ele><time>2026-05-02T07:50:30.932Z</time></trkpt><trkpt lat="44.22450638629711" lon="11.779603505237345"><ele>95.16666666666667</ele><time>2026-05-02T07:50:31.932Z</time></trkpt><trkpt lat="44.22446258567153" lon="11.779505810826013"><ele>96.0</ele><time>2026-05-02T07:50:32.932Z</time></trkpt><trkpt lat="44.22440831401779" lon="11.779417724963697"><ele>96.8</ele><time>2026-05-02T07:50:33.932Z</time></trkpt><trkpt lat="44.22434551762028" lon="11.779327221714816"><ele>97.6</ele><time>2026-05-02T07:50:34.932Z</time></trkpt><trkpt lat="44.22428078806977" lon="11.779213612357168"><ele>98.4</ele><time>2026-05-02T07:50:35.932Z</time></trkpt><trkpt lat="44.2242238733582" lon="11.779067425578074"><ele>99.2</ele><time>2026-05-02T07:50:36.932Z</time></trkpt><trkpt lat="44.22414342458402" lon="11.778923741639284"><ele>100.0</ele><time>2026-05-02T07:50:37.932Z</time></trkpt><trkpt lat="44.22405349185674" lon="11.77877622007544"><ele>99.75</ele><time>2026-05-02T07:50:38.932Z</time></trkpt><trkpt lat="44.22396717702714" lon="11.77862634307276"><ele>99.5</ele><time>2026-05-02T07:50:39.932Z</time></trkpt><trkpt lat="44.223887344838005" lon="11.778485833024389"><ele>99.25</ele><time>2026-05-02T07:50:40.932Z</time></trkpt><trkpt lat="44.22381807592895" lon="11.778368034910459"><ele>99.0</ele><time>2026-05-02T07:50:41.932Z</time></trkpt><trkpt lat="44.223762881593245" lon="11.77826640453749"><ele>99.33333333333333</ele><time>2026-05-02T07:50:42.932Z</time></trkpt><trkpt lat="44.223721640660365" lon="11.778171689614807"><ele>99.66666666666666</ele><time>2026-05-02T07:50:43.932Z</time></trkpt><trkpt lat="44.22370898851248" lon="11.778074952569703"><ele>100.0</ele><time>2026-05-02T07:50:44.932Z</time></trkpt><trkpt lat="44.22371212329756" lon="11.777984278014143"><ele>100.33333333333333</ele><time>2026-05-02T07:50:45.932Z</time></trkpt><trkpt lat="44.22376085719847" lon="11.77787823949537"><ele>100.66666666666666</ele><time>2026-05-02T07:50:47.932Z</time></trkpt><trkpt lat="44.22381556585758" lon="11.777802220561409"><ele>101.0</ele><time>2026-05-02T07:51:11.932Z</time></trkpt><trkpt lat="44.223851057450105" lon="11.777683290633876"><ele>101.4</ele><time>2026-05-02T07:51:16.932Z</time></trkpt><trkpt lat="44.22377663108105" lon="11.777496873666065"><ele>101.8</ele><time>2026-05-02T07:51:18.932Z</time></trkpt><trkpt lat="44.22372627829179" lon="11.77741363552065"><ele>102.2</ele><time>2026-05-02T07:51:19.932Z</time></trkpt><trkpt lat="44.2236706819511" lon="11.777315143097841"><ele>102.60000000000001</ele><time>2026-05-02T07:51:20.932Z</time></trkpt><trkpt lat="44.22361157944865" lon="11.777200154675496"><ele>103.0</ele><time>2026-05-02T07:51:21.932Z</time></trkpt><trkpt lat="44.223560388098264" lon="11.777078328685803"><ele>103.0</ele><time>2026-05-02T07:51:22.932Z</time></trkpt><trkpt lat="44.22350016041612" lon="11.776962781710724"><ele>103.0</ele><time>2026-05-02T07:51:23.932Z</time></trkpt><trkpt lat="44.22343938983435" lon="11.77684591444149"><ele>103.0</ele><time>2026-05-02T07:51:24.932Z</time></trkpt><trkpt lat="44.223372698040855" lon="11.776717641223788"><ele>103.0</ele><time>2026-05-02T07:51:25.932Z</time></trkpt><trkpt lat="44.22331337383553" lon="11.77660353853676"><ele>103.0</ele><time>2026-05-02T07:51:26.932Z</time></trkpt><trkpt lat="44.2232590819191" lon="11.776499114861359"><ele>103.2</ele><time>2026-05-02T07:51:27.932Z</time></trkpt><trkpt lat="44.22320879872616" lon="11.776402484193751"><ele>103.4</ele><time>2026-05-02T07:51:28.932Z</time></trkpt><trkpt lat="44.22314397041113" lon="11.776317749191135"><ele>103.60000000000001</ele><time>2026-05-02T07:51:29.932Z</time></trkpt><trkpt lat="44.22309280735876" lon="11.776211350978135"><ele>103.80000000000001</ele><time>2026-05-02T07:51:30.932Z</time></trkpt><trkpt lat="44.22304072476849" lon="11.776101965700184"><ele>104.0</ele><time>2026-05-02T07:51:31.932Z</time></trkpt><trkpt lat="44.22298184747318" lon="11.77599615591277"><ele>104.0</ele><time>2026-05-02T07:51:32.932Z</time></trkpt><trkpt lat="44.22292361436459" lon="11.775883278152874"><ele>104.0</ele><time>2026-05-02T07:51:33.932Z</time></trkpt><trkpt lat="44.22286808964388" lon="11.77577232728984"><ele>104.0</ele><time>2026-05-02T07:51:34.932Z</time></trkpt><trkpt lat="44.22281508946642" lon="11.775674883686687"><ele>104.0</ele><time>2026-05-02T07:51:35.932Z</time></trkpt><trkpt lat="44.22275691147531" lon="11.775582092709627"><ele>104.0</ele><time>2026-05-02T07:51:36.932Z</time></trkpt><trkpt lat="44.222714848595686" lon="11.775461831669372"><ele>104.0</ele><time>2026-05-02T07:51:37.932Z</time></trkpt><trkpt lat="44.22264563319941" lon="11.7753662854986"><ele>104.0</ele><time>2026-05-02T07:51:38.932Z</time></trkpt><trkpt lat="44.222593811631725" lon="11.775250031255585"><ele>104.0</ele><time>2026-05-02T07:51:39.932Z</time></trkpt><trkpt lat="44.22253908804349" lon="11.775129378813741"><ele>104.0</ele><time>2026-05-02T07:51:40.932Z</time></trkpt><trkpt lat="44.22247796263283" lon="11.774998232697676"><ele>104.0</ele><time>2026-05-02T07:51:41.932Z</time></trkpt><trkpt lat="44.222403593227966" lon="11.774865832706551"><ele>104.25</ele><time>2026-05-02T07:51:42.932Z</time></trkpt><trkpt lat="44.22232815163993" lon="11.774718725439714"><ele>104.5</ele><time>2026-05-02T07:51:43.932Z</time></trkpt><trkpt lat="44.22224957552045" lon="11.774567554106646"><ele>104.75</ele><time>2026-05-02T07:51:44.932Z</time></trkpt><trkpt lat="44.22217925205249" lon="11.77440916960524"><ele>105.0</ele><time>2026-05-02T07:51:45.932Z</time></trkpt><trkpt lat="44.22212033933045" lon="11.774240650477232"><ele>105.5</ele><time>2026-05-02T07:51:46.932Z</time></trkpt><trkpt lat="44.22206773987481" lon="11.77407785507356"><ele>106.0</ele><time>2026-05-02T07:51:47.932Z</time></trkpt><trkpt lat="44.22201450715974" lon="11.7739065632501"><ele>106.5</ele><time>2026-05-02T07:51:48.932Z</time></trkpt><trkpt lat="44.22197906008844" lon="11.773722983235368"><ele>107.0</ele><time>2026-05-02T07:51:49.931Z</time></trkpt><trkpt lat="44.22194002548646" lon="11.773539338142367"><ele>106.75</ele><time>2026-05-02T07:51:50.931Z</time></trkpt><trkpt lat="44.22189363444164" lon="11.773362934606382"><ele>106.5</ele><time>2026-05-02T07:51:51.931Z</time></trkpt><trkpt lat="44.221851439183254" lon="11.77319321748451"><ele>106.25</ele><time>2026-05-02T07:51:52.931Z</time></trkpt><trkpt lat="44.221811831750635" lon="11.773036053181649"><ele>106.0</ele><time>2026-05-02T07:51:53.931Z</time></trkpt><trkpt lat="44.22177583371323" lon="11.772882482118971"><ele>106.0</ele><time>2026-05-02T07:51:54.931Z</time></trkpt><trkpt lat="44.22173722534774" lon="11.772746073492137"><ele>106.0</ele><time>2026-05-02T07:51:55.931Z</time></trkpt><trkpt lat="44.22170377784459" lon="11.77260887940143"><ele>106.0</ele><time>2026-05-02T07:51:56.931Z</time></trkpt><trkpt lat="44.22167004833091" lon="11.772468755019304"><ele>106.0</ele><time>2026-05-02T07:51:57.931Z</time></trkpt><trkpt lat="44.221640156639815" lon="11.772321633756595"><ele>106.0</ele><time>2026-05-02T07:51:58.931Z</time></trkpt><trkpt lat="44.22160616044496" lon="11.772181369962192"><ele>106.0</ele><time>2026-05-02T07:51:59.931Z</time></trkpt><trkpt lat="44.22157273637763" lon="11.772032478856026"><ele>106.0</ele><time>2026-05-02T07:52:00.931Z</time></trkpt><trkpt lat="44.22153613848485" lon="11.771883158727187"><ele>106.0</ele><time>2026-05-02T07:52:01.931Z</time></trkpt><trkpt lat="44.221500421589006" lon="11.771732256398547"><ele>106.0</ele><time>2026-05-02T07:52:02.931Z</time></trkpt><trkpt lat="44.22146470659151" lon="11.77158167933933"><ele>106.0</ele><time>2026-05-02T07:52:03.931Z</time></trkpt><trkpt lat="44.22143273233573" lon="11.771432740609832"><ele>106.0</ele><time>2026-05-02T07:52:04.931Z</time></trkpt><trkpt lat="44.22140447030546" lon="11.77129224413434"><ele>106.0</ele><time>2026-05-02T07:52:05.931Z</time></trkpt><trkpt lat="44.22137070267528" lon="11.771145479603813"><ele>106.0</ele><time>2026-05-02T07:52:06.931Z</time></trkpt><trkpt lat="44.22133869939706" lon="11.771000611210649"><ele>106.0</ele><time>2026-05-02T07:52:07.931Z</time></trkpt><trkpt lat="44.22130290891869" lon="11.770860857601555"><ele>106.16666666666667</ele><time>2026-05-02T07:52:08.931Z</time></trkpt><trkpt lat="44.221275170951216" lon="11.770727894365171"><ele>106.33333333333334</ele><time>2026-05-02T07:52:09.931Z</time></trkpt><trkpt lat="44.22124456273229" lon="11.770614887870412"><ele>106.5</ele><time>2026-05-02T07:52:10.931Z</time></trkpt><trkpt lat="44.22121659167261" lon="11.770499661947609"><ele>106.66666666666666</ele><time>2026-05-02T07:52:11.931Z</time></trkpt><trkpt lat="44.22119192013745" lon="11.77038361759013"><ele>106.83333333333333</ele><time>2026-05-02T07:52:12.931Z</time></trkpt><trkpt lat="44.22117023892909" lon="11.770274870661863"><ele>107.0</ele><time>2026-05-02T07:52:13.931Z</time></trkpt><trkpt lat="44.22113982185155" lon="11.77014667535445"><ele>107.66666666666666</ele><time>2026-05-02T07:52:14.931Z</time></trkpt><trkpt lat="44.22111131222918" lon="11.7700281443708"><ele>108.33333333333334</ele><time>2026-05-02T07:52:15.931Z</time></trkpt><trkpt lat="44.22108533658021" lon="11.769912181855199"><ele>109.0</ele><time>2026-05-02T07:52:16.931Z</time></trkpt><trkpt lat="44.22108641309153" lon="11.769502850394076"><ele>109.00000000000001</ele><time>2026-05-02T07:52:20.931Z</time></trkpt><trkpt lat="44.22114945661635" lon="11.769458254496659"><ele>109.0</ele><time>2026-05-02T07:52:21.931Z</time></trkpt><trkpt lat="44.22121823595244" lon="11.769419584645535"><ele>109.0</ele><time>2026-05-02T07:52:22.931Z</time></trkpt><trkpt lat="44.221285511063506" lon="11.769372748423654"><ele>109.0</ele><time>2026-05-02T07:52:23.931Z</time></trkpt><trkpt lat="44.22135065142219" lon="11.769333142512794"><ele>109.00000000000001</ele><time>2026-05-02T07:52:24.931Z</time></trkpt><trkpt lat="44.221438301597004" lon="11.769301019637922"><ele>109.0</ele><time>2026-05-02T07:52:25.931Z</time></trkpt><trkpt lat="44.22150918770886" lon="11.769259884169397"><ele>109.6</ele><time>2026-05-02T07:52:26.931Z</time></trkpt><trkpt lat="44.221590430548005" lon="11.76921273614602"><ele>110.2</ele><time>2026-05-02T07:52:27.931Z</time></trkpt><trkpt lat="44.22167198811176" lon="11.769163634634992"><ele>110.79999999999998</ele><time>2026-05-02T07:52:28.931Z</time></trkpt><trkpt lat="44.221750844904264" lon="11.769091900946467"><ele>111.39999999999999</ele><time>2026-05-02T07:52:29.931Z</time></trkpt><trkpt lat="44.22183569937161" lon="11.769062315758767"><ele>112.0</ele><time>2026-05-02T07:52:30.931Z</time></trkpt><trkpt lat="44.22191848938353" lon="11.769009173870694"><ele>112.00000000000001</ele><time>2026-05-02T07:52:31.931Z</time></trkpt><trkpt lat="44.22200249071305" lon="11.76896074193067"><ele>112.0</ele><time>2026-05-02T07:52:32.931Z</time></trkpt><trkpt lat="44.22208529521211" lon="11.768913170888219"><ele>112.0</ele><time>2026-05-02T07:52:33.931Z</time></trkpt><trkpt lat="44.22216463803803" lon="11.768879714031149"><ele>112.0</ele><time>2026-05-02T07:52:34.931Z</time></trkpt><trkpt lat="44.22224528070397" lon="11.768847108330341"><ele>112.00000000000001</ele><time>2026-05-02T07:52:35.931Z</time></trkpt><trkpt lat="44.22233280909611" lon="11.768876286408101"><ele>112.0</ele><time>2026-05-02T07:52:36.931Z</time></trkpt><trkpt lat="44.22240407157504" lon="11.768931381782139"><ele>112.6</ele><time>2026-05-02T07:52:37.931Z</time></trkpt><trkpt lat="44.22248383352419" lon="11.769004797021783"><ele>113.19999999999999</ele><time>2026-05-02T07:52:38.931Z</time></trkpt><trkpt lat="44.22255980631639" lon="11.76910855421215"><ele>113.8</ele><time>2026-05-02T07:52:39.931Z</time></trkpt><trkpt lat="44.22265096583158" lon="11.769188152701537"><ele>114.4</ele><time>2026-05-02T07:52:40.931Z</time></trkpt><trkpt lat="44.22274364890903" lon="11.769276273772235"><ele>115.0</ele><time>2026-05-02T07:52:41.931Z</time></trkpt><trkpt lat="44.222829581935585" lon="11.76935522963463"><ele>115.0</ele><time>2026-05-02T07:52:42.931Z</time></trkpt><trkpt lat="44.2229141369403" lon="11.769443961391339"><ele>115.0</ele><time>2026-05-02T07:52:43.931Z</time></trkpt><trkpt lat="44.22300175200409" lon="11.769560752640492"><ele>115.0</ele><time>2026-05-02T07:52:44.931Z</time></trkpt><trkpt lat="44.22308186156995" lon="11.769671746543473"><ele>115.0</ele><time>2026-05-02T07:52:45.93Z</time></trkpt><trkpt lat="44.22314665880682" lon="11.769756537523957"><ele>115.0</ele><time>2026-05-02T07:52:46.93Z</time></trkpt><trkpt lat="44.22319471562143" lon="11.769830622603452"><ele>117.2</ele><time>2026-05-02T07:52:47.93Z</time></trkpt><trkpt lat="44.22326775696754" lon="11.769904019451705"><ele>119.4</ele><time>2026-05-02T07:52:49.93Z</time></trkpt><trkpt lat="44.22334648933247" lon="11.769924537964863"><ele>121.6</ele><time>2026-05-02T07:52:51.93Z</time></trkpt><trkpt lat="44.223399369823056" lon="11.76986796589954"><ele>123.8</ele><time>2026-05-02T07:52:52.93Z</time></trkpt><trkpt lat="44.22341115144538" lon="11.76971602572862"><ele>126.0</ele><time>2026-05-02T07:52:53.93Z</time></trkpt><trkpt lat="44.22334368522464" lon="11.769564245868976"><ele>126.0</ele><time>2026-05-02T07:52:54.93Z</time></trkpt><trkpt lat="44.22330197617058" lon="11.769450649021831"><ele>126.0</ele><time>2026-05-02T07:52:55.93Z</time></trkpt><trkpt lat="44.223258418943445" lon="11.769333897547265"><ele>126.0</ele><time>2026-05-02T07:52:56.93Z</time></trkpt><trkpt lat="44.223194624033994" lon="11.769207999614492"><ele>126.0</ele><time>2026-05-02T07:52:57.93Z</time></trkpt><trkpt lat="44.22316665918992" lon="11.76906749011131"><ele>126.0</ele><time>2026-05-02T07:52:58.929Z</time></trkpt><trkpt lat="44.22312064117664" lon="11.768962162247062"><ele>126.5</ele><time>2026-05-02T07:52:59.929Z</time></trkpt><trkpt lat="44.22308430765297" lon="11.768875050335959"><ele>127.0</ele><time>2026-05-02T07:53:00.929Z</time></trkpt><trkpt lat="44.22310089176903" lon="11.76874954765959"><ele>127.5</ele><time>2026-05-02T07:53:02.929Z</time></trkpt><trkpt lat="44.22318888819953" lon="11.76871115672142"><ele>128.0</ele><time>2026-05-02T07:53:04.929Z</time></trkpt><trkpt lat="44.22326857429967" lon="11.768839967190809"><ele>128.5</ele><time>2026-05-02T07:53:06.929Z</time></trkpt><trkpt lat="44.22330465046117" lon="11.768925843921826"><ele>129.0</ele><time>2026-05-02T07:53:07.929Z</time></trkpt><trkpt lat="44.22335469175216" lon="11.769053480166402"><ele>129.0</ele><time>2026-05-02T07:53:08.929Z</time></trkpt><trkpt lat="44.22341130484889" lon="11.769162713031509"><ele>129.0</ele><time>2026-05-02T07:53:09.929Z</time></trkpt><trkpt lat="44.22343288921505" lon="11.7692966864057"><ele>129.0</ele><time>2026-05-02T07:53:10.929Z</time></trkpt><trkpt lat="44.223456192516565" lon="11.76939987422548"><ele>129.0</ele><time>2026-05-02T07:53:11.929Z</time></trkpt><trkpt lat="44.223518460947666" lon="11.769515664979481"><ele>129.0</ele><time>2026-05-02T07:53:13.929Z</time></trkpt><trkpt lat="44.223597414046175" lon="11.769574811752967"><ele>129.0</ele><time>2026-05-02T07:53:15.929Z</time></trkpt><trkpt lat="44.22367545918894" lon="11.769555146538421"><ele>129.0</ele><time>2026-05-02T07:53:16.929Z</time></trkpt><trkpt lat="44.22372170917706" lon="11.769424600792366"><ele>129.0</ele><time>2026-05-02T07:53:17.929Z</time></trkpt><trkpt lat="44.22372722891674" lon="11.76927879346147"><ele>129.0</ele><time>2026-05-02T07:53:19.929Z</time></trkpt><trkpt lat="44.223732552855395" lon="11.769175151358905"><ele>129.0</ele><time>2026-05-02T07:53:23.929Z</time></trkpt><trkpt lat="44.223739475446635" lon="11.76907336356791"><ele>129.0</ele><time>2026-05-02T07:56:24.927Z</time></trkpt><trkpt lat="44.22374547631847" lon="11.768974023364867"><ele>129.0</ele><time>2026-05-02T07:56:26.927Z</time></trkpt><trkpt lat="44.22374564841275" lon="11.768786352623154"><ele>129.0</ele><time>2026-05-02T07:56:28.927Z</time></trkpt><trkpt lat="44.22373282328973" lon="11.768678290422809"><ele>129.0</ele><time>2026-05-02T07:56:29.927Z</time></trkpt><trkpt lat="44.22371705607837" lon="11.76856478949576"><ele>129.0</ele><time>2026-05-02T07:56:30.927Z</time></trkpt><trkpt lat="44.22369948927709" lon="11.768444736630098"><ele>129.0</ele><time>2026-05-02T07:56:31.927Z</time></trkpt><trkpt lat="44.22368153067138" lon="11.768333123880033"><ele>131.4</ele><time>2026-05-02T07:56:32.927Z</time></trkpt><trkpt lat="44.22366191631111" lon="11.768219935584662"><ele>133.8</ele><time>2026-05-02T07:56:33.927Z</time></trkpt><trkpt lat="44.223638378356334" lon="11.768095773408824"><ele>136.2</ele><time>2026-05-02T07:56:34.927Z</time></trkpt><trkpt lat="44.22359532577354" lon="11.767958077985035"><ele>138.6</ele><time>2026-05-02T07:56:35.927Z</time></trkpt><trkpt lat="44.22352799949707" lon="11.767842042593777"><ele>141.0</ele><time>2026-05-02T07:56:36.927Z</time></trkpt><trkpt lat="44.22344676317335" lon="11.767737560580771"><ele>138.5</ele><time>2026-05-02T07:56:37.927Z</time></trkpt><trkpt lat="44.2233605273992" lon="11.767657369514035"><ele>136.0</ele><time>2026-05-02T07:56:38.927Z</time></trkpt><trkpt lat="44.22328655732887" lon="11.767587802871663"><ele>133.5</ele><time>2026-05-02T07:56:39.927Z</time></trkpt><trkpt lat="44.223217520771335" lon="11.76751151726829"><ele>131.0</ele><time>2026-05-02T07:56:40.927Z</time></trkpt><trkpt lat="44.223155280897565" lon="11.767436589136985"><ele>128.5</ele><time>2026-05-02T07:56:41.927Z</time></trkpt><trkpt lat="44.22310134629129" lon="11.76736883768088"><ele>126.0</ele><time>2026-05-02T07:56:42.927Z</time></trkpt><trkpt lat="44.22303650750264" lon="11.76727269334041"><ele>126.0</ele><time>2026-05-02T07:56:44.927Z</time></trkpt><trkpt lat="44.22300978678264" lon="11.767162800828208"><ele>126.0</ele><time>2026-05-02T07:56:46.927Z</time></trkpt><trkpt lat="44.22310233624161" lon="11.767117685281747"><ele>126.0</ele><time>2026-05-02T07:56:48.927Z</time></trkpt><trkpt lat="44.22318612253692" lon="11.76724851973481"><ele>126.0</ele><time>2026-05-02T07:56:50.927Z</time></trkpt><trkpt lat="44.22324964876441" lon="11.76733294682037"><ele>126.0</ele><time>2026-05-02T07:56:51.927Z</time></trkpt><trkpt lat="44.22333407887631" lon="11.767421304442633"><ele>129.75</ele><time>2026-05-02T07:56:52.927Z</time></trkpt><trkpt lat="44.22342557610287" lon="11.767522320964872"><ele>133.5</ele><time>2026-05-02T07:56:53.927Z</time></trkpt><trkpt lat="44.223525841284" lon="11.767616267776873"><ele>137.25</ele><time>2026-05-02T07:56:54.927Z</time></trkpt><trkpt lat="44.22363448728727" lon="11.76771467299166"><ele>141.0</ele><time>2026-05-02T07:56:55.927Z</time></trkpt><trkpt lat="44.22373474422842" lon="11.767811815832786"><ele>141.0</ele><time>2026-05-02T07:56:56.927Z</time></trkpt><trkpt lat="44.223830631327615" lon="11.767916574735278"><ele>141.0</ele><time>2026-05-02T07:56:57.927Z</time></trkpt><trkpt lat="44.22392361331611" lon="11.768002098047527"><ele>141.0</ele><time>2026-05-02T07:56:58.926Z</time></trkpt><trkpt lat="44.22400320815471" lon="11.76809634757412"><ele>141.0</ele><time>2026-05-02T07:56:59.926Z</time></trkpt><trkpt lat="44.224071091495354" lon="11.768196991689704"><ele>141.0</ele><time>2026-05-02T07:57:00.927Z</time></trkpt><trkpt lat="44.22412948668501" lon="11.768318380862263"><ele>145.75</ele><time>2026-05-02T07:57:01.927Z</time></trkpt><trkpt lat="44.22417933275956" lon="11.768461483053596"><ele>150.5</ele><time>2026-05-02T07:57:02.927Z</time></trkpt><trkpt lat="44.22422550145951" lon="11.76860830354982"><ele>155.25</ele><time>2026-05-02T07:57:03.926Z</time></trkpt><trkpt lat="44.224272724857464" lon="11.768750935153705"><ele>160.0</ele><time>2026-05-02T07:57:04.927Z</time></trkpt><trkpt lat="44.22432377174543" lon="11.768889063566466"><ele>160.0</ele><time>2026-05-02T07:57:05.927Z</time></trkpt><trkpt lat="44.22437198429355" lon="11.769024195251314"><ele>160.0</ele><time>2026-05-02T07:57:06.927Z</time></trkpt><trkpt lat="44.22441044279758" lon="11.769150694091172"><ele>160.0</ele><time>2026-05-02T07:57:07.926Z</time></trkpt><trkpt lat="44.224431884360556" lon="11.769290157949811"><ele>160.0</ele><time>2026-05-02T07:57:08.926Z</time></trkpt><trkpt lat="44.22443036139203" lon="11.769457333468035"><ele>160.0</ele><time>2026-05-02T07:57:09.926Z</time></trkpt><trkpt lat="44.224435166904925" lon="11.76961016571202"><ele>159.4</ele><time>2026-05-02T07:57:10.926Z</time></trkpt><trkpt lat="44.224448428754556" lon="11.769756006677376"><ele>158.8</ele><time>2026-05-02T07:57:11.926Z</time></trkpt><trkpt lat="44.22447548076949" lon="11.769890798052879"><ele>158.2</ele><time>2026-05-02T07:57:12.926Z</time></trkpt><trkpt lat="44.22449986805727" lon="11.770007436081654"><ele>157.6</ele><time>2026-05-02T07:57:13.926Z</time></trkpt><trkpt lat="44.22455563616035" lon="11.770131880240719"><ele>157.0</ele><time>2026-05-02T07:57:15.926Z</time></trkpt><trkpt lat="44.22461598588182" lon="11.770182059192301"><ele>157.0</ele><time>2026-05-02T07:57:17.926Z</time></trkpt><trkpt lat="44.224672766024696" lon="11.770047324798243"><ele>157.0</ele><time>2026-05-02T07:57:18.926Z</time></trkpt><trkpt lat="44.22466358821619" lon="11.769926487382014"><ele>157.0</ele><time>2026-05-02T07:57:19.926Z</time></trkpt><trkpt lat="44.224640355157874" lon="11.769802246507782"><ele>157.0</ele><time>2026-05-02T07:57:20.926Z</time></trkpt><trkpt lat="44.22462000598242" lon="11.769651893679093"><ele>157.0</ele><time>2026-05-02T07:57:21.926Z</time></trkpt><trkpt lat="44.22464459343451" lon="11.769507832593606"><ele>157.0</ele><time>2026-05-02T07:57:22.926Z</time></trkpt><trkpt lat="44.2246390715669" lon="11.769369355851403"><ele>157.0</ele><time>2026-05-02T07:57:23.926Z</time></trkpt><trkpt lat="44.22462115712145" lon="11.769218215287804"><ele>157.0</ele><time>2026-05-02T07:57:24.926Z</time></trkpt><trkpt lat="44.224644319246835" lon="11.769085471040572"><ele>157.0</ele><time>2026-05-02T07:57:25.926Z</time></trkpt><trkpt lat="44.224631262968664" lon="11.768987725788827"><ele>157.0</ele><time>2026-05-02T07:57:26.926Z</time></trkpt><trkpt lat="44.22467828929995" lon="11.76885922735672"><ele>157.5</ele><time>2026-05-02T07:57:28.926Z</time></trkpt><trkpt lat="44.2247401922787" lon="11.768799160890094"><ele>158.0</ele><time>2026-05-02T07:57:29.926Z</time></trkpt><trkpt lat="44.22478968969331" lon="11.768728326467201"><ele>158.5</ele><time>2026-05-02T07:57:30.926Z</time></trkpt><trkpt lat="44.224852782455585" lon="11.76864708614452"><ele>159.0</ele><time>2026-05-02T07:57:31.926Z</time></trkpt><trkpt lat="44.224917661905536" lon="11.768560519243609"><ele>159.5</ele><time>2026-05-02T07:57:32.926Z</time></trkpt><trkpt lat="44.224998868272266" lon="11.76853314402624"><ele>160.0</ele><time>2026-05-02T07:57:33.926Z</time></trkpt><trkpt lat="44.22508788863485" lon="11.768569419354943"><ele>166.6</ele><time>2026-05-02T07:57:34.926Z</time></trkpt><trkpt lat="44.225132901661745" lon="11.768661096269005"><ele>173.2</ele><time>2026-05-02T07:57:35.926Z</time></trkpt><trkpt lat="44.225129649356546" lon="11.768810997094635"><ele>179.8</ele><time>2026-05-02T07:57:36.926Z</time></trkpt><trkpt lat="44.22515655675841" lon="11.768945421864322"><ele>186.4</ele><time>2026-05-02T07:57:37.926Z</time></trkpt><trkpt lat="44.22517917062619" lon="11.769066251450203"><ele>193.0</ele><time>2026-05-02T07:57:38.926Z</time></trkpt><trkpt lat="44.22523034831979" lon="11.769153290269188"><ele>193.0</ele><time>2026-05-02T07:57:39.926Z</time></trkpt><trkpt lat="44.2252974236416" lon="11.769191930098701"><ele>193.0</ele><time>2026-05-02T07:57:40.926Z</time></trkpt><trkpt lat="44.22538355821223" lon="11.769177181452822"><ele>193.0</ele><time>2026-05-02T07:57:41.926Z</time></trkpt><trkpt lat="44.22547273556156" lon="11.769076558523016"><ele>193.0</ele><time>2026-05-02T07:57:42.926Z</time></trkpt><trkpt lat="44.2255698877374" lon="11.768942151293224"><ele>193.0</ele><time>2026-05-02T07:57:43.926Z</time></trkpt><trkpt lat="44.22566475468073" lon="11.768818313110215"><ele>195.25</ele><time>2026-05-02T07:57:44.926Z</time></trkpt><trkpt lat="44.22577182318445" lon="11.76871100099409"><ele>197.5</ele><time>2026-05-02T07:57:45.926Z</time></trkpt><trkpt lat="44.225895513195255" lon="11.768626834842705"><ele>199.75</ele><time>2026-05-02T07:57:46.926Z</time></trkpt><trkpt lat="44.22603016469017" lon="11.768560021679464"><ele>202.0</ele><time>2026-05-02T07:57:47.926Z</time></trkpt><trkpt lat="44.22616632491807" lon="11.768516253616374"><ele>201.99999999999997</ele><time>2026-05-02T07:57:48.926Z</time></trkpt><trkpt lat="44.226284458404926" lon="11.7684976477606"><ele>202.0</ele><time>2026-05-02T07:57:49.926Z</time></trkpt><trkpt lat="44.22635963641336" lon="11.768477983011852"><ele>202.0</ele><time>2026-05-02T07:57:50.925Z</time></trkpt><trkpt lat="44.226422861436355" lon="11.768491487617855"><ele>202.0</ele><time>2026-05-02T07:57:51.925Z</time></trkpt><trkpt lat="44.22647416330976" lon="11.768557807113938"><ele>201.99999999999997</ele><time>2026-05-02T07:57:52.925Z</time></trkpt><trkpt lat="44.2265076134811" lon="11.768639140829064"><ele>202.0</ele><time>2026-05-02T07:57:53.925Z</time></trkpt><trkpt lat="44.22643681645254" lon="11.768874950564586"><ele>203.6</ele><time>2026-05-02T07:57:55.925Z</time></trkpt><trkpt lat="44.226342608954916" lon="11.768882988630137"><ele>205.2</ele><time>2026-05-02T07:57:56.925Z</time></trkpt><trkpt lat="44.226246269263356" lon="11.76885955532531"><ele>206.8</ele><time>2026-05-02T07:57:57.925Z</time></trkpt><trkpt lat="44.22618003941374" lon="11.768892361258736"><ele>208.4</ele><time>2026-05-02T07:57:58.925Z</time></trkpt><trkpt lat="44.22611285583688" lon="11.769036131576087"><ele>210.0</ele><time>2026-05-02T07:58:00.925Z</time></trkpt><trkpt lat="44.22612037607917" lon="11.769162585677806"><ele>210.0</ele><time>2026-05-02T07:58:01.925Z</time></trkpt><trkpt lat="44.22615829156817" lon="11.76926356534441"><ele>210.0</ele><time>2026-05-02T07:58:02.925Z</time></trkpt><trkpt lat="44.22621335622666" lon="11.76933809291937"><ele>210.0</ele><time>2026-05-02T07:58:03.925Z</time></trkpt><trkpt lat="44.226306214925025" lon="11.769358327254068"><ele>210.0</ele><time>2026-05-02T07:58:04.925Z</time></trkpt><trkpt lat="44.22639371658462" lon="11.76935113786001"><ele>210.0</ele><time>2026-05-02T07:58:05.925Z</time></trkpt><trkpt lat="44.22649280884871" lon="11.769287254014833"><ele>210.0</ele><time>2026-05-02T07:58:06.925Z</time></trkpt><trkpt lat="44.226583823652625" lon="11.769211542302342"><ele>211.8</ele><time>2026-05-02T07:58:07.925Z</time></trkpt><trkpt lat="44.22666391904657" lon="11.769113742865946"><ele>213.6</ele><time>2026-05-02T07:58:08.925Z</time></trkpt><trkpt lat="44.226722927538475" lon="11.768999321216398"><ele>215.39999999999998</ele><time>2026-05-02T07:58:09.925Z</time></trkpt><trkpt lat="44.22674167817885" lon="11.768868169063376"><ele>217.2</ele><time>2026-05-02T07:58:10.925Z</time></trkpt><trkpt lat="44.22673212047884" lon="11.768713933942585"><ele>219.0</ele><time>2026-05-02T07:58:11.925Z</time></trkpt><trkpt lat="44.22672419988437" lon="11.768546773991067"><ele>219.75</ele><time>2026-05-02T07:58:12.925Z</time></trkpt><trkpt lat="44.22674964412312" lon="11.768397691479729"><ele>220.5</ele><time>2026-05-02T07:58:13.925Z</time></trkpt><trkpt lat="44.226807756514745" lon="11.768263554524445"><ele>221.25</ele><time>2026-05-02T07:58:14.925Z</time></trkpt><trkpt lat="44.22690660663113" lon="11.768145315946974"><ele>222.0</ele><time>2026-05-02T07:58:15.925Z</time></trkpt><trkpt lat="44.22700258114945" lon="11.768007947445412"><ele>222.0</ele><time>2026-05-02T07:58:16.925Z</time></trkpt><trkpt lat="44.22711167496881" lon="11.767861889090891"><ele>222.0</ele><time>2026-05-02T07:58:17.925Z</time></trkpt><trkpt lat="44.22722849138706" lon="11.767705736664718"><ele>222.0</ele><time>2026-05-02T07:58:18.925Z</time></trkpt><trkpt lat="44.22733651680961" lon="11.7675498699771"><ele>226.25</ele><time>2026-05-02T07:58:19.925Z</time></trkpt><trkpt lat="44.22744366457291" lon="11.7673922921686"><ele>230.5</ele><time>2026-05-02T07:58:20.925Z</time></trkpt><trkpt lat="44.22753654627953" lon="11.767249464830693"><ele>234.75</ele><time>2026-05-02T07:58:21.925Z</time></trkpt><trkpt lat="44.227608697826994" lon="11.767111902066928"><ele>239.0</ele><time>2026-05-02T07:58:22.925Z</time></trkpt><trkpt lat="44.22766533266867" lon="11.766965304122417"><ele>238.75</ele><time>2026-05-02T07:58:23.925Z</time></trkpt><trkpt lat="44.22769893790301" lon="11.766802319458314"><ele>238.5</ele><time>2026-05-02T07:58:24.925Z</time></trkpt><trkpt lat="44.22768516693132" lon="11.766635990417463"><ele>238.25</ele><time>2026-05-02T07:58:25.925Z</time></trkpt><trkpt lat="44.22764169130595" lon="11.766459991805252"><ele>238.0</ele><time>2026-05-02T07:58:26.925Z</time></trkpt><trkpt lat="44.2275872099648" lon="11.766298260077363"><ele>238.0</ele><time>2026-05-02T07:58:27.925Z</time></trkpt><trkpt lat="44.227543573799466" lon="11.76613028519781"><ele>238.0</ele><time>2026-05-02T07:58:28.925Z</time></trkpt><trkpt lat="44.227523944850454" lon="11.765946617791844"><ele>238.0</ele><time>2026-05-02T07:58:29.925Z</time></trkpt><trkpt lat="44.227526752970334" lon="11.76574123813484"><ele>238.0</ele><time>2026-05-02T07:58:30.925Z</time></trkpt><trkpt lat="44.22756744693325" lon="11.7655364146513"><ele>237.66666666666666</ele><time>2026-05-02T07:58:31.925Z</time></trkpt><trkpt lat="44.22762349292064" lon="11.765331979265172"><ele>237.33333333333331</ele><time>2026-05-02T07:58:32.925Z</time></trkpt><trkpt lat="44.227653728707246" lon="11.765128295295927"><ele>237.0</ele><time>2026-05-02T07:58:33.925Z</time></trkpt><trkpt lat="44.22764735572952" lon="11.764919347729677"><ele>238.25</ele><time>2026-05-02T07:58:34.925Z</time></trkpt><trkpt lat="44.22762669367388" lon="11.764723032375512"><ele>239.5</ele><time>2026-05-02T07:58:35.925Z</time></trkpt><trkpt lat="44.2276006590815" lon="11.764543599957303"><ele>240.75</ele><time>2026-05-02T07:58:36.925Z</time></trkpt><trkpt lat="44.22757134785583" lon="11.76439064437137"><ele>242.0</ele><time>2026-05-02T07:58:37.925Z</time></trkpt><trkpt lat="44.227530229187494" lon="11.764258965479277"><ele>243.25</ele><time>2026-05-02T07:58:38.925Z</time></trkpt><trkpt lat="44.22745999496454" lon="11.764148003372215"><ele>244.5</ele><time>2026-05-02T07:58:39.925Z</time></trkpt><trkpt lat="44.22736600067396" lon="11.764055887271486"><ele>245.75</ele><time>2026-05-02T07:58:40.925Z</time></trkpt><trkpt lat="44.227253535674535" lon="11.763970807707317"><ele>247.0</ele><time>2026-05-02T07:58:41.925Z</time></trkpt><trkpt lat="44.227117479094964" lon="11.763887239148366"><ele>247.0</ele><time>2026-05-02T07:58:42.925Z</time></trkpt><trkpt lat="44.2269805581222" lon="11.763793942484739"><ele>247.0</ele><time>2026-05-02T07:58:43.925Z</time></trkpt><trkpt lat="44.22683468139774" lon="11.763684122827472"><ele>247.0</ele><time>2026-05-02T07:58:44.925Z</time></trkpt><trkpt lat="44.22668608381812" lon="11.76357543584632"><ele>249.0</ele><time>2026-05-02T07:58:45.925Z</time></trkpt><trkpt lat="44.226536856905874" lon="11.763465422305247"><ele>251.0</ele><time>2026-05-02T07:58:46.925Z</time></trkpt><trkpt lat="44.22640581606059" lon="11.763360437770691"><ele>253.0</ele><time>2026-05-02T07:58:47.925Z</time></trkpt><trkpt lat="44.22630556902463" lon="11.763258218311861"><ele>255.0</ele><time>2026-05-02T07:58:48.925Z</time></trkpt><trkpt lat="44.22624213108033" lon="11.763134700284894"><ele>255.75</ele><time>2026-05-02T07:58:49.925Z</time></trkpt><trkpt lat="44.22622861573768" lon="11.762985734204483"><ele>256.5</ele><time>2026-05-02T07:58:50.925Z</time></trkpt><trkpt lat="44.226259156258465" lon="11.762822546544085"><ele>257.25</ele><time>2026-05-02T07:58:51.925Z</time></trkpt><trkpt lat="44.22628894857217" lon="11.762625474359513"><ele>258.0</ele><time>2026-05-02T07:58:52.925Z</time></trkpt><trkpt lat="44.22631026464999" lon="11.762413616273863"><ele>259.0</ele><time>2026-05-02T07:58:53.925Z</time></trkpt><trkpt lat="44.2263217396626" lon="11.762215228655798"><ele>260.0</ele><time>2026-05-02T07:58:54.925Z</time></trkpt><trkpt lat="44.22629280339349" lon="11.762049461600665"><ele>261.0</ele><time>2026-05-02T07:58:55.925Z</time></trkpt><trkpt lat="44.22623357692267" lon="11.761908031899164"><ele>262.0</ele><time>2026-05-02T07:58:56.925Z</time></trkpt><trkpt lat="44.22614311564617" lon="11.761791450567232"><ele>262.0</ele><time>2026-05-02T07:58:57.925Z</time></trkpt><trkpt lat="44.22601932085054" lon="11.761693038763495"><ele>262.0</ele><time>2026-05-02T07:58:58.925Z</time></trkpt><trkpt lat="44.2259053488603" lon="11.761584804103995"><ele>262.0</ele><time>2026-05-02T07:58:59.925Z</time></trkpt><trkpt lat="44.225816883859224" lon="11.761452820975666"><ele>262.0</ele><time>2026-05-02T07:59:00.925Z</time></trkpt><trkpt lat="44.22575944962898" lon="11.761299986646128"><ele>262.0</ele><time>2026-05-02T07:59:01.925Z</time></trkpt><trkpt lat="44.22573988554651" lon="11.761124958258172"><ele>262.0</ele><time>2026-05-02T07:59:02.925Z</time></trkpt><trkpt lat="44.225786222511104" lon="11.760955835046907"><ele>262.0</ele><time>2026-05-02T07:59:03.922Z</time></trkpt><trkpt lat="44.22583385932363" lon="11.760765126627758"><ele>262.0</ele><time>2026-05-02T07:59:04.922Z</time></trkpt><trkpt lat="44.22589132059" lon="11.760564196595446"><ele>263.66666666666663</ele><time>2026-05-02T07:59:05.922Z</time></trkpt><trkpt lat="44.22595086744825" lon="11.760354114972213"><ele>265.3333333333333</ele><time>2026-05-02T07:59:06.923Z</time></trkpt><trkpt lat="44.22601341249651" lon="11.760121699440788"><ele>267.0</ele><time>2026-05-02T07:59:07.922Z</time></trkpt><trkpt lat="44.226077993453366" lon="11.759874861724883"><ele>270.0</ele><time>2026-05-02T07:59:08.922Z</time></trkpt><trkpt lat="44.226142575147925" lon="11.759623282396168"><ele>273.0</ele><time>2026-05-02T07:59:09.922Z</time></trkpt><trkpt lat="44.226207736055024" lon="11.759358826138117"><ele>276.0</ele><time>2026-05-02T07:59:10.922Z</time></trkpt><trkpt lat="44.22627565486786" lon="11.759083169147848"><ele>279.0</ele><time>2026-05-02T07:59:11.922Z</time></trkpt><trkpt lat="44.226346702246026" lon="11.758814539566798"><ele>282.0</ele><time>2026-05-02T07:59:12.922Z</time></trkpt><trkpt lat="44.22641588381842" lon="11.758543273034265"><ele>285.0</ele><time>2026-05-02T07:59:13.922Z</time></trkpt><trkpt lat="44.226473775671224" lon="11.75827007597964"><ele>281.0</ele><time>2026-05-02T07:59:14.922Z</time></trkpt><trkpt lat="44.22653695730162" lon="11.75801680225004"><ele>277.0</ele><time>2026-05-02T07:59:15.923Z</time></trkpt><trkpt lat="44.22660194844362" lon="11.757792988217815"><ele>273.0</ele><time>2026-05-02T07:59:16.922Z</time></trkpt><trkpt lat="44.226670894293036" lon="11.757570144788357"><ele>273.0</ele><time>2026-05-02T07:59:17.922Z</time></trkpt><trkpt lat="44.22671695786203" lon="11.75735753112032"><ele>273.0</ele><time>2026-05-02T07:59:18.922Z</time></trkpt><trkpt lat="44.226741200698804" lon="11.757129386002722"><ele>273.0</ele><time>2026-05-02T07:59:19.922Z</time></trkpt><trkpt lat="44.226742034166044" lon="11.756903548302011"><ele>273.0</ele><time>2026-05-02T07:59:20.922Z</time></trkpt><trkpt lat="44.226743062607994" lon="11.756667412228829"><ele>273.0</ele><time>2026-05-02T07:59:21.922Z</time></trkpt><trkpt lat="44.22672657618563" lon="11.75642372924648"><ele>273.0</ele><time>2026-05-02T07:59:22.922Z</time></trkpt><trkpt lat="44.22671892513741" lon="11.756176825135618"><ele>274.0</ele><time>2026-05-02T07:59:23.922Z</time></trkpt><trkpt lat="44.22672919533887" lon="11.755918044427197"><ele>275.0</ele><time>2026-05-02T07:59:24.922Z</time></trkpt><trkpt lat="44.2267548824911" lon="11.755662228967038"><ele>276.0</ele><time>2026-05-02T07:59:25.922Z</time></trkpt><trkpt lat="44.22679636810598" lon="11.755415930684073"><ele>278.0</ele><time>2026-05-02T07:59:26.922Z</time></trkpt><trkpt lat="44.22682997025832" lon="11.755181915685563"><ele>280.0</ele><time>2026-05-02T07:59:27.922Z</time></trkpt><trkpt lat="44.22684938959664" lon="11.754950426403957"><ele>282.0</ele><time>2026-05-02T07:59:28.922Z</time></trkpt><trkpt lat="44.22690074167625" lon="11.754740392700768"><ele>282.0</ele><time>2026-05-02T07:59:29.922Z</time></trkpt><trkpt lat="44.22697083798671" lon="11.754552962381453"><ele>282.0</ele><time>2026-05-02T07:59:30.922Z</time></trkpt><trkpt lat="44.22705673751291" lon="11.754386022305756"><ele>282.0</ele><time>2026-05-02T07:59:31.922Z</time></trkpt><trkpt lat="44.22716289545274" lon="11.754225343033745"><ele>277.6666666666667</ele><time>2026-05-02T07:59:32.922Z</time></trkpt><trkpt lat="44.22729532917848" lon="11.75407992673121"><ele>273.33333333333337</ele><time>2026-05-02T07:59:33.922Z</time></trkpt><trkpt lat="44.2274356810052" lon="11.753923562889744"><ele>269.0</ele><time>2026-05-02T07:59:34.922Z</time></trkpt><trkpt lat="44.22756496972437" lon="11.75377300060884"><ele>269.0</ele><time>2026-05-02T07:59:35.922Z</time></trkpt><trkpt lat="44.22768409169314" lon="11.753608866928195"><ele>269.0</ele><time>2026-05-02T07:59:36.922Z</time></trkpt><trkpt lat="44.227783567242874" lon="11.753439608526303"><ele>269.0</ele><time>2026-05-02T07:59:37.922Z</time></trkpt><trkpt lat="44.22785336221248" lon="11.753285307480727"><ele>271.2</ele><time>2026-05-02T07:59:38.922Z</time></trkpt><trkpt lat="44.22790621074518" lon="11.753147460897992"><ele>273.4</ele><time>2026-05-02T07:59:39.922Z</time></trkpt><trkpt lat="44.22794495920758" lon="11.753003704195201"><ele>275.6</ele><time>2026-05-02T07:59:40.922Z</time></trkpt><trkpt lat="44.22796038195603" lon="11.752854201457433"><ele>277.8</ele><time>2026-05-02T07:59:41.922Z</time></trkpt><trkpt lat="44.22795236783038" lon="11.752710553559908"><ele>280.0</ele><time>2026-05-02T07:59:42.922Z</time></trkpt><trkpt lat="44.22788960260008" lon="11.752614193220754"><ele>280.0</ele><time>2026-05-02T07:59:43.922Z</time></trkpt><trkpt lat="44.22780318370039" lon="11.752523213065924"><ele>280.0</ele><time>2026-05-02T07:59:44.922Z</time></trkpt><trkpt lat="44.22771232079007" lon="11.752455965688798"><ele>280.0</ele><time>2026-05-02T07:59:45.922Z</time></trkpt><trkpt lat="44.22759118017693" lon="11.752427673469887"><ele>280.0</ele><time>2026-05-02T07:59:46.922Z</time></trkpt><trkpt lat="44.227462818210206" lon="11.752408765545045"><ele>280.0</ele><time>2026-05-02T07:59:47.922Z</time></trkpt><trkpt lat="44.22732916888843" lon="11.752386433706851"><ele>280.0</ele><time>2026-05-02T07:59:48.922Z</time></trkpt><trkpt lat="44.22719520726918" lon="11.752368155713537"><ele>280.0</ele><time>2026-05-02T07:59:49.922Z</time></trkpt><trkpt lat="44.22706570628712" lon="11.752336508855945"><ele>280.0</ele><time>2026-05-02T07:59:50.921Z</time></trkpt><trkpt lat="44.226938256125315" lon="11.75228390455235"><ele>280.0</ele><time>2026-05-02T07:59:51.921Z</time></trkpt><trkpt lat="44.22682070252907" lon="11.752198406687379"><ele>280.0</ele><time>2026-05-02T07:59:52.921Z</time></trkpt><trkpt lat="44.22671599952045" lon="11.752087968323014"><ele>280.0</ele><time>2026-05-02T07:59:53.921Z</time></trkpt><trkpt lat="44.22661446274514" lon="11.751964644079655"><ele>280.0</ele><time>2026-05-02T07:59:54.921Z</time></trkpt><trkpt lat="44.22651785571195" lon="11.751836575406758"><ele>283.5</ele><time>2026-05-02T07:59:55.921Z</time></trkpt><trkpt lat="44.22642651788644" lon="11.751707887667266"><ele>287.0</ele><time>2026-05-02T07:59:56.921Z</time></trkpt><trkpt lat="44.226355827470385" lon="11.75158082681556"><ele>290.5</ele><time>2026-05-02T07:59:57.921Z</time></trkpt><trkpt lat="44.226298069778494" lon="11.751441988789729"><ele>294.0</ele><time>2026-05-02T07:59:58.921Z</time></trkpt><trkpt lat="44.22626365294726" lon="11.751285929729532"><ele>294.0</ele><time>2026-05-02T07:59:59.921Z</time></trkpt><trkpt lat="44.2262556423572" lon="11.751124713135797"><ele>294.0</ele><time>2026-05-02T08:00:00.921Z</time></trkpt><trkpt lat="44.22627608654164" lon="11.750960618338409"><ele>294.0</ele><time>2026-05-02T08:00:01.921Z</time></trkpt><trkpt lat="44.226314610570284" lon="11.750798297037571"><ele>294.0</ele><time>2026-05-02T08:00:02.921Z</time></trkpt><trkpt lat="44.22637299010209" lon="11.750628572895815"><ele>294.0</ele><time>2026-05-02T08:00:03.921Z</time></trkpt><trkpt lat="44.2264512136535" lon="11.750461926437792"><ele>294.0</ele><time>2026-05-02T08:00:04.921Z</time></trkpt><trkpt lat="44.226546990679694" lon="11.750295451885455"><ele>294.0</ele><time>2026-05-02T08:00:05.921Z</time></trkpt><trkpt lat="44.226642365898854" lon="11.750124207030584"><ele>290.3333333333333</ele><time>2026-05-02T08:00:06.921Z</time></trkpt><trkpt lat="44.22674778454611" lon="11.749948145145638"><ele>286.66666666666663</ele><time>2026-05-02T08:00:07.921Z</time></trkpt><trkpt lat="44.22683070944946" lon="11.749735952451477"><ele>283.0</ele><time>2026-05-02T08:00:08.921Z</time></trkpt><trkpt lat="44.22690091257075" lon="11.749503912210038"><ele>284.3333333333333</ele><time>2026-05-02T08:00:09.921Z</time></trkpt><trkpt lat="44.22696625497488" lon="11.749261711743157"><ele>285.6666666666667</ele><time>2026-05-02T08:00:10.921Z</time></trkpt><trkpt lat="44.22703033858435" lon="11.749014788413175"><ele>287.0</ele><time>2026-05-02T08:00:11.921Z</time></trkpt><trkpt lat="44.22709371979761" lon="11.748774239320452"><ele>287.0</ele><time>2026-05-02T08:00:12.921Z</time></trkpt><trkpt lat="44.22715615447529" lon="11.748551711941142"><ele>287.0</ele><time>2026-05-02T08:00:13.921Z</time></trkpt><trkpt lat="44.227207394752725" lon="11.748340028719024"><ele>287.0</ele><time>2026-05-02T08:00:14.921Z</time></trkpt><trkpt lat="44.22723746192906" lon="11.74811826097277"><ele>289.33333333333337</ele><time>2026-05-02T08:00:15.921Z</time></trkpt><trkpt lat="44.227252681418605" lon="11.747892631710698"><ele>291.6666666666667</ele><time>2026-05-02T08:00:16.921Z</time></trkpt><trkpt lat="44.22726478280682" lon="11.747669175442713"><ele>294.0</ele><time>2026-05-02T08:00:17.921Z</time></trkpt><trkpt lat="44.227294076126846" lon="11.747445787095943"><ele>291.6666666666667</ele><time>2026-05-02T08:00:18.921Z</time></trkpt><trkpt lat="44.22733723247141" lon="11.747219836619257"><ele>289.33333333333337</ele><time>2026-05-02T08:00:19.921Z</time></trkpt><trkpt lat="44.22740786450086" lon="11.747000450796017"><ele>287.0</ele><time>2026-05-02T08:00:20.921Z</time></trkpt><trkpt lat="44.22752130548613" lon="11.746802375090176"><ele>287.0</ele><time>2026-05-02T08:00:21.921Z</time></trkpt><trkpt lat="44.22760938060719" lon="11.746593024449849"><ele>287.0</ele><time>2026-05-02T08:00:22.921Z</time></trkpt><trkpt lat="44.22771278812323" lon="11.746384790176258"><ele>287.0</ele><time>2026-05-02T08:00:23.921Z</time></trkpt><trkpt lat="44.22778936675804" lon="11.746173213558642"><ele>287.6666666666667</ele><time>2026-05-02T08:00:24.921Z</time></trkpt><trkpt lat="44.227848739557125" lon="11.745960248974768"><ele>288.3333333333333</ele><time>2026-05-02T08:00:25.921Z</time></trkpt><trkpt lat="44.22789859400303" lon="11.745742693041002"><ele>289.0</ele><time>2026-05-02T08:00:26.921Z</time></trkpt><trkpt lat="44.227927051127324" lon="11.745512316010936"><ele>289.0</ele><time>2026-05-02T08:00:27.921Z</time></trkpt><trkpt lat="44.22795975064743" lon="11.745290941819379"><ele>289.0</ele><time>2026-05-02T08:00:28.921Z</time></trkpt><trkpt lat="44.228020044631045" lon="11.745084759430554"><ele>289.0</ele><time>2026-05-02T08:00:29.921Z</time></trkpt><trkpt lat="44.22812333177095" lon="11.744895618084637"><ele>283.0</ele><time>2026-05-02T08:00:30.921Z</time></trkpt><trkpt lat="44.22824182259696" lon="11.744719618686966"><ele>277.0</ele><time>2026-05-02T08:00:31.921Z</time></trkpt><trkpt lat="44.22837419543412" lon="11.744567522323504"><ele>271.0</ele><time>2026-05-02T08:00:32.921Z</time></trkpt><trkpt lat="44.228511832838606" lon="11.744426582561685"><ele>271.3333333333333</ele><time>2026-05-02T08:00:33.921Z</time></trkpt><trkpt lat="44.228661870005126" lon="11.744321144817794"><ele>271.6666666666667</ele><time>2026-05-02T08:00:34.921Z</time></trkpt><trkpt lat="44.2288240688634" lon="11.744236102461606"><ele>272.0</ele><time>2026-05-02T08:00:35.921Z</time></trkpt><trkpt lat="44.228998093902675" lon="11.744149606484363"><ele>272.0</ele><time>2026-05-02T08:00:36.921Z</time></trkpt><trkpt lat="44.22916626750066" lon="11.744053640866436"><ele>272.0</ele><time>2026-05-02T08:00:37.921Z</time></trkpt><trkpt lat="44.22932876997424" lon="11.743957273588098"><ele>272.0</ele><time>2026-05-02T08:00:38.921Z</time></trkpt><trkpt lat="44.22949001299683" lon="11.743854312495452"><ele>272.0</ele><time>2026-05-02T08:00:39.921Z</time></trkpt><trkpt lat="44.229643906592734" lon="11.743753400405666"><ele>272.0</ele><time>2026-05-02T08:00:40.921Z</time></trkpt><trkpt lat="44.22979430269607" lon="11.743641666572909"><ele>272.0</ele><time>2026-05-02T08:00:41.921Z</time></trkpt><trkpt lat="44.22993560121433" lon="11.743523512260298"><ele>270.0</ele><time>2026-05-02T08:00:42.921Z</time></trkpt><trkpt lat="44.230076747696316" lon="11.743412759436925"><ele>268.0</ele><time>2026-05-02T08:00:43.921Z</time></trkpt><trkpt lat="44.23021473985875" lon="11.743312503036266"><ele>266.0</ele><time>2026-05-02T08:00:44.921Z</time></trkpt><trkpt lat="44.23035816081855" lon="11.743236771536589"><ele>266.0</ele><time>2026-05-02T08:00:45.921Z</time></trkpt><trkpt lat="44.23051797720096" lon="11.743212609360267"><ele>266.0</ele><time>2026-05-02T08:00:46.921Z</time></trkpt><trkpt lat="44.230686141709164" lon="11.743234778743744"><ele>266.0</ele><time>2026-05-02T08:00:47.921Z</time></trkpt><trkpt lat="44.230849996568516" lon="11.743306403362817"><ele>264.6</ele><time>2026-05-02T08:00:48.921Z</time></trkpt><trkpt lat="44.230983609797775" lon="11.74338786665574"><ele>263.20000000000005</ele><time>2026-05-02T08:00:49.921Z</time></trkpt><trkpt lat="44.23108829805438" lon="11.74345432701969"><ele>261.79999999999995</ele><time>2026-05-02T08:00:50.921Z</time></trkpt><trkpt lat="44.23118295828951" lon="11.743501850699925"><ele>260.4</ele><time>2026-05-02T08:00:51.921Z</time></trkpt><trkpt lat="44.231264525454094" lon="11.743520340510313"><ele>259.0</ele><time>2026-05-02T08:00:52.921Z</time></trkpt><trkpt lat="44.2313293793046" lon="11.743500757668068"><ele>259.0</ele><time>2026-05-02T08:00:53.921Z</time></trkpt><trkpt lat="44.23138948958689" lon="11.743443087174196"><ele>259.0</ele><time>2026-05-02T08:00:54.921Z</time></trkpt><trkpt lat="44.23144827857975" lon="11.74334871613429"><ele>259.0</ele><time>2026-05-02T08:00:55.921Z</time></trkpt><trkpt lat="44.23151949790415" lon="11.743234572241365"><ele>259.0</ele><time>2026-05-02T08:00:56.921Z</time></trkpt><trkpt lat="44.2316084973222" lon="11.743113515589181"><ele>259.0</ele><time>2026-05-02T08:00:57.921Z</time></trkpt><trkpt lat="44.23170129161692" lon="11.742979200012257"><ele>257.3333333333333</ele><time>2026-05-02T08:00:58.921Z</time></trkpt><trkpt lat="44.231803708677944" lon="11.742831141974062"><ele>255.66666666666669</ele><time>2026-05-02T08:00:59.921Z</time></trkpt><trkpt lat="44.23191333747379" lon="11.742679748611822"><ele>254.0</ele><time>2026-05-02T08:01:00.921Z</time></trkpt><trkpt lat="44.23203277270156" lon="11.74252701411196"><ele>253.0</ele><time>2026-05-02T08:01:01.921Z</time></trkpt><trkpt lat="44.232166042232315" lon="11.742378044135238"><ele>252.0</ele><time>2026-05-02T08:01:02.921Z</time></trkpt><trkpt lat="44.2323059737929" lon="11.742229921965201"><ele>251.0</ele><time>2026-05-02T08:01:03.921Z</time></trkpt><trkpt lat="44.232454168605095" lon="11.742087744617502"><ele>251.0</ele><time>2026-05-02T08:01:04.921Z</time></trkpt><trkpt lat="44.23259720557968" lon="11.741964974825844"><ele>251.0</ele><time>2026-05-02T08:01:05.921Z</time></trkpt><trkpt lat="44.232720589020616" lon="11.741865361811174"><ele>251.0</ele><time>2026-05-02T08:01:06.921Z</time></trkpt><trkpt lat="44.23282746858247" lon="11.741776681732816"><ele>251.0</ele><time>2026-05-02T08:01:07.921Z</time></trkpt><trkpt lat="44.232922801233094" lon="11.74169003496376"><ele>254.60000000000002</ele><time>2026-05-02T08:01:08.921Z</time></trkpt><trkpt lat="44.23300479956711" lon="11.741595799922194"><ele>258.20000000000005</ele><time>2026-05-02T08:01:09.919Z</time></trkpt><trkpt lat="44.23306725849691" lon="11.741482368506095"><ele>261.79999999999995</ele><time>2026-05-02T08:01:10.919Z</time></trkpt><trkpt lat="44.23310031082709" lon="11.741340594143338"><ele>265.4</ele><time>2026-05-02T08:01:11.919Z</time></trkpt><trkpt lat="44.23310306154501" lon="11.741185516717445"><ele>269.0</ele><time>2026-05-02T08:01:12.919Z</time></trkpt><trkpt lat="44.23308241729642" lon="11.741011018068049"><ele>269.0</ele><time>2026-05-02T08:01:13.919Z</time></trkpt><trkpt lat="44.23303995000933" lon="11.740826330579438"><ele>269.0</ele><time>2026-05-02T08:01:14.919Z</time></trkpt><trkpt lat="44.23299208313502" lon="11.74062304540323"><ele>269.0</ele><time>2026-05-02T08:01:15.919Z</time></trkpt><trkpt lat="44.2329633027896" lon="11.740414457912014"><ele>269.0</ele><time>2026-05-02T08:01:16.921Z</time></trkpt><trkpt lat="44.23297534848369" lon="11.740208493681628"><ele>268.25</ele><time>2026-05-02T08:01:17.922Z</time></trkpt><trkpt lat="44.232978570280736" lon="11.740000582468644"><ele>267.5</ele><time>2026-05-02T08:01:18.923Z</time></trkpt><trkpt lat="44.232988783082476" lon="11.73982752457451"><ele>266.75</ele><time>2026-05-02T08:01:19.924Z</time></trkpt><trkpt lat="44.233023329284585" lon="11.739677011132041"><ele>266.0</ele><time>2026-05-02T08:01:20.925Z</time></trkpt><trkpt lat="44.23308321292804" lon="11.739532492751907"><ele>267.25</ele><time>2026-05-02T08:01:21.925Z</time></trkpt><trkpt lat="44.23313635217792" lon="11.739348903670376"><ele>268.5</ele><time>2026-05-02T08:01:22.927Z</time></trkpt><trkpt lat="44.23324529287515" lon="11.739189551250112"><ele>269.75</ele><time>2026-05-02T08:01:23.927Z</time></trkpt><trkpt lat="44.233327605114134" lon="11.739020919414845"><ele>271.0</ele><time>2026-05-02T08:01:24.928Z</time></trkpt><trkpt lat="44.2334074859339" lon="11.738866720962845"><ele>269.25</ele><time>2026-05-02T08:01:25.929Z</time></trkpt><trkpt lat="44.23350548616671" lon="11.73875881646987"><ele>267.5</ele><time>2026-05-02T08:01:26.929Z</time></trkpt><trkpt lat="44.2336253399468" lon="11.738668160545148"><ele>265.75</ele><time>2026-05-02T08:01:27.93Z</time></trkpt><trkpt lat="44.23376527260456" lon="11.738593562822233"><ele>264.0</ele><time>2026-05-02T08:01:28.93Z</time></trkpt><trkpt lat="44.23390518100092" lon="11.738495598048198"><ele>257.6666666666667</ele><time>2026-05-02T08:01:29.931Z</time></trkpt><trkpt lat="44.23405140415693" lon="11.738404002987844"><ele>251.33333333333334</ele><time>2026-05-02T08:01:30.931Z</time></trkpt><trkpt lat="44.234197980428696" lon="11.738299365850777"><ele>245.0</ele><time>2026-05-02T08:01:31.932Z</time></trkpt><trkpt lat="44.23433533650488" lon="11.738190212298317"><ele>245.0</ele><time>2026-05-02T08:01:32.932Z</time></trkpt><trkpt lat="44.234459333314504" lon="11.73807868521748"><ele>245.0</ele><time>2026-05-02T08:01:33.933Z</time></trkpt><trkpt lat="44.23458368932762" lon="11.738025632978784"><ele>245.0</ele><time>2026-05-02T08:01:34.933Z</time></trkpt><trkpt lat="44.23470263111217" lon="11.737988267279414"><ele>245.0</ele><time>2026-05-02T08:01:35.933Z</time></trkpt><trkpt lat="44.23483818536674" lon="11.737987241107595"><ele>245.0</ele><time>2026-05-02T08:01:36.934Z</time></trkpt><trkpt lat="44.23497427170032" lon="11.737942034620227"><ele>245.0</ele><time>2026-05-02T08:01:37.934Z</time></trkpt><trkpt lat="44.23510215126486" lon="11.73789880192725"><ele>245.0</ele><time>2026-05-02T08:01:38.934Z</time></trkpt><trkpt lat="44.235243013233685" lon="11.7378171406586"><ele>245.0</ele><time>2026-05-02T08:01:39.935Z</time></trkpt><trkpt lat="44.2353917813808" lon="11.737717818341665"><ele>245.0</ele><time>2026-05-02T08:01:40.935Z</time></trkpt><trkpt lat="44.23554483475236" lon="11.737613162426024"><ele>245.0</ele><time>2026-05-02T08:01:41.935Z</time></trkpt><trkpt lat="44.2357054208915" lon="11.737503094067524"><ele>245.0</ele><time>2026-05-02T08:01:42.935Z</time></trkpt><trkpt lat="44.23586696963529" lon="11.737392048918377"><ele>240.33333333333334</ele><time>2026-05-02T08:01:43.935Z</time></trkpt><trkpt lat="44.23602321791809" lon="11.737271189505732"><ele>235.66666666666669</ele><time>2026-05-02T08:01:44.936Z</time></trkpt><trkpt lat="44.2361947336507" lon="11.737213935239335"><ele>231.0</ele><time>2026-05-02T08:01:45.936Z</time></trkpt><trkpt lat="44.23637522620133" lon="11.737154524139571"><ele>228.0</ele><time>2026-05-02T08:01:46.936Z</time></trkpt><trkpt lat="44.23655913605091" lon="11.73711412123776"><ele>225.0</ele><time>2026-05-02T08:01:47.936Z</time></trkpt><trkpt lat="44.23673070625882" lon="11.737081873518417"><ele>222.0</ele><time>2026-05-02T08:01:48.936Z</time></trkpt><trkpt lat="44.236868369018715" lon="11.737061280461292"><ele>222.0</ele><time>2026-05-02T08:01:49.936Z</time></trkpt><trkpt lat="44.236994667597756" lon="11.73701921700698"><ele>222.0</ele><time>2026-05-02T08:01:50.937Z</time></trkpt><trkpt lat="44.23710290841817" lon="11.73701291836641"><ele>222.0</ele><time>2026-05-02T08:01:51.937Z</time></trkpt><trkpt lat="44.2372073028599" lon="11.737029551246499"><ele>222.0</ele><time>2026-05-02T08:01:52.937Z</time></trkpt><trkpt lat="44.23730750354" lon="11.737094000350584"><ele>221.0</ele><time>2026-05-02T08:01:53.937Z</time></trkpt><trkpt lat="44.23738898000183" lon="11.737221684755822"><ele>220.0</ele><time>2026-05-02T08:01:54.937Z</time></trkpt><trkpt lat="44.23744567999976" lon="11.737388053318384"><ele>219.0</ele><time>2026-05-02T08:01:55.937Z</time></trkpt><trkpt lat="44.23752851390767" lon="11.737540045960184"><ele>218.0</ele><time>2026-05-02T08:01:56.937Z</time></trkpt><trkpt lat="44.23760166050602" lon="11.737693256122267"><ele>217.4</ele><time>2026-05-02T08:01:57.937Z</time></trkpt><trkpt lat="44.23767710477697" lon="11.737826732901098"><ele>216.8</ele><time>2026-05-02T08:01:58.937Z</time></trkpt><trkpt lat="44.237759131489454" lon="11.737925860424271"><ele>216.2</ele><time>2026-05-02T08:01:59.937Z</time></trkpt><trkpt lat="44.23785062393185" lon="11.73799860760008"><ele>215.6</ele><time>2026-05-02T08:02:00.937Z</time></trkpt><trkpt lat="44.23795320884652" lon="11.738050027488939"><ele>215.0</ele><time>2026-05-02T08:02:01.938Z</time></trkpt><trkpt lat="44.238065955979465" lon="11.738127578379213"><ele>214.66666666666669</ele><time>2026-05-02T08:02:02.938Z</time></trkpt><trkpt lat="44.238205130236" lon="11.738175258102348"><ele>214.33333333333331</ele><time>2026-05-02T08:02:03.938Z</time></trkpt><trkpt lat="44.238340506592735" lon="11.738281082368625"><ele>214.0</ele><time>2026-05-02T08:02:04.938Z</time></trkpt><trkpt lat="44.238495261683084" lon="11.738370397371737"><ele>214.0</ele><time>2026-05-02T08:02:05.938Z</time></trkpt><trkpt lat="44.238637965358876" lon="11.738439747939356"><ele>214.0</ele><time>2026-05-02T08:02:06.938Z</time></trkpt><trkpt lat="44.2387493740091" lon="11.738501992296058"><ele>214.0</ele><time>2026-05-02T08:02:07.938Z</time></trkpt><trkpt lat="44.23882860418912" lon="11.738584505617629"><ele>214.0</ele><time>2026-05-02T08:02:08.938Z</time></trkpt><trkpt lat="44.238888802556545" lon="11.738699843255"><ele>212.99999999999997</ele><time>2026-05-02T08:02:09.938Z</time></trkpt><trkpt lat="44.2389218438074" lon="11.73884431974813"><ele>212.0</ele><time>2026-05-02T08:02:10.938Z</time></trkpt><trkpt lat="44.238939339370276" lon="11.73898192650221"><ele>211.0</ele><time>2026-05-02T08:02:11.938Z</time></trkpt><trkpt lat="44.23895056144255" lon="11.739093349019594"><ele>210.0</ele><time>2026-05-02T08:02:12.938Z</time></trkpt><trkpt lat="44.23898869256676" lon="11.739168709827553"><ele>208.99999999999997</ele><time>2026-05-02T08:02:13.938Z</time></trkpt><trkpt lat="44.239051037967" lon="11.73922173689595"><ele>208.0</ele><time>2026-05-02T08:02:14.938Z</time></trkpt><trkpt lat="44.23912447042094" lon="11.739232965921438"><ele>208.0</ele><time>2026-05-02T08:02:15.938Z</time></trkpt><trkpt lat="44.239204568362354" lon="11.73919561178093"><ele>208.0</ele><time>2026-05-02T08:02:16.938Z</time></trkpt><trkpt lat="44.23926197269521" lon="11.739107884328805"><ele>208.0</ele><time>2026-05-02T08:02:17.938Z</time></trkpt><trkpt lat="44.2392827216398" lon="11.738979257948527"><ele>208.0</ele><time>2026-05-02T08:02:18.938Z</time></trkpt><trkpt lat="44.23926771415853" lon="11.738850314972227"><ele>208.0</ele><time>2026-05-02T08:02:19.938Z</time></trkpt><trkpt lat="44.23922898354599" lon="11.738714364435243"><ele>208.0</ele><time>2026-05-02T08:02:20.938Z</time></trkpt><trkpt lat="44.239215224542825" lon="11.738558673801027"><ele>208.0</ele><time>2026-05-02T08:02:21.938Z</time></trkpt><trkpt lat="44.23918627578428" lon="11.738408172198023"><ele>208.0</ele><time>2026-05-02T08:02:22.938Z</time></trkpt><trkpt lat="44.23913182513079" lon="11.738273030650202"><ele>208.0</ele><time>2026-05-02T08:02:23.938Z</time></trkpt><trkpt lat="44.239061005774175" lon="11.738159134707233"><ele>208.0</ele><time>2026-05-02T08:02:24.938Z</time></trkpt><trkpt lat="44.238991049163545" lon="11.738072468481146"><ele>208.85714285714286</ele><time>2026-05-02T08:02:25.938Z</time></trkpt><trkpt lat="44.23891907650629" lon="11.738035088340894"><ele>209.71428571428572</ele><time>2026-05-02T08:02:26.938Z</time></trkpt><trkpt lat="44.23887172768281" lon="11.737963111833402"><ele>210.57142857142858</ele><time>2026-05-02T08:02:27.938Z</time></trkpt><trkpt lat="44.23885324887845" lon="11.737867168805234"><ele>211.42857142857144</ele><time>2026-05-02T08:02:28.938Z</time></trkpt><trkpt lat="44.23887612040151" lon="11.73777188163616"><ele>212.28571428571428</ele><time>2026-05-02T08:02:29.938Z</time></trkpt><trkpt lat="44.238923520650545" lon="11.737692854896213"><ele>213.14285714285717</ele><time>2026-05-02T08:02:30.938Z</time></trkpt><trkpt lat="44.23899033462051" lon="11.737657656983666"><ele>214.0</ele><time>2026-05-02T08:02:31.938Z</time></trkpt><trkpt lat="44.23906576390826" lon="11.737680934627374"><ele>212.2</ele><time>2026-05-02T08:02:32.938Z</time></trkpt><trkpt lat="44.23914586247068" lon="11.73774346634321"><ele>210.39999999999998</ele><time>2026-05-02T08:02:33.938Z</time></trkpt><trkpt lat="44.23923624191543" lon="11.737829994153493"><ele>208.6</ele><time>2026-05-02T08:02:34.938Z</time></trkpt><trkpt lat="44.23933795786797" lon="11.73791495440608"><ele>206.8</ele><time>2026-05-02T08:02:35.938Z</time></trkpt><trkpt lat="44.23944166386118" lon="11.738010289203867"><ele>205.0</ele><time>2026-05-02T08:02:36.938Z</time></trkpt><trkpt lat="44.23953373141478" lon="11.738109411257494"><ele>205.0</ele><time>2026-05-02T08:02:37.938Z</time></trkpt><trkpt lat="44.23961068106906" lon="11.738238939532014"><ele>205.0</ele><time>2026-05-02T08:02:38.938Z</time></trkpt><trkpt lat="44.23966440499617" lon="11.738379250045837"><ele>205.0</ele><time>2026-05-02T08:02:39.938Z</time></trkpt><trkpt lat="44.239708371836436" lon="11.738514147648504"><ele>205.0</ele><time>2026-05-02T08:02:40.938Z</time></trkpt><trkpt lat="44.23975934295961" lon="11.738632354480641"><ele>205.0</ele><time>2026-05-02T08:02:41.938Z</time></trkpt><trkpt lat="44.2398320341595" lon="11.738725547602046"><ele>201.25</ele><time>2026-05-02T08:02:42.938Z</time></trkpt><trkpt lat="44.23993535158454" lon="11.738784495765797"><ele>197.5</ele><time>2026-05-02T08:02:43.938Z</time></trkpt><trkpt lat="44.24006557320818" lon="11.738808780424602"><ele>193.75</ele><time>2026-05-02T08:02:44.938Z</time></trkpt><trkpt lat="44.2402032037373" lon="11.738814235493816"><ele>190.0</ele><time>2026-05-02T08:02:45.938Z</time></trkpt><trkpt lat="44.240321188297415" lon="11.738831714044883"><ele>190.0</ele><time>2026-05-02T08:02:46.938Z</time></trkpt><trkpt lat="44.24042389213582" lon="11.738885681107533"><ele>190.0</ele><time>2026-05-02T08:02:47.938Z</time></trkpt><trkpt lat="44.24050286998354" lon="11.738979786504682"><ele>190.0</ele><time>2026-05-02T08:02:48.938Z</time></trkpt><trkpt lat="44.24055108647737" lon="11.739101508086385"><ele>190.0</ele><time>2026-05-02T08:02:49.938Z</time></trkpt><trkpt lat="44.24056836646415" lon="11.739226458288599"><ele>190.0</ele><time>2026-05-02T08:02:50.938Z</time></trkpt><trkpt lat="44.240585531509595" lon="11.739330658758494"><ele>188.16666666666669</ele><time>2026-05-02T08:02:51.938Z</time></trkpt><trkpt lat="44.24062212051428" lon="11.739419653889637"><ele>186.33333333333334</ele><time>2026-05-02T08:02:52.938Z</time></trkpt><trkpt lat="44.24068436560025" lon="11.73947584762262"><ele>184.5</ele><time>2026-05-02T08:02:53.938Z</time></trkpt><trkpt lat="44.240764241507854" lon="11.739485311267147"><ele>182.66666666666666</ele><time>2026-05-02T08:02:54.938Z</time></trkpt><trkpt lat="44.24085045481515" lon="11.739435751824619"><ele>180.83333333333331</ele><time>2026-05-02T08:02:55.938Z</time></trkpt><trkpt lat="44.24091960916634" lon="11.739325226739684"><ele>179.0</ele><time>2026-05-02T08:02:56.938Z</time></trkpt><trkpt lat="44.24097100359146" lon="11.739184336514912"><ele>178.79999999999998</ele><time>2026-05-02T08:02:57.938Z</time></trkpt><trkpt lat="44.24101374043419" lon="11.739050100557279"><ele>178.6</ele><time>2026-05-02T08:02:58.938Z</time></trkpt><trkpt lat="44.241039228589145" lon="11.738920219608382"><ele>178.4</ele><time>2026-05-02T08:02:59.938Z</time></trkpt><trkpt lat="44.241033077318455" lon="11.738789269057884"><ele>178.2</ele><time>2026-05-02T08:03:00.938Z</time></trkpt><trkpt lat="44.24098762699418" lon="11.738674700355814"><ele>178.0</ele><time>2026-05-02T08:03:01.938Z</time></trkpt><trkpt lat="44.24094443719035" lon="11.738566240905756"><ele>177.5</ele><time>2026-05-02T08:03:02.938Z</time></trkpt><trkpt lat="44.24091098493324" lon="11.738464733560022"><ele>177.0</ele><time>2026-05-02T08:03:03.938Z</time></trkpt><trkpt lat="44.240895290671446" lon="11.738365617541277"><ele>176.5</ele><time>2026-05-02T08:03:04.938Z</time></trkpt><trkpt lat="44.2409691805045" lon="11.738221329738764"><ele>176.0</ele><time>2026-05-02T08:03:06.938Z</time></trkpt><trkpt lat="44.241038622525906" lon="11.738188103723083"><ele>175.5</ele><time>2026-05-02T08:03:07.938Z</time></trkpt><trkpt lat="44.24111853493895" lon="11.738217969296056"><ele>175.0</ele><time>2026-05-02T08:03:08.938Z</time></trkpt><trkpt lat="44.2411936466204" lon="11.73829797397448"><ele>175.0</ele><time>2026-05-02T08:03:09.938Z</time></trkpt><trkpt lat="44.24126481872364" lon="11.738411389348157"><ele>175.0</ele><time>2026-05-02T08:03:10.938Z</time></trkpt><trkpt lat="44.24134704941321" lon="11.738531083706565"><ele>175.0</ele><time>2026-05-02T08:03:11.938Z</time></trkpt><trkpt lat="44.241445685907" lon="11.738663817007097"><ele>175.0</ele><time>2026-05-02T08:03:12.938Z</time></trkpt><trkpt lat="44.24155237509723" lon="11.738804071011531"><ele>172.33333333333334</ele><time>2026-05-02T08:03:13.938Z</time></trkpt><trkpt lat="44.24166550737627" lon="11.738960394034395"><ele>169.66666666666666</ele><time>2026-05-02T08:03:14.938Z</time></trkpt><trkpt lat="44.24178408159163" lon="11.739119222967973"><ele>167.0</ele><time>2026-05-02T08:03:15.937Z</time></trkpt><trkpt lat="44.241903066792716" lon="11.739267118151531"><ele>163.66666666666666</ele><time>2026-05-02T08:03:16.937Z</time></trkpt><trkpt lat="44.24203149583785" lon="11.73940062849713"><ele>160.33333333333334</ele><time>2026-05-02T08:03:17.937Z</time></trkpt><trkpt lat="44.24217167225639" lon="11.739502015131006"><ele>157.0</ele><time>2026-05-02T08:03:18.936Z</time></trkpt><trkpt lat="44.242324698758665" lon="11.739581115205635"><ele>154.0</ele><time>2026-05-02T08:03:19.936Z</time></trkpt><trkpt lat="44.242494028312294" lon="11.739629636806388"><ele>151.0</ele><time>2026-05-02T08:03:20.936Z</time></trkpt><trkpt lat="44.242664452688075" lon="11.739657814345792"><ele>148.0</ele><time>2026-05-02T08:03:21.936Z</time></trkpt><trkpt lat="44.24282562424602" lon="11.739681361663305"><ele>148.0</ele><time>2026-05-02T08:03:22.937Z</time></trkpt><trkpt lat="44.242961808802924" lon="11.739701237365546"><ele>148.0</ele><time>2026-05-02T08:03:23.937Z</time></trkpt><trkpt lat="44.24306906860271" lon="11.739719099345953"><ele>148.0</ele><time>2026-05-02T08:03:24.937Z</time></trkpt><trkpt lat="44.2431604172709" lon="11.739730343447851"><ele>148.0</ele><time>2026-05-02T08:03:25.936Z</time></trkpt><trkpt lat="44.24324235959963" lon="11.739713251878642"><ele>148.0</ele><time>2026-05-02T08:03:26.936Z</time></trkpt><trkpt lat="44.24330588221975" lon="11.739635402581666"><ele>147.5</ele><time>2026-05-02T08:03:27.936Z</time></trkpt><trkpt lat="44.24333198157927" lon="11.73952596606003"><ele>147.0</ele><time>2026-05-02T08:03:28.936Z</time></trkpt><trkpt lat="44.24332238301754" lon="11.739363960647946"><ele>146.5</ele><time>2026-05-02T08:03:29.936Z</time></trkpt><trkpt lat="44.2432877832146" lon="11.739194963583126"><ele>146.0</ele><time>2026-05-02T08:03:30.936Z</time></trkpt><trkpt lat="44.243242363581146" lon="11.739004231604651"><ele>146.0</ele><time>2026-05-02T08:03:31.936Z</time></trkpt><trkpt lat="44.243170181981526" lon="11.738826957418029"><ele>146.0</ele><time>2026-05-02T08:03:32.936Z</time></trkpt><trkpt lat="44.24310335653459" lon="11.738665113480424"><ele>146.0</ele><time>2026-05-02T08:03:33.936Z</time></trkpt><trkpt lat="44.24302431096338" lon="11.738534230864545"><ele>146.0</ele><time>2026-05-02T08:03:34.936Z</time></trkpt><trkpt lat="44.24295946031911" lon="11.738428709973645"><ele>146.66666666666666</ele><time>2026-05-02T08:03:35.936Z</time></trkpt><trkpt lat="44.2429084280455" lon="11.738340287256369"><ele>147.33333333333331</ele><time>2026-05-02T08:03:36.936Z</time></trkpt><trkpt lat="44.242883710551936" lon="11.73825364252278"><ele>148.0</ele><time>2026-05-02T08:03:37.936Z</time></trkpt><trkpt lat="44.24289126489793" lon="11.738161126357754"><ele>148.66666666666666</ele><time>2026-05-02T08:03:38.936Z</time></trkpt><trkpt lat="44.242935149016596" lon="11.738081489569081"><ele>149.33333333333334</ele><time>2026-05-02T08:03:39.936Z</time></trkpt><trkpt lat="44.243010419431634" lon="11.738032175067312"><ele>150.0</ele><time>2026-05-02T08:03:40.936Z</time></trkpt><trkpt lat="44.243096719941754" lon="11.738040679143172"><ele>149.2</ele><time>2026-05-02T08:03:41.936Z</time></trkpt><trkpt lat="44.243173550300064" lon="11.738106916441412"><ele>148.4</ele><time>2026-05-02T08:03:42.936Z</time></trkpt><trkpt lat="44.24325016568299" lon="11.73821521184863"><ele>147.6</ele><time>2026-05-02T08:03:43.936Z</time></trkpt><trkpt lat="44.24330883335148" lon="11.738352719985889"><ele>146.8</ele><time>2026-05-02T08:03:44.936Z</time></trkpt><trkpt lat="44.24338953855958" lon="11.738492051644153"><ele>146.0</ele><time>2026-05-02T08:03:45.936Z</time></trkpt><trkpt lat="44.24348701490014" lon="11.738640627987765"><ele>146.0</ele><time>2026-05-02T08:03:46.936Z</time></trkpt><trkpt lat="44.24358866813794" lon="11.738793650797966"><ele>146.0</ele><time>2026-05-02T08:03:47.936Z</time></trkpt><trkpt lat="44.24368865266966" lon="11.738944208041545"><ele>146.0</ele><time>2026-05-02T08:03:48.936Z</time></trkpt><trkpt lat="44.243799946866254" lon="11.739076201880819"><ele>146.0</ele><time>2026-05-02T08:03:49.936Z</time></trkpt><trkpt lat="44.243915064240824" lon="11.739198568454956"><ele>140.5</ele><time>2026-05-02T08:03:50.936Z</time></trkpt><trkpt lat="44.244034122822036" lon="11.739301009779208"><ele>135.0</ele><time>2026-05-02T08:03:51.936Z</time></trkpt><trkpt lat="44.24415416879022" lon="11.739391713384938"><ele>129.5</ele><time>2026-05-02T08:03:52.936Z</time></trkpt><trkpt lat="44.244263056834406" lon="11.73946379637129"><ele>124.0</ele><time>2026-05-02T08:03:53.936Z</time></trkpt><trkpt lat="44.24435734766749" lon="11.739527225635547"><ele>124.00000000000001</ele><time>2026-05-02T08:03:54.936Z</time></trkpt><trkpt lat="44.24444607888457" lon="11.739575274655154"><ele>124.0</ele><time>2026-05-02T08:03:55.936Z</time></trkpt><trkpt lat="44.244530644801166" lon="11.739601211066546"><ele>124.0</ele><time>2026-05-02T08:03:56.936Z</time></trkpt><trkpt lat="44.244610313695695" lon="11.739577192696734"><ele>124.0</ele><time>2026-05-02T08:03:57.936Z</time></trkpt><trkpt lat="44.24467685188136" lon="11.739507213061634"><ele>124.00000000000001</ele><time>2026-05-02T08:03:58.936Z</time></trkpt><trkpt lat="44.24470835169749" lon="11.739392754931208"><ele>124.0</ele><time>2026-05-02T08:03:59.936Z</time></trkpt><trkpt lat="44.24470411515492" lon="11.739254213294297"><ele>124.0</ele><time>2026-05-02T08:04:00.936Z</time></trkpt><trkpt lat="44.24465076437367" lon="11.739117545210423"><ele>124.0</ele><time>2026-05-02T08:04:01.936Z</time></trkpt><trkpt lat="44.24457190506364" lon="11.739001110214287"><ele>124.0</ele><time>2026-05-02T08:04:02.936Z</time></trkpt><trkpt lat="44.24449678991129" lon="11.738860328645115"><ele>124.0</ele><time>2026-05-02T08:04:03.936Z</time></trkpt><trkpt lat="44.244401635770885" lon="11.738727446358544"><ele>124.0</ele><time>2026-05-02T08:04:04.936Z</time></trkpt><trkpt lat="44.24430634129707" lon="11.73858809734218"><ele>124.0</ele><time>2026-05-02T08:04:05.936Z</time></trkpt><trkpt lat="44.24422188836619" lon="11.7384434226533"><ele>124.0</ele><time>2026-05-02T08:04:06.936Z</time></trkpt><trkpt lat="44.244158253971214" lon="11.73830122085527"><ele>124.0</ele><time>2026-05-02T08:04:07.936Z</time></trkpt><trkpt lat="44.244119053516464" lon="11.7381416284062"><ele>121.75</ele><time>2026-05-02T08:04:08.936Z</time></trkpt><trkpt lat="44.24410455445276" lon="11.73795884024451"><ele>119.5</ele><time>2026-05-02T08:04:09.936Z</time></trkpt><trkpt lat="44.24411370408101" lon="11.737765343962195"><ele>117.25</ele><time>2026-05-02T08:04:10.936Z</time></trkpt><trkpt lat="44.24413411824943" lon="11.737576608263128"><ele>115.0</ele><time>2026-05-02T08:04:11.936Z</time></trkpt><trkpt lat="44.24416828599404" lon="11.737405794439162"><ele>114.8</ele><time>2026-05-02T08:04:12.936Z</time></trkpt><trkpt lat="44.24421246464581" lon="11.737247566965712"><ele>114.6</ele><time>2026-05-02T08:04:13.936Z</time></trkpt><trkpt lat="44.24426618798988" lon="11.737111204032159"><ele>114.4</ele><time>2026-05-02T08:04:14.936Z</time></trkpt><trkpt lat="44.24431354861555" lon="11.736985678768907"><ele>114.2</ele><time>2026-05-02T08:04:15.936Z</time></trkpt><trkpt lat="44.24436267617099" lon="11.736853974020626"><ele>114.0</ele><time>2026-05-02T08:04:16.936Z</time></trkpt><trkpt lat="44.24437784883655" lon="11.736725269056524"><ele>114.0</ele><time>2026-05-02T08:04:17.936Z</time></trkpt><trkpt lat="44.24435261364623" lon="11.736572838950263"><ele>114.0</ele><time>2026-05-02T08:04:18.936Z</time></trkpt><trkpt lat="44.24428278868018" lon="11.736436084227005"><ele>114.0</ele><time>2026-05-02T08:04:19.936Z</time></trkpt><trkpt lat="44.244207786528264" lon="11.736305869866628"><ele>114.0</ele><time>2026-05-02T08:04:20.936Z</time></trkpt><trkpt lat="44.244125627578235" lon="11.736168669654795"><ele>116.25</ele><time>2026-05-02T08:04:21.936Z</time></trkpt><trkpt lat="44.24402470921615" lon="11.736033551087944"><ele>118.5</ele><time>2026-05-02T08:04:22.936Z</time></trkpt><trkpt lat="44.243949309222884" lon="11.73587153432109"><ele>120.75</ele><time>2026-05-02T08:04:23.936Z</time></trkpt><trkpt lat="44.24387224143068" lon="11.735717398232493"><ele>123.0</ele><time>2026-05-02T08:04:24.936Z</time></trkpt><trkpt lat="44.243806693289876" lon="11.73555444301099"><ele>123.0</ele><time>2026-05-02T08:04:25.936Z</time></trkpt><trkpt lat="44.243762506103465" lon="11.73537336704472"><ele>123.0</ele><time>2026-05-02T08:04:26.936Z</time></trkpt><trkpt lat="44.24373659937105" lon="11.735183729626984"><ele>123.0</ele><time>2026-05-02T08:04:27.936Z</time></trkpt><trkpt lat="44.24373009520433" lon="11.734984117566174"><ele>123.0</ele><time>2026-05-02T08:04:28.936Z</time></trkpt><trkpt lat="44.2437613951907" lon="11.734787846986618"><ele>117.66666666666666</ele><time>2026-05-02T08:04:29.936Z</time></trkpt><trkpt lat="44.24381242657697" lon="11.734594553863483"><ele>112.33333333333333</ele><time>2026-05-02T08:04:30.936Z</time></trkpt><trkpt lat="44.24387209794394" lon="11.734397825811152"><ele>107.0</ele><time>2026-05-02T08:04:31.936Z</time></trkpt><trkpt lat="44.24392874746806" lon="11.734199888549616"><ele>103.0</ele><time>2026-05-02T08:04:32.936Z</time></trkpt><trkpt lat="44.24397591285945" lon="11.734013865626071"><ele>99.0</ele><time>2026-05-02T08:04:33.936Z</time></trkpt><trkpt lat="44.244024066119216" lon="11.733836745514326"><ele>95.0</ele><time>2026-05-02T08:04:34.936Z</time></trkpt><trkpt lat="44.24407683605969" lon="11.733676453450967"><ele>91.0</ele><time>2026-05-02T08:04:35.936Z</time></trkpt><trkpt lat="44.244140869660484" lon="11.733524356487406"><ele>90.8</ele><time>2026-05-02T08:04:36.936Z</time></trkpt><trkpt lat="44.24421988076213" lon="11.733405906383629"><ele>90.6</ele><time>2026-05-02T08:04:37.936Z</time></trkpt><trkpt lat="44.2443086053241" lon="11.73331435770448"><ele>90.4</ele><time>2026-05-02T08:04:38.936Z</time></trkpt><trkpt lat="44.244400906657575" lon="11.733237736283211"><ele>90.2</ele><time>2026-05-02T08:04:39.936Z</time></trkpt><trkpt lat="44.244488682124405" lon="11.733159112355604"><ele>90.0</ele><time>2026-05-02T08:04:40.936Z</time></trkpt><trkpt lat="44.24456418006403" lon="11.733073558000585"><ele>90.0</ele><time>2026-05-02T08:04:41.936Z</time></trkpt><trkpt lat="44.24463706732593" lon="11.73299053555776"><ele>90.0</ele><time>2026-05-02T08:04:42.936Z</time></trkpt><trkpt lat="44.244713777013" lon="11.73291812954943"><ele>90.0</ele><time>2026-05-02T08:04:43.936Z</time></trkpt><trkpt lat="44.244798054050825" lon="11.732838310407496"><ele>90.0</ele><time>2026-05-02T08:04:44.936Z</time></trkpt><trkpt lat="44.24488092120415" lon="11.73275141973198"><ele>90.0</ele><time>2026-05-02T08:04:45.936Z</time></trkpt><trkpt lat="44.24496969679184" lon="11.732659939439044"><ele>90.75</ele><time>2026-05-02T08:04:46.936Z</time></trkpt><trkpt lat="44.24505839321706" lon="11.732575532961508"><ele>91.5</ele><time>2026-05-02T08:04:47.936Z</time></trkpt><trkpt lat="44.24516209416849" lon="11.732527643169727"><ele>92.25</ele><time>2026-05-02T08:04:48.936Z</time></trkpt><trkpt lat="44.24527811316082" lon="11.7325372396711"><ele>93.0</ele><time>2026-05-02T08:04:49.936Z</time></trkpt><trkpt lat="44.24538662762652" lon="11.732599161214308"><ele>91.5</ele><time>2026-05-02T08:04:50.936Z</time></trkpt><trkpt lat="44.245473188697105" lon="11.732724271710238"><ele>90.0</ele><time>2026-05-02T08:04:51.936Z</time></trkpt><trkpt lat="44.24553267799575" lon="11.732901724475749"><ele>88.5</ele><time>2026-05-02T08:04:52.936Z</time></trkpt><trkpt lat="44.245602665044466" lon="11.733087250082978"><ele>87.0</ele><time>2026-05-02T08:04:53.936Z</time></trkpt><trkpt lat="44.24568570583083" lon="11.733284797154443"><ele>89.0</ele><time>2026-05-02T08:04:54.936Z</time></trkpt><trkpt lat="44.24574557536826" lon="11.733489556368509"><ele>91.0</ele><time>2026-05-02T08:04:55.936Z</time></trkpt><trkpt lat="44.245801142969846" lon="11.733665512225286"><ele>93.0</ele><time>2026-05-02T08:04:56.936Z</time></trkpt><trkpt lat="44.24585488071788" lon="11.733822680934479"><ele>95.0</ele><time>2026-05-02T08:04:57.936Z</time></trkpt><trkpt lat="44.24591467345139" lon="11.733958073254753"><ele>95.0</ele><time>2026-05-02T08:04:58.936Z</time></trkpt><trkpt lat="44.2459801085735" lon="11.734079388730484"><ele>95.0</ele><time>2026-05-02T08:04:59.936Z</time></trkpt><trkpt lat="44.24605207921073" lon="11.734167485645767"><ele>95.0</ele><time>2026-05-02T08:05:00.936Z</time></trkpt><trkpt lat="44.24614338004118" lon="11.734197726636188"><ele>95.0</ele><time>2026-05-02T08:05:01.936Z</time></trkpt><trkpt lat="44.246241719383846" lon="11.734173689499247"><ele>95.0</ele><time>2026-05-02T08:05:02.936Z</time></trkpt><trkpt lat="44.24633255020902" lon="11.734100528960408"><ele>95.0</ele><time>2026-05-02T08:05:03.936Z</time></trkpt><trkpt lat="44.24642313595492" lon="11.733976369086195"><ele>95.0</ele><time>2026-05-02T08:05:04.936Z</time></trkpt><trkpt lat="44.246535301480364" lon="11.733846645608422"><ele>95.0</ele><time>2026-05-02T08:05:05.936Z</time></trkpt><trkpt lat="44.24664844300337" lon="11.733734172544134"><ele>95.0</ele><time>2026-05-02T08:05:06.936Z</time></trkpt><trkpt lat="44.24675279515408" lon="11.733625930817297"><ele>97.6</ele><time>2026-05-02T08:05:07.936Z</time></trkpt><trkpt lat="44.24684636530692" lon="11.733541218986105"><ele>100.2</ele><time>2026-05-02T08:05:08.936Z</time></trkpt><trkpt lat="44.24694827743443" lon="11.733488896265369"><ele>102.80000000000001</ele><time>2026-05-02T08:05:09.936Z</time></trkpt><trkpt lat="44.24705511074922" lon="11.733468469760714"><ele>105.4</ele><time>2026-05-02T08:05:10.936Z</time></trkpt><trkpt lat="44.24716853709011" lon="11.733481695186377"><ele>108.0</ele><time>2026-05-02T08:05:11.936Z</time></trkpt><trkpt lat="44.247280128972875" lon="11.733560059507887"><ele>110.25</ele><time>2026-05-02T08:05:12.936Z</time></trkpt><trkpt lat="44.24737194171126" lon="11.733713493928775"><ele>112.5</ele><time>2026-05-02T08:05:13.936Z</time></trkpt><trkpt lat="44.24746562306085" lon="11.733867133840517"><ele>114.75</ele><time>2026-05-02T08:05:14.936Z</time></trkpt><trkpt lat="44.247567162164685" lon="11.734029931881008"><ele>117.0</ele><time>2026-05-02T08:05:15.936Z</time></trkpt><trkpt lat="44.24768707966055" lon="11.73420027073341"><ele>116.66666666666666</ele><time>2026-05-02T08:05:16.936Z</time></trkpt><trkpt lat="44.24781593645805" lon="11.73440540607141"><ele>116.33333333333333</ele><time>2026-05-02T08:05:17.936Z</time></trkpt><trkpt lat="44.24791480492227" lon="11.734605679082764"><ele>116.0</ele><time>2026-05-02T08:05:18.936Z</time></trkpt><trkpt lat="44.24802633712972" lon="11.734773699048775"><ele>116.33333333333333</ele><time>2026-05-02T08:05:19.936Z</time></trkpt><trkpt lat="44.24813874743383" lon="11.7349434868535"><ele>116.66666666666666</ele><time>2026-05-02T08:05:20.936Z</time></trkpt><trkpt lat="44.24825440721273" lon="11.7350994037753"><ele>117.0</ele><time>2026-05-02T08:05:21.934Z</time></trkpt><trkpt lat="44.248375089351356" lon="11.73525445310476"><ele>117.0</ele><time>2026-05-02T08:05:22.934Z</time></trkpt><trkpt lat="44.24850692797369" lon="11.7354049470125"><ele>117.0</ele><time>2026-05-02T08:05:23.934Z</time></trkpt><trkpt lat="44.248644103029974" lon="11.735560075304786"><ele>117.0</ele><time>2026-05-02T08:05:24.933Z</time></trkpt><trkpt lat="44.2487905029249" lon="11.735712782528976"><ele>117.0</ele><time>2026-05-02T08:05:25.934Z</time></trkpt><trkpt lat="44.24893798259641" lon="11.735862794281855"><ele>117.0</ele><time>2026-05-02T08:05:26.934Z</time></trkpt><trkpt lat="44.24910857752737" lon="11.736006658764218"><ele>117.0</ele><time>2026-05-02T08:05:27.933Z</time></trkpt><trkpt lat="44.24929247182148" lon="11.736151186152677"><ele>118.33333333333334</ele><time>2026-05-02T08:05:28.934Z</time></trkpt><trkpt lat="44.24947853785998" lon="11.736308743795313"><ele>119.66666666666667</ele><time>2026-05-02T08:05:29.934Z</time></trkpt><trkpt lat="44.24966949296979" lon="11.736471070376592"><ele>121.0</ele><time>2026-05-02T08:05:30.933Z</time></trkpt><trkpt lat="44.24986062152389" lon="11.73663113812454"><ele>121.0</ele><time>2026-05-02T08:05:31.933Z</time></trkpt><trkpt lat="44.250048688197516" lon="11.736790860350355"><ele>121.0</ele><time>2026-05-02T08:05:32.933Z</time></trkpt><trkpt lat="44.25024295272427" lon="11.736940669520658"><ele>121.0</ele><time>2026-05-02T08:05:33.934Z</time></trkpt><trkpt lat="44.25042751028136" lon="11.737090146574449"><ele>121.0</ele><time>2026-05-02T08:05:34.934Z</time></trkpt><trkpt lat="44.250609945564904" lon="11.737235942557378"><ele>121.0</ele><time>2026-05-02T08:05:35.934Z</time></trkpt><trkpt lat="44.25078114159728" lon="11.737374776211835"><ele>121.0</ele><time>2026-05-02T08:05:36.934Z</time></trkpt><trkpt lat="44.25095407113263" lon="11.737515110846877"><ele>121.0</ele><time>2026-05-02T08:05:37.934Z</time></trkpt><trkpt lat="44.251129257443765" lon="11.737653234429244"><ele>121.0</ele><time>2026-05-02T08:05:38.934Z</time></trkpt><trkpt lat="44.25130107868435" lon="11.737791862320345"><ele>121.0</ele><time>2026-05-02T08:05:39.934Z</time></trkpt><trkpt lat="44.2514748002631" lon="11.73793394446157"><ele>118.66666666666667</ele><time>2026-05-02T08:05:40.934Z</time></trkpt><trkpt lat="44.25164882878613" lon="11.73807446632847"><ele>116.33333333333334</ele><time>2026-05-02T08:05:41.934Z</time></trkpt><trkpt lat="44.25182459872989" lon="11.738213717136455"><ele>114.0</ele><time>2026-05-02T08:05:42.934Z</time></trkpt><trkpt lat="44.25199980373935" lon="11.738354931928903"><ele>114.0</ele><time>2026-05-02T08:05:43.934Z</time></trkpt><trkpt lat="44.252171111826144" lon="11.738494914689262"><ele>114.0</ele><time>2026-05-02T08:05:44.934Z</time></trkpt><trkpt lat="44.252340792055875" lon="11.738634286263862"><ele>114.0</ele><time>2026-05-02T08:05:45.934Z</time></trkpt><trkpt lat="44.25251044356271" lon="11.738776832496166"><ele>113.33333333333334</ele><time>2026-05-02T08:05:46.934Z</time></trkpt><trkpt lat="44.2526789209069" lon="11.73892778254442"><ele>112.66666666666667</ele><time>2026-05-02T08:05:47.934Z</time></trkpt><trkpt lat="44.25284239602168" lon="11.739088463484878"><ele>112.0</ele><time>2026-05-02T08:05:48.934Z</time></trkpt><trkpt lat="44.25300100409956" lon="11.73926006592232"><ele>111.0</ele><time>2026-05-02T08:05:49.934Z</time></trkpt><trkpt lat="44.253156082426905" lon="11.73944069893308"><ele>110.0</ele><time>2026-05-02T08:05:50.934Z</time></trkpt><trkpt lat="44.253310166422246" lon="11.739629273094753"><ele>109.0</ele><time>2026-05-02T08:05:51.934Z</time></trkpt><trkpt lat="44.25346166248232" lon="11.739821622031615"><ele>109.0</ele><time>2026-05-02T08:05:52.934Z</time></trkpt><trkpt lat="44.25361736914869" lon="11.740018665216905"><ele>109.0</ele><time>2026-05-02T08:05:53.934Z</time></trkpt><trkpt lat="44.25377901533432" lon="11.740224850063008"><ele>109.0</ele><time>2026-05-02T08:05:54.934Z</time></trkpt><trkpt lat="44.253945613006366" lon="11.740436078412648"><ele>107.33333333333334</ele><time>2026-05-02T08:05:55.934Z</time></trkpt><trkpt lat="44.25411188590867" lon="11.740651830976576"><ele>105.66666666666666</ele><time>2026-05-02T08:05:56.934Z</time></trkpt><trkpt lat="44.25427443707878" lon="11.74086324099236"><ele>104.0</ele><time>2026-05-02T08:05:57.934Z</time></trkpt><trkpt lat="44.254442076784855" lon="11.74107501274392"><ele>99.5</ele><time>2026-05-02T08:05:58.934Z</time></trkpt><trkpt lat="44.2546116711936" lon="11.741293000462012"><ele>95.0</ele><time>2026-05-02T08:05:59.934Z</time></trkpt><trkpt lat="44.25477346654177" lon="11.741529658130707"><ele>93.5</ele><time>2026-05-02T08:06:00.934Z</time></trkpt><trkpt lat="44.25494856402241" lon="11.741755700753288"><ele>92.0</ele><time>2026-05-02T08:06:01.934Z</time></trkpt><trkpt lat="44.25512717090003" lon="11.741986158761959"><ele>92.0</ele><time>2026-05-02T08:06:02.934Z</time></trkpt><trkpt lat="44.255311673798246" lon="11.742224225880962"><ele>92.0</ele><time>2026-05-02T08:06:03.934Z</time></trkpt><trkpt lat="44.25550771025509" lon="11.742445990741745"><ele>93.5</ele><time>2026-05-02T08:06:04.934Z</time></trkpt><trkpt lat="44.255679600266554" lon="11.742687017283341"><ele>95.0</ele><time>2026-05-02T08:06:05.934Z</time></trkpt><trkpt lat="44.25584836493824" lon="11.742910717609316"><ele>95.0</ele><time>2026-05-02T08:06:06.934Z</time></trkpt><trkpt lat="44.25601524027471" lon="11.743122764230506"><ele>95.0</ele><time>2026-05-02T08:06:07.934Z</time></trkpt><trkpt lat="44.25615752320057" lon="11.743319036579386"><ele>95.0</ele><time>2026-05-02T08:06:08.934Z</time></trkpt><trkpt lat="44.25629267676921" lon="11.74348448394327"><ele>96.33333333333334</ele><time>2026-05-02T08:06:09.934Z</time></trkpt><trkpt lat="44.25641613051907" lon="11.743640191628712"><ele>97.66666666666667</ele><time>2026-05-02T08:06:10.934Z</time></trkpt><trkpt lat="44.2565334593183" lon="11.743791762043308"><ele>99.0</ele><time>2026-05-02T08:06:11.934Z</time></trkpt><trkpt lat="44.256643549186165" lon="11.743935929912642"><ele>99.0</ele><time>2026-05-02T08:06:12.934Z</time></trkpt><trkpt lat="44.256741685778934" lon="11.744056956960435"><ele>99.0</ele><time>2026-05-02T08:06:13.934Z</time></trkpt><trkpt lat="44.25686960439768" lon="11.744221751040735"><ele>99.0</ele><time>2026-05-02T08:06:14.934Z</time></trkpt><trkpt lat="44.25697009314714" lon="11.744329846052652"><ele>99.0</ele><time>2026-05-02T08:06:15.934Z</time></trkpt><trkpt lat="44.257068901826145" lon="11.744413028158032"><ele>98.6</ele><time>2026-05-02T08:06:16.934Z</time></trkpt><trkpt lat="44.25716722513483" lon="11.744422459173974"><ele>98.2</ele><time>2026-05-02T08:06:17.934Z</time></trkpt><trkpt lat="44.257257309697195" lon="11.744402221212507"><ele>97.8</ele><time>2026-05-02T08:06:18.934Z</time></trkpt><trkpt lat="44.25733703006921" lon="11.744356917117909"><ele>97.39999999999999</ele><time>2026-05-02T08:06:19.934Z</time></trkpt><trkpt lat="44.25740612553826" lon="11.744285428129178"><ele>97.0</ele><time>2026-05-02T08:06:20.934Z</time></trkpt><trkpt lat="44.257475570588966" lon="11.744193511110932"><ele>96.25</ele><time>2026-05-02T08:06:21.934Z</time></trkpt><trkpt lat="44.25752883461716" lon="11.744070100598258"><ele>95.5</ele><time>2026-05-02T08:06:22.934Z</time></trkpt><trkpt lat="44.25756201466992" lon="11.743920233705127"><ele>94.75</ele><time>2026-05-02T08:06:23.934Z</time></trkpt><trkpt lat="44.25757419896366" lon="11.743737061389421"><ele>94.0</ele><time>2026-05-02T08:06:24.934Z</time></trkpt><trkpt lat="44.2575803856073" lon="11.743531258236603"><ele>92.66666666666666</ele><time>2026-05-02T08:06:25.934Z</time></trkpt><trkpt lat="44.25757248298239" lon="11.74328409784793"><ele>91.33333333333333</ele><time>2026-05-02T08:06:26.934Z</time></trkpt><trkpt lat="44.257578465680815" lon="11.743018951809978"><ele>90.0</ele><time>2026-05-02T08:06:27.934Z</time></trkpt><trkpt lat="44.25759462115322" lon="11.742770065966022"><ele>89.33333333333333</ele><time>2026-05-02T08:06:28.934Z</time></trkpt><trkpt lat="44.25761388897775" lon="11.742519054312458"><ele>88.66666666666666</ele><time>2026-05-02T08:06:29.934Z</time></trkpt><trkpt lat="44.25762999121294" lon="11.742281647477837"><ele>88.0</ele><time>2026-05-02T08:06:30.934Z</time></trkpt><trkpt lat="44.25764904709417" lon="11.742072899928043"><ele>87.25</ele><time>2026-05-02T08:06:31.934Z</time></trkpt><trkpt lat="44.25766617000665" lon="11.741870099561833"><ele>86.5</ele><time>2026-05-02T08:06:32.934Z</time></trkpt><trkpt lat="44.257685045408344" lon="11.741681410115959"><ele>85.75</ele><time>2026-05-02T08:06:33.934Z</time></trkpt><trkpt lat="44.257764526244074" lon="11.74155597458777"><ele>85.0</ele><time>2026-05-02T08:06:34.934Z</time></trkpt><trkpt lat="44.257842735090655" lon="11.741444522186306"><ele>85.0</ele><time>2026-05-02T08:06:35.934Z</time></trkpt><trkpt lat="44.25791452238488" lon="11.74133251940619"><ele>85.0</ele><time>2026-05-02T08:06:36.934Z</time></trkpt><trkpt lat="44.25796901431823" lon="11.741265074123532"><ele>85.0</ele><time>2026-05-02T08:06:37.934Z</time></trkpt><trkpt lat="44.258030336784444" lon="11.741222961679737"><ele>85.0</ele><time>2026-05-02T08:06:38.934Z</time></trkpt><trkpt lat="44.25811513635334" lon="11.741251266855459"><ele>85.0</ele><time>2026-05-02T08:06:39.934Z</time></trkpt><trkpt lat="44.25818614785285" lon="11.741332786948357"><ele>85.0</ele><time>2026-05-02T08:06:40.934Z</time></trkpt><trkpt lat="44.25823236833859" lon="11.7414398160874"><ele>85.0</ele><time>2026-05-02T08:06:41.933Z</time></trkpt><trkpt lat="44.25823278096726" lon="11.741601178788382"><ele>85.0</ele><time>2026-05-02T08:06:42.933Z</time></trkpt><trkpt lat="44.258277349749" lon="11.741760148183419"><ele>85.0</ele><time>2026-05-02T08:06:43.933Z</time></trkpt><trkpt lat="44.258313151078234" lon="11.74195499515079"><ele>85.0</ele><time>2026-05-02T08:06:44.933Z</time></trkpt><trkpt lat="44.25835353434801" lon="11.74214657984637"><ele>85.0</ele><time>2026-05-02T08:06:45.933Z</time></trkpt><trkpt lat="44.25839849283043" lon="11.7423582116429"><ele>85.0</ele><time>2026-05-02T08:06:46.933Z</time></trkpt><trkpt lat="44.258442120226064" lon="11.742577242755273"><ele>85.0</ele><time>2026-05-02T08:06:47.933Z</time></trkpt><trkpt lat="44.258488189934404" lon="11.742793361147754"><ele>84.66666666666666</ele><time>2026-05-02T08:06:48.933Z</time></trkpt><trkpt lat="44.258540934420196" lon="11.743009737773754"><ele>84.33333333333333</ele><time>2026-05-02T08:06:49.933Z</time></trkpt><trkpt lat="44.25859865932507" lon="11.743237310239286"><ele>84.0</ele><time>2026-05-02T08:06:50.933Z</time></trkpt><trkpt lat="44.258673368648" lon="11.74345333841244"><ele>82.66666666666667</ele><time>2026-05-02T08:06:51.933Z</time></trkpt><trkpt lat="44.258761514897564" lon="11.743667411768843"><ele>81.33333333333334</ele><time>2026-05-02T08:06:52.933Z</time></trkpt><trkpt lat="44.25885966373035" lon="11.743839338649297"><ele>80.0</ele><time>2026-05-02T08:06:53.933Z</time></trkpt><trkpt lat="44.25896015856564" lon="11.743998706586636"><ele>83.75</ele><time>2026-05-02T08:06:54.933Z</time></trkpt><trkpt lat="44.25907762690611" lon="11.744136555153512"><ele>87.5</ele><time>2026-05-02T08:06:55.933Z</time></trkpt><trkpt lat="44.25920348899111" lon="11.744253710261397"><ele>91.25</ele><time>2026-05-02T08:06:56.933Z</time></trkpt><trkpt lat="44.259335135738816" lon="11.74432861899485"><ele>95.0</ele><time>2026-05-02T08:06:57.933Z</time></trkpt><trkpt lat="44.259473750557476" lon="11.74439192105178"><ele>95.0</ele><time>2026-05-02T08:06:58.933Z</time></trkpt><trkpt lat="44.25961488727058" lon="11.744461372557446"><ele>95.0</ele><time>2026-05-02T08:06:59.933Z</time></trkpt><trkpt lat="44.259761031571166" lon="11.74454098286537"><ele>95.0</ele><time>2026-05-02T08:07:00.933Z</time></trkpt><trkpt lat="44.25990621230753" lon="11.744631088096142"><ele>95.66666666666667</ele><time>2026-05-02T08:07:01.933Z</time></trkpt><trkpt lat="44.26006175836392" lon="11.744722897973098"><ele>96.33333333333334</ele><time>2026-05-02T08:07:02.933Z</time></trkpt><trkpt lat="44.26021892495426" lon="11.74481538413073"><ele>97.0</ele><time>2026-05-02T08:07:03.933Z</time></trkpt><trkpt lat="44.26038131931451" lon="11.744911119656134"><ele>97.0</ele><time>2026-05-02T08:07:04.933Z</time></trkpt><trkpt lat="44.26054345991598" lon="11.745007886026988"><ele>97.0</ele><time>2026-05-02T08:07:05.933Z</time></trkpt><trkpt lat="44.26069595808072" lon="11.745101336665295"><ele>97.0</ele><time>2026-05-02T08:07:06.933Z</time></trkpt><trkpt lat="44.26083258029425" lon="11.74518710127137"><ele>96.8</ele><time>2026-05-02T08:07:07.933Z</time></trkpt><trkpt lat="44.26094889831932" lon="11.745258348302976"><ele>96.6</ele><time>2026-05-02T08:07:08.933Z</time></trkpt><trkpt lat="44.26105093346736" lon="11.74530966263259"><ele>96.39999999999999</ele><time>2026-05-02T08:07:09.933Z</time></trkpt><trkpt lat="44.26114743430239" lon="11.745327889833192"><ele>96.19999999999999</ele><time>2026-05-02T08:07:10.933Z</time></trkpt><trkpt lat="44.261243741347855" lon="11.745300073121356"><ele>96.0</ele><time>2026-05-02T08:07:11.933Z</time></trkpt><trkpt lat="44.261343252815195" lon="11.745200754085564"><ele>96.0</ele><time>2026-05-02T08:07:12.933Z</time></trkpt><trkpt lat="44.26142203748138" lon="11.745063747163988"><ele>96.0</ele><time>2026-05-02T08:07:13.933Z</time></trkpt><trkpt lat="44.261478167479545" lon="11.744892389631042"><ele>96.0</ele><time>2026-05-02T08:07:14.933Z</time></trkpt><trkpt lat="44.261536301827825" lon="11.744695202191748"><ele>96.0</ele><time>2026-05-02T08:07:15.933Z</time></trkpt><trkpt lat="44.26161068227968" lon="11.74448644057334"><ele>95.66666666666667</ele><time>2026-05-02T08:07:16.933Z</time></trkpt><trkpt lat="44.2616857518271" lon="11.744276023194281"><ele>95.33333333333334</ele><time>2026-05-02T08:07:17.933Z</time></trkpt><trkpt lat="44.261758796664466" lon="11.744062839481364"><ele>95.0</ele><time>2026-05-02T08:07:18.933Z</time></trkpt><trkpt lat="44.26185909555253" lon="11.743853073885218"><ele>95.0</ele><time>2026-05-02T08:07:19.933Z</time></trkpt><trkpt lat="44.26194314085457" lon="11.743618425679847"><ele>95.0</ele><time>2026-05-02T08:07:20.933Z</time></trkpt><trkpt lat="44.26203562065972" lon="11.743377699476035"><ele>95.0</ele><time>2026-05-02T08:07:21.933Z</time></trkpt><trkpt lat="44.26213113351409" lon="11.743130180543183"><ele>95.0</ele><time>2026-05-02T08:07:22.933Z</time></trkpt><trkpt lat="44.26222736717126" lon="11.742874584061811"><ele>95.0</ele><time>2026-05-02T08:07:23.933Z</time></trkpt><trkpt lat="44.26232727945043" lon="11.742618437361992"><ele>95.0</ele><time>2026-05-02T08:07:24.933Z</time></trkpt><trkpt lat="44.26243187452978" lon="11.742361275873744"><ele>94.66666666666667</ele><time>2026-05-02T08:07:25.933Z</time></trkpt><trkpt lat="44.26253061431584" lon="11.74211142915307"><ele>94.33333333333333</ele><time>2026-05-02T08:07:26.932Z</time></trkpt><trkpt lat="44.26262525860623" lon="11.741864235519008"><ele>94.0</ele><time>2026-05-02T08:07:27.931Z</time></trkpt><trkpt lat="44.26271295652944" lon="11.741610079137999"><ele>95.0</ele><time>2026-05-02T08:07:28.931Z</time></trkpt><trkpt lat="44.26277753536638" lon="11.74135229532726"><ele>96.0</ele><time>2026-05-02T08:07:29.931Z</time></trkpt><trkpt lat="44.262814761969366" lon="11.74108844116603"><ele>97.0</ele><time>2026-05-02T08:07:30.932Z</time></trkpt><trkpt lat="44.2628348214366" lon="11.740814227850159"><ele>97.0</ele><time>2026-05-02T08:07:31.932Z</time></trkpt><trkpt lat="44.26284671292287" lon="11.7405215327713"><ele>97.0</ele><time>2026-05-02T08:07:32.931Z</time></trkpt><trkpt lat="44.26285952570853" lon="11.740246343604479"><ele>97.0</ele><time>2026-05-02T08:07:33.932Z</time></trkpt><trkpt lat="44.26287676377496" lon="11.739992481196008"><ele>97.33333333333334</ele><time>2026-05-02T08:07:34.932Z</time></trkpt><trkpt lat="44.262916141994246" lon="11.739758177093456"><ele>97.66666666666666</ele><time>2026-05-02T08:07:35.931Z</time></trkpt><trkpt lat="44.26299209165525" lon="11.739565052369157"><ele>98.0</ele><time>2026-05-02T08:07:36.931Z</time></trkpt><trkpt lat="44.263057895191125" lon="11.739393314451156"><ele>98.2</ele><time>2026-05-02T08:07:37.931Z</time></trkpt><trkpt lat="44.263101898525846" lon="11.73923612340273"><ele>98.4</ele><time>2026-05-02T08:07:38.931Z</time></trkpt><trkpt lat="44.263160887889185" lon="11.739103151480027"><ele>98.60000000000001</ele><time>2026-05-02T08:07:39.932Z</time></trkpt><trkpt lat="44.263199687619206" lon="11.738998805635152"><ele>98.80000000000001</ele><time>2026-05-02T08:07:40.932Z</time></trkpt><trkpt lat="44.26324897862195" lon="11.73888813703488"><ele>99.0</ele><time>2026-05-02T08:07:42.932Z</time></trkpt><trkpt lat="44.26328275759899" lon="11.738794851171775"><ele>99.14285714285715</ele><time>2026-05-02T08:07:44.932Z</time></trkpt><trkpt lat="44.263318647414245" lon="11.738704980211704"><ele>99.28571428571428</ele><time>2026-05-02T08:07:46.932Z</time></trkpt><trkpt lat="44.263353589877035" lon="11.738621788540827"><ele>99.42857142857143</ele><time>2026-05-02T08:07:48.932Z</time></trkpt><trkpt lat="44.2633989509779" lon="11.73855832418995"><ele>99.57142857142858</ele><time>2026-05-02T08:07:52.932Z</time></trkpt><trkpt lat="44.263439796673424" lon="11.738458562200377"><ele>99.71428571428572</ele><time>2026-05-02T08:07:55.932Z</time></trkpt><trkpt lat="44.26347392140012" lon="11.73837494410115"><ele>99.85714285714286</ele><time>2026-05-02T08:07:56.932Z</time></trkpt><trkpt lat="44.263505843492524" lon="11.738276543849015"><ele>100.0</ele><time>2026-05-02T08:07:57.932Z</time></trkpt><trkpt lat="44.26353742761325" lon="11.73815525647091"><ele>100.0</ele><time>2026-05-02T08:07:58.932Z</time></trkpt><trkpt lat="44.263584720906486" lon="11.73802380566992"><ele>100.0</ele><time>2026-05-02T08:07:59.932Z</time></trkpt><trkpt lat="44.26363288295528" lon="11.737894815765856"><ele>100.0</ele><time>2026-05-02T08:08:00.932Z</time></trkpt><trkpt lat="44.26369379309131" lon="11.737750238061976"><ele>100.0</ele><time>2026-05-02T08:08:01.932Z</time></trkpt><trkpt lat="44.26376259502977" lon="11.737604592737755"><ele>99.0</ele><time>2026-05-02T08:08:02.932Z</time></trkpt><trkpt lat="44.26384943553583" lon="11.737451250121083"><ele>98.0</ele><time>2026-05-02T08:08:03.932Z</time></trkpt><trkpt lat="44.263938808478194" lon="11.737289072012262"><ele>97.0</ele><time>2026-05-02T08:08:04.932Z</time></trkpt><trkpt lat="44.264033592741335" lon="11.737124663145636"><ele>96.0</ele><time>2026-05-02T08:08:05.932Z</time></trkpt><trkpt lat="44.26412560946394" lon="11.736963727791208"><ele>95.5</ele><time>2026-05-02T08:08:06.932Z</time></trkpt><trkpt lat="44.26421298604786" lon="11.736808664704716"><ele>95.0</ele><time>2026-05-02T08:08:07.932Z</time></trkpt><trkpt lat="44.264298471389324" lon="11.736652989950178"><ele>94.5</ele><time>2026-05-02T08:08:08.932Z</time></trkpt><trkpt lat="44.26437883708008" lon="11.736503912207175"><ele>94.0</ele><time>2026-05-02T08:08:09.932Z</time></trkpt><trkpt lat="44.264465845881965" lon="11.73637640205007"><ele>94.0</ele><time>2026-05-02T08:08:10.932Z</time></trkpt><trkpt lat="44.264546237818436" lon="11.73624952364631"><ele>94.0</ele><time>2026-05-02T08:08:11.932Z</time></trkpt><trkpt lat="44.26462147333424" lon="11.736116995249166"><ele>94.0</ele><time>2026-05-02T08:08:12.932Z</time></trkpt><trkpt lat="44.26469945947659" lon="11.735981769824507"><ele>94.0</ele><time>2026-05-02T08:08:13.932Z</time></trkpt><trkpt lat="44.26477868880607" lon="11.735844133012915"><ele>94.4</ele><time>2026-05-02T08:08:14.932Z</time></trkpt><trkpt lat="44.26484742465565" lon="11.735713188679135"><ele>94.80000000000001</ele><time>2026-05-02T08:08:15.932Z</time></trkpt><trkpt lat="44.26490328522379" lon="11.73558949389627"><ele>95.19999999999999</ele><time>2026-05-02T08:08:16.932Z</time></trkpt><trkpt lat="44.26493863791473" lon="11.735463581151572"><ele>95.6</ele><time>2026-05-02T08:08:17.932Z</time></trkpt><trkpt lat="44.2649631625377" lon="11.73532133132622"><ele>96.0</ele><time>2026-05-02T08:08:18.932Z</time></trkpt><trkpt lat="44.26497154161189" lon="11.73517223631064"><ele>96.75</ele><time>2026-05-02T08:08:19.932Z</time></trkpt><trkpt lat="44.26500514752209" lon="11.735006593528125"><ele>97.5</ele><time>2026-05-02T08:08:20.932Z</time></trkpt><trkpt lat="44.265023667336" lon="11.73480451140266"><ele>98.25</ele><time>2026-05-02T08:08:21.932Z</time></trkpt><trkpt lat="44.26504315677312" lon="11.734584251073816"><ele>99.0</ele><time>2026-05-02T08:08:22.932Z</time></trkpt><trkpt lat="44.265073090242716" lon="11.734349155649502"><ele>99.33333333333334</ele><time>2026-05-02T08:08:23.932Z</time></trkpt><trkpt lat="44.265106655425896" lon="11.734086659075636"><ele>99.66666666666667</ele><time>2026-05-02T08:08:24.932Z</time></trkpt><trkpt lat="44.26513651501062" lon="11.733834300395433"><ele>100.0</ele><time>2026-05-02T08:08:25.932Z</time></trkpt><trkpt lat="44.265165803160116" lon="11.733598168472422"><ele>99.75</ele><time>2026-05-02T08:08:26.932Z</time></trkpt><trkpt lat="44.265195101523915" lon="11.733387032594758"><ele>99.5</ele><time>2026-05-02T08:08:27.932Z</time></trkpt><trkpt lat="44.26521991530496" lon="11.733186196272685"><ele>99.25</ele><time>2026-05-02T08:08:28.932Z</time></trkpt><trkpt lat="44.26524588142258" lon="11.732984941340321"><ele>99.0</ele><time>2026-05-02T08:08:29.931Z</time></trkpt><trkpt lat="44.26526745791039" lon="11.732773768605815"><ele>99.66666666666666</ele><time>2026-05-02T08:08:30.931Z</time></trkpt><trkpt lat="44.26528362331707" lon="11.732560342424545"><ele>100.33333333333333</ele><time>2026-05-02T08:08:31.931Z</time></trkpt><trkpt lat="44.26527550334865" lon="11.732334514217106"><ele>101.0</ele><time>2026-05-02T08:08:32.931Z</time></trkpt><trkpt lat="44.26524163838689" lon="11.732103638257437"><ele>101.66666666666666</ele><time>2026-05-02T08:08:33.931Z</time></trkpt><trkpt lat="44.26520922790767" lon="11.731879350581968"><ele>102.33333333333334</ele><time>2026-05-02T08:08:34.931Z</time></trkpt><trkpt lat="44.265180349806975" lon="11.731662379273573"><ele>103.0</ele><time>2026-05-02T08:08:35.931Z</time></trkpt><trkpt lat="44.26515777691202" lon="11.731442054999075"><ele>103.0</ele><time>2026-05-02T08:08:36.931Z</time></trkpt><trkpt lat="44.26513537584499" lon="11.7312258565235"><ele>103.0</ele><time>2026-05-02T08:08:37.931Z</time></trkpt><trkpt lat="44.26511153321565" lon="11.731019594724739"><ele>103.0</ele><time>2026-05-02T08:08:38.931Z</time></trkpt><trkpt lat="44.26509603639399" lon="11.730798469657"><ele>103.0</ele><time>2026-05-02T08:08:39.931Z</time></trkpt><trkpt lat="44.26509675002964" lon="11.730567460521097"><ele>103.0</ele><time>2026-05-02T08:08:40.931Z</time></trkpt><trkpt lat="44.26512232400135" lon="11.730323822367028"><ele>103.0</ele><time>2026-05-02T08:08:41.931Z</time></trkpt><trkpt lat="44.26515812749691" lon="11.73007996591618"><ele>103.0</ele><time>2026-05-02T08:08:42.931Z</time></trkpt><trkpt lat="44.26520257917632" lon="11.72984183058036"><ele>103.0</ele><time>2026-05-02T08:08:43.931Z</time></trkpt><trkpt lat="44.26525167582487" lon="11.72962907622432"><ele>103.0</ele><time>2026-05-02T08:08:44.931Z</time></trkpt><trkpt lat="44.26532233770173" lon="11.729445242920878"><ele>103.25</ele><time>2026-05-02T08:08:45.931Z</time></trkpt><trkpt lat="44.26536957596674" lon="11.729252999086299"><ele>103.5</ele><time>2026-05-02T08:08:46.931Z</time></trkpt><trkpt lat="44.26543599617045" lon="11.72908399040216"><ele>103.75</ele><time>2026-05-02T08:08:47.931Z</time></trkpt><trkpt lat="44.26550816561342" lon="11.728929818993855"><ele>104.0</ele><time>2026-05-02T08:08:48.931Z</time></trkpt><trkpt lat="44.26560295170547" lon="11.728813694942632"><ele>104.0</ele><time>2026-05-02T08:08:49.931Z</time></trkpt><trkpt lat="44.26571123880226" lon="11.728707972977574"><ele>104.0</ele><time>2026-05-02T08:08:50.931Z</time></trkpt><trkpt lat="44.26582517792954" lon="11.728636401987101"><ele>104.0</ele><time>2026-05-02T08:08:51.931Z</time></trkpt><trkpt lat="44.26594674397454" lon="11.728609174253254"><ele>104.0</ele><time>2026-05-02T08:08:52.931Z</time></trkpt><trkpt lat="44.26606754995011" lon="11.728624645568008"><ele>104.0</ele><time>2026-05-02T08:08:53.931Z</time></trkpt><trkpt lat="44.26619797620376" lon="11.728674494479892"><ele>104.0</ele><time>2026-05-02T08:08:54.931Z</time></trkpt><trkpt lat="44.26632737849697" lon="11.728729539318003"><ele>104.0</ele><time>2026-05-02T08:08:55.931Z</time></trkpt><trkpt lat="44.26646183338201" lon="11.72878438306181"><ele>104.0</ele><time>2026-05-02T08:08:56.931Z</time></trkpt><trkpt lat="44.26659272427193" lon="11.728815793151627"><ele>102.75</ele><time>2026-05-02T08:08:57.931Z</time></trkpt><trkpt lat="44.26671743751777" lon="11.728863448862626"><ele>101.5</ele><time>2026-05-02T08:08:58.931Z</time></trkpt><trkpt lat="44.26683610443665" lon="11.728888863286773"><ele>100.25</ele><time>2026-05-02T08:08:59.931Z</time></trkpt><trkpt lat="44.26696145567517" lon="11.728881607945276"><ele>99.0</ele><time>2026-05-02T08:09:00.931Z</time></trkpt><trkpt lat="44.26710577610354" lon="11.728825324181221"><ele>99.0</ele><time>2026-05-02T08:09:01.931Z</time></trkpt><trkpt lat="44.26724942801246" lon="11.728745165081843"><ele>99.0</ele><time>2026-05-02T08:09:02.931Z</time></trkpt><trkpt lat="44.26738435892154" lon="11.728686271212588"><ele>99.0</ele><time>2026-05-02T08:09:03.931Z</time></trkpt><trkpt lat="44.267502660315856" lon="11.728640447907342"><ele>99.0</ele><time>2026-05-02T08:09:04.931Z</time></trkpt><trkpt lat="44.26761961228939" lon="11.72860867823679"><ele>97.25</ele><time>2026-05-02T08:09:05.931Z</time></trkpt><trkpt lat="44.267738199745345" lon="11.72863935960524"><ele>95.5</ele><time>2026-05-02T08:09:06.931Z</time></trkpt><trkpt lat="44.267854651727866" lon="11.72869682226394"><ele>93.75</ele><time>2026-05-02T08:09:07.931Z</time></trkpt><trkpt lat="44.267977005926774" lon="11.728759596784263"><ele>92.0</ele><time>2026-05-02T08:09:08.931Z</time></trkpt><trkpt lat="44.268087408976136" lon="11.728846809852563"><ele>89.5</ele><time>2026-05-02T08:09:09.931Z</time></trkpt><trkpt lat="44.268193443057754" lon="11.728925122914449"><ele>87.0</ele><time>2026-05-02T08:09:10.931Z</time></trkpt><trkpt lat="44.26828629005862" lon="11.729015760150151"><ele>84.5</ele><time>2026-05-02T08:09:11.931Z</time></trkpt><trkpt lat="44.26835668438499" lon="11.729146500190067"><ele>82.0</ele><time>2026-05-02T08:09:12.931Z</time></trkpt><trkpt lat="44.26838586031825" lon="11.729342472014677"><ele>82.66666666666666</ele><time>2026-05-02T08:09:13.931Z</time></trkpt><trkpt lat="44.2684465282955" lon="11.729543458835998"><ele>83.33333333333333</ele><time>2026-05-02T08:09:14.931Z</time></trkpt><trkpt lat="44.26849326532174" lon="11.729756695850156"><ele>84.0</ele><time>2026-05-02T08:09:15.931Z</time></trkpt><trkpt lat="44.268544098619046" lon="11.729955533734756"><ele>84.0</ele><time>2026-05-02T08:09:16.931Z</time></trkpt><trkpt lat="44.26858757479519" lon="11.730124478992838"><ele>84.0</ele><time>2026-05-02T08:09:17.931Z</time></trkpt><trkpt lat="44.268626515881586" lon="11.730254148622512"><ele>84.0</ele><time>2026-05-02T08:09:18.931Z</time></trkpt><trkpt lat="44.2686597139721" lon="11.730366282298414"><ele>84.0</ele><time>2026-05-02T08:09:19.931Z</time></trkpt><trkpt lat="44.26872547623529" lon="11.730451352393331"><ele>84.0</ele><time>2026-05-02T08:09:20.931Z</time></trkpt><trkpt lat="44.26881963464867" lon="11.730473026307404"><ele>83.25</ele><time>2026-05-02T08:09:21.931Z</time></trkpt><trkpt lat="44.26892504212521" lon="11.730419672724974"><ele>82.5</ele><time>2026-05-02T08:09:22.931Z</time></trkpt><trkpt lat="44.26898439092943" lon="11.730272487250154"><ele>81.75</ele><time>2026-05-02T08:09:23.931Z</time></trkpt><trkpt lat="44.26900120285379" lon="11.73010220179568"><ele>81.0</ele><time>2026-05-02T08:09:24.931Z</time></trkpt><trkpt lat="44.26899392526928" lon="11.729895253531463"><ele>79.0</ele><time>2026-05-02T08:09:25.931Z</time></trkpt><trkpt lat="44.269012287144285" lon="11.72967345717674"><ele>77.0</ele><time>2026-05-02T08:09:26.931Z</time></trkpt><trkpt lat="44.26902532707956" lon="11.729443514515735"><ele>75.0</ele><time>2026-05-02T08:09:27.931Z</time></trkpt><trkpt lat="44.2690625655294" lon="11.729206785001196"><ele>73.33333333333333</ele><time>2026-05-02T08:09:28.931Z</time></trkpt><trkpt lat="44.26912576810564" lon="11.728973530779061"><ele>71.66666666666666</ele><time>2026-05-02T08:09:29.931Z</time></trkpt><trkpt lat="44.26920549660571" lon="11.728735215676963"><ele>70.0</ele><time>2026-05-02T08:09:30.931Z</time></trkpt><trkpt lat="44.269279735815864" lon="11.728475612141262"><ele>69.33333333333333</ele><time>2026-05-02T08:09:31.931Z</time></trkpt><trkpt lat="44.269367521935735" lon="11.728219377534469"><ele>68.66666666666667</ele><time>2026-05-02T08:09:32.929Z</time></trkpt><trkpt lat="44.269454592521704" lon="11.727974312315581"><ele>68.0</ele><time>2026-05-02T08:09:33.93Z</time></trkpt><trkpt lat="44.26955327854111" lon="11.727709046370899"><ele>68.0</ele><time>2026-05-02T08:09:34.93Z</time></trkpt><trkpt lat="44.26964147060019" lon="11.727454774884214"><ele>68.0</ele><time>2026-05-02T08:09:35.929Z</time></trkpt><trkpt lat="44.26973046988562" lon="11.727195503251531"><ele>68.0</ele><time>2026-05-02T08:09:36.93Z</time></trkpt><trkpt lat="44.269815715483745" lon="11.726944134927795"><ele>68.33333333333334</ele><time>2026-05-02T08:09:37.93Z</time></trkpt><trkpt lat="44.269898187529954" lon="11.726710890009764"><ele>68.66666666666667</ele><time>2026-05-02T08:09:38.929Z</time></trkpt><trkpt lat="44.26997475533614" lon="11.726491667140596"><ele>69.0</ele><time>2026-05-02T08:09:39.93Z</time></trkpt><trkpt lat="44.27004735288672" lon="11.726285427074961"><ele>69.0</ele><time>2026-05-02T08:09:40.93Z</time></trkpt><trkpt lat="44.270115471120704" lon="11.726085506320308"><ele>69.0</ele><time>2026-05-02T08:09:41.929Z</time></trkpt><trkpt lat="44.27018447725386" lon="11.725895629206061"><ele>69.0</ele><time>2026-05-02T08:09:42.93Z</time></trkpt><trkpt lat="44.27027169009235" lon="11.725715284303519"><ele>69.33333333333333</ele><time>2026-05-02T08:09:43.93Z</time></trkpt><trkpt lat="44.27033806733727" lon="11.725517432965013"><ele>69.66666666666666</ele><time>2026-05-02T08:09:44.929Z</time></trkpt><trkpt lat="44.27041290906255" lon="11.725294708618396"><ele>70.0</ele><time>2026-05-02T08:09:45.929Z</time></trkpt><trkpt lat="44.27049183618669" lon="11.725047861051145"><ele>69.66666666666666</ele><time>2026-05-02T08:09:46.929Z</time></trkpt><trkpt lat="44.27058995881125" lon="11.724782415931278"><ele>69.33333333333333</ele><time>2026-05-02T08:09:47.929Z</time></trkpt><trkpt lat="44.270691389300225" lon="11.724490309979338"><ele>69.0</ele><time>2026-05-02T08:09:48.929Z</time></trkpt><trkpt lat="44.27079199860931" lon="11.724202755923299"><ele>68.66666666666667</ele><time>2026-05-02T08:09:49.929Z</time></trkpt><trkpt lat="44.27089369881156" lon="11.723912083930689"><ele>68.33333333333334</ele><time>2026-05-02T08:09:50.929Z</time></trkpt><trkpt lat="44.27097332635227" lon="11.72363443428971"><ele>68.0</ele><time>2026-05-02T08:09:51.929Z</time></trkpt><trkpt lat="44.27106328872683" lon="11.723390568023678"><ele>68.66666666666667</ele><time>2026-05-02T08:09:52.929Z</time></trkpt><trkpt lat="44.2711519070593" lon="11.723149763295567"><ele>69.33333333333333</ele><time>2026-05-02T08:09:53.929Z</time></trkpt><trkpt lat="44.27124162532149" lon="11.722915120862078"><ele>70.0</ele><time>2026-05-02T08:09:54.929Z</time></trkpt><trkpt lat="44.27134618472899" lon="11.722679929345432"><ele>70.0</ele><time>2026-05-02T08:09:55.929Z</time></trkpt><trkpt lat="44.27145616551505" lon="11.722469596789283"><ele>70.0</ele><time>2026-05-02T08:09:56.929Z</time></trkpt><trkpt lat="44.271564618844636" lon="11.722292292312467"><ele>70.0</ele><time>2026-05-02T08:09:57.929Z</time></trkpt><trkpt lat="44.271658860017865" lon="11.722135964856525"><ele>70.0</ele><time>2026-05-02T08:09:58.929Z</time></trkpt><trkpt lat="44.271734152966324" lon="11.722002494294845"><ele>70.0</ele><time>2026-05-02T08:09:59.929Z</time></trkpt><trkpt lat="44.27179920948936" lon="11.721887344454156"><ele>70.0</ele><time>2026-05-02T08:10:00.929Z</time></trkpt><trkpt lat="44.27185560752637" lon="11.72178296540381"><ele>70.0</ele><time>2026-05-02T08:10:01.929Z</time></trkpt><trkpt lat="44.27190277516774" lon="11.721691221038506"><ele>70.0</ele><time>2026-05-02T08:10:02.929Z</time></trkpt><trkpt lat="44.27194963983779" lon="11.72160582146063"><ele>70.33333333333333</ele><time>2026-05-02T08:10:03.929Z</time></trkpt><trkpt lat="44.2719942766449" lon="11.721538280646934"><ele>70.66666666666666</ele><time>2026-05-02T08:10:04.929Z</time></trkpt><trkpt lat="44.2720582216415" lon="11.721419452145774"><ele>71.0</ele><time>2026-05-02T08:10:06.929Z</time></trkpt><trkpt lat="44.27211248339396" lon="11.721361378921372"><ele>71.33333333333333</ele><time>2026-05-02T08:10:08.929Z</time></trkpt><trkpt lat="44.27215348913346" lon="11.721293260877298"><ele>71.66666666666667</ele><time>2026-05-02T08:10:23.929Z</time></trkpt><trkpt lat="44.27220910116175" lon="11.721201143651387"><ele>72.0</ele><time>2026-05-02T08:10:56.929Z</time></trkpt><trkpt lat="44.272252985830406" lon="11.721101311618913"><ele>72.5</ele><time>2026-05-02T08:10:59.929Z</time></trkpt><trkpt lat="44.272136254663465" lon="11.720899803001798"><ele>73.0</ele><time>2026-05-02T08:11:00.929Z</time></trkpt><trkpt lat="44.2720680547181" lon="11.720835542618078"><ele>73.5</ele><time>2026-05-02T08:11:01.929Z</time></trkpt><trkpt lat="44.27200229602459" lon="11.7207477560677"><ele>74.0</ele><time>2026-05-02T08:11:02.929Z</time></trkpt><trkpt lat="44.27193195449412" lon="11.720622714403774"><ele>74.0</ele><time>2026-05-02T08:11:03.929Z</time></trkpt><trkpt lat="44.27186729588591" lon="11.720471257225196"><ele>74.0</ele><time>2026-05-02T08:11:04.929Z</time></trkpt><trkpt lat="44.271812104653584" lon="11.720316682394618"><ele>74.0</ele><time>2026-05-02T08:11:05.929Z</time></trkpt><trkpt lat="44.27177517534307" lon="11.720174480439022"><ele>74.0</ele><time>2026-05-02T08:11:06.929Z</time></trkpt><trkpt lat="44.271734993583365" lon="11.720034861041606"><ele>74.2</ele><time>2026-05-02T08:11:07.929Z</time></trkpt><trkpt lat="44.271696094366185" lon="11.719902602771885"><ele>74.4</ele><time>2026-05-02T08:11:08.929Z</time></trkpt><trkpt lat="44.271651257287566" lon="11.71976548691768"><ele>74.6</ele><time>2026-05-02T08:11:09.929Z</time></trkpt><trkpt lat="44.27163397888173" lon="11.719608931983892"><ele>74.8</ele><time>2026-05-02T08:11:10.929Z</time></trkpt><trkpt lat="44.27158408241337" lon="11.719457149927914"><ele>75.0</ele><time>2026-05-02T08:11:11.929Z</time></trkpt><trkpt lat="44.271546627394734" lon="11.719320741078572"><ele>75.0</ele><time>2026-05-02T08:11:12.929Z</time></trkpt><trkpt lat="44.27151137221444" lon="11.719190361451924"><ele>75.0</ele><time>2026-05-02T08:11:13.929Z</time></trkpt><trkpt lat="44.27147401258022" lon="11.719079345196104"><ele>75.0</ele><time>2026-05-02T08:11:14.929Z</time></trkpt><trkpt lat="44.27143753446834" lon="11.718978976433219"><ele>75.0</ele><time>2026-05-02T08:11:15.929Z</time></trkpt><trkpt lat="44.27140397066033" lon="11.718875664655517"><ele>75.0</ele><time>2026-05-02T08:11:16.929Z</time></trkpt><trkpt lat="44.271371235878526" lon="11.718778166991699"><ele>75.0</ele><time>2026-05-02T08:11:17.929Z</time></trkpt><trkpt lat="44.271340659132846" lon="11.718684714110326"><ele>75.16666666666667</ele><time>2026-05-02T08:11:18.929Z</time></trkpt><trkpt lat="44.27130830765286" lon="11.718590615541478"><ele>75.33333333333333</ele><time>2026-05-02T08:11:19.929Z</time></trkpt><trkpt lat="44.2712826362936" lon="11.718506873954263"><ele>75.5</ele><time>2026-05-02T08:11:20.929Z</time></trkpt><trkpt lat="44.27124455404477" lon="11.718371495540882"><ele>75.66666666666666</ele><time>2026-05-02T08:11:22.929Z</time></trkpt><trkpt lat="44.2712050243658" lon="11.71825694489041"><ele>75.83333333333333</ele><time>2026-05-02T08:11:24.929Z</time></trkpt><trkpt lat="44.27119158433943" lon="11.718152972346815"><ele>76.0</ele><time>2026-05-02T08:11:26.929Z</time></trkpt><trkpt lat="44.271159500933166" lon="11.718033729022274"><ele>76.0</ele><time>2026-05-02T08:11:28.929Z</time></trkpt><trkpt lat="44.271127823488754" lon="11.717900048228762"><ele>76.0</ele><time>2026-05-02T08:11:30.929Z</time></trkpt><trkpt lat="44.2710987237929" lon="11.717741109824109"><ele>76.0</ele><time>2026-05-02T08:11:32.929Z</time></trkpt><trkpt lat="44.2710936294162" lon="11.717631274186019"><ele>76.0</ele><time>2026-05-02T08:11:33.929Z</time></trkpt><trkpt lat="44.27109896232024" lon="11.717500404153446"><ele>76.0</ele><time>2026-05-02T08:11:34.929Z</time></trkpt><trkpt lat="44.27110875187298" lon="11.717348974423526"><ele>75.5</ele><time>2026-05-02T08:11:35.929Z</time></trkpt><trkpt lat="44.27111486669124" lon="11.717194547578936"><ele>75.0</ele><time>2026-05-02T08:11:36.929Z</time></trkpt><trkpt lat="44.27111976782985" lon="11.717015888052456"><ele>74.5</ele><time>2026-05-02T08:11:37.929Z</time></trkpt><trkpt lat="44.271165793056774" lon="11.716813060365817"><ele>74.0</ele><time>2026-05-02T08:11:38.928Z</time></trkpt><trkpt lat="44.27118513289609" lon="11.716585256514268"><ele>73.33333333333334</ele><time>2026-05-02T08:11:39.928Z</time></trkpt><trkpt lat="44.27120206428372" lon="11.716349904890805"><ele>72.66666666666667</ele><time>2026-05-02T08:11:40.928Z</time></trkpt><trkpt lat="44.27121902383998" lon="11.716103258030467"><ele>72.0</ele><time>2026-05-02T08:11:41.928Z</time></trkpt><trkpt lat="44.27123596743082" lon="11.715856843374333"><ele>72.0</ele><time>2026-05-02T08:11:42.927Z</time></trkpt><trkpt lat="44.2712534102346" lon="11.715612441529597"><ele>72.0</ele><time>2026-05-02T08:11:43.927Z</time></trkpt><trkpt lat="44.27127103184025" lon="11.71536899137385"><ele>72.0</ele><time>2026-05-02T08:11:44.928Z</time></trkpt><trkpt lat="44.27128722443153" lon="11.715122028933578"><ele>72.0</ele><time>2026-05-02T08:11:45.928Z</time></trkpt><trkpt lat="44.27130187718794" lon="11.71486610697879"><ele>72.0</ele><time>2026-05-02T08:11:46.928Z</time></trkpt><trkpt lat="44.271319988189994" lon="11.714606603238462"><ele>72.0</ele><time>2026-05-02T08:11:47.928Z</time></trkpt><trkpt lat="44.27133780040986" lon="11.714354473863676"><ele>71.33333333333333</ele><time>2026-05-02T08:11:48.928Z</time></trkpt><trkpt lat="44.271355630726895" lon="11.71408686683177"><ele>70.66666666666666</ele><time>2026-05-02T08:11:49.928Z</time></trkpt><trkpt lat="44.27137238186882" lon="11.713812952286665"><ele>70.0</ele><time>2026-05-02T08:11:50.928Z</time></trkpt><trkpt lat="44.27138630418832" lon="11.713548755826832"><ele>70.0</ele><time>2026-05-02T08:11:51.928Z</time></trkpt><trkpt lat="44.271401782742245" lon="11.713295113637773"><ele>70.0</ele><time>2026-05-02T08:11:52.928Z</time></trkpt><trkpt lat="44.271422332893955" lon="11.7130457798513"><ele>70.0</ele><time>2026-05-02T08:11:53.928Z</time></trkpt><trkpt lat="44.271439059292334" lon="11.712791005810416"><ele>70.0</ele><time>2026-05-02T08:11:54.928Z</time></trkpt><trkpt lat="44.27145187093422" lon="11.712532301807933"><ele>70.0</ele><time>2026-05-02T08:11:55.928Z</time></trkpt><trkpt lat="44.27146916652064" lon="11.71226827201977"><ele>70.0</ele><time>2026-05-02T08:11:56.928Z</time></trkpt><trkpt lat="44.271488622909594" lon="11.711991533646563"><ele>70.0</ele><time>2026-05-02T08:11:57.928Z</time></trkpt><trkpt lat="44.271508160263124" lon="11.71172421033066"><ele>70.0</ele><time>2026-05-02T08:11:58.928Z</time></trkpt><trkpt lat="44.27152652790623" lon="11.711450995758929"><ele>70.0</ele><time>2026-05-02T08:11:59.928Z</time></trkpt><trkpt lat="44.271543766948845" lon="11.711181463402161"><ele>70.33333333333333</ele><time>2026-05-02T08:12:00.928Z</time></trkpt><trkpt lat="44.27156210134806" lon="11.710908287024619"><ele>70.66666666666667</ele><time>2026-05-02T08:12:01.928Z</time></trkpt><trkpt lat="44.27158063802269" lon="11.710634200437454"><ele>71.0</ele><time>2026-05-02T08:12:02.928Z</time></trkpt><trkpt lat="44.271600786066806" lon="11.710366540936889"><ele>71.66666666666667</ele><time>2026-05-02T08:12:03.928Z</time></trkpt><trkpt lat="44.271620301662594" lon="11.710106340538575"><ele>72.33333333333333</ele><time>2026-05-02T08:12:04.928Z</time></trkpt><trkpt lat="44.27163821724978" lon="11.709856016265604"><ele>73.0</ele><time>2026-05-02T08:12:05.928Z</time></trkpt><trkpt lat="44.271657590405" lon="11.70960008078316"><ele>73.33333333333333</ele><time>2026-05-02T08:12:06.928Z</time></trkpt><trkpt lat="44.27167851174069" lon="11.70934963037523"><ele>73.66666666666667</ele><time>2026-05-02T08:12:07.928Z</time></trkpt><trkpt lat="44.271699450258374" lon="11.709104592230387"><ele>74.0</ele><time>2026-05-02T08:12:08.928Z</time></trkpt><trkpt lat="44.27171666185057" lon="11.70886697112614"><ele>74.0</ele><time>2026-05-02T08:12:09.928Z</time></trkpt><trkpt lat="44.27173372613496" lon="11.708626032807839"><ele>74.0</ele><time>2026-05-02T08:12:10.928Z</time></trkpt><trkpt lat="44.2717387251802" lon="11.708386282662076"><ele>74.0</ele><time>2026-05-02T08:12:11.928Z</time></trkpt><trkpt lat="44.27173278314757" lon="11.708136896777978"><ele>74.0</ele><time>2026-05-02T08:12:12.928Z</time></trkpt><trkpt lat="44.27171193138549" lon="11.707875922574596"><ele>74.0</ele><time>2026-05-02T08:12:13.928Z</time></trkpt><trkpt lat="44.271687980192866" lon="11.707604296141973"><ele>74.0</ele><time>2026-05-02T08:12:14.928Z</time></trkpt><trkpt lat="44.27166467216139" lon="11.707320949274033"><ele>74.0</ele><time>2026-05-02T08:12:15.928Z</time></trkpt><trkpt lat="44.27164184586339" lon="11.707039538262897"><ele>74.0</ele><time>2026-05-02T08:12:16.928Z</time></trkpt><trkpt lat="44.2716149114299" lon="11.706764190661467"><ele>74.0</ele><time>2026-05-02T08:12:17.928Z</time></trkpt><trkpt lat="44.271588478992484" lon="11.706494877011753"><ele>74.33333333333334</ele><time>2026-05-02T08:12:18.928Z</time></trkpt><trkpt lat="44.27156406102701" lon="11.706227805528082"><ele>74.66666666666667</ele><time>2026-05-02T08:12:19.928Z</time></trkpt><trkpt lat="44.2715408466462" lon="11.705964490763648"><ele>75.0</ele><time>2026-05-02T08:12:20.928Z</time></trkpt><trkpt lat="44.27151698377004" lon="11.705694665736754"><ele>76.0</ele><time>2026-05-02T08:12:21.928Z</time></trkpt><trkpt lat="44.271492883180386" lon="11.705430876887503"><ele>77.0</ele><time>2026-05-02T08:12:22.928Z</time></trkpt><trkpt lat="44.27147175358934" lon="11.705176154566027"><ele>78.0</ele><time>2026-05-02T08:12:23.928Z</time></trkpt><trkpt lat="44.2714504535151" lon="11.704922728980865"><ele>78.0</ele><time>2026-05-02T08:12:24.928Z</time></trkpt><trkpt lat="44.2714280430646" lon="11.704670156980919"><ele>78.0</ele><time>2026-05-02T08:12:25.928Z</time></trkpt><trkpt lat="44.27140239861889" lon="11.70442134001349"><ele>78.0</ele><time>2026-05-02T08:12:26.928Z</time></trkpt><trkpt lat="44.271375087249936" lon="11.704175070148853"><ele>78.33333333333333</ele><time>2026-05-02T08:12:27.928Z</time></trkpt><trkpt lat="44.271355596806075" lon="11.703926348538143"><ele>78.66666666666666</ele><time>2026-05-02T08:12:28.928Z</time></trkpt><trkpt lat="44.27133701430569" lon="11.703679710225968"><ele>79.0</ele><time>2026-05-02T08:12:29.928Z</time></trkpt><trkpt lat="44.271318223690514" lon="11.70343772618823"><ele>79.33333333333333</ele><time>2026-05-02T08:12:30.928Z</time></trkpt><trkpt lat="44.271297543786986" lon="11.703206159584692"><ele>79.66666666666667</ele><time>2026-05-02T08:12:31.928Z</time></trkpt><trkpt lat="44.271276534659904" lon="11.702977451052263"><ele>80.0</ele><time>2026-05-02T08:12:32.928Z</time></trkpt><trkpt lat="44.27125920132684" lon="11.70274989978048"><ele>80.0</ele><time>2026-05-02T08:12:33.928Z</time></trkpt><trkpt lat="44.27125382105046" lon="11.702515708535383"><ele>80.0</ele><time>2026-05-02T08:12:34.928Z</time></trkpt><trkpt lat="44.271261444058595" lon="11.702272052096554"><ele>80.0</ele><time>2026-05-02T08:12:35.928Z</time></trkpt><trkpt lat="44.27127972750227" lon="11.702021213350651"><ele>80.0</ele><time>2026-05-02T08:12:36.928Z</time></trkpt><trkpt lat="44.27132932308531" lon="11.70177391641893"><ele>80.0</ele><time>2026-05-02T08:12:37.928Z</time></trkpt><trkpt lat="44.27137280792763" lon="11.70152407092929"><ele>80.0</ele><time>2026-05-02T08:12:38.928Z</time></trkpt><trkpt lat="44.27142763256561" lon="11.701273067257201"><ele>81.66666666666667</ele><time>2026-05-02T08:12:39.928Z</time></trkpt><trkpt lat="44.27148912274844" lon="11.701021166825564"><ele>83.33333333333333</ele><time>2026-05-02T08:12:40.928Z</time></trkpt><trkpt lat="44.27154700839676" lon="11.700763414811016"><ele>85.0</ele><time>2026-05-02T08:12:41.928Z</time></trkpt><trkpt lat="44.27163128312075" lon="11.700529955753419"><ele>85.0</ele><time>2026-05-02T08:12:42.928Z</time></trkpt><trkpt lat="44.27174724936209" lon="11.700321331020517"><ele>85.0</ele><time>2026-05-02T08:12:43.928Z</time></trkpt><trkpt lat="44.27186183756076" lon="11.700104763527344"><ele>85.0</ele><time>2026-05-02T08:12:44.928Z</time></trkpt><trkpt lat="44.2719673294221" lon="11.699883170102206"><ele>86.0</ele><time>2026-05-02T08:12:45.928Z</time></trkpt><trkpt lat="44.27208661916273" lon="11.699671561949271"><ele>87.0</ele><time>2026-05-02T08:12:46.928Z</time></trkpt><trkpt lat="44.27220037555603" lon="11.699467515162093"><ele>88.0</ele><time>2026-05-02T08:12:47.928Z</time></trkpt><trkpt lat="44.27230954849692" lon="11.699257861809466"><ele>88.0</ele><time>2026-05-02T08:12:48.928Z</time></trkpt><trkpt lat="44.27241897941641" lon="11.699043105380625"><ele>88.0</ele><time>2026-05-02T08:12:49.928Z</time></trkpt><trkpt lat="44.27252553855198" lon="11.698838714673325"><ele>88.0</ele><time>2026-05-02T08:12:50.928Z</time></trkpt><trkpt lat="44.2726238531584" lon="11.698648668328685"><ele>87.33333333333333</ele><time>2026-05-02T08:12:51.928Z</time></trkpt><trkpt lat="44.27270967017021" lon="11.698464821360922"><ele>86.66666666666667</ele><time>2026-05-02T08:12:52.928Z</time></trkpt><trkpt lat="44.27277887691008" lon="11.698268878116385"><ele>86.0</ele><time>2026-05-02T08:12:53.928Z</time></trkpt><trkpt lat="44.27284468331876" lon="11.698054761909576"><ele>86.0</ele><time>2026-05-02T08:12:54.928Z</time></trkpt><trkpt lat="44.27285854485167" lon="11.697799933924497"><ele>86.0</ele><time>2026-05-02T08:12:55.928Z</time></trkpt><trkpt lat="44.27279589769143" lon="11.697551707841594"><ele>86.0</ele><time>2026-05-02T08:12:56.928Z</time></trkpt><trkpt lat="44.272722984855854" lon="11.697330952995756"><ele>86.0</ele><time>2026-05-02T08:12:57.928Z</time></trkpt><trkpt lat="44.2726473853454" lon="11.69712799775397"><ele>86.0</ele><time>2026-05-02T08:12:58.928Z</time></trkpt><trkpt lat="44.272591183308045" lon="11.696939600019931"><ele>86.0</ele><time>2026-05-02T08:12:59.928Z</time></trkpt><trkpt lat="44.27247341301097" lon="11.696812403767526"><ele>86.33333333333334</ele><time>2026-05-02T08:13:00.928Z</time></trkpt><trkpt lat="44.272344127581086" lon="11.696705946551697"><ele>86.66666666666667</ele><time>2026-05-02T08:13:01.928Z</time></trkpt><trkpt lat="44.27218105135811" lon="11.69662976892726"><ele>87.0</ele><time>2026-05-02T08:13:02.928Z</time></trkpt><trkpt lat="44.27200223153828" lon="11.696558271466543"><ele>87.0</ele><time>2026-05-02T08:13:03.928Z</time></trkpt><trkpt lat="44.27182514310607" lon="11.696486372635208"><ele>87.0</ele><time>2026-05-02T08:13:04.928Z</time></trkpt><trkpt lat="44.271648059352934" lon="11.696410148449601"><ele>87.0</ele><time>2026-05-02T08:13:05.928Z</time></trkpt><trkpt lat="44.27147997812249" lon="11.696300969981014"><ele>86.0</ele><time>2026-05-02T08:13:06.928Z</time></trkpt><trkpt lat="44.27131254976775" lon="11.696186915342885"><ele>85.0</ele><time>2026-05-02T08:13:07.928Z</time></trkpt><trkpt lat="44.27115960250995" lon="11.696045924479286"><ele>84.0</ele><time>2026-05-02T08:13:08.928Z</time></trkpt><trkpt lat="44.271019896193735" lon="11.695875641070721"><ele>86.66666666666667</ele><time>2026-05-02T08:13:09.928Z</time></trkpt><trkpt lat="44.27090610536779" lon="11.695661475768683"><ele>89.33333333333334</ele><time>2026-05-02T08:13:10.928Z</time></trkpt><trkpt lat="44.27080271196477" lon="11.695437657318738"><ele>92.0</ele><time>2026-05-02T08:13:11.928Z</time></trkpt><trkpt lat="44.270700775705784" lon="11.695222295466436"><ele>92.33333333333334</ele><time>2026-05-02T08:13:12.928Z</time></trkpt><trkpt lat="44.27064649492407" lon="11.694993231560076"><ele>92.66666666666667</ele><time>2026-05-02T08:13:13.928Z</time></trkpt><trkpt lat="44.27055359969519" lon="11.69480085801751"><ele>93.0</ele><time>2026-05-02T08:13:14.928Z</time></trkpt><trkpt lat="44.27051475638782" lon="11.694569762965637"><ele>95.66666666666666</ele><time>2026-05-02T08:13:15.928Z</time></trkpt><trkpt lat="44.270503829361076" lon="11.694320500490887"><ele>98.33333333333333</ele><time>2026-05-02T08:13:16.928Z</time></trkpt><trkpt lat="44.27051244676382" lon="11.69407826359789"><ele>101.0</ele><time>2026-05-02T08:13:17.928Z</time></trkpt><trkpt lat="44.27055668462021" lon="11.693823918943396"><ele>104.66666666666666</ele><time>2026-05-02T08:13:18.928Z</time></trkpt><trkpt lat="44.270658245198156" lon="11.69357723313343"><ele>108.33333333333334</ele><time>2026-05-02T08:13:19.928Z</time></trkpt><trkpt lat="44.27073291674736" lon="11.693317042522247"><ele>112.0</ele><time>2026-05-02T08:13:20.928Z</time></trkpt><trkpt lat="44.27080867635826" lon="11.693071544342434"><ele>112.0</ele><time>2026-05-02T08:13:21.928Z</time></trkpt><trkpt lat="44.27087992849552" lon="11.692842931041643"><ele>112.0</ele><time>2026-05-02T08:13:22.928Z</time></trkpt><trkpt lat="44.270929682827614" lon="11.692616500286826"><ele>112.0</ele><time>2026-05-02T08:13:23.928Z</time></trkpt><trkpt lat="44.27096788559329" lon="11.692388293431977"><ele>112.33333333333334</ele><time>2026-05-02T08:13:24.928Z</time></trkpt><trkpt lat="44.27099860888883" lon="11.6921564908634"><ele>112.66666666666666</ele><time>2026-05-02T08:13:25.928Z</time></trkpt><trkpt lat="44.271029830862844" lon="11.691918495026496"><ele>113.0</ele><time>2026-05-02T08:13:26.928Z</time></trkpt><trkpt lat="44.27106837214115" lon="11.691669914396476"><ele>112.33333333333333</ele><time>2026-05-02T08:13:27.928Z</time></trkpt><trkpt lat="44.271103060473266" lon="11.691429526435195"><ele>111.66666666666666</ele><time>2026-05-02T08:13:28.928Z</time></trkpt><trkpt lat="44.27114737554375" lon="11.691206220847208"><ele>111.0</ele><time>2026-05-02T08:13:29.928Z</time></trkpt><trkpt lat="44.271154599506175" lon="11.690971248917572"><ele>109.0</ele><time>2026-05-02T08:13:30.927Z</time></trkpt><trkpt lat="44.27114433348804" lon="11.690734842418768"><ele>107.0</ele><time>2026-05-02T08:13:31.927Z</time></trkpt><trkpt lat="44.27111652838074" lon="11.690509284377463"><ele>105.0</ele><time>2026-05-02T08:13:32.927Z</time></trkpt><trkpt lat="44.27106992685243" lon="11.69027615009575"><ele>101.33333333333333</ele><time>2026-05-02T08:13:33.927Z</time></trkpt><trkpt lat="44.271010604013185" lon="11.690053166731008"><ele>97.66666666666666</ele><time>2026-05-02T08:13:34.927Z</time></trkpt><trkpt lat="44.27094223720655" lon="11.689833418935711"><ele>94.0</ele><time>2026-05-02T08:13:35.927Z</time></trkpt><trkpt lat="44.27088597368923" lon="11.68961221750037"><ele>96.0</ele><time>2026-05-02T08:13:36.927Z</time></trkpt><trkpt lat="44.27082095523319" lon="11.689397525716442"><ele>98.0</ele><time>2026-05-02T08:13:37.927Z</time></trkpt><trkpt lat="44.270764547270964" lon="11.68917452455491"><ele>100.0</ele><time>2026-05-02T08:13:38.927Z</time></trkpt><trkpt lat="44.27071661658547" lon="11.688956433970805"><ele>100.0</ele><time>2026-05-02T08:13:39.927Z</time></trkpt><trkpt lat="44.27068543381519" lon="11.688733173418752"><ele>100.0</ele><time>2026-05-02T08:13:40.927Z</time></trkpt><trkpt lat="44.27066328498378" lon="11.688499298189019"><ele>100.0</ele><time>2026-05-02T08:13:41.927Z</time></trkpt><trkpt lat="44.27065525632333" lon="11.688251165363376"><ele>101.0</ele><time>2026-05-02T08:13:42.927Z</time></trkpt><trkpt lat="44.27064478525764" lon="11.688000391714178"><ele>102.0</ele><time>2026-05-02T08:13:43.927Z</time></trkpt><trkpt lat="44.27065393259438" lon="11.687758718929059"><ele>103.0</ele><time>2026-05-02T08:13:44.926Z</time></trkpt><trkpt lat="44.27066023768826" lon="11.687515656728921"><ele>101.0</ele><time>2026-05-02T08:13:45.925Z</time></trkpt><trkpt lat="44.27068278749472" lon="11.687264841822207"><ele>99.0</ele><time>2026-05-02T08:13:46.925Z</time></trkpt><trkpt lat="44.27067387098288" lon="11.687014558416879"><ele>97.0</ele><time>2026-05-02T08:13:47.925Z</time></trkpt><trkpt lat="44.270637514264806" lon="11.686746557857159"><ele>94.66666666666667</ele><time>2026-05-02T08:13:48.925Z</time></trkpt><trkpt lat="44.27057547521713" lon="11.686479661948411"><ele>92.33333333333334</ele><time>2026-05-02T08:13:49.925Z</time></trkpt><trkpt lat="44.27048732379395" lon="11.686224493515052"><ele>90.0</ele><time>2026-05-02T08:13:50.925Z</time></trkpt><trkpt lat="44.270379484725545" lon="11.685978213959523"><ele>90.0</ele><time>2026-05-02T08:13:51.925Z</time></trkpt><trkpt lat="44.2702715707098" lon="11.68575183616468"><ele>90.0</ele><time>2026-05-02T08:13:52.925Z</time></trkpt><trkpt lat="44.2701729958037" lon="11.68553363838086"><ele>90.0</ele><time>2026-05-02T08:13:53.926Z</time></trkpt><trkpt lat="44.270085666429665" lon="11.685301904000996"><ele>91.66666666666667</ele><time>2026-05-02T08:13:54.926Z</time></trkpt><trkpt lat="44.27001277503544" lon="11.685071234842026"><ele>93.33333333333334</ele><time>2026-05-02T08:13:55.926Z</time></trkpt><trkpt lat="44.26993842685853" lon="11.684858487362483"><ele>95.0</ele><time>2026-05-02T08:13:56.925Z</time></trkpt><trkpt lat="44.26984528769157" lon="11.684653983207756"><ele>93.66666666666667</ele><time>2026-05-02T08:13:57.925Z</time></trkpt><trkpt lat="44.26973401978334" lon="11.684484312993433"><ele>92.33333333333333</ele><time>2026-05-02T08:13:58.925Z</time></trkpt><trkpt lat="44.26961071232578" lon="11.684351119100922"><ele>91.0</ele><time>2026-05-02T08:13:59.925Z</time></trkpt><trkpt lat="44.26946924479022" lon="11.684268563840616"><ele>91.0</ele><time>2026-05-02T08:14:00.925Z</time></trkpt><trkpt lat="44.26930976701331" lon="11.684249191847542"><ele>91.0</ele><time>2026-05-02T08:14:01.925Z</time></trkpt><trkpt lat="44.26913953970874" lon="11.684265396931176"><ele>91.0</ele><time>2026-05-02T08:14:02.925Z</time></trkpt><trkpt lat="44.26896644317989" lon="11.684299971506016"><ele>91.66666666666666</ele><time>2026-05-02T08:14:03.925Z</time></trkpt><trkpt lat="44.26878598649387" lon="11.684296029127896"><ele>92.33333333333333</ele><time>2026-05-02T08:14:04.925Z</time></trkpt><trkpt lat="44.26861336047194" lon="11.684290378050115"><ele>93.0</ele><time>2026-05-02T08:14:05.925Z</time></trkpt><trkpt lat="44.268449890984556" lon="11.684287672299204"><ele>93.0</ele><time>2026-05-02T08:14:06.925Z</time></trkpt><trkpt lat="44.26829713163168" lon="11.68423410512117"><ele>93.0</ele><time>2026-05-02T08:14:07.925Z</time></trkpt><trkpt lat="44.26814952141269" lon="11.684153257150523"><ele>93.0</ele><time>2026-05-02T08:14:08.925Z</time></trkpt><trkpt lat="44.268021519947936" lon="11.683999973582198"><ele>92.66666666666667</ele><time>2026-05-02T08:14:09.925Z</time></trkpt><trkpt lat="44.2678899195588" lon="11.683841747311806"><ele>92.33333333333334</ele><time>2026-05-02T08:14:10.925Z</time></trkpt><trkpt lat="44.267741980564224" lon="11.683681113177224"><ele>92.0</ele><time>2026-05-02T08:14:11.925Z</time></trkpt><trkpt lat="44.26760237478259" lon="11.683503557311639"><ele>93.0</ele><time>2026-05-02T08:14:12.925Z</time></trkpt><trkpt lat="44.26746305872138" lon="11.683331928621032"><ele>94.0</ele><time>2026-05-02T08:14:13.925Z</time></trkpt><trkpt lat="44.267323140035955" lon="11.6831614298938"><ele>95.0</ele><time>2026-05-02T08:14:14.925Z</time></trkpt><trkpt lat="44.26718827521827" lon="11.68299650709577"><ele>95.0</ele><time>2026-05-02T08:14:15.925Z</time></trkpt><trkpt lat="44.267059618075955" lon="11.682836392449923"><ele>95.0</ele><time>2026-05-02T08:14:16.925Z</time></trkpt><trkpt lat="44.266932633220776" lon="11.682680212424193"><ele>95.0</ele><time>2026-05-02T08:14:17.925Z</time></trkpt><trkpt lat="44.26680728891918" lon="11.68252555030668"><ele>95.0</ele><time>2026-05-02T08:14:18.925Z</time></trkpt><trkpt lat="44.266690556201986" lon="11.682379756802549"><ele>95.0</ele><time>2026-05-02T08:14:19.925Z</time></trkpt><trkpt lat="44.26658430335064" lon="11.682244438412368"><ele>95.0</ele><time>2026-05-02T08:14:20.925Z</time></trkpt><trkpt lat="44.26650043916623" lon="11.68212032210609"><ele>95.0</ele><time>2026-05-02T08:14:21.925Z</time></trkpt><trkpt lat="44.266442408319186" lon="11.68198386481206"><ele>94.0</ele><time>2026-05-02T08:14:22.925Z</time></trkpt><trkpt lat="44.26641470979405" lon="11.68181981762245"><ele>93.0</ele><time>2026-05-02T08:14:23.925Z</time></trkpt><trkpt lat="44.26647303421875" lon="11.681644304685225"><ele>92.0</ele><time>2026-05-02T08:14:24.925Z</time></trkpt><trkpt lat="44.266517420769624" lon="11.68144358667749"><ele>91.0</ele><time>2026-05-02T08:14:25.925Z</time></trkpt><trkpt lat="44.26657636110307" lon="11.68122826232745"><ele>93.0</ele><time>2026-05-02T08:14:26.925Z</time></trkpt><trkpt lat="44.26664459055943" lon="11.68099944092565"><ele>95.0</ele><time>2026-05-02T08:14:27.925Z</time></trkpt><trkpt lat="44.26671222525958" lon="11.680779360485554"><ele>97.0</ele><time>2026-05-02T08:14:28.925Z</time></trkpt><trkpt lat="44.266748529589385" lon="11.680564027156015"><ele>97.0</ele><time>2026-05-02T08:14:29.925Z</time></trkpt><trkpt lat="44.26676838778066" lon="11.680344867062043"><ele>97.0</ele><time>2026-05-02T08:14:30.925Z</time></trkpt><trkpt lat="44.26673206386331" lon="11.680115099834287"><ele>97.0</ele><time>2026-05-02T08:14:31.925Z</time></trkpt><trkpt lat="44.26665466329814" lon="11.679888466168803"><ele>95.33333333333334</ele><time>2026-05-02T08:14:32.925Z</time></trkpt><trkpt lat="44.266559132822195" lon="11.679663032405665"><ele>93.66666666666667</ele><time>2026-05-02T08:14:33.925Z</time></trkpt><trkpt lat="44.2664635450655" lon="11.679435675265214"><ele>92.0</ele><time>2026-05-02T08:14:34.925Z</time></trkpt><trkpt lat="44.266364579866575" lon="11.67920706553957"><ele>91.66666666666667</ele><time>2026-05-02T08:14:35.925Z</time></trkpt><trkpt lat="44.266256862929716" lon="11.678975685186035"><ele>91.33333333333333</ele><time>2026-05-02T08:14:36.925Z</time></trkpt><trkpt lat="44.26616364358466" lon="11.678739714328879"><ele>91.0</ele><time>2026-05-02T08:14:37.925Z</time></trkpt><trkpt lat="44.26604813399143" lon="11.678514713324098"><ele>91.66666666666666</ele><time>2026-05-02T08:14:38.925Z</time></trkpt><trkpt lat="44.265935187253255" lon="11.678288434077837"><ele>92.33333333333333</ele><time>2026-05-02T08:14:39.925Z</time></trkpt><trkpt lat="44.265825091151946" lon="11.678068775814365"><ele>93.0</ele><time>2026-05-02T08:14:40.925Z</time></trkpt><trkpt lat="44.26571752644037" lon="11.67785682687909"><ele>92.66666666666667</ele><time>2026-05-02T08:14:41.925Z</time></trkpt><trkpt lat="44.26561550433315" lon="11.67765257987072"><ele>92.33333333333334</ele><time>2026-05-02T08:14:42.925Z</time></trkpt><trkpt lat="44.26551160124817" lon="11.677450933238493"><ele>92.0</ele><time>2026-05-02T08:14:43.925Z</time></trkpt><trkpt lat="44.265398779722105" lon="11.677264786332824"><ele>92.0</ele><time>2026-05-02T08:14:44.925Z</time></trkpt><trkpt lat="44.26527827097077" lon="11.677080284968971"><ele>92.0</ele><time>2026-05-02T08:14:45.925Z</time></trkpt><trkpt lat="44.26514490423103" lon="11.676902727163636"><ele>92.0</ele><time>2026-05-02T08:14:46.925Z</time></trkpt><trkpt lat="44.26500500217998" lon="11.676720264902725"><ele>91.66666666666667</ele><time>2026-05-02T08:14:47.925Z</time></trkpt><trkpt lat="44.264873092962446" lon="11.676539999453581"><ele>91.33333333333333</ele><time>2026-05-02T08:14:48.925Z</time></trkpt><trkpt lat="44.26474572531941" lon="11.676364095485203"><ele>91.0</ele><time>2026-05-02T08:14:49.925Z</time></trkpt><trkpt lat="44.26461762044822" lon="11.676188417876617"><ele>91.0</ele><time>2026-05-02T08:14:50.925Z</time></trkpt><trkpt lat="44.264491933925626" lon="11.676016556961718"><ele>91.0</ele><time>2026-05-02T08:14:51.925Z</time></trkpt><trkpt lat="44.2643599071021" lon="11.675844813514207"><ele>91.0</ele><time>2026-05-02T08:14:52.925Z</time></trkpt><trkpt lat="44.264239965673376" lon="11.675689961366627"><ele>91.0</ele><time>2026-05-02T08:14:53.925Z</time></trkpt><trkpt lat="44.264140080308934" lon="11.675555966204888"><ele>91.0</ele><time>2026-05-02T08:14:54.925Z</time></trkpt><trkpt lat="44.26404788996803" lon="11.675424818900764"><ele>91.0</ele><time>2026-05-02T08:14:55.925Z</time></trkpt><trkpt lat="44.26396243789994" lon="11.675305501576167"><ele>91.0</ele><time>2026-05-02T08:14:56.925Z</time></trkpt><trkpt lat="44.26387685567594" lon="11.67518702004785"><ele>91.5</ele><time>2026-05-02T08:14:57.925Z</time></trkpt><trkpt lat="44.26378949740086" lon="11.675066111154884"><ele>92.0</ele><time>2026-05-02T08:14:58.925Z</time></trkpt><trkpt lat="44.263697470827374" lon="11.67494254779492"><ele>92.5</ele><time>2026-05-02T08:14:59.925Z</time></trkpt><trkpt lat="44.263604022330895" lon="11.67482072944441"><ele>93.0</ele><time>2026-05-02T08:15:00.925Z</time></trkpt><trkpt lat="44.26351184997061" lon="11.674701181479286"><ele>93.0</ele><time>2026-05-02T08:15:01.925Z</time></trkpt><trkpt lat="44.2634215256698" lon="11.674576172418774"><ele>93.0</ele><time>2026-05-02T08:15:02.925Z</time></trkpt><trkpt lat="44.26333256068608" lon="11.674448715671607"><ele>93.0</ele><time>2026-05-02T08:15:03.925Z</time></trkpt><trkpt lat="44.26324925615286" lon="11.674306477038389"><ele>93.0</ele><time>2026-05-02T08:15:04.925Z</time></trkpt><trkpt lat="44.26317831451281" lon="11.674150398600023"><ele>93.25</ele><time>2026-05-02T08:15:05.925Z</time></trkpt><trkpt lat="44.26313408576025" lon="11.673971999474926"><ele>93.5</ele><time>2026-05-02T08:15:06.925Z</time></trkpt><trkpt lat="44.26308702848489" lon="11.673790737685609"><ele>93.75</ele><time>2026-05-02T08:15:07.925Z</time></trkpt><trkpt lat="44.26304302445072" lon="11.673603911779185"><ele>94.0</ele><time>2026-05-02T08:15:08.925Z</time></trkpt><trkpt lat="44.26300796550055" lon="11.673408198851808"><ele>95.66666666666666</ele><time>2026-05-02T08:15:09.925Z</time></trkpt><trkpt lat="44.26298101421925" lon="11.67320046334783"><ele>97.33333333333333</ele><time>2026-05-02T08:15:10.925Z</time></trkpt><trkpt lat="44.262966468867134" lon="11.672988968150246"><ele>99.0</ele><time>2026-05-02T08:15:11.925Z</time></trkpt><trkpt lat="44.26295347430114" lon="11.672780369187535"><ele>100.25</ele><time>2026-05-02T08:15:12.925Z</time></trkpt><trkpt lat="44.26294131368852" lon="11.672582779631908"><ele>101.5</ele><time>2026-05-02T08:15:13.925Z</time></trkpt><trkpt lat="44.26293036532728" lon="11.672397987119396"><ele>102.75</ele><time>2026-05-02T08:15:14.924Z</time></trkpt><trkpt lat="44.26290620792428" lon="11.672235952183126"><ele>104.0</ele><time>2026-05-02T08:15:15.924Z</time></trkpt><trkpt lat="44.26291530920117" lon="11.67209088881279"><ele>104.0</ele><time>2026-05-02T08:15:16.924Z</time></trkpt><trkpt lat="44.262899551310184" lon="11.671958709840832"><ele>104.0</ele><time>2026-05-02T08:15:17.924Z</time></trkpt><trkpt lat="44.26286823785294" lon="11.671842686601455"><ele>104.0</ele><time>2026-05-02T08:15:18.924Z</time></trkpt><trkpt lat="44.262805170444494" lon="11.671755356913447"><ele>104.0</ele><time>2026-05-02T08:15:19.924Z</time></trkpt><trkpt lat="44.26272677660899" lon="11.671718418565026"><ele>104.0</ele><time>2026-05-02T08:15:20.924Z</time></trkpt><trkpt lat="44.26260233040761" lon="11.671700284663393"><ele>105.0</ele><time>2026-05-02T08:15:21.924Z</time></trkpt><trkpt lat="44.26247798250654" lon="11.671721892602113"><ele>106.0</ele><time>2026-05-02T08:15:22.924Z</time></trkpt><trkpt lat="44.26236278017338" lon="11.671765288349713"><ele>107.0</ele><time>2026-05-02T08:15:23.924Z</time></trkpt><trkpt lat="44.26226273214365" lon="11.671841235867817"><ele>108.0</ele><time>2026-05-02T08:15:24.924Z</time></trkpt><trkpt lat="44.2621964223497" lon="11.671960216457952"><ele>109.75</ele><time>2026-05-02T08:15:25.924Z</time></trkpt><trkpt lat="44.26215527499625" lon="11.67212125476957"><ele>111.5</ele><time>2026-05-02T08:15:26.924Z</time></trkpt><trkpt lat="44.262145176763056" lon="11.672330217918335"><ele>113.25</ele><time>2026-05-02T08:15:27.924Z</time></trkpt><trkpt lat="44.26214412368733" lon="11.672505528049314"><ele>115.0</ele><time>2026-05-02T08:15:28.924Z</time></trkpt><trkpt lat="44.26213892857396" lon="11.67263815169412"><ele>115.00000000000001</ele><time>2026-05-02T08:15:29.924Z</time></trkpt><trkpt lat="44.262127046766594" lon="11.672747246849388"><ele>115.0</ele><time>2026-05-02T08:15:30.924Z</time></trkpt><trkpt lat="44.262100529835415" lon="11.672849150290624"><ele>115.0</ele><time>2026-05-02T08:15:31.924Z</time></trkpt><trkpt lat="44.26205454662845" lon="11.67292209253898"><ele>115.0</ele><time>2026-05-02T08:15:32.924Z</time></trkpt><trkpt lat="44.26198423472601" lon="11.672972462413505"><ele>115.00000000000001</ele><time>2026-05-02T08:15:33.924Z</time></trkpt><trkpt lat="44.26188700740219" lon="11.672986492350256"><ele>115.0</ele><time>2026-05-02T08:15:34.924Z</time></trkpt><trkpt lat="44.26178150767441" lon="11.673022232413723"><ele>115.0</ele><time>2026-05-02T08:15:35.924Z</time></trkpt><trkpt lat="44.261683484396116" lon="11.672832530196718"><ele>115.0</ele><time>2026-05-02T08:15:36.924Z</time></trkpt><trkpt lat="44.26159518847052" lon="11.67272316365191"><ele>115.0</ele><time>2026-05-02T08:15:37.924Z</time></trkpt><trkpt lat="44.261524479906896" lon="11.672608595623153"><ele>115.0</ele><time>2026-05-02T08:15:38.924Z</time></trkpt><trkpt lat="44.26146705391026" lon="11.67251946229362"><ele>114.28571428571426</ele><time>2026-05-02T08:15:39.924Z</time></trkpt><trkpt lat="44.2614315539024" lon="11.672421642259705"><ele>113.57142857142857</ele><time>2026-05-02T08:15:40.924Z</time></trkpt><trkpt lat="44.26140795322987" lon="11.672326420028133"><ele>112.85714285714285</ele><time>2026-05-02T08:15:41.924Z</time></trkpt><trkpt lat="44.26138510551441" lon="11.672230284194935"><ele>112.14285714285714</ele><time>2026-05-02T08:15:42.924Z</time></trkpt><trkpt lat="44.26136993381744" lon="11.672139941555344"><ele>111.42857142857142</ele><time>2026-05-02T08:15:43.924Z</time></trkpt><trkpt lat="44.26136471979069" lon="11.672032777925418"><ele>110.71428571428571</ele><time>2026-05-02T08:15:44.924Z</time></trkpt><trkpt lat="44.26134544386293" lon="11.67193513725901"><ele>110.0</ele><time>2026-05-02T08:15:45.924Z</time></trkpt><trkpt lat="44.26130517362943" lon="11.671832614042637"><ele>113.0</ele><time>2026-05-02T08:15:46.924Z</time></trkpt><trkpt lat="44.2612476313702" lon="11.671727683903908"><ele>116.0</ele><time>2026-05-02T08:15:47.924Z</time></trkpt><trkpt lat="44.26116789738028" lon="11.671645480311925"><ele>119.0</ele><time>2026-05-02T08:15:48.924Z</time></trkpt><trkpt lat="44.26106290791749" lon="11.671575970776626"><ele>122.0</ele><time>2026-05-02T08:15:49.924Z</time></trkpt><trkpt lat="44.26094813279686" lon="11.671498853610375"><ele>125.0</ele><time>2026-05-02T08:15:50.923Z</time></trkpt><trkpt lat="44.26082526015023" lon="11.671417762567382"><ele>125.0</ele><time>2026-05-02T08:15:51.924Z</time></trkpt><trkpt lat="44.260707905436284" lon="11.671301133042242"><ele>125.0</ele><time>2026-05-02T08:15:52.924Z</time></trkpt><trkpt lat="44.260597377816666" lon="11.671216171485321"><ele>125.0</ele><time>2026-05-02T08:15:53.923Z</time></trkpt><trkpt lat="44.260493975782516" lon="11.67113330111191"><ele>125.0</ele><time>2026-05-02T08:15:54.923Z</time></trkpt><trkpt lat="44.26039175414755" lon="11.671053522146735"><ele>125.0</ele><time>2026-05-02T08:15:55.923Z</time></trkpt><trkpt lat="44.26029088922216" lon="11.671000408433335"><ele>125.0</ele><time>2026-05-02T08:15:56.923Z</time></trkpt><trkpt lat="44.26021430708132" lon="11.670924415950685"><ele>125.0</ele><time>2026-05-02T08:15:57.923Z</time></trkpt><trkpt lat="44.26013510554015" lon="11.670856776282767"><ele>125.0</ele><time>2026-05-02T08:15:58.923Z</time></trkpt><trkpt lat="44.260042273116554" lon="11.670780709140097"><ele>125.0</ele><time>2026-05-02T08:15:59.923Z</time></trkpt><trkpt lat="44.25994839699263" lon="11.670705808864133"><ele>125.0</ele><time>2026-05-02T08:16:00.923Z</time></trkpt><trkpt lat="44.25985546701975" lon="11.67061953952751"><ele>125.0</ele><time>2026-05-02T08:16:01.923Z</time></trkpt><trkpt lat="44.259759191189836" lon="11.670505388002233"><ele>125.0</ele><time>2026-05-02T08:16:02.923Z</time></trkpt><trkpt lat="44.25968593535983" lon="11.670363467144519"><ele>125.0</ele><time>2026-05-02T08:16:03.923Z</time></trkpt><trkpt lat="44.259645276265886" lon="11.670192712549726"><ele>120.75</ele><time>2026-05-02T08:16:04.923Z</time></trkpt><trkpt lat="44.25962348273052" lon="11.670025768865111"><ele>116.5</ele><time>2026-05-02T08:16:05.923Z</time></trkpt><trkpt lat="44.25963227572307" lon="11.66985012859102"><ele>112.25</ele><time>2026-05-02T08:16:06.923Z</time></trkpt><trkpt lat="44.25964371071371" lon="11.669664810739556"><ele>108.0</ele><time>2026-05-02T08:16:07.923Z</time></trkpt><trkpt lat="44.25966911187186" lon="11.669479659996108"><ele>107.25</ele><time>2026-05-02T08:16:08.923Z</time></trkpt><trkpt lat="44.25970352220973" lon="11.669302019744977"><ele>106.5</ele><time>2026-05-02T08:16:09.923Z</time></trkpt><trkpt lat="44.25973681823121" lon="11.66912821192422"><ele>105.75</ele><time>2026-05-02T08:16:10.923Z</time></trkpt><trkpt lat="44.2597605453942" lon="11.668957175874326"><ele>105.0</ele><time>2026-05-02T08:16:11.923Z</time></trkpt><trkpt lat="44.25977619703578" lon="11.668783917594661"><ele>105.0</ele><time>2026-05-02T08:16:12.923Z</time></trkpt><trkpt lat="44.259765747898086" lon="11.668628025382835"><ele>105.0</ele><time>2026-05-02T08:16:13.923Z</time></trkpt><trkpt lat="44.25974701468492" lon="11.668485910541234"><ele>105.0</ele><time>2026-05-02T08:16:14.923Z</time></trkpt><trkpt lat="44.25972353722429" lon="11.66836232975863"><ele>105.0</ele><time>2026-05-02T08:16:15.923Z</time></trkpt><trkpt lat="44.259716015822605" lon="11.668232104013162"><ele>105.0</ele><time>2026-05-02T08:16:16.923Z</time></trkpt><trkpt lat="44.25967866236517" lon="11.66810112703918"><ele>106.5</ele><time>2026-05-02T08:16:17.923Z</time></trkpt><trkpt lat="44.25963879777292" lon="11.667951598256614"><ele>108.0</ele><time>2026-05-02T08:16:18.923Z</time></trkpt><trkpt lat="44.25959376265918" lon="11.66778999068092"><ele>109.5</ele><time>2026-05-02T08:16:19.923Z</time></trkpt><trkpt lat="44.25954508672044" lon="11.667617998247284"><ele>111.0</ele><time>2026-05-02T08:16:20.923Z</time></trkpt><trkpt lat="44.259498448519615" lon="11.667446768609254"><ele>113.0</ele><time>2026-05-02T08:16:21.923Z</time></trkpt><trkpt lat="44.25944773160833" lon="11.667263402173411"><ele>115.0</ele><time>2026-05-02T08:16:22.923Z</time></trkpt><trkpt lat="44.2593938060369" lon="11.66708159738654"><ele>117.0</ele><time>2026-05-02T08:16:23.923Z</time></trkpt><trkpt lat="44.259340367875225" lon="11.666885499220232"><ele>119.0</ele><time>2026-05-02T08:16:24.923Z</time></trkpt><trkpt lat="44.25928534359846" lon="11.666684159439715"><ele>119.66666666666666</ele><time>2026-05-02T08:16:25.923Z</time></trkpt><trkpt lat="44.25923024068819" lon="11.666475026646033"><ele>120.33333333333334</ele><time>2026-05-02T08:16:26.923Z</time></trkpt><trkpt lat="44.259171210311095" lon="11.666255499478668"><ele>121.0</ele><time>2026-05-02T08:16:27.923Z</time></trkpt><trkpt lat="44.259104357819886" lon="11.666019814741933"><ele>122.0</ele><time>2026-05-02T08:16:28.923Z</time></trkpt><trkpt lat="44.25904606077789" lon="11.665793308171112"><ele>123.0</ele><time>2026-05-02T08:16:29.923Z</time></trkpt><trkpt lat="44.259002023714814" lon="11.665566212991571"><ele>124.0</ele><time>2026-05-02T08:16:30.923Z</time></trkpt><trkpt lat="44.25896657248037" lon="11.66533866982308"><ele>125.0</ele><time>2026-05-02T08:16:31.923Z</time></trkpt><trkpt lat="44.25896500671773" lon="11.665100433431286"><ele>126.0</ele><time>2026-05-02T08:16:32.923Z</time></trkpt><trkpt lat="44.258966766642395" lon="11.664852649736948"><ele>127.0</ele><time>2026-05-02T08:16:33.923Z</time></trkpt><trkpt lat="44.25896050424562" lon="11.664611580749536"><ele>126.66666666666667</ele><time>2026-05-02T08:16:34.923Z</time></trkpt><trkpt lat="44.25896877708581" lon="11.664391704310662"><ele>126.33333333333334</ele><time>2026-05-02T08:16:35.923Z</time></trkpt><trkpt lat="44.25897432394104" lon="11.66418719769024"><ele>126.0</ele><time>2026-05-02T08:16:36.923Z</time></trkpt><trkpt lat="44.258969772373256" lon="11.663964236256934"><ele>126.0</ele><time>2026-05-02T08:16:37.923Z</time></trkpt><trkpt lat="44.25896811978147" lon="11.663750112888843"><ele>126.0</ele><time>2026-05-02T08:16:38.923Z</time></trkpt><trkpt lat="44.25896914787948" lon="11.663530935808687"><ele>126.0</ele><time>2026-05-02T08:16:39.923Z</time></trkpt><trkpt lat="44.258962952985925" lon="11.663327723833946"><ele>123.5</ele><time>2026-05-02T08:16:40.923Z</time></trkpt><trkpt lat="44.25894495582038" lon="11.663133790119929"><ele>121.0</ele><time>2026-05-02T08:16:41.923Z</time></trkpt><trkpt lat="44.258905679891924" lon="11.662949162896552"><ele>118.5</ele><time>2026-05-02T08:16:42.923Z</time></trkpt><trkpt lat="44.258855736001514" lon="11.662774461159445"><ele>116.0</ele><time>2026-05-02T08:16:43.923Z</time></trkpt><trkpt lat="44.25880646723656" lon="11.662614462297963"><ele>116.0</ele><time>2026-05-02T08:16:44.923Z</time></trkpt><trkpt lat="44.258777359118525" lon="11.66245871732134"><ele>116.0</ele><time>2026-05-02T08:16:45.923Z</time></trkpt><trkpt lat="44.25872751296801" lon="11.662318036295936"><ele>116.0</ele><time>2026-05-02T08:16:46.923Z</time></trkpt><trkpt lat="44.25867559412657" lon="11.662173142407529"><ele>116.0</ele><time>2026-05-02T08:16:47.923Z</time></trkpt><trkpt lat="44.25861806592987" lon="11.662026109767124"><ele>119.5</ele><time>2026-05-02T08:16:48.923Z</time></trkpt><trkpt lat="44.258547255476934" lon="11.661883255528254"><ele>123.0</ele><time>2026-05-02T08:16:49.923Z</time></trkpt><trkpt lat="44.2584532426679" lon="11.661750470596997"><ele>126.5</ele><time>2026-05-02T08:16:50.923Z</time></trkpt><trkpt lat="44.258323636596145" lon="11.661630967689371"><ele>130.0</ele><time>2026-05-02T08:16:51.923Z</time></trkpt><trkpt lat="44.25819997758642" lon="11.661516545174038"><ele>130.75</ele><time>2026-05-02T08:16:52.923Z</time></trkpt><trkpt lat="44.25807497455544" lon="11.661405350994016"><ele>131.5</ele><time>2026-05-02T08:16:53.923Z</time></trkpt><trkpt lat="44.2579653642923" lon="11.661288091348219"><ele>132.25</ele><time>2026-05-02T08:16:54.923Z</time></trkpt><trkpt lat="44.257854406265835" lon="11.661179393670814"><ele>133.0</ele><time>2026-05-02T08:16:55.923Z</time></trkpt><trkpt lat="44.25774951542061" lon="11.661073606500826"><ele>133.0</ele><time>2026-05-02T08:16:56.923Z</time></trkpt><trkpt lat="44.25764813492676" lon="11.660971073292957"><ele>133.0</ele><time>2026-05-02T08:16:57.923Z</time></trkpt><trkpt lat="44.25754917570743" lon="11.660876240389152"><ele>133.0</ele><time>2026-05-02T08:16:58.923Z</time></trkpt><trkpt lat="44.257445575059265" lon="11.66076628466882"><ele>133.0</ele><time>2026-05-02T08:16:59.923Z</time></trkpt><trkpt lat="44.257330178829704" lon="11.66065023128308"><ele>133.75</ele><time>2026-05-02T08:17:00.923Z</time></trkpt><trkpt lat="44.25721022923376" lon="11.66052342550388"><ele>134.5</ele><time>2026-05-02T08:17:01.923Z</time></trkpt><trkpt lat="44.2571012142416" lon="11.660394198394481"><ele>135.25</ele><time>2026-05-02T08:17:02.923Z</time></trkpt><trkpt lat="44.25699356032613" lon="11.660273436830266"><ele>136.0</ele><time>2026-05-02T08:17:03.923Z</time></trkpt><trkpt lat="44.25688961429129" lon="11.660145533997584"><ele>136.0</ele><time>2026-05-02T08:17:04.923Z</time></trkpt><trkpt lat="44.256782013166614" lon="11.660018911897987"><ele>136.0</ele><time>2026-05-02T08:17:05.923Z</time></trkpt><trkpt lat="44.25667945258711" lon="11.65989906913439"><ele>136.0</ele><time>2026-05-02T08:17:06.923Z</time></trkpt><trkpt lat="44.2565981256396" lon="11.659770890872691"><ele>136.0</ele><time>2026-05-02T08:17:07.923Z</time></trkpt><trkpt lat="44.25650063310535" lon="11.659649375274775"><ele>136.0</ele><time>2026-05-02T08:17:08.923Z</time></trkpt><trkpt lat="44.2563772906326" lon="11.65952496988797"><ele>136.0</ele><time>2026-05-02T08:17:09.923Z</time></trkpt><trkpt lat="44.256259148269365" lon="11.65936269389159"><ele>136.0</ele><time>2026-05-02T08:17:10.923Z</time></trkpt><trkpt lat="44.256123210108846" lon="11.659203425393791"><ele>136.0</ele><time>2026-05-02T08:17:11.923Z</time></trkpt><trkpt lat="44.25599897713739" lon="11.659034684882348"><ele>136.0</ele><time>2026-05-02T08:17:12.923Z</time></trkpt><trkpt lat="44.25585941044053" lon="11.65890063983562"><ele>136.0</ele><time>2026-05-02T08:17:13.923Z</time></trkpt><trkpt lat="44.25572921940032" lon="11.658760079097567"><ele>137.33333333333334</ele><time>2026-05-02T08:17:14.923Z</time></trkpt><trkpt lat="44.2555987006313" lon="11.65862656699268"><ele>138.66666666666666</ele><time>2026-05-02T08:17:15.923Z</time></trkpt><trkpt lat="44.255478591049936" lon="11.658495455984587"><ele>140.0</ele><time>2026-05-02T08:17:16.923Z</time></trkpt><trkpt lat="44.25535892918495" lon="11.658369068331265"><ele>140.0</ele><time>2026-05-02T08:17:17.923Z</time></trkpt><trkpt lat="44.25523840561324" lon="11.658250350180227"><ele>140.0</ele><time>2026-05-02T08:17:18.923Z</time></trkpt><trkpt lat="44.25510062530012" lon="11.658137811795887"><ele>140.0</ele><time>2026-05-02T08:17:19.923Z</time></trkpt><trkpt lat="44.25493707653539" lon="11.658039013352449"><ele>141.66666666666666</ele><time>2026-05-02T08:17:20.923Z</time></trkpt><trkpt lat="44.25475446877998" lon="11.657943447895862"><ele>143.33333333333334</ele><time>2026-05-02T08:17:21.923Z</time></trkpt><trkpt lat="44.25457341900138" lon="11.657839420982882"><ele>145.0</ele><time>2026-05-02T08:17:22.923Z</time></trkpt><trkpt lat="44.2543905036642" lon="11.657733500567076"><ele>145.0</ele><time>2026-05-02T08:17:23.923Z</time></trkpt><trkpt lat="44.2542155851855" lon="11.657632680349522"><ele>145.0</ele><time>2026-05-02T08:17:24.923Z</time></trkpt><trkpt lat="44.25406305743668" lon="11.657532980661184"><ele>145.0</ele><time>2026-05-02T08:17:25.923Z</time></trkpt><trkpt lat="44.25391955203702" lon="11.657445568417392"><ele>143.25</ele><time>2026-05-02T08:17:26.923Z</time></trkpt><trkpt lat="44.25379242487214" lon="11.657368325897368"><ele>141.5</ele><time>2026-05-02T08:17:27.923Z</time></trkpt><trkpt lat="44.25367293316334" lon="11.657311272988036"><ele>139.75</ele><time>2026-05-02T08:17:28.923Z</time></trkpt><trkpt lat="44.25356438191374" lon="11.65724805648431"><ele>138.0</ele><time>2026-05-02T08:17:29.923Z</time></trkpt><trkpt lat="44.25345557340795" lon="11.657189338029866"><ele>138.0</ele><time>2026-05-02T08:17:30.923Z</time></trkpt><trkpt lat="44.25334235339162" lon="11.657134355959517"><ele>138.0</ele><time>2026-05-02T08:17:31.923Z</time></trkpt><trkpt lat="44.25322193119803" lon="11.657092589049128"><ele>138.0</ele><time>2026-05-02T08:17:32.923Z</time></trkpt><trkpt lat="44.25309641307858" lon="11.657065512153796"><ele>138.0</ele><time>2026-05-02T08:17:33.923Z</time></trkpt><trkpt lat="44.25297269286006" lon="11.657061052162224"><ele>137.33333333333334</ele><time>2026-05-02T08:17:34.923Z</time></trkpt><trkpt lat="44.25282026256519" lon="11.65706556951119"><ele>136.66666666666669</ele><time>2026-05-02T08:17:35.923Z</time></trkpt><trkpt lat="44.252642855130425" lon="11.657086426949238"><ele>136.0</ele><time>2026-05-02T08:17:36.923Z</time></trkpt><trkpt lat="44.25245936200195" lon="11.657110583635093"><ele>135.0</ele><time>2026-05-02T08:17:37.923Z</time></trkpt><trkpt lat="44.25226111250629" lon="11.657098549094808"><ele>134.0</ele><time>2026-05-02T08:17:38.923Z</time></trkpt><trkpt lat="44.25204503234363" lon="11.65712255358866"><ele>133.0</ele><time>2026-05-02T08:17:39.923Z</time></trkpt><trkpt lat="44.25183568917559" lon="11.657157392470603"><ele>133.0</ele><time>2026-05-02T08:17:40.923Z</time></trkpt><trkpt lat="44.25164723188535" lon="11.657168801826794"><ele>133.0</ele><time>2026-05-02T08:17:41.923Z</time></trkpt><trkpt lat="44.251462243154506" lon="11.657183391311547"><ele>133.0</ele><time>2026-05-02T08:17:42.923Z</time></trkpt><trkpt lat="44.25129799540352" lon="11.6572067121269"><ele>131.5</ele><time>2026-05-02T08:17:43.923Z</time></trkpt><trkpt lat="44.251142996782946" lon="11.657222443629006"><ele>130.0</ele><time>2026-05-02T08:17:44.923Z</time></trkpt><trkpt lat="44.25100348695439" lon="11.657227178071768"><ele>128.5</ele><time>2026-05-02T08:17:45.923Z</time></trkpt><trkpt lat="44.25086743724396" lon="11.657220624631499"><ele>127.0</ele><time>2026-05-02T08:17:46.923Z</time></trkpt><trkpt lat="44.25073863714509" lon="11.657213848421197"><ele>125.0</ele><time>2026-05-02T08:17:47.923Z</time></trkpt><trkpt lat="44.25060258740519" lon="11.657159514476685"><ele>123.0</ele><time>2026-05-02T08:17:48.923Z</time></trkpt><trkpt lat="44.2504711198701" lon="11.657072232583218"><ele>121.0</ele><time>2026-05-02T08:17:49.923Z</time></trkpt><trkpt lat="44.2503378817126" lon="11.656962049687793"><ele>119.0</ele><time>2026-05-02T08:17:50.923Z</time></trkpt><trkpt lat="44.25022406082441" lon="11.656847404683932"><ele>119.0</ele><time>2026-05-02T08:17:51.923Z</time></trkpt><trkpt lat="44.25011117353248" lon="11.656734214265038"><ele>119.0</ele><time>2026-05-02T08:17:52.923Z</time></trkpt><trkpt lat="44.249999946706275" lon="11.656624818084927"><ele>119.0</ele><time>2026-05-02T08:17:53.923Z</time></trkpt><trkpt lat="44.24989157076987" lon="11.65652232700353"><ele>119.0</ele><time>2026-05-02T08:17:54.923Z</time></trkpt><trkpt lat="44.24978307700931" lon="11.65641918799728"><ele>118.0</ele><time>2026-05-02T08:17:55.923Z</time></trkpt><trkpt lat="44.24967233710497" lon="11.65630946068779"><ele>117.0</ele><time>2026-05-02T08:17:56.922Z</time></trkpt><trkpt lat="44.249563030547066" lon="11.65620061318053"><ele>116.0</ele><time>2026-05-02T08:17:57.922Z</time></trkpt><trkpt lat="44.24944933083794" lon="11.656091507123525"><ele>115.0</ele><time>2026-05-02T08:17:58.922Z</time></trkpt><trkpt lat="44.24933962312353" lon="11.655990789838667"><ele>119.5</ele><time>2026-05-02T08:17:59.921Z</time></trkpt><trkpt lat="44.24923873188429" lon="11.655889561883964"><ele>124.0</ele><time>2026-05-02T08:18:00.921Z</time></trkpt><trkpt lat="44.249139294866296" lon="11.655787344624247"><ele>128.5</ele><time>2026-05-02T08:18:01.921Z</time></trkpt><trkpt lat="44.24904499723897" lon="11.655685397964163"><ele>133.0</ele><time>2026-05-02T08:18:02.921Z</time></trkpt><trkpt lat="44.248961512303424" lon="11.655577334569605"><ele>134.75</ele><time>2026-05-02T08:18:03.921Z</time></trkpt><trkpt lat="44.24891904015528" lon="11.655436128719916"><ele>136.5</ele><time>2026-05-02T08:18:04.921Z</time></trkpt><trkpt lat="44.24888206606554" lon="11.655284458957489"><ele>138.25</ele><time>2026-05-02T08:18:05.921Z</time></trkpt><trkpt lat="44.24887193263608" lon="11.655111209996884"><ele>140.0</ele><time>2026-05-02T08:18:06.921Z</time></trkpt><trkpt lat="44.24887682020116" lon="11.654902199971971"><ele>144.33333333333331</ele><time>2026-05-02T08:18:07.921Z</time></trkpt><trkpt lat="44.24888782263704" lon="11.654647635158835"><ele>148.66666666666666</ele><time>2026-05-02T08:18:08.921Z</time></trkpt><trkpt lat="44.248900822572345" lon="11.65436593085132"><ele>153.0</ele><time>2026-05-02T08:18:09.921Z</time></trkpt><trkpt lat="44.24891396674708" lon="11.654076733802274"><ele>153.33333333333334</ele><time>2026-05-02T08:18:10.921Z</time></trkpt><trkpt lat="44.24891301497112" lon="11.653770332254691"><ele>153.66666666666669</ele><time>2026-05-02T08:18:11.921Z</time></trkpt><trkpt lat="44.248925963236566" lon="11.653473678864572"><ele>154.0</ele><time>2026-05-02T08:18:12.921Z</time></trkpt><trkpt lat="44.24895313210384" lon="11.653199293750992"><ele>154.0</ele><time>2026-05-02T08:18:13.921Z</time></trkpt><trkpt lat="44.24894611438575" lon="11.652948785524483"><ele>154.0</ele><time>2026-05-02T08:18:14.921Z</time></trkpt><trkpt lat="44.24894846565299" lon="11.65271466533745"><ele>154.0</ele><time>2026-05-02T08:18:15.921Z</time></trkpt><trkpt lat="44.24891372130506" lon="11.652488673637917"><ele>155.66666666666669</ele><time>2026-05-02T08:18:16.921Z</time></trkpt><trkpt lat="44.248840898312736" lon="11.65228510392193"><ele>157.33333333333334</ele><time>2026-05-02T08:18:17.921Z</time></trkpt><trkpt lat="44.248722915549465" lon="11.652112703426884"><ele>159.0</ele><time>2026-05-02T08:18:18.921Z</time></trkpt><trkpt lat="44.24856841961646" lon="11.651958453196846"><ele>159.66666666666666</ele><time>2026-05-02T08:18:19.921Z</time></trkpt><trkpt lat="44.24837365088651" lon="11.651839826673509"><ele>160.33333333333331</ele><time>2026-05-02T08:18:20.921Z</time></trkpt><trkpt lat="44.248170359940076" lon="11.651688004596286"><ele>161.0</ele><time>2026-05-02T08:18:21.921Z</time></trkpt><trkpt lat="44.24798127672473" lon="11.651520687359339"><ele>161.0</ele><time>2026-05-02T08:18:22.921Z</time></trkpt><trkpt lat="44.24777615892741" lon="11.651353025350145"><ele>161.0</ele><time>2026-05-02T08:18:23.921Z</time></trkpt><trkpt lat="44.24757324352573" lon="11.651177039615408"><ele>162.5</ele><time>2026-05-02T08:18:24.921Z</time></trkpt><trkpt lat="44.24736264255376" lon="11.651003701947689"><ele>164.0</ele><time>2026-05-02T08:18:25.921Z</time></trkpt><trkpt lat="44.24716558550165" lon="11.650809645607218"><ele>164.0</ele><time>2026-05-02T08:18:26.921Z</time></trkpt><trkpt lat="44.24695431066816" lon="11.650656901206569"><ele>164.0</ele><time>2026-05-02T08:18:27.921Z</time></trkpt><trkpt lat="44.24675555293265" lon="11.650487593074093"><ele>164.0</ele><time>2026-05-02T08:18:28.921Z</time></trkpt><trkpt lat="44.2465608783522" lon="11.650316347241404"><ele>164.0</ele><time>2026-05-02T08:18:29.921Z</time></trkpt><trkpt lat="44.24636364173893" lon="11.650143687726358"><ele>163.5</ele><time>2026-05-02T08:18:30.921Z</time></trkpt><trkpt lat="44.24616318788763" lon="11.649972527892285"><ele>163.0</ele><time>2026-05-02T08:18:31.92Z</time></trkpt><trkpt lat="44.245966475962184" lon="11.649804803252614"><ele>163.0</ele><time>2026-05-02T08:18:32.92Z</time></trkpt><trkpt lat="44.24577711858861" lon="11.64964059115989"><ele>163.0</ele><time>2026-05-02T08:18:33.92Z</time></trkpt><trkpt lat="44.24560481731427" lon="11.649448021636587"><ele>163.0</ele><time>2026-05-02T08:18:34.92Z</time></trkpt><trkpt lat="44.24542829664944" lon="11.649281519770076"><ele>163.0</ele><time>2026-05-02T08:18:35.92Z</time></trkpt><trkpt lat="44.24528486663386" lon="11.64907770197697"><ele>163.0</ele><time>2026-05-02T08:18:36.92Z</time></trkpt><trkpt lat="44.24516576334928" lon="11.648853664242809"><ele>163.0</ele><time>2026-05-02T08:18:37.92Z</time></trkpt><trkpt lat="44.24507852314051" lon="11.648608201181283"><ele>164.0</ele><time>2026-05-02T08:18:38.92Z</time></trkpt><trkpt lat="44.24503554536663" lon="11.648328913840556"><ele>165.0</ele><time>2026-05-02T08:18:39.92Z</time></trkpt><trkpt lat="44.24499729443674" lon="11.648041266958428"><ele>166.0</ele><time>2026-05-02T08:18:40.92Z</time></trkpt><trkpt lat="44.24494684548336" lon="11.647782724596755"><ele>166.66666666666669</ele><time>2026-05-02T08:18:41.92Z</time></trkpt><trkpt lat="44.24491826140286" lon="11.64753451339363"><ele>167.33333333333334</ele><time>2026-05-02T08:18:42.92Z</time></trkpt><trkpt lat="44.24488130352026" lon="11.647304838600066"><ele>168.0</ele><time>2026-05-02T08:18:43.92Z</time></trkpt><trkpt lat="44.24482654018686" lon="11.647082351922181"><ele>168.33333333333334</ele><time>2026-05-02T08:18:44.92Z</time></trkpt><trkpt lat="44.24475505711609" lon="11.646865876740753"><ele>168.66666666666669</ele><time>2026-05-02T08:18:45.92Z</time></trkpt><trkpt lat="44.24466013365759" lon="11.646667033222005"><ele>169.0</ele><time>2026-05-02T08:18:46.92Z</time></trkpt><trkpt lat="44.24454680086122" lon="11.646488071138624"><ele>169.0</ele><time>2026-05-02T08:18:47.92Z</time></trkpt><trkpt lat="44.24441930929636" lon="11.646341476863777"><ele>169.0</ele><time>2026-05-02T08:18:48.92Z</time></trkpt><trkpt lat="44.24428931271649" lon="11.646216716156959"><ele>169.0</ele><time>2026-05-02T08:18:49.92Z</time></trkpt><trkpt lat="44.24416226691565" lon="11.64611814521385"><ele>169.0</ele><time>2026-05-02T08:18:50.92Z</time></trkpt><trkpt lat="44.244047002020984" lon="11.64603080069846"><ele>169.0</ele><time>2026-05-02T08:18:51.92Z</time></trkpt><trkpt lat="44.24393776899518" lon="11.645961221984447"><ele>169.0</ele><time>2026-05-02T08:18:52.92Z</time></trkpt><trkpt lat="44.24383560761833" lon="11.645909855926998"><ele>169.0</ele><time>2026-05-02T08:18:53.92Z</time></trkpt><trkpt lat="44.24372948490132" lon="11.645844867896912"><ele>169.0</ele><time>2026-05-02T08:18:54.92Z</time></trkpt><trkpt lat="44.243625741303106" lon="11.645735600773031"><ele>169.0</ele><time>2026-05-02T08:18:55.92Z</time></trkpt><trkpt lat="44.24351073348828" lon="11.645617362029187"><ele>169.0</ele><time>2026-05-02T08:18:56.92Z</time></trkpt><trkpt lat="44.24338399759752" lon="11.64548255470582"><ele>169.0</ele><time>2026-05-02T08:18:57.92Z</time></trkpt><trkpt lat="44.24326265514585" lon="11.645323898569364"><ele>170.33333333333334</ele><time>2026-05-02T08:18:58.92Z</time></trkpt><trkpt lat="44.24312508568905" lon="11.645173520974915"><ele>171.66666666666666</ele><time>2026-05-02T08:18:59.92Z</time></trkpt><trkpt lat="44.242967519713815" lon="11.645030228388276"><ele>173.0</ele><time>2026-05-02T08:19:00.92Z</time></trkpt><trkpt lat="44.242807135868404" lon="11.644886197935199"><ele>173.0</ele><time>2026-05-02T08:19:01.92Z</time></trkpt><trkpt lat="44.24264196654496" lon="11.644739437936419"><ele>173.0</ele><time>2026-05-02T08:19:02.92Z</time></trkpt><trkpt lat="44.242475788568946" lon="11.644589724059289"><ele>173.0</ele><time>2026-05-02T08:19:03.92Z</time></trkpt><trkpt lat="44.24231612776837" lon="11.644444540992348"><ele>174.33333333333331</ele><time>2026-05-02T08:19:04.92Z</time></trkpt><trkpt lat="44.242168756994566" lon="11.644311157757807"><ele>175.66666666666666</ele><time>2026-05-02T08:19:05.92Z</time></trkpt><trkpt lat="44.24202922403469" lon="11.64418390602085"><ele>177.0</ele><time>2026-05-02T08:19:06.92Z</time></trkpt><trkpt lat="44.241903525670736" lon="11.644060598832487"><ele>177.0</ele><time>2026-05-02T08:19:07.92Z</time></trkpt><trkpt lat="44.24178210063484" lon="11.64395400083472"><ele>177.0</ele><time>2026-05-02T08:19:08.92Z</time></trkpt><trkpt lat="44.24166445485574" lon="11.64385093450514"><ele>177.0</ele><time>2026-05-02T08:19:09.92Z</time></trkpt><trkpt lat="44.24154519159481" lon="11.643743011937806"><ele>177.0</ele><time>2026-05-02T08:19:10.92Z</time></trkpt><trkpt lat="44.24142410258599" lon="11.643625066229855"><ele>177.33333333333334</ele><time>2026-05-02T08:19:11.92Z</time></trkpt><trkpt lat="44.2412931449101" lon="11.643513944210722"><ele>177.66666666666669</ele><time>2026-05-02T08:19:12.92Z</time></trkpt><trkpt lat="44.24116331335675" lon="11.643387055577534"><ele>178.0</ele><time>2026-05-02T08:19:13.92Z</time></trkpt><trkpt lat="44.24103065936813" lon="11.64326408110015"><ele>178.0</ele><time>2026-05-02T08:19:14.92Z</time></trkpt><trkpt lat="44.240895403302666" lon="11.643150360990937"><ele>178.0</ele><time>2026-05-02T08:19:15.92Z</time></trkpt><trkpt lat="44.240767130668324" lon="11.643034468207057"><ele>178.0</ele><time>2026-05-02T08:19:16.92Z</time></trkpt><trkpt lat="44.24064405848978" lon="11.642927083084773"><ele>177.75</ele><time>2026-05-02T08:19:17.92Z</time></trkpt><trkpt lat="44.240543571680796" lon="11.642797565626333"><ele>177.5</ele><time>2026-05-02T08:19:18.92Z</time></trkpt><trkpt lat="44.24043720098316" lon="11.642670315077858"><ele>177.25</ele><time>2026-05-02T08:19:19.92Z</time></trkpt><trkpt lat="44.24033813700236" lon="11.64253145786477"><ele>177.0</ele><time>2026-05-02T08:19:20.92Z</time></trkpt><trkpt lat="44.24024990402112" lon="11.64238488679101"><ele>177.0</ele><time>2026-05-02T08:19:21.92Z</time></trkpt><trkpt lat="44.24018401126812" lon="11.642226684185394"><ele>177.0</ele><time>2026-05-02T08:19:22.92Z</time></trkpt><trkpt lat="44.24011987380034" lon="11.642074305738353"><ele>177.0</ele><time>2026-05-02T08:19:23.92Z</time></trkpt><trkpt lat="44.240064631162355" lon="11.64193925501635"><ele>177.0</ele><time>2026-05-02T08:19:24.92Z</time></trkpt><trkpt lat="44.240023032724366" lon="11.641844154582834"><ele>177.0</ele><time>2026-05-02T08:19:25.92Z</time></trkpt><trkpt lat="44.23997468644657" lon="11.6417749275127"><ele>176.8</ele><time>2026-05-02T08:19:26.92Z</time></trkpt><trkpt lat="44.2399235582466" lon="11.641637420717108"><ele>176.6</ele><time>2026-05-02T08:19:28.92Z</time></trkpt><trkpt lat="44.23986620753582" lon="11.641527426830804"><ele>176.4</ele><time>2026-05-02T08:19:30.92Z</time></trkpt><trkpt lat="44.23979863675493" lon="11.641434868919443"><ele>176.20000000000002</ele><time>2026-05-02T08:19:32.92Z</time></trkpt><trkpt lat="44.239767786509155" lon="11.641333594700573"><ele>176.0</ele><time>2026-05-02T08:19:34.921Z</time></trkpt><trkpt lat="44.23970810476254" lon="11.641229556211092"><ele>178.0</ele><time>2026-05-02T08:19:36.925Z</time></trkpt><trkpt lat="44.23964278026298" lon="11.641124024552223"><ele>180.0</ele><time>2026-05-02T08:19:38.929Z</time></trkpt><trkpt lat="44.23957459035193" lon="11.640993797963823"><ele>182.0</ele><time>2026-05-02T08:19:40.932Z</time></trkpt><trkpt lat="44.239535988107946" lon="11.640922644646691"><ele>184.0</ele><time>2026-05-02T08:19:41.933Z</time></trkpt><trkpt lat="44.23945938962658" lon="11.640791408386553"><ele>186.0</ele><time>2026-05-02T08:19:43.936Z</time></trkpt><trkpt lat="44.2394163634828" lon="11.640714934290852"><ele>186.0</ele><time>2026-05-02T08:19:44.937Z</time></trkpt><trkpt lat="44.23936658926579" lon="11.640632181750263"><ele>186.0</ele><time>2026-05-02T08:19:45.938Z</time></trkpt><trkpt lat="44.23930546806399" lon="11.64054210196257"><ele>186.0</ele><time>2026-05-02T08:19:46.939Z</time></trkpt><trkpt lat="44.23923873765247" lon="11.64044527874488"><ele>186.0</ele><time>2026-05-02T08:19:47.94Z</time></trkpt><trkpt lat="44.23916491860185" lon="11.640357883303686"><ele>186.0</ele><time>2026-05-02T08:19:48.941Z</time></trkpt><trkpt lat="44.239084210571484" lon="11.640277878629108"><ele>186.20000000000002</ele><time>2026-05-02T08:19:49.942Z</time></trkpt><trkpt lat="44.2390024491815" lon="11.640204176620504"><ele>186.4</ele><time>2026-05-02T08:19:50.942Z</time></trkpt><trkpt lat="44.23892929252935" lon="11.640139747945888"><ele>186.6</ele><time>2026-05-02T08:19:51.943Z</time></trkpt><trkpt lat="44.23887168591717" lon="11.640084975879743"><ele>186.8</ele><time>2026-05-02T08:19:52.944Z</time></trkpt><trkpt lat="44.23878397113922" lon="11.640008853368041"><ele>187.0</ele><time>2026-05-02T08:19:54.945Z</time></trkpt><trkpt lat="44.23869757449771" lon="11.639939903165487"><ele>187.0</ele><time>2026-05-02T08:19:56.946Z</time></trkpt><trkpt lat="44.238611879429946" lon="11.639860767046777"><ele>187.0</ele><time>2026-05-02T08:19:58.947Z</time></trkpt><trkpt lat="44.23853001007872" lon="11.63976566088798"><ele>187.0</ele><time>2026-05-02T08:20:00.948Z</time></trkpt><trkpt lat="44.238428530695984" lon="11.639665196328448"><ele>187.0</ele><time>2026-05-02T08:20:02.948Z</time></trkpt><trkpt lat="44.238360728593484" lon="11.63960798118304"><ele>187.0</ele><time>2026-05-02T08:20:03.948Z</time></trkpt><trkpt lat="44.23828002531693" lon="11.639549069945618"><ele>187.0</ele><time>2026-05-02T08:20:04.949Z</time></trkpt><trkpt lat="44.23818464922388" lon="11.63949706450028"><ele>187.0</ele><time>2026-05-02T08:20:05.949Z</time></trkpt><trkpt lat="44.23807261194633" lon="11.639470346849336"><ele>187.0</ele><time>2026-05-02T08:20:06.949Z</time></trkpt><trkpt lat="44.23794093910762" lon="11.639449752368058"><ele>187.0</ele><time>2026-05-02T08:20:07.949Z</time></trkpt><trkpt lat="44.2377984274997" lon="11.639431478599656"><ele>185.75</ele><time>2026-05-02T08:20:08.949Z</time></trkpt><trkpt lat="44.23765452981792" lon="11.639411362242898"><ele>184.5</ele><time>2026-05-02T08:20:09.95Z</time></trkpt><trkpt lat="44.23752551340694" lon="11.639384187795946"><ele>183.25</ele><time>2026-05-02T08:20:10.951Z</time></trkpt><trkpt lat="44.23740396062801" lon="11.639338486467727"><ele>182.0</ele><time>2026-05-02T08:20:11.95Z</time></trkpt><trkpt lat="44.23729469272693" lon="11.639266983660592"><ele>182.0</ele><time>2026-05-02T08:20:12.951Z</time></trkpt><trkpt lat="44.2371830527921" lon="11.639169674630553"><ele>182.0</ele><time>2026-05-02T08:20:13.951Z</time></trkpt><trkpt lat="44.23706017091483" lon="11.639072167342867"><ele>182.0</ele><time>2026-05-02T08:20:14.95Z</time></trkpt><trkpt lat="44.23695128313624" lon="11.638916473984878"><ele>182.0</ele><time>2026-05-02T08:20:15.951Z</time></trkpt><trkpt lat="44.23682991367866" lon="11.638775261795837"><ele>182.66666666666666</ele><time>2026-05-02T08:20:16.951Z</time></trkpt><trkpt lat="44.23669655607147" lon="11.638620530802251"><ele>183.33333333333334</ele><time>2026-05-02T08:20:17.951Z</time></trkpt><trkpt lat="44.23655156763365" lon="11.638467465583902"><ele>184.0</ele><time>2026-05-02T08:20:18.951Z</time></trkpt><trkpt lat="44.23639893129668" lon="11.638318908641663"><ele>184.0</ele><time>2026-05-02T08:20:19.951Z</time></trkpt><trkpt lat="44.236252644596156" lon="11.638166522597936"><ele>184.0</ele><time>2026-05-02T08:20:20.951Z</time></trkpt><trkpt lat="44.236108659253475" lon="11.638004248818389"><ele>184.0</ele><time>2026-05-02T08:20:21.952Z</time></trkpt><trkpt lat="44.23595937497745" lon="11.637852314308777"><ele>184.33333333333334</ele><time>2026-05-02T08:20:22.952Z</time></trkpt><trkpt lat="44.235806297968935" lon="11.637696365347585"><ele>184.66666666666666</ele><time>2026-05-02T08:20:23.952Z</time></trkpt><trkpt lat="44.23565221693394" lon="11.63752628808645"><ele>185.0</ele><time>2026-05-02T08:20:24.952Z</time></trkpt><trkpt lat="44.23548543788244" lon="11.637354059182972"><ele>185.0</ele><time>2026-05-02T08:20:25.952Z</time></trkpt><trkpt lat="44.23530567811511" lon="11.637178235383594"><ele>185.0</ele><time>2026-05-02T08:20:26.952Z</time></trkpt><trkpt lat="44.23512654617207" lon="11.636997083521964"><ele>185.0</ele><time>2026-05-02T08:20:27.952Z</time></trkpt><trkpt lat="44.23494592186558" lon="11.636817349707192"><ele>186.0</ele><time>2026-05-02T08:20:28.952Z</time></trkpt><trkpt lat="44.23477394268452" lon="11.63664544281243"><ele>187.0</ele><time>2026-05-02T08:20:29.952Z</time></trkpt><trkpt lat="44.23460789847497" lon="11.636488716503555"><ele>188.0</ele><time>2026-05-02T08:20:30.952Z</time></trkpt><trkpt lat="44.23445735989904" lon="11.636310907558185"><ele>188.0</ele><time>2026-05-02T08:20:31.952Z</time></trkpt><trkpt lat="44.23429631932963" lon="11.636154375609314"><ele>188.0</ele><time>2026-05-02T08:20:32.952Z</time></trkpt><trkpt lat="44.23412953949311" lon="11.635998021514256"><ele>188.0</ele><time>2026-05-02T08:20:33.952Z</time></trkpt><trkpt lat="44.23396423588005" lon="11.63582716102416"><ele>188.66666666666666</ele><time>2026-05-02T08:20:34.953Z</time></trkpt><trkpt lat="44.23379752741814" lon="11.635651192401577"><ele>189.33333333333334</ele><time>2026-05-02T08:20:35.953Z</time></trkpt><trkpt lat="44.23363058462586" lon="11.635472665651655"><ele>190.0</ele><time>2026-05-02T08:20:36.953Z</time></trkpt><trkpt lat="44.233470049109414" lon="11.635303272989312"><ele>190.0</ele><time>2026-05-02T08:20:37.953Z</time></trkpt><trkpt lat="44.233319149442906" lon="11.635143299792288"><ele>190.0</ele><time>2026-05-02T08:20:38.953Z</time></trkpt><trkpt lat="44.23317362557131" lon="11.634987185218389"><ele>190.0</ele><time>2026-05-02T08:20:39.953Z</time></trkpt><trkpt lat="44.233026980535676" lon="11.63483793320158"><ele>190.0</ele><time>2026-05-02T08:20:40.953Z</time></trkpt><trkpt lat="44.23288268695098" lon="11.63467746724026"><ele>190.0</ele><time>2026-05-02T08:20:41.953Z</time></trkpt><trkpt lat="44.23273700660606" lon="11.634532509634619"><ele>190.0</ele><time>2026-05-02T08:20:42.953Z</time></trkpt><trkpt lat="44.23259977304704" lon="11.634394269169695"><ele>191.0</ele><time>2026-05-02T08:20:43.953Z</time></trkpt><trkpt lat="44.23246677433191" lon="11.634256278403138"><ele>192.0</ele><time>2026-05-02T08:20:44.953Z</time></trkpt><trkpt lat="44.23233620101861" lon="11.634117600637845"><ele>193.0</ele><time>2026-05-02T08:20:45.953Z</time></trkpt><trkpt lat="44.23219982993648" lon="11.633978206660052"><ele>193.0</ele><time>2026-05-02T08:20:46.953Z</time></trkpt><trkpt lat="44.232064558248105" lon="11.633833491180843"><ele>193.0</ele><time>2026-05-02T08:20:47.953Z</time></trkpt><trkpt lat="44.2319249594795" lon="11.633690168161372"><ele>193.0</ele><time>2026-05-02T08:20:48.953Z</time></trkpt><trkpt lat="44.2317878774248" lon="11.633538707403032"><ele>192.66666666666666</ele><time>2026-05-02T08:20:49.953Z</time></trkpt><trkpt lat="44.23164845540891" lon="11.633389384865785"><ele>192.33333333333331</ele><time>2026-05-02T08:20:50.953Z</time></trkpt><trkpt lat="44.23151220041564" lon="11.633240050249594"><ele>192.0</ele><time>2026-05-02T08:20:51.953Z</time></trkpt><trkpt lat="44.231375998705246" lon="11.633096638998364"><ele>192.0</ele><time>2026-05-02T08:20:52.953Z</time></trkpt><trkpt lat="44.231237423858374" lon="11.632953361376618"><ele>192.0</ele><time>2026-05-02T08:20:53.953Z</time></trkpt><trkpt lat="44.23110470963125" lon="11.632806700945816"><ele>192.0</ele><time>2026-05-02T08:20:54.953Z</time></trkpt><trkpt lat="44.23096590807507" lon="11.63266184212134"><ele>193.0</ele><time>2026-05-02T08:20:55.953Z</time></trkpt><trkpt lat="44.2308304433451" lon="11.632513279320548"><ele>194.0</ele><time>2026-05-02T08:20:56.953Z</time></trkpt><trkpt lat="44.23069483956973" lon="11.632364370172972"><ele>195.0</ele><time>2026-05-02T08:20:57.953Z</time></trkpt><trkpt lat="44.23055720155327" lon="11.632213377123492"><ele>194.0</ele><time>2026-05-02T08:20:58.953Z</time></trkpt><trkpt lat="44.23042120882357" lon="11.632066102686629"><ele>193.0</ele><time>2026-05-02T08:20:59.953Z</time></trkpt><trkpt lat="44.2302837666431" lon="11.631916755933771"><ele>192.0</ele><time>2026-05-02T08:21:00.953Z</time></trkpt><trkpt lat="44.2301413980986" lon="11.631768173801275"><ele>192.0</ele><time>2026-05-02T08:21:01.953Z</time></trkpt><trkpt lat="44.23000547353065" lon="11.631623416699288"><ele>192.0</ele><time>2026-05-02T08:21:02.953Z</time></trkpt><trkpt lat="44.229877239874476" lon="11.631483621261367"><ele>192.0</ele><time>2026-05-02T08:21:03.953Z</time></trkpt><trkpt lat="44.22974905809686" lon="11.631344325546472"><ele>192.0</ele><time>2026-05-02T08:21:04.953Z</time></trkpt><trkpt lat="44.22962087939515" lon="11.631205723173082"><ele>192.0</ele><time>2026-05-02T08:21:05.953Z</time></trkpt><trkpt lat="44.22949678919078" lon="11.631075660049863"><ele>192.0</ele><time>2026-05-02T08:21:06.953Z</time></trkpt><trkpt lat="44.229379497934836" lon="11.630952208280767"><ele>192.5</ele><time>2026-05-02T08:21:07.953Z</time></trkpt><trkpt lat="44.229269447642636" lon="11.630840913567717"><ele>193.0</ele><time>2026-05-02T08:21:08.953Z</time></trkpt><trkpt lat="44.22916802387496" lon="11.630729884876517"><ele>193.5</ele><time>2026-05-02T08:21:09.953Z</time></trkpt><trkpt lat="44.229070690353" lon="11.630622228934463"><ele>194.0</ele><time>2026-05-02T08:21:10.953Z</time></trkpt><trkpt lat="44.22897308535049" lon="11.630515420390166"><ele>193.75</ele><time>2026-05-02T08:21:11.953Z</time></trkpt><trkpt lat="44.22886950732644" lon="11.630402677806542"><ele>193.5</ele><time>2026-05-02T08:21:12.953Z</time></trkpt><trkpt lat="44.228764014673885" lon="11.630290572865274"><ele>193.25</ele><time>2026-05-02T08:21:13.953Z</time></trkpt><trkpt lat="44.228651885356804" lon="11.630174874971472"><ele>193.0</ele><time>2026-05-02T08:21:14.953Z</time></trkpt><trkpt lat="44.22854572177842" lon="11.630063876287682"><ele>193.0</ele><time>2026-05-02T08:21:15.953Z</time></trkpt><trkpt lat="44.228440897579695" lon="11.629959536902588"><ele>193.0</ele><time>2026-05-02T08:21:16.953Z</time></trkpt><trkpt lat="44.22834250586521" lon="11.629856417769522"><ele>193.0</ele><time>2026-05-02T08:21:17.953Z</time></trkpt><trkpt lat="44.22824555391637" lon="11.629755627996893"><ele>193.0</ele><time>2026-05-02T08:21:18.953Z</time></trkpt><trkpt lat="44.22814849098624" lon="11.629655679785927"><ele>193.25</ele><time>2026-05-02T08:21:19.953Z</time></trkpt><trkpt lat="44.22805092915146" lon="11.629551234559447"><ele>193.5</ele><time>2026-05-02T08:21:20.953Z</time></trkpt><trkpt lat="44.22794930358934" lon="11.629440762508223"><ele>193.75</ele><time>2026-05-02T08:21:21.953Z</time></trkpt><trkpt lat="44.22784674741443" lon="11.62932942403022"><ele>194.0</ele><time>2026-05-02T08:21:22.953Z</time></trkpt><trkpt lat="44.227744510802346" lon="11.629214183864818"><ele>194.5</ele><time>2026-05-02T08:21:23.953Z</time></trkpt><trkpt lat="44.22764387171229" lon="11.629112411890079"><ele>195.0</ele><time>2026-05-02T08:21:24.953Z</time></trkpt><trkpt lat="44.227549217094875" lon="11.62901797390979"><ele>195.5</ele><time>2026-05-02T08:21:25.953Z</time></trkpt><trkpt lat="44.227477621955444" lon="11.628909306599414"><ele>196.0</ele><time>2026-05-02T08:21:26.953Z</time></trkpt><trkpt lat="44.227393582087444" lon="11.628823207951916"><ele>196.0</ele><time>2026-05-02T08:21:27.953Z</time></trkpt><trkpt lat="44.22731276002925" lon="11.628733888500042"><ele>196.0</ele><time>2026-05-02T08:21:28.953Z</time></trkpt><trkpt lat="44.22722776521028" lon="11.628641012009"><ele>196.0</ele><time>2026-05-02T08:21:29.953Z</time></trkpt><trkpt lat="44.227145739396946" lon="11.628551377160463"><ele>196.0</ele><time>2026-05-02T08:21:30.953Z</time></trkpt><trkpt lat="44.22705775012844" lon="11.628460777062852"><ele>196.0</ele><time>2026-05-02T08:21:31.953Z</time></trkpt><trkpt lat="44.226966980130214" lon="11.62836831291268"><ele>196.25</ele><time>2026-05-02T08:21:32.953Z</time></trkpt><trkpt lat="44.22687697548475" lon="11.628274827274646"><ele>196.5</ele><time>2026-05-02T08:21:33.953Z</time></trkpt><trkpt lat="44.22678675311557" lon="11.628175661464109"><ele>196.75</ele><time>2026-05-02T08:21:34.953Z</time></trkpt><trkpt lat="44.22669318254905" lon="11.628077673245992"><ele>197.0</ele><time>2026-05-02T08:21:35.953Z</time></trkpt><trkpt lat="44.22660196884624" lon="11.627971522930018"><ele>197.0</ele><time>2026-05-02T08:21:36.953Z</time></trkpt><trkpt lat="44.22651629593674" lon="11.62786127511909"><ele>197.0</ele><time>2026-05-02T08:21:37.953Z</time></trkpt><trkpt lat="44.22642976633468" lon="11.627741676032894"><ele>197.0</ele><time>2026-05-02T08:21:38.953Z</time></trkpt><trkpt lat="44.226338197273726" lon="11.627634702239872"><ele>197.0</ele><time>2026-05-02T08:21:39.953Z</time></trkpt><trkpt lat="44.22624721227351" lon="11.627514244839988"><ele>196.5</ele><time>2026-05-02T08:21:40.953Z</time></trkpt><trkpt lat="44.22615914488795" lon="11.627402897668828"><ele>196.0</ele><time>2026-05-02T08:21:41.953Z</time></trkpt><trkpt lat="44.22607388465324" lon="11.62729584947086"><ele>195.5</ele><time>2026-05-02T08:21:42.953Z</time></trkpt><trkpt lat="44.22598579439078" lon="11.627185458999111"><ele>195.0</ele><time>2026-05-02T08:21:43.953Z</time></trkpt><trkpt lat="44.22590296563621" lon="11.627075217182096"><ele>194.75</ele><time>2026-05-02T08:21:44.953Z</time></trkpt><trkpt lat="44.22581904779946" lon="11.626960527056287"><ele>194.5</ele><time>2026-05-02T08:21:45.953Z</time></trkpt><trkpt lat="44.22573283252675" lon="11.626853510141752"><ele>194.25</ele><time>2026-05-02T08:21:46.953Z</time></trkpt><trkpt lat="44.225638967333126" lon="11.626740069797806"><ele>194.0</ele><time>2026-05-02T08:21:47.953Z</time></trkpt><trkpt lat="44.22555348277897" lon="11.62662664854844"><ele>194.0</ele><time>2026-05-02T08:21:48.953Z</time></trkpt><trkpt lat="44.22546259325214" lon="11.626519044597003"><ele>194.0</ele><time>2026-05-02T08:21:49.953Z</time></trkpt><trkpt lat="44.22537247883947" lon="11.626407502079735"><ele>194.0</ele><time>2026-05-02T08:21:50.953Z</time></trkpt><trkpt lat="44.22528463296728" lon="11.626297594608447"><ele>194.0</ele><time>2026-05-02T08:21:51.953Z</time></trkpt><trkpt lat="44.225193312229074" lon="11.626199161686651"><ele>194.6</ele><time>2026-05-02T08:21:52.953Z</time></trkpt><trkpt lat="44.22512492321814" lon="11.626090411163624"><ele>195.2</ele><time>2026-05-02T08:21:53.953Z</time></trkpt><trkpt lat="44.22506867262373" lon="11.626018717619704"><ele>195.79999999999998</ele><time>2026-05-02T08:21:54.953Z</time></trkpt><trkpt lat="44.22500368832154" lon="11.625935863144312"><ele>196.39999999999998</ele><time>2026-05-02T08:21:56.953Z</time></trkpt><trkpt lat="44.22493411100018" lon="11.625846615604935"><ele>197.0</ele><time>2026-05-02T08:22:02.953Z</time></trkpt><trkpt lat="44.2248289340658" lon="11.625711704192266"><ele>196.8</ele><time>2026-05-02T08:22:04.953Z</time></trkpt><trkpt lat="44.22476708651173" lon="11.625632368329802"><ele>196.6</ele><time>2026-05-02T08:22:05.953Z</time></trkpt><trkpt lat="44.22469864844534" lon="11.625543154573647"><ele>196.4</ele><time>2026-05-02T08:22:06.953Z</time></trkpt><trkpt lat="44.22462092279438" lon="11.625442513668977"><ele>196.20000000000002</ele><time>2026-05-02T08:22:07.953Z</time></trkpt><trkpt lat="44.224534995213375" lon="11.625334072231592"><ele>196.0</ele><time>2026-05-02T08:22:08.953Z</time></trkpt><trkpt lat="44.22445183068283" lon="11.625222663414242"><ele>197.0</ele><time>2026-05-02T08:22:09.952Z</time></trkpt><trkpt lat="44.22437812888583" lon="11.625103548738066"><ele>198.0</ele><time>2026-05-02T08:22:10.952Z</time></trkpt><trkpt lat="44.224299879471836" lon="11.624967625093053"><ele>199.0</ele><time>2026-05-02T08:22:11.953Z</time></trkpt><trkpt lat="44.22422610670805" lon="11.624836561937068"><ele>200.0</ele><time>2026-05-02T08:22:12.952Z</time></trkpt><trkpt lat="44.22416228235437" lon="11.624721045319722"><ele>200.00000000000003</ele><time>2026-05-02T08:22:13.952Z</time></trkpt><trkpt lat="44.224107087909665" lon="11.624620986842174"><ele>200.0</ele><time>2026-05-02T08:22:14.952Z</time></trkpt><trkpt lat="44.22406696161868" lon="11.624548117806235"><ele>200.0</ele><time>2026-05-02T08:22:15.952Z</time></trkpt><trkpt lat="44.224024730057906" lon="11.624470680598684"><ele>200.0</ele><time>2026-05-02T08:22:18.952Z</time></trkpt><trkpt lat="44.22396860719806" lon="11.624367771705858"><ele>200.00000000000003</ele><time>2026-05-02T08:22:22.952Z</time></trkpt><trkpt lat="44.223920208213976" lon="11.624279025805691"><ele>200.0</ele><time>2026-05-02T08:22:24.952Z</time></trkpt><trkpt lat="44.22388033788217" lon="11.624206722109113"><ele>200.16666666666669</ele><time>2026-05-02T08:22:25.952Z</time></trkpt><trkpt lat="44.22384071485038" lon="11.624134589253858"><ele>200.33333333333334</ele><time>2026-05-02T08:22:26.952Z</time></trkpt><trkpt lat="44.22379741125904" lon="11.624055647426278"><ele>200.5</ele><time>2026-05-02T08:22:27.952Z</time></trkpt><trkpt lat="44.22375154791544" lon="11.623972039460881"><ele>200.66666666666669</ele><time>2026-05-02T08:22:28.952Z</time></trkpt><trkpt lat="44.22370266009219" lon="11.623881064128287"><ele>200.83333333333334</ele><time>2026-05-02T08:22:29.952Z</time></trkpt><trkpt lat="44.22365053400035" lon="11.623784164849365"><ele>201.0</ele><time>2026-05-02T08:22:30.952Z</time></trkpt><trkpt lat="44.22359648957668" lon="11.62368517934423"><ele>201.0</ele><time>2026-05-02T08:22:31.952Z</time></trkpt><trkpt lat="44.223540697076075" lon="11.623582991695246"><ele>201.0</ele><time>2026-05-02T08:22:32.952Z</time></trkpt><trkpt lat="44.22348083008797" lon="11.623474904255836"><ele>201.0</ele><time>2026-05-02T08:22:33.952Z</time></trkpt><trkpt lat="44.223422422328525" lon="11.623370424776843"><ele>201.0</ele><time>2026-05-02T08:22:34.952Z</time></trkpt><trkpt lat="44.22336560394257" lon="11.623268633334158"><ele>201.0</ele><time>2026-05-02T08:22:35.952Z</time></trkpt><trkpt lat="44.223311021116906" lon="11.623170846950067"><ele>201.0</ele><time>2026-05-02T08:22:36.952Z</time></trkpt><trkpt lat="44.22325904266942" lon="11.623077726345047"><ele>201.0</ele><time>2026-05-02T08:22:37.952Z</time></trkpt><trkpt lat="44.22319278882676" lon="11.622992646484047"><ele>201.0</ele><time>2026-05-02T08:22:38.952Z</time></trkpt><trkpt lat="44.22313999363821" lon="11.622899564974132"><ele>201.0</ele><time>2026-05-02T08:22:39.952Z</time></trkpt><trkpt lat="44.22308764667848" lon="11.622804530919447"><ele>201.0</ele><time>2026-05-02T08:22:40.952Z</time></trkpt><trkpt lat="44.22303617482238" lon="11.622710013508676"><ele>201.0</ele><time>2026-05-02T08:22:41.952Z</time></trkpt><trkpt lat="44.223000601474745" lon="11.622605263218748"><ele>201.14285714285714</ele><time>2026-05-02T08:22:42.952Z</time></trkpt><trkpt lat="44.22295445406777" lon="11.622519325820102"><ele>201.2857142857143</ele><time>2026-05-02T08:22:43.952Z</time></trkpt><trkpt lat="44.22291007834387" lon="11.622437023254289"><ele>201.42857142857144</ele><time>2026-05-02T08:22:44.952Z</time></trkpt><trkpt lat="44.222867952894006" lon="11.622358894337085"><ele>201.57142857142856</ele><time>2026-05-02T08:22:45.952Z</time></trkpt><trkpt lat="44.22282862751761" lon="11.622285958568101"><ele>201.71428571428572</ele><time>2026-05-02T08:22:46.952Z</time></trkpt><trkpt lat="44.22278777701757" lon="11.622210194227574"><ele>201.85714285714286</ele><time>2026-05-02T08:22:47.952Z</time></trkpt><trkpt lat="44.22274053342559" lon="11.62212978260769"><ele>202.0</ele><time>2026-05-02T08:22:48.952Z</time></trkpt><trkpt lat="44.222695881941775" lon="11.622042670281314"><ele>202.33333333333331</ele><time>2026-05-02T08:22:49.952Z</time></trkpt><trkpt lat="44.222647723000264" lon="11.621950535631473"><ele>202.66666666666666</ele><time>2026-05-02T08:22:50.952Z</time></trkpt><trkpt lat="44.222596373128354" lon="11.621853702244294"><ele>203.0</ele><time>2026-05-02T08:22:51.952Z</time></trkpt><trkpt lat="44.2225507005075" lon="11.621769849633129"><ele>203.33333333333331</ele><time>2026-05-02T08:22:52.952Z</time></trkpt><trkpt lat="44.222507811831164" lon="11.621688783855998"><ele>203.66666666666666</ele><time>2026-05-02T08:22:53.952Z</time></trkpt><trkpt lat="44.22246530066622" lon="11.621608970525484"><ele>204.0</ele><time>2026-05-02T08:22:54.952Z</time></trkpt><trkpt lat="44.22241194251723" lon="11.621533081719399"><ele>204.0</ele><time>2026-05-02T08:22:55.952Z</time></trkpt><trkpt lat="44.22236867932942" lon="11.621433612976382"><ele>204.0</ele><time>2026-05-02T08:22:56.952Z</time></trkpt><trkpt lat="44.22231110320247" lon="11.621324836389675"><ele>204.0</ele><time>2026-05-02T08:22:57.952Z</time></trkpt><trkpt lat="44.222235436524024" lon="11.621211981160105"><ele>204.0</ele><time>2026-05-02T08:22:58.952Z</time></trkpt><trkpt lat="44.22216013724143" lon="11.62107735093446"><ele>204.0</ele><time>2026-05-02T08:22:59.952Z</time></trkpt><trkpt lat="44.22208632259372" lon="11.620941035595612"><ele>202.75</ele><time>2026-05-02T08:23:00.952Z</time></trkpt><trkpt lat="44.222007803548145" lon="11.620801352180415"><ele>201.5</ele><time>2026-05-02T08:23:01.952Z</time></trkpt><trkpt lat="44.221936577060404" lon="11.620662264660501"><ele>200.25</ele><time>2026-05-02T08:23:02.952Z</time></trkpt><trkpt lat="44.221867251590204" lon="11.620519422034503"><ele>199.0</ele><time>2026-05-02T08:23:03.952Z</time></trkpt><trkpt lat="44.22178732590915" lon="11.620374031526818"><ele>200.5</ele><time>2026-05-02T08:23:04.952Z</time></trkpt><trkpt lat="44.22170708852869" lon="11.620224390162113"><ele>202.0</ele><time>2026-05-02T08:23:05.952Z</time></trkpt><trkpt lat="44.221622531539154" lon="11.620078726944667"><ele>203.5</ele><time>2026-05-02T08:23:06.952Z</time></trkpt><trkpt lat="44.22153683368466" lon="11.61992134271851"><ele>205.0</ele><time>2026-05-02T08:23:07.952Z</time></trkpt><trkpt lat="44.22144693720812" lon="11.619773951351124"><ele>204.25</ele><time>2026-05-02T08:23:08.952Z</time></trkpt><trkpt lat="44.221358418884904" lon="11.619625855132897"><ele>203.5</ele><time>2026-05-02T08:23:09.952Z</time></trkpt><trkpt lat="44.2212725895856" lon="11.619477030526337"><ele>202.75</ele><time>2026-05-02T08:23:10.952Z</time></trkpt><trkpt lat="44.22119292016591" lon="11.619330541227976"><ele>202.0</ele><time>2026-05-02T08:23:11.952Z</time></trkpt><trkpt lat="44.22111178011004" lon="11.619184505562565"><ele>202.0</ele><time>2026-05-02T08:23:12.952Z</time></trkpt><trkpt lat="44.22102577973475" lon="11.619043097324912"><ele>202.0</ele><time>2026-05-02T08:23:13.952Z</time></trkpt><trkpt lat="44.220939767766254" lon="11.618896635350442"><ele>202.0</ele><time>2026-05-02T08:23:14.952Z</time></trkpt><trkpt lat="44.22085142859126" lon="11.618759092932672"><ele>202.0</ele><time>2026-05-02T08:23:15.952Z</time></trkpt><trkpt lat="44.220778805674996" lon="11.61859386363832"><ele>200.5</ele><time>2026-05-02T08:23:16.952Z</time></trkpt><trkpt lat="44.22068538491081" lon="11.618456412485513"><ele>199.0</ele><time>2026-05-02T08:23:17.952Z</time></trkpt><trkpt lat="44.220594636695196" lon="11.618334635692072"><ele>197.5</ele><time>2026-05-02T08:23:18.952Z</time></trkpt><trkpt lat="44.22050562910634" lon="11.618232148094066"><ele>196.0</ele><time>2026-05-02T08:23:19.952Z</time></trkpt><trkpt lat="44.22041975603306" lon="11.618153109217804"><ele>196.0</ele><time>2026-05-02T08:23:20.952Z</time></trkpt><trkpt lat="44.220336306850186" lon="11.61807835137825"><ele>196.0</ele><time>2026-05-02T08:23:21.952Z</time></trkpt><trkpt lat="44.22024277026236" lon="11.618014086327243"><ele>196.0</ele><time>2026-05-02T08:23:22.952Z</time></trkpt><trkpt lat="44.220161391830885" lon="11.61794427072119"><ele>196.0</ele><time>2026-05-02T08:23:23.952Z</time></trkpt><trkpt lat="44.22007400363615" lon="11.617879036675555"><ele>196.0</ele><time>2026-05-02T08:23:24.952Z</time></trkpt><trkpt lat="44.21997236591673" lon="11.617809979726607"><ele>197.25</ele><time>2026-05-02T08:23:25.952Z</time></trkpt><trkpt lat="44.21987191252961" lon="11.617733241181007"><ele>198.5</ele><time>2026-05-02T08:23:26.952Z</time></trkpt><trkpt lat="44.21976483332537" lon="11.617636961702368"><ele>199.75</ele><time>2026-05-02T08:23:27.952Z</time></trkpt><trkpt lat="44.21965598267279" lon="11.61755556671273"><ele>201.0</ele><time>2026-05-02T08:23:28.952Z</time></trkpt><trkpt lat="44.21954380572698" lon="11.61747047708777"><ele>201.0</ele><time>2026-05-02T08:23:29.952Z</time></trkpt><trkpt lat="44.21943176746079" lon="11.61738613104013"><ele>201.0</ele><time>2026-05-02T08:23:30.952Z</time></trkpt><trkpt lat="44.2193159230459" lon="11.617324054064667"><ele>201.0</ele><time>2026-05-02T08:23:31.952Z</time></trkpt><trkpt lat="44.21921349479053" lon="11.617231643889108"><ele>201.0</ele><time>2026-05-02T08:23:32.952Z</time></trkpt><trkpt lat="44.219106758382814" lon="11.617144770656079"><ele>201.0</ele><time>2026-05-02T08:23:33.952Z</time></trkpt><trkpt lat="44.21899391283778" lon="11.617071294503791"><ele>201.0</ele><time>2026-05-02T08:23:34.952Z</time></trkpt><trkpt lat="44.21888497558234" lon="11.617002810063143"><ele>201.0</ele><time>2026-05-02T08:23:35.952Z</time></trkpt><trkpt lat="44.218787536168215" lon="11.616932896409516"><ele>201.0</ele><time>2026-05-02T08:23:36.952Z</time></trkpt><trkpt lat="44.218698558292346" lon="11.6168662291431"><ele>205.60000000000002</ele><time>2026-05-02T08:23:37.952Z</time></trkpt><trkpt lat="44.21860124501244" lon="11.616802156362338"><ele>210.2</ele><time>2026-05-02T08:23:38.952Z</time></trkpt><trkpt lat="44.21849972053336" lon="11.616748737316232"><ele>214.79999999999998</ele><time>2026-05-02T08:23:39.952Z</time></trkpt><trkpt lat="44.21840209714001" lon="11.61671987095101"><ele>219.39999999999998</ele><time>2026-05-02T08:23:40.952Z</time></trkpt><trkpt lat="44.218297059820074" lon="11.616731068407395"><ele>224.0</ele><time>2026-05-02T08:23:41.952Z</time></trkpt><trkpt lat="44.21819214393956" lon="11.616778528687025"><ele>221.0</ele><time>2026-05-02T08:23:42.952Z</time></trkpt><trkpt lat="44.218086665018795" lon="11.616861451334751"><ele>218.0</ele><time>2026-05-02T08:23:43.952Z</time></trkpt><trkpt lat="44.21798299568784" lon="11.616965232372841"><ele>215.0</ele><time>2026-05-02T08:23:44.952Z</time></trkpt><trkpt lat="44.217882232664884" lon="11.617062061368589"><ele>212.0</ele><time>2026-05-02T08:23:45.952Z</time></trkpt><trkpt lat="44.217793616212134" lon="11.617146766439639"><ele>212.0</ele><time>2026-05-02T08:23:46.952Z</time></trkpt><trkpt lat="44.21771504234397" lon="11.617220517829638"><ele>212.0</ele><time>2026-05-02T08:23:47.952Z</time></trkpt><trkpt lat="44.217642867817055" lon="11.617287127579582"><ele>212.0</ele><time>2026-05-02T08:23:48.952Z</time></trkpt><trkpt lat="44.21755953887165" lon="11.617367051744877"><ele>212.0</ele><time>2026-05-02T08:23:49.952Z</time></trkpt><trkpt lat="44.217462162701146" lon="11.617440495349436"><ele>212.0</ele><time>2026-05-02T08:23:50.952Z</time></trkpt><trkpt lat="44.21736464831443" lon="11.617534209413805"><ele>213.5</ele><time>2026-05-02T08:23:51.952Z</time></trkpt><trkpt lat="44.21724469867892" lon="11.61759316650155"><ele>215.0</ele><time>2026-05-02T08:23:52.952Z</time></trkpt><trkpt lat="44.21712692538603" lon="11.617661266344136"><ele>216.5</ele><time>2026-05-02T08:23:53.952Z</time></trkpt><trkpt lat="44.21699336357995" lon="11.617668462647531"><ele>218.0</ele><time>2026-05-02T08:23:54.952Z</time></trkpt><trkpt lat="44.21685819291611" lon="11.617678285195806"><ele>218.0</ele><time>2026-05-02T08:23:55.952Z</time></trkpt><trkpt lat="44.216723854734276" lon="11.61769932082865"><ele>218.0</ele><time>2026-05-02T08:23:56.952Z</time></trkpt><trkpt lat="44.21659175333401" lon="11.617699533935472"><ele>218.0</ele><time>2026-05-02T08:23:57.952Z</time></trkpt><trkpt lat="44.216468140704194" lon="11.617702383053876"><ele>218.0</ele><time>2026-05-02T08:23:58.952Z</time></trkpt><trkpt lat="44.21634605660399" lon="11.617707148695795"><ele>218.0</ele><time>2026-05-02T08:23:59.952Z</time></trkpt><trkpt lat="44.21622545800649" lon="11.617709797081922"><ele>218.0</ele><time>2026-05-02T08:24:00.952Z</time></trkpt><trkpt lat="44.21610407085679" lon="11.617716424269155"><ele>218.0</ele><time>2026-05-02T08:24:01.952Z</time></trkpt><trkpt lat="44.21598554424575" lon="11.617722756832963"><ele>218.0</ele><time>2026-05-02T08:24:02.952Z</time></trkpt><trkpt lat="44.21585857530277" lon="11.617728850275094"><ele>218.0</ele><time>2026-05-02T08:24:03.952Z</time></trkpt><trkpt lat="44.21572789263865" lon="11.617735470302923"><ele>218.0</ele><time>2026-05-02T08:24:04.952Z</time></trkpt><trkpt lat="44.21559835478778" lon="11.617736701130486"><ele>218.0</ele><time>2026-05-02T08:24:05.952Z</time></trkpt><trkpt lat="44.215468665391974" lon="11.617740238535765"><ele>218.0</ele><time>2026-05-02T08:24:06.952Z</time></trkpt><trkpt lat="44.21533825640973" lon="11.617746248814298"><ele>218.25</ele><time>2026-05-02T08:24:07.952Z</time></trkpt><trkpt lat="44.21520743797439" lon="11.617752071652953"><ele>218.5</ele><time>2026-05-02T08:24:08.952Z</time></trkpt><trkpt lat="44.21507679745442" lon="11.617758597370841"><ele>218.75</ele><time>2026-05-02T08:24:09.952Z</time></trkpt><trkpt lat="44.21494508388196" lon="11.617760152738288"><ele>219.0</ele><time>2026-05-02T08:24:10.952Z</time></trkpt><trkpt lat="44.21481436422202" lon="11.61776522560988"><ele>220.5</ele><time>2026-05-02T08:24:11.952Z</time></trkpt><trkpt lat="44.21468075591849" lon="11.617771713413577"><ele>222.0</ele><time>2026-05-02T08:24:12.952Z</time></trkpt><trkpt lat="44.214552176409384" lon="11.617784380127508"><ele>223.5</ele><time>2026-05-02T08:24:13.952Z</time></trkpt><trkpt lat="44.214416121972675" lon="11.61780355866961"><ele>225.0</ele><time>2026-05-02T08:24:14.951Z</time></trkpt><trkpt lat="44.21427944897133" lon="11.617812415511253"><ele>225.0</ele><time>2026-05-02T08:24:15.951Z</time></trkpt><trkpt lat="44.214143991846775" lon="11.617821193416168"><ele>225.0</ele><time>2026-05-02T08:24:16.951Z</time></trkpt><trkpt lat="44.21401070138262" lon="11.61780183522121"><ele>225.0</ele><time>2026-05-02T08:24:17.952Z</time></trkpt><trkpt lat="44.213881280850366" lon="11.617805061029529"><ele>225.0</ele><time>2026-05-02T08:24:18.951Z</time></trkpt><trkpt lat="44.2137504441165" lon="11.617814665603417"><ele>224.75</ele><time>2026-05-02T08:24:19.951Z</time></trkpt><trkpt lat="44.21362100896911" lon="11.617791187138303"><ele>224.5</ele><time>2026-05-02T08:24:20.951Z</time></trkpt><trkpt lat="44.21349892766739" lon="11.617752022719625"><ele>224.25</ele><time>2026-05-02T08:24:21.951Z</time></trkpt><trkpt lat="44.213381955723165" lon="11.617687057947693"><ele>224.0</ele><time>2026-05-02T08:24:22.951Z</time></trkpt><trkpt lat="44.21326338936422" lon="11.617643875251325"><ele>223.25</ele><time>2026-05-02T08:24:23.952Z</time></trkpt><trkpt lat="44.21314134127389" lon="11.617598435390223"><ele>222.5</ele><time>2026-05-02T08:24:24.951Z</time></trkpt><trkpt lat="44.21302485791488" lon="11.617559225715098"><ele>221.75</ele><time>2026-05-02T08:24:25.951Z</time></trkpt><trkpt lat="44.212907912607044" lon="11.617510388191937"><ele>221.0</ele><time>2026-05-02T08:24:26.951Z</time></trkpt><trkpt lat="44.2127878188436" lon="11.617458445490744"><ele>221.0</ele><time>2026-05-02T08:24:27.951Z</time></trkpt><trkpt lat="44.21266028430193" lon="11.617413507181196"><ele>221.0</ele><time>2026-05-02T08:24:28.951Z</time></trkpt><trkpt lat="44.212535946486" lon="11.617368145855291"><ele>221.0</ele><time>2026-05-02T08:24:29.951Z</time></trkpt><trkpt lat="44.21242282015806" lon="11.617329270272005"><ele>221.0</ele><time>2026-05-02T08:24:30.951Z</time></trkpt><trkpt lat="44.2123166796265" lon="11.617292187424537"><ele>218.4</ele><time>2026-05-02T08:24:31.951Z</time></trkpt><trkpt lat="44.212216454530946" lon="11.617257942412815"><ele>215.8</ele><time>2026-05-02T08:24:32.951Z</time></trkpt><trkpt lat="44.21213306900874" lon="11.6172053648447"><ele>213.20000000000002</ele><time>2026-05-02T08:24:33.951Z</time></trkpt><trkpt lat="44.21204415899108" lon="11.617174243061974"><ele>210.60000000000002</ele><time>2026-05-02T08:24:34.951Z</time></trkpt><trkpt lat="44.21195482180464" lon="11.617143705031951"><ele>208.0</ele><time>2026-05-02T08:24:35.951Z</time></trkpt><trkpt lat="44.21186350471253" lon="11.617109455653038"><ele>208.0</ele><time>2026-05-02T08:24:36.951Z</time></trkpt><trkpt lat="44.21176689936231" lon="11.617070589663872"><ele>208.0</ele><time>2026-05-02T08:24:37.951Z</time></trkpt><trkpt lat="44.211665058036345" lon="11.617025450396023"><ele>208.0</ele><time>2026-05-02T08:24:38.951Z</time></trkpt><trkpt lat="44.2115652365768" lon="11.616972074524698"><ele>208.0</ele><time>2026-05-02T08:24:39.951Z</time></trkpt><trkpt lat="44.211468982644455" lon="11.616915114377779"><ele>208.0</ele><time>2026-05-02T08:24:40.951Z</time></trkpt><trkpt lat="44.211371330370845" lon="11.616863758908327"><ele>210.5</ele><time>2026-05-02T08:24:41.951Z</time></trkpt><trkpt lat="44.21126479286995" lon="11.616825010923606"><ele>213.0</ele><time>2026-05-02T08:24:42.951Z</time></trkpt><trkpt lat="44.21115397220771" lon="11.6167883606156"><ele>215.5</ele><time>2026-05-02T08:24:43.951Z</time></trkpt><trkpt lat="44.21103597406254" lon="11.616757114371453"><ele>218.0</ele><time>2026-05-02T08:24:44.951Z</time></trkpt><trkpt lat="44.21091639335351" lon="11.616726632854654"><ele>218.0</ele><time>2026-05-02T08:24:45.951Z</time></trkpt><trkpt lat="44.21079282069805" lon="11.616693224421851"><ele>218.0</ele><time>2026-05-02T08:24:46.951Z</time></trkpt><trkpt lat="44.21066819996378" lon="11.6166564880222"><ele>218.0</ele><time>2026-05-02T08:24:47.951Z</time></trkpt><trkpt lat="44.21054791548452" lon="11.616628888099466"><ele>218.0</ele><time>2026-05-02T08:24:48.951Z</time></trkpt><trkpt lat="44.21042758313278" lon="11.616616443189136"><ele>217.0</ele><time>2026-05-02T08:24:49.951Z</time></trkpt><trkpt lat="44.21031936028914" lon="11.616628636684071"><ele>216.0</ele><time>2026-05-02T08:24:50.951Z</time></trkpt><trkpt lat="44.21022085783617" lon="11.61666333990609"><ele>215.0</ele><time>2026-05-02T08:24:51.951Z</time></trkpt><trkpt lat="44.2101381864132" lon="11.616720010849784"><ele>214.0</ele><time>2026-05-02T08:24:52.951Z</time></trkpt><trkpt lat="44.210072930210835" lon="11.616800911981723"><ele>213.0</ele><time>2026-05-02T08:24:53.951Z</time></trkpt><trkpt lat="44.21002769695982" lon="11.616915708629703"><ele>211.60000000000002</ele><time>2026-05-02T08:24:54.951Z</time></trkpt><trkpt lat="44.20999743462371" lon="11.617060502668867"><ele>210.20000000000002</ele><time>2026-05-02T08:24:55.951Z</time></trkpt><trkpt lat="44.20996470334714" lon="11.617210065441148"><ele>208.8</ele><time>2026-05-02T08:24:56.951Z</time></trkpt><trkpt lat="44.2099297098513" lon="11.617337744557666"><ele>207.4</ele><time>2026-05-02T08:24:57.951Z</time></trkpt><trkpt lat="44.209895451991144" lon="11.617441702846078"><ele>206.0</ele><time>2026-05-02T08:24:58.951Z</time></trkpt><trkpt lat="44.20986600858186" lon="11.617537662676957"><ele>206.0</ele><time>2026-05-02T08:24:59.951Z</time></trkpt><trkpt lat="44.20984076159375" lon="11.61762754906677"><ele>206.0</ele><time>2026-05-02T08:25:00.951Z</time></trkpt><trkpt lat="44.20979346150267" lon="11.617792612584223"><ele>206.0</ele><time>2026-05-02T08:25:02.951Z</time></trkpt><trkpt lat="44.20976060561496" lon="11.617895362702905"><ele>206.0</ele><time>2026-05-02T08:25:03.951Z</time></trkpt><trkpt lat="44.20970883502149" lon="11.617982372074067"><ele>206.0</ele><time>2026-05-02T08:25:04.951Z</time></trkpt><trkpt lat="44.20961970132158" lon="11.618042783358339"><ele>209.0</ele><time>2026-05-02T08:25:05.951Z</time></trkpt><trkpt lat="44.209522102582355" lon="11.618091364908453"><ele>212.0</ele><time>2026-05-02T08:25:06.951Z</time></trkpt><trkpt lat="44.20942059554794" lon="11.61812007326673"><ele>215.00000000000003</ele><time>2026-05-02T08:25:07.951Z</time></trkpt><trkpt lat="44.209305521251004" lon="11.618101266048308"><ele>218.0</ele><time>2026-05-02T08:25:08.951Z</time></trkpt><trkpt lat="44.20919766503522" lon="11.618031482796805"><ele>221.0</ele><time>2026-05-02T08:25:09.951Z</time></trkpt><trkpt lat="44.209076526264255" lon="11.617948649188625"><ele>220.75</ele><time>2026-05-02T08:25:10.951Z</time></trkpt><trkpt lat="44.208953839364575" lon="11.61786207612727"><ele>220.5</ele><time>2026-05-02T08:25:11.951Z</time></trkpt><trkpt lat="44.20883296973023" lon="11.617776863922758"><ele>220.25</ele><time>2026-05-02T08:25:12.951Z</time></trkpt><trkpt lat="44.208719739890995" lon="11.617697037719958"><ele>220.0</ele><time>2026-05-02T08:25:13.951Z</time></trkpt><trkpt lat="44.20861016028281" lon="11.61761978497831"><ele>220.0</ele><time>2026-05-02T08:25:14.951Z</time></trkpt><trkpt lat="44.208507741911895" lon="11.617542184066927"><ele>220.0</ele><time>2026-05-02T08:25:15.951Z</time></trkpt><trkpt lat="44.20839475396217" lon="11.61746417124672"><ele>220.0</ele><time>2026-05-02T08:25:16.951Z</time></trkpt><trkpt lat="44.2082847095314" lon="11.617380972816479"><ele>220.0</ele><time>2026-05-02T08:25:17.951Z</time></trkpt><trkpt lat="44.2081760103977" lon="11.617298887187118"><ele>221.5</ele><time>2026-05-02T08:25:18.951Z</time></trkpt><trkpt lat="44.20806833201648" lon="11.617212553160764"><ele>223.0</ele><time>2026-05-02T08:25:19.951Z</time></trkpt><trkpt lat="44.20796334970225" lon="11.617125643925808"><ele>224.5</ele><time>2026-05-02T08:25:20.951Z</time></trkpt><trkpt lat="44.20785404562411" lon="11.617029308554951"><ele>226.0</ele><time>2026-05-02T08:25:21.951Z</time></trkpt><trkpt lat="44.20774399544981" lon="11.616926675027207"><ele>226.0</ele><time>2026-05-02T08:25:22.951Z</time></trkpt><trkpt lat="44.2076303191563" lon="11.61682090230374"><ele>226.0</ele><time>2026-05-02T08:25:23.951Z</time></trkpt><trkpt lat="44.20751625367461" lon="11.616713508737552"><ele>226.0</ele><time>2026-05-02T08:25:24.951Z</time></trkpt><trkpt lat="44.20740919505621" lon="11.616606546207061"><ele>226.0</ele><time>2026-05-02T08:25:25.951Z</time></trkpt><trkpt lat="44.20730471265828" lon="11.616494534303069"><ele>226.25</ele><time>2026-05-02T08:25:26.951Z</time></trkpt><trkpt lat="44.20720042674238" lon="11.616380099257242"><ele>226.5</ele><time>2026-05-02T08:25:27.951Z</time></trkpt><trkpt lat="44.20709574035963" lon="11.616261642442625"><ele>226.75</ele><time>2026-05-02T08:25:28.951Z</time></trkpt><trkpt lat="44.207006277436406" lon="11.616119476231571"><ele>227.0</ele><time>2026-05-02T08:25:29.951Z</time></trkpt><trkpt lat="44.20689944809242" lon="11.615999795989834"><ele>227.0</ele><time>2026-05-02T08:25:30.951Z</time></trkpt><trkpt lat="44.206789229230964" lon="11.61587382043031"><ele>227.0</ele><time>2026-05-02T08:25:31.951Z</time></trkpt><trkpt lat="44.20667104310358" lon="11.615745647220942"><ele>227.0</ele><time>2026-05-02T08:25:32.951Z</time></trkpt><trkpt lat="44.20654909454339" lon="11.615609021308996"><ele>227.0</ele><time>2026-05-02T08:25:33.951Z</time></trkpt><trkpt lat="44.206421825978616" lon="11.615471223169346"><ele>229.0</ele><time>2026-05-02T08:25:34.951Z</time></trkpt><trkpt lat="44.20629922081983" lon="11.615327548418106"><ele>231.0</ele><time>2026-05-02T08:25:35.951Z</time></trkpt><trkpt lat="44.2061846770849" lon="11.615183566439596"><ele>233.0</ele><time>2026-05-02T08:25:36.951Z</time></trkpt><trkpt lat="44.206074151231036" lon="11.615042606645927"><ele>233.0</ele><time>2026-05-02T08:25:37.951Z</time></trkpt><trkpt lat="44.20596932253245" lon="11.614900077903668"><ele>233.0</ele><time>2026-05-02T08:25:38.951Z</time></trkpt><trkpt lat="44.20586888925945" lon="11.614764081215396"><ele>233.0</ele><time>2026-05-02T08:25:39.951Z</time></trkpt><trkpt lat="44.205773669259486" lon="11.614630116870902"><ele>233.0</ele><time>2026-05-02T08:25:40.951Z</time></trkpt><trkpt lat="44.20568008845469" lon="11.614501996409217"><ele>233.75</ele><time>2026-05-02T08:25:41.951Z</time></trkpt><trkpt lat="44.20558272330813" lon="11.614371243834565"><ele>234.5</ele><time>2026-05-02T08:25:42.951Z</time></trkpt><trkpt lat="44.20548528864374" lon="11.614238381683522"><ele>235.25</ele><time>2026-05-02T08:25:43.951Z</time></trkpt><trkpt lat="44.20539013381576" lon="11.614110051487236"><ele>236.0</ele><time>2026-05-02T08:25:44.951Z</time></trkpt><trkpt lat="44.20529667033453" lon="11.613988627778756"><ele>236.0</ele><time>2026-05-02T08:25:45.951Z</time></trkpt><trkpt lat="44.20520213498837" lon="11.613866513187874"><ele>236.0</ele><time>2026-05-02T08:25:46.951Z</time></trkpt><trkpt lat="44.20511153016071" lon="11.613744442594019"><ele>236.0</ele><time>2026-05-02T08:25:47.951Z</time></trkpt><trkpt lat="44.205019652700685" lon="11.613621316161217"><ele>236.0</ele><time>2026-05-02T08:25:48.951Z</time></trkpt><trkpt lat="44.204927107460385" lon="11.613500240868916"><ele>235.25</ele><time>2026-05-02T08:25:49.951Z</time></trkpt><trkpt lat="44.20483419028949" lon="11.613372436646639"><ele>234.5</ele><time>2026-05-02T08:25:50.951Z</time></trkpt><trkpt lat="44.204746754316815" lon="11.613241204963504"><ele>233.75</ele><time>2026-05-02T08:25:51.951Z</time></trkpt><trkpt lat="44.20466224391718" lon="11.61310163816659"><ele>233.0</ele><time>2026-05-02T08:25:52.951Z</time></trkpt><trkpt lat="44.20458288969679" lon="11.612952958050942"><ele>236.0</ele><time>2026-05-02T08:25:53.951Z</time></trkpt><trkpt lat="44.20451034693416" lon="11.612795437870297"><ele>239.0</ele><time>2026-05-02T08:25:54.951Z</time></trkpt><trkpt lat="44.20444155886695" lon="11.612633470153485"><ele>242.0</ele><time>2026-05-02T08:25:55.951Z</time></trkpt><trkpt lat="44.20437849362309" lon="11.612460603339493"><ele>245.0</ele><time>2026-05-02T08:25:56.951Z</time></trkpt><trkpt lat="44.20431097696565" lon="11.612279384300392"><ele>245.0</ele><time>2026-05-02T08:25:57.951Z</time></trkpt><trkpt lat="44.204237627514786" lon="11.612096688127917"><ele>245.0</ele><time>2026-05-02T08:25:58.951Z</time></trkpt><trkpt lat="44.204162870326826" lon="11.611913663579465"><ele>245.0</ele><time>2026-05-02T08:25:59.951Z</time></trkpt><trkpt lat="44.20408332345179" lon="11.611722791275353"><ele>243.0</ele><time>2026-05-02T08:26:00.951Z</time></trkpt><trkpt lat="44.203999967329786" lon="11.611529801920678"><ele>241.0</ele><time>2026-05-02T08:26:01.951Z</time></trkpt><trkpt lat="44.20391561156174" lon="11.611342438254077"><ele>239.0</ele><time>2026-05-02T08:26:02.951Z</time></trkpt><trkpt lat="44.203836623206534" lon="11.611160350535082"><ele>240.75</ele><time>2026-05-02T08:26:03.951Z</time></trkpt><trkpt lat="44.20375911702637" lon="11.610981564437484"><ele>242.5</ele><time>2026-05-02T08:26:04.951Z</time></trkpt><trkpt lat="44.203681880463286" lon="11.610808833994893"><ele>244.25</ele><time>2026-05-02T08:26:05.951Z</time></trkpt><trkpt lat="44.20360587065829" lon="11.610631969438101"><ele>246.0</ele><time>2026-05-02T08:26:06.951Z</time></trkpt><trkpt lat="44.20353108752958" lon="11.610462903401796"><ele>245.25</ele><time>2026-05-02T08:26:07.951Z</time></trkpt><trkpt lat="44.20344574617984" lon="11.61029569108322"><ele>244.5</ele><time>2026-05-02T08:26:08.951Z</time></trkpt><trkpt lat="44.203350819238004" lon="11.610143017471625"><ele>243.75</ele><time>2026-05-02T08:26:09.951Z</time></trkpt><trkpt lat="44.20324704084995" lon="11.609996550915431"><ele>243.0</ele><time>2026-05-02T08:26:10.951Z</time></trkpt><trkpt lat="44.20313743784486" lon="11.60983954294228"><ele>244.66666666666669</ele><time>2026-05-02T08:26:11.951Z</time></trkpt><trkpt lat="44.20302228226162" lon="11.609691262632065"><ele>246.33333333333334</ele><time>2026-05-02T08:26:12.951Z</time></trkpt><trkpt lat="44.20290798481572" lon="11.609535277057057"><ele>248.0</ele><time>2026-05-02T08:26:13.951Z</time></trkpt><trkpt lat="44.202795446092836" lon="11.609380126496534"><ele>248.0</ele><time>2026-05-02T08:26:14.951Z</time></trkpt><trkpt lat="44.20268550255325" lon="11.609226149666398"><ele>248.0</ele><time>2026-05-02T08:26:15.951Z</time></trkpt><trkpt lat="44.20257574758726" lon="11.609070389249212"><ele>248.0</ele><time>2026-05-02T08:26:16.951Z</time></trkpt><trkpt lat="44.202466774139836" lon="11.608911795042685"><ele>248.0</ele><time>2026-05-02T08:26:17.951Z</time></trkpt><trkpt lat="44.20235604778637" lon="11.608755700577774"><ele>248.0</ele><time>2026-05-02T08:26:18.951Z</time></trkpt><trkpt lat="44.202248767617334" lon="11.608601219256132"><ele>248.0</ele><time>2026-05-02T08:26:19.951Z</time></trkpt><trkpt lat="44.20214395720541" lon="11.608453896769529"><ele>249.0</ele><time>2026-05-02T08:26:20.951Z</time></trkpt><trkpt lat="44.20203718249476" lon="11.608310303961758"><ele>250.0</ele><time>2026-05-02T08:26:21.95Z</time></trkpt><trkpt lat="44.20193027633555" lon="11.608171172152131"><ele>251.0</ele><time>2026-05-02T08:26:22.95Z</time></trkpt><trkpt lat="44.20182597706522" lon="11.608034728644908"><ele>252.0</ele><time>2026-05-02T08:26:23.951Z</time></trkpt><trkpt lat="44.20172363741329" lon="11.607889035614859"><ele>251.25</ele><time>2026-05-02T08:26:24.951Z</time></trkpt><trkpt lat="44.201622984073886" lon="11.607749772163297"><ele>250.5</ele><time>2026-05-02T08:26:25.951Z</time></trkpt><trkpt lat="44.20152301211861" lon="11.607613256494409"><ele>249.75</ele><time>2026-05-02T08:26:26.95Z</time></trkpt><trkpt lat="44.2014179782246" lon="11.607472631060862"><ele>249.0</ele><time>2026-05-02T08:26:27.95Z</time></trkpt><trkpt lat="44.201331352470405" lon="11.607308996759768"><ele>250.33333333333331</ele><time>2026-05-02T08:26:28.95Z</time></trkpt><trkpt lat="44.20121829998017" lon="11.607159833487923"><ele>251.66666666666666</ele><time>2026-05-02T08:26:29.95Z</time></trkpt><trkpt lat="44.201102314195396" lon="11.606995996185406"><ele>253.0</ele><time>2026-05-02T08:26:30.95Z</time></trkpt><trkpt lat="44.200994411331344" lon="11.606823316632632"><ele>253.0</ele><time>2026-05-02T08:26:31.95Z</time></trkpt><trkpt lat="44.20089861291677" lon="11.606636252141096"><ele>253.0</ele><time>2026-05-02T08:26:32.95Z</time></trkpt><trkpt lat="44.200815886633556" lon="11.60642425328687"><ele>253.0</ele><time>2026-05-02T08:26:33.95Z</time></trkpt><trkpt lat="44.20074352253527" lon="11.606214982159386"><ele>255.66666666666666</ele><time>2026-05-02T08:26:34.95Z</time></trkpt><trkpt lat="44.20068122963783" lon="11.605997403072742"><ele>258.3333333333333</ele><time>2026-05-02T08:26:35.95Z</time></trkpt><trkpt lat="44.20062728875959" lon="11.605785389628723"><ele>261.0</ele><time>2026-05-02T08:26:36.95Z</time></trkpt><trkpt lat="44.20057193797045" lon="11.605588703830175"><ele>261.0</ele><time>2026-05-02T08:26:37.95Z</time></trkpt><trkpt lat="44.20051375497946" lon="11.60538523467044"><ele>261.0</ele><time>2026-05-02T08:26:38.95Z</time></trkpt><trkpt lat="44.200454823154665" lon="11.605174619665178"><ele>261.0</ele><time>2026-05-02T08:26:39.95Z</time></trkpt><trkpt lat="44.20039576040831" lon="11.604972616017058"><ele>258.75</ele><time>2026-05-02T08:26:40.95Z</time></trkpt><trkpt lat="44.20034434736073" lon="11.60478220210925"><ele>256.5</ele><time>2026-05-02T08:26:41.95Z</time></trkpt><trkpt lat="44.20029123376869" lon="11.60459582510644"><ele>254.25</ele><time>2026-05-02T08:26:42.95Z</time></trkpt><trkpt lat="44.20023220198485" lon="11.604416532457556"><ele>252.0</ele><time>2026-05-02T08:26:43.951Z</time></trkpt><trkpt lat="44.20015807297706" lon="11.604232423777463"><ele>249.0</ele><time>2026-05-02T08:26:44.951Z</time></trkpt><trkpt lat="44.2000860323014" lon="11.604032190967336"><ele>246.0</ele><time>2026-05-02T08:26:45.951Z</time></trkpt><trkpt lat="44.19997974333854" lon="11.603864612513341"><ele>243.0</ele><time>2026-05-02T08:26:46.951Z</time></trkpt><trkpt lat="44.199885432608184" lon="11.603676648151357"><ele>246.33333333333331</ele><time>2026-05-02T08:26:47.951Z</time></trkpt><trkpt lat="44.199769445278626" lon="11.603510126707416"><ele>249.66666666666666</ele><time>2026-05-02T08:26:48.951Z</time></trkpt><trkpt lat="44.1996437435016" lon="11.603354803587688"><ele>253.0</ele><time>2026-05-02T08:26:49.951Z</time></trkpt><trkpt lat="44.19951458318334" lon="11.603208776688728"><ele>253.0</ele><time>2026-05-02T08:26:50.951Z</time></trkpt><trkpt lat="44.199379144753514" lon="11.603074769819667"><ele>253.0</ele><time>2026-05-02T08:26:51.951Z</time></trkpt><trkpt lat="44.19924061655797" lon="11.60294166437552"><ele>253.0</ele><time>2026-05-02T08:26:52.951Z</time></trkpt><trkpt lat="44.199101926371796" lon="11.602811579039203"><ele>250.0</ele><time>2026-05-02T08:26:53.951Z</time></trkpt><trkpt lat="44.19898850859621" lon="11.60268331565864"><ele>247.0</ele><time>2026-05-02T08:26:54.951Z</time></trkpt><trkpt lat="44.19886366914181" lon="11.6025514335146"><ele>244.0</ele><time>2026-05-02T08:26:55.951Z</time></trkpt><trkpt lat="44.19873808524654" lon="11.602438770215524"><ele>244.0</ele><time>2026-05-02T08:26:56.951Z</time></trkpt><trkpt lat="44.198610023049774" lon="11.6023420201273"><ele>244.0</ele><time>2026-05-02T08:26:57.951Z</time></trkpt><trkpt lat="44.19847219616891" lon="11.602272387793406"><ele>244.0</ele><time>2026-05-02T08:26:58.951Z</time></trkpt><trkpt lat="44.19832605636785" lon="11.602230278236158"><ele>244.0</ele><time>2026-05-02T08:26:59.951Z</time></trkpt><trkpt lat="44.198171363462784" lon="11.60220079270236"><ele>237.66666666666666</ele><time>2026-05-02T08:27:00.951Z</time></trkpt><trkpt lat="44.19801842616493" lon="11.602193357136734"><ele>231.33333333333331</ele><time>2026-05-02T08:27:01.951Z</time></trkpt><trkpt lat="44.19786252598491" lon="11.602187127832646"><ele>225.0</ele><time>2026-05-02T08:27:02.951Z</time></trkpt><trkpt lat="44.19772225462694" lon="11.60217444889078"><ele>225.0</ele><time>2026-05-02T08:27:03.951Z</time></trkpt><trkpt lat="44.197559874473306" lon="11.60217274018091"><ele>225.0</ele><time>2026-05-02T08:27:04.951Z</time></trkpt><trkpt lat="44.197381499989056" lon="11.602168792008213"><ele>225.0</ele><time>2026-05-02T08:27:05.951Z</time></trkpt><trkpt lat="44.197309700871884" lon="11.602169554594823"><ele>225.0</ele><time>2026-05-02T08:27:06.951Z</time></trkpt><trkpt lat="44.197182216714076" lon="11.602162372680024"><ele>229.0</ele><time>2026-05-02T08:27:07.951Z</time></trkpt><trkpt lat="44.19704897877917" lon="11.602149572336588"><ele>233.0</ele><time>2026-05-02T08:27:08.951Z</time></trkpt><trkpt lat="44.1969076371918" lon="11.6021379814576"><ele>237.0</ele><time>2026-05-02T08:27:09.951Z</time></trkpt><trkpt lat="44.196769109438776" lon="11.60212766692109"><ele>241.0</ele><time>2026-05-02T08:27:10.951Z</time></trkpt><trkpt lat="44.19663489620184" lon="11.60211806072812"><ele>241.0</ele><time>2026-05-02T08:27:11.951Z</time></trkpt><trkpt lat="44.19650326157187" lon="11.602105552863309"><ele>241.0</ele><time>2026-05-02T08:27:12.951Z</time></trkpt><trkpt lat="44.1963685539625" lon="11.602094847815263"><ele>241.0</ele><time>2026-05-02T08:27:13.951Z</time></trkpt><trkpt lat="44.19623944601745" lon="11.602027881933282"><ele>241.0</ele><time>2026-05-02T08:27:14.951Z</time></trkpt><trkpt lat="44.19610142249585" lon="11.601966015710454"><ele>243.66666666666666</ele><time>2026-05-02T08:27:15.951Z</time></trkpt><trkpt lat="44.19595917465691" lon="11.601897719111099"><ele>246.33333333333331</ele><time>2026-05-02T08:27:16.951Z</time></trkpt><trkpt lat="44.19581509611779" lon="11.601828456074621"><ele>249.0</ele><time>2026-05-02T08:27:17.951Z</time></trkpt><trkpt lat="44.19567508399179" lon="11.601761147930072"><ele>250.0</ele><time>2026-05-02T08:27:18.951Z</time></trkpt><trkpt lat="44.195536609688745" lon="11.601694579018753"><ele>251.0</ele><time>2026-05-02T08:27:19.951Z</time></trkpt><trkpt lat="44.195405588046604" lon="11.601631592731827"><ele>252.0</ele><time>2026-05-02T08:27:20.951Z</time></trkpt><trkpt lat="44.19527479619287" lon="11.601568061127251"><ele>253.0</ele><time>2026-05-02T08:27:21.951Z</time></trkpt><trkpt lat="44.19514810109756" lon="11.60150696319062"><ele>253.0</ele><time>2026-05-02T08:27:22.951Z</time></trkpt><trkpt lat="44.195029027995105" lon="11.601458016617658"><ele>253.0</ele><time>2026-05-02T08:27:23.951Z</time></trkpt><trkpt lat="44.19491305383237" lon="11.60143551028595"><ele>253.0</ele><time>2026-05-02T08:27:24.951Z</time></trkpt><trkpt lat="44.19479362707534" lon="11.601417375743917"><ele>253.0</ele><time>2026-05-02T08:27:25.951Z</time></trkpt><trkpt lat="44.19466842094632" lon="11.601433378664515"><ele>253.60000000000002</ele><time>2026-05-02T08:27:26.951Z</time></trkpt><trkpt lat="44.19455246095458" lon="11.601465675008196"><ele>254.20000000000002</ele><time>2026-05-02T08:27:27.951Z</time></trkpt><trkpt lat="44.19443749901148" lon="11.601506695208473"><ele>254.8</ele><time>2026-05-02T08:27:28.951Z</time></trkpt><trkpt lat="44.1943325109131" lon="11.601535698450398"><ele>255.4</ele><time>2026-05-02T08:27:29.951Z</time></trkpt><trkpt lat="44.194242788032255" lon="11.601572783985496"><ele>256.0</ele><time>2026-05-02T08:27:30.951Z</time></trkpt><trkpt lat="44.194158730277294" lon="11.601600866867106"><ele>255.99999999999997</ele><time>2026-05-02T08:27:31.951Z</time></trkpt><trkpt lat="44.19407556688589" lon="11.601633442444914"><ele>256.0</ele><time>2026-05-02T08:27:32.951Z</time></trkpt><trkpt lat="44.19399672034202" lon="11.601667501876129"><ele>256.0</ele><time>2026-05-02T08:27:33.951Z</time></trkpt><trkpt lat="44.19391839604108" lon="11.60169429926328"><ele>256.0</ele><time>2026-05-02T08:27:34.951Z</time></trkpt><trkpt lat="44.19383569568227" lon="11.601723449162057"><ele>255.99999999999997</ele><time>2026-05-02T08:27:35.951Z</time></trkpt><trkpt lat="44.193755372233234" lon="11.601751857470607"><ele>256.0</ele><time>2026-05-02T08:27:36.951Z</time></trkpt><trkpt lat="44.19366912102933" lon="11.601784208732305"><ele>256.40000000000003</ele><time>2026-05-02T08:27:37.951Z</time></trkpt><trkpt lat="44.19358175225505" lon="11.601819884537294"><ele>256.8</ele><time>2026-05-02T08:27:38.951Z</time></trkpt><trkpt lat="44.193487208037816" lon="11.601868639530796"><ele>257.20000000000005</ele><time>2026-05-02T08:27:39.951Z</time></trkpt><trkpt lat="44.193381080123146" lon="11.601932125114173"><ele>257.6</ele><time>2026-05-02T08:27:40.951Z</time></trkpt><trkpt lat="44.193267790130704" lon="11.602016072437465"><ele>258.0</ele><time>2026-05-02T08:27:41.951Z</time></trkpt><trkpt lat="44.19315294504457" lon="11.602109575085436"><ele>258.5</ele><time>2026-05-02T08:27:42.951Z</time></trkpt><trkpt lat="44.19304609359014" lon="11.602221238699874"><ele>259.0</ele><time>2026-05-02T08:27:43.951Z</time></trkpt><trkpt lat="44.19293587355194" lon="11.602334324915763"><ele>259.5</ele><time>2026-05-02T08:27:44.951Z</time></trkpt><trkpt lat="44.19282671830908" lon="11.602459227985175"><ele>260.0</ele><time>2026-05-02T08:27:45.951Z</time></trkpt><trkpt lat="44.192719468269885" lon="11.602586696203467"><ele>260.0</ele><time>2026-05-02T08:27:46.951Z</time></trkpt><trkpt lat="44.19260858685226" lon="11.602711598544197"><ele>260.0</ele><time>2026-05-02T08:27:47.951Z</time></trkpt><trkpt lat="44.192495789075544" lon="11.602833082989708"><ele>260.0</ele><time>2026-05-02T08:27:48.951Z</time></trkpt><trkpt lat="44.192378947742654" lon="11.602957034506753"><ele>260.0</ele><time>2026-05-02T08:27:49.951Z</time></trkpt><trkpt lat="44.19225966869578" lon="11.6030792793776"><ele>255.5</ele><time>2026-05-02T08:27:50.951Z</time></trkpt><trkpt lat="44.19212805649884" lon="11.603172660520611"><ele>251.0</ele><time>2026-05-02T08:27:51.951Z</time></trkpt><trkpt lat="44.19200665119826" lon="11.603280977383454"><ele>246.5</ele><time>2026-05-02T08:27:52.951Z</time></trkpt><trkpt lat="44.19188627151528" lon="11.603387827107484"><ele>242.0</ele><time>2026-05-02T08:27:53.951Z</time></trkpt><trkpt lat="44.19175974300928" lon="11.603500147151792"><ele>242.0</ele><time>2026-05-02T08:27:54.951Z</time></trkpt><trkpt lat="44.19165226725568" lon="11.60362306164075"><ele>242.0</ele><time>2026-05-02T08:27:55.951Z</time></trkpt><trkpt lat="44.191539060008964" lon="11.60369659799255"><ele>242.0</ele><time>2026-05-02T08:27:56.951Z</time></trkpt><trkpt lat="44.1914465537303" lon="11.603779005447063"><ele>242.0</ele><time>2026-05-02T08:27:57.951Z</time></trkpt><trkpt lat="44.191372705955565" lon="11.603840818031513"><ele>243.2</ele><time>2026-05-02T08:27:58.951Z</time></trkpt><trkpt lat="44.19131270404416" lon="11.60387576010455"><ele>244.39999999999998</ele><time>2026-05-02T08:27:59.951Z</time></trkpt><trkpt lat="44.191236668461855" lon="11.603846312066391"><ele>245.60000000000002</ele><time>2026-05-02T08:28:00.951Z</time></trkpt><trkpt lat="44.19115259415192" lon="11.603752013753413"><ele>246.8</ele><time>2026-05-02T08:28:01.951Z</time></trkpt><trkpt lat="44.19103121052962" lon="11.603649766959245"><ele>248.0</ele><time>2026-05-02T08:28:02.951Z</time></trkpt><trkpt lat="44.1908939910404" lon="11.603572486516725"><ele>248.0</ele><time>2026-05-02T08:28:03.951Z</time></trkpt><trkpt lat="44.19075868190643" lon="11.603483872083775"><ele>248.0</ele><time>2026-05-02T08:28:04.951Z</time></trkpt><trkpt lat="44.19063278470978" lon="11.603373934224077"><ele>248.0</ele><time>2026-05-02T08:28:05.951Z</time></trkpt><trkpt lat="44.190501700944544" lon="11.603282490252159"><ele>248.0</ele><time>2026-05-02T08:28:06.951Z</time></trkpt><trkpt lat="44.19038067487146" lon="11.603188599558152"><ele>248.75</ele><time>2026-05-02T08:28:07.951Z</time></trkpt><trkpt lat="44.19026322345247" lon="11.603075352238228"><ele>249.5</ele><time>2026-05-02T08:28:08.951Z</time></trkpt><trkpt lat="44.190159519164304" lon="11.602948377100411"><ele>250.25</ele><time>2026-05-02T08:28:09.951Z</time></trkpt><trkpt lat="44.190055397933385" lon="11.602811884656479"><ele>251.0</ele><time>2026-05-02T08:28:10.951Z</time></trkpt><trkpt lat="44.18995096988046" lon="11.602672151192087"><ele>251.0</ele><time>2026-05-02T08:28:11.951Z</time></trkpt><trkpt lat="44.18984938604059" lon="11.602536223294164"><ele>251.0</ele><time>2026-05-02T08:28:12.951Z</time></trkpt><trkpt lat="44.18974394766942" lon="11.602395138110413"><ele>251.0</ele><time>2026-05-02T08:28:13.951Z</time></trkpt><trkpt lat="44.18963675795557" lon="11.602251291266066"><ele>251.0</ele><time>2026-05-02T08:28:14.951Z</time></trkpt><trkpt lat="44.18952291268298" lon="11.602098345848539"><ele>251.66666666666669</ele><time>2026-05-02T08:28:15.951Z</time></trkpt><trkpt lat="44.18940823595593" lon="11.601944283471289"><ele>252.33333333333331</ele><time>2026-05-02T08:28:16.951Z</time></trkpt><trkpt lat="44.1892905596855" lon="11.601786191409092"><ele>253.0</ele><time>2026-05-02T08:28:17.951Z</time></trkpt><trkpt lat="44.18917086064344" lon="11.601625381855179"><ele>253.0</ele><time>2026-05-02T08:28:18.951Z</time></trkpt><trkpt lat="44.189053027006565" lon="11.601465754757447"><ele>253.0</ele><time>2026-05-02T08:28:19.951Z</time></trkpt><trkpt lat="44.18893685640539" lon="11.601307065755764"><ele>253.0</ele><time>2026-05-02T08:28:20.951Z</time></trkpt><trkpt lat="44.18882568810772" lon="11.601156523684942"><ele>254.75</ele><time>2026-05-02T08:28:21.951Z</time></trkpt><trkpt lat="44.188705638649836" lon="11.601027185804613"><ele>256.5</ele><time>2026-05-02T08:28:22.951Z</time></trkpt><trkpt lat="44.18860338214006" lon="11.600892957136237"><ele>258.25</ele><time>2026-05-02T08:28:23.951Z</time></trkpt><trkpt lat="44.18851754393223" lon="11.600750673705473"><ele>260.0</ele><time>2026-05-02T08:28:24.951Z</time></trkpt><trkpt lat="44.188424500201194" lon="11.600629191472525"><ele>260.0</ele><time>2026-05-02T08:28:25.951Z</time></trkpt><trkpt lat="44.18833176275364" lon="11.600508108969752"><ele>260.0</ele><time>2026-05-02T08:28:26.949Z</time></trkpt><trkpt lat="44.188238716401436" lon="11.600387738624368"><ele>260.0</ele><time>2026-05-02T08:28:27.949Z</time></trkpt><trkpt lat="44.18814886614817" lon="11.600272413106271"><ele>260.0</ele><time>2026-05-02T08:28:28.949Z</time></trkpt><trkpt lat="44.18804555193267" lon="11.600168002199345"><ele>260.5</ele><time>2026-05-02T08:28:29.949Z</time></trkpt><trkpt lat="44.1879515110635" lon="11.600037591779149"><ele>261.0</ele><time>2026-05-02T08:28:30.949Z</time></trkpt><trkpt lat="44.18785910549112" lon="11.599911688764706"><ele>261.5</ele><time>2026-05-02T08:28:31.949Z</time></trkpt><trkpt lat="44.18776198747356" lon="11.599799091671152"><ele>262.0</ele><time>2026-05-02T08:28:32.949Z</time></trkpt><trkpt lat="44.18766731344196" lon="11.59969257371468"><ele>262.0</ele><time>2026-05-02T08:28:33.95Z</time></trkpt><trkpt lat="44.18757148687195" lon="11.599586257593918"><ele>262.0</ele><time>2026-05-02T08:28:34.95Z</time></trkpt><trkpt lat="44.18747461305032" lon="11.599486222530025"><ele>262.0</ele><time>2026-05-02T08:28:35.949Z</time></trkpt><trkpt lat="44.187375281121994" lon="11.599385098283294"><ele>262.0</ele><time>2026-05-02T08:28:36.949Z</time></trkpt><trkpt lat="44.187278140594024" lon="11.599286220820925"><ele>262.5</ele><time>2026-05-02T08:28:37.949Z</time></trkpt><trkpt lat="44.18717769130285" lon="11.599186137425097"><ele>263.0</ele><time>2026-05-02T08:28:38.95Z</time></trkpt><trkpt lat="44.18708304545406" lon="11.599073043103033"><ele>263.5</ele><time>2026-05-02T08:28:39.949Z</time></trkpt><trkpt lat="44.186971911164356" lon="11.598964804613999"><ele>264.0</ele><time>2026-05-02T08:28:40.949Z</time></trkpt><trkpt lat="44.1868633016192" lon="11.59884499402956"><ele>264.0</ele><time>2026-05-02T08:28:41.949Z</time></trkpt><trkpt lat="44.18675265161851" lon="11.598727215445638"><ele>264.0</ele><time>2026-05-02T08:28:42.949Z</time></trkpt><trkpt lat="44.18664071717008" lon="11.59861103356892"><ele>264.0</ele><time>2026-05-02T08:28:43.949Z</time></trkpt><trkpt lat="44.18652670400572" lon="11.59849274130825"><ele>264.0</ele><time>2026-05-02T08:28:44.949Z</time></trkpt><trkpt lat="44.18641517530727" lon="11.598379095336158"><ele>264.0</ele><time>2026-05-02T08:28:45.949Z</time></trkpt><trkpt lat="44.18630578625013" lon="11.598267736288648"><ele>264.0</ele><time>2026-05-02T08:28:46.949Z</time></trkpt><trkpt lat="44.186196189875105" lon="11.59815871108034"><ele>264.0</ele><time>2026-05-02T08:28:47.949Z</time></trkpt><trkpt lat="44.186089031250205" lon="11.598052595776798"><ele>264.0</ele><time>2026-05-02T08:28:48.949Z</time></trkpt><trkpt lat="44.18599908334769" lon="11.597922758405609"><ele>263.4</ele><time>2026-05-02T08:28:49.949Z</time></trkpt><trkpt lat="44.18590035158851" lon="11.597825734400743"><ele>262.79999999999995</ele><time>2026-05-02T08:28:50.949Z</time></trkpt><trkpt lat="44.18582154121613" lon="11.597734993051759"><ele>262.20000000000005</ele><time>2026-05-02T08:28:51.949Z</time></trkpt><trkpt lat="44.18573465108958" lon="11.597657524354092"><ele>261.6</ele><time>2026-05-02T08:28:52.949Z</time></trkpt><trkpt lat="44.185661771938726" lon="11.597587913585665"><ele>261.0</ele><time>2026-05-02T08:28:53.949Z</time></trkpt><trkpt lat="44.185598595468576" lon="11.597514911061422"><ele>261.0</ele><time>2026-05-02T08:28:54.949Z</time></trkpt><trkpt lat="44.18553203526207" lon="11.597456039798793"><ele>261.0</ele><time>2026-05-02T08:28:55.949Z</time></trkpt><trkpt lat="44.18547332196146" lon="11.597383665654853"><ele>261.0</ele><time>2026-05-02T08:28:56.949Z</time></trkpt><trkpt lat="44.18543308931475" lon="11.59729511367934"><ele>261.0</ele><time>2026-05-02T08:28:57.949Z</time></trkpt><trkpt lat="44.18542980940194" lon="11.597182886554934"><ele>261.0</ele><time>2026-05-02T08:28:58.949Z</time></trkpt><trkpt lat="44.18545670894564" lon="11.597047338143346"><ele>261.0</ele><time>2026-05-02T08:28:59.949Z</time></trkpt><trkpt lat="44.185485600907995" lon="11.596907797066045"><ele>259.5</ele><time>2026-05-02T08:29:00.949Z</time></trkpt><trkpt lat="44.18550767169484" lon="11.596785755164076"><ele>258.0</ele><time>2026-05-02T08:29:01.949Z</time></trkpt><trkpt lat="44.185520632539756" lon="11.596674332802028"><ele>256.5</ele><time>2026-05-02T08:29:02.949Z</time></trkpt><trkpt lat="44.18553336709336" lon="11.596554511064403"><ele>255.0</ele><time>2026-05-02T08:29:03.949Z</time></trkpt><trkpt lat="44.18554937514757" lon="11.596442853800049"><ele>253.5</ele><time>2026-05-02T08:29:04.949Z</time></trkpt><trkpt lat="44.18555010183597" lon="11.596326172597417"><ele>252.0</ele><time>2026-05-02T08:29:05.949Z</time></trkpt><trkpt lat="44.18552270919345" lon="11.596202693991147"><ele>255.5</ele><time>2026-05-02T08:29:06.949Z</time></trkpt><trkpt lat="44.18546244233831" lon="11.59608245436755"><ele>259.0</ele><time>2026-05-02T08:29:07.949Z</time></trkpt><trkpt lat="44.185366198157155" lon="11.595998834471867"><ele>262.5</ele><time>2026-05-02T08:29:08.949Z</time></trkpt><trkpt lat="44.18524137022742" lon="11.59592652896959"><ele>266.0</ele><time>2026-05-02T08:29:09.949Z</time></trkpt><trkpt lat="44.18511169797374" lon="11.59585423411985"><ele>266.0</ele><time>2026-05-02T08:29:10.949Z</time></trkpt><trkpt lat="44.184956759028196" lon="11.595767796570225"><ele>266.0</ele><time>2026-05-02T08:29:11.949Z</time></trkpt><trkpt lat="44.18478254289558" lon="11.595672885681665"><ele>266.0</ele><time>2026-05-02T08:29:12.949Z</time></trkpt><trkpt lat="44.18462398906044" lon="11.595578704252455"><ele>264.0</ele><time>2026-05-02T08:29:13.949Z</time></trkpt><trkpt lat="44.184474103407844" lon="11.595490201789678"><ele>262.0</ele><time>2026-05-02T08:29:14.949Z</time></trkpt><trkpt lat="44.18432452239873" lon="11.59540585243351"><ele>260.0</ele><time>2026-05-02T08:29:15.949Z</time></trkpt><trkpt lat="44.1841826274179" lon="11.595321415923449"><ele>261.0</ele><time>2026-05-02T08:29:16.949Z</time></trkpt><trkpt lat="44.18403161669257" lon="11.595211136394333"><ele>262.0</ele><time>2026-05-02T08:29:17.949Z</time></trkpt><trkpt lat="44.18385118143449" lon="11.595094897235082"><ele>263.0</ele><time>2026-05-02T08:29:18.949Z</time></trkpt><trkpt lat="44.18363355335588" lon="11.594954697843255"><ele>263.0</ele><time>2026-05-02T08:29:19.949Z</time></trkpt><trkpt lat="44.183386853026654" lon="11.59479523215519"><ele>263.0</ele><time>2026-05-02T08:29:20.949Z</time></trkpt><trkpt lat="44.18312357974862" lon="11.594624353326102"><ele>267.5</ele><time>2026-05-02T08:29:21.949Z</time></trkpt><trkpt lat="44.18288165866325" lon="11.594467333287222"><ele>272.0</ele><time>2026-05-02T08:29:22.949Z</time></trkpt><trkpt lat="44.182651380279864" lon="11.59433241552261"><ele>272.0</ele><time>2026-05-02T08:29:23.949Z</time></trkpt><trkpt lat="44.18244424489226" lon="11.594192911304008"><ele>272.0</ele><time>2026-05-02T08:29:24.949Z</time></trkpt><trkpt lat="44.18224349062221" lon="11.594073762668373"><ele>272.0</ele><time>2026-05-02T08:29:25.949Z</time></trkpt><trkpt lat="44.182051044441515" lon="11.593962247826719"><ele>268.33333333333337</ele><time>2026-05-02T08:29:26.949Z</time></trkpt><trkpt lat="44.18187258732422" lon="11.593863598184829"><ele>264.6666666666667</ele><time>2026-05-02T08:29:27.949Z</time></trkpt><trkpt lat="44.18170549393238" lon="11.593772449103863"><ele>261.0</ele><time>2026-05-02T08:29:28.949Z</time></trkpt><trkpt lat="44.18154388109716" lon="11.593688807423522"><ele>264.3333333333333</ele><time>2026-05-02T08:29:29.949Z</time></trkpt><trkpt lat="44.181376510920984" lon="11.593621054137582"><ele>267.66666666666663</ele><time>2026-05-02T08:29:30.949Z</time></trkpt><trkpt lat="44.181210255588205" lon="11.593578454862609"><ele>271.0</ele><time>2026-05-02T08:29:31.949Z</time></trkpt><trkpt lat="44.18103179690455" lon="11.593562508965558"><ele>271.0</ele><time>2026-05-02T08:29:32.949Z</time></trkpt><trkpt lat="44.18085879966971" lon="11.593555154820729"><ele>271.0</ele><time>2026-05-02T08:29:33.949Z</time></trkpt><trkpt lat="44.18068198911039" lon="11.59355157513902"><ele>271.0</ele><time>2026-05-02T08:29:34.949Z</time></trkpt><trkpt lat="44.18050765808456" lon="11.593564935410235"><ele>272.0</ele><time>2026-05-02T08:29:35.949Z</time></trkpt><trkpt lat="44.1803278108722" lon="11.593592590777947"><ele>273.0</ele><time>2026-05-02T08:29:36.949Z</time></trkpt><trkpt lat="44.18014317674849" lon="11.593589781610971"><ele>274.0</ele><time>2026-05-02T08:29:37.949Z</time></trkpt><trkpt lat="44.17996328070311" lon="11.593597771155332"><ele>274.3333333333333</ele><time>2026-05-02T08:29:38.949Z</time></trkpt><trkpt lat="44.17979020626032" lon="11.593593520537985"><ele>274.6666666666667</ele><time>2026-05-02T08:29:39.949Z</time></trkpt><trkpt lat="44.179620711735865" lon="11.593607614333242"><ele>275.0</ele><time>2026-05-02T08:29:40.949Z</time></trkpt><trkpt lat="44.179461427531386" lon="11.593598373195865"><ele>275.0</ele><time>2026-05-02T08:29:41.949Z</time></trkpt><trkpt lat="44.1793105007457" lon="11.593589971579508"><ele>275.0</ele><time>2026-05-02T08:29:42.949Z</time></trkpt><trkpt lat="44.17916194686788" lon="11.59358071451645"><ele>275.0</ele><time>2026-05-02T08:29:43.949Z</time></trkpt><trkpt lat="44.179021096527556" lon="11.59357178504029"><ele>275.0</ele><time>2026-05-02T08:29:44.949Z</time></trkpt><trkpt lat="44.17889400323512" lon="11.593576977856378"><ele>274.25</ele><time>2026-05-02T08:29:45.949Z</time></trkpt><trkpt lat="44.17877499739879" lon="11.593616055760661"><ele>273.5</ele><time>2026-05-02T08:29:46.949Z</time></trkpt><trkpt lat="44.178662219089176" lon="11.593706761634216"><ele>272.75</ele><time>2026-05-02T08:29:47.949Z</time></trkpt><trkpt lat="44.178558862876166" lon="11.593846007347091"><ele>272.0</ele><time>2026-05-02T08:29:48.949Z</time></trkpt><trkpt lat="44.1784610954948" lon="11.593976427206856"><ele>272.0</ele><time>2026-05-02T08:29:49.949Z</time></trkpt><trkpt lat="44.17836115878107" lon="11.594072795350158"><ele>272.0</ele><time>2026-05-02T08:29:50.949Z</time></trkpt><trkpt lat="44.17825049858896" lon="11.594102944253843"><ele>272.0</ele><time>2026-05-02T08:29:51.949Z</time></trkpt><trkpt lat="44.17812580647379" lon="11.594073795204572"><ele>272.0</ele><time>2026-05-02T08:29:52.949Z</time></trkpt><trkpt lat="44.17803242888486" lon="11.593939034203764"><ele>272.6666666666667</ele><time>2026-05-02T08:29:53.949Z</time></trkpt><trkpt lat="44.177923668718506" lon="11.593779211261813"><ele>273.3333333333333</ele><time>2026-05-02T08:29:54.949Z</time></trkpt><trkpt lat="44.177807474673386" lon="11.593597708889797"><ele>274.0</ele><time>2026-05-02T08:29:55.949Z</time></trkpt><trkpt lat="44.17769052267955" lon="11.59341049055789"><ele>274.0</ele><time>2026-05-02T08:29:56.949Z</time></trkpt><trkpt lat="44.177546337080585" lon="11.59323431992297"><ele>274.0</ele><time>2026-05-02T08:29:57.949Z</time></trkpt><trkpt lat="44.177399273410714" lon="11.593043724303858"><ele>274.0</ele><time>2026-05-02T08:29:58.949Z</time></trkpt><trkpt lat="44.17723867799578" lon="11.592862521340543"><ele>273.66666666666663</ele><time>2026-05-02T08:29:59.949Z</time></trkpt><trkpt lat="44.17708035883552" lon="11.592703535247248"><ele>273.3333333333333</ele><time>2026-05-02T08:30:00.949Z</time></trkpt><trkpt lat="44.17693004297621" lon="11.592574474016741"><ele>273.0</ele><time>2026-05-02T08:30:01.949Z</time></trkpt><trkpt lat="44.17677892944997" lon="11.592476033249747"><ele>273.0</ele><time>2026-05-02T08:30:02.949Z</time></trkpt><trkpt lat="44.17662221925526" lon="11.592415333663695"><ele>273.0</ele><time>2026-05-02T08:30:03.949Z</time></trkpt><trkpt lat="44.17646700205252" lon="11.592390866685827"><ele>273.0</ele><time>2026-05-02T08:30:04.949Z</time></trkpt><trkpt lat="44.17631843014712" lon="11.592331379279827"><ele>273.0</ele><time>2026-05-02T08:30:05.949Z</time></trkpt><trkpt lat="44.17617055147806" lon="11.592217257694685"><ele>273.0</ele><time>2026-05-02T08:30:06.949Z</time></trkpt><trkpt lat="44.176004786937014" lon="11.592079429603563"><ele>273.0</ele><time>2026-05-02T08:30:07.949Z</time></trkpt><trkpt lat="44.175848884194" lon="11.59195066742378"><ele>274.6666666666667</ele><time>2026-05-02T08:30:08.949Z</time></trkpt><trkpt lat="44.175691315717046" lon="11.59185315918213"><ele>276.33333333333337</ele><time>2026-05-02T08:30:09.949Z</time></trkpt><trkpt lat="44.17553558811878" lon="11.591767216458994"><ele>278.0</ele><time>2026-05-02T08:30:10.949Z</time></trkpt><trkpt lat="44.17535880710105" lon="11.591734321724573"><ele>278.6666666666667</ele><time>2026-05-02T08:30:11.949Z</time></trkpt><trkpt lat="44.17517636475651" lon="11.591739685913318"><ele>279.3333333333333</ele><time>2026-05-02T08:30:12.949Z</time></trkpt><trkpt lat="44.17497752580459" lon="11.59176338135125"><ele>280.0</ele><time>2026-05-02T08:30:13.949Z</time></trkpt><trkpt lat="44.17477684238078" lon="11.591779547433186"><ele>280.3333333333333</ele><time>2026-05-02T08:30:14.949Z</time></trkpt><trkpt lat="44.174583111129024" lon="11.591773957288181"><ele>280.6666666666667</ele><time>2026-05-02T08:30:15.949Z</time></trkpt><trkpt lat="44.17441120979337" lon="11.591744675786135"><ele>281.0</ele><time>2026-05-02T08:30:16.949Z</time></trkpt><trkpt lat="44.17423916186383" lon="11.59171611422012"><ele>281.0</ele><time>2026-05-02T08:30:17.949Z</time></trkpt><trkpt lat="44.17406957144415" lon="11.591650063684371"><ele>281.0</ele><time>2026-05-02T08:30:18.949Z</time></trkpt><trkpt lat="44.17389694447519" lon="11.59155588920476"><ele>281.0</ele><time>2026-05-02T08:30:19.949Z</time></trkpt><trkpt lat="44.17372643205871" lon="11.591454644791591"><ele>281.0</ele><time>2026-05-02T08:30:20.949Z</time></trkpt><trkpt lat="44.17356411372995" lon="11.591353543867214"><ele>281.0</ele><time>2026-05-02T08:30:21.949Z</time></trkpt><trkpt lat="44.173414262306885" lon="11.591260222856715"><ele>281.0</ele><time>2026-05-02T08:30:22.949Z</time></trkpt><trkpt lat="44.17327333654114" lon="11.591176234431181"><ele>281.25</ele><time>2026-05-02T08:30:23.949Z</time></trkpt><trkpt lat="44.173131955161764" lon="11.591098578252796"><ele>281.5</ele><time>2026-05-02T08:30:24.949Z</time></trkpt><trkpt lat="44.17300087537225" lon="11.591010724609857"><ele>281.75</ele><time>2026-05-02T08:30:25.949Z</time></trkpt><trkpt lat="44.17290829398863" lon="11.590864448764265"><ele>282.0</ele><time>2026-05-02T08:30:26.949Z</time></trkpt><trkpt lat="44.17282284292607" lon="11.590703270470481"><ele>282.0</ele><time>2026-05-02T08:30:27.949Z</time></trkpt><trkpt lat="44.17272506263142" lon="11.590535614010234"><ele>282.0</ele><time>2026-05-02T08:30:28.949Z</time></trkpt><trkpt lat="44.17266662280133" lon="11.590329431108211"><ele>282.0</ele><time>2026-05-02T08:30:29.949Z</time></trkpt><trkpt lat="44.172607316009625" lon="11.59014979768967"><ele>282.0</ele><time>2026-05-02T08:30:30.949Z</time></trkpt><trkpt lat="44.172626668259745" lon="11.589964324414188"><ele>282.0</ele><time>2026-05-02T08:30:31.949Z</time></trkpt><trkpt lat="44.17260277471127" lon="11.589792522070793"><ele>282.0</ele><time>2026-05-02T08:30:32.948Z</time></trkpt><trkpt lat="44.1725843372499" lon="11.589638243408105"><ele>282.0</ele><time>2026-05-02T08:30:33.949Z</time></trkpt><trkpt lat="44.1725199960755" lon="11.589490017796956"><ele>282.6666666666667</ele><time>2026-05-02T08:30:34.949Z</time></trkpt><trkpt lat="44.172408227486294" lon="11.589356874277634"><ele>283.33333333333337</ele><time>2026-05-02T08:30:35.948Z</time></trkpt><trkpt lat="44.17227506812195" lon="11.589199483990953"><ele>284.0</ele><time>2026-05-02T08:30:36.949Z</time></trkpt><trkpt lat="44.172162787192406" lon="11.589006529792993"><ele>284.0</ele><time>2026-05-02T08:30:37.949Z</time></trkpt><trkpt lat="44.17204119822645" lon="11.588838421139359"><ele>284.0</ele><time>2026-05-02T08:30:38.948Z</time></trkpt><trkpt lat="44.171932203122616" lon="11.588668635206812"><ele>284.0</ele><time>2026-05-02T08:30:39.948Z</time></trkpt><trkpt lat="44.17183853575005" lon="11.588490768127446"><ele>285.0</ele><time>2026-05-02T08:30:40.948Z</time></trkpt><trkpt lat="44.17174116509145" lon="11.588309530062515"><ele>286.0</ele><time>2026-05-02T08:30:41.949Z</time></trkpt><trkpt lat="44.17165867717243" lon="11.588119065849451"><ele>287.0</ele><time>2026-05-02T08:30:42.949Z</time></trkpt><trkpt lat="44.17156052222455" lon="11.587926224747171"><ele>288.33333333333337</ele><time>2026-05-02T08:30:43.949Z</time></trkpt><trkpt lat="44.17145481578124" lon="11.58773389788295"><ele>289.6666666666667</ele><time>2026-05-02T08:30:44.948Z</time></trkpt><trkpt lat="44.17133563963178" lon="11.58755415210684"><ele>291.0</ele><time>2026-05-02T08:30:45.948Z</time></trkpt><trkpt lat="44.171214804919984" lon="11.587394033448632"><ele>291.0</ele><time>2026-05-02T08:30:46.948Z</time></trkpt><trkpt lat="44.17105750953527" lon="11.587269250998673"><ele>291.0</ele><time>2026-05-02T08:30:47.948Z</time></trkpt><trkpt lat="44.17089164690733" lon="11.587166298732075"><ele>291.0</ele><time>2026-05-02T08:30:48.948Z</time></trkpt><trkpt lat="44.17071240762897" lon="11.587094189291085"><ele>290.0</ele><time>2026-05-02T08:30:49.948Z</time></trkpt><trkpt lat="44.170527027163544" lon="11.587046881198198"><ele>289.0</ele><time>2026-05-02T08:30:50.948Z</time></trkpt><trkpt lat="44.17033125777207" lon="11.586995177738846"><ele>288.0</ele><time>2026-05-02T08:30:51.948Z</time></trkpt><trkpt lat="44.17014215880396" lon="11.5869636198091"><ele>295.6666666666667</ele><time>2026-05-02T08:30:52.948Z</time></trkpt><trkpt lat="44.16995326823818" lon="11.586940096368034"><ele>303.33333333333337</ele><time>2026-05-02T08:30:53.948Z</time></trkpt><trkpt lat="44.16976866777113" lon="11.586928380081803"><ele>311.0</ele><time>2026-05-02T08:30:54.948Z</time></trkpt><trkpt lat="44.16958708785068" lon="11.586942403695726"><ele>311.0</ele><time>2026-05-02T08:30:55.948Z</time></trkpt><trkpt lat="44.16940812030947" lon="11.586987842662007"><ele>311.0</ele><time>2026-05-02T08:30:56.948Z</time></trkpt><trkpt lat="44.16922139347692" lon="11.587060971556221"><ele>311.0</ele><time>2026-05-02T08:30:57.948Z</time></trkpt><trkpt lat="44.16903040929558" lon="11.587166783200061"><ele>307.33333333333337</ele><time>2026-05-02T08:30:58.948Z</time></trkpt><trkpt lat="44.168841423545494" lon="11.587277957792745"><ele>303.6666666666667</ele><time>2026-05-02T08:30:59.948Z</time></trkpt><trkpt lat="44.16865121753984" lon="11.587405659853237"><ele>300.0</ele><time>2026-05-02T08:31:00.948Z</time></trkpt><trkpt lat="44.16847418097528" lon="11.587548404545732"><ele>300.0</ele><time>2026-05-02T08:31:01.948Z</time></trkpt><trkpt lat="44.16829036486979" lon="11.58766839025081"><ele>300.0</ele><time>2026-05-02T08:31:02.948Z</time></trkpt><trkpt lat="44.16811068315982" lon="11.587783377099443"><ele>300.0</ele><time>2026-05-02T08:31:03.948Z</time></trkpt><trkpt lat="44.16794230422275" lon="11.587892656296734"><ele>301.0</ele><time>2026-05-02T08:31:04.948Z</time></trkpt><trkpt lat="44.16777938449052" lon="11.587975533118893"><ele>302.0</ele><time>2026-05-02T08:31:05.948Z</time></trkpt><trkpt lat="44.167617280236186" lon="11.588076567099664"><ele>303.0</ele><time>2026-05-02T08:31:06.948Z</time></trkpt><trkpt lat="44.16745392947666" lon="11.588180434475124"><ele>305.0</ele><time>2026-05-02T08:31:07.948Z</time></trkpt><trkpt lat="44.16729224367488" lon="11.588285637137112"><ele>307.0</ele><time>2026-05-02T08:31:08.948Z</time></trkpt><trkpt lat="44.16713128814491" lon="11.58838923429658"><ele>309.0</ele><time>2026-05-02T08:31:09.948Z</time></trkpt><trkpt lat="44.16696947440129" lon="11.588488479402745"><ele>309.0</ele><time>2026-05-02T08:31:10.948Z</time></trkpt><trkpt lat="44.16680974296779" lon="11.588585954657052"><ele>309.0</ele><time>2026-05-02T08:31:11.948Z</time></trkpt><trkpt lat="44.16665672344801" lon="11.588676988611535"><ele>309.0</ele><time>2026-05-02T08:31:12.948Z</time></trkpt><trkpt lat="44.16649951459182" lon="11.588764491511952"><ele>308.0</ele><time>2026-05-02T08:31:13.948Z</time></trkpt><trkpt lat="44.16633295159625" lon="11.588835063778346"><ele>307.0</ele><time>2026-05-02T08:31:14.948Z</time></trkpt><trkpt lat="44.16615232746346" lon="11.588881815980587"><ele>306.0</ele><time>2026-05-02T08:31:15.948Z</time></trkpt><trkpt lat="44.16595299474578" lon="11.588912124380794"><ele>306.0</ele><time>2026-05-02T08:31:16.948Z</time></trkpt><trkpt lat="44.165747414597426" lon="11.588943240592165"><ele>306.0</ele><time>2026-05-02T08:31:17.948Z</time></trkpt><trkpt lat="44.16552765417313" lon="11.588988611666421"><ele>306.0</ele><time>2026-05-02T08:31:18.948Z</time></trkpt><trkpt lat="44.16530918502569" lon="11.589029992307085"><ele>307.0</ele><time>2026-05-02T08:31:19.948Z</time></trkpt><trkpt lat="44.16509919046509" lon="11.589058489808759"><ele>308.0</ele><time>2026-05-02T08:31:20.948Z</time></trkpt><trkpt lat="44.16489141303734" lon="11.58908712317977"><ele>309.0</ele><time>2026-05-02T08:31:21.948Z</time></trkpt><trkpt lat="44.16468910426233" lon="11.589108989083261"><ele>309.6666666666667</ele><time>2026-05-02T08:31:22.948Z</time></trkpt><trkpt lat="44.16448943599315" lon="11.589114726710218"><ele>310.33333333333337</ele><time>2026-05-02T08:31:23.948Z</time></trkpt><trkpt lat="44.164276151117264" lon="11.589081040873719"><ele>311.0</ele><time>2026-05-02T08:31:24.948Z</time></trkpt><trkpt lat="44.16405255131702" lon="11.5890116255061"><ele>312.5</ele><time>2026-05-02T08:31:25.948Z</time></trkpt><trkpt lat="44.16382154578082" lon="11.588932051623644"><ele>314.0</ele><time>2026-05-02T08:31:26.948Z</time></trkpt><trkpt lat="44.16359194813693" lon="11.588848593218213"><ele>314.0</ele><time>2026-05-02T08:31:27.948Z</time></trkpt><trkpt lat="44.16337981943743" lon="11.588772039512046"><ele>314.0</ele><time>2026-05-02T08:31:28.948Z</time></trkpt><trkpt lat="44.1631701420597" lon="11.588703975367226"><ele>314.0</ele><time>2026-05-02T08:31:29.948Z</time></trkpt><trkpt lat="44.162965766740435" lon="11.58864072247212"><ele>315.6666666666667</ele><time>2026-05-02T08:31:30.948Z</time></trkpt><trkpt lat="44.16277773042138" lon="11.588580525921616"><ele>317.3333333333333</ele><time>2026-05-02T08:31:31.948Z</time></trkpt><trkpt lat="44.16260236986895" lon="11.588523974893548"><ele>319.0</ele><time>2026-05-02T08:31:32.948Z</time></trkpt><trkpt lat="44.162434011065656" lon="11.58847136172922"><ele>316.66666666666663</ele><time>2026-05-02T08:31:33.948Z</time></trkpt><trkpt lat="44.1622570920674" lon="11.588415435311866"><ele>314.3333333333333</ele><time>2026-05-02T08:31:34.948Z</time></trkpt><trkpt lat="44.16207642160559" lon="11.58835450310361"><ele>312.0</ele><time>2026-05-02T08:31:35.948Z</time></trkpt><trkpt lat="44.16189215038045" lon="11.588297060275734"><ele>312.0</ele><time>2026-05-02T08:31:36.948Z</time></trkpt><trkpt lat="44.16170419964044" lon="11.588230069929741"><ele>312.0</ele><time>2026-05-02T08:31:37.948Z</time></trkpt><trkpt lat="44.16151601182238" lon="11.588174931524167"><ele>312.0</ele><time>2026-05-02T08:31:38.948Z</time></trkpt><trkpt lat="44.16133953903321" lon="11.58811014094329"><ele>312.6666666666667</ele><time>2026-05-02T08:31:39.948Z</time></trkpt><trkpt lat="44.16117375712261" lon="11.588060265119516"><ele>313.33333333333337</ele><time>2026-05-02T08:31:40.948Z</time></trkpt><trkpt lat="44.1610090042192" lon="11.588008157530343"><ele>314.0</ele><time>2026-05-02T08:31:41.948Z</time></trkpt><trkpt lat="44.16085158768378" lon="11.587948610432925"><ele>313.33333333333337</ele><time>2026-05-02T08:31:42.948Z</time></trkpt><trkpt lat="44.16067740612255" lon="11.587889527684021"><ele>312.6666666666667</ele><time>2026-05-02T08:31:43.948Z</time></trkpt><trkpt lat="44.160512488301634" lon="11.587809468552432"><ele>312.0</ele><time>2026-05-02T08:31:44.948Z</time></trkpt><trkpt lat="44.16035128660852" lon="11.587730700711749"><ele>312.0</ele><time>2026-05-02T08:31:45.948Z</time></trkpt><trkpt lat="44.160205376617895" lon="11.587628856306617"><ele>312.0</ele><time>2026-05-02T08:31:46.948Z</time></trkpt><trkpt lat="44.160053571500676" lon="11.58748256666599"><ele>312.0</ele><time>2026-05-02T08:31:47.948Z</time></trkpt><trkpt lat="44.15991948898359" lon="11.58729974188559"><ele>310.6666666666667</ele><time>2026-05-02T08:31:48.948Z</time></trkpt><trkpt lat="44.15978541809675" lon="11.587103036251296"><ele>309.33333333333337</ele><time>2026-05-02T08:31:49.948Z</time></trkpt><trkpt lat="44.159640659908355" lon="11.586928596002032"><ele>308.0</ele><time>2026-05-02T08:31:50.948Z</time></trkpt><trkpt lat="44.159467146005255" lon="11.586781262156459"><ele>309.33333333333337</ele><time>2026-05-02T08:31:51.948Z</time></trkpt><trkpt lat="44.159280404097615" lon="11.58664595843136"><ele>310.6666666666667</ele><time>2026-05-02T08:31:52.948Z</time></trkpt><trkpt lat="44.15909730630698" lon="11.586518430183983"><ele>312.0</ele><time>2026-05-02T08:31:53.948Z</time></trkpt><trkpt lat="44.15892234720065" lon="11.586394684735678"><ele>312.0</ele><time>2026-05-02T08:31:54.948Z</time></trkpt><trkpt lat="44.15875353934422" lon="11.586266015231137"><ele>312.0</ele><time>2026-05-02T08:31:55.948Z</time></trkpt><trkpt lat="44.15859556498904" lon="11.586138387934412"><ele>312.0</ele><time>2026-05-02T08:31:56.948Z</time></trkpt><trkpt lat="44.15843405657144" lon="11.586012352061232"><ele>315.6666666666667</ele><time>2026-05-02T08:31:57.948Z</time></trkpt><trkpt lat="44.15826536831342" lon="11.585896557675643"><ele>319.33333333333337</ele><time>2026-05-02T08:31:58.948Z</time></trkpt><trkpt lat="44.15808450491107" lon="11.58580097980521"><ele>323.0</ele><time>2026-05-02T08:31:59.948Z</time></trkpt><trkpt lat="44.15789786596275" lon="11.585725761813402"><ele>323.0</ele><time>2026-05-02T08:32:00.948Z</time></trkpt><trkpt lat="44.157712086458666" lon="11.585658847182987"><ele>323.0</ele><time>2026-05-02T08:32:01.948Z</time></trkpt><trkpt lat="44.157519306289664" lon="11.58559993749922"><ele>323.0</ele><time>2026-05-02T08:32:02.948Z</time></trkpt><trkpt lat="44.157326379614005" lon="11.58554051317575"><ele>322.33333333333337</ele><time>2026-05-02T08:32:03.948Z</time></trkpt><trkpt lat="44.15713479847848" lon="11.585479945500097"><ele>321.6666666666667</ele><time>2026-05-02T08:32:04.948Z</time></trkpt><trkpt lat="44.15694998951935" lon="11.585410877608414"><ele>321.0</ele><time>2026-05-02T08:32:05.948Z</time></trkpt><trkpt lat="44.15676440344375" lon="11.58534117312068"><ele>324.0</ele><time>2026-05-02T08:32:06.948Z</time></trkpt><trkpt lat="44.15657640056607" lon="11.585262968309301"><ele>327.0</ele><time>2026-05-02T08:32:07.948Z</time></trkpt><trkpt lat="44.1563859746889" lon="11.585186408497162"><ele>330.0</ele><time>2026-05-02T08:32:08.948Z</time></trkpt><trkpt lat="44.1561922516286" lon="11.585112378589335"><ele>330.0</ele><time>2026-05-02T08:32:09.948Z</time></trkpt><trkpt lat="44.15600167526547" lon="11.585036606446076"><ele>330.0</ele><time>2026-05-02T08:32:10.948Z</time></trkpt><trkpt lat="44.155805215044836" lon="11.584968706661352"><ele>330.0</ele><time>2026-05-02T08:32:11.948Z</time></trkpt><trkpt lat="44.15561310162888" lon="11.584888136004311"><ele>328.0</ele><time>2026-05-02T08:32:12.948Z</time></trkpt><trkpt lat="44.15542305287819" lon="11.584799364172266"><ele>326.0</ele><time>2026-05-02T08:32:13.948Z</time></trkpt><trkpt lat="44.155232203392096" lon="11.584709471810415"><ele>324.0</ele><time>2026-05-02T08:32:14.948Z</time></trkpt><trkpt lat="44.15504175249901" lon="11.584622690057332"><ele>327.0</ele><time>2026-05-02T08:32:15.948Z</time></trkpt><trkpt lat="44.15485109343704" lon="11.584537967890174"><ele>330.0</ele><time>2026-05-02T08:32:16.949Z</time></trkpt><trkpt lat="44.15465922744509" lon="11.584452394895836"><ele>333.0</ele><time>2026-05-02T08:32:17.949Z</time></trkpt><trkpt lat="44.15446493429964" lon="11.584364717452377"><ele>333.0</ele><time>2026-05-02T08:32:18.949Z</time></trkpt><trkpt lat="44.15427167852012" lon="11.58426688697414"><ele>333.0</ele><time>2026-05-02T08:32:19.949Z</time></trkpt><trkpt lat="44.15409245124065" lon="11.584166324005686"><ele>333.0</ele><time>2026-05-02T08:32:20.949Z</time></trkpt><trkpt lat="44.15392882913674" lon="11.584070299231358"><ele>335.6666666666667</ele><time>2026-05-02T08:32:21.949Z</time></trkpt><trkpt lat="44.153780351009566" lon="11.583967088137614"><ele>338.33333333333337</ele><time>2026-05-02T08:32:22.949Z</time></trkpt><trkpt lat="44.153644145739115" lon="11.583843128485082"><ele>341.0</ele><time>2026-05-02T08:32:23.949Z</time></trkpt><trkpt lat="44.153535934101406" lon="11.583662202385693"><ele>341.0</ele><time>2026-05-02T08:32:24.949Z</time></trkpt><trkpt lat="44.153462225271646" lon="11.583470126374921"><ele>341.0</ele><time>2026-05-02T08:32:25.949Z</time></trkpt><trkpt lat="44.15339970772409" lon="11.58331667370437"><ele>341.0</ele><time>2026-05-02T08:32:26.949Z</time></trkpt><trkpt lat="44.15331194256866" lon="11.583223657871846"><ele>341.0</ele><time>2026-05-02T08:32:27.949Z</time></trkpt><trkpt lat="44.153182901449114" lon="11.583177051151504"><ele>337.33333333333337</ele><time>2026-05-02T08:32:28.949Z</time></trkpt><trkpt lat="44.153025982805225" lon="11.583152534725402"><ele>333.6666666666667</ele><time>2026-05-02T08:32:29.949Z</time></trkpt><trkpt lat="44.15286335788612" lon="11.58312567787599"><ele>330.0</ele><time>2026-05-02T08:32:30.949Z</time></trkpt><trkpt lat="44.15271376176577" lon="11.583068158447514"><ele>330.0</ele><time>2026-05-02T08:32:31.949Z</time></trkpt><trkpt lat="44.152571818932266" lon="11.582978200672791"><ele>330.0</ele><time>2026-05-02T08:32:32.949Z</time></trkpt><trkpt lat="44.15242471740324" lon="11.582855317169972"><ele>330.0</ele><time>2026-05-02T08:32:33.949Z</time></trkpt><trkpt lat="44.152264242514214" lon="11.582709104582953"><ele>332.6666666666667</ele><time>2026-05-02T08:32:34.949Z</time></trkpt><trkpt lat="44.15208622085412" lon="11.582577058205658"><ele>335.33333333333337</ele><time>2026-05-02T08:32:35.949Z</time></trkpt><trkpt lat="44.151894182140005" lon="11.582460942202937"><ele>338.0</ele><time>2026-05-02T08:32:36.949Z</time></trkpt><trkpt lat="44.15170371419847" lon="11.582361848384588"><ele>334.6666666666667</ele><time>2026-05-02T08:32:37.949Z</time></trkpt><trkpt lat="44.15152117172044" lon="11.582270768242893"><ele>331.3333333333333</ele><time>2026-05-02T08:32:38.948Z</time></trkpt><trkpt lat="44.15134794230329" lon="11.582194708854429"><ele>328.0</ele><time>2026-05-02T08:32:39.948Z</time></trkpt><trkpt lat="44.15118416552584" lon="11.582113026280217"><ele>328.0</ele><time>2026-05-02T08:32:40.948Z</time></trkpt><trkpt lat="44.15103437365926" lon="11.582034213147947"><ele>328.0</ele><time>2026-05-02T08:32:41.947Z</time></trkpt><trkpt lat="44.150890606015764" lon="11.58197004720724"><ele>328.0</ele><time>2026-05-02T08:32:42.947Z</time></trkpt><trkpt lat="44.15074754578187" lon="11.581900153362493"><ele>331.5</ele><time>2026-05-02T08:32:43.947Z</time></trkpt><trkpt lat="44.15060710520947" lon="11.581838383439488"><ele>335.0</ele><time>2026-05-02T08:32:44.948Z</time></trkpt><trkpt lat="44.150476941093956" lon="11.581776751511129"><ele>338.5</ele><time>2026-05-02T08:32:45.948Z</time></trkpt><trkpt lat="44.15035419886074" lon="11.581722107822166"><ele>342.0</ele><time>2026-05-02T08:32:46.948Z</time></trkpt><trkpt lat="44.150237781754306" lon="11.581663015542196"><ele>342.0</ele><time>2026-05-02T08:32:47.948Z</time></trkpt><trkpt lat="44.150124994221585" lon="11.581609853305773"><ele>342.0</ele><time>2026-05-02T08:32:48.947Z</time></trkpt><trkpt lat="44.15002434614231" lon="11.581559174252869"><ele>342.0</ele><time>2026-05-02T08:32:49.947Z</time></trkpt><trkpt lat="44.14993208943526" lon="11.581520577431672"><ele>342.0</ele><time>2026-05-02T08:32:50.948Z</time></trkpt><trkpt lat="44.149851618687286" lon="11.581481681124213"><ele>342.0</ele><time>2026-05-02T08:32:51.948Z</time></trkpt><trkpt lat="44.14978460185547" lon="11.581449359829685"><ele>339.8333333333333</ele><time>2026-05-02T08:32:52.948Z</time></trkpt><trkpt lat="44.14972334765045" lon="11.581422621694175"><ele>337.6666666666667</ele><time>2026-05-02T08:32:53.948Z</time></trkpt><trkpt lat="44.14961806705103" lon="11.581369927853773"><ele>335.5</ele><time>2026-05-02T08:32:55.948Z</time></trkpt><trkpt lat="44.14955409150052" lon="11.581348971998748"><ele>333.33333333333337</ele><time>2026-05-02T08:32:57.948Z</time></trkpt><trkpt lat="44.14947701660927" lon="11.581327249550242"><ele>331.1666666666667</ele><time>2026-05-02T08:33:17.948Z</time></trkpt><trkpt lat="44.14936533357763" lon="11.58128104429522"><ele>329.0</ele><time>2026-05-02T08:33:19.948Z</time></trkpt><trkpt lat="44.149293085948074" lon="11.58125219519065"><ele>329.0</ele><time>2026-05-02T08:33:20.948Z</time></trkpt><trkpt lat="44.149214050362126" lon="11.581219433234832"><ele>329.0</ele><time>2026-05-02T08:33:21.948Z</time></trkpt><trkpt lat="44.149128428750515" lon="11.581178581377607"><ele>329.0</ele><time>2026-05-02T08:33:22.948Z</time></trkpt><trkpt lat="44.14904332288841" lon="11.58114153863085"><ele>329.0</ele><time>2026-05-02T08:33:23.948Z</time></trkpt><trkpt lat="44.14896076709977" lon="11.581103320051621"><ele>329.0</ele><time>2026-05-02T08:33:24.948Z</time></trkpt><trkpt lat="44.14888629622312" lon="11.58106543594382"><ele>329.0</ele><time>2026-05-02T08:33:25.948Z</time></trkpt><trkpt lat="44.148806858620034" lon="11.581024720555062"><ele>330.2</ele><time>2026-05-02T08:33:26.948Z</time></trkpt><trkpt lat="44.14872216215925" lon="11.580978847456759"><ele>331.4</ele><time>2026-05-02T08:33:27.948Z</time></trkpt><trkpt lat="44.148631976045884" lon="11.580930205972498"><ele>332.6</ele><time>2026-05-02T08:33:28.948Z</time></trkpt><trkpt lat="44.148537698020824" lon="11.580881856933942"><ele>333.8</ele><time>2026-05-02T08:33:29.948Z</time></trkpt><trkpt lat="44.148434425721184" lon="11.58083433014073"><ele>335.0</ele><time>2026-05-02T08:33:30.948Z</time></trkpt><trkpt lat="44.14833230639682" lon="11.580784837333528"><ele>335.0</ele><time>2026-05-02T08:33:31.948Z</time></trkpt><trkpt lat="44.14822421541843" lon="11.5807438779046"><ele>335.0</ele><time>2026-05-02T08:33:32.948Z</time></trkpt><trkpt lat="44.148108681721666" lon="11.580703049289987"><ele>335.0</ele><time>2026-05-02T08:33:33.948Z</time></trkpt><trkpt lat="44.147992160331015" lon="11.580662986940673"><ele>335.0</ele><time>2026-05-02T08:33:34.948Z</time></trkpt><trkpt lat="44.14787342742938" lon="11.580624316080488"><ele>334.8</ele><time>2026-05-02T08:33:35.948Z</time></trkpt><trkpt lat="44.147758573513265" lon="11.580590254829106"><ele>334.6</ele><time>2026-05-02T08:33:36.948Z</time></trkpt><trkpt lat="44.1476479603817" lon="11.580556756241775"><ele>334.4</ele><time>2026-05-02T08:33:37.948Z</time></trkpt><trkpt lat="44.147546560819194" lon="11.580521495298715"><ele>334.2</ele><time>2026-05-02T08:33:38.948Z</time></trkpt><trkpt lat="44.14743681791601" lon="11.580485258143193"><ele>334.0</ele><time>2026-05-02T08:33:39.948Z</time></trkpt><trkpt lat="44.14732425339934" lon="11.580446424482593"><ele>334.5</ele><time>2026-05-02T08:33:40.948Z</time></trkpt><trkpt lat="44.14720199682691" lon="11.580418196277158"><ele>335.0</ele><time>2026-05-02T08:33:41.948Z</time></trkpt><trkpt lat="44.14707292778789" lon="11.580396163345956"><ele>335.5</ele><time>2026-05-02T08:33:42.948Z</time></trkpt><trkpt lat="44.14694217781982" lon="11.580379129042534"><ele>336.0</ele><time>2026-05-02T08:33:43.948Z</time></trkpt><trkpt lat="44.14680757319367" lon="11.580351117101038"><ele>336.25</ele><time>2026-05-02T08:33:44.948Z</time></trkpt><trkpt lat="44.146678678771856" lon="11.580304317076935"><ele>336.5</ele><time>2026-05-02T08:33:45.948Z</time></trkpt><trkpt lat="44.14654835047321" lon="11.58025122602606"><ele>336.75</ele><time>2026-05-02T08:33:46.948Z</time></trkpt><trkpt lat="44.146416990820654" lon="11.580183836115115"><ele>337.0</ele><time>2026-05-02T08:33:47.948Z</time></trkpt><trkpt lat="44.14628516810631" lon="11.580100054297395"><ele>337.0</ele><time>2026-05-02T08:33:48.948Z</time></trkpt><trkpt lat="44.146146874646156" lon="11.579999814906662"><ele>337.0</ele><time>2026-05-02T08:33:49.948Z</time></trkpt><trkpt lat="44.14602118409739" lon="11.579868286590132"><ele>337.0</ele><time>2026-05-02T08:33:50.948Z</time></trkpt><trkpt lat="44.14590631499757" lon="11.579721359468872"><ele>337.0</ele><time>2026-05-02T08:33:51.948Z</time></trkpt><trkpt lat="44.1458047304084" lon="11.57957304071346"><ele>337.0</ele><time>2026-05-02T08:33:52.948Z</time></trkpt><trkpt lat="44.1456976538211" lon="11.579431842467375"><ele>337.0</ele><time>2026-05-02T08:33:53.948Z</time></trkpt><trkpt lat="44.145581933923694" lon="11.579293992620093"><ele>337.0</ele><time>2026-05-02T08:33:54.948Z</time></trkpt><trkpt lat="44.14545632449072" lon="11.579172773030034"><ele>338.3333333333333</ele><time>2026-05-02T08:33:55.948Z</time></trkpt><trkpt lat="44.14532495967599" lon="11.579056802253248"><ele>339.6666666666667</ele><time>2026-05-02T08:33:56.948Z</time></trkpt><trkpt lat="44.14519832827001" lon="11.578942210820761"><ele>341.0</ele><time>2026-05-02T08:33:57.948Z</time></trkpt><trkpt lat="44.145065022922026" lon="11.578833404822582"><ele>341.0</ele><time>2026-05-02T08:33:58.948Z</time></trkpt><trkpt lat="44.14493097818548" lon="11.578721304695355"><ele>341.0</ele><time>2026-05-02T08:33:59.948Z</time></trkpt><trkpt lat="44.14479203624694" lon="11.578606770615023"><ele>341.0</ele><time>2026-05-02T08:34:00.948Z</time></trkpt><trkpt lat="44.144661413349944" lon="11.578504306632263"><ele>341.25</ele><time>2026-05-02T08:34:01.948Z</time></trkpt><trkpt lat="44.14453512185861" lon="11.57840580427569"><ele>341.5</ele><time>2026-05-02T08:34:02.948Z</time></trkpt><trkpt lat="44.14441394790406" lon="11.578310083339469"><ele>341.75</ele><time>2026-05-02T08:34:03.948Z</time></trkpt><trkpt lat="44.144303189825436" lon="11.57820568785714"><ele>342.0</ele><time>2026-05-02T08:34:04.948Z</time></trkpt><trkpt lat="44.14420294033286" lon="11.578088428696306"><ele>342.0</ele><time>2026-05-02T08:34:05.948Z</time></trkpt><trkpt lat="44.14411161292143" lon="11.577946110226911"><ele>342.0</ele><time>2026-05-02T08:34:06.948Z</time></trkpt><trkpt lat="44.14404522391027" lon="11.577772703096606"><ele>342.0</ele><time>2026-05-02T08:34:07.948Z</time></trkpt><trkpt lat="44.14400094865215" lon="11.57757841198292"><ele>342.0</ele><time>2026-05-02T08:34:08.948Z</time></trkpt><trkpt lat="44.14396966999458" lon="11.577368556089787"><ele>343.0</ele><time>2026-05-02T08:34:09.948Z</time></trkpt><trkpt lat="44.14394536031769" lon="11.57715538070678"><ele>344.0</ele><time>2026-05-02T08:34:10.948Z</time></trkpt><trkpt lat="44.14391860157984" lon="11.576960498450052"><ele>345.0</ele><time>2026-05-02T08:34:11.948Z</time></trkpt><trkpt lat="44.143888772615455" lon="11.576778753957104"><ele>346.0</ele><time>2026-05-02T08:34:12.948Z</time></trkpt><trkpt lat="44.1438469252865" lon="11.576581992084803"><ele>346.0</ele><time>2026-05-02T08:34:13.948Z</time></trkpt><trkpt lat="44.14377857674635" lon="11.576383436113508"><ele>346.0</ele><time>2026-05-02T08:34:14.948Z</time></trkpt><trkpt lat="44.14369209924239" lon="11.57619905777846"><ele>346.0</ele><time>2026-05-02T08:34:15.948Z</time></trkpt><trkpt lat="44.143598231629" lon="11.576040133466902"><ele>346.75</ele><time>2026-05-02T08:34:16.948Z</time></trkpt><trkpt lat="44.143496558580715" lon="11.575894765934507"><ele>347.5</ele><time>2026-05-02T08:34:17.948Z</time></trkpt><trkpt lat="44.14339805220663" lon="11.575770334150398"><ele>348.25</ele><time>2026-05-02T08:34:18.948Z</time></trkpt><trkpt lat="44.14329110672647" lon="11.57568152047437"><ele>349.0</ele><time>2026-05-02T08:34:19.948Z</time></trkpt><trkpt lat="44.143168435029786" lon="11.575623891712732"><ele>349.0</ele><time>2026-05-02T08:34:20.948Z</time></trkpt><trkpt lat="44.143045322992066" lon="11.575579382582308"><ele>349.0</ele><time>2026-05-02T08:34:21.948Z</time></trkpt><trkpt lat="44.14292113181488" lon="11.575522300405021"><ele>349.0</ele><time>2026-05-02T08:34:22.948Z</time></trkpt><trkpt lat="44.142786478041195" lon="11.575468250349498"><ele>349.0</ele><time>2026-05-02T08:34:23.948Z</time></trkpt><trkpt lat="44.14265352191289" lon="11.575413557956214"><ele>349.0</ele><time>2026-05-02T08:34:24.948Z</time></trkpt><trkpt lat="44.14251177138997" lon="11.575356304800174"><ele>349.0</ele><time>2026-05-02T08:34:25.948Z</time></trkpt><trkpt lat="44.14236932981215" lon="11.575304147081944"><ele>349.0</ele><time>2026-05-02T08:34:26.948Z</time></trkpt><trkpt lat="44.14222613467109" lon="11.575250842412093"><ele>349.0</ele><time>2026-05-02T08:34:27.948Z</time></trkpt><trkpt lat="44.142069050313935" lon="11.57519145272994"><ele>352.0</ele><time>2026-05-02T08:34:28.948Z</time></trkpt><trkpt lat="44.14190689115409" lon="11.575130254700131"><ele>355.0</ele><time>2026-05-02T08:34:29.948Z</time></trkpt><trkpt lat="44.14174831479428" lon="11.575056353096521"><ele>358.0</ele><time>2026-05-02T08:34:30.948Z</time></trkpt><trkpt lat="44.14159715199382" lon="11.57497299251067"><ele>357.3333333333333</ele><time>2026-05-02T08:34:31.948Z</time></trkpt><trkpt lat="44.14145583152824" lon="11.574879979045265"><ele>356.6666666666667</ele><time>2026-05-02T08:34:32.948Z</time></trkpt><trkpt lat="44.14131987746716" lon="11.574771245786295"><ele>356.0</ele><time>2026-05-02T08:34:33.948Z</time></trkpt><trkpt lat="44.141189009603316" lon="11.574645192796417"><ele>358.6666666666667</ele><time>2026-05-02T08:34:34.948Z</time></trkpt><trkpt lat="44.14105432698509" lon="11.57451221934125"><ele>361.3333333333333</ele><time>2026-05-02T08:34:35.948Z</time></trkpt><trkpt lat="44.14090223374511" lon="11.574396907886973"><ele>364.0</ele><time>2026-05-02T08:34:36.948Z</time></trkpt><trkpt lat="44.14074034664129" lon="11.574304474336"><ele>361.66666666666663</ele><time>2026-05-02T08:34:37.948Z</time></trkpt><trkpt lat="44.140573920170056" lon="11.574203835991582"><ele>359.3333333333333</ele><time>2026-05-02T08:34:38.948Z</time></trkpt><trkpt lat="44.14041185553993" lon="11.574107383791105"><ele>357.0</ele><time>2026-05-02T08:34:39.948Z</time></trkpt><trkpt lat="44.140245261027914" lon="11.574021839648196"><ele>357.0</ele><time>2026-05-02T08:34:40.948Z</time></trkpt><trkpt lat="44.140093736115915" lon="11.573919794036431"><ele>357.0</ele><time>2026-05-02T08:34:41.948Z</time></trkpt><trkpt lat="44.139952961903866" lon="11.573812583261093"><ele>357.0</ele><time>2026-05-02T08:34:42.948Z</time></trkpt><trkpt lat="44.13982674405744" lon="11.573659924356065"><ele>360.3333333333333</ele><time>2026-05-02T08:34:43.948Z</time></trkpt><trkpt lat="44.13971398042283" lon="11.573516341340527"><ele>363.66666666666663</ele><time>2026-05-02T08:34:44.947Z</time></trkpt><trkpt lat="44.139621516100696" lon="11.573331549218597"><ele>367.0</ele><time>2026-05-02T08:34:45.947Z</time></trkpt><trkpt lat="44.13954892999715" lon="11.573116049896221"><ele>366.3333333333333</ele><time>2026-05-02T08:34:46.947Z</time></trkpt><trkpt lat="44.139491561966366" lon="11.57284715111586"><ele>365.6666666666667</ele><time>2026-05-02T08:34:47.947Z</time></trkpt><trkpt lat="44.13945222896184" lon="11.572603807594874"><ele>365.0</ele><time>2026-05-02T08:34:48.947Z</time></trkpt><trkpt lat="44.13940641894264" lon="11.572358746905522"><ele>365.0</ele><time>2026-05-02T08:34:49.948Z</time></trkpt><trkpt lat="44.139374176876984" lon="11.572118695432358"><ele>365.0</ele><time>2026-05-02T08:34:50.947Z</time></trkpt><trkpt lat="44.13935972131796" lon="11.571889861485857"><ele>365.0</ele><time>2026-05-02T08:34:51.947Z</time></trkpt><trkpt lat="44.13935323681983" lon="11.57168216978997"><ele>365.0</ele><time>2026-05-02T08:34:52.947Z</time></trkpt><trkpt lat="44.13935632597914" lon="11.571494620383655"><ele>365.0</ele><time>2026-05-02T08:34:53.948Z</time></trkpt><trkpt lat="44.1393955519937" lon="11.571317099556508"><ele>365.0</ele><time>2026-05-02T08:34:54.948Z</time></trkpt><trkpt lat="44.13947575499157" lon="11.571167208867092"><ele>365.0</ele><time>2026-05-02T08:34:55.947Z</time></trkpt><trkpt lat="44.13957807437796" lon="11.571037089459423"><ele>365.0</ele><time>2026-05-02T08:34:56.947Z</time></trkpt><trkpt lat="44.139709480335135" lon="11.570916381590932"><ele>365.0</ele><time>2026-05-02T08:34:57.947Z</time></trkpt><trkpt lat="44.13985757187244" lon="11.570798208340099"><ele>365.0</ele><time>2026-05-02T08:34:58.947Z</time></trkpt><trkpt lat="44.140014551186695" lon="11.570669955152313"><ele>363.33333333333337</ele><time>2026-05-02T08:34:59.947Z</time></trkpt><trkpt lat="44.1401774724464" lon="11.570532001054692"><ele>361.6666666666667</ele><time>2026-05-02T08:35:00.947Z</time></trkpt><trkpt lat="44.14033598464837" lon="11.570400062606707"><ele>360.0</ele><time>2026-05-02T08:35:01.947Z</time></trkpt><trkpt lat="44.14047721404226" lon="11.570282462022153"><ele>360.0</ele><time>2026-05-02T08:35:02.947Z</time></trkpt><trkpt lat="44.140603080759725" lon="11.570176963444718"><ele>360.0</ele><time>2026-05-02T08:35:03.947Z</time></trkpt><trkpt lat="44.14070007142514" lon="11.570095911744524"><ele>360.0</ele><time>2026-05-02T08:35:04.947Z</time></trkpt><trkpt lat="44.1407645747067" lon="11.57000049158819"><ele>360.0</ele><time>2026-05-02T08:35:05.947Z</time></trkpt><trkpt lat="44.14079066532181" lon="11.569878290280888"><ele>360.0</ele><time>2026-05-02T08:35:06.947Z</time></trkpt><trkpt lat="44.140772876741075" lon="11.569735126858358"><ele>360.25</ele><time>2026-05-02T08:35:07.947Z</time></trkpt><trkpt lat="44.14071863706169" lon="11.569583002578751"><ele>360.5</ele><time>2026-05-02T08:35:08.947Z</time></trkpt><trkpt lat="44.14065275841189" lon="11.569416975135626"><ele>360.75</ele><time>2026-05-02T08:35:09.947Z</time></trkpt><trkpt lat="44.14059214435308" lon="11.569227411779119"><ele>361.0</ele><time>2026-05-02T08:35:10.947Z</time></trkpt><trkpt lat="44.140537740175674" lon="11.569023212307052"><ele>361.0</ele><time>2026-05-02T08:35:11.947Z</time></trkpt><trkpt lat="44.14050027077463" lon="11.568807986880268"><ele>361.0</ele><time>2026-05-02T08:35:12.947Z</time></trkpt><trkpt lat="44.1404719579304" lon="11.568582168025221"><ele>361.0</ele><time>2026-05-02T08:35:13.947Z</time></trkpt><trkpt lat="44.14044387418779" lon="11.568363257465155"><ele>363.66666666666663</ele><time>2026-05-02T08:35:14.947Z</time></trkpt><trkpt lat="44.14039181205219" lon="11.568149827592269"><ele>366.3333333333333</ele><time>2026-05-02T08:35:15.947Z</time></trkpt><trkpt lat="44.14031803853909" lon="11.567955402072293"><ele>369.0</ele><time>2026-05-02T08:35:16.947Z</time></trkpt><trkpt lat="44.14020838136609" lon="11.567791164655814"><ele>369.6666666666667</ele><time>2026-05-02T08:35:17.947Z</time></trkpt><trkpt lat="44.14006863925869" lon="11.56765005919577"><ele>370.33333333333337</ele><time>2026-05-02T08:35:18.947Z</time></trkpt><trkpt lat="44.13990104896126" lon="11.567525472529422"><ele>371.0</ele><time>2026-05-02T08:35:19.947Z</time></trkpt><trkpt lat="44.13972286445142" lon="11.567415115145618"><ele>371.0</ele><time>2026-05-02T08:35:20.947Z</time></trkpt><trkpt lat="44.139558417587715" lon="11.567299974189524"><ele>371.0</ele><time>2026-05-02T08:35:21.947Z</time></trkpt><trkpt lat="44.139400587021335" lon="11.567173012473674"><ele>371.0</ele><time>2026-05-02T08:35:22.947Z</time></trkpt><trkpt lat="44.13926107877734" lon="11.567014677981442"><ele>372.6666666666667</ele><time>2026-05-02T08:35:23.947Z</time></trkpt><trkpt lat="44.13913244091026" lon="11.56684553997804"><ele>374.3333333333333</ele><time>2026-05-02T08:35:24.947Z</time></trkpt><trkpt lat="44.139005474622095" lon="11.566675006848891"><ele>376.0</ele><time>2026-05-02T08:35:25.947Z</time></trkpt><trkpt lat="44.13888475403138" lon="11.566507808511666"><ele>376.0</ele><time>2026-05-02T08:35:26.947Z</time></trkpt><trkpt lat="44.138760991050006" lon="11.566353541636635"><ele>376.0</ele><time>2026-05-02T08:35:27.947Z</time></trkpt><trkpt lat="44.13862303532391" lon="11.56621315391436"><ele>376.0</ele><time>2026-05-02T08:35:28.947Z</time></trkpt><trkpt lat="44.138481969076516" lon="11.566078040446328"><ele>376.66666666666663</ele><time>2026-05-02T08:35:29.947Z</time></trkpt><trkpt lat="44.13834677348281" lon="11.565953643744175"><ele>377.3333333333333</ele><time>2026-05-02T08:35:30.947Z</time></trkpt><trkpt lat="44.13821748578096" lon="11.565827906890844"><ele>378.0</ele><time>2026-05-02T08:35:31.947Z</time></trkpt><trkpt lat="44.13809744737882" lon="11.565686866456177"><ele>378.0</ele><time>2026-05-02T08:35:32.947Z</time></trkpt><trkpt lat="44.13798963929017" lon="11.565532705692386"><ele>378.0</ele><time>2026-05-02T08:35:33.947Z</time></trkpt><trkpt lat="44.13788677862274" lon="11.565350726283665"><ele>378.0</ele><time>2026-05-02T08:35:34.947Z</time></trkpt><trkpt lat="44.13780500325466" lon="11.565173167851638"><ele>379.3333333333333</ele><time>2026-05-02T08:35:35.947Z</time></trkpt><trkpt lat="44.13774142285667" lon="11.564982805891438"><ele>380.66666666666663</ele><time>2026-05-02T08:35:36.947Z</time></trkpt><trkpt lat="44.13770492183603" lon="11.564766895703254"><ele>382.0</ele><time>2026-05-02T08:35:37.947Z</time></trkpt><trkpt lat="44.13767310897893" lon="11.564548818013469"><ele>383.3333333333333</ele><time>2026-05-02T08:35:38.947Z</time></trkpt><trkpt lat="44.137663944109825" lon="11.564328216839419"><ele>384.66666666666663</ele><time>2026-05-02T08:35:39.947Z</time></trkpt><trkpt lat="44.13767919182915" lon="11.564101376713024"><ele>386.0</ele><time>2026-05-02T08:35:40.947Z</time></trkpt><trkpt lat="44.13772118105076" lon="11.563869404916822"><ele>385.3333333333333</ele><time>2026-05-02T08:35:41.947Z</time></trkpt><trkpt lat="44.13776951078448" lon="11.563640201825379"><ele>384.66666666666663</ele><time>2026-05-02T08:35:42.947Z</time></trkpt><trkpt lat="44.13781522572565" lon="11.56342028107684"><ele>384.0</ele><time>2026-05-02T08:35:43.947Z</time></trkpt><trkpt lat="44.137833608327995" lon="11.563195219555295"><ele>384.0</ele><time>2026-05-02T08:35:44.947Z</time></trkpt><trkpt lat="44.13782771198069" lon="11.562964994792209"><ele>384.0</ele><time>2026-05-02T08:35:45.947Z</time></trkpt><trkpt lat="44.13779686387756" lon="11.562732024221704"><ele>384.0</ele><time>2026-05-02T08:35:46.947Z</time></trkpt><trkpt lat="44.13776161138424" lon="11.562510194573358"><ele>384.33333333333337</ele><time>2026-05-02T08:35:47.947Z</time></trkpt><trkpt lat="44.137735889291136" lon="11.562288833617156"><ele>384.6666666666667</ele><time>2026-05-02T08:35:48.947Z</time></trkpt><trkpt lat="44.137740268550814" lon="11.562069299631766"><ele>385.0</ele><time>2026-05-02T08:35:49.947Z</time></trkpt><trkpt lat="44.13777151624394" lon="11.561845393818324"><ele>385.0</ele><time>2026-05-02T08:35:50.947Z</time></trkpt><trkpt lat="44.137826963220455" lon="11.561636203555143"><ele>385.0</ele><time>2026-05-02T08:35:51.947Z</time></trkpt><trkpt lat="44.137911027509226" lon="11.561443792242406"><ele>385.0</ele><time>2026-05-02T08:35:52.947Z</time></trkpt><trkpt lat="44.13801001861045" lon="11.561285716294288"><ele>386.0</ele><time>2026-05-02T08:35:53.947Z</time></trkpt><trkpt lat="44.138106383217966" lon="11.561129145910424"><ele>387.0</ele><time>2026-05-02T08:35:54.947Z</time></trkpt><trkpt lat="44.13817916904745" lon="11.560932553058166"><ele>388.0</ele><time>2026-05-02T08:35:55.947Z</time></trkpt><trkpt lat="44.13822621539255" lon="11.560717843191076"><ele>392.6666666666667</ele><time>2026-05-02T08:35:56.947Z</time></trkpt><trkpt lat="44.138253636350065" lon="11.56049088252938"><ele>397.33333333333337</ele><time>2026-05-02T08:35:57.947Z</time></trkpt><trkpt lat="44.1382713110185" lon="11.560254732202743"><ele>402.0</ele><time>2026-05-02T08:35:58.947Z</time></trkpt><trkpt lat="44.13827381445425" lon="11.560027859472962"><ele>402.0</ele><time>2026-05-02T08:35:59.947Z</time></trkpt><trkpt lat="44.138266355929886" lon="11.559819605984123"><ele>402.0</ele><time>2026-05-02T08:36:00.947Z</time></trkpt><trkpt lat="44.1382530086902" lon="11.559623059119305"><ele>402.0</ele><time>2026-05-02T08:36:01.947Z</time></trkpt><trkpt lat="44.138231840423565" lon="11.559450281260911"><ele>402.0</ele><time>2026-05-02T08:36:02.947Z</time></trkpt><trkpt lat="44.13819946079099" lon="11.559288825545488"><ele>403.8</ele><time>2026-05-02T08:36:03.947Z</time></trkpt><trkpt lat="44.13815369315699" lon="11.55914564290748"><ele>405.6</ele><time>2026-05-02T08:36:04.947Z</time></trkpt><trkpt lat="44.13810085277885" lon="11.558998327233583"><ele>407.40000000000003</ele><time>2026-05-02T08:36:05.947Z</time></trkpt><trkpt lat="44.13805181477236" lon="11.558865942910918"><ele>409.20000000000005</ele><time>2026-05-02T08:36:06.947Z</time></trkpt><trkpt lat="44.13800691248299" lon="11.55873868364862"><ele>411.0</ele><time>2026-05-02T08:36:07.947Z</time></trkpt><trkpt lat="44.13795487330514" lon="11.558633925163635"><ele>411.0</ele><time>2026-05-02T08:36:08.947Z</time></trkpt><trkpt lat="44.13788091203065" lon="11.558537082694455"><ele>411.0</ele><time>2026-05-02T08:36:09.947Z</time></trkpt><trkpt lat="44.13777885628113" lon="11.558470166652347"><ele>411.0</ele><time>2026-05-02T08:36:10.947Z</time></trkpt><trkpt lat="44.137655269584776" lon="11.55843177303841"><ele>411.0</ele><time>2026-05-02T08:36:11.947Z</time></trkpt><trkpt lat="44.13752502941996" lon="11.558403466508429"><ele>415.0</ele><time>2026-05-02T08:36:12.947Z</time></trkpt><trkpt lat="44.13738137807392" lon="11.558380886895717"><ele>419.0</ele><time>2026-05-02T08:36:13.947Z</time></trkpt><trkpt lat="44.13723126772999" lon="11.558400871909882"><ele>423.0</ele><time>2026-05-02T08:36:14.947Z</time></trkpt><trkpt lat="44.1370835968354" lon="11.558466067000495"><ele>423.0</ele><time>2026-05-02T08:36:15.947Z</time></trkpt><trkpt lat="44.13693251398196" lon="11.558548388523127"><ele>423.0</ele><time>2026-05-02T08:36:16.947Z</time></trkpt><trkpt lat="44.13676749903721" lon="11.558623018400581"><ele>423.0</ele><time>2026-05-02T08:36:17.947Z</time></trkpt><trkpt lat="44.13658498068798" lon="11.558679554630396"><ele>417.0</ele><time>2026-05-02T08:36:18.947Z</time></trkpt><trkpt lat="44.13640048133178" lon="11.558736378042203"><ele>411.0</ele><time>2026-05-02T08:36:19.947Z</time></trkpt><trkpt lat="44.13621920272939" lon="11.558807050912444"><ele>405.0</ele><time>2026-05-02T08:36:20.947Z</time></trkpt><trkpt lat="44.1360540724902" lon="11.558881022129068"><ele>405.0</ele><time>2026-05-02T08:36:21.947Z</time></trkpt><trkpt lat="44.135892060177724" lon="11.558975244407215"><ele>405.0</ele><time>2026-05-02T08:36:22.947Z</time></trkpt><trkpt lat="44.13573685304654" lon="11.559085940435585"><ele>405.0</ele><time>2026-05-02T08:36:23.947Z</time></trkpt><trkpt lat="44.1355809932696" lon="11.55914792496998"><ele>404.4</ele><time>2026-05-02T08:36:24.947Z</time></trkpt><trkpt lat="44.135466441522446" lon="11.559246097301324"><ele>403.8</ele><time>2026-05-02T08:36:25.947Z</time></trkpt><trkpt lat="44.135369902282285" lon="11.559332388425926"><ele>403.20000000000005</ele><time>2026-05-02T08:36:26.947Z</time></trkpt><trkpt lat="44.135287413906376" lon="11.559406958091932"><ele>402.6</ele><time>2026-05-02T08:36:27.947Z</time></trkpt><trkpt lat="44.13522484060544" lon="11.559482657967536"><ele>402.0</ele><time>2026-05-02T08:36:28.947Z</time></trkpt><trkpt lat="44.13515151929421" lon="11.559507352267671"><ele>402.0</ele><time>2026-05-02T08:36:29.947Z</time></trkpt><trkpt lat="44.13508578164529" lon="11.559470639639747"><ele>402.0</ele><time>2026-05-02T08:36:30.947Z</time></trkpt><trkpt lat="44.13503581684559" lon="11.559382325747709"><ele>402.0</ele><time>2026-05-02T08:36:31.947Z</time></trkpt><trkpt lat="44.1350160373692" lon="11.559264582757594"><ele>402.0</ele><time>2026-05-02T08:36:32.947Z</time></trkpt><trkpt lat="44.13501151371753" lon="11.559158372584964"><ele>402.0</ele><time>2026-05-02T08:36:33.947Z</time></trkpt><trkpt lat="44.1350296339514" lon="11.559060842502737"><ele>402.0</ele><time>2026-05-02T08:36:34.947Z</time></trkpt><trkpt lat="44.13504030310882" lon="11.558908588557992"><ele>402.0</ele><time>2026-05-02T08:36:36.947Z</time></trkpt><trkpt lat="44.13504459567045" lon="11.55880882491811"><ele>402.0</ele><time>2026-05-02T08:36:38.947Z</time></trkpt><trkpt lat="44.13506193554395" lon="11.558716664545528"><ele>402.0</ele><time>2026-05-02T08:36:41.947Z</time></trkpt><trkpt lat="44.13506828241327" lon="11.558628430597983"><ele>402.0</ele><time>2026-05-02T08:37:01.947Z</time></trkpt><trkpt lat="44.13509752849636" lon="11.558461048678604"><ele>402.0</ele><time>2026-05-02T08:37:03.946Z</time></trkpt><trkpt lat="44.13512193730034" lon="11.558355517940686"><ele>402.0</ele><time>2026-05-02T08:37:04.946Z</time></trkpt><trkpt lat="44.135196037959865" lon="11.558292922499902"><ele>401.6666666666667</ele><time>2026-05-02T08:37:05.946Z</time></trkpt><trkpt lat="44.13529197601957" lon="11.55826916057461"><ele>401.33333333333337</ele><time>2026-05-02T08:37:06.946Z</time></trkpt><trkpt lat="44.13537855959767" lon="11.558275563364296"><ele>401.0</ele><time>2026-05-02T08:37:07.946Z</time></trkpt><trkpt lat="44.13545034570226" lon="11.558246406340606"><ele>400.6666666666667</ele><time>2026-05-02T08:37:08.946Z</time></trkpt><trkpt lat="44.13551988735508" lon="11.55820460540966"><ele>400.33333333333337</ele><time>2026-05-02T08:37:09.946Z</time></trkpt><trkpt lat="44.13555169985651" lon="11.558059896075324"><ele>400.0</ele><time>2026-05-02T08:37:10.946Z</time></trkpt><trkpt lat="44.135531705710584" lon="11.557907321964192"><ele>401.5</ele><time>2026-05-02T08:37:11.946Z</time></trkpt><trkpt lat="44.13548143632092" lon="11.557755881886244"><ele>403.0</ele><time>2026-05-02T08:37:12.946Z</time></trkpt><trkpt lat="44.13538211083211" lon="11.557639421174105"><ele>404.5</ele><time>2026-05-02T08:37:13.946Z</time></trkpt><trkpt lat="44.135274792667" lon="11.557536152386774"><ele>406.0</ele><time>2026-05-02T08:37:14.946Z</time></trkpt><trkpt lat="44.13514944976142" lon="11.557432970198919"><ele>406.0</ele><time>2026-05-02T08:37:15.946Z</time></trkpt><trkpt lat="44.13501641978286" lon="11.55733143135672"><ele>406.0</ele><time>2026-05-02T08:37:16.946Z</time></trkpt><trkpt lat="44.13489200691319" lon="11.557231734046121"><ele>406.0</ele><time>2026-05-02T08:37:17.946Z</time></trkpt><trkpt lat="44.13478512251491" lon="11.557157275878499"><ele>406.0</ele><time>2026-05-02T08:37:18.946Z</time></trkpt><trkpt lat="44.1346901578721" lon="11.557088276093008"><ele>407.0</ele><time>2026-05-02T08:37:19.946Z</time></trkpt><trkpt lat="44.134598988614655" lon="11.557013343249238"><ele>408.0</ele><time>2026-05-02T08:37:20.946Z</time></trkpt><trkpt lat="44.13456149997892" lon="11.55685976808718"><ele>409.0</ele><time>2026-05-02T08:37:21.946Z</time></trkpt><trkpt lat="44.13453798744954" lon="11.55668317849662"><ele>410.0</ele><time>2026-05-02T08:37:22.946Z</time></trkpt><trkpt lat="44.134508171527116" lon="11.556490475435513"><ele>410.0</ele><time>2026-05-02T08:37:23.946Z</time></trkpt><trkpt lat="44.13448060511308" lon="11.55628505526335"><ele>410.0</ele><time>2026-05-02T08:37:24.946Z</time></trkpt><trkpt lat="44.134464135747656" lon="11.556086656268064"><ele>410.0</ele><time>2026-05-02T08:37:25.946Z</time></trkpt><trkpt lat="44.134441682423365" lon="11.555911324246875"><ele>410.0</ele><time>2026-05-02T08:37:26.946Z</time></trkpt><trkpt lat="44.13443476867471" lon="11.55576470201641"><ele>414.0</ele><time>2026-05-02T08:37:27.946Z</time></trkpt><trkpt lat="44.13441628432245" lon="11.555632914624208"><ele>418.0</ele><time>2026-05-02T08:37:28.946Z</time></trkpt><trkpt lat="44.134374323016026" lon="11.555538426837913"><ele>422.0</ele><time>2026-05-02T08:37:29.946Z</time></trkpt><trkpt lat="44.13429223594979" lon="11.555488815037906"><ele>426.0</ele><time>2026-05-02T08:37:30.946Z</time></trkpt><trkpt lat="44.134202857485754" lon="11.555514963781603"><ele>430.0</ele><time>2026-05-02T08:37:31.946Z</time></trkpt><trkpt lat="44.134128768895074" lon="11.555605940072507"><ele>430.0</ele><time>2026-05-02T08:37:32.946Z</time></trkpt><trkpt lat="44.134068869091855" lon="11.555749707304049"><ele>430.0</ele><time>2026-05-02T08:37:33.946Z</time></trkpt><trkpt lat="44.13403482966233" lon="11.555925734251181"><ele>430.0</ele><time>2026-05-02T08:37:34.946Z</time></trkpt><trkpt lat="44.13401714262529" lon="11.55608915127779"><ele>430.0</ele><time>2026-05-02T08:37:35.946Z</time></trkpt><trkpt lat="44.134006436066684" lon="11.556253413649275"><ele>432.0</ele><time>2026-05-02T08:37:36.946Z</time></trkpt><trkpt lat="44.13396097340909" lon="11.556355404383035"><ele>434.0</ele><time>2026-05-02T08:37:37.946Z</time></trkpt><trkpt lat="44.13387608304756" lon="11.556417752446427"><ele>436.0</ele><time>2026-05-02T08:37:38.946Z</time></trkpt><trkpt lat="44.133751274851456" lon="11.556466309355235"><ele>438.0</ele><time>2026-05-02T08:37:39.946Z</time></trkpt><trkpt lat="44.13361732450072" lon="11.556521750493808"><ele>438.0</ele><time>2026-05-02T08:37:40.946Z</time></trkpt><trkpt lat="44.133462361119406" lon="11.556574049176097"><ele>438.0</ele><time>2026-05-02T08:37:41.946Z</time></trkpt><trkpt lat="44.1333104888606" lon="11.556659634542893"><ele>438.0</ele><time>2026-05-02T08:37:42.946Z</time></trkpt><trkpt lat="44.1331603301444" lon="11.556774074153477"><ele>436.33333333333337</ele><time>2026-05-02T08:37:43.946Z</time></trkpt><trkpt lat="44.133012351069404" lon="11.556903345058977"><ele>434.6666666666667</ele><time>2026-05-02T08:37:44.946Z</time></trkpt><trkpt lat="44.132874310163615" lon="11.557039524108774"><ele>433.0</ele><time>2026-05-02T08:37:45.946Z</time></trkpt><trkpt lat="44.13275155418368" lon="11.55717416292164"><ele>433.0</ele><time>2026-05-02T08:37:46.946Z</time></trkpt><trkpt lat="44.13265236101327" lon="11.55734235749403"><ele>433.0</ele><time>2026-05-02T08:37:47.946Z</time></trkpt><trkpt lat="44.13254612614123" lon="11.557502209009366"><ele>433.0</ele><time>2026-05-02T08:37:48.946Z</time></trkpt><trkpt lat="44.132471968739075" lon="11.557674907860688"><ele>433.0</ele><time>2026-05-02T08:37:49.946Z</time></trkpt><trkpt lat="44.13241085688672" lon="11.557834188717557"><ele>433.0</ele><time>2026-05-02T08:37:50.946Z</time></trkpt><trkpt lat="44.13234404192637" lon="11.557965976670154"><ele>433.0</ele><time>2026-05-02T08:37:51.946Z</time></trkpt><trkpt lat="44.1322595781996" lon="11.558083858484784"><ele>433.0</ele><time>2026-05-02T08:37:52.946Z</time></trkpt><trkpt lat="44.1321448061086" lon="11.55811878560976"><ele>429.0</ele><time>2026-05-02T08:37:53.946Z</time></trkpt><trkpt lat="44.132015758081984" lon="11.558091203093246"><ele>425.0</ele><time>2026-05-02T08:37:54.946Z</time></trkpt><trkpt lat="44.13188316090538" lon="11.55798050460435"><ele>421.0</ele><time>2026-05-02T08:37:55.946Z</time></trkpt><trkpt lat="44.13172627635102" lon="11.557870415819222"><ele>420.6666666666667</ele><time>2026-05-02T08:37:56.946Z</time></trkpt><trkpt lat="44.13156451706469" lon="11.557757723681108"><ele>420.33333333333337</ele><time>2026-05-02T08:37:57.946Z</time></trkpt><trkpt lat="44.13141088232165" lon="11.557653180357269"><ele>420.0</ele><time>2026-05-02T08:37:58.946Z</time></trkpt><trkpt lat="44.13126980059884" lon="11.557567025755914"><ele>420.0</ele><time>2026-05-02T08:37:59.946Z</time></trkpt><trkpt lat="44.13116377225794" lon="11.557423944413406"><ele>420.0</ele><time>2026-05-02T08:38:00.946Z</time></trkpt><trkpt lat="44.131084367726324" lon="11.557232831600484"><ele>420.0</ele><time>2026-05-02T08:38:01.946Z</time></trkpt><trkpt lat="44.13101851943106" lon="11.55701619630526"><ele>419.66666666666663</ele><time>2026-05-02T08:38:02.946Z</time></trkpt><trkpt lat="44.13093907870683" lon="11.55679644672802"><ele>419.3333333333333</ele><time>2026-05-02T08:38:03.946Z</time></trkpt><trkpt lat="44.13082058701521" lon="11.556600879813761"><ele>419.0</ele><time>2026-05-02T08:38:04.946Z</time></trkpt><trkpt lat="44.130672556295856" lon="11.556421238323692"><ele>419.0</ele><time>2026-05-02T08:38:05.946Z</time></trkpt><trkpt lat="44.130502857752575" lon="11.556258123768899"><ele>419.0</ele><time>2026-05-02T08:38:06.946Z</time></trkpt><trkpt lat="44.130309985358984" lon="11.556112635923688"><ele>419.0</ele><time>2026-05-02T08:38:07.946Z</time></trkpt><trkpt lat="44.13010680277699" lon="11.556004729562257"><ele>427.0</ele><time>2026-05-02T08:38:08.946Z</time></trkpt><trkpt lat="44.12988658735161" lon="11.555920842548423"><ele>435.0</ele><time>2026-05-02T08:38:09.946Z</time></trkpt><trkpt lat="44.12965322691337" lon="11.555857501165814"><ele>435.0</ele><time>2026-05-02T08:38:10.946Z</time></trkpt><trkpt lat="44.129423281309094" lon="11.555804958515003"><ele>435.0</ele><time>2026-05-02T08:38:11.946Z</time></trkpt><trkpt lat="44.12921605943666" lon="11.555731201017664"><ele>435.0</ele><time>2026-05-02T08:38:12.946Z</time></trkpt><trkpt lat="44.129022183061274" lon="11.555683510943068"><ele>431.66666666666663</ele><time>2026-05-02T08:38:13.946Z</time></trkpt><trkpt lat="44.1288403965238" lon="11.55563451000868"><ele>428.3333333333333</ele><time>2026-05-02T08:38:14.946Z</time></trkpt><trkpt lat="44.12866398998363" lon="11.555577298216154"><ele>425.0</ele><time>2026-05-02T08:38:15.946Z</time></trkpt><trkpt lat="44.12850495252672" lon="11.555474304702788"><ele>425.0</ele><time>2026-05-02T08:38:16.946Z</time></trkpt><trkpt lat="44.12836096725141" lon="11.555395179977264"><ele>425.0</ele><time>2026-05-02T08:38:17.946Z</time></trkpt><trkpt lat="44.128220283539484" lon="11.555362252141752"><ele>425.0</ele><time>2026-05-02T08:38:18.946Z</time></trkpt><trkpt lat="44.1280852965789" lon="11.55539925828777"><ele>425.0</ele><time>2026-05-02T08:38:19.946Z</time></trkpt><trkpt lat="44.12794983113503" lon="11.555511262858564"><ele>431.66666666666663</ele><time>2026-05-02T08:38:20.946Z</time></trkpt><trkpt lat="44.12781349208312" lon="11.555661599295918"><ele>438.33333333333337</ele><time>2026-05-02T08:38:21.946Z</time></trkpt><trkpt lat="44.12766246046393" lon="11.55582082100698"><ele>445.0</ele><time>2026-05-02T08:38:22.946Z</time></trkpt><trkpt lat="44.12749042808922" lon="11.555960867588176"><ele>440.33333333333337</ele><time>2026-05-02T08:38:23.947Z</time></trkpt><trkpt lat="44.12730297065414" lon="11.556085098043528"><ele>435.66666666666663</ele><time>2026-05-02T08:38:24.947Z</time></trkpt><trkpt lat="44.12709671357919" lon="11.556171291080673"><ele>431.0</ele><time>2026-05-02T08:38:25.947Z</time></trkpt><trkpt lat="44.126896966717084" lon="11.556268721238201"><ele>431.0</ele><time>2026-05-02T08:38:26.947Z</time></trkpt><trkpt lat="44.12671051350274" lon="11.556356115367269"><ele>431.0</ele><time>2026-05-02T08:38:27.947Z</time></trkpt><trkpt lat="44.126519674223694" lon="11.5564455671513"><ele>431.0</ele><time>2026-05-02T08:38:28.947Z</time></trkpt><trkpt lat="44.126335627279424" lon="11.556528770913825"><ele>436.3333333333333</ele><time>2026-05-02T08:38:29.947Z</time></trkpt><trkpt lat="44.12614851729842" lon="11.556613352388156"><ele>441.66666666666663</ele><time>2026-05-02T08:38:30.947Z</time></trkpt><trkpt lat="44.12595668499064" lon="11.556700068552981"><ele>447.0</ele><time>2026-05-02T08:38:31.947Z</time></trkpt><trkpt lat="44.12576227661558" lon="11.556787304107296"><ele>452.0</ele><time>2026-05-02T08:38:32.947Z</time></trkpt><trkpt lat="44.12556132185984" lon="11.556877217319029"><ele>457.0</ele><time>2026-05-02T08:38:33.947Z</time></trkpt><trkpt lat="44.12535962554416" lon="11.556967462324428"><ele>462.0</ele><time>2026-05-02T08:38:34.947Z</time></trkpt><trkpt lat="44.12516704745703" lon="11.55705455987748"><ele>453.66666666666663</ele><time>2026-05-02T08:38:35.947Z</time></trkpt><trkpt lat="44.124974779537446" lon="11.557141578780968"><ele>445.3333333333333</ele><time>2026-05-02T08:38:36.947Z</time></trkpt><trkpt lat="44.12478551693139" lon="11.557226445127338"><ele>437.0</ele><time>2026-05-02T08:38:37.947Z</time></trkpt><trkpt lat="44.12459462490235" lon="11.5573068658847"><ele>437.0</ele><time>2026-05-02T08:38:38.947Z</time></trkpt><trkpt lat="44.12440776962894" lon="11.557377092942088"><ele>437.0</ele><time>2026-05-02T08:38:39.947Z</time></trkpt><trkpt lat="44.124219111690905" lon="11.557452349022094"><ele>437.0</ele><time>2026-05-02T08:38:40.947Z</time></trkpt><trkpt lat="44.12403263408829" lon="11.557534722756788"><ele>438.66666666666663</ele><time>2026-05-02T08:38:41.947Z</time></trkpt><trkpt lat="44.12384473697846" lon="11.557626055214168"><ele>440.33333333333337</ele><time>2026-05-02T08:38:42.947Z</time></trkpt><trkpt lat="44.12366792191385" lon="11.557721850195138"><ele>442.0</ele><time>2026-05-02T08:38:43.947Z</time></trkpt><trkpt lat="44.12348259052416" lon="11.557809847861645"><ele>436.6666666666667</ele><time>2026-05-02T08:38:44.947Z</time></trkpt><trkpt lat="44.123308840424016" lon="11.557881894557205"><ele>431.33333333333337</ele><time>2026-05-02T08:38:45.947Z</time></trkpt><trkpt lat="44.12314717503902" lon="11.557918839448618"><ele>426.0</ele><time>2026-05-02T08:38:46.947Z</time></trkpt><trkpt lat="44.123010786337" lon="11.557945139365302"><ele>425.75</ele><time>2026-05-02T08:38:47.947Z</time></trkpt><trkpt lat="44.122883929766864" lon="11.557905021250864"><ele>425.5</ele><time>2026-05-02T08:38:48.947Z</time></trkpt><trkpt lat="44.12277074301787" lon="11.557809895316487"><ele>425.25</ele><time>2026-05-02T08:38:49.947Z</time></trkpt><trkpt lat="44.12266855704435" lon="11.557653757073624"><ele>425.0</ele><time>2026-05-02T08:38:50.947Z</time></trkpt><trkpt lat="44.122585679895984" lon="11.557446126266495"><ele>426.0</ele><time>2026-05-02T08:38:51.947Z</time></trkpt><trkpt lat="44.12251672463425" lon="11.557201982730005"><ele>427.0</ele><time>2026-05-02T08:38:52.947Z</time></trkpt><trkpt lat="44.12244714419933" lon="11.556953660989274"><ele>428.0</ele><time>2026-05-02T08:38:53.947Z</time></trkpt><trkpt lat="44.12237985345572" lon="11.556716815840467"><ele>427.0</ele><time>2026-05-02T08:38:54.947Z</time></trkpt><trkpt lat="44.12230558185867" lon="11.556498648925741"><ele>426.0</ele><time>2026-05-02T08:38:55.945Z</time></trkpt><trkpt lat="44.122242748673635" lon="11.556281170630484"><ele>425.0</ele><time>2026-05-02T08:38:56.945Z</time></trkpt><trkpt lat="44.122200836026686" lon="11.556046983691669"><ele>425.0</ele><time>2026-05-02T08:38:57.945Z</time></trkpt><trkpt lat="44.12218297562276" lon="11.555793470906115"><ele>425.0</ele><time>2026-05-02T08:38:58.946Z</time></trkpt><trkpt lat="44.12217903336535" lon="11.555529192803009"><ele>425.0</ele><time>2026-05-02T08:38:59.945Z</time></trkpt><trkpt lat="44.12217811510045" lon="11.555261155060045"><ele>424.66666666666663</ele><time>2026-05-02T08:39:00.945Z</time></trkpt><trkpt lat="44.122150534905664" lon="11.555018794082091"><ele>424.33333333333337</ele><time>2026-05-02T08:39:01.945Z</time></trkpt><trkpt lat="44.122087559673716" lon="11.55481264576724"><ele>424.0</ele><time>2026-05-02T08:39:02.945Z</time></trkpt><trkpt lat="44.122004881865344" lon="11.554654319699074"><ele>429.75</ele><time>2026-05-02T08:39:03.945Z</time></trkpt><trkpt lat="44.121919656550126" lon="11.554535085334281"><ele>435.5</ele><time>2026-05-02T08:39:04.946Z</time></trkpt><trkpt lat="44.121829552192786" lon="11.554436478765064"><ele>441.25</ele><time>2026-05-02T08:39:05.945Z</time></trkpt><trkpt lat="44.12172358260676" lon="11.554358214767424"><ele>447.0</ele><time>2026-05-02T08:39:06.945Z</time></trkpt><trkpt lat="44.12160675397052" lon="11.554313686569342"><ele>444.5</ele><time>2026-05-02T08:39:07.945Z</time></trkpt><trkpt lat="44.121479405603914" lon="11.554274294442907"><ele>442.0</ele><time>2026-05-02T08:39:08.946Z</time></trkpt><trkpt lat="44.12134295787791" lon="11.5542423382764"><ele>439.5</ele><time>2026-05-02T08:39:09.946Z</time></trkpt><trkpt lat="44.121189421108106" lon="11.554220026135066"><ele>437.0</ele><time>2026-05-02T08:39:10.946Z</time></trkpt><trkpt lat="44.12103303506326" lon="11.554227669067185"><ele>437.0</ele><time>2026-05-02T08:39:11.946Z</time></trkpt><trkpt lat="44.120871672418204" lon="11.554198774184721"><ele>437.0</ele><time>2026-05-02T08:39:12.946Z</time></trkpt><trkpt lat="44.12071735033512" lon="11.554186339778143"><ele>437.0</ele><time>2026-05-02T08:39:13.946Z</time></trkpt><trkpt lat="44.120572828832245" lon="11.554190430844152"><ele>434.25</ele><time>2026-05-02T08:39:14.946Z</time></trkpt><trkpt lat="44.1204323560978" lon="11.554147971240763"><ele>431.5</ele><time>2026-05-02T08:39:15.946Z</time></trkpt><trkpt lat="44.12029422645124" lon="11.554085957525247"><ele>428.75</ele><time>2026-05-02T08:39:16.946Z</time></trkpt><trkpt lat="44.120160040950466" lon="11.554008441384678"><ele>426.0</ele><time>2026-05-02T08:39:17.946Z</time></trkpt><trkpt lat="44.120036209266146" lon="11.553922072141901"><ele>426.0</ele><time>2026-05-02T08:39:18.946Z</time></trkpt><trkpt lat="44.11990880236907" lon="11.553834455821045"><ele>426.0</ele><time>2026-05-02T08:39:19.946Z</time></trkpt><trkpt lat="44.119788620895456" lon="11.553753146881444"><ele>426.0</ele><time>2026-05-02T08:39:20.946Z</time></trkpt><trkpt lat="44.119670966744685" lon="11.55368155581485"><ele>426.0</ele><time>2026-05-02T08:39:21.946Z</time></trkpt><trkpt lat="44.11957301742702" lon="11.553591061759967"><ele>428.75</ele><time>2026-05-02T08:39:22.946Z</time></trkpt><trkpt lat="44.11946785026087" lon="11.553521473056056"><ele>431.5</ele><time>2026-05-02T08:39:23.946Z</time></trkpt><trkpt lat="44.11936509989357" lon="11.553444059704137"><ele>434.25</ele><time>2026-05-02T08:39:24.946Z</time></trkpt><trkpt lat="44.119260960649534" lon="11.553353617581616"><ele>437.0</ele><time>2026-05-02T08:39:25.946Z</time></trkpt><trkpt lat="44.11916070224847" lon="11.553253230113691"><ele>436.75</ele><time>2026-05-02T08:39:26.946Z</time></trkpt><trkpt lat="44.11905261924188" lon="11.553144844041492"><ele>436.5</ele><time>2026-05-02T08:39:27.946Z</time></trkpt><trkpt lat="44.118941736818165" lon="11.553031353517994"><ele>436.25</ele><time>2026-05-02T08:39:28.946Z</time></trkpt><trkpt lat="44.11882738034109" lon="11.552917677742837"><ele>436.0</ele><time>2026-05-02T08:39:29.946Z</time></trkpt><trkpt lat="44.11870839699978" lon="11.552806762455493"><ele>436.0</ele><time>2026-05-02T08:39:30.946Z</time></trkpt><trkpt lat="44.1186009413026" lon="11.552677118739028"><ele>436.0</ele><time>2026-05-02T08:39:31.946Z</time></trkpt><trkpt lat="44.118479631674525" lon="11.552583839686465"><ele>436.0</ele><time>2026-05-02T08:39:32.946Z</time></trkpt><trkpt lat="44.118361862942315" lon="11.55250184124729"><ele>436.0</ele><time>2026-05-02T08:39:33.946Z</time></trkpt><trkpt lat="44.11825141301494" lon="11.552432485667435"><ele>433.8</ele><time>2026-05-02T08:39:34.946Z</time></trkpt><trkpt lat="44.118144989163646" lon="11.552370931367426"><ele>431.6</ele><time>2026-05-02T08:39:35.946Z</time></trkpt><trkpt lat="44.118045553604986" lon="11.552312987087268"><ele>429.4</ele><time>2026-05-02T08:39:36.946Z</time></trkpt><trkpt lat="44.11795140085891" lon="11.552266498661316"><ele>427.2</ele><time>2026-05-02T08:39:37.946Z</time></trkpt><trkpt lat="44.11785263365113" lon="11.552236286920635"><ele>425.0</ele><time>2026-05-02T08:39:38.946Z</time></trkpt><trkpt lat="44.117756247088" lon="11.552167421446423"><ele>425.0</ele><time>2026-05-02T08:39:39.946Z</time></trkpt><trkpt lat="44.11764122564969" lon="11.552117157801145"><ele>425.0</ele><time>2026-05-02T08:39:40.946Z</time></trkpt><trkpt lat="44.11752554666831" lon="11.552070037071555"><ele>425.0</ele><time>2026-05-02T08:39:41.946Z</time></trkpt><trkpt lat="44.11741040110399" lon="11.552026508016498"><ele>425.0</ele><time>2026-05-02T08:39:42.946Z</time></trkpt><trkpt lat="44.11730018406379" lon="11.551994348454455"><ele>425.4</ele><time>2026-05-02T08:39:43.946Z</time></trkpt><trkpt lat="44.117199552963044" lon="11.55196025960692"><ele>425.8</ele><time>2026-05-02T08:39:44.946Z</time></trkpt><trkpt lat="44.11710626443311" lon="11.551927320839576"><ele>426.20000000000005</ele><time>2026-05-02T08:39:45.946Z</time></trkpt><trkpt lat="44.11701954669573" lon="11.551897062949088"><ele>426.6</ele><time>2026-05-02T08:39:46.946Z</time></trkpt><trkpt lat="44.11692681649687" lon="11.551853315027632"><ele>427.0</ele><time>2026-05-02T08:39:47.946Z</time></trkpt><trkpt lat="44.116828333384284" lon="11.551793214774628"><ele>427.0</ele><time>2026-05-02T08:39:48.946Z</time></trkpt><trkpt lat="44.11672746004585" lon="11.55171072791898"><ele>427.0</ele><time>2026-05-02T08:39:49.946Z</time></trkpt><trkpt lat="44.11662551189115" lon="11.55162735228018"><ele>427.0</ele><time>2026-05-02T08:39:50.946Z</time></trkpt><trkpt lat="44.11652194147752" lon="11.551546392636805"><ele>427.0</ele><time>2026-05-02T08:39:51.946Z</time></trkpt><trkpt lat="44.11642081692908" lon="11.551468618318475"><ele>427.20000000000005</ele><time>2026-05-02T08:39:52.946Z</time></trkpt><trkpt lat="44.116334024821235" lon="11.551370134044099"><ele>427.40000000000003</ele><time>2026-05-02T08:39:53.946Z</time></trkpt><trkpt lat="44.116236323444475" lon="11.551294241867106"><ele>427.59999999999997</ele><time>2026-05-02T08:39:54.946Z</time></trkpt><trkpt lat="44.116142050795304" lon="11.551225093221198"><ele>427.79999999999995</ele><time>2026-05-02T08:39:55.946Z</time></trkpt><trkpt lat="44.116052525937576" lon="11.55114602005417"><ele>428.0</ele><time>2026-05-02T08:39:56.946Z</time></trkpt><trkpt lat="44.115964751018325" lon="11.551070488513181"><ele>428.0</ele><time>2026-05-02T08:39:57.946Z</time></trkpt><trkpt lat="44.115876302927504" lon="11.550984539261972"><ele>427.99999999999994</ele><time>2026-05-02T08:39:58.946Z</time></trkpt><trkpt lat="44.115787452011375" lon="11.550907256743217"><ele>427.99999999999994</ele><time>2026-05-02T08:39:59.946Z</time></trkpt><trkpt lat="44.115693026744395" lon="11.550830601441687"><ele>428.0</ele><time>2026-05-02T08:40:00.946Z</time></trkpt><trkpt lat="44.11559872055558" lon="11.550752390301177"><ele>428.0</ele><time>2026-05-02T08:40:01.946Z</time></trkpt><trkpt lat="44.115504759010655" lon="11.550674745155192"><ele>428.2</ele><time>2026-05-02T08:40:02.946Z</time></trkpt><trkpt lat="44.115414833643996" lon="11.5506004001318"><ele>428.4</ele><time>2026-05-02T08:40:03.946Z</time></trkpt><trkpt lat="44.1153357261549" lon="11.55053048292048"><ele>428.59999999999997</ele><time>2026-05-02T08:40:04.946Z</time></trkpt><trkpt lat="44.1152532596679" lon="11.550460563513175"><ele>428.79999999999995</ele><time>2026-05-02T08:40:05.946Z</time></trkpt><trkpt lat="44.11516793351484" lon="11.550388546451957"><ele>429.0</ele><time>2026-05-02T08:40:06.946Z</time></trkpt><trkpt lat="44.11507841359132" lon="11.55031302942988"><ele>429.0</ele><time>2026-05-02T08:40:07.946Z</time></trkpt><trkpt lat="44.11498556102108" lon="11.550241170822925"><ele>429.0</ele><time>2026-05-02T08:40:08.946Z</time></trkpt><trkpt lat="44.11489836605582" lon="11.550168977251625"><ele>429.0</ele><time>2026-05-02T08:40:09.946Z</time></trkpt><trkpt lat="44.11481369601016" lon="11.550096180099729"><ele>429.0</ele><time>2026-05-02T08:40:10.946Z</time></trkpt><trkpt lat="44.1147300691392" lon="11.550025869356373"><ele>429.0</ele><time>2026-05-02T08:40:11.946Z</time></trkpt><trkpt lat="44.114643012444894" lon="11.549959974377794"><ele>428.3333333333333</ele><time>2026-05-02T08:40:12.946Z</time></trkpt><trkpt lat="44.114566775736115" lon="11.549898710082749"><ele>427.66666666666663</ele><time>2026-05-02T08:40:13.946Z</time></trkpt><trkpt lat="44.1144907495131" lon="11.549850692653473"><ele>427.0</ele><time>2026-05-02T08:40:14.946Z</time></trkpt><trkpt lat="44.11443299269272" lon="11.549772353218833"><ele>426.3333333333333</ele><time>2026-05-02T08:40:15.946Z</time></trkpt><trkpt lat="44.11436278493827" lon="11.549717327547594"><ele>425.66666666666663</ele><time>2026-05-02T08:40:16.946Z</time></trkpt><trkpt lat="44.11429723670399" lon="11.54966051638511"><ele>425.0</ele><time>2026-05-02T08:40:17.946Z</time></trkpt><trkpt lat="44.11423521625113" lon="11.549599645311604"><ele>425.66666666666663</ele><time>2026-05-02T08:40:18.946Z</time></trkpt><trkpt lat="44.114189265161706" lon="11.549515439781075"><ele>426.3333333333333</ele><time>2026-05-02T08:40:19.946Z</time></trkpt><trkpt lat="44.11413756871716" lon="11.54945256177528"><ele>427.0</ele><time>2026-05-02T08:40:20.946Z</time></trkpt><trkpt lat="44.114072434524196" lon="11.549355837989445"><ele>427.66666666666663</ele><time>2026-05-02T08:40:22.946Z</time></trkpt><trkpt lat="44.11401794958016" lon="11.54927457620241"><ele>428.3333333333333</ele><time>2026-05-02T08:40:25.946Z</time></trkpt><trkpt lat="44.11394998778982" lon="11.549184884717858"><ele>429.0</ele><time>2026-05-02T08:40:28.946Z</time></trkpt><trkpt lat="44.11389154293443" lon="11.549127223429691"><ele>429.0</ele><time>2026-05-02T08:40:30.946Z</time></trkpt><trkpt lat="44.113827894967265" lon="11.549025816828609"><ele>429.0</ele><time>2026-05-02T08:40:32.946Z</time></trkpt><trkpt lat="44.11379500550663" lon="11.548950386155669"><ele>429.0</ele><time>2026-05-02T08:40:33.946Z</time></trkpt><trkpt lat="44.113751047728535" lon="11.54885123952001"><ele>429.0</ele><time>2026-05-02T08:40:34.946Z</time></trkpt><trkpt lat="44.11370710990913" lon="11.548742225189475"><ele>429.0</ele><time>2026-05-02T08:40:35.946Z</time></trkpt><trkpt lat="44.11367097858988" lon="11.548638233028594"><ele>429.0</ele><time>2026-05-02T08:40:36.946Z</time></trkpt><trkpt lat="44.113635101739966" lon="11.54854172362338"><ele>429.0</ele><time>2026-05-02T08:40:37.946Z</time></trkpt><trkpt lat="44.11359681092352" lon="11.548451928119688"><ele>429.0</ele><time>2026-05-02T08:40:38.946Z</time></trkpt><trkpt lat="44.11356037270891" lon="11.548370233205034"><ele>429.0</ele><time>2026-05-02T08:40:39.946Z</time></trkpt><trkpt lat="44.113506283838966" lon="11.548247104957795"><ele>429.0</ele><time>2026-05-02T08:40:41.946Z</time></trkpt><trkpt lat="44.113471101966304" lon="11.548122943847428"><ele>429.0</ele><time>2026-05-02T08:40:43.946Z</time></trkpt><trkpt lat="44.113446679942406" lon="11.547977643574704"><ele>428.79999999999995</ele><time>2026-05-02T08:40:45.946Z</time></trkpt><trkpt lat="44.11343346969199" lon="11.547803049150138"><ele>428.59999999999997</ele><time>2026-05-02T08:40:47.946Z</time></trkpt><trkpt lat="44.11343515591656" lon="11.547643413918639"><ele>428.4</ele><time>2026-05-02T08:40:49.946Z</time></trkpt><trkpt lat="44.11343986979497" lon="11.54754923764833"><ele>428.2</ele><time>2026-05-02T08:40:50.946Z</time></trkpt><trkpt lat="44.11344167107462" lon="11.547444985510483"><ele>428.0</ele><time>2026-05-02T08:40:51.946Z</time></trkpt><trkpt lat="44.11345276915721" lon="11.547338500694638"><ele>427.99999999999994</ele><time>2026-05-02T08:40:52.946Z</time></trkpt><trkpt lat="44.113480246163064" lon="11.547236585155504"><ele>428.0</ele><time>2026-05-02T08:40:53.946Z</time></trkpt><trkpt lat="44.11352313441744" lon="11.547133553172234"><ele>428.0</ele><time>2026-05-02T08:40:54.946Z</time></trkpt><trkpt lat="44.11357380667661" lon="11.547031501718761"><ele>428.0</ele><time>2026-05-02T08:40:55.946Z</time></trkpt><trkpt lat="44.11363361993196" lon="11.546936666191941"><ele>427.99999999999994</ele><time>2026-05-02T08:40:56.946Z</time></trkpt><trkpt lat="44.113693699194734" lon="11.546832292945034"><ele>428.0</ele><time>2026-05-02T08:40:57.946Z</time></trkpt><trkpt lat="44.1137555014461" lon="11.54672406979639"><ele>428.49999999999994</ele><time>2026-05-02T08:40:58.946Z</time></trkpt><trkpt lat="44.11381540287145" lon="11.546638678073466"><ele>429.0</ele><time>2026-05-02T08:40:59.946Z</time></trkpt><trkpt lat="44.11387468262112" lon="11.546552922087285"><ele>429.5</ele><time>2026-05-02T08:41:00.946Z</time></trkpt><trkpt lat="44.11393194949551" lon="11.54647503786368"><ele>430.0</ele><time>2026-05-02T08:41:01.945Z</time></trkpt><trkpt lat="44.11398384554629" lon="11.546408994438536"><ele>430.49999999999994</ele><time>2026-05-02T08:41:02.944Z</time></trkpt><trkpt lat="44.11403004915763" lon="11.546339409679852"><ele>431.0</ele><time>2026-05-02T08:41:03.944Z</time></trkpt><trkpt lat="44.11408538753935" lon="11.546189091949197"><ele>431.3333333333333</ele><time>2026-05-02T08:41:05.945Z</time></trkpt><trkpt lat="44.11405723254539" lon="11.546091080165544"><ele>431.66666666666663</ele><time>2026-05-02T08:41:06.945Z</time></trkpt><trkpt lat="44.114014205772115" lon="11.546005905336584"><ele>432.0</ele><time>2026-05-02T08:41:07.944Z</time></trkpt><trkpt lat="44.113965067700875" lon="11.545913308018774"><ele>432.33333333333337</ele><time>2026-05-02T08:41:08.945Z</time></trkpt><trkpt lat="44.11390974226642" lon="11.545805551889481"><ele>432.6666666666667</ele><time>2026-05-02T08:41:09.945Z</time></trkpt><trkpt lat="44.11385728877623" lon="11.545703389429928"><ele>433.0</ele><time>2026-05-02T08:41:10.945Z</time></trkpt><trkpt lat="44.113801283504095" lon="11.545594309176744"><ele>433.0</ele><time>2026-05-02T08:41:11.944Z</time></trkpt><trkpt lat="44.113745060995555" lon="11.545484805881873"><ele>432.99999999999994</ele><time>2026-05-02T08:41:12.944Z</time></trkpt><trkpt lat="44.113683731886866" lon="11.545365356524455"><ele>432.99999999999994</ele><time>2026-05-02T08:41:13.944Z</time></trkpt><trkpt lat="44.11361513182725" lon="11.54523174567911"><ele>433.0</ele><time>2026-05-02T08:41:14.944Z</time></trkpt><trkpt lat="44.11354385479487" lon="11.545098226756823"><ele>433.0</ele><time>2026-05-02T08:41:15.944Z</time></trkpt><trkpt lat="44.11346797158955" lon="11.544957271914482"><ele>433.25</ele><time>2026-05-02T08:41:16.944Z</time></trkpt><trkpt lat="44.11338701800765" lon="11.54480641814547"><ele>433.5</ele><time>2026-05-02T08:41:17.944Z</time></trkpt><trkpt lat="44.11330800953791" lon="11.544658471976367"><ele>433.75</ele><time>2026-05-02T08:41:18.944Z</time></trkpt><trkpt lat="44.11323079337752" lon="11.544510045820267"><ele>434.0</ele><time>2026-05-02T08:41:19.944Z</time></trkpt><trkpt lat="44.11315083199054" lon="11.544356342761883"><ele>434.5</ele><time>2026-05-02T08:41:20.944Z</time></trkpt><trkpt lat="44.11305483077519" lon="11.544213979957885"><ele>435.0</ele><time>2026-05-02T08:41:21.944Z</time></trkpt><trkpt lat="44.112984140151774" lon="11.544043882336041"><ele>435.5</ele><time>2026-05-02T08:41:22.944Z</time></trkpt><trkpt lat="44.112901247325965" lon="11.543883325998383"><ele>436.0</ele><time>2026-05-02T08:41:23.944Z</time></trkpt><trkpt lat="44.11281581441823" lon="11.54372560217197"><ele>436.5</ele><time>2026-05-02T08:41:24.944Z</time></trkpt><trkpt lat="44.11272955560469" lon="11.543571632766385"><ele>437.0</ele><time>2026-05-02T08:41:25.944Z</time></trkpt><trkpt lat="44.11265123317738" lon="11.543413107397402"><ele>437.5</ele><time>2026-05-02T08:41:26.944Z</time></trkpt><trkpt lat="44.11257071692437" lon="11.54325594826623"><ele>438.0</ele><time>2026-05-02T08:41:27.944Z</time></trkpt><trkpt lat="44.11249063421554" lon="11.543094829862886"><ele>439.0</ele><time>2026-05-02T08:41:28.944Z</time></trkpt><trkpt lat="44.112393394998726" lon="11.542934665055926"><ele>440.0</ele><time>2026-05-02T08:41:29.944Z</time></trkpt><trkpt lat="44.112300449404295" lon="11.542760971544494"><ele>441.0</ele><time>2026-05-02T08:41:30.944Z</time></trkpt><trkpt lat="44.11221737622999" lon="11.542600101681735"><ele>442.0</ele><time>2026-05-02T08:41:31.944Z</time></trkpt><trkpt lat="44.112130339046054" lon="11.542446433505503"><ele>442.0</ele><time>2026-05-02T08:41:32.944Z</time></trkpt><trkpt lat="44.112061010068146" lon="11.542292378905827"><ele>442.0</ele><time>2026-05-02T08:41:33.944Z</time></trkpt><trkpt lat="44.11198108904572" lon="11.542131718372868"><ele>442.0</ele><time>2026-05-02T08:41:34.944Z</time></trkpt><trkpt lat="44.11190050112999" lon="11.541975390588355"><ele>442.0</ele><time>2026-05-02T08:41:35.944Z</time></trkpt><trkpt lat="44.111813795186926" lon="11.54182078485275"><ele>441.75</ele><time>2026-05-02T08:41:36.944Z</time></trkpt><trkpt lat="44.11172859379208" lon="11.5416688281697"><ele>441.5</ele><time>2026-05-02T08:41:37.944Z</time></trkpt><trkpt lat="44.111640854741864" lon="11.541518278258998"><ele>441.25</ele><time>2026-05-02T08:41:38.944Z</time></trkpt><trkpt lat="44.1115522364803" lon="11.541351794774615"><ele>441.0</ele><time>2026-05-02T08:41:39.944Z</time></trkpt><trkpt lat="44.111474569385145" lon="11.541172308446988"><ele>441.0</ele><time>2026-05-02T08:41:40.944Z</time></trkpt><trkpt lat="44.111383778914" lon="11.541002159741634"><ele>441.0</ele><time>2026-05-02T08:41:41.944Z</time></trkpt><trkpt lat="44.111279444439305" lon="11.54083673793979"><ele>441.0</ele><time>2026-05-02T08:41:42.944Z</time></trkpt><trkpt lat="44.11119174526871" lon="11.540657867822016"><ele>441.0</ele><time>2026-05-02T08:41:43.944Z</time></trkpt><trkpt lat="44.11109941935367" lon="11.54047803229954"><ele>441.0</ele><time>2026-05-02T08:41:44.944Z</time></trkpt><trkpt lat="44.11100206198434" lon="11.540294677480787"><ele>441.0</ele><time>2026-05-02T08:41:45.944Z</time></trkpt><trkpt lat="44.1109060567693" lon="11.540114615402711"><ele>440.33333333333337</ele><time>2026-05-02T08:41:46.944Z</time></trkpt><trkpt lat="44.11081334817996" lon="11.539940990335534"><ele>439.6666666666667</ele><time>2026-05-02T08:41:47.944Z</time></trkpt><trkpt lat="44.110728554946675" lon="11.53974662122077"><ele>439.0</ele><time>2026-05-02T08:41:48.944Z</time></trkpt><trkpt lat="44.110632662401876" lon="11.539571469492456"><ele>439.6666666666667</ele><time>2026-05-02T08:41:49.944Z</time></trkpt><trkpt lat="44.11053518851839" lon="11.53939519346039"><ele>440.33333333333337</ele><time>2026-05-02T08:41:50.944Z</time></trkpt><trkpt lat="44.11043388092566" lon="11.53921781326862"><ele>441.0</ele><time>2026-05-02T08:41:51.944Z</time></trkpt><trkpt lat="44.11032940810884" lon="11.53903721888835"><ele>441.0</ele><time>2026-05-02T08:41:52.944Z</time></trkpt><trkpt lat="44.11021942315444" lon="11.538847079298844"><ele>441.0</ele><time>2026-05-02T08:41:53.944Z</time></trkpt><trkpt lat="44.110100854750335" lon="11.538642621965284"><ele>441.0</ele><time>2026-05-02T08:41:54.944Z</time></trkpt><trkpt lat="44.10998047485098" lon="11.538436289841748"><ele>442.33333333333337</ele><time>2026-05-02T08:41:55.944Z</time></trkpt><trkpt lat="44.109859103646635" lon="11.538224629955494"><ele>443.6666666666667</ele><time>2026-05-02T08:41:56.944Z</time></trkpt><trkpt lat="44.109737820266645" lon="11.538007133995476"><ele>445.0</ele><time>2026-05-02T08:41:57.944Z</time></trkpt><trkpt lat="44.109624382965464" lon="11.537800716090004"><ele>445.0</ele><time>2026-05-02T08:41:58.944Z</time></trkpt><trkpt lat="44.10952022596978" lon="11.537590308611358"><ele>445.0</ele><time>2026-05-02T08:41:59.944Z</time></trkpt><trkpt lat="44.10942289332738" lon="11.537368799388142"><ele>445.0</ele><time>2026-05-02T08:42:00.944Z</time></trkpt><trkpt lat="44.10933726867113" lon="11.537138324673107"><ele>447.0</ele><time>2026-05-02T08:42:01.944Z</time></trkpt><trkpt lat="44.10923404106453" lon="11.53690914383479"><ele>449.0</ele><time>2026-05-02T08:42:02.944Z</time></trkpt><trkpt lat="44.10914565776202" lon="11.536665984235404"><ele>451.0</ele><time>2026-05-02T08:42:03.944Z</time></trkpt><trkpt lat="44.10905258433268" lon="11.536436087085942"><ele>449.6666666666667</ele><time>2026-05-02T08:42:04.944Z</time></trkpt><trkpt lat="44.108938790896865" lon="11.53621326685593"><ele>448.33333333333337</ele><time>2026-05-02T08:42:05.944Z</time></trkpt><trkpt lat="44.108822827751965" lon="11.536022189718189"><ele>447.0</ele><time>2026-05-02T08:42:06.944Z</time></trkpt><trkpt lat="44.10870591241311" lon="11.535852395629965"><ele>447.0</ele><time>2026-05-02T08:42:07.944Z</time></trkpt><trkpt lat="44.10861593144571" lon="11.535671563132457"><ele>447.0</ele><time>2026-05-02T08:42:08.944Z</time></trkpt><trkpt lat="44.10850485953517" lon="11.535520725174392"><ele>447.0</ele><time>2026-05-02T08:42:09.944Z</time></trkpt><trkpt lat="44.108418696696525" lon="11.535353598500098"><ele>447.0</ele><time>2026-05-02T08:42:10.944Z</time></trkpt><trkpt lat="44.10832233725763" lon="11.53519703007202"><ele>447.0</ele><time>2026-05-02T08:42:11.944Z</time></trkpt><trkpt lat="44.108218892902755" lon="11.535037462423748"><ele>447.0</ele><time>2026-05-02T08:42:12.944Z</time></trkpt><trkpt lat="44.1081290127255" lon="11.534859528540162"><ele>448.0</ele><time>2026-05-02T08:42:13.944Z</time></trkpt><trkpt lat="44.108023203885274" lon="11.534715640210774"><ele>449.0</ele><time>2026-05-02T08:42:14.944Z</time></trkpt><trkpt lat="44.107943423120524" lon="11.534564564793236"><ele>450.0</ele><time>2026-05-02T08:42:15.944Z</time></trkpt><trkpt lat="44.10786613697225" lon="11.53443425884775"><ele>451.0</ele><time>2026-05-02T08:42:16.944Z</time></trkpt><trkpt lat="44.10778125331446" lon="11.534300662639424"><ele>451.0</ele><time>2026-05-02T08:42:17.944Z</time></trkpt><trkpt lat="44.10769747827615" lon="11.534160279267939"><ele>451.0</ele><time>2026-05-02T08:42:18.944Z</time></trkpt><trkpt lat="44.10762060712842" lon="11.534020975672542"><ele>451.0</ele><time>2026-05-02T08:42:19.944Z</time></trkpt><trkpt lat="44.10753259133186" lon="11.53388752207217"><ele>451.0</ele><time>2026-05-02T08:42:20.944Z</time></trkpt><trkpt lat="44.10743477163126" lon="11.53374472599433"><ele>452.75</ele><time>2026-05-02T08:42:21.944Z</time></trkpt><trkpt lat="44.107322149880474" lon="11.533619715021661"><ele>454.5</ele><time>2026-05-02T08:42:22.944Z</time></trkpt><trkpt lat="44.107207946999765" lon="11.53350273882628"><ele>456.25</ele><time>2026-05-02T08:42:23.944Z</time></trkpt><trkpt lat="44.1070853892179" lon="11.533405944242036"><ele>458.0</ele><time>2026-05-02T08:42:24.944Z</time></trkpt><trkpt lat="44.10697808824666" lon="11.533286746113932"><ele>458.0</ele><time>2026-05-02T08:42:25.944Z</time></trkpt><trkpt lat="44.10687580251094" lon="11.533175308454005"><ele>458.0</ele><time>2026-05-02T08:42:26.944Z</time></trkpt><trkpt lat="44.10677046488402" lon="11.533056689891662"><ele>458.0</ele><time>2026-05-02T08:42:27.944Z</time></trkpt><trkpt lat="44.106670664640184" lon="11.532941700195785"><ele>458.0</ele><time>2026-05-02T08:42:28.944Z</time></trkpt><trkpt lat="44.1065765895475" lon="11.532823919041304"><ele>457.25</ele><time>2026-05-02T08:42:29.944Z</time></trkpt><trkpt lat="44.106482164825465" lon="11.532684763750227"><ele>456.5</ele><time>2026-05-02T08:42:30.944Z</time></trkpt><trkpt lat="44.10639342792253" lon="11.532544832730386"><ele>455.75</ele><time>2026-05-02T08:42:31.944Z</time></trkpt><trkpt lat="44.10631546082485" lon="11.532409925807338"><ele>455.0</ele><time>2026-05-02T08:42:32.944Z</time></trkpt><trkpt lat="44.106244615775935" lon="11.532287536272314"><ele>455.0</ele><time>2026-05-02T08:42:33.944Z</time></trkpt><trkpt lat="44.10618246244794" lon="11.532167180250763"><ele>455.0</ele><time>2026-05-02T08:42:34.944Z</time></trkpt><trkpt lat="44.106121395114045" lon="11.532049947359685"><ele>455.0</ele><time>2026-05-02T08:42:35.944Z</time></trkpt><trkpt lat="44.106052925415746" lon="11.531927974345198"><ele>455.0</ele><time>2026-05-02T08:42:36.944Z</time></trkpt><trkpt lat="44.1059761795943" lon="11.531810944733028"><ele>455.0</ele><time>2026-05-02T08:42:37.944Z</time></trkpt><trkpt lat="44.105877156174095" lon="11.53169643492635"><ele>454.75</ele><time>2026-05-02T08:42:38.944Z</time></trkpt><trkpt lat="44.10575746419112" lon="11.531596310830452"><ele>454.5</ele><time>2026-05-02T08:42:39.944Z</time></trkpt><trkpt lat="44.105625451789955" lon="11.53150017867766"><ele>454.25</ele><time>2026-05-02T08:42:40.944Z</time></trkpt><trkpt lat="44.10549683625729" lon="11.531406426013357"><ele>454.0</ele><time>2026-05-02T08:42:41.944Z</time></trkpt><trkpt lat="44.10538176307497" lon="11.531326810536614"><ele>454.0</ele><time>2026-05-02T08:42:42.944Z</time></trkpt><trkpt lat="44.10527191849646" lon="11.531267992756085"><ele>454.0</ele><time>2026-05-02T08:42:43.944Z</time></trkpt><trkpt lat="44.10514834373746" lon="11.531245225417994"><ele>454.0</ele><time>2026-05-02T08:42:44.944Z</time></trkpt><trkpt lat="44.105034720316745" lon="11.531230528061625"><ele>454.0</ele><time>2026-05-02T08:42:45.944Z</time></trkpt><trkpt lat="44.10493017565043" lon="11.531232774478793"><ele>462.0</ele><time>2026-05-02T08:42:46.944Z</time></trkpt><trkpt lat="44.10483646542776" lon="11.531181563988198"><ele>470.0</ele><time>2026-05-02T08:42:47.944Z</time></trkpt><trkpt lat="44.10475330806833" lon="11.531077862173365"><ele>478.0</ele><time>2026-05-02T08:42:48.944Z</time></trkpt><trkpt lat="44.10469414749074" lon="11.530933122479452"><ele>486.0</ele><time>2026-05-02T08:42:49.944Z</time></trkpt><trkpt lat="44.10460698311309" lon="11.530818183554738"><ele>486.0</ele><time>2026-05-02T08:42:50.944Z</time></trkpt><trkpt lat="44.10453752639248" lon="11.530665219244163"><ele>486.0</ele><time>2026-05-02T08:42:51.944Z</time></trkpt><trkpt lat="44.10444168920995" lon="11.530517110051559"><ele>486.0</ele><time>2026-05-02T08:42:52.944Z</time></trkpt><trkpt lat="44.104344700755696" lon="11.530376877649006"><ele>486.0</ele><time>2026-05-02T08:42:53.944Z</time></trkpt><trkpt lat="44.10425495789266" lon="11.530234846284454"><ele>482.25</ele><time>2026-05-02T08:42:54.944Z</time></trkpt><trkpt lat="44.104163092735504" lon="11.530088881282811"><ele>478.5</ele><time>2026-05-02T08:42:55.944Z</time></trkpt><trkpt lat="44.10407149616965" lon="11.529941206988195"><ele>474.75</ele><time>2026-05-02T08:42:56.944Z</time></trkpt><trkpt lat="44.10397315546664" lon="11.529800967161014"><ele>471.0</ele><time>2026-05-02T08:42:57.944Z</time></trkpt><trkpt lat="44.1038704551355" lon="11.52967409376581"><ele>472.75</ele><time>2026-05-02T08:42:58.944Z</time></trkpt><trkpt lat="44.103756234446266" lon="11.529561812130877"><ele>474.5</ele><time>2026-05-02T08:42:59.944Z</time></trkpt><trkpt lat="44.103637319813565" lon="11.529449432764233"><ele>476.25</ele><time>2026-05-02T08:43:00.944Z</time></trkpt><trkpt lat="44.103516396638305" lon="11.529346168403345"><ele>478.0</ele><time>2026-05-02T08:43:01.944Z</time></trkpt><trkpt lat="44.10341270220767" lon="11.529237964021842"><ele>478.0</ele><time>2026-05-02T08:43:02.944Z</time></trkpt><trkpt lat="44.103322001822484" lon="11.529154175810154"><ele>477.99999999999994</ele><time>2026-05-02T08:43:03.944Z</time></trkpt><trkpt lat="44.10323244067012" lon="11.529080956195546"><ele>477.99999999999994</ele><time>2026-05-02T08:43:04.944Z</time></trkpt><trkpt lat="44.103143225594" lon="11.529004885473189"><ele>478.0</ele><time>2026-05-02T08:43:05.944Z</time></trkpt><trkpt lat="44.10305922042529" lon="11.528918595878007"><ele>478.0</ele><time>2026-05-02T08:43:06.944Z</time></trkpt><trkpt lat="44.10295248985062" lon="11.528868278696283"><ele>478.75</ele><time>2026-05-02T08:43:07.944Z</time></trkpt><trkpt lat="44.10284198574788" lon="11.528828417090448"><ele>479.5</ele><time>2026-05-02T08:43:08.944Z</time></trkpt><trkpt lat="44.10272990373982" lon="11.528763160324509"><ele>480.25</ele><time>2026-05-02T08:43:09.944Z</time></trkpt><trkpt lat="44.10261684169174" lon="11.528686053289418"><ele>481.0</ele><time>2026-05-02T08:43:10.944Z</time></trkpt><trkpt lat="44.10250210619341" lon="11.528592235862996"><ele>488.5</ele><time>2026-05-02T08:43:11.944Z</time></trkpt><trkpt lat="44.10240499277848" lon="11.528489833356678"><ele>496.0</ele><time>2026-05-02T08:43:12.944Z</time></trkpt><trkpt lat="44.10229610613829" lon="11.528388172294425"><ele>503.5</ele><time>2026-05-02T08:43:13.943Z</time></trkpt><trkpt lat="44.102171046196105" lon="11.528272048839161"><ele>511.0</ele><time>2026-05-02T08:43:14.944Z</time></trkpt><trkpt lat="44.10201981988771" lon="11.52813730265994"><ele>511.0</ele><time>2026-05-02T08:43:15.944Z</time></trkpt><trkpt lat="44.1018567447248" lon="11.527989030551705"><ele>511.0</ele><time>2026-05-02T08:43:16.944Z</time></trkpt><trkpt lat="44.101711688302196" lon="11.527874247255692"><ele>511.0</ele><time>2026-05-02T08:43:17.944Z</time></trkpt><trkpt lat="44.10157199839588" lon="11.527781032567674"><ele>513.3333333333334</ele><time>2026-05-02T08:43:18.944Z</time></trkpt><trkpt lat="44.10144000997678" lon="11.527701896922684"><ele>515.6666666666666</ele><time>2026-05-02T08:43:19.943Z</time></trkpt><trkpt lat="44.10130961124969" lon="11.527598160339684"><ele>518.0</ele><time>2026-05-02T08:43:20.943Z</time></trkpt><trkpt lat="44.101171111357964" lon="11.52747568030229"><ele>518.0</ele><time>2026-05-02T08:43:21.943Z</time></trkpt><trkpt lat="44.10101496490305" lon="11.5273345658902"><ele>518.0</ele><time>2026-05-02T08:43:22.943Z</time></trkpt><trkpt lat="44.10084772664828" lon="11.527185390024583"><ele>518.0</ele><time>2026-05-02T08:43:23.943Z</time></trkpt><trkpt lat="44.10069276652705" lon="11.52702599216486"><ele>518.75</ele><time>2026-05-02T08:43:24.943Z</time></trkpt><trkpt lat="44.100558475446476" lon="11.526889166954392"><ele>519.5</ele><time>2026-05-02T08:43:25.943Z</time></trkpt><trkpt lat="44.10043929886219" lon="11.526767744577532"><ele>520.25</ele><time>2026-05-02T08:43:26.943Z</time></trkpt><trkpt lat="44.10032687220123" lon="11.526667270866565"><ele>521.0</ele><time>2026-05-02T08:43:27.943Z</time></trkpt><trkpt lat="44.10021243465925" lon="11.52657870519274"><ele>521.0</ele><time>2026-05-02T08:43:28.943Z</time></trkpt><trkpt lat="44.10009565328494" lon="11.526543178052446"><ele>521.0</ele><time>2026-05-02T08:43:29.943Z</time></trkpt><trkpt lat="44.099973724504984" lon="11.526535500017912"><ele>521.0</ele><time>2026-05-02T08:43:30.943Z</time></trkpt><trkpt lat="44.09986120371244" lon="11.526517501011144"><ele>521.0</ele><time>2026-05-02T08:43:31.943Z</time></trkpt><trkpt lat="44.09975737155489" lon="11.526445639199208"><ele>522.25</ele><time>2026-05-02T08:43:32.943Z</time></trkpt><trkpt lat="44.09966977219095" lon="11.526311616554091"><ele>523.5</ele><time>2026-05-02T08:43:33.943Z</time></trkpt><trkpt lat="44.09960008732266" lon="11.526146445304812"><ele>524.75</ele><time>2026-05-02T08:43:34.943Z</time></trkpt><trkpt lat="44.09952593046292" lon="11.52597679381143"><ele>526.0</ele><time>2026-05-02T08:43:35.943Z</time></trkpt><trkpt lat="44.09938570652838" lon="11.525858212284163"><ele>526.0</ele><time>2026-05-02T08:43:36.943Z</time></trkpt><trkpt lat="44.09927063121079" lon="11.525747158690015"><ele>526.0</ele><time>2026-05-02T08:43:37.943Z</time></trkpt><trkpt lat="44.099136125992224" lon="11.525653894078845"><ele>526.0</ele><time>2026-05-02T08:43:38.943Z</time></trkpt><trkpt lat="44.09902919202687" lon="11.525582255166213"><ele>526.0</ele><time>2026-05-02T08:43:39.943Z</time></trkpt><trkpt lat="44.0989033745263" lon="11.525612286348826"><ele>530.75</ele><time>2026-05-02T08:43:40.943Z</time></trkpt><trkpt lat="44.09877214059913" lon="11.525654297098967"><ele>535.5</ele><time>2026-05-02T08:43:41.943Z</time></trkpt><trkpt lat="44.098631645385076" lon="11.525663801603976"><ele>540.25</ele><time>2026-05-02T08:43:42.943Z</time></trkpt><trkpt lat="44.09849191476981" lon="11.52560807666722"><ele>545.0</ele><time>2026-05-02T08:43:43.943Z</time></trkpt><trkpt lat="44.098377534187655" lon="11.525589230592512"><ele>545.0</ele><time>2026-05-02T08:43:44.943Z</time></trkpt><trkpt lat="44.09828971113485" lon="11.525510842413247"><ele>545.0</ele><time>2026-05-02T08:43:45.943Z</time></trkpt><trkpt lat="44.098230809717016" lon="11.52539821047282"><ele>545.0</ele><time>2026-05-02T08:43:46.943Z</time></trkpt><trkpt lat="44.098213808556416" lon="11.525252078569581"><ele>545.0</ele><time>2026-05-02T08:43:47.943Z</time></trkpt><trkpt lat="44.098254162475335" lon="11.525104098591198"><ele>545.0</ele><time>2026-05-02T08:43:48.943Z</time></trkpt><trkpt lat="44.098319578800435" lon="11.524969622116664"><ele>542.8</ele><time>2026-05-02T08:43:49.943Z</time></trkpt><trkpt lat="44.098353727469565" lon="11.524825614832109"><ele>540.6</ele><time>2026-05-02T08:43:50.943Z</time></trkpt><trkpt lat="44.098333290913686" lon="11.52468988947316"><ele>538.4</ele><time>2026-05-02T08:43:51.943Z</time></trkpt><trkpt lat="44.098269479868755" lon="11.524585270633729"><ele>536.2</ele><time>2026-05-02T08:43:52.943Z</time></trkpt><trkpt lat="44.09819147575034" lon="11.524500644682448"><ele>534.0</ele><time>2026-05-02T08:43:53.943Z</time></trkpt><trkpt lat="44.09808786442055" lon="11.524447900995188"><ele>539.1666666666666</ele><time>2026-05-02T08:43:54.943Z</time></trkpt><trkpt lat="44.09800133233483" lon="11.524393856696122"><ele>544.3333333333334</ele><time>2026-05-02T08:43:55.943Z</time></trkpt><trkpt lat="44.097946088959176" lon="11.524346214220857"><ele>549.5</ele><time>2026-05-02T08:43:56.943Z</time></trkpt><trkpt lat="44.097902140899535" lon="11.52427870460124"><ele>554.6666666666667</ele><time>2026-05-02T08:43:59.944Z</time></trkpt><trkpt lat="44.09787479754388" lon="11.524183965923745"><ele>559.8333333333334</ele><time>2026-05-02T08:44:31.944Z</time></trkpt><trkpt lat="44.09782011682477" lon="11.524113781257615"><ele>565.0</ele><time>2026-05-02T08:44:33.944Z</time></trkpt><trkpt lat="44.097727468632435" lon="11.523985061145643"><ele>565.0</ele><time>2026-05-02T08:44:35.944Z</time></trkpt><trkpt lat="44.097658248636975" lon="11.523934436858854"><ele>565.0</ele><time>2026-05-02T08:44:36.944Z</time></trkpt><trkpt lat="44.09756032127786" lon="11.52392166725648"><ele>565.0</ele><time>2026-05-02T08:44:37.944Z</time></trkpt><trkpt lat="44.09749174829508" lon="11.523879744474819"><ele>565.0</ele><time>2026-05-02T08:44:38.944Z</time></trkpt><trkpt lat="44.0974316877016" lon="11.523816032458031"><ele>565.0</ele><time>2026-05-02T08:44:39.944Z</time></trkpt><trkpt lat="44.09738745437543" lon="11.523730093644183"><ele>565.0</ele><time>2026-05-02T08:44:40.944Z</time></trkpt><trkpt lat="44.097374475670996" lon="11.523603220230722"><ele>567.0</ele><time>2026-05-02T08:44:41.944Z</time></trkpt><trkpt lat="44.09737017278367" lon="11.52349083119718"><ele>569.0</ele><time>2026-05-02T08:44:42.944Z</time></trkpt><trkpt lat="44.09736530886478" lon="11.5233623605937"><ele>571.0</ele><time>2026-05-02T08:44:43.944Z</time></trkpt><trkpt lat="44.09733495235312" lon="11.523259243345498"><ele>573.0</ele><time>2026-05-02T08:44:44.944Z</time></trkpt><trkpt lat="44.097264346025646" lon="11.523201254444958"><ele>575.0</ele><time>2026-05-02T08:44:45.944Z</time></trkpt><trkpt lat="44.09716282676202" lon="11.523159009601263"><ele>577.0</ele><time>2026-05-02T08:44:46.944Z</time></trkpt><trkpt lat="44.097046345614366" lon="11.523096343759148"><ele>577.0</ele><time>2026-05-02T08:44:47.944Z</time></trkpt><trkpt lat="44.096918317403116" lon="11.52305873257256"><ele>577.0</ele><time>2026-05-02T08:44:48.944Z</time></trkpt><trkpt lat="44.09682097739065" lon="11.522953144053298"><ele>577.0</ele><time>2026-05-02T08:44:49.944Z</time></trkpt><trkpt lat="44.096754919562194" lon="11.522810534476834"><ele>577.0</ele><time>2026-05-02T08:44:50.944Z</time></trkpt><trkpt lat="44.0967248852401" lon="11.522646770588953"><ele>573.75</ele><time>2026-05-02T08:44:51.944Z</time></trkpt><trkpt lat="44.096707142043186" lon="11.522467625132142"><ele>570.5</ele><time>2026-05-02T08:44:52.944Z</time></trkpt><trkpt lat="44.096671711262424" lon="11.522306802645081"><ele>567.25</ele><time>2026-05-02T08:44:53.944Z</time></trkpt><trkpt lat="44.09662025618555" lon="11.522179187171917"><ele>564.0</ele><time>2026-05-02T08:44:54.944Z</time></trkpt><trkpt lat="44.09653135925315" lon="11.522095632186355"><ele>570.5</ele><time>2026-05-02T08:44:55.944Z</time></trkpt><trkpt lat="44.09642181468973" lon="11.522026948967435"><ele>577.0</ele><time>2026-05-02T08:44:56.944Z</time></trkpt><trkpt lat="44.09629134059427" lon="11.52198708553436"><ele>583.5</ele><time>2026-05-02T08:44:57.944Z</time></trkpt><trkpt lat="44.09615563975228" lon="11.521960768048315"><ele>590.0</ele><time>2026-05-02T08:44:58.944Z</time></trkpt><trkpt lat="44.09603904823545" lon="11.521865721660461"><ele>590.0</ele><time>2026-05-02T08:44:59.944Z</time></trkpt><trkpt lat="44.09596122376212" lon="11.521730700221612"><ele>590.0</ele><time>2026-05-02T08:45:00.944Z</time></trkpt><trkpt lat="44.09592497264577" lon="11.521565404781905"><ele>590.0</ele><time>2026-05-02T08:45:01.944Z</time></trkpt><trkpt lat="44.09593527217752" lon="11.521383241268405"><ele>590.0</ele><time>2026-05-02T08:45:02.944Z</time></trkpt><trkpt lat="44.095985369113436" lon="11.521194962786478"><ele>592.3333333333333</ele><time>2026-05-02T08:45:03.944Z</time></trkpt><trkpt lat="44.09607210411066" lon="11.521008961817923"><ele>594.6666666666666</ele><time>2026-05-02T08:45:04.944Z</time></trkpt><trkpt lat="44.09615683299157" lon="11.520798715676937"><ele>597.0</ele><time>2026-05-02T08:45:05.944Z</time></trkpt><trkpt lat="44.096228901459284" lon="11.520576390739269"><ele>597.0</ele><time>2026-05-02T08:45:06.944Z</time></trkpt><trkpt lat="44.09628871547152" lon="11.520369478135615"><ele>597.0</ele><time>2026-05-02T08:45:07.944Z</time></trkpt><trkpt lat="44.09633133782032" lon="11.520194874485487"><ele>597.0</ele><time>2026-05-02T08:45:08.944Z</time></trkpt><trkpt lat="44.09634303515181" lon="11.52005361226816"><ele>597.0</ele><time>2026-05-02T08:45:09.944Z</time></trkpt><trkpt lat="44.096314583501645" lon="11.519933142941364"><ele>597.0</ele><time>2026-05-02T08:45:10.944Z</time></trkpt><trkpt lat="44.09623309948606" lon="11.519838862739817"><ele>597.0</ele><time>2026-05-02T08:45:11.944Z</time></trkpt><trkpt lat="44.09611792430506" lon="11.519732705613734"><ele>597.0</ele><time>2026-05-02T08:45:12.944Z</time></trkpt><trkpt lat="44.09599788509142" lon="11.519593490601267"><ele>597.0</ele><time>2026-05-02T08:45:13.944Z</time></trkpt><trkpt lat="44.09587684685954" lon="11.519461382648895"><ele>590.3333333333334</ele><time>2026-05-02T08:45:14.943Z</time></trkpt><trkpt lat="44.0957910770927" lon="11.519274991387169"><ele>583.6666666666667</ele><time>2026-05-02T08:45:15.943Z</time></trkpt><trkpt lat="44.09572106833047" lon="11.519084011338991"><ele>577.0</ele><time>2026-05-02T08:45:16.943Z</time></trkpt><trkpt lat="44.09562582287471" lon="11.518917659097136"><ele>583.3333333333334</ele><time>2026-05-02T08:45:17.943Z</time></trkpt><trkpt lat="44.09549056939723" lon="11.51879655394967"><ele>589.6666666666666</ele><time>2026-05-02T08:45:18.943Z</time></trkpt><trkpt lat="44.09533702227388" lon="11.518719227394106"><ele>596.0</ele><time>2026-05-02T08:45:19.943Z</time></trkpt><trkpt lat="44.095203725258045" lon="11.518628977445154"><ele>596.0</ele><time>2026-05-02T08:45:20.943Z</time></trkpt><trkpt lat="44.09510184975024" lon="11.518543448172036"><ele>596.0</ele><time>2026-05-02T08:45:21.943Z</time></trkpt><trkpt lat="44.095026921988705" lon="11.518430032572248"><ele>596.0</ele><time>2026-05-02T08:45:22.944Z</time></trkpt><trkpt lat="44.09497331482726" lon="11.51825451850759"><ele>596.0</ele><time>2026-05-02T08:45:23.943Z</time></trkpt><trkpt lat="44.094910606982594" lon="11.518082327906027"><ele>596.75</ele><time>2026-05-02T08:45:24.943Z</time></trkpt><trkpt lat="44.0948171291517" lon="11.517956983465309"><ele>597.5</ele><time>2026-05-02T08:45:25.944Z</time></trkpt><trkpt lat="44.09469001321762" lon="11.51788568219814"><ele>598.25</ele><time>2026-05-02T08:45:26.944Z</time></trkpt><trkpt lat="44.09454259295687" lon="11.517854462433839"><ele>599.0</ele><time>2026-05-02T08:45:27.944Z</time></trkpt><trkpt lat="44.094392579658695" lon="11.517788078296457"><ele>599.0</ele><time>2026-05-02T08:45:28.944Z</time></trkpt><trkpt lat="44.0942435322963" lon="11.51771949292649"><ele>599.0</ele><time>2026-05-02T08:45:29.944Z</time></trkpt><trkpt lat="44.09411348314732" lon="11.51760897088798"><ele>599.0</ele><time>2026-05-02T08:45:30.944Z</time></trkpt><trkpt lat="44.09399627318894" lon="11.517471926384566"><ele>601.25</ele><time>2026-05-02T08:45:31.944Z</time></trkpt><trkpt lat="44.09388899040743" lon="11.517342461433223"><ele>603.5</ele><time>2026-05-02T08:45:32.944Z</time></trkpt><trkpt lat="44.09377446961044" lon="11.517238241296859"><ele>605.75</ele><time>2026-05-02T08:45:33.944Z</time></trkpt><trkpt lat="44.09364432963189" lon="11.51722027004822"><ele>608.0</ele><time>2026-05-02T08:45:34.944Z</time></trkpt><trkpt lat="44.093516038360335" lon="11.51723411775303"><ele>608.0</ele><time>2026-05-02T08:45:35.944Z</time></trkpt><trkpt lat="44.09337872913408" lon="11.517290881524442"><ele>608.0</ele><time>2026-05-02T08:45:36.944Z</time></trkpt><trkpt lat="44.093231766965026" lon="11.51737308492422"><ele>608.0</ele><time>2026-05-02T08:45:37.944Z</time></trkpt><trkpt lat="44.093071913262264" lon="11.517426251369645"><ele>610.0</ele><time>2026-05-02T08:45:38.944Z</time></trkpt><trkpt lat="44.09292245933102" lon="11.51745253790398"><ele>612.0</ele><time>2026-05-02T08:45:39.944Z</time></trkpt><trkpt lat="44.09279548086219" lon="11.517496969762343"><ele>614.0</ele><time>2026-05-02T08:45:40.944Z</time></trkpt><trkpt lat="44.09269678097799" lon="11.517547123575012"><ele>616.0</ele><time>2026-05-02T08:45:41.944Z</time></trkpt><trkpt lat="44.092628919372295" lon="11.517617309173993"><ele>616.0</ele><time>2026-05-02T08:45:42.944Z</time></trkpt><trkpt lat="44.0925733907153" lon="11.517715680434687"><ele>616.0</ele><time>2026-05-02T08:45:43.944Z</time></trkpt><trkpt lat="44.09260421376753" lon="11.517856931533968"><ele>616.0</ele><time>2026-05-02T08:45:44.944Z</time></trkpt><trkpt lat="44.09267448410729" lon="11.517953223834931"><ele>616.0</ele><time>2026-05-02T08:45:45.944Z</time></trkpt><trkpt lat="44.09277526247653" lon="11.51799741655616"><ele>616.0</ele><time>2026-05-02T08:45:46.944Z</time></trkpt><trkpt lat="44.09289182027363" lon="11.517999783863678"><ele>618.25</ele><time>2026-05-02T08:45:47.944Z</time></trkpt><trkpt lat="44.09301866416084" lon="11.518021783746859"><ele>620.5</ele><time>2026-05-02T08:45:48.944Z</time></trkpt><trkpt lat="44.09316402949768" lon="11.518105222220822"><ele>622.75</ele><time>2026-05-02T08:45:49.944Z</time></trkpt><trkpt lat="44.093308140356896" lon="11.51820193060581"><ele>625.0</ele><time>2026-05-02T08:45:50.944Z</time></trkpt><trkpt lat="44.093453350294176" lon="11.518272419525038"><ele>625.0</ele><time>2026-05-02T08:45:51.944Z</time></trkpt><trkpt lat="44.09358166686994" lon="11.518271165410889"><ele>625.0</ele><time>2026-05-02T08:45:52.944Z</time></trkpt><trkpt lat="44.093681238953145" lon="11.518214684041284"><ele>625.0</ele><time>2026-05-02T08:45:53.944Z</time></trkpt><trkpt lat="44.09378486954413" lon="11.518140170613941"><ele>625.0</ele><time>2026-05-02T08:45:54.944Z</time></trkpt><trkpt lat="44.09388845784096" lon="11.518114056053731"><ele>625.0</ele><time>2026-05-02T08:45:55.944Z</time></trkpt><trkpt lat="44.09396161669232" lon="11.518171488749756"><ele>625.0</ele><time>2026-05-02T08:45:56.944Z</time></trkpt><trkpt lat="44.09399445410689" lon="11.518286795584524"><ele>625.0</ele><time>2026-05-02T08:45:57.944Z</time></trkpt><trkpt lat="44.09396670925636" lon="11.518416623962485"><ele>625.0</ele><time>2026-05-02T08:45:58.944Z</time></trkpt><trkpt lat="44.09389874070235" lon="11.518509629744791"><ele>625.0</ele><time>2026-05-02T08:45:59.944Z</time></trkpt><trkpt lat="44.093784294261425" lon="11.518543930709582"><ele>625.0</ele><time>2026-05-02T08:46:00.944Z</time></trkpt><trkpt lat="44.09367342879235" lon="11.518552499587496"><ele>625.0</ele><time>2026-05-02T08:46:01.944Z</time></trkpt><trkpt lat="44.09354451104892" lon="11.518531974629443"><ele>625.0</ele><time>2026-05-02T08:46:02.944Z</time></trkpt><trkpt lat="44.093428791888506" lon="11.518546422777554"><ele>625.0</ele><time>2026-05-02T08:46:03.944Z</time></trkpt><trkpt lat="44.09334517889468" lon="11.518580163444764"><ele>625.0</ele><time>2026-05-02T08:46:04.944Z</time></trkpt><trkpt lat="44.09328736891509" lon="11.51866658685473"><ele>629.2</ele><time>2026-05-02T08:46:05.944Z</time></trkpt><trkpt lat="44.09327710275413" lon="11.518793795589252"><ele>633.4</ele><time>2026-05-02T08:46:06.944Z</time></trkpt><trkpt lat="44.09331450875294" lon="11.518917071498949"><ele>637.5999999999999</ele><time>2026-05-02T08:46:07.944Z</time></trkpt><trkpt lat="44.093404247069564" lon="11.518997750618482"><ele>641.8</ele><time>2026-05-02T08:46:08.944Z</time></trkpt><trkpt lat="44.0935169808376" lon="11.51899781555956"><ele>646.0</ele><time>2026-05-02T08:46:09.944Z</time></trkpt><trkpt lat="44.09364580841551" lon="11.518940919991996"><ele>646.0</ele><time>2026-05-02T08:46:10.944Z</time></trkpt><trkpt lat="44.093790988940306" lon="11.518877081821945"><ele>646.0</ele><time>2026-05-02T08:46:11.944Z</time></trkpt><trkpt lat="44.09395539601822" lon="11.518829059817014"><ele>646.0</ele><time>2026-05-02T08:46:12.944Z</time></trkpt><trkpt lat="44.09410637414524" lon="11.51878123551178"><ele>644.5999999999999</ele><time>2026-05-02T08:46:13.944Z</time></trkpt><trkpt lat="44.09423482047324" lon="11.51875179142929"><ele>643.1999999999999</ele><time>2026-05-02T08:46:14.944Z</time></trkpt><trkpt lat="44.09433030802518" lon="11.518782662346698"><ele>641.8</ele><time>2026-05-02T08:46:15.944Z</time></trkpt><trkpt lat="44.09438213098267" lon="11.518857700970782"><ele>640.4</ele><time>2026-05-02T08:46:16.944Z</time></trkpt><trkpt lat="44.09440022884073" lon="11.51897533518539"><ele>639.0</ele><time>2026-05-02T08:46:17.944Z</time></trkpt><trkpt lat="44.09436140947303" lon="11.519099702077286"><ele>639.0</ele><time>2026-05-02T08:46:18.944Z</time></trkpt><trkpt lat="44.09427017956948" lon="11.519172965589632"><ele>639.0</ele><time>2026-05-02T08:46:19.944Z</time></trkpt><trkpt lat="44.0941379675253" lon="11.519195813049814"><ele>639.0</ele><time>2026-05-02T08:46:20.944Z</time></trkpt><trkpt lat="44.093992994522225" lon="11.519243464662758"><ele>639.0</ele><time>2026-05-02T08:46:21.944Z</time></trkpt><trkpt lat="44.09385105504675" lon="11.519315000975341"><ele>640.75</ele><time>2026-05-02T08:46:22.944Z</time></trkpt><trkpt lat="44.093712600478014" lon="11.51933867724412"><ele>642.5</ele><time>2026-05-02T08:46:23.944Z</time></trkpt><trkpt lat="44.093584539441224" lon="11.519375078269679"><ele>644.25</ele><time>2026-05-02T08:46:24.944Z</time></trkpt><trkpt lat="44.09345901737104" lon="11.519379908858147"><ele>646.0</ele><time>2026-05-02T08:46:25.944Z</time></trkpt><trkpt lat="44.09333900311252" lon="11.519340402587956"><ele>648.75</ele><time>2026-05-02T08:46:26.944Z</time></trkpt><trkpt lat="44.093211146286684" lon="11.519283103500923"><ele>651.5</ele><time>2026-05-02T08:46:27.944Z</time></trkpt><trkpt lat="44.09309809223044" lon="11.519193091687397"><ele>654.25</ele><time>2026-05-02T08:46:28.944Z</time></trkpt><trkpt lat="44.09299555441806" lon="11.519078583396507"><ele>657.0</ele><time>2026-05-02T08:46:29.944Z</time></trkpt><trkpt lat="44.09289809122536" lon="11.5189684650928"><ele>657.0</ele><time>2026-05-02T08:46:30.944Z</time></trkpt><trkpt lat="44.092800664863894" lon="11.518886740128133"><ele>657.0</ele><time>2026-05-02T08:46:31.944Z</time></trkpt><trkpt lat="44.0926685256278" lon="11.518892143031232"><ele>657.0</ele><time>2026-05-02T08:46:32.944Z</time></trkpt><trkpt lat="44.09253836939532" lon="11.518932229038343"><ele>657.0</ele><time>2026-05-02T08:46:33.944Z</time></trkpt><trkpt lat="44.09237950118396" lon="11.51897307467798"><ele>660.6666666666666</ele><time>2026-05-02T08:46:34.944Z</time></trkpt><trkpt lat="44.09221778188323" lon="11.519024168417744"><ele>664.3333333333333</ele><time>2026-05-02T08:46:35.944Z</time></trkpt><trkpt lat="44.092054705774785" lon="11.519064523279289"><ele>668.0</ele><time>2026-05-02T08:46:36.944Z</time></trkpt><trkpt lat="44.09190258071612" lon="11.51910073541034"><ele>668.0</ele><time>2026-05-02T08:46:37.944Z</time></trkpt><trkpt lat="44.09177087074712" lon="11.519122826919258"><ele>668.0</ele><time>2026-05-02T08:46:38.944Z</time></trkpt><trkpt lat="44.09164141098555" lon="11.519112244834067"><ele>668.0</ele><time>2026-05-02T08:46:39.944Z</time></trkpt><trkpt lat="44.091517385751374" lon="11.519041257569755"><ele>668.0</ele><time>2026-05-02T08:46:40.944Z</time></trkpt><trkpt lat="44.09143884138286" lon="11.518897817614754"><ele>670.25</ele><time>2026-05-02T08:46:41.944Z</time></trkpt><trkpt lat="44.09135638917217" lon="11.51875066903419"><ele>672.5</ele><time>2026-05-02T08:46:42.944Z</time></trkpt><trkpt lat="44.09127224896874" lon="11.518602996902564"><ele>674.75</ele><time>2026-05-02T08:46:43.944Z</time></trkpt><trkpt lat="44.09117532909337" lon="11.518458142090992"><ele>677.0</ele><time>2026-05-02T08:46:44.944Z</time></trkpt><trkpt lat="44.091050428066744" lon="11.518335762250942"><ele>677.0</ele><time>2026-05-02T08:46:45.944Z</time></trkpt><trkpt lat="44.09089957688179" lon="11.518266494806886"><ele>677.0</ele><time>2026-05-02T08:46:46.944Z</time></trkpt><trkpt lat="44.09074426672967" lon="11.51818398788809"><ele>677.0</ele><time>2026-05-02T08:46:47.944Z</time></trkpt><trkpt lat="44.09059301048827" lon="11.518076719108045"><ele>681.6666666666666</ele><time>2026-05-02T08:46:48.944Z</time></trkpt><trkpt lat="44.09044123195461" lon="11.517980465299125"><ele>686.3333333333334</ele><time>2026-05-02T08:46:49.944Z</time></trkpt><trkpt lat="44.09030334347002" lon="11.517852949099831"><ele>691.0</ele><time>2026-05-02T08:46:50.944Z</time></trkpt><trkpt lat="44.09018262084174" lon="11.517678675492112"><ele>691.0</ele><time>2026-05-02T08:46:51.944Z</time></trkpt><trkpt lat="44.090075566778964" lon="11.517466934584027"><ele>691.0</ele><time>2026-05-02T08:46:52.944Z</time></trkpt><trkpt lat="44.08998444010475" lon="11.51727625360045"><ele>691.0</ele><time>2026-05-02T08:46:53.944Z</time></trkpt><trkpt lat="44.08989981179318" lon="11.517103604846849"><ele>695.3333333333334</ele><time>2026-05-02T08:46:54.944Z</time></trkpt><trkpt lat="44.089804231092415" lon="11.51693715107167"><ele>699.6666666666666</ele><time>2026-05-02T08:46:55.944Z</time></trkpt><trkpt lat="44.0896665869906" lon="11.516822762655881"><ele>704.0</ele><time>2026-05-02T08:46:56.944Z</time></trkpt><trkpt lat="44.089542246155574" lon="11.516700042276"><ele>704.0</ele><time>2026-05-02T08:46:57.944Z</time></trkpt><trkpt lat="44.08942113080671" lon="11.516553835592035"><ele>704.0</ele><time>2026-05-02T08:46:58.944Z</time></trkpt><trkpt lat="44.08933621809843" lon="11.51636279402669"><ele>704.0</ele><time>2026-05-02T08:46:59.944Z</time></trkpt><trkpt lat="44.08924903289444" lon="11.516184267592283"><ele>703.0</ele><time>2026-05-02T08:47:00.944Z</time></trkpt><trkpt lat="44.08917272467243" lon="11.516028244157058"><ele>702.0</ele><time>2026-05-02T08:47:01.944Z</time></trkpt><trkpt lat="44.08916752500658" lon="11.51585223593643"><ele>701.0</ele><time>2026-05-02T08:47:02.944Z</time></trkpt><trkpt lat="44.08913111076195" lon="11.515691866272894"><ele>700.0</ele><time>2026-05-02T08:47:03.944Z</time></trkpt><trkpt lat="44.08908427429105" lon="11.51556288769208"><ele>700.0</ele><time>2026-05-02T08:47:04.944Z</time></trkpt><trkpt lat="44.08899608346907" lon="11.51546597127045"><ele>700.0</ele><time>2026-05-02T08:47:05.944Z</time></trkpt><trkpt lat="44.088875515374475" lon="11.51543428202078"><ele>700.0</ele><time>2026-05-02T08:47:06.944Z</time></trkpt><trkpt lat="44.08872847520909" lon="11.515435813589601"><ele>700.0</ele><time>2026-05-02T08:47:07.944Z</time></trkpt><trkpt lat="44.08855927390752" lon="11.515449445887462"><ele>700.0</ele><time>2026-05-02T08:47:08.944Z</time></trkpt><trkpt lat="44.088390503407595" lon="11.515457690027759"><ele>700.0</ele><time>2026-05-02T08:47:09.944Z</time></trkpt><trkpt lat="44.08822947943016" lon="11.515461438999118"><ele>700.0</ele><time>2026-05-02T08:47:10.944Z</time></trkpt><trkpt lat="44.08806526498763" lon="11.51546054623551"><ele>702.6666666666667</ele><time>2026-05-02T08:47:11.944Z</time></trkpt><trkpt lat="44.08791270492165" lon="11.515457543906257"><ele>705.3333333333334</ele><time>2026-05-02T08:47:12.944Z</time></trkpt><trkpt lat="44.08776849196185" lon="11.51546099351847"><ele>708.0</ele><time>2026-05-02T08:47:13.944Z</time></trkpt><trkpt lat="44.087623434672466" lon="11.515530618765245"><ele>708.0</ele><time>2026-05-02T08:47:14.944Z</time></trkpt><trkpt lat="44.08748724984949" lon="11.515631078895607"><ele>708.0</ele><time>2026-05-02T08:47:15.944Z</time></trkpt><trkpt lat="44.08735864867664" lon="11.515762080013957"><ele>708.0</ele><time>2026-05-02T08:47:16.944Z</time></trkpt><trkpt lat="44.087230297777985" lon="11.515898187808489"><ele>708.25</ele><time>2026-05-02T08:47:17.944Z</time></trkpt><trkpt lat="44.087114430489166" lon="11.516013225490818"><ele>708.5</ele><time>2026-05-02T08:47:18.944Z</time></trkpt><trkpt lat="44.087013880428415" lon="11.516095148773232"><ele>708.75</ele><time>2026-05-02T08:47:19.943Z</time></trkpt><trkpt lat="44.08692075342995" lon="11.516120357888903"><ele>709.0</ele><time>2026-05-02T08:47:20.943Z</time></trkpt><trkpt lat="44.086818249096986" lon="11.51608394067581"><ele>709.0</ele><time>2026-05-02T08:47:21.943Z</time></trkpt><trkpt lat="44.08670505601964" lon="11.516010015609451"><ele>709.0</ele><time>2026-05-02T08:47:22.943Z</time></trkpt><trkpt lat="44.086589759369645" lon="11.51592644740439"><ele>709.0</ele><time>2026-05-02T08:47:23.943Z</time></trkpt><trkpt lat="44.08644841133602" lon="11.515937918180512"><ele>709.0</ele><time>2026-05-02T08:47:24.943Z</time></trkpt><trkpt lat="44.08630119889393" lon="11.515985492185347"><ele>713.5</ele><time>2026-05-02T08:47:25.942Z</time></trkpt><trkpt lat="44.08615112199856" lon="11.516061252861629"><ele>718.0</ele><time>2026-05-02T08:47:26.942Z</time></trkpt><trkpt lat="44.086020280593154" lon="11.516092032095127"><ele>722.5</ele><time>2026-05-02T08:47:27.942Z</time></trkpt><trkpt lat="44.08591870083609" lon="11.516127318930115"><ele>727.0</ele><time>2026-05-02T08:47:28.942Z</time></trkpt><trkpt lat="44.085828558148144" lon="11.516074491513185"><ele>727.0</ele><time>2026-05-02T08:47:29.942Z</time></trkpt><trkpt lat="44.085776541704334" lon="11.51596663802696"><ele>727.0</ele><time>2026-05-02T08:47:30.942Z</time></trkpt><trkpt lat="44.08574351199062" lon="11.515809115481623"><ele>727.0</ele><time>2026-05-02T08:47:31.943Z</time></trkpt><trkpt lat="44.085736177019875" lon="11.515634614381195"><ele>727.0</ele><time>2026-05-02T08:47:32.942Z</time></trkpt><trkpt lat="44.08572984651169" lon="11.51545221192683"><ele>727.75</ele><time>2026-05-02T08:47:33.942Z</time></trkpt><trkpt lat="44.085688595836345" lon="11.515303986169481"><ele>728.5</ele><time>2026-05-02T08:47:34.942Z</time></trkpt><trkpt lat="44.08562430172747" lon="11.51519599102219"><ele>729.25</ele><time>2026-05-02T08:47:35.942Z</time></trkpt><trkpt lat="44.085508935865406" lon="11.51518028689379"><ele>730.0</ele><time>2026-05-02T08:47:36.942Z</time></trkpt><trkpt lat="44.08537813442227" lon="11.515176685896893"><ele>730.0</ele><time>2026-05-02T08:47:37.942Z</time></trkpt><trkpt lat="44.08523184232329" lon="11.515171869995743"><ele>730.0</ele><time>2026-05-02T08:47:38.942Z</time></trkpt><trkpt lat="44.085071368520445" lon="11.51516306813077"><ele>730.0</ele><time>2026-05-02T08:47:39.942Z</time></trkpt><trkpt lat="44.084906317517536" lon="11.515155253739533"><ele>736.3333333333334</ele><time>2026-05-02T08:47:40.942Z</time></trkpt><trkpt lat="44.08474090280018" lon="11.515140419560687"><ele>742.6666666666666</ele><time>2026-05-02T08:47:41.942Z</time></trkpt><trkpt lat="44.0845752490666" lon="11.515155390211097"><ele>749.0</ele><time>2026-05-02T08:47:42.942Z</time></trkpt><trkpt lat="44.08441261477592" lon="11.515141620267293"><ele>749.0</ele><time>2026-05-02T08:47:43.942Z</time></trkpt><trkpt lat="44.084262009618804" lon="11.51504640292338"><ele>749.0</ele><time>2026-05-02T08:47:44.942Z</time></trkpt><trkpt lat="44.08409640049902" lon="11.514956300520724"><ele>749.0</ele><time>2026-05-02T08:47:45.942Z</time></trkpt><trkpt lat="44.08396548916506" lon="11.51485586360011"><ele>748.25</ele><time>2026-05-02T08:47:46.942Z</time></trkpt><trkpt lat="44.08386984523141" lon="11.514755924824852"><ele>747.5</ele><time>2026-05-02T08:47:47.942Z</time></trkpt><trkpt lat="44.08382573945595" lon="11.51463041571813"><ele>746.75</ele><time>2026-05-02T08:47:48.942Z</time></trkpt><trkpt lat="44.08380000640693" lon="11.5144538277272"><ele>746.0</ele><time>2026-05-02T08:47:49.942Z</time></trkpt><trkpt lat="44.083757829011894" lon="11.514308265029614"><ele>743.75</ele><time>2026-05-02T08:47:50.942Z</time></trkpt><trkpt lat="44.08367849066637" lon="11.51419921169253"><ele>741.5</ele><time>2026-05-02T08:47:51.942Z</time></trkpt><trkpt lat="44.083550386078905" lon="11.514129719604531"><ele>739.25</ele><time>2026-05-02T08:47:52.942Z</time></trkpt><trkpt lat="44.08336526336548" lon="11.514089371839251"><ele>737.0</ele><time>2026-05-02T08:47:53.942Z</time></trkpt><trkpt lat="44.08319424118958" lon="11.514040886827262"><ele>736.0</ele><time>2026-05-02T08:47:54.942Z</time></trkpt><trkpt lat="44.0830373771161" lon="11.513977409722147"><ele>735.0</ele><time>2026-05-02T08:47:55.942Z</time></trkpt><trkpt lat="44.08289240326456" lon="11.513951789461998"><ele>734.0</ele><time>2026-05-02T08:47:56.942Z</time></trkpt><trkpt lat="44.082770501757196" lon="11.513910557303788"><ele>733.0</ele><time>2026-05-02T08:47:57.942Z</time></trkpt><trkpt lat="44.082681020721594" lon="11.513820823132923"><ele>735.75</ele><time>2026-05-02T08:47:58.942Z</time></trkpt><trkpt lat="44.08260573932239" lon="11.513694616282756"><ele>738.5</ele><time>2026-05-02T08:47:59.942Z</time></trkpt><trkpt lat="44.082552826722875" lon="11.513539468669903"><ele>741.25</ele><time>2026-05-02T08:48:00.942Z</time></trkpt><trkpt lat="44.08254220838066" lon="11.513369827263285"><ele>744.0</ele><time>2026-05-02T08:48:01.942Z</time></trkpt><trkpt lat="44.08256911191585" lon="11.513187490363919"><ele>744.0</ele><time>2026-05-02T08:48:02.942Z</time></trkpt><trkpt lat="44.082600960210684" lon="11.51298875768608"><ele>744.0</ele><time>2026-05-02T08:48:03.942Z</time></trkpt><trkpt lat="44.08261347697112" lon="11.512783925112185"><ele>744.0</ele><time>2026-05-02T08:48:04.942Z</time></trkpt><trkpt lat="44.08257981852839" lon="11.512562323318713"><ele>744.0</ele><time>2026-05-02T08:48:05.942Z</time></trkpt><trkpt lat="44.082497615395916" lon="11.512351188203354"><ele>744.0</ele><time>2026-05-02T08:48:06.942Z</time></trkpt><trkpt lat="44.08239577835327" lon="11.512141095429824"><ele>744.0</ele><time>2026-05-02T08:48:07.942Z</time></trkpt><trkpt lat="44.08229035759326" lon="11.511955344588566"><ele>745.5</ele><time>2026-05-02T08:48:08.942Z</time></trkpt><trkpt lat="44.082181586431346" lon="11.511800579338447"><ele>747.0</ele><time>2026-05-02T08:48:09.942Z</time></trkpt><trkpt lat="44.082074722382984" lon="11.511675753764576"><ele>748.5</ele><time>2026-05-02T08:48:10.942Z</time></trkpt><trkpt lat="44.08194784926151" lon="11.51157285331127"><ele>750.0</ele><time>2026-05-02T08:48:11.942Z</time></trkpt><trkpt lat="44.08181965807404" lon="11.511484808117112"><ele>750.0</ele><time>2026-05-02T08:48:12.942Z</time></trkpt><trkpt lat="44.08172202613674" lon="11.511395987891104"><ele>750.0</ele><time>2026-05-02T08:48:13.942Z</time></trkpt><trkpt lat="44.081658173234516" lon="11.511288763862146"><ele>750.0</ele><time>2026-05-02T08:48:14.942Z</time></trkpt><trkpt lat="44.08164360012076" lon="11.511156714550843"><ele>750.0</ele><time>2026-05-02T08:48:15.942Z</time></trkpt><trkpt lat="44.08167896698813" lon="11.511005939006855"><ele>750.0</ele><time>2026-05-02T08:48:16.942Z</time></trkpt><trkpt lat="44.081726688247066" lon="11.510827501778593"><ele>753.3333333333334</ele><time>2026-05-02T08:48:17.942Z</time></trkpt><trkpt lat="44.08177322897071" lon="11.510630938175053"><ele>756.6666666666667</ele><time>2026-05-02T08:48:18.942Z</time></trkpt><trkpt lat="44.081811489982364" lon="11.510421805438586"><ele>760.0</ele><time>2026-05-02T08:48:19.942Z</time></trkpt><trkpt lat="44.081835591193524" lon="11.510216712861823"><ele>761.0</ele><time>2026-05-02T08:48:20.942Z</time></trkpt><trkpt lat="44.08184493009496" lon="11.51003048344801"><ele>762.0</ele><time>2026-05-02T08:48:21.942Z</time></trkpt><trkpt lat="44.081823450971775" lon="11.509866042904399"><ele>763.0</ele><time>2026-05-02T08:48:22.942Z</time></trkpt><trkpt lat="44.08176168233553" lon="11.509719310814393"><ele>764.0</ele><time>2026-05-02T08:48:23.942Z</time></trkpt><trkpt lat="44.08165444027935" lon="11.50960556956416"><ele>757.75</ele><time>2026-05-02T08:48:24.942Z</time></trkpt><trkpt lat="44.081583007004994" lon="11.509492573783598"><ele>751.5</ele><time>2026-05-02T08:48:25.942Z</time></trkpt><trkpt lat="44.081555255231684" lon="11.509324602650171"><ele>745.25</ele><time>2026-05-02T08:48:26.942Z</time></trkpt><trkpt lat="44.08154850640525" lon="11.509105138392338"><ele>739.0</ele><time>2026-05-02T08:48:27.942Z</time></trkpt><trkpt lat="44.08154660451485" lon="11.508864692475274"><ele>743.6666666666667</ele><time>2026-05-02T08:48:28.942Z</time></trkpt><trkpt lat="44.081552088053435" lon="11.50862480958882"><ele>748.3333333333334</ele><time>2026-05-02T08:48:29.942Z</time></trkpt><trkpt lat="44.08152946267838" lon="11.508392164253904"><ele>753.0</ele><time>2026-05-02T08:48:30.942Z</time></trkpt><trkpt lat="44.081458602620714" lon="11.508171473301541"><ele>753.0</ele><time>2026-05-02T08:48:31.942Z</time></trkpt><trkpt lat="44.08134902249555" lon="11.507950482477705"><ele>753.0</ele><time>2026-05-02T08:48:32.942Z</time></trkpt><trkpt lat="44.08124539932135" lon="11.507733561202095"><ele>753.0</ele><time>2026-05-02T08:48:33.942Z</time></trkpt><trkpt lat="44.08114829113643" lon="11.507522328267314"><ele>761.3333333333333</ele><time>2026-05-02T08:48:34.942Z</time></trkpt><trkpt lat="44.081059918605845" lon="11.507336941734373"><ele>769.6666666666666</ele><time>2026-05-02T08:48:35.942Z</time></trkpt><trkpt lat="44.08095784558232" lon="11.50718155459057"><ele>778.0</ele><time>2026-05-02T08:48:36.942Z</time></trkpt><trkpt lat="44.08082430866168" lon="11.507071921301165"><ele>786.6666666666666</ele><time>2026-05-02T08:48:37.942Z</time></trkpt><trkpt lat="44.08065789641184" lon="11.507020150611863"><ele>795.3333333333333</ele><time>2026-05-02T08:48:38.943Z</time></trkpt><trkpt lat="44.08047341493298" lon="11.506981679779988"><ele>804.0</ele><time>2026-05-02T08:48:39.943Z</time></trkpt><trkpt lat="44.08029909634802" lon="11.506940565900631"><ele>804.0</ele><time>2026-05-02T08:48:40.943Z</time></trkpt><trkpt lat="44.08012642987859" lon="11.506868169897176"><ele>804.0</ele><time>2026-05-02T08:48:41.943Z</time></trkpt><trkpt lat="44.07994780661412" lon="11.506807150122189"><ele>804.0</ele><time>2026-05-02T08:48:42.943Z</time></trkpt><trkpt lat="44.07980316473586" lon="11.50680021731918"><ele>805.0</ele><time>2026-05-02T08:48:43.943Z</time></trkpt><trkpt lat="44.07969376673765" lon="11.506804750789987"><ele>806.0</ele><time>2026-05-02T08:48:44.943Z</time></trkpt><trkpt lat="44.07961812414108" lon="11.506886593095636"><ele>807.0</ele><time>2026-05-02T08:48:45.943Z</time></trkpt><trkpt lat="44.07957626677736" lon="11.50701650377656"><ele>808.0</ele><time>2026-05-02T08:48:46.943Z</time></trkpt><trkpt lat="44.07952749340165" lon="11.507160421188606"><ele>809.0</ele><time>2026-05-02T08:48:47.943Z</time></trkpt><trkpt lat="44.07945431824966" lon="11.507252033956316"><ele>803.75</ele><time>2026-05-02T08:48:48.943Z</time></trkpt><trkpt lat="44.0793559800637" lon="11.507273763580951"><ele>798.5</ele><time>2026-05-02T08:48:49.943Z</time></trkpt><trkpt lat="44.079245052448705" lon="11.507213147816108"><ele>793.25</ele><time>2026-05-02T08:48:50.943Z</time></trkpt><trkpt lat="44.07914454667737" lon="11.507079900723369"><ele>788.0</ele><time>2026-05-02T08:48:51.943Z</time></trkpt><trkpt lat="44.079065908085624" lon="11.506923070453484"><ele>788.0</ele><time>2026-05-02T08:48:52.943Z</time></trkpt><trkpt lat="44.07903558148718" lon="11.506721092037912"><ele>788.0</ele><time>2026-05-02T08:48:53.943Z</time></trkpt><trkpt lat="44.07900830182134" lon="11.506493914428294"><ele>788.0</ele><time>2026-05-02T08:48:54.943Z</time></trkpt><trkpt lat="44.07896067904935" lon="11.506289462109713"><ele>794.0</ele><time>2026-05-02T08:48:55.942Z</time></trkpt><trkpt lat="44.07892034033224" lon="11.506109313437618"><ele>800.0</ele><time>2026-05-02T08:48:56.94Z</time></trkpt><trkpt lat="44.07880809307416" lon="11.505985938329584"><ele>806.0</ele><time>2026-05-02T08:48:57.938Z</time></trkpt><trkpt lat="44.07868013636344" lon="11.50589925190621"><ele>812.0</ele><time>2026-05-02T08:48:58.937Z</time></trkpt><trkpt lat="44.07853803241917" lon="11.505883180938698"><ele>812.0</ele><time>2026-05-02T08:48:59.935Z</time></trkpt><trkpt lat="44.07840522654062" lon="11.50587992573081"><ele>812.0</ele><time>2026-05-02T08:49:00.934Z</time></trkpt><trkpt lat="44.078292707208426" lon="11.505859178842853"><ele>812.0</ele><time>2026-05-02T08:49:01.933Z</time></trkpt><trkpt lat="44.07822201353597" lon="11.50578626177339"><ele>812.0</ele><time>2026-05-02T08:49:02.932Z</time></trkpt><trkpt lat="44.07818349623241" lon="11.505665603218763"><ele>812.0</ele><time>2026-05-02T08:49:03.931Z</time></trkpt><trkpt lat="44.078197699864525" lon="11.505523121323321"><ele>813.25</ele><time>2026-05-02T08:49:04.93Z</time></trkpt><trkpt lat="44.078254800945935" lon="11.505386130078975"><ele>814.5</ele><time>2026-05-02T08:49:05.929Z</time></trkpt><trkpt lat="44.07831964035635" lon="11.505247538325412"><ele>815.75</ele><time>2026-05-02T08:49:06.928Z</time></trkpt><trkpt lat="44.07837067260833" lon="11.505107043554565"><ele>817.0</ele><time>2026-05-02T08:49:07.927Z</time></trkpt><trkpt lat="44.07835118899793" lon="11.504934865099637"><ele>815.6666666666666</ele><time>2026-05-02T08:49:08.926Z</time></trkpt><trkpt lat="44.07826087516729" lon="11.504787196539162"><ele>814.3333333333333</ele><time>2026-05-02T08:49:09.925Z</time></trkpt><trkpt lat="44.07815847228601" lon="11.504638508939628"><ele>813.0</ele><time>2026-05-02T08:49:10.925Z</time></trkpt><trkpt lat="44.07805467971238" lon="11.50445424768383"><ele>813.0</ele><time>2026-05-02T08:49:11.924Z</time></trkpt><trkpt lat="44.07794416052195" lon="11.50428148763867"><ele>813.0</ele><time>2026-05-02T08:49:12.923Z</time></trkpt><trkpt lat="44.07784583309949" lon="11.504125109457737"><ele>813.0</ele><time>2026-05-02T08:49:13.923Z</time></trkpt><trkpt lat="44.07775135736219" lon="11.50399438342341"><ele>813.0</ele><time>2026-05-02T08:49:14.922Z</time></trkpt><trkpt lat="44.07772101885099" lon="11.50383526111632"><ele>814.25</ele><time>2026-05-02T08:49:15.922Z</time></trkpt><trkpt lat="44.07776757540095" lon="11.5036661955625"><ele>815.5</ele><time>2026-05-02T08:49:16.921Z</time></trkpt><trkpt lat="44.07778946834607" lon="11.503490691283954"><ele>816.75</ele><time>2026-05-02T08:49:17.921Z</time></trkpt><trkpt lat="44.07778419044997" lon="11.503297636586197"><ele>818.0</ele><time>2026-05-02T08:49:18.921Z</time></trkpt><trkpt lat="44.07772215901397" lon="11.503108505965105"><ele>818.0</ele><time>2026-05-02T08:49:19.92Z</time></trkpt><trkpt lat="44.077603052490986" lon="11.502950890342785"><ele>818.0</ele><time>2026-05-02T08:49:20.92Z</time></trkpt><trkpt lat="44.07748472740096" lon="11.502782910385815"><ele>818.0</ele><time>2026-05-02T08:49:21.919Z</time></trkpt><trkpt lat="44.07739128251341" lon="11.502598787019394"><ele>819.5</ele><time>2026-05-02T08:49:22.919Z</time></trkpt><trkpt lat="44.077296003193325" lon="11.502450075670819"><ele>821.0</ele><time>2026-05-02T08:49:23.919Z</time></trkpt><trkpt lat="44.07718495545635" lon="11.502327339423204"><ele>822.5</ele><time>2026-05-02T08:49:24.919Z</time></trkpt><trkpt lat="44.07705276138107" lon="11.502284578252528"><ele>824.0</ele><time>2026-05-02T08:49:25.918Z</time></trkpt><trkpt lat="44.07691642925188" lon="11.50227784591385"><ele>824.0</ele><time>2026-05-02T08:49:26.918Z</time></trkpt><trkpt lat="44.076800103429534" lon="11.502282695563366"><ele>824.0</ele><time>2026-05-02T08:49:27.918Z</time></trkpt><trkpt lat="44.076713462428735" lon="11.502256478329354"><ele>824.0</ele><time>2026-05-02T08:49:28.917Z</time></trkpt><trkpt lat="44.0766412050793" lon="11.502192443677929"><ele>824.0</ele><time>2026-05-02T08:49:29.917Z</time></trkpt><trkpt lat="44.07661074920814" lon="11.502079241849438"><ele>824.0</ele><time>2026-05-02T08:49:30.917Z</time></trkpt><trkpt lat="44.07658519958736" lon="11.501964934565406"><ele>822.0</ele><time>2026-05-02T08:49:31.917Z</time></trkpt><trkpt lat="44.0765374679238" lon="11.501843264002165"><ele>820.0</ele><time>2026-05-02T08:49:32.916Z</time></trkpt><trkpt lat="44.07650135813625" lon="11.501688154846347"><ele>818.0</ele><time>2026-05-02T08:49:33.916Z</time></trkpt><trkpt lat="44.076386258017706" lon="11.501571957683426"><ele>816.0</ele><time>2026-05-02T08:49:34.916Z</time></trkpt><trkpt lat="44.076279595591245" lon="11.501442774300992"><ele>816.0</ele><time>2026-05-02T08:49:35.916Z</time></trkpt><trkpt lat="44.076172098873045" lon="11.501320480194536"><ele>816.0</ele><time>2026-05-02T08:49:36.916Z</time></trkpt><trkpt lat="44.07609269710177" lon="11.501183517628444"><ele>816.0</ele><time>2026-05-02T08:49:37.916Z</time></trkpt><trkpt lat="44.07607665223874" lon="11.501020601604422"><ele>816.0</ele><time>2026-05-02T08:49:38.916Z</time></trkpt><trkpt lat="44.07604781086955" lon="11.50088979963078"><ele>818.1999999999999</ele><time>2026-05-02T08:49:39.916Z</time></trkpt><trkpt lat="44.076034825557414" lon="11.500769823857686"><ele>820.4</ele><time>2026-05-02T08:49:40.916Z</time></trkpt><trkpt lat="44.075954082568614" lon="11.500667549401072"><ele>822.6</ele><time>2026-05-02T08:49:41.915Z</time></trkpt><trkpt lat="44.07585363828614" lon="11.50056254889193"><ele>824.8</ele><time>2026-05-02T08:49:42.915Z</time></trkpt><trkpt lat="44.07575713849861" lon="11.500451026739904"><ele>827.0</ele><time>2026-05-02T08:49:43.915Z</time></trkpt><trkpt lat="44.07567807408896" lon="11.50033510358933"><ele>827.0</ele><time>2026-05-02T08:49:44.915Z</time></trkpt><trkpt lat="44.07563326405713" lon="11.500199460694787"><ele>827.0</ele><time>2026-05-02T08:49:45.915Z</time></trkpt><trkpt lat="44.075624220271855" lon="11.50003688349736"><ele>827.0</ele><time>2026-05-02T08:49:46.915Z</time></trkpt><trkpt lat="44.07563432222928" lon="11.499841780901543"><ele>827.0</ele><time>2026-05-02T08:49:47.915Z</time></trkpt><trkpt lat="44.07564890663478" lon="11.499651702194873"><ele>832.6</ele><time>2026-05-02T08:49:48.915Z</time></trkpt><trkpt lat="44.07565524738547" lon="11.499502298912265"><ele>838.2</ele><time>2026-05-02T08:49:49.915Z</time></trkpt><trkpt lat="44.07562836423361" lon="11.499373158988664"><ele>843.8</ele><time>2026-05-02T08:49:50.915Z</time></trkpt><trkpt lat="44.075565716214655" lon="11.499277870455106"><ele>849.4</ele><time>2026-05-02T08:49:51.915Z</time></trkpt><trkpt lat="44.07543180281445" lon="11.499219864517976"><ele>855.0</ele><time>2026-05-02T08:49:52.915Z</time></trkpt><trkpt lat="44.07529910999115" lon="11.499198603417808"><ele>855.0</ele><time>2026-05-02T08:49:53.915Z</time></trkpt><trkpt lat="44.07516590960958" lon="11.499153432178888"><ele>855.0</ele><time>2026-05-02T08:49:54.915Z</time></trkpt><trkpt lat="44.07506405532475" lon="11.499075291364779"><ele>855.0</ele><time>2026-05-02T08:49:55.915Z</time></trkpt><trkpt lat="44.07495545979746" lon="11.498933926432565"><ele>855.0</ele><time>2026-05-02T08:49:56.915Z</time></trkpt><trkpt lat="44.07483258757864" lon="11.498789175486529"><ele>863.0</ele><time>2026-05-02T08:49:57.914Z</time></trkpt><trkpt lat="44.074700864345445" lon="11.498641336563267"><ele>871.0</ele><time>2026-05-02T08:49:58.914Z</time></trkpt><trkpt lat="44.074581955598866" lon="11.498511448526068"><ele>879.0</ele><time>2026-05-02T08:49:59.914Z</time></trkpt><trkpt lat="44.074477477208795" lon="11.498392317434426"><ele>879.0</ele><time>2026-05-02T08:50:00.914Z</time></trkpt><trkpt lat="44.074374755807064" lon="11.49827891585637"><ele>879.0</ele><time>2026-05-02T08:50:01.914Z</time></trkpt><trkpt lat="44.07426785268572" lon="11.498192654799146"><ele>879.0</ele><time>2026-05-02T08:50:02.914Z</time></trkpt><trkpt lat="44.07414757158576" lon="11.498171363340466"><ele>879.0</ele><time>2026-05-02T08:50:03.914Z</time></trkpt><trkpt lat="44.07405472079018" lon="11.498234833495161"><ele>878.75</ele><time>2026-05-02T08:50:04.914Z</time></trkpt><trkpt lat="44.07398534273011" lon="11.498328513902894"><ele>878.5</ele><time>2026-05-02T08:50:05.914Z</time></trkpt><trkpt lat="44.07392531714032" lon="11.498456950733708"><ele>878.25</ele><time>2026-05-02T08:50:06.914Z</time></trkpt><trkpt lat="44.07385034923848" lon="11.498610716878213"><ele>878.0</ele><time>2026-05-02T08:50:07.914Z</time></trkpt><trkpt lat="44.07376181043456" lon="11.498759591380876"><ele>878.0</ele><time>2026-05-02T08:50:08.914Z</time></trkpt><trkpt lat="44.07367299840951" lon="11.498900818957136"><ele>878.0</ele><time>2026-05-02T08:50:09.914Z</time></trkpt><trkpt lat="44.07364324973447" lon="11.499088634941394"><ele>878.0</ele><time>2026-05-02T08:50:10.914Z</time></trkpt><trkpt lat="44.07363144946216" lon="11.499303157929514"><ele>878.0</ele><time>2026-05-02T08:50:11.914Z</time></trkpt><trkpt lat="44.07362562658074" lon="11.49952937403856"><ele>875.0</ele><time>2026-05-02T08:50:12.914Z</time></trkpt><trkpt lat="44.07361464803928" lon="11.499705550522306"><ele>872.0</ele><time>2026-05-02T08:50:13.914Z</time></trkpt><trkpt lat="44.07358813214325" lon="11.499843759001054"><ele>869.0</ele><time>2026-05-02T08:50:14.914Z</time></trkpt><trkpt lat="44.073540911649545" lon="11.499922517600865"><ele>866.0</ele><time>2026-05-02T08:50:15.914Z</time></trkpt><trkpt lat="44.07346337093193" lon="11.499943175087921"><ele>863.0</ele><time>2026-05-02T08:50:16.914Z</time></trkpt><trkpt lat="44.073390025018504" lon="11.499888180917756"><ele>863.0</ele><time>2026-05-02T08:50:17.914Z</time></trkpt><trkpt lat="44.07339025338559" lon="11.499782880600012"><ele>863.0</ele><time>2026-05-02T08:50:18.914Z</time></trkpt><trkpt lat="44.073376263877414" lon="11.499657051697637"><ele>863.0</ele><time>2026-05-02T08:50:19.914Z</time></trkpt><trkpt lat="44.07339510690276" lon="11.499477860075162"><ele>863.0</ele><time>2026-05-02T08:50:20.914Z</time></trkpt><trkpt lat="44.0734232374438" lon="11.499288573287137"><ele>863.0</ele><time>2026-05-02T08:50:21.914Z</time></trkpt><trkpt lat="44.07346426802471" lon="11.49911092135017"><ele>866.75</ele><time>2026-05-02T08:50:22.914Z</time></trkpt><trkpt lat="44.0734894659723" lon="11.498941734654222"><ele>870.5</ele><time>2026-05-02T08:50:23.914Z</time></trkpt><trkpt lat="44.07351387285724" lon="11.498775892365636"><ele>874.25</ele><time>2026-05-02T08:50:24.914Z</time></trkpt><trkpt lat="44.07356072915015" lon="11.498631332974814"><ele>878.0</ele><time>2026-05-02T08:50:25.914Z</time></trkpt><trkpt lat="44.0736511568013" lon="11.498525798598198"><ele>885.75</ele><time>2026-05-02T08:50:26.914Z</time></trkpt><trkpt lat="44.07370166766339" lon="11.498395094613507"><ele>893.5</ele><time>2026-05-02T08:50:27.914Z</time></trkpt><trkpt lat="44.07372902122982" lon="11.498238175996663"><ele>901.25</ele><time>2026-05-02T08:50:28.914Z</time></trkpt><trkpt lat="44.07374997408883" lon="11.49807055784471"><ele>909.0</ele><time>2026-05-02T08:50:29.914Z</time></trkpt><trkpt lat="44.07380739186812" lon="11.497939439931084"><ele>910.75</ele><time>2026-05-02T08:50:30.914Z</time></trkpt><trkpt lat="44.073915658227804" lon="11.497864311557622"><ele>912.5</ele><time>2026-05-02T08:50:31.914Z</time></trkpt><trkpt lat="44.07404527729864" lon="11.497798151323567"><ele>914.25</ele><time>2026-05-02T08:50:32.914Z</time></trkpt><trkpt lat="44.07418918661864" lon="11.497745218654934"><ele>916.0</ele><time>2026-05-02T08:50:33.914Z</time></trkpt><trkpt lat="44.07430839953373" lon="11.497684494547945"><ele>916.0</ele><time>2026-05-02T08:50:34.914Z</time></trkpt><trkpt lat="44.0744287301333" lon="11.497670676843619"><ele>916.0</ele><time>2026-05-02T08:50:35.914Z</time></trkpt><trkpt lat="44.074570274394034" lon="11.497716530936644"><ele>916.0</ele><time>2026-05-02T08:50:36.914Z</time></trkpt><trkpt lat="44.074703105524215" lon="11.497828445450626"><ele>916.0</ele><time>2026-05-02T08:50:37.914Z</time></trkpt><trkpt lat="44.07482715173789" lon="11.4979480743228"><ele>909.5</ele><time>2026-05-02T08:50:38.914Z</time></trkpt><trkpt lat="44.07494600559028" lon="11.498054621725396"><ele>903.0</ele><time>2026-05-02T08:50:39.914Z</time></trkpt><trkpt lat="44.075084962413754" lon="11.498109773657333"><ele>896.5</ele><time>2026-05-02T08:50:40.914Z</time></trkpt><trkpt lat="44.07522543453594" lon="11.49813311324854"><ele>890.0</ele><time>2026-05-02T08:50:41.914Z</time></trkpt><trkpt lat="44.07536200859186" lon="11.498180428686577"><ele>890.0</ele><time>2026-05-02T08:50:42.914Z</time></trkpt><trkpt lat="44.07548049792528" lon="11.498275539952736"><ele>890.0</ele><time>2026-05-02T08:50:43.914Z</time></trkpt><trkpt lat="44.075599395603696" lon="11.498335814987461"><ele>890.0</ele><time>2026-05-02T08:50:44.914Z</time></trkpt><trkpt lat="44.07574329861918" lon="11.49837030422745"><ele>890.0</ele><time>2026-05-02T08:50:45.914Z</time></trkpt><trkpt lat="44.07590343975278" lon="11.498392837382244"><ele>893.0</ele><time>2026-05-02T08:50:46.914Z</time></trkpt><trkpt lat="44.07605646121993" lon="11.498459714926923"><ele>896.0</ele><time>2026-05-02T08:50:47.914Z</time></trkpt><trkpt lat="44.07619449031114" lon="11.49858448526642"><ele>899.0</ele><time>2026-05-02T08:50:48.914Z</time></trkpt><trkpt lat="44.07629790605835" lon="11.498744585834867"><ele>899.0</ele><time>2026-05-02T08:50:49.914Z</time></trkpt><trkpt lat="44.076391637548085" lon="11.498826866584118"><ele>899.0000000000001</ele><time>2026-05-02T08:50:50.914Z</time></trkpt><trkpt lat="44.076503876462205" lon="11.49881862194439"><ele>899.0000000000001</ele><time>2026-05-02T08:50:52.914Z</time></trkpt><trkpt lat="44.07656350472266" lon="11.498766670402361"><ele>899.0</ele><time>2026-05-02T08:50:53.914Z</time></trkpt><trkpt lat="44.07658010806565" lon="11.498604522547405"><ele>899.0</ele><time>2026-05-02T08:50:54.914Z</time></trkpt><trkpt lat="44.07653615663103" lon="11.4984536915465"><ele>899.0</ele><time>2026-05-02T08:50:55.914Z</time></trkpt><trkpt lat="44.07646294753334" lon="11.498344787068948"><ele>899.0</ele><time>2026-05-02T08:50:56.914Z</time></trkpt><trkpt lat="44.076353670005666" lon="11.49827544527486"><ele>899.0</ele><time>2026-05-02T08:50:57.914Z</time></trkpt><trkpt lat="44.076213477222424" lon="11.49825164704044"><ele>899.0</ele><time>2026-05-02T08:50:58.914Z</time></trkpt><trkpt lat="44.07605994151065" lon="11.498201088965807"><ele>899.0</ele><time>2026-05-02T08:50:59.914Z</time></trkpt><trkpt lat="44.075902731781774" lon="11.49809890448302"><ele>899.0</ele><time>2026-05-02T08:51:00.914Z</time></trkpt><trkpt lat="44.075746858935084" lon="11.497964569539711"><ele>899.0</ele><time>2026-05-02T08:51:01.914Z</time></trkpt><trkpt lat="44.07561510335215" lon="11.497839693328425"><ele>903.0</ele><time>2026-05-02T08:51:02.914Z</time></trkpt><trkpt lat="44.07548300457394" lon="11.497746286315783"><ele>907.0</ele><time>2026-05-02T08:51:03.914Z</time></trkpt><trkpt lat="44.0753413835836" lon="11.497707326876274"><ele>911.0</ele><time>2026-05-02T08:51:04.914Z</time></trkpt><trkpt lat="44.075204870906944" lon="11.497706908500541"><ele>915.0</ele><time>2026-05-02T08:51:05.914Z</time></trkpt><trkpt lat="44.07509067021757" lon="11.497688799961649"><ele>915.0</ele><time>2026-05-02T08:51:06.914Z</time></trkpt><trkpt lat="44.07499143116949" lon="11.49761255223601"><ele>915.0</ele><time>2026-05-02T08:51:07.914Z</time></trkpt><trkpt lat="44.07491194700312" lon="11.497478693324005"><ele>915.0</ele><time>2026-05-02T08:51:08.914Z</time></trkpt><trkpt lat="44.07481888771944" lon="11.497348856567656"><ele>915.0</ele><time>2026-05-02T08:51:09.914Z</time></trkpt><trkpt lat="44.07472293594446" lon="11.49721538053342"><ele>915.25</ele><time>2026-05-02T08:51:10.914Z</time></trkpt><trkpt lat="44.07461219390204" lon="11.497109208708354"><ele>915.5</ele><time>2026-05-02T08:51:11.914Z</time></trkpt><trkpt lat="44.074473632758824" lon="11.49706255147345"><ele>915.75</ele><time>2026-05-02T08:51:12.914Z</time></trkpt><trkpt lat="44.074321075651724" lon="11.497086581548148"><ele>916.0</ele><time>2026-05-02T08:51:13.914Z</time></trkpt><trkpt lat="44.07416340670996" lon="11.49710690814696"><ele>922.3333333333333</ele><time>2026-05-02T08:51:14.914Z</time></trkpt><trkpt lat="44.07399496351651" lon="11.497092572368212"><ele>928.6666666666667</ele><time>2026-05-02T08:51:15.914Z</time></trkpt><trkpt lat="44.07383552305955" lon="11.497093758552925"><ele>935.0</ele><time>2026-05-02T08:51:16.914Z</time></trkpt><trkpt lat="44.073698833879924" lon="11.497097909779109"><ele>935.0</ele><time>2026-05-02T08:51:17.914Z</time></trkpt><trkpt lat="44.07357038891488" lon="11.497177188111506"><ele>935.0</ele><time>2026-05-02T08:51:18.914Z</time></trkpt><trkpt lat="44.07347136442287" lon="11.497310053566032"><ele>935.0</ele><time>2026-05-02T08:51:19.914Z</time></trkpt><trkpt lat="44.07338094275271" lon="11.497471448754402"><ele>935.0</ele><time>2026-05-02T08:51:20.914Z</time></trkpt><trkpt lat="44.07328749973954" lon="11.497580553588948"><ele>933.6</ele><time>2026-05-02T08:51:21.914Z</time></trkpt><trkpt lat="44.0732225116437" lon="11.497674242511769"><ele>932.2</ele><time>2026-05-02T08:51:22.914Z</time></trkpt><trkpt lat="44.07313175708115" lon="11.497667816635678"><ele>930.8</ele><time>2026-05-02T08:51:23.914Z</time></trkpt><trkpt lat="44.0730546687463" lon="11.49763649538425"><ele>929.4</ele><time>2026-05-02T08:51:24.914Z</time></trkpt><trkpt lat="44.07300162542256" lon="11.497494733096332"><ele>928.0</ele><time>2026-05-02T08:51:25.914Z</time></trkpt><trkpt lat="44.07292398024259" lon="11.497348291551338"><ele>928.0</ele><time>2026-05-02T08:51:26.914Z</time></trkpt><trkpt lat="44.0728568429312" lon="11.497175885044904"><ele>928.0</ele><time>2026-05-02T08:51:27.914Z</time></trkpt><trkpt lat="44.07278521176265" lon="11.497024893785879"><ele>928.0</ele><time>2026-05-02T08:51:28.914Z</time></trkpt><trkpt lat="44.07274198273371" lon="11.496869839634297"><ele>928.0</ele><time>2026-05-02T08:51:29.914Z</time></trkpt><trkpt lat="44.07273304680846" lon="11.496702627251132"><ele>931.5</ele><time>2026-05-02T08:51:30.914Z</time></trkpt><trkpt lat="44.07274583173287" lon="11.496533041851578"><ele>935.0</ele><time>2026-05-02T08:51:31.913Z</time></trkpt><trkpt lat="44.072733950147466" lon="11.496343822491186"><ele>938.5</ele><time>2026-05-02T08:51:32.912Z</time></trkpt><trkpt lat="44.0726685878379" lon="11.496138593594457"><ele>942.0</ele><time>2026-05-02T08:51:33.912Z</time></trkpt><trkpt lat="44.072563971600225" lon="11.495930088354669"><ele>937.0</ele><time>2026-05-02T08:51:34.912Z</time></trkpt><trkpt lat="44.072473224258694" lon="11.495678517119002"><ele>932.0</ele><time>2026-05-02T08:51:35.913Z</time></trkpt><trkpt lat="44.07236273968586" lon="11.495443336168064"><ele>927.0</ele><time>2026-05-02T08:51:36.913Z</time></trkpt><trkpt lat="44.072230286968484" lon="11.495253740978098"><ele>935.0</ele><time>2026-05-02T08:51:37.913Z</time></trkpt><trkpt lat="44.07212683881201" lon="11.495069025320802"><ele>943.0</ele><time>2026-05-02T08:51:38.913Z</time></trkpt><trkpt lat="44.072066309062514" lon="11.494889734789508"><ele>951.0</ele><time>2026-05-02T08:51:39.913Z</time></trkpt><trkpt lat="44.0719977442803" lon="11.494753091926539"><ele>959.0</ele><time>2026-05-02T08:51:40.912Z</time></trkpt><trkpt lat="44.07189216626047" lon="11.494703354864324"><ele>959.0</ele><time>2026-05-02T08:51:41.913Z</time></trkpt><trkpt lat="44.07179432676897" lon="11.494672416628411"><ele>959.0</ele><time>2026-05-02T08:51:42.913Z</time></trkpt><trkpt lat="44.071656543579934" lon="11.494643420383463"><ele>959.0</ele><time>2026-05-02T08:51:43.912Z</time></trkpt><trkpt lat="44.07153774211515" lon="11.494532985208645"><ele>959.0</ele><time>2026-05-02T08:51:44.912Z</time></trkpt><trkpt lat="44.071438150148744" lon="11.494396024665543"><ele>965.6666666666667</ele><time>2026-05-02T08:51:45.912Z</time></trkpt><trkpt lat="44.07132226223782" lon="11.49423906405348"><ele>972.3333333333333</ele><time>2026-05-02T08:51:46.912Z</time></trkpt><trkpt lat="44.07119692297363" lon="11.494091368989316"><ele>979.0</ele><time>2026-05-02T08:51:47.912Z</time></trkpt><trkpt lat="44.07106945244789" lon="11.493984051617105"><ele>979.0</ele><time>2026-05-02T08:51:48.912Z</time></trkpt><trkpt lat="44.07094973611452" lon="11.49389651977898"><ele>979.0</ele><time>2026-05-02T08:51:49.912Z</time></trkpt><trkpt lat="44.07084621138783" lon="11.493829348226308"><ele>979.0</ele><time>2026-05-02T08:51:50.912Z</time></trkpt><trkpt lat="44.070725452501165" lon="11.493808933099968"><ele>979.0</ele><time>2026-05-02T08:51:51.912Z</time></trkpt><trkpt lat="44.070597385174935" lon="11.49390130352312"><ele>982.0</ele><time>2026-05-02T08:51:52.912Z</time></trkpt><trkpt lat="44.07050117927849" lon="11.494059442099088"><ele>985.0</ele><time>2026-05-02T08:51:53.912Z</time></trkpt><trkpt lat="44.0704128540904" lon="11.494233330529568"><ele>988.0</ele><time>2026-05-02T08:51:54.912Z</time></trkpt><trkpt lat="44.070327499015384" lon="11.494400358647596"><ele>991.0</ele><time>2026-05-02T08:51:55.912Z</time></trkpt><trkpt lat="44.07024692767925" lon="11.4945947470298"><ele>991.0</ele><time>2026-05-02T08:51:56.912Z</time></trkpt><trkpt lat="44.07022889996778" lon="11.494806362361388"><ele>991.0</ele><time>2026-05-02T08:51:57.912Z</time></trkpt><trkpt lat="44.07021048734027" lon="11.494997118833556"><ele>991.0</ele><time>2026-05-02T08:51:58.912Z</time></trkpt><trkpt lat="44.070161133026936" lon="11.495151138249687"><ele>991.0</ele><time>2026-05-02T08:51:59.912Z</time></trkpt><trkpt lat="44.07009495244684" lon="11.495282939850583"><ele>991.0</ele><time>2026-05-02T08:52:00.912Z</time></trkpt><trkpt lat="44.07002177604532" lon="11.495380093671988"><ele>990.9999999999999</ele><time>2026-05-02T08:52:01.912Z</time></trkpt><trkpt lat="44.06994813083766" lon="11.495430515624987"><ele>990.9999999999999</ele><time>2026-05-02T08:52:02.912Z</time></trkpt><trkpt lat="44.0698682436545" lon="11.495430675481332"><ele>991.0</ele><time>2026-05-02T08:52:03.912Z</time></trkpt><trkpt lat="44.069774617437524" lon="11.495395862210472"><ele>991.0</ele><time>2026-05-02T08:52:04.912Z</time></trkpt><trkpt lat="44.06968552018011" lon="11.495330381402312"><ele>996.4</ele><time>2026-05-02T08:52:05.912Z</time></trkpt><trkpt lat="44.06958527969781" lon="11.495245214305267"><ele>1001.8</ele><time>2026-05-02T08:52:06.912Z</time></trkpt><trkpt lat="44.06949041874882" lon="11.495169668604825"><ele>1007.1999999999999</ele><time>2026-05-02T08:52:07.912Z</time></trkpt><trkpt lat="44.06941275070144" lon="11.495107815067964"><ele>1012.5999999999999</ele><time>2026-05-02T08:52:08.912Z</time></trkpt><trkpt lat="44.06935329928051" lon="11.495060306896427"><ele>1018.0</ele><time>2026-05-02T08:52:09.912Z</time></trkpt><trkpt lat="44.06929144534403" lon="11.49497974913233"><ele>1018.0</ele><time>2026-05-02T08:52:11.912Z</time></trkpt><trkpt lat="44.06929833408645" lon="11.494842237911078"><ele>1018.0</ele><time>2026-05-02T08:52:13.912Z</time></trkpt><trkpt lat="44.06936643183027" lon="11.494806789486372"><ele>1018.0</ele><time>2026-05-02T08:52:14.912Z</time></trkpt><trkpt lat="44.069446231784" lon="11.49482938415412"><ele>1018.0</ele><time>2026-05-02T08:52:15.912Z</time></trkpt><trkpt lat="44.06953498730768" lon="11.494895131178604"><ele>1018.0</ele><time>2026-05-02T08:52:16.912Z</time></trkpt><trkpt lat="44.069639047338555" lon="11.494994614836164"><ele>1018.0</ele><time>2026-05-02T08:52:17.912Z</time></trkpt><trkpt lat="44.06974197260073" lon="11.495060554880627"><ele>1018.0</ele><time>2026-05-02T08:52:18.912Z</time></trkpt><trkpt lat="44.06984007539505" lon="11.495062647741817"><ele>1018.0</ele><time>2026-05-02T08:52:19.912Z</time></trkpt><trkpt lat="44.06991088088214" lon="11.495011164144653"><ele>1018.0</ele><time>2026-05-02T08:52:20.912Z</time></trkpt><trkpt lat="44.06996279897439" lon="11.494906503604462"><ele>1018.0</ele><time>2026-05-02T08:52:21.912Z</time></trkpt><trkpt lat="44.07000097943519" lon="11.494763681329227"><ele>1020.75</ele><time>2026-05-02T08:52:22.912Z</time></trkpt><trkpt lat="44.07004309761827" lon="11.494594489888982"><ele>1023.5</ele><time>2026-05-02T08:52:23.912Z</time></trkpt><trkpt lat="44.07008041989628" lon="11.49439607051086"><ele>1026.25</ele><time>2026-05-02T08:52:24.912Z</time></trkpt><trkpt lat="44.07012625741787" lon="11.49418949501198"><ele>1029.0</ele><time>2026-05-02T08:52:25.912Z</time></trkpt><trkpt lat="44.07017795528635" lon="11.493980157321266"><ele>1029.0</ele><time>2026-05-02T08:52:26.912Z</time></trkpt><trkpt lat="44.070260505942066" lon="11.493781006662775"><ele>1029.0</ele><time>2026-05-02T08:52:27.912Z</time></trkpt><trkpt lat="44.07036321579903" lon="11.493592495712578"><ele>1029.0</ele><time>2026-05-02T08:52:28.912Z</time></trkpt><trkpt lat="44.070452537847785" lon="11.493416193241043"><ele>1034.5</ele><time>2026-05-02T08:52:29.912Z</time></trkpt><trkpt lat="44.07053990667881" lon="11.493242475519196"><ele>1040.0</ele><time>2026-05-02T08:52:30.912Z</time></trkpt><trkpt lat="44.07064176893822" lon="11.493088444270912"><ele>1045.5</ele><time>2026-05-02T08:52:31.912Z</time></trkpt><trkpt lat="44.07073445494104" lon="11.492972986200064"><ele>1051.0</ele><time>2026-05-02T08:52:32.912Z</time></trkpt><trkpt lat="44.07081801985525" lon="11.492907918953835"><ele>1051.0</ele><time>2026-05-02T08:52:33.912Z</time></trkpt><trkpt lat="44.07091642301251" lon="11.49291405301067"><ele>1051.0</ele><time>2026-05-02T08:52:34.912Z</time></trkpt><trkpt lat="44.07102723238598" lon="11.492983745001858"><ele>1051.0</ele><time>2026-05-02T08:52:35.912Z</time></trkpt><trkpt lat="44.0711327327586" lon="11.493092358096645"><ele>1051.0</ele><time>2026-05-02T08:52:36.912Z</time></trkpt><trkpt lat="44.07126067892761" lon="11.493205960502573"><ele>1043.25</ele><time>2026-05-02T08:52:37.912Z</time></trkpt><trkpt lat="44.071406872147" lon="11.493303103202408"><ele>1035.5</ele><time>2026-05-02T08:52:38.912Z</time></trkpt><trkpt lat="44.07154211670751" lon="11.493368581590188"><ele>1027.75</ele><time>2026-05-02T08:52:39.912Z</time></trkpt><trkpt lat="44.07165271018687" lon="11.493384449520647"><ele>1020.0</ele><time>2026-05-02T08:52:40.912Z</time></trkpt><trkpt lat="44.07172861489202" lon="11.49335207947584"><ele>1019.6</ele><time>2026-05-02T08:52:41.912Z</time></trkpt><trkpt lat="44.071809160315084" lon="11.493289839719212"><ele>1019.2</ele><time>2026-05-02T08:52:42.912Z</time></trkpt><trkpt lat="44.07184504589739" lon="11.493143456174517"><ele>1018.8</ele><time>2026-05-02T08:52:43.912Z</time></trkpt><trkpt lat="44.07179404292448" lon="11.493009478935928"><ele>1018.4</ele><time>2026-05-02T08:52:44.912Z</time></trkpt><trkpt lat="44.07169984575321" lon="11.492918849365022"><ele>1018.0</ele><time>2026-05-02T08:52:45.912Z</time></trkpt><trkpt lat="44.07159805572888" lon="11.492825973236043"><ele>1026.25</ele><time>2026-05-02T08:52:46.912Z</time></trkpt><trkpt lat="44.07150710647908" lon="11.492697868545283"><ele>1034.5</ele><time>2026-05-02T08:52:47.912Z</time></trkpt><trkpt lat="44.071425499688885" lon="11.4925155845898"><ele>1042.75</ele><time>2026-05-02T08:52:48.912Z</time></trkpt><trkpt lat="44.07134059981011" lon="11.49233675679075"><ele>1051.0</ele><time>2026-05-02T08:52:49.912Z</time></trkpt><trkpt lat="44.071293568451935" lon="11.492156228739347"><ele>1056.75</ele><time>2026-05-02T08:52:50.912Z</time></trkpt><trkpt lat="44.07129403406714" lon="11.491977620994069"><ele>1062.5</ele><time>2026-05-02T08:52:51.912Z</time></trkpt><trkpt lat="44.07133236029324" lon="11.491792388812085"><ele>1068.25</ele><time>2026-05-02T08:52:52.912Z</time></trkpt><trkpt lat="44.07138804715997" lon="11.491586309335162"><ele>1074.0</ele><time>2026-05-02T08:52:53.912Z</time></trkpt><trkpt lat="44.07143120297901" lon="11.491383546386153"><ele>1075.5</ele><time>2026-05-02T08:52:54.912Z</time></trkpt><trkpt lat="44.071433311372694" lon="11.491224600691703"><ele>1077.0</ele><time>2026-05-02T08:52:55.912Z</time></trkpt><trkpt lat="44.07138767684914" lon="11.491094994631974"><ele>1078.5</ele><time>2026-05-02T08:52:56.912Z</time></trkpt><trkpt lat="44.071317565993866" lon="11.49096786080486"><ele>1080.0</ele><time>2026-05-02T08:52:57.912Z</time></trkpt><trkpt lat="44.07121474876127" lon="11.490847672689528"><ele>1080.0</ele><time>2026-05-02T08:52:58.912Z</time></trkpt><trkpt lat="44.07115064337387" lon="11.490737584871761"><ele>1080.0</ele><time>2026-05-02T08:52:59.912Z</time></trkpt><trkpt lat="44.0711424664568" lon="11.490572698871604"><ele>1080.0</ele><time>2026-05-02T08:53:00.912Z</time></trkpt><trkpt lat="44.07116284571344" lon="11.490373571651855"><ele>1080.0</ele><time>2026-05-02T08:53:01.912Z</time></trkpt><trkpt lat="44.071184910540524" lon="11.490154459558202"><ele>1078.3333333333333</ele><time>2026-05-02T08:53:02.912Z</time></trkpt><trkpt lat="44.07120094397051" lon="11.489926871261646"><ele>1076.6666666666665</ele><time>2026-05-02T08:53:03.912Z</time></trkpt><trkpt lat="44.071189725604306" lon="11.489678870779638"><ele>1075.0</ele><time>2026-05-02T08:53:04.912Z</time></trkpt><trkpt lat="44.071163067169564" lon="11.489450853423783"><ele>1074.25</ele><time>2026-05-02T08:53:05.912Z</time></trkpt><trkpt lat="44.071101087199985" lon="11.489255139995466"><ele>1073.5</ele><time>2026-05-02T08:53:06.912Z</time></trkpt><trkpt lat="44.07102529590314" lon="11.489080655978727"><ele>1072.75</ele><time>2026-05-02T08:53:07.912Z</time></trkpt><trkpt lat="44.070968361561995" lon="11.488921829974542"><ele>1072.0</ele><time>2026-05-02T08:53:08.912Z</time></trkpt><trkpt lat="44.07096147268294" lon="11.488762928287107"><ele>1074.75</ele><time>2026-05-02T08:53:09.912Z</time></trkpt><trkpt lat="44.07100725422126" lon="11.488605443631446"><ele>1077.5</ele><time>2026-05-02T08:53:10.912Z</time></trkpt><trkpt lat="44.071087183144265" lon="11.488467446753955"><ele>1080.25</ele><time>2026-05-02T08:53:11.912Z</time></trkpt><trkpt lat="44.071134869331395" lon="11.488278849565132"><ele>1083.0</ele><time>2026-05-02T08:53:12.912Z</time></trkpt><trkpt lat="44.07113677885545" lon="11.48806695089483"><ele>1083.0</ele><time>2026-05-02T08:53:13.912Z</time></trkpt><trkpt lat="44.07116159632644" lon="11.48793447011455"><ele>1083.0</ele><time>2026-05-02T08:53:14.912Z</time></trkpt><trkpt lat="44.07119422215213" lon="11.487785560827989"><ele>1083.0</ele><time>2026-05-02T08:53:15.912Z</time></trkpt><trkpt lat="44.07127663225125" lon="11.487667095296139"><ele>1083.0</ele><time>2026-05-02T08:53:16.912Z</time></trkpt><trkpt lat="44.07140090681061" lon="11.487584132491936"><ele>1088.0</ele><time>2026-05-02T08:53:17.912Z</time></trkpt><trkpt lat="44.0715593278005" lon="11.487515738874153"><ele>1093.0</ele><time>2026-05-02T08:53:18.912Z</time></trkpt><trkpt lat="44.071736979568136" lon="11.4874443248461"><ele>1098.0</ele><time>2026-05-02T08:53:19.912Z</time></trkpt><trkpt lat="44.07191813021389" lon="11.487356728191198"><ele>1086.3333333333333</ele><time>2026-05-02T08:53:20.912Z</time></trkpt><trkpt lat="44.072092087861655" lon="11.48726605955548"><ele>1074.6666666666665</ele><time>2026-05-02T08:53:21.912Z</time></trkpt><trkpt lat="44.07224796591143" lon="11.487209936293471"><ele>1063.0</ele><time>2026-05-02T08:53:22.912Z</time></trkpt><trkpt lat="44.07238225781667" lon="11.487176860212823"><ele>1062.8</ele><time>2026-05-02T08:53:23.912Z</time></trkpt><trkpt lat="44.0724778457372" lon="11.487122185893817"><ele>1062.6</ele><time>2026-05-02T08:53:24.912Z</time></trkpt><trkpt lat="44.07254008627686" lon="11.487050742927396"><ele>1062.4</ele><time>2026-05-02T08:53:25.912Z</time></trkpt><trkpt lat="44.07256540614876" lon="11.4869435094788"><ele>1062.2</ele><time>2026-05-02T08:53:26.912Z</time></trkpt><trkpt lat="44.072550004944674" lon="11.486800842554644"><ele>1062.0</ele><time>2026-05-02T08:53:27.912Z</time></trkpt><trkpt lat="44.072509342628784" lon="11.486639877667697"><ele>1062.0</ele><time>2026-05-02T08:53:28.912Z</time></trkpt><trkpt lat="44.07247822361186" lon="11.486477923122223"><ele>1062.0</ele><time>2026-05-02T08:53:29.912Z</time></trkpt><trkpt lat="44.07248010282963" lon="11.48629184467664"><ele>1062.0</ele><time>2026-05-02T08:53:30.912Z</time></trkpt><trkpt lat="44.07252088089726" lon="11.486100294797719"><ele>1062.0</ele><time>2026-05-02T08:53:31.912Z</time></trkpt><trkpt lat="44.072519835907144" lon="11.485905897151854"><ele>1064.5</ele><time>2026-05-02T08:53:32.912Z</time></trkpt><trkpt lat="44.07249570017734" lon="11.48573665315057"><ele>1067.0</ele><time>2026-05-02T08:53:33.912Z</time></trkpt><trkpt lat="44.07242577967736" lon="11.485602346358466"><ele>1069.5</ele><time>2026-05-02T08:53:34.912Z</time></trkpt><trkpt lat="44.07232106169174" lon="11.485504075020229"><ele>1072.0</ele><time>2026-05-02T08:53:35.912Z</time></trkpt><trkpt lat="44.07217295638578" lon="11.485447981821642"><ele>1074.3333333333333</ele><time>2026-05-02T08:53:36.912Z</time></trkpt><trkpt lat="44.0720012561819" lon="11.48543149296404"><ele>1076.6666666666667</ele><time>2026-05-02T08:53:37.912Z</time></trkpt><trkpt lat="44.07182710607848" lon="11.485431850277667"><ele>1079.0</ele><time>2026-05-02T08:53:38.911Z</time></trkpt><trkpt lat="44.07167344897997" lon="11.485421416818493"><ele>1075.5</ele><time>2026-05-02T08:53:39.911Z</time></trkpt><trkpt lat="44.07155400324063" lon="11.485375408419456"><ele>1072.0</ele><time>2026-05-02T08:53:40.911Z</time></trkpt><trkpt lat="44.07146366428842" lon="11.485278105276745"><ele>1068.5</ele><time>2026-05-02T08:53:41.912Z</time></trkpt><trkpt lat="44.0714108407393" lon="11.485137564955114"><ele>1065.0</ele><time>2026-05-02T08:53:42.912Z</time></trkpt><trkpt lat="44.07139453250604" lon="11.484977393469112"><ele>1065.0</ele><time>2026-05-02T08:53:43.912Z</time></trkpt><trkpt lat="44.07137082474268" lon="11.484842092182319"><ele>1065.0</ele><time>2026-05-02T08:53:44.912Z</time></trkpt><trkpt lat="44.07129498889222" lon="11.484730599576272"><ele>1065.0</ele><time>2026-05-02T08:53:45.912Z</time></trkpt><trkpt lat="44.07118516551651" lon="11.48464096873633"><ele>1065.0</ele><time>2026-05-02T08:53:46.911Z</time></trkpt><trkpt lat="44.07104362860458" lon="11.484604403881546"><ele>1065.0</ele><time>2026-05-02T08:53:47.911Z</time></trkpt><trkpt lat="44.07090611915345" lon="11.484658285530266"><ele>1065.0</ele><time>2026-05-02T08:53:48.911Z</time></trkpt><trkpt lat="44.0707597282666" lon="11.484722618814574"><ele>1065.0</ele><time>2026-05-02T08:53:49.911Z</time></trkpt><trkpt lat="44.070607704720764" lon="11.484817347250962"><ele>1069.3333333333333</ele><time>2026-05-02T08:53:50.911Z</time></trkpt><trkpt lat="44.070471034042285" lon="11.484891283482618"><ele>1073.6666666666665</ele><time>2026-05-02T08:53:51.911Z</time></trkpt><trkpt lat="44.0703151688705" lon="11.484933408848926"><ele>1078.0</ele><time>2026-05-02T08:53:52.911Z</time></trkpt><trkpt lat="44.070169270584195" lon="11.484929251458592"><ele>1078.0</ele><time>2026-05-02T08:53:53.911Z</time></trkpt><trkpt lat="44.07004487684062" lon="11.484892576927624"><ele>1078.0</ele><time>2026-05-02T08:53:54.911Z</time></trkpt><trkpt lat="44.069966506197034" lon="11.484770442123097"><ele>1078.0</ele><time>2026-05-02T08:53:55.911Z</time></trkpt><trkpt lat="44.06993269415417" lon="11.484652593991617"><ele>1078.0</ele><time>2026-05-02T08:53:56.911Z</time></trkpt><trkpt lat="44.069990292954216" lon="11.484541901207793"><ele>1078.0</ele><time>2026-05-02T08:53:57.911Z</time></trkpt><trkpt lat="44.070031472456755" lon="11.484435035086083"><ele>1073.75</ele><time>2026-05-02T08:53:58.911Z</time></trkpt><trkpt lat="44.070063557322214" lon="11.484268832941526"><ele>1069.5</ele><time>2026-05-02T08:53:59.911Z</time></trkpt><trkpt lat="44.070081766700966" lon="11.484107279142846"><ele>1065.25</ele><time>2026-05-02T08:54:00.911Z</time></trkpt><trkpt lat="44.070052460916735" lon="11.483946450294837"><ele>1061.0</ele><time>2026-05-02T08:54:01.911Z</time></trkpt><trkpt lat="44.069965566239986" lon="11.483821005435944"><ele>1057.5</ele><time>2026-05-02T08:54:02.911Z</time></trkpt><trkpt lat="44.069879555012434" lon="11.483700328781397"><ele>1054.0</ele><time>2026-05-02T08:54:03.911Z</time></trkpt><trkpt lat="44.06976799025615" lon="11.48359752705732"><ele>1050.5</ele><time>2026-05-02T08:54:04.911Z</time></trkpt><trkpt lat="44.069637698937065" lon="11.48352615051476"><ele>1047.0</ele><time>2026-05-02T08:54:05.911Z</time></trkpt><trkpt lat="44.06949072818135" lon="11.483507054536252"><ele>1047.0</ele><time>2026-05-02T08:54:06.911Z</time></trkpt><trkpt lat="44.06932939207991" lon="11.483526657432078"><ele>1047.0</ele><time>2026-05-02T08:54:07.911Z</time></trkpt><trkpt lat="44.06916445892251" lon="11.483560050624389"><ele>1047.0</ele><time>2026-05-02T08:54:08.911Z</time></trkpt><trkpt lat="44.069011184232814" lon="11.483590679908502"><ele>1049.0</ele><time>2026-05-02T08:54:09.911Z</time></trkpt><trkpt lat="44.06888084558847" lon="11.4836269066822"><ele>1051.0</ele><time>2026-05-02T08:54:10.911Z</time></trkpt><trkpt lat="44.06877328542144" lon="11.483690541620813"><ele>1053.0</ele><time>2026-05-02T08:54:11.911Z</time></trkpt><trkpt lat="44.068685772185304" lon="11.483799533550627"><ele>1055.0</ele><time>2026-05-02T08:54:12.911Z</time></trkpt><trkpt lat="44.068616775980914" lon="11.483944617974183"><ele>1055.0</ele><time>2026-05-02T08:54:13.911Z</time></trkpt><trkpt lat="44.0685565041727" lon="11.484101176842085"><ele>1055.0</ele><time>2026-05-02T08:54:14.911Z</time></trkpt><trkpt lat="44.06849997891315" lon="11.4842201156676"><ele>1055.0</ele><time>2026-05-02T08:54:15.911Z</time></trkpt><trkpt lat="44.06842886665081" lon="11.484274624102818"><ele>1055.0</ele><time>2026-05-02T08:54:16.911Z</time></trkpt><trkpt lat="44.06833200355116" lon="11.484271173950226"><ele>1055.0</ele><time>2026-05-02T08:54:17.911Z</time></trkpt><trkpt lat="44.06822019439149" lon="11.484223176977286"><ele>1052.5</ele><time>2026-05-02T08:54:18.911Z</time></trkpt><trkpt lat="44.06809262161333" lon="11.484211079050933"><ele>1050.0</ele><time>2026-05-02T08:54:19.911Z</time></trkpt><trkpt lat="44.067982622620534" lon="11.484243790638304"><ele>1047.5</ele><time>2026-05-02T08:54:20.911Z</time></trkpt><trkpt lat="44.06788307903634" lon="11.48433915230476"><ele>1045.0</ele><time>2026-05-02T08:54:21.911Z</time></trkpt><trkpt lat="44.067806075642906" lon="11.484460682263023"><ele>1045.0</ele><time>2026-05-02T08:54:22.911Z</time></trkpt><trkpt lat="44.0677179535797" lon="11.484555886485309"><ele>1045.0</ele><time>2026-05-02T08:54:23.911Z</time></trkpt><trkpt lat="44.06762261050585" lon="11.484600991655604"><ele>1045.0</ele><time>2026-05-02T08:54:24.911Z</time></trkpt><trkpt lat="44.06752682178102" lon="11.484594660330728"><ele>1045.0</ele><time>2026-05-02T08:54:25.911Z</time></trkpt><trkpt lat="44.06743677001422" lon="11.484508488234498"><ele>1045.0</ele><time>2026-05-02T08:54:26.911Z</time></trkpt><trkpt lat="44.06735166140304" lon="11.484380185015278"><ele>1053.0</ele><time>2026-05-02T08:54:27.911Z</time></trkpt><trkpt lat="44.06728065426416" lon="11.484210207990605"><ele>1061.0</ele><time>2026-05-02T08:54:28.911Z</time></trkpt><trkpt lat="44.067214467640866" lon="11.484056550007923"><ele>1069.0</ele><time>2026-05-02T08:54:29.911Z</time></trkpt><trkpt lat="44.06711664609052" lon="11.483937032875998"><ele>1077.0</ele><time>2026-05-02T08:54:30.911Z</time></trkpt><trkpt lat="44.067002832886686" lon="11.483841414918682"><ele>1072.4</ele><time>2026-05-02T08:54:31.911Z</time></trkpt><trkpt lat="44.06691320390383" lon="11.483748742282032"><ele>1067.8000000000002</ele><time>2026-05-02T08:54:32.911Z</time></trkpt><trkpt lat="44.06685777064209" lon="11.48365063828622"><ele>1063.2</ele><time>2026-05-02T08:54:33.911Z</time></trkpt><trkpt lat="44.066846479843264" lon="11.48353555143828"><ele>1058.6000000000001</ele><time>2026-05-02T08:54:34.911Z</time></trkpt><trkpt lat="44.06686313484677" lon="11.483396444600016"><ele>1054.0</ele><time>2026-05-02T08:54:35.911Z</time></trkpt><trkpt lat="44.06688661553738" lon="11.48323648302703"><ele>1054.0</ele><time>2026-05-02T08:54:36.911Z</time></trkpt><trkpt lat="44.06688214240939" lon="11.483048256294806"><ele>1054.0</ele><time>2026-05-02T08:54:37.911Z</time></trkpt><trkpt lat="44.066838487049914" lon="11.482864645127531"><ele>1054.0</ele><time>2026-05-02T08:54:38.911Z</time></trkpt><trkpt lat="44.066781996385444" lon="11.482673190196635"><ele>1054.0</ele><time>2026-05-02T08:54:39.911Z</time></trkpt><trkpt lat="44.0667223282868" lon="11.482488259806244"><ele>1058.3333333333333</ele><time>2026-05-02T08:54:40.911Z</time></trkpt><trkpt lat="44.0666465634625" lon="11.48232535432254"><ele>1062.6666666666667</ele><time>2026-05-02T08:54:41.911Z</time></trkpt><trkpt lat="44.066536622575164" lon="11.482184409524917"><ele>1067.0</ele><time>2026-05-02T08:54:42.911Z</time></trkpt><trkpt lat="44.06640762343045" lon="11.482037330270305"><ele>1053.3333333333335</ele><time>2026-05-02T08:54:43.911Z</time></trkpt><trkpt lat="44.06626941591747" lon="11.481897081862208"><ele>1039.6666666666667</ele><time>2026-05-02T08:54:44.911Z</time></trkpt><trkpt lat="44.06612335569965" lon="11.481776507836834"><ele>1026.0</ele><time>2026-05-02T08:54:45.911Z</time></trkpt><trkpt lat="44.065972515308275" lon="11.481656011875591"><ele>1026.0</ele><time>2026-05-02T08:54:46.911Z</time></trkpt><trkpt lat="44.065812986781424" lon="11.481575545699954"><ele>1026.0</ele><time>2026-05-02T08:54:47.911Z</time></trkpt><trkpt lat="44.06566478426532" lon="11.481517609981447"><ele>1026.0</ele><time>2026-05-02T08:54:48.911Z</time></trkpt><trkpt lat="44.06554441082687" lon="11.481398810091283"><ele>1029.3333333333333</ele><time>2026-05-02T08:54:49.911Z</time></trkpt><trkpt lat="44.06540303804015" lon="11.481305993488872"><ele>1032.6666666666665</ele><time>2026-05-02T08:54:50.911Z</time></trkpt><trkpt lat="44.065242361990016" lon="11.481239530058918"><ele>1036.0</ele><time>2026-05-02T08:54:51.911Z</time></trkpt><trkpt lat="44.0650850667274" lon="11.481199195150184"><ele>1033.75</ele><time>2026-05-02T08:54:52.911Z</time></trkpt><trkpt lat="44.06492393106146" lon="11.481174816349531"><ele>1031.5</ele><time>2026-05-02T08:54:53.911Z</time></trkpt><trkpt lat="44.06478474291848" lon="11.481182178656294"><ele>1029.25</ele><time>2026-05-02T08:54:54.911Z</time></trkpt><trkpt lat="44.06464015401557" lon="11.48122089090493"><ele>1027.0</ele><time>2026-05-02T08:54:55.911Z</time></trkpt><trkpt lat="44.06449349083124" lon="11.481286012658865"><ele>1027.0</ele><time>2026-05-02T08:54:56.911Z</time></trkpt><trkpt lat="44.06435041239025" lon="11.481338722769932"><ele>1027.0</ele><time>2026-05-02T08:54:57.911Z</time></trkpt><trkpt lat="44.064200959147676" lon="11.481354186149906"><ele>1027.0</ele><time>2026-05-02T08:54:58.911Z</time></trkpt><trkpt lat="44.064067766974105" lon="11.481361127276976"><ele>1027.0</ele><time>2026-05-02T08:54:59.911Z</time></trkpt><trkpt lat="44.06394577919068" lon="11.481366707416063"><ele>1030.5</ele><time>2026-05-02T08:55:00.911Z</time></trkpt><trkpt lat="44.06382481826206" lon="11.481374944566252"><ele>1034.0</ele><time>2026-05-02T08:55:01.911Z</time></trkpt><trkpt lat="44.06370469284748" lon="11.481291353370928"><ele>1037.5</ele><time>2026-05-02T08:55:02.911Z</time></trkpt><trkpt lat="44.06359342610513" lon="11.481301974412785"><ele>1041.0</ele><time>2026-05-02T08:55:03.911Z</time></trkpt><trkpt lat="44.06347403413365" lon="11.481068506401654"><ele>1034.3333333333333</ele><time>2026-05-02T08:55:04.911Z</time></trkpt><trkpt lat="44.063335931160445" lon="11.480983937707487"><ele>1027.6666666666665</ele><time>2026-05-02T08:55:05.911Z</time></trkpt><trkpt lat="44.063178353593486" lon="11.480926434150025"><ele>1021.0</ele><time>2026-05-02T08:55:06.911Z</time></trkpt><trkpt lat="44.06302850241099" lon="11.480833897455826"><ele>1021.0</ele><time>2026-05-02T08:55:07.911Z</time></trkpt><trkpt lat="44.06287112000288" lon="11.480681513777371"><ele>1021.0</ele><time>2026-05-02T08:55:08.911Z</time></trkpt><trkpt lat="44.062711202343344" lon="11.480517894597616"><ele>1021.0</ele><time>2026-05-02T08:55:09.911Z</time></trkpt><trkpt lat="44.062561248496834" lon="11.48039241425894"><ele>1016.6666666666666</ele><time>2026-05-02T08:55:10.911Z</time></trkpt><trkpt lat="44.06239943476943" lon="11.480291593110772"><ele>1012.3333333333333</ele><time>2026-05-02T08:55:11.911Z</time></trkpt><trkpt lat="44.06225347808285" lon="11.480207221251572"><ele>1008.0</ele><time>2026-05-02T08:55:12.911Z</time></trkpt><trkpt lat="44.06211260235177" lon="11.480110566996478"><ele>1008.0</ele><time>2026-05-02T08:55:13.911Z</time></trkpt><trkpt lat="44.06196014956965" lon="11.480014959608281"><ele>1008.0</ele><time>2026-05-02T08:55:14.911Z</time></trkpt><trkpt lat="44.06183877924479" lon="11.479844631894482"><ele>1008.0</ele><time>2026-05-02T08:55:15.911Z</time></trkpt><trkpt lat="44.0617271903566" lon="11.47963754119556"><ele>1001.3333333333333</ele><time>2026-05-02T08:55:16.911Z</time></trkpt><trkpt lat="44.06160053371617" lon="11.479455271602962"><ele>994.6666666666666</ele><time>2026-05-02T08:55:17.911Z</time></trkpt><trkpt lat="44.061471550815604" lon="11.479278114783915"><ele>988.0</ele><time>2026-05-02T08:55:18.911Z</time></trkpt><trkpt lat="44.06134811124597" lon="11.479106926459114"><ele>988.0</ele><time>2026-05-02T08:55:19.911Z</time></trkpt><trkpt lat="44.06122840700654" lon="11.478946695991386"><ele>988.0</ele><time>2026-05-02T08:55:20.911Z</time></trkpt><trkpt lat="44.06110498088547" lon="11.47878406158952"><ele>988.0</ele><time>2026-05-02T08:55:21.911Z</time></trkpt><trkpt lat="44.06098049088214" lon="11.478615896226094"><ele>979.6666666666666</ele><time>2026-05-02T08:55:22.911Z</time></trkpt><trkpt lat="44.06085359978413" lon="11.47845271042704"><ele>971.3333333333333</ele><time>2026-05-02T08:55:23.911Z</time></trkpt><trkpt lat="44.06071816334662" lon="11.478315074877889"><ele>963.0</ele><time>2026-05-02T08:55:24.911Z</time></trkpt><trkpt lat="44.06057634183042" lon="11.478211591938361"><ele>963.0</ele><time>2026-05-02T08:55:25.911Z</time></trkpt><trkpt lat="44.06043452667383" lon="11.478111085768152"><ele>963.0</ele><time>2026-05-02T08:55:26.911Z</time></trkpt><trkpt lat="44.06029890096076" lon="11.478019975046633"><ele>963.0</ele><time>2026-05-02T08:55:27.911Z</time></trkpt><trkpt lat="44.060174302477776" lon="11.477953236525627"><ele>963.0</ele><time>2026-05-02T08:55:28.911Z</time></trkpt><trkpt lat="44.0600479290658" lon="11.47791855717898"><ele>958.75</ele><time>2026-05-02T08:55:29.911Z</time></trkpt><trkpt lat="44.05991863548323" lon="11.47792495611507"><ele>954.5</ele><time>2026-05-02T08:55:30.911Z</time></trkpt><trkpt lat="44.05978197713519" lon="11.477973267842643"><ele>950.25</ele><time>2026-05-02T08:55:31.911Z</time></trkpt><trkpt lat="44.05963611301408" lon="11.478041634884697"><ele>946.0</ele><time>2026-05-02T08:55:32.911Z</time></trkpt><trkpt lat="44.059486633531094" lon="11.478128979244238"><ele>946.0</ele><time>2026-05-02T08:55:33.911Z</time></trkpt><trkpt lat="44.05933096797205" lon="11.478242524085138"><ele>946.0</ele><time>2026-05-02T08:55:34.911Z</time></trkpt><trkpt lat="44.05918958474056" lon="11.478357242876992"><ele>946.0</ele><time>2026-05-02T08:55:35.911Z</time></trkpt><trkpt lat="44.05907055804525" lon="11.478460781839772"><ele>943.5</ele><time>2026-05-02T08:55:36.911Z</time></trkpt><trkpt lat="44.05897565044236" lon="11.478579221438732"><ele>941.0</ele><time>2026-05-02T08:55:37.911Z</time></trkpt><trkpt lat="44.05890519760351" lon="11.478731535910631"><ele>938.5</ele><time>2026-05-02T08:55:38.911Z</time></trkpt><trkpt lat="44.05884089016087" lon="11.478889487061796"><ele>936.0</ele><time>2026-05-02T08:55:39.911Z</time></trkpt><trkpt lat="44.058762074448744" lon="11.479008750341585"><ele>936.0</ele><time>2026-05-02T08:55:40.911Z</time></trkpt><trkpt lat="44.058640928611375" lon="11.479104465279415"><ele>936.0</ele><time>2026-05-02T08:55:41.911Z</time></trkpt><trkpt lat="44.05849868161187" lon="11.479185161583565"><ele>936.0</ele><time>2026-05-02T08:55:42.911Z</time></trkpt><trkpt lat="44.05833763572687" lon="11.479267534644459"><ele>930.6666666666667</ele><time>2026-05-02T08:55:43.911Z</time></trkpt><trkpt lat="44.05816914126987" lon="11.47935229353218"><ele>925.3333333333334</ele><time>2026-05-02T08:55:44.911Z</time></trkpt><trkpt lat="44.05801964539314" lon="11.479438140497574"><ele>920.0</ele><time>2026-05-02T08:55:45.911Z</time></trkpt><trkpt lat="44.057890403189624" lon="11.479525816764877"><ele>922.75</ele><time>2026-05-02T08:55:46.911Z</time></trkpt><trkpt lat="44.05777906519901" lon="11.479635179042685"><ele>925.5</ele><time>2026-05-02T08:55:47.91Z</time></trkpt><trkpt lat="44.057688187863626" lon="11.479785903557932"><ele>928.25</ele><time>2026-05-02T08:55:48.91Z</time></trkpt><trkpt lat="44.05759924717244" lon="11.479956582298755"><ele>931.0</ele><time>2026-05-02T08:55:49.91Z</time></trkpt><trkpt lat="44.05749748702468" lon="11.480145075322218"><ele>932.0</ele><time>2026-05-02T08:55:50.911Z</time></trkpt><trkpt lat="44.05739974473543" lon="11.480314211690127"><ele>933.0</ele><time>2026-05-02T08:55:51.911Z</time></trkpt><trkpt lat="44.057297219465916" lon="11.4804606946355"><ele>934.0</ele><time>2026-05-02T08:55:52.91Z</time></trkpt><trkpt lat="44.05720168928577" lon="11.480579866829967"><ele>935.0</ele><time>2026-05-02T08:55:53.91Z</time></trkpt><trkpt lat="44.05712512637513" lon="11.48071303924369"><ele>933.0</ele><time>2026-05-02T08:55:54.91Z</time></trkpt><trkpt lat="44.057081048455224" lon="11.480880478029157"><ele>931.0</ele><time>2026-05-02T08:55:55.91Z</time></trkpt><trkpt lat="44.05706020573211" lon="11.481077403664333"><ele>929.0</ele><time>2026-05-02T08:55:56.911Z</time></trkpt><trkpt lat="44.05705238481212" lon="11.481269350259842"><ele>927.0</ele><time>2026-05-02T08:55:57.911Z</time></trkpt><trkpt lat="44.05703444419336" lon="11.481432761818306"><ele>926.5</ele><time>2026-05-02T08:55:58.911Z</time></trkpt><trkpt lat="44.05698567309403" lon="11.48157111448951"><ele>926.0</ele><time>2026-05-02T08:55:59.911Z</time></trkpt><trkpt lat="44.05690162681354" lon="11.481669810307613"><ele>925.5</ele><time>2026-05-02T08:56:00.911Z</time></trkpt><trkpt lat="44.05680347502273" lon="11.48175975243379"><ele>925.0</ele><time>2026-05-02T08:56:01.911Z</time></trkpt><trkpt lat="44.05669869817457" lon="11.4818524113297"><ele>931.0</ele><time>2026-05-02T08:56:02.911Z</time></trkpt><trkpt lat="44.056598778287025" lon="11.481918900442254"><ele>937.0</ele><time>2026-05-02T08:56:03.911Z</time></trkpt><trkpt lat="44.056490450872396" lon="11.481937724413239"><ele>943.0</ele><time>2026-05-02T08:56:04.911Z</time></trkpt><trkpt lat="44.05636912809043" lon="11.481910720707026"><ele>949.0</ele><time>2026-05-02T08:56:05.911Z</time></trkpt><trkpt lat="44.05624492667637" lon="11.4818463333901"><ele>949.0</ele><time>2026-05-02T08:56:06.911Z</time></trkpt><trkpt lat="44.05612337320186" lon="11.481751488445452"><ele>949.0</ele><time>2026-05-02T08:56:07.911Z</time></trkpt><trkpt lat="44.05599598498911" lon="11.481645618022934"><ele>949.0</ele><time>2026-05-02T08:56:08.911Z</time></trkpt><trkpt lat="44.05585131337983" lon="11.481535896266832"><ele>953.0</ele><time>2026-05-02T08:56:09.911Z</time></trkpt><trkpt lat="44.055713456580435" lon="11.481450195736931"><ele>957.0</ele><time>2026-05-02T08:56:10.911Z</time></trkpt><trkpt lat="44.055580239497864" lon="11.481375252068656"><ele>961.0</ele><time>2026-05-02T08:56:11.911Z</time></trkpt><trkpt lat="44.05544237757134" lon="11.48131928964275"><ele>965.0</ele><time>2026-05-02T08:56:12.911Z</time></trkpt><trkpt lat="44.055301745109304" lon="11.481279234645756"><ele>965.0</ele><time>2026-05-02T08:56:13.911Z</time></trkpt><trkpt lat="44.05515512762808" lon="11.481268123867599"><ele>965.0</ele><time>2026-05-02T08:56:14.911Z</time></trkpt><trkpt lat="44.0550122543483" lon="11.481259101452467"><ele>965.0</ele><time>2026-05-02T08:56:15.911Z</time></trkpt><trkpt lat="44.05488389955479" lon="11.481275633431895"><ele>965.0</ele><time>2026-05-02T08:56:16.911Z</time></trkpt><trkpt lat="44.05472684591576" lon="11.481324642667749"><ele>965.75</ele><time>2026-05-02T08:56:17.911Z</time></trkpt><trkpt lat="44.05458270142888" lon="11.481345560164648"><ele>966.5</ele><time>2026-05-02T08:56:18.911Z</time></trkpt><trkpt lat="44.05444164312778" lon="11.481349958720394"><ele>967.25</ele><time>2026-05-02T08:56:19.911Z</time></trkpt><trkpt lat="44.05430143551398" lon="11.481330451251605"><ele>968.0</ele><time>2026-05-02T08:56:20.911Z</time></trkpt><trkpt lat="44.05415479391245" lon="11.481290263765585"><ele>967.3333333333334</ele><time>2026-05-02T08:56:21.911Z</time></trkpt><trkpt lat="44.054014232444885" lon="11.481217360039153"><ele>966.6666666666667</ele><time>2026-05-02T08:56:22.911Z</time></trkpt><trkpt lat="44.053866935966695" lon="11.481139000383447"><ele>966.0</ele><time>2026-05-02T08:56:23.911Z</time></trkpt><trkpt lat="44.053701752223" lon="11.481039540797447"><ele>966.0</ele><time>2026-05-02T08:56:24.911Z</time></trkpt><trkpt lat="44.05355297070966" lon="11.480945191951166"><ele>966.0</ele><time>2026-05-02T08:56:25.911Z</time></trkpt><trkpt lat="44.0533972485306" lon="11.480834993405555"><ele>966.0</ele><time>2026-05-02T08:56:26.911Z</time></trkpt><trkpt lat="44.053250773279174" lon="11.480735568310765"><ele>970.3333333333333</ele><time>2026-05-02T08:56:27.911Z</time></trkpt><trkpt lat="44.05310476306833" lon="11.480659101394085"><ele>974.6666666666666</ele><time>2026-05-02T08:56:28.911Z</time></trkpt><trkpt lat="44.052937462932285" lon="11.480599426326194"><ele>979.0</ele><time>2026-05-02T08:56:29.911Z</time></trkpt><trkpt lat="44.05276294003213" lon="11.480553530181714"><ele>979.0</ele><time>2026-05-02T08:56:30.911Z</time></trkpt><trkpt lat="44.05258352470644" lon="11.480495073847003"><ele>979.0</ele><time>2026-05-02T08:56:31.911Z</time></trkpt><trkpt lat="44.05240134686295" lon="11.480445358525175"><ele>979.0</ele><time>2026-05-02T08:56:32.911Z</time></trkpt><trkpt lat="44.052223674880295" lon="11.480383063674314"><ele>978.0</ele><time>2026-05-02T08:56:33.911Z</time></trkpt><trkpt lat="44.05202857295067" lon="11.480340236134149"><ele>977.0</ele><time>2026-05-02T08:56:34.911Z</time></trkpt><trkpt lat="44.05184885841401" lon="11.480314189488405"><ele>976.0</ele><time>2026-05-02T08:56:35.911Z</time></trkpt><trkpt lat="44.05164924251972" lon="11.48028456689932"><ele>979.6666666666666</ele><time>2026-05-02T08:56:36.911Z</time></trkpt><trkpt lat="44.05149012204888" lon="11.480236506742676"><ele>983.3333333333333</ele><time>2026-05-02T08:56:37.911Z</time></trkpt><trkpt lat="44.051320280797405" lon="11.480175687714508"><ele>987.0</ele><time>2026-05-02T08:56:38.911Z</time></trkpt><trkpt lat="44.05116595795386" lon="11.480111588770862"><ele>987.0</ele><time>2026-05-02T08:56:39.911Z</time></trkpt><trkpt lat="44.050979326696456" lon="11.480030070516268"><ele>987.0</ele><time>2026-05-02T08:56:40.911Z</time></trkpt><trkpt lat="44.05083933473833" lon="11.47992686047912"><ele>987.0</ele><time>2026-05-02T08:56:41.911Z</time></trkpt><trkpt lat="44.0506985358084" lon="11.479828999100334"><ele>990.3333333333333</ele><time>2026-05-02T08:56:42.911Z</time></trkpt><trkpt lat="44.05058298876409" lon="11.479720600520261"><ele>993.6666666666666</ele><time>2026-05-02T08:56:43.911Z</time></trkpt><trkpt lat="44.05043598106252" lon="11.479582764460378"><ele>997.0</ele><time>2026-05-02T08:56:44.911Z</time></trkpt><trkpt lat="44.05031700487326" lon="11.479468622766131"><ele>997.0</ele><time>2026-05-02T08:56:45.911Z</time></trkpt><trkpt lat="44.050204872733495" lon="11.479367566199784"><ele>997.0</ele><time>2026-05-02T08:56:46.911Z</time></trkpt><trkpt lat="44.05010791078897" lon="11.479274835140242"><ele>997.0</ele><time>2026-05-02T08:56:47.911Z</time></trkpt><trkpt lat="44.0500423319827" lon="11.47919385883313"><ele>997.0</ele><time>2026-05-02T08:56:48.911Z</time></trkpt><trkpt lat="44.04998517886899" lon="11.47909020873065"><ele>997.0</ele><time>2026-05-02T08:56:49.911Z</time></trkpt><trkpt lat="44.04992527232863" lon="11.478981701619066"><ele>999.8</ele><time>2026-05-02T08:56:50.911Z</time></trkpt><trkpt lat="44.04986986300453" lon="11.478857039457553"><ele>1002.6</ele><time>2026-05-02T08:56:51.911Z</time></trkpt><trkpt lat="44.04983098632952" lon="11.478721232420282"><ele>1005.3999999999999</ele><time>2026-05-02T08:56:52.911Z</time></trkpt><trkpt lat="44.04978276502937" lon="11.478588281618677"><ele>1008.1999999999999</ele><time>2026-05-02T08:56:53.911Z</time></trkpt><trkpt lat="44.04973004798957" lon="11.478468909690903"><ele>1011.0</ele><time>2026-05-02T08:56:54.911Z</time></trkpt><trkpt lat="44.04963564826679" lon="11.478356045396064"><ele>1011.0</ele><time>2026-05-02T08:56:55.911Z</time></trkpt><trkpt lat="44.04953997412878" lon="11.478272105653456"><ele>1011.0</ele><time>2026-05-02T08:56:56.911Z</time></trkpt><trkpt lat="44.04942842650446" lon="11.478205488455021"><ele>1011.0</ele><time>2026-05-02T08:56:57.911Z</time></trkpt><trkpt lat="44.049307233118526" lon="11.47814305772652"><ele>1011.0</ele><time>2026-05-02T08:56:58.911Z</time></trkpt><trkpt lat="44.0491720739248" lon="11.478087534384832"><ele>1011.75</ele><time>2026-05-02T08:56:59.911Z</time></trkpt><trkpt lat="44.04904494612032" lon="11.47803711087134"><ele>1012.5</ele><time>2026-05-02T08:57:00.911Z</time></trkpt><trkpt lat="44.04891999710317" lon="11.47795463009696"><ele>1013.25</ele><time>2026-05-02T08:57:01.911Z</time></trkpt><trkpt lat="44.048807515163354" lon="11.477873920089568"><ele>1014.0</ele><time>2026-05-02T08:57:02.911Z</time></trkpt><trkpt lat="44.0487280127945" lon="11.477814757201493"><ele>1014.0</ele><time>2026-05-02T08:57:03.911Z</time></trkpt><trkpt lat="44.04863820712727" lon="11.477776175418382"><ele>1014.0000000000001</ele><time>2026-05-02T08:57:04.911Z</time></trkpt><trkpt lat="44.04857314500596" lon="11.477738387476496"><ele>1014.0000000000001</ele><time>2026-05-02T08:57:05.911Z</time></trkpt><trkpt lat="44.04849835481054" lon="11.477695764750061"><ele>1014.0</ele><time>2026-05-02T08:57:06.911Z</time></trkpt><trkpt lat="44.04840908089551" lon="11.477648475974608"><ele>1014.0</ele><time>2026-05-02T08:57:07.911Z</time></trkpt><trkpt lat="44.04829698833285" lon="11.477609779410814"><ele>1016.2</ele><time>2026-05-02T08:57:08.911Z</time></trkpt><trkpt lat="44.04818566087419" lon="11.477571252777933"><ele>1018.4000000000001</ele><time>2026-05-02T08:57:09.911Z</time></trkpt><trkpt lat="44.04808676281795" lon="11.47757545985973"><ele>1020.6</ele><time>2026-05-02T08:57:10.911Z</time></trkpt><trkpt lat="44.04798216256782" lon="11.47757745257518"><ele>1022.8</ele><time>2026-05-02T08:57:11.911Z</time></trkpt><trkpt lat="44.0478982703084" lon="11.477576019495968"><ele>1025.0</ele><time>2026-05-02T08:57:12.911Z</time></trkpt><trkpt lat="44.047821894632804" lon="11.4775604999052"><ele>1025.0</ele><time>2026-05-02T08:57:13.911Z</time></trkpt><trkpt lat="44.04775574079966" lon="11.477521494612231"><ele>1025.0</ele><time>2026-05-02T08:57:14.911Z</time></trkpt><trkpt lat="44.04767575369487" lon="11.477432448478444"><ele>1025.0</ele><time>2026-05-02T08:57:15.91Z</time></trkpt><trkpt lat="44.04758379169846" lon="11.477350977696773"><ele>1025.0</ele><time>2026-05-02T08:57:16.91Z</time></trkpt><trkpt lat="44.04743888399831" lon="11.477284864079499"><ele>1025.0</ele><time>2026-05-02T08:57:17.91Z</time></trkpt><trkpt lat="44.04728471405482" lon="11.477229319603712"><ele>1027.0</ele><time>2026-05-02T08:57:18.91Z</time></trkpt><trkpt lat="44.0471231062272" lon="11.477162330482212"><ele>1029.0</ele><time>2026-05-02T08:57:19.91Z</time></trkpt><trkpt lat="44.04696951900787" lon="11.477048598336173"><ele>1031.0</ele><time>2026-05-02T08:57:20.91Z</time></trkpt><trkpt lat="44.04682834591938" lon="11.476915194619156"><ele>1031.0</ele><time>2026-05-02T08:57:21.91Z</time></trkpt><trkpt lat="44.046702346524604" lon="11.476817704181977"><ele>1031.0</ele><time>2026-05-02T08:57:22.91Z</time></trkpt><trkpt lat="44.046575648601106" lon="11.476763188593672"><ele>1031.0</ele><time>2026-05-02T08:57:23.91Z</time></trkpt><trkpt lat="44.04646689004796" lon="11.476727165476287"><ele>1031.0</ele><time>2026-05-02T08:57:24.91Z</time></trkpt><trkpt lat="44.04638458557891" lon="11.476677276636064"><ele>1033.8</ele><time>2026-05-02T08:57:25.91Z</time></trkpt><trkpt lat="44.04631300505614" lon="11.476647939990155"><ele>1036.6</ele><time>2026-05-02T08:57:26.91Z</time></trkpt><trkpt lat="44.04624329064042" lon="11.476512321999973"><ele>1039.4</ele><time>2026-05-02T08:57:27.91Z</time></trkpt><trkpt lat="44.04619518074332" lon="11.476386941795162"><ele>1042.2</ele><time>2026-05-02T08:57:28.91Z</time></trkpt><trkpt lat="44.046127705655636" lon="11.476277038895525"><ele>1045.0</ele><time>2026-05-02T08:57:29.91Z</time></trkpt><trkpt lat="44.04602639477033" lon="11.476170384619431"><ele>1045.0</ele><time>2026-05-02T08:57:30.91Z</time></trkpt><trkpt lat="44.045896915146386" lon="11.476080509284113"><ele>1045.0</ele><time>2026-05-02T08:57:31.91Z</time></trkpt><trkpt lat="44.04576498628891" lon="11.476023435873957"><ele>1045.0</ele><time>2026-05-02T08:57:32.91Z</time></trkpt><trkpt lat="44.045618390584245" lon="11.475951771142054"><ele>1045.0</ele><time>2026-05-02T08:57:33.91Z</time></trkpt><trkpt lat="44.045499809036635" lon="11.475874649043103"><ele>1044.6</ele><time>2026-05-02T08:57:34.91Z</time></trkpt><trkpt lat="44.04540257200373" lon="11.475806491862922"><ele>1044.2</ele><time>2026-05-02T08:57:35.91Z</time></trkpt><trkpt lat="44.04530810148636" lon="11.475751095585391"><ele>1043.8</ele><time>2026-05-02T08:57:36.91Z</time></trkpt><trkpt lat="44.04524491245475" lon="11.47562694951932"><ele>1043.4</ele><time>2026-05-02T08:57:37.91Z</time></trkpt><trkpt lat="44.04520595837672" lon="11.475465240121562"><ele>1043.0</ele><time>2026-05-02T08:57:38.91Z</time></trkpt><trkpt lat="44.0451664427219" lon="11.475282434094796"><ele>1041.5</ele><time>2026-05-02T08:57:39.91Z</time></trkpt><trkpt lat="44.045145465706305" lon="11.475128160690508"><ele>1040.0</ele><time>2026-05-02T08:57:40.91Z</time></trkpt><trkpt lat="44.04511826606753" lon="11.474971820944097"><ele>1038.5</ele><time>2026-05-02T08:57:41.91Z</time></trkpt><trkpt lat="44.04508326042993" lon="11.474822516807833"><ele>1037.0</ele><time>2026-05-02T08:57:42.91Z</time></trkpt><trkpt lat="44.045003657577844" lon="11.474668675192868"><ele>1034.25</ele><time>2026-05-02T08:57:43.91Z</time></trkpt><trkpt lat="44.04491488431324" lon="11.474532762672522"><ele>1031.5</ele><time>2026-05-02T08:57:44.91Z</time></trkpt><trkpt lat="44.044815944619884" lon="11.474419997759146"><ele>1028.75</ele><time>2026-05-02T08:57:45.91Z</time></trkpt><trkpt lat="44.04472518636208" lon="11.474310949353919"><ele>1026.0</ele><time>2026-05-02T08:57:46.91Z</time></trkpt><trkpt lat="44.04467302333239" lon="11.474184137301576"><ele>1026.0</ele><time>2026-05-02T08:57:47.91Z</time></trkpt><trkpt lat="44.04465524550007" lon="11.474029558299145"><ele>1026.0</ele><time>2026-05-02T08:57:48.91Z</time></trkpt><trkpt lat="44.044665158552775" lon="11.473832439546019"><ele>1026.0</ele><time>2026-05-02T08:57:49.91Z</time></trkpt><trkpt lat="44.04466834488037" lon="11.473646032261335"><ele>1026.0</ele><time>2026-05-02T08:57:50.91Z</time></trkpt><trkpt lat="44.0446765061887" lon="11.473454024534801"><ele>1025.6666666666667</ele><time>2026-05-02T08:57:51.91Z</time></trkpt><trkpt lat="44.044676961686" lon="11.473262139751176"><ele>1025.3333333333335</ele><time>2026-05-02T08:57:52.91Z</time></trkpt><trkpt lat="44.04468476835948" lon="11.473046689584951"><ele>1025.0</ele><time>2026-05-02T08:57:53.91Z</time></trkpt><trkpt lat="44.04469264314542" lon="11.472821400371577"><ele>1025.0</ele><time>2026-05-02T08:57:54.91Z</time></trkpt><trkpt lat="44.0446886047879" lon="11.472602153897347"><ele>1025.0</ele><time>2026-05-02T08:57:55.91Z</time></trkpt><trkpt lat="44.04469683227528" lon="11.472380758778097"><ele>1025.0</ele><time>2026-05-02T08:57:56.91Z</time></trkpt><trkpt lat="44.04469670949558" lon="11.472179923890721"><ele>1022.6</ele><time>2026-05-02T08:57:57.91Z</time></trkpt><trkpt lat="44.044697537568524" lon="11.471982354023144"><ele>1020.2</ele><time>2026-05-02T08:57:58.911Z</time></trkpt><trkpt lat="44.04469910487031" lon="11.47182987876383"><ele>1017.8</ele><time>2026-05-02T08:57:59.91Z</time></trkpt><trkpt lat="44.04470069489702" lon="11.471696938477871"><ele>1015.4</ele><time>2026-05-02T08:58:00.91Z</time></trkpt><trkpt lat="44.0446759219454" lon="11.47158720259681"><ele>1013.0</ele><time>2026-05-02T08:58:01.91Z</time></trkpt><trkpt lat="44.04463949751124" lon="11.4714772752481"><ele>1013.0</ele><time>2026-05-02T08:58:02.91Z</time></trkpt><trkpt lat="44.04453294579677" lon="11.47141856694199"><ele>1013.0</ele><time>2026-05-02T08:58:03.91Z</time></trkpt><trkpt lat="44.04441534558761" lon="11.47146882344445"><ele>1013.0</ele><time>2026-05-02T08:58:04.91Z</time></trkpt><trkpt lat="44.04432981399933" lon="11.471614965057302"><ele>1013.0</ele><time>2026-05-02T08:58:05.91Z</time></trkpt><trkpt lat="44.04424368360838" lon="11.471742353068226"><ele>1013.0</ele><time>2026-05-02T08:58:06.91Z</time></trkpt><trkpt lat="44.044140851159305" lon="11.471898942818015"><ele>1013.0</ele><time>2026-05-02T08:58:07.91Z</time></trkpt><trkpt lat="44.04403769058117" lon="11.47206545943378"><ele>1013.0</ele><time>2026-05-02T08:58:08.91Z</time></trkpt><trkpt lat="44.043990688518015" lon="11.472257923371558"><ele>1005.25</ele><time>2026-05-02T08:58:09.91Z</time></trkpt><trkpt lat="44.04393107575022" lon="11.472423831862125"><ele>997.5</ele><time>2026-05-02T08:58:10.91Z</time></trkpt><trkpt lat="44.04386418000654" lon="11.472586402576631"><ele>989.75</ele><time>2026-05-02T08:58:11.91Z</time></trkpt><trkpt lat="44.04376086542509" lon="11.472705326742913"><ele>982.0</ele><time>2026-05-02T08:58:12.91Z</time></trkpt><trkpt lat="44.043676466263335" lon="11.472810832065868"><ele>981.0</ele><time>2026-05-02T08:58:13.91Z</time></trkpt><trkpt lat="44.04362883410458" lon="11.472952115817927"><ele>980.0</ele><time>2026-05-02T08:58:14.91Z</time></trkpt><trkpt lat="44.043641844987924" lon="11.473097182365574"><ele>979.0</ele><time>2026-05-02T08:58:15.91Z</time></trkpt><trkpt lat="44.04368003461683" lon="11.47326452787693"><ele>978.0</ele><time>2026-05-02T08:58:16.91Z</time></trkpt><trkpt lat="44.04373615410729" lon="11.47344002671672"><ele>978.0</ele><time>2026-05-02T08:58:17.91Z</time></trkpt><trkpt lat="44.043771278122776" lon="11.473605110887155"><ele>978.0</ele><time>2026-05-02T08:58:18.91Z</time></trkpt><trkpt lat="44.04376287618728" lon="11.473747105848553"><ele>978.0</ele><time>2026-05-02T08:58:19.91Z</time></trkpt><trkpt lat="44.04376042240242" lon="11.47384789599826"><ele>978.0</ele><time>2026-05-02T08:58:20.91Z</time></trkpt><trkpt lat="44.043757487971014" lon="11.47394820799714"><ele>978.0</ele><time>2026-05-02T08:58:23.91Z</time></trkpt><trkpt lat="44.043735698483744" lon="11.474082312257726"><ele>978.2</ele><time>2026-05-02T08:58:37.91Z</time></trkpt><trkpt lat="44.04368709021625" lon="11.474232741879728"><ele>978.4</ele><time>2026-05-02T08:58:39.91Z</time></trkpt><trkpt lat="44.04364092240945" lon="11.47432752799283"><ele>978.6000000000001</ele><time>2026-05-02T08:58:40.91Z</time></trkpt><trkpt lat="44.04358101498273" lon="11.474438282421113"><ele>978.8000000000001</ele><time>2026-05-02T08:58:41.91Z</time></trkpt><trkpt lat="44.04351920114754" lon="11.474587112174802"><ele>979.0</ele><time>2026-05-02T08:58:42.91Z</time></trkpt><trkpt lat="44.04347637692581" lon="11.474759137800108"><ele>981.25</ele><time>2026-05-02T08:58:43.91Z</time></trkpt><trkpt lat="44.043455077604285" lon="11.474941794835974"><ele>983.5</ele><time>2026-05-02T08:58:44.91Z</time></trkpt><trkpt lat="44.043445737770256" lon="11.475114736368582"><ele>985.75</ele><time>2026-05-02T08:58:45.91Z</time></trkpt><trkpt lat="44.043443196464644" lon="11.475267197801385"><ele>988.0</ele><time>2026-05-02T08:58:46.91Z</time></trkpt><trkpt lat="44.043441617906154" lon="11.475390325169611"><ele>989.1666666666666</ele><time>2026-05-02T08:58:47.91Z</time></trkpt><trkpt lat="44.04343911861154" lon="11.475497782334138"><ele>990.3333333333333</ele><time>2026-05-02T08:58:48.91Z</time></trkpt><trkpt lat="44.04343332437807" lon="11.47559380034515"><ele>991.5</ele><time>2026-05-02T08:58:49.91Z</time></trkpt><trkpt lat="44.043410320160326" lon="11.4756955430779"><ele>992.6666666666667</ele><time>2026-05-02T08:58:50.91Z</time></trkpt><trkpt lat="44.04336057661978" lon="11.475811244419354"><ele>993.8333333333334</ele><time>2026-05-02T08:58:51.91Z</time></trkpt><trkpt lat="44.04328719274642" lon="11.475919930902908"><ele>995.0</ele><time>2026-05-02T08:58:52.91Z</time></trkpt><trkpt lat="44.04321304386518" lon="11.476038171014283"><ele>988.75</ele><time>2026-05-02T08:58:53.91Z</time></trkpt><trkpt lat="44.043135011736894" lon="11.476148587977221"><ele>982.5</ele><time>2026-05-02T08:58:54.91Z</time></trkpt><trkpt lat="44.04303556271502" lon="11.476230119691287"><ele>976.25</ele><time>2026-05-02T08:58:55.91Z</time></trkpt><trkpt lat="44.04293178171001" lon="11.476297534509143"><ele>970.0</ele><time>2026-05-02T08:58:56.91Z</time></trkpt><trkpt lat="44.042838381338896" lon="11.476381918907634"><ele>970.0</ele><time>2026-05-02T08:58:57.91Z</time></trkpt><trkpt lat="44.04276202206681" lon="11.476462801239682"><ele>970.0</ele><time>2026-05-02T08:58:58.91Z</time></trkpt><trkpt lat="44.04272124758738" lon="11.476610307892676"><ele>970.0</ele><time>2026-05-02T08:58:59.91Z</time></trkpt><trkpt lat="44.04275557604464" lon="11.476774375502558"><ele>970.0</ele><time>2026-05-02T08:59:00.91Z</time></trkpt><trkpt lat="44.04277276764635" lon="11.476949041331833"><ele>967.6666666666666</ele><time>2026-05-02T08:59:01.91Z</time></trkpt><trkpt lat="44.0428017610847" lon="11.4771612614917"><ele>965.3333333333333</ele><time>2026-05-02T08:59:02.91Z</time></trkpt><trkpt lat="44.04282829554381" lon="11.477385131385814"><ele>963.0</ele><time>2026-05-02T08:59:03.91Z</time></trkpt><trkpt lat="44.04282650781595" lon="11.47760508293151"><ele>963.0</ele><time>2026-05-02T08:59:04.91Z</time></trkpt><trkpt lat="44.042840318306546" lon="11.477807664644494"><ele>963.0</ele><time>2026-05-02T08:59:05.91Z</time></trkpt><trkpt lat="44.04284707049939" lon="11.477992724046329"><ele>963.0</ele><time>2026-05-02T08:59:06.91Z</time></trkpt><trkpt lat="44.042827490699146" lon="11.478160828287917"><ele>963.0</ele><time>2026-05-02T08:59:07.91Z</time></trkpt><trkpt lat="44.04277297424509" lon="11.478349409526725"><ele>962.8</ele><time>2026-05-02T08:59:08.91Z</time></trkpt><trkpt lat="44.042725794492725" lon="11.478471972747103"><ele>962.5999999999999</ele><time>2026-05-02T08:59:09.91Z</time></trkpt><trkpt lat="44.04268858404226" lon="11.478584498309507"><ele>962.4000000000001</ele><time>2026-05-02T08:59:10.91Z</time></trkpt><trkpt lat="44.04264784317064" lon="11.478690755709131"><ele>962.2</ele><time>2026-05-02T08:59:11.91Z</time></trkpt><trkpt lat="44.04259254911732" lon="11.478798271109316"><ele>962.0</ele><time>2026-05-02T08:59:12.91Z</time></trkpt><trkpt lat="44.04251522132408" lon="11.478919543747816"><ele>952.75</ele><time>2026-05-02T08:59:13.91Z</time></trkpt><trkpt lat="44.042437425421966" lon="11.479039036289771"><ele>943.5</ele><time>2026-05-02T08:59:14.91Z</time></trkpt><trkpt lat="44.042356224610295" lon="11.479166214691306"><ele>934.25</ele><time>2026-05-02T08:59:15.91Z</time></trkpt><trkpt lat="44.042241189793174" lon="11.479302125953023"><ele>925.0</ele><time>2026-05-02T08:59:16.91Z</time></trkpt><trkpt lat="44.0421407761713" lon="11.479452665461627"><ele>927.75</ele><time>2026-05-02T08:59:17.91Z</time></trkpt><trkpt lat="44.04205363980123" lon="11.479602511287824"><ele>930.5</ele><time>2026-05-02T08:59:18.91Z</time></trkpt><trkpt lat="44.041994159787535" lon="11.479770247298774"><ele>933.25</ele><time>2026-05-02T08:59:19.91Z</time></trkpt><trkpt lat="44.041949034224054" lon="11.47997382020189"><ele>936.0</ele><time>2026-05-02T08:59:20.91Z</time></trkpt><trkpt lat="44.04190172220159" lon="11.480196451705117"><ele>936.0</ele><time>2026-05-02T08:59:21.91Z</time></trkpt><trkpt lat="44.041846710167626" lon="11.480427191946232"><ele>936.0</ele><time>2026-05-02T08:59:22.91Z</time></trkpt><trkpt lat="44.04179374771835" lon="11.480631254456819"><ele>936.0</ele><time>2026-05-02T08:59:23.91Z</time></trkpt><trkpt lat="44.04177054998603" lon="11.480835175305014"><ele>938.25</ele><time>2026-05-02T08:59:24.91Z</time></trkpt><trkpt lat="44.04174983456305" lon="11.481035975444836"><ele>940.5</ele><time>2026-05-02T08:59:25.91Z</time></trkpt><trkpt lat="44.041692504216954" lon="11.481220029702124"><ele>942.75</ele><time>2026-05-02T08:59:26.91Z</time></trkpt><trkpt lat="44.041596695696796" lon="11.481389519240663"><ele>945.0</ele><time>2026-05-02T08:59:27.91Z</time></trkpt><trkpt lat="44.04154404027908" lon="11.481554653370118"><ele>938.0</ele><time>2026-05-02T08:59:28.91Z</time></trkpt><trkpt lat="44.04149329561015" lon="11.48169317884543"><ele>931.0</ele><time>2026-05-02T08:59:29.91Z</time></trkpt><trkpt lat="44.04141783250927" lon="11.481763766313446"><ele>924.0</ele><time>2026-05-02T08:59:30.91Z</time></trkpt><trkpt lat="44.041316006502825" lon="11.481801801033859"><ele>917.0</ele><time>2026-05-02T08:59:31.91Z</time></trkpt><trkpt lat="44.04118122167679" lon="11.481873258274357"><ele>917.0</ele><time>2026-05-02T08:59:32.91Z</time></trkpt><trkpt lat="44.041043329772734" lon="11.481936247839885"><ele>917.0</ele><time>2026-05-02T08:59:33.91Z</time></trkpt><trkpt lat="44.04089695582764" lon="11.481947254672086"><ele>917.0</ele><time>2026-05-02T08:59:34.91Z</time></trkpt><trkpt lat="44.04075488083032" lon="11.482006164717681"><ele>917.0</ele><time>2026-05-02T08:59:35.91Z</time></trkpt><trkpt lat="44.040640526632025" lon="11.482114234821923"><ele>915.75</ele><time>2026-05-02T08:59:36.91Z</time></trkpt><trkpt lat="44.04052628564145" lon="11.482227597009716"><ele>914.5</ele><time>2026-05-02T08:59:37.91Z</time></trkpt><trkpt lat="44.040438470070754" lon="11.482373792394"><ele>913.25</ele><time>2026-05-02T08:59:38.91Z</time></trkpt><trkpt lat="44.0403635033714" lon="11.482552268136006"><ele>912.0</ele><time>2026-05-02T08:59:39.91Z</time></trkpt><trkpt lat="44.04030858759677" lon="11.482773617488713"><ele>917.0</ele><time>2026-05-02T08:59:40.91Z</time></trkpt><trkpt lat="44.04024544804367" lon="11.482955755256382"><ele>922.0</ele><time>2026-05-02T08:59:41.91Z</time></trkpt><trkpt lat="44.040227789022516" lon="11.483136310247902"><ele>927.0</ele><time>2026-05-02T08:59:42.91Z</time></trkpt><trkpt lat="44.040212436134006" lon="11.483292281448948"><ele>932.0</ele><time>2026-05-02T08:59:43.91Z</time></trkpt><trkpt lat="44.040173527829594" lon="11.483392132674354"><ele>932.0</ele><time>2026-05-02T08:59:44.91Z</time></trkpt><trkpt lat="44.04013382701238" lon="11.483477979820602"><ele>932.0</ele><time>2026-05-02T08:59:45.91Z</time></trkpt><trkpt lat="44.040065537399386" lon="11.483491262980001"><ele>932.0</ele><time>2026-05-02T08:59:46.91Z</time></trkpt><trkpt lat="44.039961537054445" lon="11.483471787212116"><ele>932.0</ele><time>2026-05-02T08:59:47.91Z</time></trkpt><trkpt lat="44.039866362980945" lon="11.483553485173276"><ele>932.0</ele><time>2026-05-02T08:59:48.91Z</time></trkpt><trkpt lat="44.03980900001256" lon="11.483713323875268"><ele>931.8</ele><time>2026-05-02T08:59:49.91Z</time></trkpt><trkpt lat="44.039710240440954" lon="11.483804342185312"><ele>931.6</ele><time>2026-05-02T08:59:50.91Z</time></trkpt><trkpt lat="44.03960330601365" lon="11.48388001482527"><ele>931.3999999999999</ele><time>2026-05-02T08:59:51.91Z</time></trkpt><trkpt lat="44.03950011002215" lon="11.483908044405444"><ele>931.1999999999999</ele><time>2026-05-02T08:59:52.91Z</time></trkpt><trkpt lat="44.03941458714876" lon="11.48392583174225"><ele>931.0</ele><time>2026-05-02T08:59:53.91Z</time></trkpt><trkpt lat="44.03935026491305" lon="11.483935264238497"><ele>930.9999999999999</ele><time>2026-05-02T08:59:54.91Z</time></trkpt><trkpt lat="44.03924778270973" lon="11.483937727477924"><ele>931.0</ele><time>2026-05-02T08:59:56.91Z</time></trkpt><trkpt lat="44.03916021692513" lon="11.483941093743693"><ele>931.0</ele><time>2026-05-02T08:59:58.909Z</time></trkpt><trkpt lat="44.03907853960189" lon="11.483964424633735"><ele>931.0</ele><time>2026-05-02T09:00:00.91Z</time></trkpt><trkpt lat="44.03899143536843" lon="11.483973031714322"><ele>930.9999999999999</ele><time>2026-05-02T09:00:03.91Z</time></trkpt><trkpt lat="44.03892859559904" lon="11.483929480134087"><ele>931.0</ele><time>2026-05-02T09:00:06.91Z</time></trkpt><trkpt lat="44.038844940697125" lon="11.483900309566712"><ele>930.4</ele><time>2026-05-02T09:00:10.91Z</time></trkpt><trkpt lat="44.03878326642355" lon="11.48385510144639"><ele>929.8</ele><time>2026-05-02T09:00:13.91Z</time></trkpt><trkpt lat="44.03868460962858" lon="11.484012567386015"><ele>929.1999999999999</ele><time>2026-05-02T09:00:17.91Z</time></trkpt><trkpt lat="44.0386532674044" lon="11.484131836878435"><ele>928.5999999999999</ele><time>2026-05-02T09:00:20.91Z</time></trkpt><trkpt lat="44.038614175133056" lon="11.484257179998236"><ele>928.0</ele><time>2026-05-02T09:00:23.91Z</time></trkpt><trkpt lat="44.03856613160869" lon="11.484382937313866"><ele>928.0</ele><time>2026-05-02T09:00:25.91Z</time></trkpt><trkpt lat="44.038533502740805" lon="11.484506839533768"><ele>928.0</ele><time>2026-05-02T09:00:27.91Z</time></trkpt><trkpt lat="44.03852392790186" lon="11.48461966626152"><ele>914.0</ele><time>2026-05-02T09:00:30.91Z</time></trkpt></trkseg><trkseg><trkpt lat="44.03853907115195" lon="11.484782103498707"><ele>914.0</ele><time>2026-05-02T09:37:32Z</time></trkpt><trkpt lat="44.038578317892934" lon="11.484878170713309"><ele>914.0000000000001</ele><time>2026-05-02T09:37:34Z</time></trkpt><trkpt lat="44.03862606889846" lon="11.485031177387508"><ele>914.0000000000001</ele><time>2026-05-02T09:37:36Z</time></trkpt><trkpt lat="44.038641156122985" lon="11.485140937549735"><ele>914.0</ele><time>2026-05-02T09:37:37Z</time></trkpt><trkpt lat="44.03866737410853" lon="11.485225708631862"><ele>914.0</ele><time>2026-05-02T09:37:38Z</time></trkpt><trkpt lat="44.0387090450621" lon="11.485360526273759"><ele>911.2</ele><time>2026-05-02T09:37:39Z</time></trkpt><trkpt lat="44.038751631573575" lon="11.485482682582175"><ele>908.4000000000001</ele><time>2026-05-02T09:37:40Z</time></trkpt><trkpt lat="44.03878313724623" lon="11.485575130640324"><ele>905.6</ele><time>2026-05-02T09:37:41Z</time></trkpt><trkpt lat="44.038820941406534" lon="11.485681922847682"><ele>902.8</ele><time>2026-05-02T09:37:42Z</time></trkpt><trkpt lat="44.03883364062793" lon="11.48583373037803"><ele>900.0</ele><time>2026-05-02T09:37:43Z</time></trkpt><trkpt lat="44.038825189807966" lon="11.485987476757993"><ele>900.0</ele><time>2026-05-02T09:37:44Z</time></trkpt><trkpt lat="44.038805622272136" lon="11.486169187562597"><ele>900.0</ele><time>2026-05-02T09:37:45Z</time></trkpt><trkpt lat="44.03879097803914" lon="11.48634332728512"><ele>900.0</ele><time>2026-05-02T09:37:46Z</time></trkpt><trkpt lat="44.03881558301838" lon="11.486509991551687"><ele>900.0</ele><time>2026-05-02T09:37:47Z</time></trkpt><trkpt lat="44.03887978041567" lon="11.486667224587546"><ele>898.2</ele><time>2026-05-02T09:37:48Z</time></trkpt><trkpt lat="44.03894177238453" lon="11.486801299736278"><ele>896.4</ele><time>2026-05-02T09:37:49Z</time></trkpt><trkpt lat="44.038969364693564" lon="11.486926978478445"><ele>894.5999999999999</ele><time>2026-05-02T09:37:50Z</time></trkpt><trkpt lat="44.03894859087827" lon="11.487065129742419"><ele>892.8</ele><time>2026-05-02T09:37:51Z</time></trkpt><trkpt lat="44.038906307076296" lon="11.487230361123103"><ele>891.0</ele><time>2026-05-02T09:37:52Z</time></trkpt><trkpt lat="44.03885575208184" lon="11.487407159216403"><ele>889.8</ele><time>2026-05-02T09:37:53Z</time></trkpt><trkpt lat="44.03882200487676" lon="11.48757150510349"><ele>888.5999999999999</ele><time>2026-05-02T09:37:54Z</time></trkpt><trkpt lat="44.03879723193983" lon="11.487699363943843"><ele>887.4</ele><time>2026-05-02T09:37:55Z</time></trkpt><trkpt lat="44.03882874137102" lon="11.487825668429416"><ele>886.2</ele><time>2026-05-02T09:37:55.999Z</time></trkpt><trkpt lat="44.03887762973711" lon="11.487940654678109"><ele>885.0</ele><time>2026-05-02T09:37:56.999Z</time></trkpt><trkpt lat="44.03890614065745" lon="11.488096334213209"><ele>885.0</ele><time>2026-05-02T09:37:57.999Z</time></trkpt><trkpt lat="44.038865166500806" lon="11.488205951018998"><ele>885.0</ele><time>2026-05-02T09:37:58.999Z</time></trkpt><trkpt lat="44.03877349801694" lon="11.4882549216184"><ele>885.0</ele><time>2026-05-02T09:37:59.999Z</time></trkpt><trkpt lat="44.03870678514251" lon="11.488374977449805"><ele>885.0</ele><time>2026-05-02T09:38:00.999Z</time></trkpt><trkpt lat="44.03866194608598" lon="11.488505599523219"><ele>885.0</ele><time>2026-05-02T09:38:01.999Z</time></trkpt><trkpt lat="44.03865872095319" lon="11.488687116027553"><ele>886.0</ele><time>2026-05-02T09:38:02.999Z</time></trkpt><trkpt lat="44.038685465907086" lon="11.488867482379423"><ele>887.0</ele><time>2026-05-02T09:38:03.999Z</time></trkpt><trkpt lat="44.03871687327499" lon="11.489022150377123"><ele>888.0</ele><time>2026-05-02T09:38:04.999Z</time></trkpt><trkpt lat="44.03874246844744" lon="11.489178166550953"><ele>889.0</ele><time>2026-05-02T09:38:05.999Z</time></trkpt><trkpt lat="44.038736634391576" lon="11.489335330253883"><ele>889.0</ele><time>2026-05-02T09:38:06.999Z</time></trkpt><trkpt lat="44.03869407151229" lon="11.489501655561932"><ele>889.0</ele><time>2026-05-02T09:38:07.999Z</time></trkpt><trkpt lat="44.038622341174445" lon="11.48964982227483"><ele>889.0</ele><time>2026-05-02T09:38:08.999Z</time></trkpt><trkpt lat="44.038563578952385" lon="11.489771898574915"><ele>889.0</ele><time>2026-05-02T09:38:09.999Z</time></trkpt><trkpt lat="44.038476246199394" lon="11.489868642470402"><ele>893.0</ele><time>2026-05-02T09:38:10.999Z</time></trkpt><trkpt lat="44.03837333499918" lon="11.48987333008539"><ele>897.0</ele><time>2026-05-02T09:38:11.999Z</time></trkpt><trkpt lat="44.03825258351515" lon="11.489844060948144"><ele>901.0</ele><time>2026-05-02T09:38:12.999Z</time></trkpt><trkpt lat="44.03814044322212" lon="11.489895797614084"><ele>905.0</ele><time>2026-05-02T09:38:13.999Z</time></trkpt><trkpt lat="44.03802346537715" lon="11.489988442423886"><ele>896.25</ele><time>2026-05-02T09:38:14.999Z</time></trkpt><trkpt lat="44.03793643674348" lon="11.49011733675164"><ele>887.5</ele><time>2026-05-02T09:38:15.999Z</time></trkpt><trkpt lat="44.03786352022458" lon="11.490284677239593"><ele>878.75</ele><time>2026-05-02T09:38:16.999Z</time></trkpt><trkpt lat="44.03781056533518" lon="11.490471146829622"><ele>870.0</ele><time>2026-05-02T09:38:17.999Z</time></trkpt><trkpt lat="44.03777158769801" lon="11.490639766663051"><ele>869.4</ele><time>2026-05-02T09:38:18.999Z</time></trkpt><trkpt lat="44.03774743250965" lon="11.490777948428903"><ele>868.8</ele><time>2026-05-02T09:38:19.999Z</time></trkpt><trkpt lat="44.03776745259726" lon="11.490890337225677"><ele>868.2</ele><time>2026-05-02T09:38:20.999Z</time></trkpt><trkpt lat="44.0378222898495" lon="11.490968289495951"><ele>867.6</ele><time>2026-05-02T09:38:21.999Z</time></trkpt><trkpt lat="44.037982964178205" lon="11.49096280584735"><ele>867.0</ele><time>2026-05-02T09:38:23.999Z</time></trkpt><trkpt lat="44.038073295469346" lon="11.490940114706618"><ele>867.0</ele><time>2026-05-02T09:38:24.999Z</time></trkpt><trkpt lat="44.03818197511863" lon="11.490882360304438"><ele>867.0</ele><time>2026-05-02T09:38:25.999Z</time></trkpt><trkpt lat="44.03825352670571" lon="11.490889328089612"><ele>867.0</ele><time>2026-05-02T09:38:26.999Z</time></trkpt><trkpt lat="44.03831841676468" lon="11.49098152212231"><ele>867.0</ele><time>2026-05-02T09:38:27.999Z</time></trkpt><trkpt lat="44.038334717426515" lon="11.491079078066539"><ele>867.0</ele><time>2026-05-02T09:38:28.999Z</time></trkpt><trkpt lat="44.03835924065669" lon="11.491186219782717"><ele>867.0</ele><time>2026-05-02T09:38:29.999Z</time></trkpt><trkpt lat="44.03839503469978" lon="11.49134634559271"><ele>869.8</ele><time>2026-05-02T09:38:30.999Z</time></trkpt><trkpt lat="44.03846129520027" lon="11.49146455614181"><ele>872.6</ele><time>2026-05-02T09:38:31.999Z</time></trkpt><trkpt lat="44.03855709633831" lon="11.491559356717698"><ele>875.3999999999999</ele><time>2026-05-02T09:38:32.999Z</time></trkpt><trkpt lat="44.03860783607916" lon="11.491666726464397"><ele>878.1999999999999</ele><time>2026-05-02T09:38:33.999Z</time></trkpt><trkpt lat="44.03859202221485" lon="11.491821505062859"><ele>881.0</ele><time>2026-05-02T09:38:34.999Z</time></trkpt><trkpt lat="44.03855425185645" lon="11.491984526692134"><ele>876.5</ele><time>2026-05-02T09:38:35.999Z</time></trkpt><trkpt lat="44.038550113047506" lon="11.492145682235376"><ele>872.0</ele><time>2026-05-02T09:38:36.999Z</time></trkpt><trkpt lat="44.03851749100031" lon="11.492337694790145"><ele>867.5</ele><time>2026-05-02T09:38:37.999Z</time></trkpt><trkpt lat="44.038530641104586" lon="11.49252469725338"><ele>863.0</ele><time>2026-05-02T09:38:38.999Z</time></trkpt><trkpt lat="44.03856072460261" lon="11.492698782278982"><ele>863.0</ele><time>2026-05-02T09:38:39.999Z</time></trkpt><trkpt lat="44.038567782073564" lon="11.49285609604581"><ele>863.0</ele><time>2026-05-02T09:38:40.999Z</time></trkpt><trkpt lat="44.038574216468895" lon="11.493007831530697"><ele>863.0</ele><time>2026-05-02T09:38:41.999Z</time></trkpt><trkpt lat="44.038569378042034" lon="11.493119365327976"><ele>863.0</ele><time>2026-05-02T09:38:42.999Z</time></trkpt><trkpt lat="44.03858412661791" lon="11.493208298955196"><ele>863.0</ele><time>2026-05-02T09:38:43.999Z</time></trkpt><trkpt lat="44.03868048976075" lon="11.493290001157156"><ele>860.2</ele><time>2026-05-02T09:38:45.999Z</time></trkpt><trkpt lat="44.03875827091052" lon="11.493232316760967"><ele>857.4</ele><time>2026-05-02T09:38:46.999Z</time></trkpt><trkpt lat="44.03883601446822" lon="11.493135841100736"><ele>854.6</ele><time>2026-05-02T09:38:47.999Z</time></trkpt><trkpt lat="44.03890833887358" lon="11.49307857457651"><ele>851.8000000000001</ele><time>2026-05-02T09:38:48.999Z</time></trkpt><trkpt lat="44.038989884464975" lon="11.493064578914895"><ele>849.0</ele><time>2026-05-02T09:38:49.999Z</time></trkpt><trkpt lat="44.03908372612804" lon="11.49314010418704"><ele>857.25</ele><time>2026-05-02T09:38:50.999Z</time></trkpt><trkpt lat="44.039155348382515" lon="11.493274215602707"><ele>865.5</ele><time>2026-05-02T09:38:51.999Z</time></trkpt><trkpt lat="44.03919685008256" lon="11.493432772555982"><ele>873.75</ele><time>2026-05-02T09:38:52.999Z</time></trkpt><trkpt lat="44.039178577469016" lon="11.49360503677507"><ele>882.0</ele><time>2026-05-02T09:38:53.999Z</time></trkpt><trkpt lat="44.03916056620434" lon="11.493738462266244"><ele>878.2</ele><time>2026-05-02T09:38:54.999Z</time></trkpt><trkpt lat="44.039197546492304" lon="11.493840923168316"><ele>874.4000000000001</ele><time>2026-05-02T09:38:55.999Z</time></trkpt><trkpt lat="44.03928252077939" lon="11.493937708912703"><ele>870.5999999999999</ele><time>2026-05-02T09:38:56.999Z</time></trkpt><trkpt lat="44.03937746021527" lon="11.494005014855746"><ele>866.8</ele><time>2026-05-02T09:38:57.999Z</time></trkpt><trkpt lat="44.039485804155916" lon="11.494039321232341"><ele>863.0</ele><time>2026-05-02T09:38:58.999Z</time></trkpt><trkpt lat="44.03953139942108" lon="11.494104789583359"><ele>863.0000000000001</ele><time>2026-05-02T09:38:59.999Z</time></trkpt><trkpt lat="44.0395280563041" lon="11.494221523856368"><ele>863.0</ele><time>2026-05-02T09:39:00.999Z</time></trkpt><trkpt lat="44.03946880678319" lon="11.494318934702033"><ele>863.0</ele><time>2026-05-02T09:39:01.999Z</time></trkpt><trkpt lat="44.03938659348895" lon="11.494383092142826"><ele>863.0</ele><time>2026-05-02T09:39:02.999Z</time></trkpt><trkpt lat="44.03931604514125" lon="11.494452446510746"><ele>863.0000000000001</ele><time>2026-05-02T09:39:03.999Z</time></trkpt><trkpt lat="44.039301621301846" lon="11.494549609057637"><ele>863.0</ele><time>2026-05-02T09:39:04.999Z</time></trkpt><trkpt lat="44.039310335269725" lon="11.49467607419875"><ele>859.75</ele><time>2026-05-02T09:39:05.999Z</time></trkpt><trkpt lat="44.0393367807244" lon="11.494835149069875"><ele>856.5</ele><time>2026-05-02T09:39:06.999Z</time></trkpt><trkpt lat="44.0393400434519" lon="11.49500500053257"><ele>853.25</ele><time>2026-05-02T09:39:07.999Z</time></trkpt><trkpt lat="44.03935662263787" lon="11.495160043920094"><ele>850.0</ele><time>2026-05-02T09:39:08.999Z</time></trkpt><trkpt lat="44.0393940930589" lon="11.495299693739472"><ele>846.5</ele><time>2026-05-02T09:39:09.999Z</time></trkpt><trkpt lat="44.03945957084346" lon="11.495430526269303"><ele>843.0</ele><time>2026-05-02T09:39:10.999Z</time></trkpt><trkpt lat="44.039571267946414" lon="11.495546627293962"><ele>839.5</ele><time>2026-05-02T09:39:11.999Z</time></trkpt><trkpt lat="44.03968985730176" lon="11.49563010266463"><ele>836.0</ele><time>2026-05-02T09:39:12.999Z</time></trkpt><trkpt lat="44.039757624769386" lon="11.495717209088406"><ele>836.0</ele><time>2026-05-02T09:39:13.999Z</time></trkpt><trkpt lat="44.039789972779275" lon="11.495811620113978"><ele>836.0</ele><time>2026-05-02T09:39:14.999Z</time></trkpt><trkpt lat="44.03976350428547" lon="11.495926103828786"><ele>836.0</ele><time>2026-05-02T09:39:15.999Z</time></trkpt><trkpt lat="44.03969762038989" lon="11.496054009548171"><ele>836.0</ele><time>2026-05-02T09:39:16.999Z</time></trkpt><trkpt lat="44.039615227816284" lon="11.496199825523107"><ele>836.0</ele><time>2026-05-02T09:39:17.999Z</time></trkpt><trkpt lat="44.039554878108284" lon="11.496354585053894"><ele>833.8</ele><time>2026-05-02T09:39:18.999Z</time></trkpt><trkpt lat="44.03951659497318" lon="11.49652770472965"><ele>831.5999999999999</ele><time>2026-05-02T09:39:19.999Z</time></trkpt><trkpt lat="44.03952515573645" lon="11.496708089512634"><ele>829.4</ele><time>2026-05-02T09:39:20.999Z</time></trkpt><trkpt lat="44.0395390038011" lon="11.496834251687707"><ele>827.2</ele><time>2026-05-02T09:39:21.999Z</time></trkpt><trkpt lat="44.03958346617818" lon="11.496914619201736"><ele>825.0</ele><time>2026-05-02T09:39:22.999Z</time></trkpt><trkpt lat="44.03966169227087" lon="11.496928887244897"><ele>825.0</ele><time>2026-05-02T09:39:23.999Z</time></trkpt><trkpt lat="44.03974774790703" lon="11.496890855579347"><ele>825.0</ele><time>2026-05-02T09:39:24.999Z</time></trkpt><trkpt lat="44.03983985660051" lon="11.496794800573904"><ele>825.0</ele><time>2026-05-02T09:39:25.999Z</time></trkpt><trkpt lat="44.03993170275866" lon="11.49666492305013"><ele>825.0</ele><time>2026-05-02T09:39:26.999Z</time></trkpt><trkpt lat="44.04002078051543" lon="11.496564859290073"><ele>831.5</ele><time>2026-05-02T09:39:27.999Z</time></trkpt><trkpt lat="44.040122778505534" lon="11.496536044199699"><ele>838.0</ele><time>2026-05-02T09:39:28.999Z</time></trkpt><trkpt lat="44.04023813699824" lon="11.496545031012538"><ele>844.5</ele><time>2026-05-02T09:39:29.999Z</time></trkpt><trkpt lat="44.04035458904801" lon="11.496579900007267"><ele>851.0</ele><time>2026-05-02T09:39:30.999Z</time></trkpt><trkpt lat="44.04044140783373" lon="11.496719446953312"><ele>851.0</ele><time>2026-05-02T09:39:31.999Z</time></trkpt><trkpt lat="44.0405071992485" lon="11.496872142660683"><ele>851.0</ele><time>2026-05-02T09:39:32.999Z</time></trkpt><trkpt lat="44.04053718516505" lon="11.49702238970844"><ele>851.0</ele><time>2026-05-02T09:39:33.999Z</time></trkpt><trkpt lat="44.04051001657062" lon="11.497216415567738"><ele>851.0</ele><time>2026-05-02T09:39:34.999Z</time></trkpt><trkpt lat="44.040474615708355" lon="11.49739477959442"><ele>846.6666666666667</ele><time>2026-05-02T09:39:35.999Z</time></trkpt><trkpt lat="44.04043177359946" lon="11.497591101642211"><ele>842.3333333333333</ele><time>2026-05-02T09:39:36.999Z</time></trkpt><trkpt lat="44.040362475082766" lon="11.4978006203589"><ele>838.0</ele><time>2026-05-02T09:39:37.999Z</time></trkpt><trkpt lat="44.04028894682119" lon="11.498005297708964"><ele>838.0</ele><time>2026-05-02T09:39:38.999Z</time></trkpt><trkpt lat="44.04022970051207" lon="11.498211489917988"><ele>838.0</ele><time>2026-05-02T09:39:39.999Z</time></trkpt><trkpt lat="44.040159546159344" lon="11.498396070635799"><ele>838.0</ele><time>2026-05-02T09:39:40.999Z</time></trkpt><trkpt lat="44.04008770611089" lon="11.498567481087965"><ele>838.0</ele><time>2026-05-02T09:39:41.999Z</time></trkpt><trkpt lat="44.040001223870746" lon="11.498715598977705"><ele>838.0</ele><time>2026-05-02T09:39:42.999Z</time></trkpt><trkpt lat="44.039891072540975" lon="11.498785886472222"><ele>838.0</ele><time>2026-05-02T09:39:43.999Z</time></trkpt><trkpt lat="44.03977276504082" lon="11.49884007561811"><ele>838.0</ele><time>2026-05-02T09:39:44.999Z</time></trkpt><trkpt lat="44.03962116081443" lon="11.498809089092543"><ele>833.25</ele><time>2026-05-02T09:39:45.999Z</time></trkpt><trkpt lat="44.039482937685364" lon="11.498744899830106"><ele>828.5</ele><time>2026-05-02T09:39:46.999Z</time></trkpt><trkpt lat="44.03936125126903" lon="11.498648356316972"><ele>823.75</ele><time>2026-05-02T09:39:47.999Z</time></trkpt><trkpt lat="44.03928528200094" lon="11.498565210039082"><ele>819.0</ele><time>2026-05-02T09:39:48.999Z</time></trkpt><trkpt lat="44.03921573863222" lon="11.498529742042525"><ele>819.0</ele><time>2026-05-02T09:39:49.999Z</time></trkpt><trkpt lat="44.039150329576515" lon="11.498573783400037"><ele>819.0</ele><time>2026-05-02T09:39:50.999Z</time></trkpt><trkpt lat="44.039112418785976" lon="11.49867291986349"><ele>819.0</ele><time>2026-05-02T09:39:51.999Z</time></trkpt><trkpt lat="44.03906998331404" lon="11.498828642565819"><ele>819.0</ele><time>2026-05-02T09:39:52.999Z</time></trkpt><trkpt lat="44.03903291974034" lon="11.499010787904043"><ele>819.0</ele><time>2026-05-02T09:39:53.999Z</time></trkpt><trkpt lat="44.0390165353034" lon="11.499161566478033"><ele>819.4000000000001</ele><time>2026-05-02T09:39:54.999Z</time></trkpt><trkpt lat="44.03903743408277" lon="11.49926059105674"><ele>819.8</ele><time>2026-05-02T09:39:55.999Z</time></trkpt><trkpt lat="44.03909025898653" lon="11.49935667969719"><ele>820.2</ele><time>2026-05-02T09:39:56.999Z</time></trkpt><trkpt lat="44.039180497467115" lon="11.499463745950642"><ele>820.5999999999999</ele><time>2026-05-02T09:39:57.999Z</time></trkpt><trkpt lat="44.03929136463269" lon="11.499564346693965"><ele>821.0</ele><time>2026-05-02T09:39:58.999Z</time></trkpt><trkpt lat="44.039387398959185" lon="11.499698011604506"><ele>820.0</ele><time>2026-05-02T09:39:59.999Z</time></trkpt><trkpt lat="44.039471031376024" lon="11.499864036243158"><ele>819.0</ele><time>2026-05-02T09:40:00.999Z</time></trkpt><trkpt lat="44.03952035020502" lon="11.500056712097827"><ele>818.0</ele><time>2026-05-02T09:40:01.999Z</time></trkpt><trkpt lat="44.03952553306963" lon="11.500213733457196"><ele>817.0</ele><time>2026-05-02T09:40:02.999Z</time></trkpt><trkpt lat="44.03950663342579" lon="11.500336366391995"><ele>819.6</ele><time>2026-05-02T09:40:03.999Z</time></trkpt><trkpt lat="44.039443174940246" lon="11.500433997372633"><ele>822.2</ele><time>2026-05-02T09:40:04.999Z</time></trkpt><trkpt lat="44.03935031099847" lon="11.500474083677382"><ele>824.8</ele><time>2026-05-02T09:40:05.999Z</time></trkpt><trkpt lat="44.03923431591191" lon="11.500470865006779"><ele>827.4</ele><time>2026-05-02T09:40:06.999Z</time></trkpt><trkpt lat="44.03910929531941" lon="11.500446995514146"><ele>830.0</ele><time>2026-05-02T09:40:07.999Z</time></trkpt><trkpt lat="44.038990543375306" lon="11.500471481284915"><ele>823.0</ele><time>2026-05-02T09:40:08.999Z</time></trkpt><trkpt lat="44.038877181897206" lon="11.500519826765606"><ele>816.0</ele><time>2026-05-02T09:40:09.999Z</time></trkpt><trkpt lat="44.038824614970665" lon="11.500584204762466"><ele>809.0</ele><time>2026-05-02T09:40:10.999Z</time></trkpt><trkpt lat="44.03879518428704" lon="11.500693966461252"><ele>802.0</ele><time>2026-05-02T09:40:11.999Z</time></trkpt><trkpt lat="44.03877962845398" lon="11.500847471457266"><ele>795.0</ele><time>2026-05-02T09:40:12.999Z</time></trkpt><trkpt lat="44.0387882051775" lon="11.501025160190634"><ele>795.0</ele><time>2026-05-02T09:40:13.999Z</time></trkpt><trkpt lat="44.0388073401151" lon="11.501201962967254"><ele>795.0</ele><time>2026-05-02T09:40:14.999Z</time></trkpt><trkpt lat="44.03878879314783" lon="11.501384105603517"><ele>795.0</ele><time>2026-05-02T09:40:15.999Z</time></trkpt><trkpt lat="44.03872237055641" lon="11.501530407757066"><ele>795.0</ele><time>2026-05-02T09:40:16.999Z</time></trkpt><trkpt lat="44.038625638895596" lon="11.501657036288057"><ele>796.4</ele><time>2026-05-02T09:40:17.999Z</time></trkpt><trkpt lat="44.038515709691445" lon="11.501753252449037"><ele>797.8</ele><time>2026-05-02T09:40:18.999Z</time></trkpt><trkpt lat="44.038442664279174" lon="11.501815459328459"><ele>799.2</ele><time>2026-05-02T09:40:19.999Z</time></trkpt><trkpt lat="44.038393410900575" lon="11.501921853603978"><ele>800.6</ele><time>2026-05-02T09:40:20.999Z</time></trkpt><trkpt lat="44.03835650114528" lon="11.502091631411302"><ele>802.0</ele><time>2026-05-02T09:40:21.999Z</time></trkpt><trkpt lat="44.03833969833189" lon="11.50229692923145"><ele>804.3333333333333</ele><time>2026-05-02T09:40:22.999Z</time></trkpt><trkpt lat="44.038320510946555" lon="11.502522992814328"><ele>806.6666666666667</ele><time>2026-05-02T09:40:23.999Z</time></trkpt><trkpt lat="44.03828096389619" lon="11.502758378665701"><ele>809.0</ele><time>2026-05-02T09:40:24.999Z</time></trkpt><trkpt lat="44.0382350098225" lon="11.502952066622186"><ele>805.0</ele><time>2026-05-02T09:40:25.999Z</time></trkpt><trkpt lat="44.03819237022084" lon="11.503113225279167"><ele>801.0</ele><time>2026-05-02T09:40:26.999Z</time></trkpt><trkpt lat="44.03815923633881" lon="11.503258135551008"><ele>797.0</ele><time>2026-05-02T09:40:27.999Z</time></trkpt><trkpt lat="44.0381004294737" lon="11.503377502291789"><ele>793.0</ele><time>2026-05-02T09:40:28.999Z</time></trkpt><trkpt lat="44.038019835026155" lon="11.50345756744001"><ele>789.0</ele><time>2026-05-02T09:40:29.999Z</time></trkpt><trkpt lat="44.03792629295785" lon="11.50346906770098"><ele>789.0</ele><time>2026-05-02T09:40:30.999Z</time></trkpt><trkpt lat="44.037841180784966" lon="11.503459719535778"><ele>789.0</ele><time>2026-05-02T09:40:31.999Z</time></trkpt><trkpt lat="44.03776141902717" lon="11.503478329265176"><ele>789.0</ele><time>2026-05-02T09:40:32.999Z</time></trkpt><trkpt lat="44.03768964993531" lon="11.50354473565987"><ele>789.0</ele><time>2026-05-02T09:40:33.999Z</time></trkpt><trkpt lat="44.03762455050087" lon="11.503665977231917"><ele>789.0</ele><time>2026-05-02T09:40:34.999Z</time></trkpt><trkpt lat="44.03754328965089" lon="11.50381988762161"><ele>789.0</ele><time>2026-05-02T09:40:35.999Z</time></trkpt><trkpt lat="44.037476538249585" lon="11.504012108961055"><ele>789.0</ele><time>2026-05-02T09:40:36.999Z</time></trkpt><trkpt lat="44.03740322069752" lon="11.504166260861867"><ele>789.0</ele><time>2026-05-02T09:40:37.999Z</time></trkpt><trkpt lat="44.03731954189722" lon="11.504279917835609"><ele>789.0</ele><time>2026-05-02T09:40:38.999Z</time></trkpt><trkpt lat="44.03720678060365" lon="11.504352176615948"><ele>789.0</ele><time>2026-05-02T09:40:39.999Z</time></trkpt><trkpt lat="44.037079251091896" lon="11.504353583407125"><ele>789.0</ele><time>2026-05-02T09:40:40.999Z</time></trkpt><trkpt lat="44.03693265854602" lon="11.50430100121101"><ele>789.0</ele><time>2026-05-02T09:40:41.999Z</time></trkpt><trkpt lat="44.03678765744507" lon="11.50424800812047"><ele>789.0</ele><time>2026-05-02T09:40:42.999Z</time></trkpt><trkpt lat="44.03665228837743" lon="11.504226821308112"><ele>788.75</ele><time>2026-05-02T09:40:43.999Z</time></trkpt><trkpt lat="44.03653603963135" lon="11.504273888439823"><ele>788.5</ele><time>2026-05-02T09:40:44.999Z</time></trkpt><trkpt lat="44.03642741944526" lon="11.504385115249898"><ele>788.25</ele><time>2026-05-02T09:40:45.999Z</time></trkpt><trkpt lat="44.036336971477844" lon="11.504565846535556"><ele>788.0</ele><time>2026-05-02T09:40:46.999Z</time></trkpt><trkpt lat="44.03624208573991" lon="11.504775027856793"><ele>788.0</ele><time>2026-05-02T09:40:47.999Z</time></trkpt><trkpt lat="44.03613195803806" lon="11.50497344630605"><ele>788.0</ele><time>2026-05-02T09:40:48.999Z</time></trkpt><trkpt lat="44.03601568316104" lon="11.5051504114114"><ele>788.0</ele><time>2026-05-02T09:40:49.999Z</time></trkpt><trkpt lat="44.0358984278525" lon="11.505292118021167"><ele>787.25</ele><time>2026-05-02T09:40:50.999Z</time></trkpt><trkpt lat="44.03576928827794" lon="11.505389392521714"><ele>786.5</ele><time>2026-05-02T09:40:51.999Z</time></trkpt><trkpt lat="44.03563469922563" lon="11.505428547604295"><ele>785.75</ele><time>2026-05-02T09:40:52.999Z</time></trkpt><trkpt lat="44.03549902132412" lon="11.50542177031743"><ele>785.0</ele><time>2026-05-02T09:40:53.999Z</time></trkpt><trkpt lat="44.035353591513775" lon="11.505397243619537"><ele>785.0</ele><time>2026-05-02T09:40:54.999Z</time></trkpt><trkpt lat="44.03522059533522" lon="11.505412761464012"><ele>785.0</ele><time>2026-05-02T09:40:55.999Z</time></trkpt><trkpt lat="44.035092266008306" lon="11.505500132585329"><ele>785.0</ele><time>2026-05-02T09:40:56.999Z</time></trkpt><trkpt lat="44.03497555543777" lon="11.505633279246343"><ele>785.0</ele><time>2026-05-02T09:40:57.999Z</time></trkpt><trkpt lat="44.03490916395562" lon="11.505801184285932"><ele>780.3333333333334</ele><time>2026-05-02T09:40:58.999Z</time></trkpt><trkpt lat="44.03488417380641" lon="11.50600080277507"><ele>775.6666666666667</ele><time>2026-05-02T09:40:59.999Z</time></trkpt><trkpt lat="44.034905175939485" lon="11.50620550327397"><ele>771.0</ele><time>2026-05-02T09:41:00.999Z</time></trkpt><trkpt lat="44.0349671572658" lon="11.506406239153328"><ele>775.0</ele><time>2026-05-02T09:41:01.999Z</time></trkpt><trkpt lat="44.035064274098296" lon="11.506599329888122"><ele>779.0</ele><time>2026-05-02T09:41:02.999Z</time></trkpt><trkpt lat="44.03516720614209" lon="11.506756874929012"><ele>783.0</ele><time>2026-05-02T09:41:03.999Z</time></trkpt><trkpt lat="44.035265844122925" lon="11.506896851956666"><ele>783.0</ele><time>2026-05-02T09:41:04.999Z</time></trkpt><trkpt lat="44.03532390802843" lon="11.50703471495539"><ele>783.0</ele><time>2026-05-02T09:41:05.999Z</time></trkpt><trkpt lat="44.03534028675346" lon="11.507193077826647"><ele>783.0</ele><time>2026-05-02T09:41:06.999Z</time></trkpt><trkpt lat="44.03530448321493" lon="11.50737011179635"><ele>783.0</ele><time>2026-05-02T09:41:07.999Z</time></trkpt><trkpt lat="44.03522611528086" lon="11.507538420066174"><ele>781.6666666666667</ele><time>2026-05-02T09:41:08.999Z</time></trkpt><trkpt lat="44.03510888116254" lon="11.507679902692082"><ele>780.3333333333334</ele><time>2026-05-02T09:41:09.999Z</time></trkpt><trkpt lat="44.03498930160647" lon="11.50781286162963"><ele>779.0</ele><time>2026-05-02T09:41:10.999Z</time></trkpt><trkpt lat="44.034896733721304" lon="11.50797701108614"><ele>778.0</ele><time>2026-05-02T09:41:11.999Z</time></trkpt><trkpt lat="44.034849191340996" lon="11.508149492337985"><ele>777.0</ele><time>2026-05-02T09:41:12.999Z</time></trkpt><trkpt lat="44.034834366754986" lon="11.508300663536541"><ele>776.0</ele><time>2026-05-02T09:41:13.999Z</time></trkpt><trkpt lat="44.03484857682205" lon="11.508432621837178"><ele>775.0</ele><time>2026-05-02T09:41:14.999Z</time></trkpt><trkpt lat="44.034903534756936" lon="11.50853592355462"><ele>774.0</ele><time>2026-05-02T09:41:15.999Z</time></trkpt><trkpt lat="44.03500802282246" lon="11.508574350519776"><ele>774.0</ele><time>2026-05-02T09:41:16.999Z</time></trkpt><trkpt lat="44.03513977502969" lon="11.508565506419373"><ele>774.0</ele><time>2026-05-02T09:41:17.999Z</time></trkpt><trkpt lat="44.035283507486405" lon="11.50854799512662"><ele>774.0</ele><time>2026-05-02T09:41:18.999Z</time></trkpt><trkpt lat="44.035424016304034" lon="11.50857011312197"><ele>774.0</ele><time>2026-05-02T09:41:19.999Z</time></trkpt><trkpt lat="44.03554673590743" lon="11.508655075528901"><ele>772.25</ele><time>2026-05-02T09:41:20.999Z</time></trkpt><trkpt lat="44.035653612248794" lon="11.508794969522027"><ele>770.5</ele><time>2026-05-02T09:41:21.999Z</time></trkpt><trkpt lat="44.03575537642246" lon="11.50894002824562"><ele>768.75</ele><time>2026-05-02T09:41:22.999Z</time></trkpt><trkpt lat="44.03585357427782" lon="11.509037872647017"><ele>767.0</ele><time>2026-05-02T09:41:23.999Z</time></trkpt><trkpt lat="44.035950220671474" lon="11.50907547818274"><ele>767.0</ele><time>2026-05-02T09:41:24.999Z</time></trkpt><trkpt lat="44.03605887305707" lon="11.509047759550086"><ele>767.0</ele><time>2026-05-02T09:41:25.999Z</time></trkpt><trkpt lat="44.036174009696076" lon="11.508966815641456"><ele>767.0</ele><time>2026-05-02T09:41:26.999Z</time></trkpt><trkpt lat="44.03629290285956" lon="11.508840005657468"><ele>767.0</ele><time>2026-05-02T09:41:27.999Z</time></trkpt><trkpt lat="44.03642108826835" lon="11.508698712858838"><ele>768.75</ele><time>2026-05-02T09:41:28.999Z</time></trkpt><trkpt lat="44.03654685331031" lon="11.508557386602169"><ele>770.5</ele><time>2026-05-02T09:41:29.999Z</time></trkpt><trkpt lat="44.03665569180261" lon="11.508438237101162"><ele>772.25</ele><time>2026-05-02T09:41:30.999Z</time></trkpt><trkpt lat="44.03676910404736" lon="11.508354116624083"><ele>774.0</ele><time>2026-05-02T09:41:31.999Z</time></trkpt><trkpt lat="44.03690750628207" lon="11.508310712592204"><ele>774.0</ele><time>2026-05-02T09:41:32.999Z</time></trkpt><trkpt lat="44.03706276806477" lon="11.508309999408107"><ele>774.0</ele><time>2026-05-02T09:41:33.999Z</time></trkpt><trkpt lat="44.03722841077324" lon="11.508323416831033"><ele>774.0</ele><time>2026-05-02T09:41:34.999Z</time></trkpt><trkpt lat="44.037394542482254" lon="11.508278031734772"><ele>770.0</ele><time>2026-05-02T09:41:35.999Z</time></trkpt><trkpt lat="44.03756587003784" lon="11.508188922368152"><ele>766.0</ele><time>2026-05-02T09:41:36.999Z</time></trkpt><trkpt lat="44.0377198557718" lon="11.508102735361831"><ele>762.0</ele><time>2026-05-02T09:41:37.999Z</time></trkpt><trkpt lat="44.03786093150281" lon="11.508013176495407"><ele>765.5</ele><time>2026-05-02T09:41:38.999Z</time></trkpt><trkpt lat="44.037987815538145" lon="11.507890622084975"><ele>769.0</ele><time>2026-05-02T09:41:39.999Z</time></trkpt><trkpt lat="44.03809354855029" lon="11.507751904783138"><ele>772.5</ele><time>2026-05-02T09:41:40.999Z</time></trkpt><trkpt lat="44.03816918122513" lon="11.5075758805638"><ele>776.0</ele><time>2026-05-02T09:41:41.999Z</time></trkpt><trkpt lat="44.038209247239735" lon="11.5073646219071"><ele>776.0</ele><time>2026-05-02T09:41:42.999Z</time></trkpt><trkpt lat="44.038241750640665" lon="11.507136595734224"><ele>776.0</ele><time>2026-05-02T09:41:43.999Z</time></trkpt><trkpt lat="44.03829794806761" lon="11.50691296780119"><ele>776.0</ele><time>2026-05-02T09:41:44.999Z</time></trkpt><trkpt lat="44.03838920805965" lon="11.506695008928085"><ele>774.75</ele><time>2026-05-02T09:41:45.999Z</time></trkpt><trkpt lat="44.038484160057" lon="11.506507704677084"><ele>773.5</ele><time>2026-05-02T09:41:46.999Z</time></trkpt><trkpt lat="44.03857038165468" lon="11.5063442380919"><ele>772.25</ele><time>2026-05-02T09:41:47.999Z</time></trkpt><trkpt lat="44.038644974267086" lon="11.506206878999405"><ele>771.0</ele><time>2026-05-02T09:41:48.999Z</time></trkpt><trkpt lat="44.038716445952396" lon="11.506101232097834"><ele>771.0</ele><time>2026-05-02T09:41:49.999Z</time></trkpt><trkpt lat="44.038790562650064" lon="11.506040073494768"><ele>771.0</ele><time>2026-05-02T09:41:50.999Z</time></trkpt><trkpt lat="44.03886366494598" lon="11.506022773411681"><ele>771.0</ele><time>2026-05-02T09:41:51.999Z</time></trkpt><trkpt lat="44.03892885279787" lon="11.50606517703387"><ele>771.0</ele><time>2026-05-02T09:41:52.999Z</time></trkpt><trkpt lat="44.038965681063296" lon="11.506175876354673"><ele>771.0</ele><time>2026-05-02T09:41:53.999Z</time></trkpt><trkpt lat="44.03897682514684" lon="11.506331211846488"><ele>771.0</ele><time>2026-05-02T09:41:54.999Z</time></trkpt><trkpt lat="44.03898259085603" lon="11.506512390572905"><ele>767.6666666666666</ele><time>2026-05-02T09:41:55.999Z</time></trkpt><trkpt lat="44.0389876950697" lon="11.506715115191044"><ele>764.3333333333333</ele><time>2026-05-02T09:41:56.999Z</time></trkpt><trkpt lat="44.03899690259138" lon="11.506941866711262"><ele>761.0</ele><time>2026-05-02T09:41:57.999Z</time></trkpt><trkpt lat="44.0389998017897" lon="11.507172992687345"><ele>759.0</ele><time>2026-05-02T09:41:58.999Z</time></trkpt><trkpt lat="44.03900912442205" lon="11.507406212549116"><ele>757.0</ele><time>2026-05-02T09:41:59.999Z</time></trkpt><trkpt lat="44.03902510656673" lon="11.507613026614887"><ele>755.0</ele><time>2026-05-02T09:42:00.999Z</time></trkpt><trkpt lat="44.03907408534076" lon="11.5078092437748"><ele>753.0</ele><time>2026-05-02T09:42:01.999Z</time></trkpt><trkpt lat="44.039142548003866" lon="11.507989247673592"><ele>751.0</ele><time>2026-05-02T09:42:02.999Z</time></trkpt><trkpt lat="44.039210129842914" lon="11.508157063572751"><ele>749.0</ele><time>2026-05-02T09:42:03.999Z</time></trkpt><trkpt lat="44.039272005286136" lon="11.50832288675985"><ele>747.0</ele><time>2026-05-02T09:42:04.999Z</time></trkpt><trkpt lat="44.03931565093648" lon="11.508475860745394"><ele>747.0</ele><time>2026-05-02T09:42:05.999Z</time></trkpt><trkpt lat="44.039328881519246" lon="11.508634476065538"><ele>747.0</ele><time>2026-05-02T09:42:06.999Z</time></trkpt><trkpt lat="44.03929492171093" lon="11.508797607233173"><ele>747.0</ele><time>2026-05-02T09:42:07.999Z</time></trkpt><trkpt lat="44.0392476503337" lon="11.508969286707154"><ele>747.0</ele><time>2026-05-02T09:42:08.999Z</time></trkpt><trkpt lat="44.039223941631356" lon="11.509151995915957"><ele>747.25</ele><time>2026-05-02T09:42:09.999Z</time></trkpt><trkpt lat="44.0392234369024" lon="11.509330632871178"><ele>747.5</ele><time>2026-05-02T09:42:10.999Z</time></trkpt><trkpt lat="44.039246324184894" lon="11.509517539480388"><ele>747.75</ele><time>2026-05-02T09:42:11.999Z</time></trkpt><trkpt lat="44.03927372540902" lon="11.509715429674282"><ele>748.0</ele><time>2026-05-02T09:42:12.999Z</time></trkpt><trkpt lat="44.039294542309065" lon="11.509905107105652"><ele>747.5</ele><time>2026-05-02T09:42:13.999Z</time></trkpt><trkpt lat="44.039322449373586" lon="11.510097876971889"><ele>747.0</ele><time>2026-05-02T09:42:14.999Z</time></trkpt><trkpt lat="44.03935236416567" lon="11.510287115240512"><ele>746.5</ele><time>2026-05-02T09:42:15.999Z</time></trkpt><trkpt lat="44.03938114975805" lon="11.510473789860646"><ele>746.0</ele><time>2026-05-02T09:42:16.999Z</time></trkpt><trkpt lat="44.03939483940955" lon="11.510645122961456"><ele>744.3333333333333</ele><time>2026-05-02T09:42:17.999Z</time></trkpt><trkpt lat="44.039391679424966" lon="11.510828744634049"><ele>742.6666666666666</ele><time>2026-05-02T09:42:18.999Z</time></trkpt><trkpt lat="44.039386711412725" lon="11.511039275409194"><ele>741.0</ele><time>2026-05-02T09:42:19.999Z</time></trkpt><trkpt lat="44.03937075439225" lon="11.511273475830805"><ele>741.0</ele><time>2026-05-02T09:42:20.999Z</time></trkpt><trkpt lat="44.03935368521887" lon="11.51151729160874"><ele>741.0</ele><time>2026-05-02T09:42:21.999Z</time></trkpt><trkpt lat="44.03934317784346" lon="11.51176706653442"><ele>741.0</ele><time>2026-05-02T09:42:22.999Z</time></trkpt><trkpt lat="44.03934336012535" lon="11.512033060690598"><ele>740.6666666666666</ele><time>2026-05-02T09:42:23.999Z</time></trkpt><trkpt lat="44.03934535746889" lon="11.5122876225642"><ele>740.3333333333333</ele><time>2026-05-02T09:42:24.999Z</time></trkpt><trkpt lat="44.03935057427303" lon="11.512531882363758"><ele>740.0</ele><time>2026-05-02T09:42:25.999Z</time></trkpt><trkpt lat="44.039348292298534" lon="11.512783349750414"><ele>741.3333333333333</ele><time>2026-05-02T09:42:26.999Z</time></trkpt><trkpt lat="44.03930519262884" lon="11.513041141097755"><ele>742.6666666666666</ele><time>2026-05-02T09:42:27.999Z</time></trkpt><trkpt lat="44.03923284563836" lon="11.513305509339066"><ele>744.0</ele><time>2026-05-02T09:42:28.999Z</time></trkpt><trkpt lat="44.039150782198895" lon="11.513569108391806"><ele>739.3333333333334</ele><time>2026-05-02T09:42:29.999Z</time></trkpt><trkpt lat="44.0390569198326" lon="11.513836379105332"><ele>734.6666666666667</ele><time>2026-05-02T09:42:30.999Z</time></trkpt><trkpt lat="44.038956100562245" lon="11.514104324596472"><ele>730.0</ele><time>2026-05-02T09:42:31.999Z</time></trkpt><trkpt lat="44.038852195537245" lon="11.514362941313761"><ele>731.3333333333334</ele><time>2026-05-02T09:42:32.999Z</time></trkpt><trkpt lat="44.038748604943336" lon="11.514608525799401"><ele>732.6666666666666</ele><time>2026-05-02T09:42:33.999Z</time></trkpt><trkpt lat="44.03864511920544" lon="11.514825174830923"><ele>734.0</ele><time>2026-05-02T09:42:34.999Z</time></trkpt><trkpt lat="44.038541748783175" lon="11.515039333436393"><ele>734.0</ele><time>2026-05-02T09:42:35.999Z</time></trkpt><trkpt lat="44.038434042811296" lon="11.515234857178553"><ele>734.0</ele><time>2026-05-02T09:42:36.999Z</time></trkpt><trkpt lat="44.038321183574936" lon="11.515420288330985"><ele>734.0</ele><time>2026-05-02T09:42:37.999Z</time></trkpt><trkpt lat="44.03820644153355" lon="11.515604547972066"><ele>732.0</ele><time>2026-05-02T09:42:38.999Z</time></trkpt><trkpt lat="44.038087609021055" lon="11.515781326012432"><ele>730.0</ele><time>2026-05-02T09:42:39.999Z</time></trkpt><trkpt lat="44.03796138349971" lon="11.51595046773857"><ele>728.0</ele><time>2026-05-02T09:42:40.999Z</time></trkpt><trkpt lat="44.03781414478214" lon="11.516116276494799"><ele>725.6666666666666</ele><time>2026-05-02T09:42:41.999Z</time></trkpt><trkpt lat="44.037653508971125" lon="11.516267619389962"><ele>723.3333333333334</ele><time>2026-05-02T09:42:42.999Z</time></trkpt><trkpt lat="44.03748928652262" lon="11.516410635035873"><ele>721.0</ele><time>2026-05-02T09:42:43.999Z</time></trkpt><trkpt lat="44.037342864213706" lon="11.516534908093538"><ele>721.0</ele><time>2026-05-02T09:42:44.999Z</time></trkpt><trkpt lat="44.03720847232817" lon="11.516654171519331"><ele>721.0</ele><time>2026-05-02T09:42:45.999Z</time></trkpt><trkpt lat="44.03709011465373" lon="11.516772865087388"><ele>721.0</ele><time>2026-05-02T09:42:46.999Z</time></trkpt><trkpt lat="44.0369867343245" lon="11.516929847584704"><ele>724.0</ele><time>2026-05-02T09:42:47.999Z</time></trkpt><trkpt lat="44.0369069702571" lon="11.517123909870898"><ele>727.0</ele><time>2026-05-02T09:42:48.999Z</time></trkpt><trkpt lat="44.03683847316472" lon="11.517353750473434"><ele>730.0</ele><time>2026-05-02T09:42:49.999Z</time></trkpt><trkpt lat="44.03677137697293" lon="11.517608467052847"><ele>730.0</ele><time>2026-05-02T09:42:50.999Z</time></trkpt><trkpt lat="44.03670650129774" lon="11.517876402902631"><ele>730.0</ele><time>2026-05-02T09:42:51.999Z</time></trkpt><trkpt lat="44.03664589454178" lon="11.518132414367264"><ele>730.0</ele><time>2026-05-02T09:42:52.999Z</time></trkpt><trkpt lat="44.03659256156483" lon="11.518373889908508"><ele>724.6666666666667</ele><time>2026-05-02T09:42:53.999Z</time></trkpt><trkpt lat="44.03654302790871" lon="11.518594621117018"><ele>719.3333333333334</ele><time>2026-05-02T09:42:54.999Z</time></trkpt><trkpt lat="44.036490537382285" lon="11.518798028766838"><ele>714.0</ele><time>2026-05-02T09:42:55.999Z</time></trkpt><trkpt lat="44.036421002092965" lon="11.518979773828494"><ele>714.0</ele><time>2026-05-02T09:42:56.999Z</time></trkpt><trkpt lat="44.03631964021409" lon="11.519133574217854"><ele>714.0</ele><time>2026-05-02T09:42:57.999Z</time></trkpt><trkpt lat="44.036189041206725" lon="11.519249594926453"><ele>714.0</ele><time>2026-05-02T09:42:58.999Z</time></trkpt><trkpt lat="44.03605583680406" lon="11.519335393160922"><ele>714.0</ele><time>2026-05-02T09:42:59.999Z</time></trkpt><trkpt lat="44.03594347424129" lon="11.51942035228529"><ele>714.0</ele><time>2026-05-02T09:43:00.999Z</time></trkpt><trkpt lat="44.03585380294768" lon="11.519532001339078"><ele>714.0</ele><time>2026-05-02T09:43:01.999Z</time></trkpt><trkpt lat="44.03578761810689" lon="11.519667532226167"><ele>714.0</ele><time>2026-05-02T09:43:02.999Z</time></trkpt><trkpt lat="44.03576498359351" lon="11.519807144155331"><ele>714.8000000000001</ele><time>2026-05-02T09:43:03.999Z</time></trkpt><trkpt lat="44.03580142871712" lon="11.519923011551315"><ele>715.6</ele><time>2026-05-02T09:43:04.999Z</time></trkpt><trkpt lat="44.03587876926886" lon="11.520005899525865"><ele>716.4</ele><time>2026-05-02T09:43:05.999Z</time></trkpt><trkpt lat="44.03598783549557" lon="11.52005565819338"><ele>717.2</ele><time>2026-05-02T09:43:06.999Z</time></trkpt><trkpt lat="44.03608900197639" lon="11.520098562898585"><ele>718.0</ele><time>2026-05-02T09:43:07.999Z</time></trkpt><trkpt lat="44.036140721718056" lon="11.520196804070167"><ele>718.0</ele><time>2026-05-02T09:43:08.999Z</time></trkpt><trkpt lat="44.03617046613037" lon="11.520325164692512"><ele>718.0</ele><time>2026-05-02T09:43:09.999Z</time></trkpt><trkpt lat="44.03616438695094" lon="11.52046833166939"><ele>718.0</ele><time>2026-05-02T09:43:10.999Z</time></trkpt><trkpt lat="44.03611072771704" lon="11.520606450394427"><ele>718.0</ele><time>2026-05-02T09:43:11.999Z</time></trkpt><trkpt lat="44.036012148244424" lon="11.520726083395665"><ele>718.0</ele><time>2026-05-02T09:43:12.999Z</time></trkpt><trkpt lat="44.035882639919826" lon="11.520829120875332"><ele>712.3333333333334</ele><time>2026-05-02T09:43:13.999Z</time></trkpt><trkpt lat="44.03573555501917" lon="11.52092093550302"><ele>706.6666666666666</ele><time>2026-05-02T09:43:14.999Z</time></trkpt><trkpt lat="44.03559545640133" lon="11.52100365485938"><ele>701.0</ele><time>2026-05-02T09:43:15.999Z</time></trkpt><trkpt lat="44.03547113325313" lon="11.521093129572694"><ele>701.0</ele><time>2026-05-02T09:43:16.999Z</time></trkpt><trkpt lat="44.03536809254896" lon="11.52122079677315"><ele>701.0</ele><time>2026-05-02T09:43:17.999Z</time></trkpt><trkpt lat="44.03527111033545" lon="11.52138155099744"><ele>701.0</ele><time>2026-05-02T09:43:18.999Z</time></trkpt><trkpt lat="44.03518071338052" lon="11.521560994313328"><ele>701.0</ele><time>2026-05-02T09:43:19.999Z</time></trkpt><trkpt lat="44.0350758541665" lon="11.521735718535155"><ele>700.0</ele><time>2026-05-02T09:43:20.999Z</time></trkpt><trkpt lat="44.034979437710874" lon="11.521881365624745"><ele>699.0</ele><time>2026-05-02T09:43:21.999Z</time></trkpt><trkpt lat="44.03489970128239" lon="11.522014155820981"><ele>698.0</ele><time>2026-05-02T09:43:22.999Z</time></trkpt><trkpt lat="44.034863531231444" lon="11.522167383232153"><ele>697.0</ele><time>2026-05-02T09:43:23.999Z</time></trkpt><trkpt lat="44.034857927088915" lon="11.522344333371054"><ele>697.0</ele><time>2026-05-02T09:43:24.999Z</time></trkpt><trkpt lat="44.034850162138106" lon="11.522535130478262"><ele>697.0</ele><time>2026-05-02T09:43:25.999Z</time></trkpt><trkpt lat="44.034824474278125" lon="11.522731449541226"><ele>697.0</ele><time>2026-05-02T09:43:26.999Z</time></trkpt><trkpt lat="44.03478192496462" lon="11.522899479674738"><ele>697.0</ele><time>2026-05-02T09:43:27.999Z</time></trkpt><trkpt lat="44.03470545336526" lon="11.523067975595193"><ele>698.0</ele><time>2026-05-02T09:43:28.999Z</time></trkpt><trkpt lat="44.03458423096946" lon="11.523233720763608"><ele>699.0</ele><time>2026-05-02T09:43:29.999Z</time></trkpt><trkpt lat="44.034450736375085" lon="11.523372330193483"><ele>700.0</ele><time>2026-05-02T09:43:30.999Z</time></trkpt><trkpt lat="44.03430836918897" lon="11.523514360964628"><ele>700.0</ele><time>2026-05-02T09:43:31.999Z</time></trkpt><trkpt lat="44.03417888088366" lon="11.523640866888346"><ele>700.0</ele><time>2026-05-02T09:43:32.999Z</time></trkpt><trkpt lat="44.0340687534677" lon="11.52374696653759"><ele>700.0</ele><time>2026-05-02T09:43:33.999Z</time></trkpt><trkpt lat="44.033980781225694" lon="11.523853243182273"><ele>700.0</ele><time>2026-05-02T09:43:34.999Z</time></trkpt><trkpt lat="44.03392387202353" lon="11.523975926463544"><ele>699.75</ele><time>2026-05-02T09:43:35.999Z</time></trkpt><trkpt lat="44.03390841870558" lon="11.524121188597368"><ele>699.5</ele><time>2026-05-02T09:43:36.999Z</time></trkpt><trkpt lat="44.03395863899951" lon="11.5242776644373"><ele>699.25</ele><time>2026-05-02T09:43:37.999Z</time></trkpt><trkpt lat="44.034034280617526" lon="11.524421749667772"><ele>699.0</ele><time>2026-05-02T09:43:38.999Z</time></trkpt><trkpt lat="44.03414024317735" lon="11.524553651303501"><ele>697.5</ele><time>2026-05-02T09:43:39.999Z</time></trkpt><trkpt lat="44.03423109778716" lon="11.524715415785417"><ele>696.0</ele><time>2026-05-02T09:43:40.999Z</time></trkpt><trkpt lat="44.03428345319189" lon="11.524879511187489"><ele>694.5</ele><time>2026-05-02T09:43:41.999Z</time></trkpt><trkpt lat="44.03428894232606" lon="11.52502519455202"><ele>693.0</ele><time>2026-05-02T09:43:42.998Z</time></trkpt><trkpt lat="44.034254993237866" lon="11.52516259991645"><ele>693.0</ele><time>2026-05-02T09:43:43.998Z</time></trkpt><trkpt lat="44.0341839304463" lon="11.525293681019418"><ele>693.0</ele><time>2026-05-02T09:43:44.998Z</time></trkpt><trkpt lat="44.034075905293086" lon="11.525408760389414"><ele>693.0</ele><time>2026-05-02T09:43:45.998Z</time></trkpt><trkpt lat="44.033940807159006" lon="11.525497385358761"><ele>693.0</ele><time>2026-05-02T09:43:46.998Z</time></trkpt><trkpt lat="44.03378617482132" lon="11.525562130905165"><ele>689.3333333333334</ele><time>2026-05-02T09:43:47.998Z</time></trkpt><trkpt lat="44.03363083961785" lon="11.52560943124479"><ele>685.6666666666667</ele><time>2026-05-02T09:43:48.998Z</time></trkpt><trkpt lat="44.03348041562704" lon="11.525640870877139"><ele>682.0</ele><time>2026-05-02T09:43:49.998Z</time></trkpt><trkpt lat="44.03333837770032" lon="11.525680773026213"><ele>677.6</ele><time>2026-05-02T09:43:50.998Z</time></trkpt><trkpt lat="44.03324534884742" lon="11.525744039037786"><ele>673.2</ele><time>2026-05-02T09:43:51.998Z</time></trkpt><trkpt lat="44.03316667993163" lon="11.525819934226865"><ele>668.8</ele><time>2026-05-02T09:43:52.998Z</time></trkpt><trkpt lat="44.03307102170609" lon="11.525912123301698"><ele>664.4</ele><time>2026-05-02T09:43:53.998Z</time></trkpt><trkpt lat="44.0329631418228" lon="11.526018874131873"><ele>660.0</ele><time>2026-05-02T09:43:54.998Z</time></trkpt><trkpt lat="44.032854204075264" lon="11.526137373389588"><ele>661.75</ele><time>2026-05-02T09:43:55.998Z</time></trkpt><trkpt lat="44.03275955300916" lon="11.526273596269725"><ele>663.5</ele><time>2026-05-02T09:43:56.998Z</time></trkpt><trkpt lat="44.032682830208635" lon="11.526430479945638"><ele>665.25</ele><time>2026-05-02T09:43:57.998Z</time></trkpt><trkpt lat="44.03263213996299" lon="11.52660303171872"><ele>667.0</ele><time>2026-05-02T09:43:58.998Z</time></trkpt><trkpt lat="44.03262153967666" lon="11.52677231250315"><ele>667.0</ele><time>2026-05-02T09:43:59.998Z</time></trkpt><trkpt lat="44.03265720436386" lon="11.526947265265283"><ele>667.0</ele><time>2026-05-02T09:44:00.998Z</time></trkpt><trkpt lat="44.03271773006259" lon="11.52712700889447"><ele>667.0</ele><time>2026-05-02T09:44:01.998Z</time></trkpt><trkpt lat="44.032787942152545" lon="11.527313021503385"><ele>667.0</ele><time>2026-05-02T09:44:02.998Z</time></trkpt><trkpt lat="44.03285199879267" lon="11.527495791809828"><ele>665.8</ele><time>2026-05-02T09:44:03.998Z</time></trkpt><trkpt lat="44.0328856530475" lon="11.527597571605611"><ele>664.6</ele><time>2026-05-02T09:44:04.998Z</time></trkpt><trkpt lat="44.03290345617842" lon="11.527712065446275"><ele>663.4</ele><time>2026-05-02T09:44:06.998Z</time></trkpt><trkpt lat="44.03292357418454" lon="11.527858185666837"><ele>662.1999999999999</ele><time>2026-05-02T09:44:09.998Z</time></trkpt><trkpt lat="44.03294102340216" lon="11.528002303673766"><ele>661.0</ele><time>2026-05-02T09:44:11.998Z</time></trkpt><trkpt lat="44.03295679879948" lon="11.528156009193118"><ele>658.0</ele><time>2026-05-02T09:44:13.998Z</time></trkpt><trkpt lat="44.03296655171599" lon="11.528298915956352"><ele>655.0</ele><time>2026-05-02T09:44:15.998Z</time></trkpt><trkpt lat="44.03296691002506" lon="11.528435149597291"><ele>652.0</ele><time>2026-05-02T09:44:17.998Z</time></trkpt><trkpt lat="44.03296958514183" lon="11.528584655397012"><ele>649.0</ele><time>2026-05-02T09:44:19.998Z</time></trkpt><trkpt lat="44.03297324383127" lon="11.52875387283401"><ele>646.0</ele><time>2026-05-02T09:44:21.998Z</time></trkpt><trkpt lat="44.032968019422775" lon="11.52894049185112"><ele>644.8</ele><time>2026-05-02T09:44:23.998Z</time></trkpt><trkpt lat="44.032959776034645" lon="11.529045653207712"><ele>643.5999999999999</ele><time>2026-05-02T09:44:24.998Z</time></trkpt><trkpt lat="44.03294718816761" lon="11.52917956645382"><ele>642.4</ele><time>2026-05-02T09:44:25.998Z</time></trkpt><trkpt lat="44.03293505775602" lon="11.5293283827094"><ele>641.2</ele><time>2026-05-02T09:44:26.998Z</time></trkpt><trkpt lat="44.03289925459482" lon="11.529481631194058"><ele>640.0</ele><time>2026-05-02T09:44:27.998Z</time></trkpt><trkpt lat="44.032835362674135" lon="11.529628280592638"><ele>640.0</ele><time>2026-05-02T09:44:28.998Z</time></trkpt><trkpt lat="44.03274582144825" lon="11.529775248868878"><ele>640.0</ele><time>2026-05-02T09:44:29.998Z</time></trkpt><trkpt lat="44.03264645567416" lon="11.52992906325925"><ele>640.0</ele><time>2026-05-02T09:44:30.998Z</time></trkpt><trkpt lat="44.03257417736586" lon="11.530088758018492"><ele>640.0</ele><time>2026-05-02T09:44:31.998Z</time></trkpt><trkpt lat="44.03251804748917" lon="11.53021790861001"><ele>640.0</ele><time>2026-05-02T09:44:32.998Z</time></trkpt><trkpt lat="44.032486016868766" lon="11.530351998713039"><ele>640.0</ele><time>2026-05-02T09:44:33.998Z</time></trkpt><trkpt lat="44.03249530681698" lon="11.530498811564355"><ele>640.0</ele><time>2026-05-02T09:44:34.998Z</time></trkpt><trkpt lat="44.03254410347976" lon="11.530662180950092"><ele>640.0</ele><time>2026-05-02T09:44:35.998Z</time></trkpt><trkpt lat="44.03261945619241" lon="11.530814939186461"><ele>638.0</ele><time>2026-05-02T09:44:36.998Z</time></trkpt><trkpt lat="44.03268366964415" lon="11.530949790220522"><ele>636.0</ele><time>2026-05-02T09:44:37.998Z</time></trkpt><trkpt lat="44.0327594621744" lon="11.531056207737501"><ele>634.0</ele><time>2026-05-02T09:44:38.998Z</time></trkpt><trkpt lat="44.03287088421574" lon="11.531133003393059"><ele>632.0</ele><time>2026-05-02T09:44:39.998Z</time></trkpt><trkpt lat="44.03300101448044" lon="11.531172793022982"><ele>631.25</ele><time>2026-05-02T09:44:40.998Z</time></trkpt><trkpt lat="44.03312781641528" lon="11.531225768324097"><ele>630.5</ele><time>2026-05-02T09:44:41.998Z</time></trkpt><trkpt lat="44.03323592775696" lon="11.531336117064164"><ele>629.75</ele><time>2026-05-02T09:44:42.998Z</time></trkpt><trkpt lat="44.0333328396555" lon="11.531447335849476"><ele>629.0</ele><time>2026-05-02T09:44:43.998Z</time></trkpt><trkpt lat="44.03342823191143" lon="11.531525885748248"><ele>629.0</ele><time>2026-05-02T09:44:44.998Z</time></trkpt><trkpt lat="44.033529241736524" lon="11.531534932276452"><ele>629.0</ele><time>2026-05-02T09:44:45.998Z</time></trkpt><trkpt lat="44.03363436285308" lon="11.531499161497365"><ele>629.0</ele><time>2026-05-02T09:44:46.998Z</time></trkpt><trkpt lat="44.033731206690014" lon="11.531448454623511"><ele>629.0</ele><time>2026-05-02T09:44:47.998Z</time></trkpt><trkpt lat="44.03382376846948" lon="11.531442337737227"><ele>629.0</ele><time>2026-05-02T09:44:48.998Z</time></trkpt><trkpt lat="44.03392284969011" lon="11.531489718840312"><ele>629.0</ele><time>2026-05-02T09:44:49.998Z</time></trkpt><trkpt lat="44.034005703551095" lon="11.531574744580153"><ele>629.0</ele><time>2026-05-02T09:44:50.998Z</time></trkpt><trkpt lat="44.03405882333336" lon="11.531713175599082"><ele>629.0</ele><time>2026-05-02T09:44:51.998Z</time></trkpt><trkpt lat="44.0340918453321" lon="11.531891826849323"><ele>629.0</ele><time>2026-05-02T09:44:52.998Z</time></trkpt><trkpt lat="44.034127674487756" lon="11.5320193411968"><ele>629.0</ele><time>2026-05-02T09:44:53.998Z</time></trkpt><trkpt lat="44.03418548148852" lon="11.532089410145996"><ele>631.2</ele><time>2026-05-02T09:44:54.998Z</time></trkpt><trkpt lat="44.03427007143683" lon="11.532099606536475"><ele>633.4</ele><time>2026-05-02T09:44:55.998Z</time></trkpt><trkpt lat="44.0343808136404" lon="11.532068568860359"><ele>635.6</ele><time>2026-05-02T09:44:56.998Z</time></trkpt><trkpt lat="44.03449018291065" lon="11.532004999942384"><ele>637.8</ele><time>2026-05-02T09:44:57.998Z</time></trkpt><trkpt lat="44.03456742193833" lon="11.531879464584476"><ele>640.0</ele><time>2026-05-02T09:44:58.998Z</time></trkpt><trkpt lat="44.03461877222371" lon="11.531722217145004"><ele>640.0</ele><time>2026-05-02T09:44:59.998Z</time></trkpt><trkpt lat="44.03464461529163" lon="11.53156619783357"><ele>640.0</ele><time>2026-05-02T09:45:00.998Z</time></trkpt><trkpt lat="44.034686111148204" lon="11.531445928107926"><ele>640.0</ele><time>2026-05-02T09:45:01.998Z</time></trkpt><trkpt lat="44.034745114724096" lon="11.531367866471978"><ele>640.0</ele><time>2026-05-02T09:45:02.998Z</time></trkpt><trkpt lat="44.03481765878884" lon="11.531342086557839"><ele>640.0</ele><time>2026-05-02T09:45:03.998Z</time></trkpt><trkpt lat="44.034900867626604" lon="11.531378658815472"><ele>637.2</ele><time>2026-05-02T09:45:04.998Z</time></trkpt><trkpt lat="44.034994726242374" lon="11.53144160822716"><ele>634.4</ele><time>2026-05-02T09:45:05.998Z</time></trkpt><trkpt lat="44.03507743597033" lon="11.531435512602126"><ele>631.6</ele><time>2026-05-02T09:45:06.998Z</time></trkpt><trkpt lat="44.03514268292125" lon="11.531349393922792"><ele>628.8</ele><time>2026-05-02T09:45:07.998Z</time></trkpt><trkpt lat="44.03520997669771" lon="11.531212713245518"><ele>626.0</ele><time>2026-05-02T09:45:08.998Z</time></trkpt><trkpt lat="44.035282791658744" lon="11.531139453374243"><ele>626.0</ele><time>2026-05-02T09:45:09.998Z</time></trkpt><trkpt lat="44.0353811444299" lon="11.531135908951661"><ele>626.0</ele><time>2026-05-02T09:45:10.998Z</time></trkpt><trkpt lat="44.03548966034003" lon="11.531167778566687"><ele>626.0</ele><time>2026-05-02T09:45:11.998Z</time></trkpt><trkpt lat="44.035613451889404" lon="11.531265038049613"><ele>626.0</ele><time>2026-05-02T09:45:12.998Z</time></trkpt><trkpt lat="44.03574169593638" lon="11.531354159513013"><ele>625.2</ele><time>2026-05-02T09:45:13.998Z</time></trkpt><trkpt lat="44.0358590469776" lon="11.531422821094644"><ele>624.4000000000001</ele><time>2026-05-02T09:45:14.998Z</time></trkpt><trkpt lat="44.03595744037207" lon="11.531486036176128"><ele>623.6</ele><time>2026-05-02T09:45:15.998Z</time></trkpt><trkpt lat="44.03603320218161" lon="11.531566447144225"><ele>622.8000000000001</ele><time>2026-05-02T09:45:16.998Z</time></trkpt><trkpt lat="44.036080338842" lon="11.53169007392753"><ele>622.0</ele><time>2026-05-02T09:45:17.998Z</time></trkpt><trkpt lat="44.0360961298189" lon="11.531847766971971"><ele>622.0</ele><time>2026-05-02T09:45:18.998Z</time></trkpt><trkpt lat="44.03606385318258" lon="11.53199446273978"><ele>622.0</ele><time>2026-05-02T09:45:19.998Z</time></trkpt><trkpt lat="44.03599125226715" lon="11.532143739069666"><ele>622.0</ele><time>2026-05-02T09:45:20.998Z</time></trkpt><trkpt lat="44.03589072852332" lon="11.532286805222226"><ele>622.0</ele><time>2026-05-02T09:45:21.998Z</time></trkpt><trkpt lat="44.035786929344546" lon="11.53244272903281"><ele>616.6666666666667</ele><time>2026-05-02T09:45:22.998Z</time></trkpt><trkpt lat="44.03566724490854" lon="11.532606623576596"><ele>611.3333333333334</ele><time>2026-05-02T09:45:23.998Z</time></trkpt><trkpt lat="44.03553411419641" lon="11.532758285978698"><ele>606.0</ele><time>2026-05-02T09:45:24.998Z</time></trkpt><trkpt lat="44.03539617067708" lon="11.532892978839584"><ele>605.3333333333334</ele><time>2026-05-02T09:45:25.998Z</time></trkpt><trkpt lat="44.03527557838744" lon="11.533026130876795"><ele>604.6666666666667</ele><time>2026-05-02T09:45:26.998Z</time></trkpt><trkpt lat="44.03517001109436" lon="11.533173566735329"><ele>604.0</ele><time>2026-05-02T09:45:27.998Z</time></trkpt><trkpt lat="44.03508296655285" lon="11.533349756137657"><ele>604.0</ele><time>2026-05-02T09:45:28.998Z</time></trkpt><trkpt lat="44.035000597403645" lon="11.533541041095432"><ele>604.0</ele><time>2026-05-02T09:45:29.998Z</time></trkpt><trkpt lat="44.03492289044929" lon="11.533701690818559"><ele>604.0</ele><time>2026-05-02T09:45:30.998Z</time></trkpt><trkpt lat="44.03485901735805" lon="11.5338304446357"><ele>604.0</ele><time>2026-05-02T09:45:31.998Z</time></trkpt><trkpt lat="44.03481924997124" lon="11.533949737530772"><ele>604.2</ele><time>2026-05-02T09:45:32.998Z</time></trkpt><trkpt lat="44.034812061178215" lon="11.534054414762965"><ele>604.4</ele><time>2026-05-02T09:45:33.998Z</time></trkpt><trkpt lat="44.03485110697135" lon="11.53415132110122"><ele>604.6</ele><time>2026-05-02T09:45:34.998Z</time></trkpt><trkpt lat="44.03493325830859" lon="11.534238766566496"><ele>604.8</ele><time>2026-05-02T09:45:35.998Z</time></trkpt><trkpt lat="44.035002860032826" lon="11.534337449714648"><ele>605.0</ele><time>2026-05-02T09:45:36.998Z</time></trkpt><trkpt lat="44.035054941026985" lon="11.53446239424693"><ele>602.75</ele><time>2026-05-02T09:45:37.998Z</time></trkpt><trkpt lat="44.0350729406315" lon="11.53461396557736"><ele>600.5</ele><time>2026-05-02T09:45:38.998Z</time></trkpt><trkpt lat="44.03508218405936" lon="11.534787107110233"><ele>598.25</ele><time>2026-05-02T09:45:39.998Z</time></trkpt><trkpt lat="44.03512986585341" lon="11.534956408667343"><ele>596.0</ele><time>2026-05-02T09:45:40.998Z</time></trkpt><trkpt lat="44.035162157552584" lon="11.535133174427495"><ele>596.0</ele><time>2026-05-02T09:45:41.998Z</time></trkpt><trkpt lat="44.035145642988674" lon="11.535315354529036"><ele>596.0</ele><time>2026-05-02T09:45:42.998Z</time></trkpt><trkpt lat="44.03509393621843" lon="11.535524003227394"><ele>596.0</ele><time>2026-05-02T09:45:43.998Z</time></trkpt><trkpt lat="44.0350529659307" lon="11.535720598887146"><ele>596.0</ele><time>2026-05-02T09:45:44.998Z</time></trkpt><trkpt lat="44.03501854604463" lon="11.535879278824549"><ele>596.25</ele><time>2026-05-02T09:45:45.998Z</time></trkpt><trkpt lat="44.034985058320984" lon="11.536031454803096"><ele>596.5</ele><time>2026-05-02T09:45:46.998Z</time></trkpt><trkpt lat="44.03492616799472" lon="11.53615702989412"><ele>596.75</ele><time>2026-05-02T09:45:47.998Z</time></trkpt><trkpt lat="44.03482908855638" lon="11.536245382879919"><ele>597.0</ele><time>2026-05-02T09:45:48.998Z</time></trkpt><trkpt lat="44.034716484220986" lon="11.536334580049202"><ele>589.5</ele><time>2026-05-02T09:45:49.998Z</time></trkpt><trkpt lat="44.03461447534338" lon="11.536459805027862"><ele>582.0</ele><time>2026-05-02T09:45:50.998Z</time></trkpt><trkpt lat="44.03454224272648" lon="11.53662812046423"><ele>574.5</ele><time>2026-05-02T09:45:51.998Z</time></trkpt><trkpt lat="44.03450469185749" lon="11.536816647861702"><ele>567.0</ele><time>2026-05-02T09:45:52.998Z</time></trkpt><trkpt lat="44.03448866414072" lon="11.53701677219799"><ele>567.0</ele><time>2026-05-02T09:45:53.998Z</time></trkpt><trkpt lat="44.03450695974372" lon="11.53722971964106"><ele>567.0</ele><time>2026-05-02T09:45:54.998Z</time></trkpt><trkpt lat="44.034566457061636" lon="11.537429149414528"><ele>567.0</ele><time>2026-05-02T09:45:55.998Z</time></trkpt><trkpt lat="44.03460651285946" lon="11.53765290375136"><ele>566.0</ele><time>2026-05-02T09:45:56.998Z</time></trkpt><trkpt lat="44.0346320044053" lon="11.537892855676235"><ele>565.0</ele><time>2026-05-02T09:45:57.998Z</time></trkpt><trkpt lat="44.03464072819325" lon="11.53811374134146"><ele>564.0</ele><time>2026-05-02T09:45:58.998Z</time></trkpt><trkpt lat="44.034655690748124" lon="11.538335303050436"><ele>564.0</ele><time>2026-05-02T09:45:59.998Z</time></trkpt><trkpt lat="44.03463867899392" lon="11.538576055891923"><ele>564.0</ele><time>2026-05-02T09:46:00.998Z</time></trkpt><trkpt lat="44.03460125188736" lon="11.538830067491194"><ele>564.0</ele><time>2026-05-02T09:46:01.998Z</time></trkpt><trkpt lat="44.03453464722421" lon="11.539103826524142"><ele>564.0</ele><time>2026-05-02T09:46:02.998Z</time></trkpt><trkpt lat="44.034475305160655" lon="11.539364762511424"><ele>564.0</ele><time>2026-05-02T09:46:03.998Z</time></trkpt><trkpt lat="44.03442689347828" lon="11.539600175419228"><ele>564.0</ele><time>2026-05-02T09:46:04.998Z</time></trkpt><trkpt lat="44.03438968367634" lon="11.53977800170287"><ele>563.0</ele><time>2026-05-02T09:46:05.998Z</time></trkpt><trkpt lat="44.03436027465536" lon="11.539920561523271"><ele>562.0</ele><time>2026-05-02T09:46:06.998Z</time></trkpt><trkpt lat="44.034356823298175" lon="11.540055487353767"><ele>561.0</ele><time>2026-05-02T09:46:07.998Z</time></trkpt><trkpt lat="44.0343759995019" lon="11.540204975340416"><ele>560.0</ele><time>2026-05-02T09:46:08.998Z</time></trkpt><trkpt lat="44.03446346905139" lon="11.540352662844061"><ele>558.25</ele><time>2026-05-02T09:46:09.998Z</time></trkpt><trkpt lat="44.03456760956583" lon="11.540471162521891"><ele>556.5</ele><time>2026-05-02T09:46:10.998Z</time></trkpt><trkpt lat="44.034667982095904" lon="11.540584794059962"><ele>554.75</ele><time>2026-05-02T09:46:11.998Z</time></trkpt><trkpt lat="44.03473245670852" lon="11.540778272870803"><ele>553.0</ele><time>2026-05-02T09:46:12.998Z</time></trkpt><trkpt lat="44.0347501731538" lon="11.541017260456663"><ele>551.3333333333334</ele><time>2026-05-02T09:46:13.998Z</time></trkpt><trkpt lat="44.03475029803309" lon="11.541279303993639"><ele>549.6666666666666</ele><time>2026-05-02T09:46:14.998Z</time></trkpt><trkpt lat="44.03474820924071" lon="11.541537074966543"><ele>548.0</ele><time>2026-05-02T09:46:15.998Z</time></trkpt><trkpt lat="44.03474547479839" lon="11.541771711221035"><ele>548.0</ele><time>2026-05-02T09:46:16.998Z</time></trkpt><trkpt lat="44.03473686877791" lon="11.541978764758273"><ele>548.0</ele><time>2026-05-02T09:46:17.998Z</time></trkpt><trkpt lat="44.034687736696476" lon="11.542156790790102"><ele>548.0</ele><time>2026-05-02T09:46:18.998Z</time></trkpt><trkpt lat="44.03460424786048" lon="11.542337222915874"><ele>548.0</ele><time>2026-05-02T09:46:19.998Z</time></trkpt><trkpt lat="44.03447537877655" lon="11.54251288440473"><ele>547.6666666666666</ele><time>2026-05-02T09:46:20.998Z</time></trkpt><trkpt lat="44.03434256519163" lon="11.542696867569893"><ele>547.3333333333334</ele><time>2026-05-02T09:46:21.998Z</time></trkpt><trkpt lat="44.03422297252973" lon="11.542872037774256"><ele>547.0</ele><time>2026-05-02T09:46:22.998Z</time></trkpt><trkpt lat="44.03412297263396" lon="11.543021344970425"><ele>547.6</ele><time>2026-05-02T09:46:23.998Z</time></trkpt><trkpt lat="44.034041121948285" lon="11.543162176251444"><ele>548.2</ele><time>2026-05-02T09:46:24.998Z</time></trkpt><trkpt lat="44.03399510880808" lon="11.543288804623037"><ele>548.8</ele><time>2026-05-02T09:46:25.998Z</time></trkpt><trkpt lat="44.03399373023203" lon="11.543422232429315"><ele>549.4</ele><time>2026-05-02T09:46:26.998Z</time></trkpt><trkpt lat="44.034028627988896" lon="11.543527477855445"><ele>550.0</ele><time>2026-05-02T09:46:27.998Z</time></trkpt><trkpt lat="44.034111901596404" lon="11.543621704995134"><ele>549.6666666666667</ele><time>2026-05-02T09:46:28.998Z</time></trkpt><trkpt lat="44.034232519957335" lon="11.543688079845767"><ele>549.3333333333334</ele><time>2026-05-02T09:46:29.998Z</time></trkpt><trkpt lat="44.034375333597566" lon="11.543752342398495"><ele>549.0</ele><time>2026-05-02T09:46:30.998Z</time></trkpt><trkpt lat="44.03453241459099" lon="11.543845516469561"><ele>547.6666666666666</ele><time>2026-05-02T09:46:31.998Z</time></trkpt><trkpt lat="44.03468001866493" lon="11.543960653055382"><ele>546.3333333333333</ele><time>2026-05-02T09:46:32.998Z</time></trkpt><trkpt lat="44.034815888528996" lon="11.544082998679553"><ele>545.0</ele><time>2026-05-02T09:46:33.998Z</time></trkpt><trkpt lat="44.03491865459316" lon="11.544223022474652"><ele>544.75</ele><time>2026-05-02T09:46:34.998Z</time></trkpt><trkpt lat="44.03500269496944" lon="11.544347417064166"><ele>544.5</ele><time>2026-05-02T09:46:35.998Z</time></trkpt><trkpt lat="44.03509555523024" lon="11.544440693927895"><ele>544.25</ele><time>2026-05-02T09:46:36.998Z</time></trkpt><trkpt lat="44.03521449027015" lon="11.54449727663304"><ele>544.0</ele><time>2026-05-02T09:46:37.998Z</time></trkpt><trkpt lat="44.035333654965804" lon="11.544541583574217"><ele>543.0</ele><time>2026-05-02T09:46:38.998Z</time></trkpt><trkpt lat="44.035447977458055" lon="11.544577117834137"><ele>542.0</ele><time>2026-05-02T09:46:39.998Z</time></trkpt><trkpt lat="44.03553591799084" lon="11.544625876526784"><ele>541.0</ele><time>2026-05-02T09:46:40.998Z</time></trkpt><trkpt lat="44.035600011147665" lon="11.544709662974368"><ele>540.0</ele><time>2026-05-02T09:46:41.998Z</time></trkpt><trkpt lat="44.03562540641272" lon="11.544832890622503"><ele>539.0</ele><time>2026-05-02T09:46:42.998Z</time></trkpt><trkpt lat="44.03563204853721" lon="11.544975363957152"><ele>539.0</ele><time>2026-05-02T09:46:43.998Z</time></trkpt><trkpt lat="44.03566297131443" lon="11.54514777169573"><ele>539.0</ele><time>2026-05-02T09:46:44.998Z</time></trkpt><trkpt lat="44.03572418151654" lon="11.545318914891428"><ele>539.0</ele><time>2026-05-02T09:46:45.998Z</time></trkpt><trkpt lat="44.03580614321758" lon="11.545492248776577"><ele>539.0</ele><time>2026-05-02T09:46:46.998Z</time></trkpt><trkpt lat="44.03589860175431" lon="11.545642124449015"><ele>538.25</ele><time>2026-05-02T09:46:47.998Z</time></trkpt><trkpt lat="44.03600299426469" lon="11.545784985321715"><ele>537.5</ele><time>2026-05-02T09:46:48.998Z</time></trkpt><trkpt lat="44.03611262165049" lon="11.54591341562827"><ele>536.75</ele><time>2026-05-02T09:46:49.998Z</time></trkpt><trkpt lat="44.036221415000874" lon="11.546026161396028"><ele>536.0</ele><time>2026-05-02T09:46:50.998Z</time></trkpt><trkpt lat="44.03632364730681" lon="11.546152353820164"><ele>537.0</ele><time>2026-05-02T09:46:51.998Z</time></trkpt><trkpt lat="44.03642675323073" lon="11.546273512120045"><ele>538.0</ele><time>2026-05-02T09:46:52.998Z</time></trkpt><trkpt lat="44.036520605372964" lon="11.546384586643967"><ele>539.0</ele><time>2026-05-02T09:46:53.998Z</time></trkpt><trkpt lat="44.03661061117428" lon="11.546497432560082"><ele>540.0</ele><time>2026-05-02T09:46:54.998Z</time></trkpt><trkpt lat="44.0366938336699" lon="11.546627557883317"><ele>540.0</ele><time>2026-05-02T09:46:55.998Z</time></trkpt><trkpt lat="44.03677156645751" lon="11.546799641841734"><ele>540.0</ele><time>2026-05-02T09:46:56.998Z</time></trkpt><trkpt lat="44.036838595493926" lon="11.546976580706472"><ele>540.0</ele><time>2026-05-02T09:46:57.998Z</time></trkpt><trkpt lat="44.036918667037106" lon="11.547142961452023"><ele>540.0</ele><time>2026-05-02T09:46:58.998Z</time></trkpt><trkpt lat="44.03700073341401" lon="11.547325118165022"><ele>539.0</ele><time>2026-05-02T09:46:59.998Z</time></trkpt><trkpt lat="44.037087492574635" lon="11.5475040889632"><ele>538.0</ele><time>2026-05-02T09:47:00.998Z</time></trkpt><trkpt lat="44.037167271654226" lon="11.547676128112325"><ele>537.0</ele><time>2026-05-02T09:47:01.998Z</time></trkpt><trkpt lat="44.03724265087767" lon="11.547842432433997"><ele>536.0</ele><time>2026-05-02T09:47:02.998Z</time></trkpt><trkpt lat="44.037333276301354" lon="11.547994937814428"><ele>536.0</ele><time>2026-05-02T09:47:03.998Z</time></trkpt><trkpt lat="44.03743704904775" lon="11.548148534607028"><ele>536.0</ele><time>2026-05-02T09:47:04.998Z</time></trkpt><trkpt lat="44.03757437147593" lon="11.548266033825154"><ele>536.0</ele><time>2026-05-02T09:47:05.998Z</time></trkpt><trkpt lat="44.037702149892155" lon="11.548352295367895"><ele>535.25</ele><time>2026-05-02T09:47:06.998Z</time></trkpt><trkpt lat="44.03782515373017" lon="11.548407712531343"><ele>534.5</ele><time>2026-05-02T09:47:07.998Z</time></trkpt><trkpt lat="44.03795779544009" lon="11.548392701830084"><ele>533.75</ele><time>2026-05-02T09:47:08.998Z</time></trkpt><trkpt lat="44.03811465574625" lon="11.548354841915604"><ele>533.0</ele><time>2026-05-02T09:47:09.998Z</time></trkpt><trkpt lat="44.0382874831091" lon="11.548330583079727"><ele>533.0</ele><time>2026-05-02T09:47:10.998Z</time></trkpt><trkpt lat="44.038468164612404" lon="11.54831030720867"><ele>533.0</ele><time>2026-05-02T09:47:11.998Z</time></trkpt><trkpt lat="44.03865941756614" lon="11.548288904798802"><ele>533.0</ele><time>2026-05-02T09:47:12.998Z</time></trkpt><trkpt lat="44.038849593338206" lon="11.548250773492942"><ele>533.0</ele><time>2026-05-02T09:47:13.998Z</time></trkpt><trkpt lat="44.03902836824547" lon="11.548209211089825"><ele>533.0</ele><time>2026-05-02T09:47:14.998Z</time></trkpt><trkpt lat="44.039196351038285" lon="11.548167840757774"><ele>533.0</ele><time>2026-05-02T09:47:15.998Z</time></trkpt><trkpt lat="44.03935483480229" lon="11.548134290860064"><ele>532.6666666666666</ele><time>2026-05-02T09:47:16.998Z</time></trkpt><trkpt lat="44.03950412344734" lon="11.548118417056797"><ele>532.3333333333334</ele><time>2026-05-02T09:47:17.998Z</time></trkpt><trkpt lat="44.039650658568114" lon="11.548144093018305"><ele>532.0</ele><time>2026-05-02T09:47:18.998Z</time></trkpt><trkpt lat="44.039806438949896" lon="11.5481658587828"><ele>532.0</ele><time>2026-05-02T09:47:19.998Z</time></trkpt><trkpt lat="44.03996354190359" lon="11.548190337612784"><ele>532.0</ele><time>2026-05-02T09:47:20.998Z</time></trkpt><trkpt lat="44.040138830877254" lon="11.548210016373346"><ele>532.0</ele><time>2026-05-02T09:47:21.998Z</time></trkpt><trkpt lat="44.04032171655124" lon="11.548219171937946"><ele>531.5</ele><time>2026-05-02T09:47:22.998Z</time></trkpt><trkpt lat="44.040484512268854" lon="11.548236016114078"><ele>531.0</ele><time>2026-05-02T09:47:23.998Z</time></trkpt><trkpt lat="44.040629857173045" lon="11.548242787286128"><ele>530.5</ele><time>2026-05-02T09:47:24.998Z</time></trkpt><trkpt lat="44.04075830816086" lon="11.54825503707684"><ele>530.0</ele><time>2026-05-02T09:47:25.998Z</time></trkpt><trkpt lat="44.04088920376122" lon="11.54823330135414"><ele>529.0</ele><time>2026-05-02T09:47:26.998Z</time></trkpt><trkpt lat="44.041026399500865" lon="11.54819245063706"><ele>528.0</ele><time>2026-05-02T09:47:27.998Z</time></trkpt><trkpt lat="44.04117233663579" lon="11.548146700066702"><ele>527.0</ele><time>2026-05-02T09:47:28.998Z</time></trkpt><trkpt lat="44.04133758268423" lon="11.548109959812146"><ele>527.0</ele><time>2026-05-02T09:47:29.998Z</time></trkpt><trkpt lat="44.04150785671153" lon="11.54806216718787"><ele>527.0</ele><time>2026-05-02T09:47:30.998Z</time></trkpt><trkpt lat="44.041676249563544" lon="11.54800825588786"><ele>527.0</ele><time>2026-05-02T09:47:31.998Z</time></trkpt><trkpt lat="44.041839973963675" lon="11.54796623027888"><ele>526.3333333333333</ele><time>2026-05-02T09:47:32.998Z</time></trkpt><trkpt lat="44.04199420235158" lon="11.547920344523186"><ele>525.6666666666666</ele><time>2026-05-02T09:47:33.998Z</time></trkpt><trkpt lat="44.04214175931614" lon="11.547873847016827"><ele>525.0</ele><time>2026-05-02T09:47:34.998Z</time></trkpt><trkpt lat="44.04228845278653" lon="11.547837374918227"><ele>525.0</ele><time>2026-05-02T09:47:35.998Z</time></trkpt><trkpt lat="44.042443016122846" lon="11.547789341023048"><ele>525.0</ele><time>2026-05-02T09:47:36.998Z</time></trkpt><trkpt lat="44.04257113478958" lon="11.547806063243895"><ele>525.0</ele><time>2026-05-02T09:47:37.998Z</time></trkpt><trkpt lat="44.042697295561055" lon="11.547846887855162"><ele>525.0</ele><time>2026-05-02T09:47:38.998Z</time></trkpt><trkpt lat="44.04281288279229" lon="11.547916388106469"><ele>525.0</ele><time>2026-05-02T09:47:39.998Z</time></trkpt><trkpt lat="44.04293745387437" lon="11.547981907119791"><ele>525.0</ele><time>2026-05-02T09:47:40.998Z</time></trkpt><trkpt lat="44.04306983531422" lon="11.548019579064452"><ele>525.0</ele><time>2026-05-02T09:47:41.998Z</time></trkpt><trkpt lat="44.04319479357486" lon="11.548012768707263"><ele>525.0</ele><time>2026-05-02T09:47:42.998Z</time></trkpt><trkpt lat="44.04334170672415" lon="11.547960704039811"><ele>524.25</ele><time>2026-05-02T09:47:43.998Z</time></trkpt><trkpt lat="44.0434827888677" lon="11.547929240599856"><ele>523.5</ele><time>2026-05-02T09:47:44.998Z</time></trkpt><trkpt lat="44.04360920141375" lon="11.547901267119258"><ele>522.75</ele><time>2026-05-02T09:47:45.998Z</time></trkpt><trkpt lat="44.04372416453317" lon="11.54790847807621"><ele>522.0</ele><time>2026-05-02T09:47:46.998Z</time></trkpt><trkpt lat="44.043820618146086" lon="11.547960947773829"><ele>522.0</ele><time>2026-05-02T09:47:47.998Z</time></trkpt><trkpt lat="44.04391789669889" lon="11.548066215418382"><ele>522.0</ele><time>2026-05-02T09:47:48.998Z</time></trkpt><trkpt lat="44.044015838058314" lon="11.548138538907615"><ele>522.0</ele><time>2026-05-02T09:47:49.998Z</time></trkpt><trkpt lat="44.04410791557798" lon="11.548181365571445"><ele>522.0</ele><time>2026-05-02T09:47:50.998Z</time></trkpt><trkpt lat="44.04419697508824" lon="11.548144177208453"><ele>522.0</ele><time>2026-05-02T09:47:51.998Z</time></trkpt><trkpt lat="44.04430811548284" lon="11.548004485308477"><ele>523.25</ele><time>2026-05-02T09:47:52.998Z</time></trkpt><trkpt lat="44.04439470826082" lon="11.54782775992736"><ele>524.5</ele><time>2026-05-02T09:47:53.998Z</time></trkpt><trkpt lat="44.04447141304757" lon="11.54770693888089"><ele>525.75</ele><time>2026-05-02T09:47:54.998Z</time></trkpt><trkpt lat="44.04458652009587" lon="11.547659964604996"><ele>527.0</ele><time>2026-05-02T09:47:55.998Z</time></trkpt><trkpt lat="44.04470632905177" lon="11.547643313779187"><ele>527.0</ele><time>2026-05-02T09:47:56.998Z</time></trkpt><trkpt lat="44.0448067763399" lon="11.547604984057612"><ele>527.0</ele><time>2026-05-02T09:47:57.998Z</time></trkpt><trkpt lat="44.04488313887538" lon="11.547512793212183"><ele>527.0</ele><time>2026-05-02T09:47:58.998Z</time></trkpt><trkpt lat="44.04494835047046" lon="11.547393516220744"><ele>527.0</ele><time>2026-05-02T09:47:59.998Z</time></trkpt><trkpt lat="44.04501575880352" lon="11.547338616159221"><ele>527.0</ele><time>2026-05-02T09:48:00.998Z</time></trkpt><trkpt lat="44.045107604714936" lon="11.547335989771764"><ele>523.25</ele><time>2026-05-02T09:48:01.998Z</time></trkpt><trkpt lat="44.04522462367475" lon="11.547417845391688"><ele>519.5</ele><time>2026-05-02T09:48:02.998Z</time></trkpt><trkpt lat="44.04533728993945" lon="11.547560381258176"><ele>515.75</ele><time>2026-05-02T09:48:03.998Z</time></trkpt><trkpt lat="44.04545001146944" lon="11.547716874279896"><ele>512.0</ele><time>2026-05-02T09:48:04.998Z</time></trkpt><trkpt lat="44.04555322559937" lon="11.547846161008975"><ele>512.25</ele><time>2026-05-02T09:48:05.998Z</time></trkpt><trkpt lat="44.04567444470363" lon="11.547943573091779"><ele>512.5</ele><time>2026-05-02T09:48:06.998Z</time></trkpt><trkpt lat="44.04581168435138" lon="11.547991771409997"><ele>512.75</ele><time>2026-05-02T09:48:07.998Z</time></trkpt><trkpt lat="44.04593314424869" lon="11.548017155866098"><ele>513.0</ele><time>2026-05-02T09:48:08.998Z</time></trkpt><trkpt lat="44.046062314078746" lon="11.548060702174102"><ele>510.33333333333337</ele><time>2026-05-02T09:48:09.998Z</time></trkpt><trkpt lat="44.04620187780911" lon="11.548175443835197"><ele>507.6666666666667</ele><time>2026-05-02T09:48:10.998Z</time></trkpt><trkpt lat="44.046324316124455" lon="11.548322729663836"><ele>505.0</ele><time>2026-05-02T09:48:11.998Z</time></trkpt><trkpt lat="44.04642810026939" lon="11.548474650622074"><ele>505.0</ele><time>2026-05-02T09:48:12.998Z</time></trkpt><trkpt lat="44.04650616504244" lon="11.548608548262408"><ele>505.0</ele><time>2026-05-02T09:48:13.998Z</time></trkpt><trkpt lat="44.04659584181582" lon="11.548700174627838"><ele>505.0</ele><time>2026-05-02T09:48:14.998Z</time></trkpt><trkpt lat="44.046693155151424" lon="11.54875173550761"><ele>505.0</ele><time>2026-05-02T09:48:15.998Z</time></trkpt><trkpt lat="44.046818091485996" lon="11.548744133154782"><ele>506.6666666666667</ele><time>2026-05-02T09:48:16.998Z</time></trkpt><trkpt lat="44.04696924650008" lon="11.548689088455994"><ele>508.33333333333337</ele><time>2026-05-02T09:48:17.998Z</time></trkpt><trkpt lat="44.04712645983907" lon="11.548603841254575"><ele>510.0</ele><time>2026-05-02T09:48:18.998Z</time></trkpt><trkpt lat="44.04728896214459" lon="11.548506649696927"><ele>503.66666666666663</ele><time>2026-05-02T09:48:19.998Z</time></trkpt><trkpt lat="44.04746878106083" lon="11.548432142470077"><ele>497.3333333333333</ele><time>2026-05-02T09:48:20.998Z</time></trkpt><trkpt lat="44.047657984845785" lon="11.548350883285977"><ele>491.0</ele><time>2026-05-02T09:48:21.998Z</time></trkpt><trkpt lat="44.04784959356985" lon="11.548272233941688"><ele>491.0</ele><time>2026-05-02T09:48:22.998Z</time></trkpt><trkpt lat="44.04804425356844" lon="11.548193963318477"><ele>491.0</ele><time>2026-05-02T09:48:23.998Z</time></trkpt><trkpt lat="44.04824091605681" lon="11.548141403461656"><ele>491.0</ele><time>2026-05-02T09:48:24.998Z</time></trkpt><trkpt lat="44.048419601270076" lon="11.54809630365128"><ele>488.3333333333333</ele><time>2026-05-02T09:48:25.998Z</time></trkpt><trkpt lat="44.04857648405836" lon="11.548079420625786"><ele>485.66666666666663</ele><time>2026-05-02T09:48:26.998Z</time></trkpt><trkpt lat="44.04872424202411" lon="11.548096966481872"><ele>483.0</ele><time>2026-05-02T09:48:27.998Z</time></trkpt><trkpt lat="44.048864720520875" lon="11.548171237187287"><ele>483.0</ele><time>2026-05-02T09:48:28.998Z</time></trkpt><trkpt lat="44.04899676982617" lon="11.548312110258907"><ele>483.0</ele><time>2026-05-02T09:48:29.998Z</time></trkpt><trkpt lat="44.04910552379308" lon="11.548480444972084"><ele>483.0</ele><time>2026-05-02T09:48:30.998Z</time></trkpt><trkpt lat="44.049192124274434" lon="11.548699275404404"><ele>482.66666666666663</ele><time>2026-05-02T09:48:31.998Z</time></trkpt><trkpt lat="44.04926016810052" lon="11.548944861504538"><ele>482.3333333333333</ele><time>2026-05-02T09:48:32.998Z</time></trkpt><trkpt lat="44.04930536090856" lon="11.549207969942332"><ele>482.0</ele><time>2026-05-02T09:48:33.998Z</time></trkpt><trkpt lat="44.04933834015324" lon="11.54943999596884"><ele>481.75</ele><time>2026-05-02T09:48:34.998Z</time></trkpt><trkpt lat="44.04937069673175" lon="11.549638010074746"><ele>481.5</ele><time>2026-05-02T09:48:35.998Z</time></trkpt><trkpt lat="44.04942009061819" lon="11.549799693160308"><ele>481.25</ele><time>2026-05-02T09:48:36.998Z</time></trkpt><trkpt lat="44.04948902896967" lon="11.549913780479551"><ele>481.0</ele><time>2026-05-02T09:48:37.998Z</time></trkpt><trkpt lat="44.049573964520484" lon="11.549960786465615"><ele>481.0</ele><time>2026-05-02T09:48:38.998Z</time></trkpt><trkpt lat="44.049687661710166" lon="11.549960508763021"><ele>481.0</ele><time>2026-05-02T09:48:39.998Z</time></trkpt><trkpt lat="44.049820517417196" lon="11.549927244737939"><ele>481.0</ele><time>2026-05-02T09:48:40.998Z</time></trkpt><trkpt lat="44.049946853149315" lon="11.549847366789226"><ele>481.0</ele><time>2026-05-02T09:48:41.998Z</time></trkpt><trkpt lat="44.05007124122401" lon="11.549726305402325"><ele>481.33333333333337</ele><time>2026-05-02T09:48:42.998Z</time></trkpt><trkpt lat="44.05017619546382" lon="11.549562338146083"><ele>481.66666666666663</ele><time>2026-05-02T09:48:43.998Z</time></trkpt><trkpt lat="44.050277695267745" lon="11.549367075859525"><ele>482.0</ele><time>2026-05-02T09:48:44.998Z</time></trkpt><trkpt lat="44.050370747259166" lon="11.549172880629152"><ele>484.0</ele><time>2026-05-02T09:48:45.998Z</time></trkpt><trkpt lat="44.05050448142717" lon="11.549014613568756"><ele>486.0</ele><time>2026-05-02T09:48:46.998Z</time></trkpt><trkpt lat="44.050661021438195" lon="11.548891161191088"><ele>488.0</ele><time>2026-05-02T09:48:47.998Z</time></trkpt><trkpt lat="44.0508021186837" lon="11.548782896271513"><ele>488.5</ele><time>2026-05-02T09:48:48.998Z</time></trkpt><trkpt lat="44.05094026668021" lon="11.548713637274306"><ele>489.0</ele><time>2026-05-02T09:48:49.998Z</time></trkpt><trkpt lat="44.05106022683285" lon="11.548685182399629"><ele>489.5</ele><time>2026-05-02T09:48:50.998Z</time></trkpt><trkpt lat="44.051190035663346" lon="11.548685145424397"><ele>490.0</ele><time>2026-05-02T09:48:51.998Z</time></trkpt><trkpt lat="44.051340287337275" lon="11.548739366059136"><ele>485.0</ele><time>2026-05-02T09:48:52.998Z</time></trkpt><trkpt lat="44.051490196632464" lon="11.548801352286356"><ele>480.0</ele><time>2026-05-02T09:48:53.998Z</time></trkpt><trkpt lat="44.05164728617402" lon="11.548883914521495"><ele>475.0</ele><time>2026-05-02T09:48:54.998Z</time></trkpt><trkpt lat="44.05180744084705" lon="11.548999921138753"><ele>474.25</ele><time>2026-05-02T09:48:55.998Z</time></trkpt><trkpt lat="44.05193786080543" lon="11.549144403596848"><ele>473.5</ele><time>2026-05-02T09:48:56.998Z</time></trkpt><trkpt lat="44.052031626425624" lon="11.549285228975073"><ele>472.75</ele><time>2026-05-02T09:48:57.998Z</time></trkpt><trkpt lat="44.05211047600469" lon="11.549361478742028"><ele>472.0</ele><time>2026-05-02T09:48:58.998Z</time></trkpt><trkpt lat="44.0521812234194" lon="11.549375243277828"><ele>472.0</ele><time>2026-05-02T09:48:59.998Z</time></trkpt><trkpt lat="44.0522701519318" lon="11.549336807494301"><ele>472.0</ele><time>2026-05-02T09:49:00.998Z</time></trkpt><trkpt lat="44.052392076972225" lon="11.549250400264645"><ele>472.0</ele><time>2026-05-02T09:49:01.998Z</time></trkpt><trkpt lat="44.052524408419444" lon="11.549142474315355"><ele>472.0</ele><time>2026-05-02T09:49:02.998Z</time></trkpt><trkpt lat="44.05267117702158" lon="11.549027741152246"><ele>470.25</ele><time>2026-05-02T09:49:03.998Z</time></trkpt><trkpt lat="44.05281072777008" lon="11.548922805688342"><ele>468.5</ele><time>2026-05-02T09:49:04.998Z</time></trkpt><trkpt lat="44.05293135953152" lon="11.548834773139237"><ele>466.75</ele><time>2026-05-02T09:49:05.998Z</time></trkpt><trkpt lat="44.053043053435566" lon="11.548782635285555"><ele>465.0</ele><time>2026-05-02T09:49:06.998Z</time></trkpt><trkpt lat="44.05317218373102" lon="11.54876403562668"><ele>464.75</ele><time>2026-05-02T09:49:07.998Z</time></trkpt><trkpt lat="44.05330679155356" lon="11.548794094682632"><ele>464.5</ele><time>2026-05-02T09:49:08.998Z</time></trkpt><trkpt lat="44.05343645984854" lon="11.548867941263056"><ele>464.25</ele><time>2026-05-02T09:49:09.998Z</time></trkpt><trkpt lat="44.05354319209807" lon="11.548992488205748"><ele>464.0</ele><time>2026-05-02T09:49:10.998Z</time></trkpt><trkpt lat="44.053625698516214" lon="11.549144470151514"><ele>464.0</ele><time>2026-05-02T09:49:11.998Z</time></trkpt><trkpt lat="44.05367726172889" lon="11.54933686805555"><ele>464.0</ele><time>2026-05-02T09:49:12.998Z</time></trkpt><trkpt lat="44.0536859608328" lon="11.54957651138164"><ele>464.0</ele><time>2026-05-02T09:49:13.998Z</time></trkpt><trkpt lat="44.05367075941691" lon="11.549831990731999"><ele>463.3333333333333</ele><time>2026-05-02T09:49:14.998Z</time></trkpt><trkpt lat="44.05363553967108" lon="11.55009859093308"><ele>462.66666666666663</ele><time>2026-05-02T09:49:15.998Z</time></trkpt><trkpt lat="44.053609770353255" lon="11.550355364141806"><ele>462.0</ele><time>2026-05-02T09:49:16.998Z</time></trkpt><trkpt lat="44.053594922411996" lon="11.550594859185805"><ele>460.75</ele><time>2026-05-02T09:49:17.998Z</time></trkpt><trkpt lat="44.053602117270586" lon="11.550826786220666"><ele>459.5</ele><time>2026-05-02T09:49:18.998Z</time></trkpt><trkpt lat="44.0536311671575" lon="11.551033964556893"><ele>458.25</ele><time>2026-05-02T09:49:19.998Z</time></trkpt><trkpt lat="44.05367111662767" lon="11.551191682486033"><ele>457.0</ele><time>2026-05-02T09:49:20.998Z</time></trkpt><trkpt lat="44.05372964372638" lon="11.55130948719246"><ele>456.0</ele><time>2026-05-02T09:49:21.998Z</time></trkpt><trkpt lat="44.05380222459899" lon="11.551377000150318"><ele>455.0</ele><time>2026-05-02T09:49:22.998Z</time></trkpt><trkpt lat="44.05390518320281" lon="11.551380107416438"><ele>454.0</ele><time>2026-05-02T09:49:23.998Z</time></trkpt><trkpt lat="44.0540220985786" lon="11.551325051420106"><ele>453.0</ele><time>2026-05-02T09:49:24.998Z</time></trkpt><trkpt lat="44.05415432483535" lon="11.551263159596584"><ele>453.0</ele><time>2026-05-02T09:49:25.998Z</time></trkpt><trkpt lat="44.05430680865785" lon="11.551209944131276"><ele>453.0</ele><time>2026-05-02T09:49:26.998Z</time></trkpt><trkpt lat="44.0544547054377" lon="11.551185831773326"><ele>453.0</ele><time>2026-05-02T09:49:27.998Z</time></trkpt><trkpt lat="44.05459998462211" lon="11.551201115487586"><ele>453.0</ele><time>2026-05-02T09:49:28.998Z</time></trkpt><trkpt lat="44.05472522326443" lon="11.551264539250072"><ele>453.0</ele><time>2026-05-02T09:49:29.997Z</time></trkpt><trkpt lat="44.054824938114194" lon="11.551372182498925"><ele>453.0</ele><time>2026-05-02T09:49:30.997Z</time></trkpt><trkpt lat="44.05490343988986" lon="11.551523963845588"><ele>453.0</ele><time>2026-05-02T09:49:31.997Z</time></trkpt><trkpt lat="44.05496110344016" lon="11.551696597673612"><ele>453.4</ele><time>2026-05-02T09:49:32.997Z</time></trkpt><trkpt lat="44.05498200344614" lon="11.55186987779963"><ele>453.79999999999995</ele><time>2026-05-02T09:49:33.997Z</time></trkpt><trkpt lat="44.05496777195244" lon="11.552030845226383"><ele>454.2</ele><time>2026-05-02T09:49:34.997Z</time></trkpt><trkpt lat="44.054951691504186" lon="11.552169573511822"><ele>454.6</ele><time>2026-05-02T09:49:35.997Z</time></trkpt><trkpt lat="44.05495544310777" lon="11.552290894013096"><ele>455.0</ele><time>2026-05-02T09:49:36.997Z</time></trkpt><trkpt lat="44.05500820186068" lon="11.55238841660413"><ele>455.0</ele><time>2026-05-02T09:49:37.997Z</time></trkpt><trkpt lat="44.055097989578904" lon="11.552477619560188"><ele>455.0</ele><time>2026-05-02T09:49:38.997Z</time></trkpt><trkpt lat="44.05521516505868" lon="11.552545916385798"><ele>455.0</ele><time>2026-05-02T09:49:39.997Z</time></trkpt><trkpt lat="44.05535290722927" lon="11.552618080400904"><ele>455.0</ele><time>2026-05-02T09:49:40.997Z</time></trkpt><trkpt lat="44.055498591951" lon="11.552697026854533"><ele>455.0</ele><time>2026-05-02T09:49:41.997Z</time></trkpt><trkpt lat="44.05564619733495" lon="11.552796475365982"><ele>455.0</ele><time>2026-05-02T09:49:42.997Z</time></trkpt><trkpt lat="44.055798965871354" lon="11.552900819558255"><ele>455.0</ele><time>2026-05-02T09:49:43.997Z</time></trkpt><trkpt lat="44.05596358762928" lon="11.553002407894883"><ele>454.66666666666663</ele><time>2026-05-02T09:49:44.997Z</time></trkpt><trkpt lat="44.056138141709894" lon="11.553094020089999"><ele>454.33333333333337</ele><time>2026-05-02T09:49:45.997Z</time></trkpt><trkpt lat="44.056307567665534" lon="11.55316840917533"><ele>454.0</ele><time>2026-05-02T09:49:46.997Z</time></trkpt><trkpt lat="44.05646848249932" lon="11.553244213469165"><ele>456.33333333333337</ele><time>2026-05-02T09:49:47.997Z</time></trkpt><trkpt lat="44.05662122040627" lon="11.553333254602908"><ele>458.66666666666663</ele><time>2026-05-02T09:49:48.997Z</time></trkpt><trkpt lat="44.05676865882253" lon="11.553447560346362"><ele>461.0</ele><time>2026-05-02T09:49:49.997Z</time></trkpt><trkpt lat="44.05689420420469" lon="11.55359886285762"><ele>455.66666666666663</ele><time>2026-05-02T09:49:50.997Z</time></trkpt><trkpt lat="44.057004935597625" lon="11.553767720002575"><ele>450.33333333333337</ele><time>2026-05-02T09:49:51.997Z</time></trkpt><trkpt lat="44.057095596781075" lon="11.553953939326853"><ele>445.0</ele><time>2026-05-02T09:49:52.997Z</time></trkpt><trkpt lat="44.05715145691989" lon="11.554146666781147"><ele>445.0</ele><time>2026-05-02T09:49:53.997Z</time></trkpt><trkpt lat="44.05718775379092" lon="11.55432715911022"><ele>445.0</ele><time>2026-05-02T09:49:54.997Z</time></trkpt><trkpt lat="44.057218879228614" lon="11.554479994722824"><ele>445.0</ele><time>2026-05-02T09:49:55.997Z</time></trkpt><trkpt lat="44.057268796320685" lon="11.554605096526705"><ele>445.0</ele><time>2026-05-02T09:49:56.997Z</time></trkpt><trkpt lat="44.05735345368651" lon="11.55468132736976"><ele>445.0</ele><time>2026-05-02T09:49:57.997Z</time></trkpt><trkpt lat="44.057476800660375" lon="11.554738218794242"><ele>445.0</ele><time>2026-05-02T09:49:58.997Z</time></trkpt><trkpt lat="44.05763108099126" lon="11.554774360381675"><ele>445.0</ele><time>2026-05-02T09:49:59.997Z</time></trkpt><trkpt lat="44.05780063961774" lon="11.554809807156945"><ele>445.0</ele><time>2026-05-02T09:50:00.997Z</time></trkpt><trkpt lat="44.057979841494536" lon="11.554847261742287"><ele>445.0</ele><time>2026-05-02T09:50:01.997Z</time></trkpt><trkpt lat="44.058154860572294" lon="11.554888471787843"><ele>445.0</ele><time>2026-05-02T09:50:02.997Z</time></trkpt><trkpt lat="44.058314788129465" lon="11.554933856865265"><ele>445.0</ele><time>2026-05-02T09:50:03.997Z</time></trkpt><trkpt lat="44.058441642476495" lon="11.554975940741016"><ele>445.0</ele><time>2026-05-02T09:50:04.997Z</time></trkpt><trkpt lat="44.058548257263475" lon="11.55502542631511"><ele>445.0</ele><time>2026-05-02T09:50:05.997Z</time></trkpt><trkpt lat="44.058615692433754" lon="11.555127992417924"><ele>445.0</ele><time>2026-05-02T09:50:06.997Z</time></trkpt><trkpt lat="44.058665908011676" lon="11.555277709357625"><ele>444.5</ele><time>2026-05-02T09:50:07.997Z</time></trkpt><trkpt lat="44.05869337952081" lon="11.555467909093938"><ele>444.0</ele><time>2026-05-02T09:50:08.997Z</time></trkpt><trkpt lat="44.058730064394325" lon="11.55566293087764"><ele>443.5</ele><time>2026-05-02T09:50:09.997Z</time></trkpt><trkpt lat="44.05877845913778" lon="11.555840702982481"><ele>443.0</ele><time>2026-05-02T09:50:10.997Z</time></trkpt><trkpt lat="44.05885830586647" lon="11.555984872644245"><ele>443.0</ele><time>2026-05-02T09:50:11.997Z</time></trkpt><trkpt lat="44.05895765739393" lon="11.556113699359628"><ele>443.0</ele><time>2026-05-02T09:50:12.997Z</time></trkpt><trkpt lat="44.0590736467802" lon="11.556242581136155"><ele>443.0</ele><time>2026-05-02T09:50:13.997Z</time></trkpt><trkpt lat="44.05919840404611" lon="11.55637997615724"><ele>443.0</ele><time>2026-05-02T09:50:14.997Z</time></trkpt><trkpt lat="44.05932416062927" lon="11.556540924629427"><ele>442.0</ele><time>2026-05-02T09:50:15.997Z</time></trkpt><trkpt lat="44.059452700537435" lon="11.556708468054703"><ele>441.0</ele><time>2026-05-02T09:50:16.997Z</time></trkpt><trkpt lat="44.05958282993575" lon="11.556886687199206"><ele>440.0</ele><time>2026-05-02T09:50:17.997Z</time></trkpt><trkpt lat="44.059697760195775" lon="11.557040736301646"><ele>440.25</ele><time>2026-05-02T09:50:18.997Z</time></trkpt><trkpt lat="44.05979604943293" lon="11.557173112976681"><ele>440.5</ele><time>2026-05-02T09:50:19.997Z</time></trkpt><trkpt lat="44.05988989857398" lon="11.557283755429696"><ele>440.75</ele><time>2026-05-02T09:50:20.997Z</time></trkpt><trkpt lat="44.05999714589738" lon="11.557348349145725"><ele>441.0</ele><time>2026-05-02T09:50:21.997Z</time></trkpt><trkpt lat="44.060124814362226" lon="11.55736928698536"><ele>441.0</ele><time>2026-05-02T09:50:22.997Z</time></trkpt><trkpt lat="44.060281028285786" lon="11.557363240530869"><ele>441.0</ele><time>2026-05-02T09:50:23.997Z</time></trkpt><trkpt lat="44.06043228790571" lon="11.55737855942626"><ele>441.0</ele><time>2026-05-02T09:50:24.997Z</time></trkpt><trkpt lat="44.06057188130938" lon="11.557425268052379"><ele>441.0</ele><time>2026-05-02T09:50:25.997Z</time></trkpt><trkpt lat="44.0606892953477" lon="11.557521661851204"><ele>441.0</ele><time>2026-05-02T09:50:26.997Z</time></trkpt><trkpt lat="44.06079288616579" lon="11.557667409649984"><ele>441.0</ele><time>2026-05-02T09:50:27.997Z</time></trkpt><trkpt lat="44.06088563976498" lon="11.55785101998355"><ele>441.0</ele><time>2026-05-02T09:50:28.997Z</time></trkpt><trkpt lat="44.06099448620014" lon="11.558031995355122"><ele>438.66666666666663</ele><time>2026-05-02T09:50:29.997Z</time></trkpt><trkpt lat="44.06112564805709" lon="11.558187850112112"><ele>436.3333333333333</ele><time>2026-05-02T09:50:30.997Z</time></trkpt><trkpt lat="44.0612609344538" lon="11.558305894612825"><ele>434.0</ele><time>2026-05-02T09:50:31.997Z</time></trkpt><trkpt lat="44.06139147247585" lon="11.55840475017488"><ele>434.0</ele><time>2026-05-02T09:50:32.997Z</time></trkpt><trkpt lat="44.06149193336115" lon="11.558503372049824"><ele>434.0</ele><time>2026-05-02T09:50:33.997Z</time></trkpt><trkpt lat="44.06155248150478" lon="11.558613439569854"><ele>434.0</ele><time>2026-05-02T09:50:34.997Z</time></trkpt><trkpt lat="44.06155916683219" lon="11.558745464970066"><ele>434.0</ele><time>2026-05-02T09:50:35.997Z</time></trkpt><trkpt lat="44.06152958646302" lon="11.558891579243888"><ele>434.0</ele><time>2026-05-02T09:50:36.997Z</time></trkpt><trkpt lat="44.06145661356066" lon="11.559006183995875"><ele>432.75</ele><time>2026-05-02T09:50:37.997Z</time></trkpt><trkpt lat="44.06135888118252" lon="11.559101348061656"><ele>431.5</ele><time>2026-05-02T09:50:38.997Z</time></trkpt><trkpt lat="44.061293045577685" lon="11.55920869645077"><ele>430.25</ele><time>2026-05-02T09:50:39.997Z</time></trkpt><trkpt lat="44.06125231672871" lon="11.559372489346558"><ele>429.0</ele><time>2026-05-02T09:50:40.997Z</time></trkpt><trkpt lat="44.06123922218292" lon="11.559568941099641"><ele>428.5</ele><time>2026-05-02T09:50:41.997Z</time></trkpt><trkpt lat="44.06123466489573" lon="11.559785251468856"><ele>428.0</ele><time>2026-05-02T09:50:42.997Z</time></trkpt><trkpt lat="44.06123726418468" lon="11.559987066807395"><ele>427.5</ele><time>2026-05-02T09:50:43.997Z</time></trkpt><trkpt lat="44.061252509330814" lon="11.560174467915566"><ele>427.0</ele><time>2026-05-02T09:50:44.997Z</time></trkpt><trkpt lat="44.06129243105427" lon="11.560323263952075"><ele>426.6666666666667</ele><time>2026-05-02T09:50:45.997Z</time></trkpt><trkpt lat="44.06137181988208" lon="11.560476726749027"><ele>426.33333333333337</ele><time>2026-05-02T09:50:46.997Z</time></trkpt><trkpt lat="44.0614695108303" lon="11.560646521182523"><ele>426.0</ele><time>2026-05-02T09:50:47.997Z</time></trkpt><trkpt lat="44.06157366929342" lon="11.560822888171582"><ele>429.33333333333337</ele><time>2026-05-02T09:50:48.997Z</time></trkpt><trkpt lat="44.06164409417903" lon="11.561044261218553"><ele>432.6666666666667</ele><time>2026-05-02T09:50:49.997Z</time></trkpt><trkpt lat="44.06168797613518" lon="11.561296006804362"><ele>436.0</ele><time>2026-05-02T09:50:50.997Z</time></trkpt><trkpt lat="44.0617226552381" lon="11.561575485263466"><ele>436.0</ele><time>2026-05-02T09:50:51.997Z</time></trkpt><trkpt lat="44.06176125490809" lon="11.56186675877944"><ele>436.0</ele><time>2026-05-02T09:50:52.997Z</time></trkpt><trkpt lat="44.06180079427295" lon="11.562167000549055"><ele>436.0</ele><time>2026-05-02T09:50:53.997Z</time></trkpt><trkpt lat="44.06184324023617" lon="11.562461608542545"><ele>434.33333333333337</ele><time>2026-05-02T09:50:54.997Z</time></trkpt><trkpt lat="44.061883428540135" lon="11.562736861270883"><ele>432.66666666666663</ele><time>2026-05-02T09:50:55.997Z</time></trkpt><trkpt lat="44.06192015415786" lon="11.562996230622307"><ele>431.0</ele><time>2026-05-02T09:50:56.997Z</time></trkpt><trkpt lat="44.06195146402632" lon="11.563232797162895"><ele>430.75</ele><time>2026-05-02T09:50:57.997Z</time></trkpt><trkpt lat="44.06197877162883" lon="11.563448619662708"><ele>430.5</ele><time>2026-05-02T09:50:58.997Z</time></trkpt><trkpt lat="44.061999348886864" lon="11.563647102158228"><ele>430.25</ele><time>2026-05-02T09:50:59.997Z</time></trkpt><trkpt lat="44.06198347621858" lon="11.56381397231685"><ele>430.0</ele><time>2026-05-02T09:51:00.997Z</time></trkpt><trkpt lat="44.06198117181134" lon="11.56395982069168"><ele>430.25</ele><time>2026-05-02T09:51:01.997Z</time></trkpt><trkpt lat="44.061928138375336" lon="11.564089693085958"><ele>430.5</ele><time>2026-05-02T09:51:02.997Z</time></trkpt><trkpt lat="44.0618372519345" lon="11.564200940064602"><ele>430.75</ele><time>2026-05-02T09:51:03.996Z</time></trkpt><trkpt lat="44.06171952954788" lon="11.564262327923469"><ele>431.0</ele><time>2026-05-02T09:51:04.996Z</time></trkpt><trkpt lat="44.06159110988878" lon="11.564300201502817"><ele>431.0</ele><time>2026-05-02T09:51:05.996Z</time></trkpt><trkpt lat="44.06147144838695" lon="11.564350250117178"><ele>431.0</ele><time>2026-05-02T09:51:06.996Z</time></trkpt><trkpt lat="44.06137676049426" lon="11.564464434598333"><ele>431.0</ele><time>2026-05-02T09:51:07.996Z</time></trkpt><trkpt lat="44.061304041877825" lon="11.56461743446076"><ele>431.0</ele><time>2026-05-02T09:51:08.996Z</time></trkpt><trkpt lat="44.06126325080913" lon="11.56478665999042"><ele>429.25</ele><time>2026-05-02T09:51:09.996Z</time></trkpt><trkpt lat="44.06124854040766" lon="11.564977319698208"><ele>427.5</ele><time>2026-05-02T09:51:10.996Z</time></trkpt><trkpt lat="44.061268954342495" lon="11.56516548622926"><ele>425.75</ele><time>2026-05-02T09:51:11.996Z</time></trkpt><trkpt lat="44.06132206538187" lon="11.565347154007185"><ele>424.0</ele><time>2026-05-02T09:51:12.996Z</time></trkpt><trkpt lat="44.06139623889887" lon="11.565539794616377"><ele>423.33333333333337</ele><time>2026-05-02T09:51:13.996Z</time></trkpt><trkpt lat="44.061459274456126" lon="11.56574464392154"><ele>422.66666666666663</ele><time>2026-05-02T09:51:14.996Z</time></trkpt><trkpt lat="44.06150834423141" lon="11.565943392335544"><ele>422.0</ele><time>2026-05-02T09:51:15.996Z</time></trkpt><trkpt lat="44.061535869486335" lon="11.56614155511717"><ele>422.66666666666663</ele><time>2026-05-02T09:51:16.996Z</time></trkpt><trkpt lat="44.06152105491761" lon="11.566352207326398"><ele>423.33333333333337</ele><time>2026-05-02T09:51:17.996Z</time></trkpt><trkpt lat="44.06148331094752" lon="11.566572014213316"><ele>424.0</ele><time>2026-05-02T09:51:18.996Z</time></trkpt><trkpt lat="44.061439358064675" lon="11.566790081449117"><ele>424.0</ele><time>2026-05-02T09:51:19.996Z</time></trkpt><trkpt lat="44.06139666360325" lon="11.566994762342349"><ele>424.0</ele><time>2026-05-02T09:51:20.996Z</time></trkpt><trkpt lat="44.06143020301723" lon="11.567217943520514"><ele>424.0</ele><time>2026-05-02T09:51:21.996Z</time></trkpt><trkpt lat="44.06143905965969" lon="11.567457464913954"><ele>423.33333333333337</ele><time>2026-05-02T09:51:22.996Z</time></trkpt><trkpt lat="44.06145725603442" lon="11.567717215864995"><ele>422.66666666666663</ele><time>2026-05-02T09:51:23.996Z</time></trkpt><trkpt lat="44.06147425774517" lon="11.567972210651538"><ele>422.0</ele><time>2026-05-02T09:51:24.996Z</time></trkpt><trkpt lat="44.06149035650229" lon="11.568213662795765"><ele>420.0</ele><time>2026-05-02T09:51:25.996Z</time></trkpt><trkpt lat="44.06150448195607" lon="11.568458177357513"><ele>418.0</ele><time>2026-05-02T09:51:26.996Z</time></trkpt><trkpt lat="44.061498561457846" lon="11.56869352659911"><ele>416.0</ele><time>2026-05-02T09:51:27.996Z</time></trkpt><trkpt lat="44.06144089488488" lon="11.568902846803471"><ele>415.5</ele><time>2026-05-02T09:51:28.996Z</time></trkpt><trkpt lat="44.06139541736517" lon="11.569082157993227"><ele>415.0</ele><time>2026-05-02T09:51:29.996Z</time></trkpt><trkpt lat="44.06136132018396" lon="11.569227215972614"><ele>414.5</ele><time>2026-05-02T09:51:30.996Z</time></trkpt><trkpt lat="44.061269211461045" lon="11.569311417352537"><ele>414.0</ele><time>2026-05-02T09:51:31.996Z</time></trkpt><trkpt lat="44.061153645050084" lon="11.569395301092305"><ele>414.0</ele><time>2026-05-02T09:51:32.996Z</time></trkpt><trkpt lat="44.06105225909407" lon="11.56948537423408"><ele>414.0</ele><time>2026-05-02T09:51:33.996Z</time></trkpt><trkpt lat="44.06096247753666" lon="11.569579959279787"><ele>414.0</ele><time>2026-05-02T09:51:34.996Z</time></trkpt><trkpt lat="44.0609000884998" lon="11.569712605255596"><ele>414.0</ele><time>2026-05-02T09:51:35.996Z</time></trkpt><trkpt lat="44.06087251280226" lon="11.56989625115126"><ele>414.66666666666663</ele><time>2026-05-02T09:51:36.996Z</time></trkpt><trkpt lat="44.060842102738434" lon="11.570116775804832"><ele>415.3333333333333</ele><time>2026-05-02T09:51:37.996Z</time></trkpt><trkpt lat="44.060806257773855" lon="11.570354279573758"><ele>416.0</ele><time>2026-05-02T09:51:38.996Z</time></trkpt><trkpt lat="44.0607759391444" lon="11.570597419355567"><ele>415.3333333333333</ele><time>2026-05-02T09:51:39.996Z</time></trkpt><trkpt lat="44.060758718587635" lon="11.570831019083387"><ele>414.66666666666663</ele><time>2026-05-02T09:51:40.996Z</time></trkpt><trkpt lat="44.060759468489216" lon="11.571059213255232"><ele>414.0</ele><time>2026-05-02T09:51:41.996Z</time></trkpt><trkpt lat="44.060789232556886" lon="11.571281177446739"><ele>414.0</ele><time>2026-05-02T09:51:42.996Z</time></trkpt><trkpt lat="44.06084228238339" lon="11.571527210237816"><ele>414.0</ele><time>2026-05-02T09:51:43.996Z</time></trkpt><trkpt lat="44.06092723144143" lon="11.571770749888602"><ele>414.0</ele><time>2026-05-02T09:51:44.996Z</time></trkpt><trkpt lat="44.0610024640724" lon="11.572031089659667"><ele>412.0</ele><time>2026-05-02T09:51:45.996Z</time></trkpt><trkpt lat="44.06106107021522" lon="11.572318668179678"><ele>410.0</ele><time>2026-05-02T09:51:46.996Z</time></trkpt><trkpt lat="44.06111517401384" lon="11.572589968583902"><ele>408.0</ele><time>2026-05-02T09:51:47.996Z</time></trkpt><trkpt lat="44.06116130752697" lon="11.572843708311295"><ele>406.25</ele><time>2026-05-02T09:51:48.996Z</time></trkpt><trkpt lat="44.061199840841645" lon="11.573069058563878"><ele>404.5</ele><time>2026-05-02T09:51:49.996Z</time></trkpt><trkpt lat="44.06123018277684" lon="11.573260709310851"><ele>402.75</ele><time>2026-05-02T09:51:50.996Z</time></trkpt><trkpt lat="44.061254715557695" lon="11.573421637279754"><ele>401.0</ele><time>2026-05-02T09:51:51.996Z</time></trkpt><trkpt lat="44.06127673909167" lon="11.57355075056038"><ele>401.0</ele><time>2026-05-02T09:51:52.996Z</time></trkpt><trkpt lat="44.061324661693554" lon="11.573656704217482"><ele>401.0</ele><time>2026-05-02T09:51:53.996Z</time></trkpt><trkpt lat="44.061435547456384" lon="11.57365744991507"><ele>401.0</ele><time>2026-05-02T09:51:54.996Z</time></trkpt><trkpt lat="44.06153046772704" lon="11.573656926523746"><ele>401.0</ele><time>2026-05-02T09:51:55.996Z</time></trkpt><trkpt lat="44.06162240127672" lon="11.573718022784456"><ele>401.0</ele><time>2026-05-02T09:51:56.996Z</time></trkpt><trkpt lat="44.06166867902508" lon="11.573830906810928"><ele>400.4</ele><time>2026-05-02T09:51:57.996Z</time></trkpt><trkpt lat="44.06167892737779" lon="11.573943716831762"><ele>399.8</ele><time>2026-05-02T09:51:58.996Z</time></trkpt><trkpt lat="44.061664592813464" lon="11.574080705201348"><ele>399.2</ele><time>2026-05-02T09:51:59.996Z</time></trkpt><trkpt lat="44.06161047141324" lon="11.574220405028404"><ele>398.59999999999997</ele><time>2026-05-02T09:52:00.996Z</time></trkpt><trkpt lat="44.0615087804772" lon="11.574328970219772"><ele>398.0</ele><time>2026-05-02T09:52:01.996Z</time></trkpt><trkpt lat="44.06143463614687" lon="11.574477940205684"><ele>398.66666666666663</ele><time>2026-05-02T09:52:02.996Z</time></trkpt><trkpt lat="44.06141569568207" lon="11.574679932258173"><ele>399.33333333333337</ele><time>2026-05-02T09:52:03.996Z</time></trkpt><trkpt lat="44.061364786922674" lon="11.57489710725543"><ele>400.0</ele><time>2026-05-02T09:52:04.996Z</time></trkpt><trkpt lat="44.06130429853279" lon="11.575117950031096"><ele>400.0</ele><time>2026-05-02T09:52:05.996Z</time></trkpt><trkpt lat="44.06122712370461" lon="11.575343616574353"><ele>400.0</ele><time>2026-05-02T09:52:06.996Z</time></trkpt><trkpt lat="44.061157780354584" lon="11.575535498106603"><ele>400.0</ele><time>2026-05-02T09:52:07.996Z</time></trkpt><trkpt lat="44.06110520629302" lon="11.575701969771373"><ele>400.25</ele><time>2026-05-02T09:52:08.996Z</time></trkpt><trkpt lat="44.06104529668077" lon="11.57586689288138"><ele>400.5</ele><time>2026-05-02T09:52:09.996Z</time></trkpt><trkpt lat="44.061039650604556" lon="11.576073469701873"><ele>400.75</ele><time>2026-05-02T09:52:10.996Z</time></trkpt><trkpt lat="44.06103790904895" lon="11.576303516121154"><ele>401.0</ele><time>2026-05-02T09:52:11.996Z</time></trkpt><trkpt lat="44.061035782395365" lon="11.576554827762243"><ele>401.0</ele><time>2026-05-02T09:52:12.996Z</time></trkpt><trkpt lat="44.06103442853825" lon="11.576800189063372"><ele>401.0</ele><time>2026-05-02T09:52:13.996Z</time></trkpt><trkpt lat="44.061037219827" lon="11.577021887098999"><ele>401.0</ele><time>2026-05-02T09:52:14.996Z</time></trkpt><trkpt lat="44.06108294804169" lon="11.577252629831765"><ele>400.3333333333333</ele><time>2026-05-02T09:52:15.996Z</time></trkpt><trkpt lat="44.06113700762182" lon="11.577477680059006"><ele>399.66666666666663</ele><time>2026-05-02T09:52:16.996Z</time></trkpt><trkpt lat="44.061203782167276" lon="11.57768471136339"><ele>399.0</ele><time>2026-05-02T09:52:17.996Z</time></trkpt><trkpt lat="44.061270006658184" lon="11.577867721971993"><ele>399.0</ele><time>2026-05-02T09:52:18.996Z</time></trkpt><trkpt lat="44.06131809057662" lon="11.578029458766768"><ele>399.0</ele><time>2026-05-02T09:52:19.996Z</time></trkpt><trkpt lat="44.061342194991624" lon="11.578163519897592"><ele>399.0</ele><time>2026-05-02T09:52:20.996Z</time></trkpt><trkpt lat="44.0613324109982" lon="11.578290260715692"><ele>399.0</ele><time>2026-05-02T09:52:21.996Z</time></trkpt><trkpt lat="44.06128536207757" lon="11.578405820103812"><ele>399.0</ele><time>2026-05-02T09:52:22.996Z</time></trkpt><trkpt lat="44.06120200212331" lon="11.578512370868616"><ele>399.0</ele><time>2026-05-02T09:52:23.996Z</time></trkpt><trkpt lat="44.06112547347413" lon="11.578627179558833"><ele>399.0</ele><time>2026-05-02T09:52:24.996Z</time></trkpt><trkpt lat="44.06106904818393" lon="11.57875474494776"><ele>399.0</ele><time>2026-05-02T09:52:25.996Z</time></trkpt><trkpt lat="44.061048918392466" lon="11.578909684571235"><ele>399.0</ele><time>2026-05-02T09:52:26.996Z</time></trkpt><trkpt lat="44.06104700749713" lon="11.57909159024151"><ele>399.25</ele><time>2026-05-02T09:52:27.996Z</time></trkpt><trkpt lat="44.06105567251535" lon="11.579273212792263"><ele>399.5</ele><time>2026-05-02T09:52:28.996Z</time></trkpt><trkpt lat="44.06106879488094" lon="11.579447577237705"><ele>399.75</ele><time>2026-05-02T09:52:29.996Z</time></trkpt><trkpt lat="44.0611048265413" lon="11.57961801631245"><ele>400.0</ele><time>2026-05-02T09:52:30.996Z</time></trkpt><trkpt lat="44.06118193123102" lon="11.579774543089895"><ele>397.0</ele><time>2026-05-02T09:52:31.996Z</time></trkpt><trkpt lat="44.06126431285886" lon="11.579966229473328"><ele>394.0</ele><time>2026-05-02T09:52:32.996Z</time></trkpt><trkpt lat="44.06136026059222" lon="11.580170779781238"><ele>391.0</ele><time>2026-05-02T09:52:33.996Z</time></trkpt><trkpt lat="44.061437571082465" lon="11.580380110306669"><ele>390.0</ele><time>2026-05-02T09:52:34.996Z</time></trkpt><trkpt lat="44.061489320239765" lon="11.580609862572953"><ele>389.0</ele><time>2026-05-02T09:52:35.996Z</time></trkpt><trkpt lat="44.0615193274973" lon="11.58084450614332"><ele>388.0</ele><time>2026-05-02T09:52:36.996Z</time></trkpt><trkpt lat="44.061517076635035" lon="11.58108541149622"><ele>387.6666666666667</ele><time>2026-05-02T09:52:37.996Z</time></trkpt><trkpt lat="44.061501092803134" lon="11.581345924343234"><ele>387.33333333333337</ele><time>2026-05-02T09:52:38.996Z</time></trkpt><trkpt lat="44.06147934648097" lon="11.581613375330582"><ele>387.0</ele><time>2026-05-02T09:52:39.996Z</time></trkpt><trkpt lat="44.06145805977878" lon="11.58188702963022"><ele>385.6666666666667</ele><time>2026-05-02T09:52:40.996Z</time></trkpt><trkpt lat="44.061394948676565" lon="11.582143364290193"><ele>384.33333333333337</ele><time>2026-05-02T09:52:41.996Z</time></trkpt><trkpt lat="44.061321202620945" lon="11.582388330844287"><ele>383.0</ele><time>2026-05-02T09:52:42.996Z</time></trkpt><trkpt lat="44.06124377206302" lon="11.582615539340797"><ele>383.0</ele><time>2026-05-02T09:52:43.996Z</time></trkpt><trkpt lat="44.06115789273473" lon="11.582815547694413"><ele>383.0</ele><time>2026-05-02T09:52:44.996Z</time></trkpt><trkpt lat="44.061067568749294" lon="11.582992435603785"><ele>383.0</ele><time>2026-05-02T09:52:45.996Z</time></trkpt><trkpt lat="44.06095414646186" lon="11.583150797077392"><ele>382.33333333333337</ele><time>2026-05-02T09:52:46.996Z</time></trkpt><trkpt lat="44.06081732575322" lon="11.58329529751079"><ele>381.6666666666667</ele><time>2026-05-02T09:52:47.996Z</time></trkpt><trkpt lat="44.06066951248822" lon="11.583433228500606"><ele>381.0</ele><time>2026-05-02T09:52:48.996Z</time></trkpt><trkpt lat="44.06051898931545" lon="11.583575873063618"><ele>381.6666666666667</ele><time>2026-05-02T09:52:49.996Z</time></trkpt><trkpt lat="44.06036627532721" lon="11.58373064354958"><ele>382.33333333333337</ele><time>2026-05-02T09:52:50.996Z</time></trkpt><trkpt lat="44.06020802274252" lon="11.583888108451497"><ele>383.0</ele><time>2026-05-02T09:52:51.996Z</time></trkpt><trkpt lat="44.06005809455748" lon="11.58403591977978"><ele>382.33333333333337</ele><time>2026-05-02T09:52:52.996Z</time></trkpt><trkpt lat="44.059909304855715" lon="11.584178083405252"><ele>381.6666666666667</ele><time>2026-05-02T09:52:53.996Z</time></trkpt><trkpt lat="44.05977047963089" lon="11.584315134419773"><ele>381.0</ele><time>2026-05-02T09:52:54.996Z</time></trkpt><trkpt lat="44.059639390635915" lon="11.584455772480194"><ele>378.3333333333333</ele><time>2026-05-02T09:52:55.996Z</time></trkpt><trkpt lat="44.05952048385868" lon="11.584614257965548"><ele>375.66666666666663</ele><time>2026-05-02T09:52:56.996Z</time></trkpt><trkpt lat="44.05941502101574" lon="11.584795567893716"><ele>373.0</ele><time>2026-05-02T09:52:57.996Z</time></trkpt><trkpt lat="44.059336011261955" lon="11.584950184928687"><ele>373.0</ele><time>2026-05-02T09:52:58.996Z</time></trkpt><trkpt lat="44.05927952398204" lon="11.585094084903854"><ele>373.0</ele><time>2026-05-02T09:52:59.996Z</time></trkpt><trkpt lat="44.0592502005436" lon="11.585233731220075"><ele>373.0</ele><time>2026-05-02T09:53:00.996Z</time></trkpt><trkpt lat="44.05926452486791" lon="11.585360521090411"><ele>373.0</ele><time>2026-05-02T09:53:01.996Z</time></trkpt><trkpt lat="44.05932315960763" lon="11.585483145918715"><ele>373.0</ele><time>2026-05-02T09:53:02.996Z</time></trkpt><trkpt lat="44.05941563554452" lon="11.585596890533042"><ele>372.75</ele><time>2026-05-02T09:53:03.996Z</time></trkpt><trkpt lat="44.05953059517161" lon="11.585676294657064"><ele>372.5</ele><time>2026-05-02T09:53:04.996Z</time></trkpt><trkpt lat="44.05967169193377" lon="11.585694070655343"><ele>372.25</ele><time>2026-05-02T09:53:05.996Z</time></trkpt><trkpt lat="44.059829192536945" lon="11.585688522613085"><ele>372.0</ele><time>2026-05-02T09:53:06.996Z</time></trkpt><trkpt lat="44.0600065941241" lon="11.58567373558705"><ele>370.6666666666667</ele><time>2026-05-02T09:53:07.996Z</time></trkpt><trkpt lat="44.06018714347854" lon="11.585663989753112"><ele>369.33333333333337</ele><time>2026-05-02T09:53:08.996Z</time></trkpt><trkpt lat="44.060371806711885" lon="11.585657735022531"><ele>368.0</ele><time>2026-05-02T09:53:09.996Z</time></trkpt><trkpt lat="44.060568785493416" lon="11.585646009938394"><ele>368.0</ele><time>2026-05-02T09:53:10.996Z</time></trkpt><trkpt lat="44.06076452063145" lon="11.585633964039271"><ele>368.0</ele><time>2026-05-02T09:53:11.996Z</time></trkpt><trkpt lat="44.06094804180542" lon="11.585631298851474"><ele>368.0</ele><time>2026-05-02T09:53:12.996Z</time></trkpt><trkpt lat="44.061119477514815" lon="11.585635353037494"><ele>367.33333333333337</ele><time>2026-05-02T09:53:13.996Z</time></trkpt><trkpt lat="44.06129042325797" lon="11.585656314287856"><ele>366.6666666666667</ele><time>2026-05-02T09:53:14.996Z</time></trkpt><trkpt lat="44.06145149656248" lon="11.58572967149645"><ele>366.0</ele><time>2026-05-02T09:53:15.996Z</time></trkpt><trkpt lat="44.06160098665759" lon="11.585820592759505"><ele>366.0</ele><time>2026-05-02T09:53:16.996Z</time></trkpt><trkpt lat="44.06173192195606" lon="11.585919577082429"><ele>366.0</ele><time>2026-05-02T09:53:17.996Z</time></trkpt><trkpt lat="44.06183936684711" lon="11.586027065218675"><ele>366.0</ele><time>2026-05-02T09:53:18.996Z</time></trkpt><trkpt lat="44.061894036647686" lon="11.586175629795502"><ele>366.0</ele><time>2026-05-02T09:53:19.996Z</time></trkpt><trkpt lat="44.0619320716456" lon="11.586340562703713"><ele>366.0</ele><time>2026-05-02T09:53:20.996Z</time></trkpt><trkpt lat="44.06194757723933" lon="11.586533309585905"><ele>366.0</ele><time>2026-05-02T09:53:21.996Z</time></trkpt><trkpt lat="44.06193972485852" lon="11.586756530591405"><ele>366.0</ele><time>2026-05-02T09:53:22.996Z</time></trkpt><trkpt lat="44.061904459572446" lon="11.586974741264783"><ele>366.6666666666667</ele><time>2026-05-02T09:53:23.996Z</time></trkpt><trkpt lat="44.06185834682448" lon="11.587208326079633"><ele>367.33333333333337</ele><time>2026-05-02T09:53:24.996Z</time></trkpt><trkpt lat="44.0618104013925" lon="11.58745119435227"><ele>368.0</ele><time>2026-05-02T09:53:25.996Z</time></trkpt><trkpt lat="44.06175690513422" lon="11.587697663277787"><ele>368.0</ele><time>2026-05-02T09:53:26.996Z</time></trkpt><trkpt lat="44.06169343413064" lon="11.587959724303747"><ele>368.0</ele><time>2026-05-02T09:53:27.996Z</time></trkpt><trkpt lat="44.061635857029614" lon="11.58819796713349"><ele>368.0</ele><time>2026-05-02T09:53:28.996Z</time></trkpt><trkpt lat="44.06158214059344" lon="11.588427609463709"><ele>367.75</ele><time>2026-05-02T09:53:29.996Z</time></trkpt><trkpt lat="44.06153429077773" lon="11.588632171516846"><ele>367.5</ele><time>2026-05-02T09:53:30.996Z</time></trkpt><trkpt lat="44.06149327833567" lon="11.58880750318396"><ele>367.25</ele><time>2026-05-02T09:53:31.996Z</time></trkpt><trkpt lat="44.061461282682465" lon="11.588966856789032"><ele>367.0</ele><time>2026-05-02T09:53:32.996Z</time></trkpt><trkpt lat="44.06145064340052" lon="11.589115233321602"><ele>367.0</ele><time>2026-05-02T09:53:33.996Z</time></trkpt><trkpt lat="44.06148738339525" lon="11.589252613345392"><ele>367.0</ele><time>2026-05-02T09:53:34.996Z</time></trkpt><trkpt lat="44.06151432120842" lon="11.58938335896345"><ele>367.0</ele><time>2026-05-02T09:53:35.996Z</time></trkpt><trkpt lat="44.06154462764487" lon="11.5895153711257"><ele>367.0</ele><time>2026-05-02T09:53:36.996Z</time></trkpt><trkpt lat="44.06156781882815" lon="11.589643930654667"><ele>367.0</ele><time>2026-05-02T09:53:37.996Z</time></trkpt><trkpt lat="44.06165142576749" lon="11.589757325016764"><ele>365.25</ele><time>2026-05-02T09:53:38.996Z</time></trkpt><trkpt lat="44.06174026706916" lon="11.589871447772733"><ele>363.5</ele><time>2026-05-02T09:53:39.996Z</time></trkpt><trkpt lat="44.061843506911266" lon="11.589984503838817"><ele>361.75</ele><time>2026-05-02T09:53:40.996Z</time></trkpt><trkpt lat="44.061947312690826" lon="11.590103929381327"><ele>360.0</ele><time>2026-05-02T09:53:41.996Z</time></trkpt><trkpt lat="44.062066574386904" lon="11.590234223676736"><ele>359.6666666666667</ele><time>2026-05-02T09:53:42.996Z</time></trkpt><trkpt lat="44.06219729934012" lon="11.590363937702389"><ele>359.33333333333337</ele><time>2026-05-02T09:53:43.996Z</time></trkpt><trkpt lat="44.06232739272001" lon="11.590500185888025"><ele>359.0</ele><time>2026-05-02T09:53:44.996Z</time></trkpt><trkpt lat="44.06245695289569" lon="11.590650249498955"><ele>359.0</ele><time>2026-05-02T09:53:45.996Z</time></trkpt><trkpt lat="44.062586117601604" lon="11.590797167222508"><ele>359.0</ele><time>2026-05-02T09:53:46.996Z</time></trkpt><trkpt lat="44.06272357373946" lon="11.590944481967188"><ele>359.0</ele><time>2026-05-02T09:53:47.996Z</time></trkpt><trkpt lat="44.06285161579298" lon="11.591090137053682"><ele>358.0</ele><time>2026-05-02T09:53:48.996Z</time></trkpt><trkpt lat="44.062950064088525" lon="11.591246620204178"><ele>357.0</ele><time>2026-05-02T09:53:49.996Z</time></trkpt><trkpt lat="44.06303224271583" lon="11.591411481128443"><ele>356.0</ele><time>2026-05-02T09:53:50.996Z</time></trkpt><trkpt lat="44.063093357393946" lon="11.591599358477373"><ele>355.0</ele><time>2026-05-02T09:53:51.996Z</time></trkpt><trkpt lat="44.063144286116035" lon="11.591813252437445"><ele>356.66666666666663</ele><time>2026-05-02T09:53:52.996Z</time></trkpt><trkpt lat="44.06318513809054" lon="11.5920431424236"><ele>358.3333333333333</ele><time>2026-05-02T09:53:53.996Z</time></trkpt><trkpt lat="44.06322131616948" lon="11.592270715380655"><ele>360.0</ele><time>2026-05-02T09:53:54.996Z</time></trkpt><trkpt lat="44.06325488809922" lon="11.592511378795935"><ele>358.0</ele><time>2026-05-02T09:53:55.996Z</time></trkpt><trkpt lat="44.06328684302588" lon="11.592759838238793"><ele>356.0</ele><time>2026-05-02T09:53:56.996Z</time></trkpt><trkpt lat="44.06332168578727" lon="11.593027302521566"><ele>354.0</ele><time>2026-05-02T09:53:57.996Z</time></trkpt><trkpt lat="44.063356603746556" lon="11.593293146219596"><ele>353.0</ele><time>2026-05-02T09:53:58.996Z</time></trkpt><trkpt lat="44.06337877435156" lon="11.593531486423032"><ele>352.0</ele><time>2026-05-02T09:53:59.996Z</time></trkpt><trkpt lat="44.0633903363403" lon="11.593764450964066"><ele>351.0</ele><time>2026-05-02T09:54:00.996Z</time></trkpt><trkpt lat="44.06339559322727" lon="11.594019686537466"><ele>351.0</ele><time>2026-05-02T09:54:01.996Z</time></trkpt><trkpt lat="44.06340060435039" lon="11.594259540497273"><ele>351.0</ele><time>2026-05-02T09:54:02.996Z</time></trkpt><trkpt lat="44.06340949290891" lon="11.594494584141994"><ele>351.0</ele><time>2026-05-02T09:54:03.996Z</time></trkpt><trkpt lat="44.06342176495167" lon="11.594722651814408"><ele>349.6666666666667</ele><time>2026-05-02T09:54:04.996Z</time></trkpt><trkpt lat="44.06343955858969" lon="11.594955902160775"><ele>348.33333333333337</ele><time>2026-05-02T09:54:05.996Z</time></trkpt><trkpt lat="44.06346006707075" lon="11.595204485253687"><ele>347.0</ele><time>2026-05-02T09:54:06.996Z</time></trkpt><trkpt lat="44.063485924189244" lon="11.59545048191239"><ele>346.6666666666667</ele><time>2026-05-02T09:54:07.996Z</time></trkpt><trkpt lat="44.06352755951677" lon="11.595695418233673"><ele>346.3333333333333</ele><time>2026-05-02T09:54:08.996Z</time></trkpt><trkpt lat="44.063587383277316" lon="11.595936197611161"><ele>346.0</ele><time>2026-05-02T09:54:09.996Z</time></trkpt><trkpt lat="44.063659999963726" lon="11.596148038420786"><ele>346.0</ele><time>2026-05-02T09:54:10.996Z</time></trkpt><trkpt lat="44.063750454222216" lon="11.59633933657782"><ele>346.0</ele><time>2026-05-02T09:54:11.996Z</time></trkpt><trkpt lat="44.06388296271184" lon="11.596493363686552"><ele>346.0</ele><time>2026-05-02T09:54:12.996Z</time></trkpt><trkpt lat="44.06401737167301" lon="11.596657293305688"><ele>345.66666666666663</ele><time>2026-05-02T09:54:13.996Z</time></trkpt><trkpt lat="44.06417141755402" lon="11.596826138973324"><ele>345.3333333333333</ele><time>2026-05-02T09:54:14.996Z</time></trkpt><trkpt lat="44.06432298971378" lon="11.597002146947283"><ele>345.0</ele><time>2026-05-02T09:54:15.996Z</time></trkpt><trkpt lat="44.06446640140505" lon="11.597189647086529"><ele>345.0</ele><time>2026-05-02T09:54:16.996Z</time></trkpt><trkpt lat="44.06459558891329" lon="11.597381545204533"><ele>345.0</ele><time>2026-05-02T09:54:17.996Z</time></trkpt><trkpt lat="44.064705059590615" lon="11.597570872701793"><ele>345.0</ele><time>2026-05-02T09:54:18.996Z</time></trkpt><trkpt lat="44.06478758107584" lon="11.597774226451294"><ele>344.3333333333333</ele><time>2026-05-02T09:54:19.996Z</time></trkpt><trkpt lat="44.06484794673116" lon="11.597994774015834"><ele>343.66666666666663</ele><time>2026-05-02T09:54:20.996Z</time></trkpt><trkpt lat="44.06489040226222" lon="11.598235766664061"><ele>343.0</ele><time>2026-05-02T09:54:21.996Z</time></trkpt><trkpt lat="44.06492947035766" lon="11.598485318220781"><ele>343.3333333333333</ele><time>2026-05-02T09:54:22.996Z</time></trkpt><trkpt lat="44.06496404993883" lon="11.598720341515204"><ele>343.6666666666667</ele><time>2026-05-02T09:54:23.996Z</time></trkpt><trkpt lat="44.06500564777021" lon="11.598950445156413"><ele>344.0</ele><time>2026-05-02T09:54:24.996Z</time></trkpt><trkpt lat="44.06505300767807" lon="11.599177691627307"><ele>344.0</ele><time>2026-05-02T09:54:25.996Z</time></trkpt><trkpt lat="44.06509782357475" lon="11.599392731196115"><ele>344.0</ele><time>2026-05-02T09:54:26.996Z</time></trkpt><trkpt lat="44.06514313022647" lon="11.599599942734974"><ele>344.0</ele><time>2026-05-02T09:54:27.996Z</time></trkpt><trkpt lat="44.06518838793081" lon="11.599804366680354"><ele>342.6666666666667</ele><time>2026-05-02T09:54:28.996Z</time></trkpt><trkpt lat="44.06523723864229" lon="11.600025019836282"><ele>341.3333333333333</ele><time>2026-05-02T09:54:29.996Z</time></trkpt><trkpt lat="44.065282545308406" lon="11.600229664910525"><ele>340.0</ele><time>2026-05-02T09:54:30.996Z</time></trkpt><trkpt lat="44.06532280341016" lon="11.60041631367893"><ele>339.25</ele><time>2026-05-02T09:54:31.996Z</time></trkpt><trkpt lat="44.065352283056704" lon="11.600596066859804"><ele>338.5</ele><time>2026-05-02T09:54:32.996Z</time></trkpt><trkpt lat="44.065353673908454" lon="11.60077352051026"><ele>337.75</ele><time>2026-05-02T09:54:33.996Z</time></trkpt><trkpt lat="44.06533237548089" lon="11.600973370943922"><ele>337.0</ele><time>2026-05-02T09:54:34.996Z</time></trkpt><trkpt lat="44.06530982942461" lon="11.601183356505935"><ele>336.5</ele><time>2026-05-02T09:54:35.996Z</time></trkpt><trkpt lat="44.065295110372986" lon="11.60136655807967"><ele>336.0</ele><time>2026-05-02T09:54:36.996Z</time></trkpt><trkpt lat="44.06529576191312" lon="11.601515889574076"><ele>335.5</ele><time>2026-05-02T09:54:37.996Z</time></trkpt><trkpt lat="44.065318770253604" lon="11.60164439336015"><ele>335.0</ele><time>2026-05-02T09:54:38.996Z</time></trkpt><trkpt lat="44.065412817833355" lon="11.60174551669708"><ele>335.0</ele><time>2026-05-02T09:54:39.996Z</time></trkpt><trkpt lat="44.06550494265895" lon="11.601851136430612"><ele>335.0</ele><time>2026-05-02T09:54:40.996Z</time></trkpt><trkpt lat="44.06561680579529" lon="11.601951421855029"><ele>335.0</ele><time>2026-05-02T09:54:41.996Z</time></trkpt><trkpt lat="44.065725988483386" lon="11.602058471785117"><ele>335.0</ele><time>2026-05-02T09:54:42.996Z</time></trkpt><trkpt lat="44.06583372474217" lon="11.60217442575465"><ele>335.25</ele><time>2026-05-02T09:54:43.996Z</time></trkpt><trkpt lat="44.065950529329214" lon="11.602276918805575"><ele>335.5</ele><time>2026-05-02T09:54:44.996Z</time></trkpt><trkpt lat="44.066055901654615" lon="11.60240325403113"><ele>335.75</ele><time>2026-05-02T09:54:45.996Z</time></trkpt><trkpt lat="44.066164625854235" lon="11.602534201658985"><ele>336.0</ele><time>2026-05-02T09:54:46.996Z</time></trkpt><trkpt lat="44.06626690295442" lon="11.602654018999889"><ele>336.0</ele><time>2026-05-02T09:54:47.996Z</time></trkpt><trkpt lat="44.06636638331973" lon="11.602764594427802"><ele>336.0</ele><time>2026-05-02T09:54:48.996Z</time></trkpt><trkpt lat="44.06646329828567" lon="11.602875911092294"><ele>336.0</ele><time>2026-05-02T09:54:49.996Z</time></trkpt><trkpt lat="44.06656419867483" lon="11.602987905674183"><ele>336.0</ele><time>2026-05-02T09:54:50.996Z</time></trkpt><trkpt lat="44.06666921178794" lon="11.603101266477125"><ele>336.0</ele><time>2026-05-02T09:54:51.996Z</time></trkpt><trkpt lat="44.06675848858026" lon="11.603230865456041"><ele>336.0</ele><time>2026-05-02T09:54:52.996Z</time></trkpt><trkpt lat="44.06686542661779" lon="11.603345045176738"><ele>336.0</ele><time>2026-05-02T09:54:53.996Z</time></trkpt><trkpt lat="44.06697294285838" lon="11.603464710478534"><ele>336.0</ele><time>2026-05-02T09:54:54.996Z</time></trkpt><trkpt lat="44.067081241371284" lon="11.603593160367149"><ele>335.6666666666667</ele><time>2026-05-02T09:54:55.996Z</time></trkpt><trkpt lat="44.06719387233583" lon="11.603719234400991"><ele>335.33333333333337</ele><time>2026-05-02T09:54:56.996Z</time></trkpt><trkpt lat="44.06732482152619" lon="11.603843438231205"><ele>335.0</ele><time>2026-05-02T09:54:57.996Z</time></trkpt><trkpt lat="44.06745942263492" lon="11.603963339297316"><ele>335.0</ele><time>2026-05-02T09:54:58.996Z</time></trkpt><trkpt lat="44.06759393423052" lon="11.604082335327229"><ele>335.0</ele><time>2026-05-02T09:54:59.996Z</time></trkpt><trkpt lat="44.06773376590466" lon="11.604200784132319"><ele>335.0</ele><time>2026-05-02T09:55:00.996Z</time></trkpt><trkpt lat="44.06786088266436" lon="11.604309821726716"><ele>335.0</ele><time>2026-05-02T09:55:01.996Z</time></trkpt><trkpt lat="44.06798281714569" lon="11.6044132548164"><ele>335.0</ele><time>2026-05-02T09:55:02.996Z</time></trkpt><trkpt lat="44.068089277394826" lon="11.604515517325924"><ele>335.0</ele><time>2026-05-02T09:55:03.996Z</time></trkpt><trkpt lat="44.06819134878773" lon="11.604622179511635"><ele>335.0</ele><time>2026-05-02T09:55:04.996Z</time></trkpt><trkpt lat="44.068294470755376" lon="11.604726443541628"><ele>335.25</ele><time>2026-05-02T09:55:05.996Z</time></trkpt><trkpt lat="44.06840003568242" lon="11.604822534796208"><ele>335.5</ele><time>2026-05-02T09:55:06.996Z</time></trkpt><trkpt lat="44.06850955666001" lon="11.604922315016633"><ele>335.75</ele><time>2026-05-02T09:55:07.996Z</time></trkpt><trkpt lat="44.06864457957666" lon="11.605034769244442"><ele>336.0</ele><time>2026-05-02T09:55:08.996Z</time></trkpt><trkpt lat="44.0687950688944" lon="11.605164243187613"><ele>336.0</ele><time>2026-05-02T09:55:09.996Z</time></trkpt><trkpt lat="44.06895174989701" lon="11.605302596181872"><ele>336.0</ele><time>2026-05-02T09:55:10.996Z</time></trkpt><trkpt lat="44.069110275354795" lon="11.605458745551404"><ele>336.0</ele><time>2026-05-02T09:55:11.996Z</time></trkpt><trkpt lat="44.06927195529353" lon="11.605621480001584"><ele>336.0</ele><time>2026-05-02T09:55:12.996Z</time></trkpt><trkpt lat="44.06943174237089" lon="11.605775240597685"><ele>336.0</ele><time>2026-05-02T09:55:13.996Z</time></trkpt><trkpt lat="44.069598838594764" lon="11.60592551777706"><ele>336.0</ele><time>2026-05-02T09:55:14.996Z</time></trkpt><trkpt lat="44.06976491970272" lon="11.606071428607173"><ele>337.3333333333333</ele><time>2026-05-02T09:55:15.996Z</time></trkpt><trkpt lat="44.06993509635146" lon="11.606211570282108"><ele>338.66666666666663</ele><time>2026-05-02T09:55:16.995Z</time></trkpt><trkpt lat="44.07010363092191" lon="11.606347250280335"><ele>340.0</ele><time>2026-05-02T09:55:17.995Z</time></trkpt><trkpt lat="44.070268675741595" lon="11.606477099821795"><ele>340.0</ele><time>2026-05-02T09:55:18.995Z</time></trkpt><trkpt lat="44.07042739929488" lon="11.606610495109658"><ele>340.0</ele><time>2026-05-02T09:55:19.995Z</time></trkpt><trkpt lat="44.07058595265857" lon="11.60674818774988"><ele>340.0</ele><time>2026-05-02T09:55:20.995Z</time></trkpt><trkpt lat="44.07073390818902" lon="11.606901733943213"><ele>338.3333333333333</ele><time>2026-05-02T09:55:21.995Z</time></trkpt><trkpt lat="44.070879589453035" lon="11.607070161957816"><ele>336.6666666666667</ele><time>2026-05-02T09:55:22.995Z</time></trkpt><trkpt lat="44.071030502608" lon="11.607270491242009"><ele>335.0</ele><time>2026-05-02T09:55:23.995Z</time></trkpt><trkpt lat="44.071178268207206" lon="11.6074824859799"><ele>335.0</ele><time>2026-05-02T09:55:24.995Z</time></trkpt><trkpt lat="44.071326392307384" lon="11.60769681146842"><ele>335.0</ele><time>2026-05-02T09:55:25.995Z</time></trkpt><trkpt lat="44.071470114249415" lon="11.607905267296607"><ele>335.0</ele><time>2026-05-02T09:55:26.995Z</time></trkpt><trkpt lat="44.07161233158297" lon="11.608109038265084"><ele>333.33333333333337</ele><time>2026-05-02T09:55:27.995Z</time></trkpt><trkpt lat="44.07176725641968" lon="11.608295840484717"><ele>331.6666666666667</ele><time>2026-05-02T09:55:28.995Z</time></trkpt><trkpt lat="44.07192914878955" lon="11.60846419528803"><ele>330.0</ele><time>2026-05-02T09:55:29.995Z</time></trkpt><trkpt lat="44.07209172826346" lon="11.608614234520722"><ele>331.6666666666667</ele><time>2026-05-02T09:55:30.995Z</time></trkpt><trkpt lat="44.07224958419274" lon="11.60876111462116"><ele>333.33333333333337</ele><time>2026-05-02T09:55:31.995Z</time></trkpt><trkpt lat="44.072404146639535" lon="11.608891471386995"><ele>335.0</ele><time>2026-05-02T09:55:32.995Z</time></trkpt><trkpt lat="44.072559361192916" lon="11.609023536453828"><ele>335.0</ele><time>2026-05-02T09:55:33.995Z</time></trkpt><trkpt lat="44.07270900268252" lon="11.609159806903444"><ele>335.0</ele><time>2026-05-02T09:55:34.995Z</time></trkpt><trkpt lat="44.07285931656599" lon="11.60928995117267"><ele>335.0</ele><time>2026-05-02T09:55:35.995Z</time></trkpt><trkpt lat="44.073002401351495" lon="11.609419951779378"><ele>334.25</ele><time>2026-05-02T09:55:36.995Z</time></trkpt><trkpt lat="44.0731387009707" lon="11.609547452630382"><ele>333.5</ele><time>2026-05-02T09:55:37.995Z</time></trkpt><trkpt lat="44.07326407248039" lon="11.609664766874083"><ele>332.75</ele><time>2026-05-02T09:55:38.995Z</time></trkpt><trkpt lat="44.07336926786225" lon="11.60976854421862"><ele>332.0</ele><time>2026-05-02T09:55:39.995Z</time></trkpt><trkpt lat="44.07346616941558" lon="11.609863202919133"><ele>332.0</ele><time>2026-05-02T09:55:40.995Z</time></trkpt><trkpt lat="44.07355831409608" lon="11.609952767320513"><ele>332.0</ele><time>2026-05-02T09:55:41.995Z</time></trkpt><trkpt lat="44.073637101488345" lon="11.610075665421787"><ele>332.0</ele><time>2026-05-02T09:55:42.995Z</time></trkpt><trkpt lat="44.07374522534638" lon="11.610190508447163"><ele>332.0</ele><time>2026-05-02T09:55:43.995Z</time></trkpt><trkpt lat="44.07385688257232" lon="11.610303742549306"><ele>331.75</ele><time>2026-05-02T09:55:44.995Z</time></trkpt><trkpt lat="44.073951801321414" lon="11.6104272843216"><ele>331.5</ele><time>2026-05-02T09:55:45.995Z</time></trkpt><trkpt lat="44.07405026648097" lon="11.610536956309831"><ele>331.25</ele><time>2026-05-02T09:55:46.995Z</time></trkpt><trkpt lat="44.07413779050016" lon="11.61063298780712"><ele>331.0</ele><time>2026-05-02T09:55:47.995Z</time></trkpt><trkpt lat="44.07421702335263" lon="11.610719373913787"><ele>331.0</ele><time>2026-05-02T09:55:48.995Z</time></trkpt><trkpt lat="44.074293521545094" lon="11.610777693638898"><ele>331.0</ele><time>2026-05-02T09:55:49.995Z</time></trkpt><trkpt lat="44.07435416505585" lon="11.610857818149784"><ele>331.0</ele><time>2026-05-02T09:55:50.995Z</time></trkpt><trkpt lat="44.07442235470407" lon="11.610927591943017"><ele>331.0</ele><time>2026-05-02T09:55:51.995Z</time></trkpt><trkpt lat="44.07448647179136" lon="11.611000048851361"><ele>331.0</ele><time>2026-05-02T09:55:52.995Z</time></trkpt><trkpt lat="44.07455024515591" lon="11.61110155482043"><ele>331.0</ele><time>2026-05-02T09:55:53.995Z</time></trkpt><trkpt lat="44.07462164906804" lon="11.611167544495396"><ele>331.20000000000005</ele><time>2026-05-02T09:55:54.995Z</time></trkpt><trkpt lat="44.0746935815573" lon="11.611240079867617"><ele>331.40000000000003</ele><time>2026-05-02T09:55:55.995Z</time></trkpt><trkpt lat="44.07475219124027" lon="11.611305065427981"><ele>331.6</ele><time>2026-05-02T09:55:56.995Z</time></trkpt><trkpt lat="44.074835404347944" lon="11.611406889200733"><ele>331.8</ele><time>2026-05-02T09:55:58.995Z</time></trkpt><trkpt lat="44.07493658690332" lon="11.611516988927702"><ele>332.0</ele><time>2026-05-02T09:56:00.995Z</time></trkpt><trkpt lat="44.07498280417836" lon="11.611585127693523"><ele>332.0</ele><time>2026-05-02T09:56:01.995Z</time></trkpt><trkpt lat="44.075062983663585" lon="11.61159446171894"><ele>332.0</ele><time>2026-05-02T09:56:02.995Z</time></trkpt><trkpt lat="44.075148656935944" lon="11.611578230242309"><ele>332.0</ele><time>2026-05-02T09:56:03.995Z</time></trkpt><trkpt lat="44.07523552425699" lon="11.611568885082718"><ele>332.0</ele><time>2026-05-02T09:56:04.995Z</time></trkpt><trkpt lat="44.07533167105912" lon="11.611598130645937"><ele>332.0</ele><time>2026-05-02T09:56:05.995Z</time></trkpt><trkpt lat="44.07542923290886" lon="11.611652155935616"><ele>332.0</ele><time>2026-05-02T09:56:06.995Z</time></trkpt><trkpt lat="44.075511314804416" lon="11.611730830641312"><ele>332.0</ele><time>2026-05-02T09:56:07.995Z</time></trkpt><trkpt lat="44.075592787791464" lon="11.611850539978185"><ele>332.0</ele><time>2026-05-02T09:56:08.995Z</time></trkpt><trkpt lat="44.075663044575144" lon="11.611950634594033"><ele>332.0</ele><time>2026-05-02T09:56:09.995Z</time></trkpt><trkpt lat="44.07572389071951" lon="11.612046225552989"><ele>332.0</ele><time>2026-05-02T09:56:10.995Z</time></trkpt><trkpt lat="44.07579530054683" lon="11.612136995769651"><ele>331.0</ele><time>2026-05-02T09:56:11.995Z</time></trkpt><trkpt lat="44.075857454209" lon="11.61224116802025"><ele>330.0</ele><time>2026-05-02T09:56:12.995Z</time></trkpt><trkpt lat="44.075930057107584" lon="11.612325924968664"><ele>329.0</ele><time>2026-05-02T09:56:13.995Z</time></trkpt><trkpt lat="44.076001995556176" lon="11.612408218577604"><ele>328.0</ele><time>2026-05-02T09:56:14.995Z</time></trkpt><trkpt lat="44.07606744654542" lon="11.612493381271"><ele>327.0</ele><time>2026-05-02T09:56:15.995Z</time></trkpt><trkpt lat="44.0761283951879" lon="11.612581646170652"><ele>327.0</ele><time>2026-05-02T09:56:16.995Z</time></trkpt><trkpt lat="44.07619283232016" lon="11.612675048117115"><ele>327.0</ele><time>2026-05-02T09:56:17.995Z</time></trkpt><trkpt lat="44.076250913555" lon="11.612771991648362"><ele>327.0</ele><time>2026-05-02T09:56:18.995Z</time></trkpt><trkpt lat="44.0762952411655" lon="11.612866679641714"><ele>327.0</ele><time>2026-05-02T09:56:19.995Z</time></trkpt><trkpt lat="44.07632712588469" lon="11.61296306827084"><ele>327.0</ele><time>2026-05-02T09:56:20.995Z</time></trkpt><trkpt lat="44.07634740522881" lon="11.613059005696597"><ele>327.0</ele><time>2026-05-02T09:56:21.995Z</time></trkpt><trkpt lat="44.07635931109591" lon="11.613150432453004"><ele>327.0</ele><time>2026-05-02T09:56:22.995Z</time></trkpt><trkpt lat="44.07640291240454" lon="11.613293966313952"><ele>327.0</ele><time>2026-05-02T09:56:24.995Z</time></trkpt><trkpt lat="44.076442978862296" lon="11.613389497017653"><ele>327.0</ele><time>2026-05-02T09:56:26.986Z</time></trkpt><trkpt lat="44.07651614619091" lon="11.613461223019417"><ele>327.0</ele><time>2026-05-02T09:56:29.986Z</time></trkpt><trkpt lat="44.07659336156125" lon="11.613504057534561"><ele>327.0</ele><time>2026-05-02T09:56:30.986Z</time></trkpt><trkpt lat="44.076659312860684" lon="11.613528879033495"><ele>327.0</ele><time>2026-05-02T09:56:31.986Z</time></trkpt><trkpt lat="44.07676245082032" lon="11.613564401673925"><ele>326.1666666666667</ele><time>2026-05-02T09:56:33.986Z</time></trkpt><trkpt lat="44.07687024116349" lon="11.613585547174296"><ele>325.3333333333333</ele><time>2026-05-02T09:56:35.986Z</time></trkpt><trkpt lat="44.07693661106334" lon="11.613609051716928"><ele>324.5</ele><time>2026-05-02T09:56:36.986Z</time></trkpt><trkpt lat="44.07700946162374" lon="11.613634015744871"><ele>323.66666666666663</ele><time>2026-05-02T09:56:37.986Z</time></trkpt><trkpt lat="44.077084743700404" lon="11.613661789494943"><ele>322.8333333333333</ele><time>2026-05-02T09:56:38.986Z</time></trkpt><trkpt lat="44.07716744409301" lon="11.613702171966814"><ele>322.0</ele><time>2026-05-02T09:56:39.986Z</time></trkpt><trkpt lat="44.077258954262376" lon="11.613745740551495"><ele>322.0</ele><time>2026-05-02T09:56:40.986Z</time></trkpt><trkpt lat="44.07735454571787" lon="11.613779633552534"><ele>322.0</ele><time>2026-05-02T09:56:41.986Z</time></trkpt><trkpt lat="44.07743524026296" lon="11.6138470077898"><ele>322.0</ele><time>2026-05-02T09:56:42.986Z</time></trkpt><trkpt lat="44.07751264100948" lon="11.613875821276586"><ele>322.0</ele><time>2026-05-02T09:56:43.986Z</time></trkpt><trkpt lat="44.077589683675136" lon="11.613910540259015"><ele>322.0</ele><time>2026-05-02T09:56:44.986Z</time></trkpt><trkpt lat="44.07765903559264" lon="11.61396056206102"><ele>322.0</ele><time>2026-05-02T09:56:45.986Z</time></trkpt><trkpt lat="44.07771992424748" lon="11.614035927767292"><ele>321.0</ele><time>2026-05-02T09:56:46.986Z</time></trkpt><trkpt lat="44.077729023452676" lon="11.614163086455967"><ele>320.0</ele><time>2026-05-02T09:56:47.986Z</time></trkpt><trkpt lat="44.0777884313977" lon="11.61428046777984"><ele>319.0</ele><time>2026-05-02T09:56:48.986Z</time></trkpt><trkpt lat="44.07781667861873" lon="11.614416573917147"><ele>318.0</ele><time>2026-05-02T09:56:49.986Z</time></trkpt><trkpt lat="44.07784820757407" lon="11.614552550413176"><ele>317.0</ele><time>2026-05-02T09:56:50.986Z</time></trkpt><trkpt lat="44.07788415033296" lon="11.614689503157567"><ele>317.0</ele><time>2026-05-02T09:56:51.986Z</time></trkpt><trkpt lat="44.07789765884154" lon="11.614841636895548"><ele>317.0</ele><time>2026-05-02T09:56:52.986Z</time></trkpt><trkpt lat="44.0779509035446" lon="11.614970439104363"><ele>317.0</ele><time>2026-05-02T09:56:53.986Z</time></trkpt><trkpt lat="44.078005501474635" lon="11.615094236458875"><ele>317.0</ele><time>2026-05-02T09:56:54.986Z</time></trkpt><trkpt lat="44.078059295323946" lon="11.615222712664336"><ele>317.0</ele><time>2026-05-02T09:56:55.986Z</time></trkpt><trkpt lat="44.07811597439487" lon="11.615369324443062"><ele>316.4</ele><time>2026-05-02T09:56:56.986Z</time></trkpt><trkpt lat="44.078169514385095" lon="11.615517990434867"><ele>315.79999999999995</ele><time>2026-05-02T09:56:57.986Z</time></trkpt><trkpt lat="44.07821550984878" lon="11.615657420869848"><ele>315.2</ele><time>2026-05-02T09:56:58.986Z</time></trkpt><trkpt lat="44.07826210958055" lon="11.61578837794368"><ele>314.59999999999997</ele><time>2026-05-02T09:56:59.986Z</time></trkpt><trkpt lat="44.07829091972854" lon="11.615922379663834"><ele>314.0</ele><time>2026-05-02T09:57:00.986Z</time></trkpt><trkpt lat="44.078322839163896" lon="11.616063691241491"><ele>315.79999999999995</ele><time>2026-05-02T09:57:01.986Z</time></trkpt><trkpt lat="44.078360319853815" lon="11.616199728307933"><ele>317.59999999999997</ele><time>2026-05-02T09:57:02.986Z</time></trkpt><trkpt lat="44.07840306906012" lon="11.616329357360758"><ele>319.4</ele><time>2026-05-02T09:57:03.986Z</time></trkpt><trkpt lat="44.07845958101245" lon="11.616462233660103"><ele>321.2</ele><time>2026-05-02T09:57:04.986Z</time></trkpt><trkpt lat="44.07850073660437" lon="11.616582005361328"><ele>323.0</ele><time>2026-05-02T09:57:05.986Z</time></trkpt><trkpt lat="44.078554316859446" lon="11.616705518525492"><ele>323.0</ele><time>2026-05-02T09:57:06.986Z</time></trkpt><trkpt lat="44.07861650220512" lon="11.616831047721783"><ele>323.0</ele><time>2026-05-02T09:57:07.986Z</time></trkpt><trkpt lat="44.07867874659564" lon="11.61696664233947"><ele>323.0</ele><time>2026-05-02T09:57:08.986Z</time></trkpt><trkpt lat="44.07873901146342" lon="11.617096735584779"><ele>323.0</ele><time>2026-05-02T09:57:09.986Z</time></trkpt><trkpt lat="44.078798911527436" lon="11.61723089406724"><ele>323.0</ele><time>2026-05-02T09:57:10.986Z</time></trkpt><trkpt lat="44.07884832808862" lon="11.617376378897337"><ele>323.0</ele><time>2026-05-02T09:57:11.986Z</time></trkpt><trkpt lat="44.07890928761987" lon="11.617502152057721"><ele>323.0</ele><time>2026-05-02T09:57:12.986Z</time></trkpt><trkpt lat="44.07898370678937" lon="11.617605569009068"><ele>323.0</ele><time>2026-05-02T09:57:13.986Z</time></trkpt><trkpt lat="44.07901987629548" lon="11.617719143988513"><ele>323.0</ele><time>2026-05-02T09:57:14.986Z</time></trkpt><trkpt lat="44.07906767405194" lon="11.617810419805336"><ele>322.83333333333337</ele><time>2026-05-02T09:57:15.984Z</time></trkpt><trkpt lat="44.07911429966083" lon="11.617892796870214"><ele>322.6666666666667</ele><time>2026-05-02T09:57:16.985Z</time></trkpt><trkpt lat="44.07917136665083" lon="11.617970270876846"><ele>322.5</ele><time>2026-05-02T09:57:17.985Z</time></trkpt><trkpt lat="44.079224281563974" lon="11.618047389893539"><ele>322.3333333333333</ele><time>2026-05-02T09:57:18.985Z</time></trkpt><trkpt lat="44.079273871055015" lon="11.61810485133874"><ele>322.16666666666663</ele><time>2026-05-02T09:57:19.984Z</time></trkpt><trkpt lat="44.07936704779834" lon="11.61821297805078"><ele>322.0</ele><time>2026-05-02T09:57:21.984Z</time></trkpt><trkpt lat="44.079423102816676" lon="11.618273634265792"><ele>322.0</ele><time>2026-05-02T09:57:22.985Z</time></trkpt><trkpt lat="44.07948900663931" lon="11.618351998795244"><ele>322.0</ele><time>2026-05-02T09:57:23.985Z</time></trkpt><trkpt lat="44.079571418595464" lon="11.618436212334434"><ele>322.0</ele><time>2026-05-02T09:57:24.984Z</time></trkpt><trkpt lat="44.07965919761162" lon="11.618523069030232"><ele>322.0</ele><time>2026-05-02T09:57:25.984Z</time></trkpt><trkpt lat="44.07975328481406" lon="11.618614948358303"><ele>322.0</ele><time>2026-05-02T09:57:26.984Z</time></trkpt><trkpt lat="44.07986047874864" lon="11.61871574541076"><ele>322.5</ele><time>2026-05-02T09:57:27.984Z</time></trkpt><trkpt lat="44.079964150187216" lon="11.61882891196802"><ele>323.0</ele><time>2026-05-02T09:57:28.985Z</time></trkpt><trkpt lat="44.080079399815645" lon="11.61894697561946"><ele>323.5</ele><time>2026-05-02T09:57:29.985Z</time></trkpt><trkpt lat="44.080204654612054" lon="11.61907762533864"><ele>324.0</ele><time>2026-05-02T09:57:30.985Z</time></trkpt><trkpt lat="44.08033788379306" lon="11.619215253478888"><ele>324.0</ele><time>2026-05-02T09:57:31.985Z</time></trkpt><trkpt lat="44.08047506879893" lon="11.619350184170083"><ele>324.0</ele><time>2026-05-02T09:57:32.985Z</time></trkpt><trkpt lat="44.080614042858045" lon="11.619486716943614"><ele>324.0</ele><time>2026-05-02T09:57:33.985Z</time></trkpt><trkpt lat="44.0807535229491" lon="11.619612916953907"><ele>324.0</ele><time>2026-05-02T09:57:34.985Z</time></trkpt><trkpt lat="44.08088207238158" lon="11.619745795900387"><ele>324.0</ele><time>2026-05-02T09:57:35.985Z</time></trkpt><trkpt lat="44.08100903288991" lon="11.619879312671388"><ele>324.0</ele><time>2026-05-02T09:57:36.985Z</time></trkpt><trkpt lat="44.081130334143516" lon="11.62001435138116"><ele>324.0</ele><time>2026-05-02T09:57:37.985Z</time></trkpt><trkpt lat="44.081247772949425" lon="11.620158588328952"><ele>324.0</ele><time>2026-05-02T09:57:38.985Z</time></trkpt><trkpt lat="44.081361579431345" lon="11.620298364859984"><ele>324.0</ele><time>2026-05-02T09:57:39.985Z</time></trkpt><trkpt lat="44.08147315157182" lon="11.620437279282896"><ele>324.25</ele><time>2026-05-02T09:57:40.985Z</time></trkpt><trkpt lat="44.08158348683442" lon="11.62058037248042"><ele>324.5</ele><time>2026-05-02T09:57:41.985Z</time></trkpt><trkpt lat="44.0816903930218" lon="11.620714413208642"><ele>324.75</ele><time>2026-05-02T09:57:42.985Z</time></trkpt><trkpt lat="44.081791485979444" lon="11.620839156700605"><ele>325.0</ele><time>2026-05-02T09:57:43.985Z</time></trkpt><trkpt lat="44.081888612308575" lon="11.62095572618288"><ele>325.0</ele><time>2026-05-02T09:57:44.985Z</time></trkpt><trkpt lat="44.08198244548896" lon="11.6210737161805"><ele>325.0</ele><time>2026-05-02T09:57:45.985Z</time></trkpt><trkpt lat="44.082069699834044" lon="11.621181993207394"><ele>325.0</ele><time>2026-05-02T09:57:46.985Z</time></trkpt><trkpt lat="44.082159943494" lon="11.621287930872533"><ele>325.0</ele><time>2026-05-02T09:57:47.985Z</time></trkpt><trkpt lat="44.08222697853319" lon="11.621408539630544"><ele>325.2</ele><time>2026-05-02T09:57:48.985Z</time></trkpt><trkpt lat="44.08230501507434" lon="11.621517148340663"><ele>325.4</ele><time>2026-05-02T09:57:49.985Z</time></trkpt><trkpt lat="44.08238560616551" lon="11.621627300965107"><ele>325.6</ele><time>2026-05-02T09:57:50.985Z</time></trkpt><trkpt lat="44.082464052334174" lon="11.621726553850992"><ele>325.8</ele><time>2026-05-02T09:57:51.985Z</time></trkpt><trkpt lat="44.08253462702075" lon="11.621819597183906"><ele>326.0</ele><time>2026-05-02T09:57:52.985Z</time></trkpt><trkpt lat="44.08260069715067" lon="11.621914534023137"><ele>324.6666666666667</ele><time>2026-05-02T09:57:53.985Z</time></trkpt><trkpt lat="44.082649101435535" lon="11.622017962283527"><ele>323.33333333333337</ele><time>2026-05-02T09:57:54.985Z</time></trkpt><trkpt lat="44.08267662540813" lon="11.622132748952783"><ele>322.0</ele><time>2026-05-02T09:57:55.985Z</time></trkpt><trkpt lat="44.08268686054067" lon="11.622241992845453"><ele>320.6666666666667</ele><time>2026-05-02T09:57:56.985Z</time></trkpt><trkpt lat="44.082688922224904" lon="11.622357393481973"><ele>319.3333333333333</ele><time>2026-05-02T09:57:57.985Z</time></trkpt><trkpt lat="44.08268941331419" lon="11.622481889500717"><ele>318.0</ele><time>2026-05-02T09:57:58.985Z</time></trkpt><trkpt lat="44.08271500402726" lon="11.622622796522371"><ele>318.0</ele><time>2026-05-02T09:57:59.985Z</time></trkpt><trkpt lat="44.08275781083453" lon="11.622764558296769"><ele>318.0</ele><time>2026-05-02T09:58:00.985Z</time></trkpt><trkpt lat="44.08282056703089" lon="11.622914274206813"><ele>318.0</ele><time>2026-05-02T09:58:01.985Z</time></trkpt><trkpt lat="44.0828983830845" lon="11.62305572482755"><ele>318.0</ele><time>2026-05-02T09:58:02.985Z</time></trkpt><trkpt lat="44.08298641044077" lon="11.623201477064073"><ele>316.0</ele><time>2026-05-02T09:58:03.985Z</time></trkpt><trkpt lat="44.08307448557482" lon="11.623354844683705"><ele>314.0</ele><time>2026-05-02T09:58:04.985Z</time></trkpt><trkpt lat="44.08317142510151" lon="11.623517954839288"><ele>312.0</ele><time>2026-05-02T09:58:05.985Z</time></trkpt><trkpt lat="44.083271940421504" lon="11.623673930752094"><ele>310.0</ele><time>2026-05-02T09:58:06.985Z</time></trkpt><trkpt lat="44.083368423406164" lon="11.623821640045108"><ele>310.0</ele><time>2026-05-02T09:58:07.985Z</time></trkpt><trkpt lat="44.08346257089911" lon="11.623969373546897"><ele>310.0</ele><time>2026-05-02T09:58:08.985Z</time></trkpt><trkpt lat="44.08355653180771" lon="11.62412283292324"><ele>310.0</ele><time>2026-05-02T09:58:09.985Z</time></trkpt><trkpt lat="44.083654787140595" lon="11.624283783927408"><ele>310.0</ele><time>2026-05-02T09:58:10.984Z</time></trkpt><trkpt lat="44.0837522174315" lon="11.624445902472294"><ele>311.25</ele><time>2026-05-02T09:58:11.984Z</time></trkpt><trkpt lat="44.083845532904434" lon="11.624598498855645"><ele>312.5</ele><time>2026-05-02T09:58:12.984Z</time></trkpt><trkpt lat="44.08394483363782" lon="11.624755589250972"><ele>313.75</ele><time>2026-05-02T09:58:13.984Z</time></trkpt><trkpt lat="44.08404634617672" lon="11.624905968914398"><ele>315.0</ele><time>2026-05-02T09:58:14.984Z</time></trkpt><trkpt lat="44.08415970698346" lon="11.625050144312565"><ele>315.0</ele><time>2026-05-02T09:58:15.984Z</time></trkpt><trkpt lat="44.084287750695204" lon="11.62517869219105"><ele>315.0</ele><time>2026-05-02T09:58:16.984Z</time></trkpt><trkpt lat="44.084427010902566" lon="11.62529635518292"><ele>315.0</ele><time>2026-05-02T09:58:17.984Z</time></trkpt><trkpt lat="44.0845697269069" lon="11.625402778579245"><ele>314.25</ele><time>2026-05-02T09:58:18.984Z</time></trkpt><trkpt lat="44.08470523576138" lon="11.625498466211559"><ele>313.5</ele><time>2026-05-02T09:58:19.984Z</time></trkpt><trkpt lat="44.08482991766517" lon="11.625583007377754"><ele>312.75</ele><time>2026-05-02T09:58:20.984Z</time></trkpt><trkpt lat="44.08494417949287" lon="11.625660890256752"><ele>312.0</ele><time>2026-05-02T09:58:21.984Z</time></trkpt><trkpt lat="44.085049320453585" lon="11.625735301535352"><ele>312.0</ele><time>2026-05-02T09:58:22.984Z</time></trkpt><trkpt lat="44.085143919409184" lon="11.625822895603644"><ele>312.0</ele><time>2026-05-02T09:58:23.984Z</time></trkpt><trkpt lat="44.08524312774695" lon="11.625888002621364"><ele>312.0</ele><time>2026-05-02T09:58:24.984Z</time></trkpt><trkpt lat="44.08533100893785" lon="11.62594696967956"><ele>312.0</ele><time>2026-05-02T09:58:25.984Z</time></trkpt><trkpt lat="44.08540217076112" lon="11.625999145756282"><ele>312.0</ele><time>2026-05-02T09:58:26.984Z</time></trkpt><trkpt lat="44.08549653165057" lon="11.62608262279815"><ele>311.42857142857144</ele><time>2026-05-02T09:58:28.984Z</time></trkpt><trkpt lat="44.08552777590225" lon="11.62616765423719"><ele>310.85714285714283</ele><time>2026-05-02T09:58:30.984Z</time></trkpt><trkpt lat="44.085575317536986" lon="11.626228899506488"><ele>310.2857142857143</ele><time>2026-05-02T09:58:33.984Z</time></trkpt><trkpt lat="44.085637123805746" lon="11.626273957744788"><ele>309.7142857142857</ele><time>2026-05-02T09:58:36.984Z</time></trkpt><trkpt lat="44.08566312960738" lon="11.62637825610984"><ele>309.1428571428571</ele><time>2026-05-02T09:58:39.984Z</time></trkpt><trkpt lat="44.08570444566669" lon="11.62646796433934"><ele>308.57142857142856</ele><time>2026-05-02T09:58:43.984Z</time></trkpt><trkpt lat="44.085765315186784" lon="11.62651430255325"><ele>308.0</ele><time>2026-05-02T09:58:47.984Z</time></trkpt><trkpt lat="44.08583230591212" lon="11.626514569357264"><ele>308.0</ele><time>2026-05-02T09:58:50.984Z</time></trkpt><trkpt lat="44.08583326691842" lon="11.626411179789285"><ele>308.0</ele><time>2026-05-02T10:01:17.982Z</time></trkpt><trkpt lat="44.085883431325705" lon="11.626338931150636"><ele>308.0</ele><time>2026-05-02T10:01:20.982Z</time></trkpt><trkpt lat="44.085977173314" lon="11.62642953902655"><ele>308.0</ele><time>2026-05-02T10:01:22.982Z</time></trkpt><trkpt lat="44.08605570331574" lon="11.626470515712786"><ele>308.0</ele><time>2026-05-02T10:01:23.982Z</time></trkpt><trkpt lat="44.086140171175494" lon="11.626532946982348"><ele>308.0</ele><time>2026-05-02T10:01:24.982Z</time></trkpt><trkpt lat="44.08623610490639" lon="11.626602903760515"><ele>308.0</ele><time>2026-05-02T10:01:25.982Z</time></trkpt><trkpt lat="44.08633815593507" lon="11.626680969796118"><ele>308.0</ele><time>2026-05-02T10:01:26.982Z</time></trkpt><trkpt lat="44.08644888819237" lon="11.626759329197794"><ele>308.0</ele><time>2026-05-02T10:01:27.981Z</time></trkpt><trkpt lat="44.086557131867615" lon="11.626835625453754"><ele>308.0</ele><time>2026-05-02T10:01:28.98Z</time></trkpt><trkpt lat="44.08666651140136" lon="11.626911265525901"><ele>306.5</ele><time>2026-05-02T10:01:29.98Z</time></trkpt><trkpt lat="44.086772674169396" lon="11.626986583157674"><ele>305.0</ele><time>2026-05-02T10:01:30.981Z</time></trkpt><trkpt lat="44.08687886672556" lon="11.627059800624204"><ele>303.5</ele><time>2026-05-02T10:01:31.98Z</time></trkpt><trkpt lat="44.08698761397122" lon="11.627146271757233"><ele>302.0</ele><time>2026-05-02T10:01:32.98Z</time></trkpt><trkpt lat="44.08709565486776" lon="11.627242778020383"><ele>302.0</ele><time>2026-05-02T10:01:33.981Z</time></trkpt><trkpt lat="44.087200326946245" lon="11.627352704135124"><ele>302.0</ele><time>2026-05-02T10:01:34.981Z</time></trkpt><trkpt lat="44.08729878003387" lon="11.627476866678874"><ele>302.0</ele><time>2026-05-02T10:01:35.981Z</time></trkpt><trkpt lat="44.08740080573124" lon="11.627602544110438"><ele>302.0</ele><time>2026-05-02T10:01:36.981Z</time></trkpt><trkpt lat="44.087500239931074" lon="11.627724748212742"><ele>302.25</ele><time>2026-05-02T10:01:37.981Z</time></trkpt><trkpt lat="44.0875935312801" lon="11.627847040141196"><ele>302.5</ele><time>2026-05-02T10:01:38.981Z</time></trkpt><trkpt lat="44.087685035854264" lon="11.627969925045866"><ele>302.75</ele><time>2026-05-02T10:01:39.98Z</time></trkpt><trkpt lat="44.0877667445355" lon="11.628108036446227"><ele>303.0</ele><time>2026-05-02T10:01:40.981Z</time></trkpt><trkpt lat="44.087845552143115" lon="11.628259675341"><ele>303.0</ele><time>2026-05-02T10:01:41.981Z</time></trkpt><trkpt lat="44.087894623753606" lon="11.628412093249528"><ele>303.0</ele><time>2026-05-02T10:01:42.981Z</time></trkpt><trkpt lat="44.08794880941975" lon="11.628547493653423"><ele>303.0</ele><time>2026-05-02T10:01:43.981Z</time></trkpt><trkpt lat="44.08800454068637" lon="11.628684455613072"><ele>303.0</ele><time>2026-05-02T10:01:44.981Z</time></trkpt><trkpt lat="44.0880620553743" lon="11.628828264986748"><ele>303.0</ele><time>2026-05-02T10:01:45.981Z</time></trkpt><trkpt lat="44.08811466811263" lon="11.62895981752642"><ele>303.0</ele><time>2026-05-02T10:01:46.981Z</time></trkpt><trkpt lat="44.08817826318565" lon="11.629070665942788"><ele>303.0</ele><time>2026-05-02T10:01:47.98Z</time></trkpt><trkpt lat="44.088226358902595" lon="11.629180268449735"><ele>303.0</ele><time>2026-05-02T10:01:48.98Z</time></trkpt><trkpt lat="44.08826929312857" lon="11.62928010978842"><ele>303.0</ele><time>2026-05-02T10:01:49.98Z</time></trkpt><trkpt lat="44.08831062141801" lon="11.629350703517416"><ele>301.2</ele><time>2026-05-02T10:01:50.98Z</time></trkpt><trkpt lat="44.088397126186024" lon="11.629488067381955"><ele>299.4</ele><time>2026-05-02T10:01:52.98Z</time></trkpt><trkpt lat="44.08843762181606" lon="11.629583076948109"><ele>297.59999999999997</ele><time>2026-05-02T10:01:53.98Z</time></trkpt><trkpt lat="44.08846321312795" lon="11.629693375288172"><ele>295.8</ele><time>2026-05-02T10:01:54.98Z</time></trkpt><trkpt lat="44.088493394168964" lon="11.629817307960547"><ele>294.0</ele><time>2026-05-02T10:01:55.98Z</time></trkpt><trkpt lat="44.088517078069536" lon="11.62996023898938"><ele>294.0</ele><time>2026-05-02T10:01:56.98Z</time></trkpt><trkpt lat="44.088532103636744" lon="11.63012424143909"><ele>294.0</ele><time>2026-05-02T10:01:57.98Z</time></trkpt><trkpt lat="44.08851797653997" lon="11.63031071957578"><ele>294.0</ele><time>2026-05-02T10:01:58.98Z</time></trkpt><trkpt lat="44.08850600101891" lon="11.630510838178703"><ele>294.0</ele><time>2026-05-02T10:01:59.98Z</time></trkpt><trkpt lat="44.088481156757695" lon="11.630720925104633"><ele>293.25</ele><time>2026-05-02T10:02:00.98Z</time></trkpt><trkpt lat="44.088452343150784" lon="11.63093538621306"><ele>292.5</ele><time>2026-05-02T10:02:01.98Z</time></trkpt><trkpt lat="44.08843709845112" lon="11.631148163409916"><ele>291.75</ele><time>2026-05-02T10:02:02.98Z</time></trkpt><trkpt lat="44.08841309758445" lon="11.631331306140252"><ele>291.0</ele><time>2026-05-02T10:02:03.98Z</time></trkpt><trkpt lat="44.08840546270448" lon="11.631514062615459"><ele>290.3333333333333</ele><time>2026-05-02T10:02:04.98Z</time></trkpt><trkpt lat="44.08842719357754" lon="11.63170067032374"><ele>289.66666666666663</ele><time>2026-05-02T10:02:05.98Z</time></trkpt><trkpt lat="44.088466696788" lon="11.631901079332833"><ele>289.0</ele><time>2026-05-02T10:02:06.98Z</time></trkpt><trkpt lat="44.08853023657068" lon="11.63211430846442"><ele>289.0</ele><time>2026-05-02T10:02:07.98Z</time></trkpt><trkpt lat="44.08861355482495" lon="11.632327153544534"><ele>289.0</ele><time>2026-05-02T10:02:08.98Z</time></trkpt><trkpt lat="44.088704237490504" lon="11.632544250264603"><ele>289.0</ele><time>2026-05-02T10:02:09.98Z</time></trkpt><trkpt lat="44.08879345201721" lon="11.632777447058999"><ele>288.0</ele><time>2026-05-02T10:02:10.98Z</time></trkpt><trkpt lat="44.088878238237356" lon="11.633001469358971"><ele>287.0</ele><time>2026-05-02T10:02:11.98Z</time></trkpt><trkpt lat="44.088967055825854" lon="11.63322973546601"><ele>286.0</ele><time>2026-05-02T10:02:12.98Z</time></trkpt><trkpt lat="44.08905178913876" lon="11.6334523082076"><ele>287.0</ele><time>2026-05-02T10:02:13.98Z</time></trkpt><trkpt lat="44.089139534406506" lon="11.633655514144888"><ele>288.0</ele><time>2026-05-02T10:02:14.98Z</time></trkpt><trkpt lat="44.08921695284263" lon="11.63385676576115"><ele>289.0</ele><time>2026-05-02T10:02:15.98Z</time></trkpt><trkpt lat="44.089316211770345" lon="11.634035093036806"><ele>289.0</ele><time>2026-05-02T10:02:16.98Z</time></trkpt><trkpt lat="44.08943729748814" lon="11.634195671168035"><ele>289.0</ele><time>2026-05-02T10:02:17.98Z</time></trkpt><trkpt lat="44.08957527894623" lon="11.634344220382745"><ele>289.0</ele><time>2026-05-02T10:02:18.98Z</time></trkpt><trkpt lat="44.089736908446255" lon="11.634496607651439"><ele>288.0</ele><time>2026-05-02T10:02:19.98Z</time></trkpt><trkpt lat="44.08992836283706" lon="11.634655671688028"><ele>287.0</ele><time>2026-05-02T10:02:20.98Z</time></trkpt><trkpt lat="44.090135504654135" lon="11.634848340702312"><ele>287.0</ele><time>2026-05-02T10:02:21.98Z</time></trkpt><trkpt lat="44.09036239868609" lon="11.635046314375495"><ele>287.0</ele><time>2026-05-02T10:02:22.98Z</time></trkpt><trkpt lat="44.090606042176205" lon="11.635250445772256"><ele>287.0</ele><time>2026-05-02T10:02:23.98Z</time></trkpt><trkpt lat="44.090836811145905" lon="11.635433534427616"><ele>287.0</ele><time>2026-05-02T10:02:24.98Z</time></trkpt><trkpt lat="44.09106159120686" lon="11.635604523802987"><ele>287.0</ele><time>2026-05-02T10:02:25.98Z</time></trkpt><trkpt lat="44.09127842909674" lon="11.63576523882311"><ele>287.0</ele><time>2026-05-02T10:02:26.98Z</time></trkpt><trkpt lat="44.09147602303687" lon="11.635923643983922"><ele>286.33333333333337</ele><time>2026-05-02T10:02:27.98Z</time></trkpt><trkpt lat="44.09166248699644" lon="11.63606891152743"><ele>285.6666666666667</ele><time>2026-05-02T10:02:28.98Z</time></trkpt><trkpt lat="44.09181614386867" lon="11.636212265829633"><ele>285.0</ele><time>2026-05-02T10:02:29.98Z</time></trkpt><trkpt lat="44.09195570364795" lon="11.636361204734488"><ele>285.0</ele><time>2026-05-02T10:02:30.98Z</time></trkpt><trkpt lat="44.09207973559985" lon="11.636509417931354"><ele>285.0</ele><time>2026-05-02T10:02:31.98Z</time></trkpt><trkpt lat="44.092194398057906" lon="11.636648322534583"><ele>285.0</ele><time>2026-05-02T10:02:32.98Z</time></trkpt><trkpt lat="44.09230811107349" lon="11.636778024789997"><ele>285.0</ele><time>2026-05-02T10:02:33.98Z</time></trkpt><trkpt lat="44.09240995028021" lon="11.636935478422185"><ele>285.0</ele><time>2026-05-02T10:02:34.98Z</time></trkpt><trkpt lat="44.09251294417819" lon="11.637064442707485"><ele>285.0</ele><time>2026-05-02T10:02:35.98Z</time></trkpt><trkpt lat="44.092626847725974" lon="11.637177494770066"><ele>285.0</ele><time>2026-05-02T10:02:36.98Z</time></trkpt><trkpt lat="44.09272765137717" lon="11.63731032219349"><ele>283.3333333333333</ele><time>2026-05-02T10:02:37.98Z</time></trkpt><trkpt lat="44.092841187815694" lon="11.637446921260835"><ele>281.66666666666663</ele><time>2026-05-02T10:02:38.98Z</time></trkpt><trkpt lat="44.09296920236975" lon="11.637585698370616"><ele>280.0</ele><time>2026-05-02T10:02:39.98Z</time></trkpt><trkpt lat="44.0931113986873" lon="11.637718527653023"><ele>278.3333333333333</ele><time>2026-05-02T10:02:40.98Z</time></trkpt><trkpt lat="44.09326688238364" lon="11.637845755102546"><ele>276.6666666666667</ele><time>2026-05-02T10:02:41.98Z</time></trkpt><trkpt lat="44.0934231799619" lon="11.637968509732216"><ele>275.0</ele><time>2026-05-02T10:02:42.98Z</time></trkpt><trkpt lat="44.09358772927502" lon="11.63808243235806"><ele>275.0</ele><time>2026-05-02T10:02:43.98Z</time></trkpt><trkpt lat="44.09376030888562" lon="11.63817886020589"><ele>275.0</ele><time>2026-05-02T10:02:44.98Z</time></trkpt><trkpt lat="44.093926277551894" lon="11.638263346075917"><ele>275.0</ele><time>2026-05-02T10:02:45.98Z</time></trkpt><trkpt lat="44.09407271118308" lon="11.638355145754685"><ele>275.6666666666667</ele><time>2026-05-02T10:02:46.98Z</time></trkpt><trkpt lat="44.09419405210915" lon="11.63846964440179"><ele>276.3333333333333</ele><time>2026-05-02T10:02:47.98Z</time></trkpt><trkpt lat="44.09428709837965" lon="11.638623488687672"><ele>277.0</ele><time>2026-05-02T10:02:48.98Z</time></trkpt><trkpt lat="44.09435392664618" lon="11.638833693269126"><ele>278.0</ele><time>2026-05-02T10:02:49.98Z</time></trkpt><trkpt lat="44.094409598221986" lon="11.639068800441828"><ele>279.0</ele><time>2026-05-02T10:02:50.98Z</time></trkpt><trkpt lat="44.09446230991279" lon="11.639285608155719"><ele>280.0</ele><time>2026-05-02T10:02:51.98Z</time></trkpt><trkpt lat="44.09452031719466" lon="11.63948567068409"><ele>280.0</ele><time>2026-05-02T10:02:52.98Z</time></trkpt><trkpt lat="44.094578433432055" lon="11.639678923281227"><ele>280.0</ele><time>2026-05-02T10:02:53.98Z</time></trkpt><trkpt lat="44.09464453694283" lon="11.63986304250291"><ele>280.0</ele><time>2026-05-02T10:02:54.98Z</time></trkpt><trkpt lat="44.09471624667756" lon="11.640047456564862"><ele>280.0</ele><time>2026-05-02T10:02:55.98Z</time></trkpt><trkpt lat="44.09478696948459" lon="11.640224411823382"><ele>280.0</ele><time>2026-05-02T10:02:56.98Z</time></trkpt><trkpt lat="44.094859586734685" lon="11.640392750509404"><ele>280.0</ele><time>2026-05-02T10:02:57.98Z</time></trkpt><trkpt lat="44.09492268724876" lon="11.640576388973727"><ele>280.0</ele><time>2026-05-02T10:02:58.98Z</time></trkpt><trkpt lat="44.095007879244456" lon="11.640743982921837"><ele>280.0</ele><time>2026-05-02T10:02:59.98Z</time></trkpt><trkpt lat="44.09507443036209" lon="11.640915995288097"><ele>280.0</ele><time>2026-05-02T10:03:00.98Z</time></trkpt><trkpt lat="44.09515002851272" lon="11.641094572284532"><ele>280.0</ele><time>2026-05-02T10:03:01.98Z</time></trkpt><trkpt lat="44.095236340766135" lon="11.641292067883315"><ele>280.0</ele><time>2026-05-02T10:03:02.98Z</time></trkpt><trkpt lat="44.09532264164248" lon="11.641502233749483"><ele>280.3333333333333</ele><time>2026-05-02T10:03:03.98Z</time></trkpt><trkpt lat="44.09541517418281" lon="11.641729651816329"><ele>280.6666666666667</ele><time>2026-05-02T10:03:04.98Z</time></trkpt><trkpt lat="44.09550796997137" lon="11.641958433365089"><ele>281.0</ele><time>2026-05-02T10:03:05.98Z</time></trkpt><trkpt lat="44.09560489889857" lon="11.642197335428529"><ele>281.33333333333337</ele><time>2026-05-02T10:03:06.98Z</time></trkpt><trkpt lat="44.09571022515679" lon="11.642441828790774"><ele>281.6666666666667</ele><time>2026-05-02T10:03:07.98Z</time></trkpt><trkpt lat="44.09582543723804" lon="11.642711360514378"><ele>282.0</ele><time>2026-05-02T10:03:08.98Z</time></trkpt><trkpt lat="44.09594813075961" lon="11.642990616259441"><ele>280.0</ele><time>2026-05-02T10:03:09.98Z</time></trkpt><trkpt lat="44.096051118824505" lon="11.64327426758024"><ele>278.0</ele><time>2026-05-02T10:03:10.98Z</time></trkpt><trkpt lat="44.09616858665399" lon="11.643549154377007"><ele>278.0</ele><time>2026-05-02T10:03:11.98Z</time></trkpt><trkpt lat="44.09627760075295" lon="11.64380964728941"><ele>278.0</ele><time>2026-05-02T10:03:12.98Z</time></trkpt><trkpt lat="44.096379568154305" lon="11.644055557764583"><ele>278.0</ele><time>2026-05-02T10:03:13.98Z</time></trkpt><trkpt lat="44.09647208797554" lon="11.644302319081676"><ele>277.6666666666667</ele><time>2026-05-02T10:03:14.98Z</time></trkpt><trkpt lat="44.09654238804208" lon="11.644544475867962"><ele>277.3333333333333</ele><time>2026-05-02T10:03:15.98Z</time></trkpt><trkpt lat="44.096602985216805" lon="11.644783074260832"><ele>277.0</ele><time>2026-05-02T10:03:16.98Z</time></trkpt><trkpt lat="44.096657424378996" lon="11.645011588128897"><ele>277.0</ele><time>2026-05-02T10:03:17.98Z</time></trkpt><trkpt lat="44.09672508671121" lon="11.645236082462933"><ele>277.0</ele><time>2026-05-02T10:03:18.98Z</time></trkpt><trkpt lat="44.09681343609628" lon="11.64545245136771"><ele>277.0</ele><time>2026-05-02T10:03:19.98Z</time></trkpt><trkpt lat="44.09692770105215" lon="11.645667077754206"><ele>278.5</ele><time>2026-05-02T10:03:20.98Z</time></trkpt><trkpt lat="44.09708736527103" lon="11.645898876482969"><ele>280.0</ele><time>2026-05-02T10:03:21.98Z</time></trkpt><trkpt lat="44.09724182503843" lon="11.646146365231976"><ele>280.5</ele><time>2026-05-02T10:03:22.98Z</time></trkpt><trkpt lat="44.097411476387606" lon="11.64638895525037"><ele>281.0</ele><time>2026-05-02T10:03:23.98Z</time></trkpt><trkpt lat="44.097563710912866" lon="11.646617576084815"><ele>281.33333333333337</ele><time>2026-05-02T10:03:24.98Z</time></trkpt><trkpt lat="44.09769886134651" lon="11.646828829824587"><ele>281.6666666666667</ele><time>2026-05-02T10:03:25.98Z</time></trkpt><trkpt lat="44.097823205192995" lon="11.647013757146297"><ele>282.0</ele><time>2026-05-02T10:03:26.98Z</time></trkpt><trkpt lat="44.09793854604125" lon="11.647190197502976"><ele>282.0</ele><time>2026-05-02T10:03:27.98Z</time></trkpt><trkpt lat="44.09803735850272" lon="11.647363709558308"><ele>282.0</ele><time>2026-05-02T10:03:28.98Z</time></trkpt><trkpt lat="44.0981150158495" lon="11.647544713275988"><ele>282.0</ele><time>2026-05-02T10:03:29.98Z</time></trkpt><trkpt lat="44.09817047842728" lon="11.647725704192384"><ele>282.75</ele><time>2026-05-02T10:03:30.98Z</time></trkpt><trkpt lat="44.09821368743091" lon="11.647899607869348"><ele>283.5</ele><time>2026-05-02T10:03:31.98Z</time></trkpt><trkpt lat="44.09825977210837" lon="11.648076678382996"><ele>284.25</ele><time>2026-05-02T10:03:32.98Z</time></trkpt><trkpt lat="44.09831515761397" lon="11.648271659837727"><ele>285.0</ele><time>2026-05-02T10:03:33.977Z</time></trkpt><trkpt lat="44.098384732275896" lon="11.648501996080327"><ele>282.0</ele><time>2026-05-02T10:03:34.978Z</time></trkpt><trkpt lat="44.098473273214275" lon="11.64877196778322"><ele>279.0</ele><time>2026-05-02T10:03:35.978Z</time></trkpt><trkpt lat="44.09855960212208" lon="11.649059223434476"><ele>276.0</ele><time>2026-05-02T10:03:36.978Z</time></trkpt><trkpt lat="44.098642875714866" lon="11.649358193476061"><ele>277.5</ele><time>2026-05-02T10:03:37.978Z</time></trkpt><trkpt lat="44.09873172048001" lon="11.649697027449822"><ele>279.0</ele><time>2026-05-02T10:03:38.978Z</time></trkpt><trkpt lat="44.09882740801534" lon="11.650039520793994"><ele>279.5</ele><time>2026-05-02T10:03:39.978Z</time></trkpt><trkpt lat="44.098932310007704" lon="11.650386148057517"><ele>280.0</ele><time>2026-05-02T10:03:40.977Z</time></trkpt><trkpt lat="44.09903448613462" lon="11.650721187502581"><ele>275.0</ele><time>2026-05-02T10:03:41.977Z</time></trkpt><trkpt lat="44.09913644097489" lon="11.651057530936363"><ele>270.0</ele><time>2026-05-02T10:03:42.978Z</time></trkpt><trkpt lat="44.09925879113032" lon="11.651389638676331"><ele>270.0</ele><time>2026-05-02T10:03:43.977Z</time></trkpt><trkpt lat="44.099407019418855" lon="11.651726882194218"><ele>270.0</ele><time>2026-05-02T10:03:44.977Z</time></trkpt><trkpt lat="44.099577927577855" lon="11.652087401383548"><ele>273.0</ele><time>2026-05-02T10:03:45.977Z</time></trkpt><trkpt lat="44.09974756825979" lon="11.652448465168177"><ele>276.0</ele><time>2026-05-02T10:03:46.978Z</time></trkpt><trkpt lat="44.0999082508996" lon="11.65281479654924"><ele>273.5</ele><time>2026-05-02T10:03:47.978Z</time></trkpt><trkpt lat="44.10006493646825" lon="11.653168315728875"><ele>271.0</ele><time>2026-05-02T10:03:48.978Z</time></trkpt><trkpt lat="44.10021486417476" lon="11.653511553280083"><ele>275.0</ele><time>2026-05-02T10:03:49.978Z</time></trkpt><trkpt lat="44.10036385892888" lon="11.653836563593888"><ele>279.0</ele><time>2026-05-02T10:03:50.978Z</time></trkpt><trkpt lat="44.100505881048534" lon="11.654155334010042"><ele>280.0</ele><time>2026-05-02T10:03:51.978Z</time></trkpt><trkpt lat="44.10064519387009" lon="11.654472517435815"><ele>281.0</ele><time>2026-05-02T10:03:52.978Z</time></trkpt><trkpt lat="44.10078628244234" lon="11.654788867631439"><ele>276.5</ele><time>2026-05-02T10:03:53.978Z</time></trkpt><trkpt lat="44.10093105537436" lon="11.655110957723341"><ele>272.0</ele><time>2026-05-02T10:03:54.978Z</time></trkpt><trkpt lat="44.10107648294322" lon="11.655433506873688"><ele>272.0</ele><time>2026-05-02T10:03:55.978Z</time></trkpt><trkpt lat="44.10122278533231" lon="11.655755240507423"><ele>272.0</ele><time>2026-05-02T10:03:56.978Z</time></trkpt><trkpt lat="44.10136776382785" lon="11.656071658028914"><ele>272.5</ele><time>2026-05-02T10:03:57.978Z</time></trkpt><trkpt lat="44.10151303765271" lon="11.656389671382101"><ele>273.0</ele><time>2026-05-02T10:03:58.978Z</time></trkpt><trkpt lat="44.101656731644646" lon="11.65671698068219"><ele>270.5</ele><time>2026-05-02T10:03:59.978Z</time></trkpt><trkpt lat="44.101803798446035" lon="11.657046306648216"><ele>268.0</ele><time>2026-05-02T10:04:00.977Z</time></trkpt><trkpt lat="44.10194579215617" lon="11.657360636177222"><ele>268.0</ele><time>2026-05-02T10:04:01.977Z</time></trkpt><trkpt lat="44.10208729965406" lon="11.657664502680154"><ele>268.0</ele><time>2026-05-02T10:04:02.977Z</time></trkpt><trkpt lat="44.10222327853094" lon="11.657954103370587"><ele>268.0</ele><time>2026-05-02T10:04:03.977Z</time></trkpt><trkpt lat="44.102354352229796" lon="11.658240868005178"><ele>268.0</ele><time>2026-05-02T10:04:04.977Z</time></trkpt><trkpt lat="44.102473900099035" lon="11.658509771770461"><ele>267.66666666666663</ele><time>2026-05-02T10:04:05.977Z</time></trkpt><trkpt lat="44.102588676477495" lon="11.658768987827832"><ele>267.3333333333333</ele><time>2026-05-02T10:04:06.977Z</time></trkpt><trkpt lat="44.10270066872727" lon="11.659008009174906"><ele>267.0</ele><time>2026-05-02T10:04:07.977Z</time></trkpt><trkpt lat="44.10280720997822" lon="11.659240750766777"><ele>267.3333333333333</ele><time>2026-05-02T10:04:08.977Z</time></trkpt><trkpt lat="44.10290804408159" lon="11.659458935100384"><ele>267.66666666666663</ele><time>2026-05-02T10:04:09.977Z</time></trkpt><trkpt lat="44.10299886050338" lon="11.659654825048879"><ele>268.0</ele><time>2026-05-02T10:04:10.977Z</time></trkpt><trkpt lat="44.10308681610217" lon="11.6598445398969"><ele>268.0</ele><time>2026-05-02T10:04:11.977Z</time></trkpt><trkpt lat="44.103174917235776" lon="11.660040092589638"><ele>268.0</ele><time>2026-05-02T10:04:12.977Z</time></trkpt><trkpt lat="44.10325363331095" lon="11.660237235702828"><ele>268.0</ele><time>2026-05-02T10:04:13.977Z</time></trkpt><trkpt lat="44.103322147937675" lon="11.660429682394144"><ele>268.6</ele><time>2026-05-02T10:04:14.977Z</time></trkpt><trkpt lat="44.103389576424796" lon="11.660580315932155"><ele>269.20000000000005</ele><time>2026-05-02T10:04:15.977Z</time></trkpt><trkpt lat="44.10343669808352" lon="11.660725034132247"><ele>269.8</ele><time>2026-05-02T10:04:16.977Z</time></trkpt><trkpt lat="44.10347970180998" lon="11.660845873067895"><ele>270.40000000000003</ele><time>2026-05-02T10:04:17.977Z</time></trkpt><trkpt lat="44.10352295849267" lon="11.660973167748967"><ele>271.0</ele><time>2026-05-02T10:04:18.977Z</time></trkpt><trkpt lat="44.10356509953132" lon="11.661109912341379"><ele>271.25</ele><time>2026-05-02T10:04:19.977Z</time></trkpt><trkpt lat="44.10361526955445" lon="11.661261774246826"><ele>271.5</ele><time>2026-05-02T10:04:20.977Z</time></trkpt><trkpt lat="44.103665033963956" lon="11.661423638137725"><ele>271.75</ele><time>2026-05-02T10:04:21.977Z</time></trkpt><trkpt lat="44.103715466816" lon="11.661580096211722"><ele>272.0</ele><time>2026-05-02T10:04:22.977Z</time></trkpt><trkpt lat="44.103782065813704" lon="11.661731019823154"><ele>272.0</ele><time>2026-05-02T10:04:23.977Z</time></trkpt><trkpt lat="44.10384626170602" lon="11.661879954926526"><ele>272.0</ele><time>2026-05-02T10:04:24.977Z</time></trkpt><trkpt lat="44.10391485441445" lon="11.662023676195531"><ele>272.0</ele><time>2026-05-02T10:04:25.977Z</time></trkpt><trkpt lat="44.103994669988595" lon="11.66215513119556"><ele>272.0</ele><time>2026-05-02T10:04:26.977Z</time></trkpt><trkpt lat="44.10409200410561" lon="11.662267530902131"><ele>270.0</ele><time>2026-05-02T10:04:27.977Z</time></trkpt><trkpt lat="44.10418632953" lon="11.662408732665025"><ele>268.0</ele><time>2026-05-02T10:04:28.977Z</time></trkpt><trkpt lat="44.104320247172694" lon="11.662488207850572"><ele>266.0</ele><time>2026-05-02T10:04:29.977Z</time></trkpt><trkpt lat="44.10442384719199" lon="11.662590030744717"><ele>264.0</ele><time>2026-05-02T10:04:30.977Z</time></trkpt><trkpt lat="44.10452753096273" lon="11.66271200867021"><ele>264.0</ele><time>2026-05-02T10:04:31.977Z</time></trkpt><trkpt lat="44.104639147435385" lon="11.662841702343757"><ele>264.0</ele><time>2026-05-02T10:04:32.977Z</time></trkpt><trkpt lat="44.10475211356369" lon="11.66296674248537"><ele>264.0</ele><time>2026-05-02T10:04:33.977Z</time></trkpt><trkpt lat="44.10486071206284" lon="11.663084637313046"><ele>264.0</ele><time>2026-05-02T10:04:34.977Z</time></trkpt><trkpt lat="44.104968192661026" lon="11.663200893297793"><ele>263.6666666666667</ele><time>2026-05-02T10:04:35.977Z</time></trkpt><trkpt lat="44.10508654999337" lon="11.66332913885323"><ele>263.33333333333337</ele><time>2026-05-02T10:04:36.977Z</time></trkpt><trkpt lat="44.10521327161558" lon="11.663466590824086"><ele>263.0</ele><time>2026-05-02T10:04:37.977Z</time></trkpt><trkpt lat="44.10535568397861" lon="11.663602085928174"><ele>263.33333333333337</ele><time>2026-05-02T10:04:38.977Z</time></trkpt><trkpt lat="44.10551489634653" lon="11.663749565563334"><ele>263.6666666666667</ele><time>2026-05-02T10:04:39.977Z</time></trkpt><trkpt lat="44.10569112879695" lon="11.663897684620741"><ele>264.0</ele><time>2026-05-02T10:04:40.977Z</time></trkpt><trkpt lat="44.10586888865959" lon="11.664058800486458"><ele>262.5</ele><time>2026-05-02T10:04:41.977Z</time></trkpt><trkpt lat="44.10605928393616" lon="11.664219645275839"><ele>261.0</ele><time>2026-05-02T10:04:42.977Z</time></trkpt><trkpt lat="44.10625591366735" lon="11.664386520629225"><ele>261.0</ele><time>2026-05-02T10:04:43.977Z</time></trkpt><trkpt lat="44.10645677375026" lon="11.664561372446634"><ele>261.0</ele><time>2026-05-02T10:04:44.977Z</time></trkpt><trkpt lat="44.1066635187098" lon="11.664743943207798"><ele>259.0</ele><time>2026-05-02T10:04:45.977Z</time></trkpt><trkpt lat="44.106871411587164" lon="11.664930496439293"><ele>257.0</ele><time>2026-05-02T10:04:46.977Z</time></trkpt><trkpt lat="44.107079025255715" lon="11.66512262856898"><ele>257.5</ele><time>2026-05-02T10:04:47.977Z</time></trkpt><trkpt lat="44.107280566615714" lon="11.665329659787053"><ele>258.0</ele><time>2026-05-02T10:04:48.977Z</time></trkpt><trkpt lat="44.107495089535696" lon="11.66553986836969"><ele>256.0</ele><time>2026-05-02T10:04:49.977Z</time></trkpt><trkpt lat="44.10771896169411" lon="11.665742157686557"><ele>254.0</ele><time>2026-05-02T10:04:50.977Z</time></trkpt><trkpt lat="44.107956666903924" lon="11.66593343092602"><ele>253.5</ele><time>2026-05-02T10:04:51.977Z</time></trkpt><trkpt lat="44.108207128669115" lon="11.666123422947889"><ele>253.0</ele><time>2026-05-02T10:04:52.977Z</time></trkpt><trkpt lat="44.10845141996237" lon="11.666316268388911"><ele>252.5</ele><time>2026-05-02T10:04:53.977Z</time></trkpt><trkpt lat="44.108683829857895" lon="11.66649340817184"><ele>252.0</ele><time>2026-05-02T10:04:54.977Z</time></trkpt><trkpt lat="44.10889744494727" lon="11.666655009421927"><ele>251.0</ele><time>2026-05-02T10:04:55.977Z</time></trkpt><trkpt lat="44.10910065214715" lon="11.666830452990226"><ele>250.0</ele><time>2026-05-02T10:04:56.977Z</time></trkpt><trkpt lat="44.10928626957602" lon="11.66703011672511"><ele>250.0</ele><time>2026-05-02T10:04:57.977Z</time></trkpt><trkpt lat="44.10945247474908" lon="11.667255353946695"><ele>250.0</ele><time>2026-05-02T10:04:58.977Z</time></trkpt><trkpt lat="44.10962203454429" lon="11.667506268733534"><ele>250.0</ele><time>2026-05-02T10:04:59.977Z</time></trkpt><trkpt lat="44.10980193641544" lon="11.667771773619789"><ele>250.0</ele><time>2026-05-02T10:05:00.977Z</time></trkpt><trkpt lat="44.10998660019259" lon="11.668044795559041"><ele>248.0</ele><time>2026-05-02T10:05:01.977Z</time></trkpt><trkpt lat="44.11017511549963" lon="11.668322893013544"><ele>246.0</ele><time>2026-05-02T10:05:02.977Z</time></trkpt><trkpt lat="44.11036268303186" lon="11.668601757204216"><ele>246.0</ele><time>2026-05-02T10:05:03.977Z</time></trkpt><trkpt lat="44.110547595426084" lon="11.668878630877861"><ele>246.0</ele><time>2026-05-02T10:05:04.977Z</time></trkpt><trkpt lat="44.110732415150466" lon="11.669152022884372"><ele>246.5</ele><time>2026-05-02T10:05:05.977Z</time></trkpt><trkpt lat="44.11091389293866" lon="11.669425567564563"><ele>247.0</ele><time>2026-05-02T10:05:06.977Z</time></trkpt><trkpt lat="44.11108843444177" lon="11.6696946093748"><ele>247.0</ele><time>2026-05-02T10:05:07.977Z</time></trkpt><trkpt lat="44.11125775875772" lon="11.669972817555657"><ele>247.0</ele><time>2026-05-02T10:05:08.977Z</time></trkpt><trkpt lat="44.111420791088236" lon="11.670251188456144"><ele>246.0</ele><time>2026-05-02T10:05:09.977Z</time></trkpt><trkpt lat="44.11158056422733" lon="11.67052600035574"><ele>245.0</ele><time>2026-05-02T10:05:10.977Z</time></trkpt><trkpt lat="44.11173601165774" lon="11.670800292780953"><ele>245.0</ele><time>2026-05-02T10:05:11.977Z</time></trkpt><trkpt lat="44.111867901508646" lon="11.671068885769284"><ele>245.0</ele><time>2026-05-02T10:05:12.977Z</time></trkpt><trkpt lat="44.11201218612845" lon="11.671304066923534"><ele>245.66666666666669</ele><time>2026-05-02T10:05:13.977Z</time></trkpt><trkpt lat="44.11211270503174" lon="11.671579145998933"><ele>246.33333333333331</ele><time>2026-05-02T10:05:14.977Z</time></trkpt><trkpt lat="44.11220726135473" lon="11.671862761241142"><ele>247.0</ele><time>2026-05-02T10:05:15.977Z</time></trkpt><trkpt lat="44.11231090462667" lon="11.672164760261001"><ele>245.5</ele><time>2026-05-02T10:05:16.977Z</time></trkpt><trkpt lat="44.11241612235817" lon="11.672472455000449"><ele>244.0</ele><time>2026-05-02T10:05:17.977Z</time></trkpt><trkpt lat="44.11253086038517" lon="11.672785737469237"><ele>244.0</ele><time>2026-05-02T10:05:18.977Z</time></trkpt><trkpt lat="44.112617381082295" lon="11.673117507049714"><ele>244.0</ele><time>2026-05-02T10:05:19.977Z</time></trkpt><trkpt lat="44.112689334521434" lon="11.673446629465099"><ele>244.66666666666666</ele><time>2026-05-02T10:05:20.977Z</time></trkpt><trkpt lat="44.112740471958105" lon="11.673757905715952"><ele>245.33333333333331</ele><time>2026-05-02T10:05:21.977Z</time></trkpt><trkpt lat="44.112777053967825" lon="11.674057085644359"><ele>246.0</ele><time>2026-05-02T10:05:22.977Z</time></trkpt><trkpt lat="44.11281334831194" lon="11.674351701215452"><ele>247.33333333333331</ele><time>2026-05-02T10:05:23.977Z</time></trkpt><trkpt lat="44.1128517259636" lon="11.674631360165513"><ele>248.66666666666666</ele><time>2026-05-02T10:05:24.977Z</time></trkpt><trkpt lat="44.11289397125465" lon="11.674888868178902"><ele>250.0</ele><time>2026-05-02T10:05:25.977Z</time></trkpt><trkpt lat="44.11294695200836" lon="11.675133505950193"><ele>255.66666666666666</ele><time>2026-05-02T10:05:26.977Z</time></trkpt><trkpt lat="44.1130251326752" lon="11.675368711134096"><ele>261.3333333333333</ele><time>2026-05-02T10:05:27.977Z</time></trkpt><trkpt lat="44.1131263412457" lon="11.675599944177453"><ele>267.0</ele><time>2026-05-02T10:05:28.977Z</time></trkpt><trkpt lat="44.11323543025293" lon="11.675819661322718"><ele>263.0</ele><time>2026-05-02T10:05:29.977Z</time></trkpt><trkpt lat="44.11333911825777" lon="11.67602713152069"><ele>259.0</ele><time>2026-05-02T10:05:30.977Z</time></trkpt><trkpt lat="44.113434636736585" lon="11.676229373389155"><ele>255.0</ele><time>2026-05-02T10:05:31.977Z</time></trkpt><trkpt lat="44.1135183463618" lon="11.676410979615683"><ele>255.0</ele><time>2026-05-02T10:05:32.977Z</time></trkpt><trkpt lat="44.11360006741177" lon="11.676565924328631"><ele>255.0</ele><time>2026-05-02T10:05:33.977Z</time></trkpt><trkpt lat="44.11370510201774" lon="11.676689289295368"><ele>255.0</ele><time>2026-05-02T10:05:34.977Z</time></trkpt><trkpt lat="44.113842398616995" lon="11.676779799468942"><ele>255.0</ele><time>2026-05-02T10:05:35.977Z</time></trkpt><trkpt lat="44.114011363672155" lon="11.676859621852588"><ele>258.6666666666667</ele><time>2026-05-02T10:05:36.977Z</time></trkpt><trkpt lat="44.114195029013025" lon="11.676947516684875"><ele>262.33333333333337</ele><time>2026-05-02T10:05:37.977Z</time></trkpt><trkpt lat="44.11438344444061" lon="11.677048476804158"><ele>266.0</ele><time>2026-05-02T10:05:38.977Z</time></trkpt><trkpt lat="44.114572507029116" lon="11.67714215461701"><ele>266.0</ele><time>2026-05-02T10:05:39.975Z</time></trkpt><trkpt lat="44.114758808550505" lon="11.677217579350943"><ele>266.0</ele><time>2026-05-02T10:05:40.975Z</time></trkpt><trkpt lat="44.114944953347134" lon="11.677269055008196"><ele>266.0</ele><time>2026-05-02T10:05:41.975Z</time></trkpt><trkpt lat="44.115134083324115" lon="11.67729921289782"><ele>263.0</ele><time>2026-05-02T10:05:42.975Z</time></trkpt><trkpt lat="44.11533184676486" lon="11.677294416279294"><ele>260.0</ele><time>2026-05-02T10:05:43.974Z</time></trkpt><trkpt lat="44.11553457043764" lon="11.677264852210715"><ele>257.0</ele><time>2026-05-02T10:05:44.974Z</time></trkpt><trkpt lat="44.11574503915844" lon="11.677225673031026"><ele>256.0</ele><time>2026-05-02T10:05:45.974Z</time></trkpt><trkpt lat="44.115960938337906" lon="11.677195923790865"><ele>255.0</ele><time>2026-05-02T10:05:46.975Z</time></trkpt><trkpt lat="44.11618422868887" lon="11.677169946279536"><ele>254.0</ele><time>2026-05-02T10:05:47.975Z</time></trkpt><trkpt lat="44.116402270296554" lon="11.677147231853874"><ele>256.0</ele><time>2026-05-02T10:05:48.974Z</time></trkpt><trkpt lat="44.11660705951682" lon="11.677124702837485"><ele>258.0</ele><time>2026-05-02T10:05:49.974Z</time></trkpt><trkpt lat="44.11680097141861" lon="11.677120874275284"><ele>260.0</ele><time>2026-05-02T10:05:50.974Z</time></trkpt><trkpt lat="44.116982750992825" lon="11.677158606487728"><ele>260.0</ele><time>2026-05-02T10:05:51.974Z</time></trkpt><trkpt lat="44.11714466167552" lon="11.677244409558673"><ele>260.0</ele><time>2026-05-02T10:05:52.975Z</time></trkpt><trkpt lat="44.11731087021184" lon="11.67737523316064"><ele>260.0</ele><time>2026-05-02T10:05:53.975Z</time></trkpt><trkpt lat="44.1174777299114" lon="11.67753326457923"><ele>260.6666666666667</ele><time>2026-05-02T10:05:54.975Z</time></trkpt><trkpt lat="44.11763750122373" lon="11.67771397646273"><ele>261.3333333333333</ele><time>2026-05-02T10:05:55.975Z</time></trkpt><trkpt lat="44.11778977977953" lon="11.677928636619608"><ele>262.0</ele><time>2026-05-02T10:05:56.975Z</time></trkpt><trkpt lat="44.11794350110928" lon="11.678163776507866"><ele>262.0</ele><time>2026-05-02T10:05:57.975Z</time></trkpt><trkpt lat="44.1180984671715" lon="11.678416949098876"><ele>262.0</ele><time>2026-05-02T10:05:58.975Z</time></trkpt><trkpt lat="44.11826148670143" lon="11.678676011811302"><ele>262.0</ele><time>2026-05-02T10:05:59.975Z</time></trkpt><trkpt lat="44.11842485397758" lon="11.678923146192055"><ele>262.0</ele><time>2026-05-02T10:06:00.975Z</time></trkpt><trkpt lat="44.11857580092491" lon="11.679147503348515"><ele>262.0</ele><time>2026-05-02T10:06:01.975Z</time></trkpt><trkpt lat="44.11870736224894" lon="11.6793298653085"><ele>262.0</ele><time>2026-05-02T10:06:02.975Z</time></trkpt><trkpt lat="44.11882345045069" lon="11.679479255668348"><ele>262.0</ele><time>2026-05-02T10:06:03.975Z</time></trkpt><trkpt lat="44.11895317005651" lon="11.679569457946922"><ele>264.66666666666663</ele><time>2026-05-02T10:06:04.975Z</time></trkpt><trkpt lat="44.11911047285387" lon="11.679610602894245"><ele>267.3333333333333</ele><time>2026-05-02T10:06:05.975Z</time></trkpt><trkpt lat="44.119314216874706" lon="11.679632556034713"><ele>270.0</ele><time>2026-05-02T10:06:06.975Z</time></trkpt><trkpt lat="44.11953157837103" lon="11.679646662764652"><ele>270.0</ele><time>2026-05-02T10:06:07.975Z</time></trkpt><trkpt lat="44.11976169055782" lon="11.679658560715595"><ele>270.0</ele><time>2026-05-02T10:06:08.975Z</time></trkpt><trkpt lat="44.12000379372746" lon="11.679636202905824"><ele>263.5</ele><time>2026-05-02T10:06:09.975Z</time></trkpt><trkpt lat="44.12025810433145" lon="11.679581437501778"><ele>257.0</ele><time>2026-05-02T10:06:10.975Z</time></trkpt><trkpt lat="44.12052437632028" lon="11.67954633612964"><ele>252.0</ele><time>2026-05-02T10:06:11.975Z</time></trkpt><trkpt lat="44.12080209190799" lon="11.679517348833405"><ele>247.0</ele><time>2026-05-02T10:06:12.975Z</time></trkpt><trkpt lat="44.12108388370698" lon="11.679485072465475"><ele>247.0</ele><time>2026-05-02T10:06:13.975Z</time></trkpt><trkpt lat="44.12136122631871" lon="11.679450190082864"><ele>247.0</ele><time>2026-05-02T10:06:14.975Z</time></trkpt><trkpt lat="44.12163354710909" lon="11.679417971287624"><ele>241.5</ele><time>2026-05-02T10:06:15.975Z</time></trkpt><trkpt lat="44.12188883622311" lon="11.679390941347688"><ele>236.0</ele><time>2026-05-02T10:06:16.975Z</time></trkpt><trkpt lat="44.122119863424835" lon="11.679364987828908"><ele>236.0</ele><time>2026-05-02T10:06:17.975Z</time></trkpt><trkpt lat="44.12232684328292" lon="11.679339151583592"><ele>236.0</ele><time>2026-05-02T10:06:18.975Z</time></trkpt><trkpt lat="44.1225176596892" lon="11.679335850710574"><ele>236.0</ele><time>2026-05-02T10:06:19.975Z</time></trkpt><trkpt lat="44.12268329586724" lon="11.67929056995224"><ele>235.66666666666669</ele><time>2026-05-02T10:06:20.975Z</time></trkpt><trkpt lat="44.12284932101533" lon="11.67921724490189"><ele>235.33333333333331</ele><time>2026-05-02T10:06:21.975Z</time></trkpt><trkpt lat="44.123011594187254" lon="11.679082442674076"><ele>235.0</ele><time>2026-05-02T10:06:22.975Z</time></trkpt><trkpt lat="44.12316033441431" lon="11.6788886614786"><ele>234.66666666666666</ele><time>2026-05-02T10:06:23.975Z</time></trkpt><trkpt lat="44.12333401505311" lon="11.678742554670915"><ele>234.33333333333331</ele><time>2026-05-02T10:06:24.975Z</time></trkpt><trkpt lat="44.123471703491056" lon="11.678614443617127"><ele>234.0</ele><time>2026-05-02T10:06:25.975Z</time></trkpt><trkpt lat="44.12358743429039" lon="11.67852010955211"><ele>234.0</ele><time>2026-05-02T10:06:26.975Z</time></trkpt><trkpt lat="44.12371022782599" lon="11.678482370462575"><ele>234.0</ele><time>2026-05-02T10:06:27.975Z</time></trkpt><trkpt lat="44.12385031458071" lon="11.678506497130405"><ele>234.0</ele><time>2026-05-02T10:06:28.975Z</time></trkpt><trkpt lat="44.12400844465163" lon="11.678590388834904"><ele>234.0</ele><time>2026-05-02T10:06:29.975Z</time></trkpt><trkpt lat="44.1241671593475" lon="11.67874058217242"><ele>233.66666666666669</ele><time>2026-05-02T10:06:30.975Z</time></trkpt><trkpt lat="44.12435683663574" lon="11.678869903119267"><ele>233.33333333333334</ele><time>2026-05-02T10:06:31.975Z</time></trkpt><trkpt lat="44.12454183920185" lon="11.67902502446825"><ele>233.0</ele><time>2026-05-02T10:06:32.975Z</time></trkpt><trkpt lat="44.12473292587989" lon="11.679177809309154"><ele>231.66666666666669</ele><time>2026-05-02T10:06:33.975Z</time></trkpt><trkpt lat="44.12491549102464" lon="11.67931011256516"><ele>230.33333333333331</ele><time>2026-05-02T10:06:34.975Z</time></trkpt><trkpt lat="44.12508422767899" lon="11.679430140317118"><ele>229.0</ele><time>2026-05-02T10:06:35.975Z</time></trkpt><trkpt lat="44.12525411438141" lon="11.679519485774046"><ele>229.0</ele><time>2026-05-02T10:06:36.975Z</time></trkpt><trkpt lat="44.12542289637024" lon="11.679570395359253"><ele>229.0</ele><time>2026-05-02T10:06:37.975Z</time></trkpt><trkpt lat="44.12559187323725" lon="11.679545992586398"><ele>229.0</ele><time>2026-05-02T10:06:38.975Z</time></trkpt><trkpt lat="44.12575125972661" lon="11.679458876898126"><ele>234.66666666666666</ele><time>2026-05-02T10:06:39.975Z</time></trkpt><trkpt lat="44.12590829437704" lon="11.679351141242952"><ele>240.33333333333331</ele><time>2026-05-02T10:06:40.975Z</time></trkpt><trkpt lat="44.126078188033176" lon="11.679266729450811"><ele>246.0</ele><time>2026-05-02T10:06:41.975Z</time></trkpt><trkpt lat="44.126265772546496" lon="11.67925389554175"><ele>246.0</ele><time>2026-05-02T10:06:42.975Z</time></trkpt><trkpt lat="44.12646426665723" lon="11.679310668554107"><ele>246.0</ele><time>2026-05-02T10:06:43.975Z</time></trkpt><trkpt lat="44.126665550785845" lon="11.679397114468404"><ele>246.0</ele><time>2026-05-02T10:06:44.975Z</time></trkpt><trkpt lat="44.12684029312171" lon="11.679460301652194"><ele>247.0</ele><time>2026-05-02T10:06:45.975Z</time></trkpt><trkpt lat="44.12701353439847" lon="11.679478646072797"><ele>248.0</ele><time>2026-05-02T10:06:46.975Z</time></trkpt><trkpt lat="44.12720090498133" lon="11.679462749675368"><ele>249.0</ele><time>2026-05-02T10:06:47.975Z</time></trkpt><trkpt lat="44.127388828699225" lon="11.679406422070365"><ele>253.66666666666669</ele><time>2026-05-02T10:06:48.975Z</time></trkpt><trkpt lat="44.12758447434193" lon="11.679358670978088"><ele>258.33333333333337</ele><time>2026-05-02T10:06:49.975Z</time></trkpt><trkpt lat="44.127778432264165" lon="11.679358946150607"><ele>263.0</ele><time>2026-05-02T10:06:50.975Z</time></trkpt><trkpt lat="44.127972125602234" lon="11.67942274356446"><ele>257.0</ele><time>2026-05-02T10:06:51.975Z</time></trkpt><trkpt lat="44.128138455183255" lon="11.679543121000643"><ele>251.0</ele><time>2026-05-02T10:06:52.975Z</time></trkpt><trkpt lat="44.12829656186167" lon="11.679670070928688"><ele>245.0</ele><time>2026-05-02T10:06:53.975Z</time></trkpt><trkpt lat="44.128427335421605" lon="11.679866797945671"><ele>245.0</ele><time>2026-05-02T10:06:54.975Z</time></trkpt><trkpt lat="44.128518676602965" lon="11.680105299398626"><ele>245.0</ele><time>2026-05-02T10:06:55.975Z</time></trkpt><trkpt lat="44.128599606126926" lon="11.680349267880443"><ele>245.0</ele><time>2026-05-02T10:06:56.975Z</time></trkpt><trkpt lat="44.12866900112243" lon="11.680559015656899"><ele>242.66666666666669</ele><time>2026-05-02T10:06:57.975Z</time></trkpt><trkpt lat="44.128761337636334" lon="11.680742450548808"><ele>240.33333333333331</ele><time>2026-05-02T10:06:58.975Z</time></trkpt><trkpt lat="44.12889873086919" lon="11.680902516072944"><ele>238.0</ele><time>2026-05-02T10:06:59.975Z</time></trkpt><trkpt lat="44.12905501059719" lon="11.681033171625778"><ele>236.66666666666666</ele><time>2026-05-02T10:07:00.975Z</time></trkpt><trkpt lat="44.12924599881329" lon="11.681120505443655"><ele>235.33333333333331</ele><time>2026-05-02T10:07:01.975Z</time></trkpt><trkpt lat="44.12945499648768" lon="11.681189834451759"><ele>234.0</ele><time>2026-05-02T10:07:02.975Z</time></trkpt><trkpt lat="44.12965556948779" lon="11.681233234512591"><ele>234.0</ele><time>2026-05-02T10:07:03.975Z</time></trkpt><trkpt lat="44.129845216461206" lon="11.681237968856728"><ele>234.0</ele><time>2026-05-02T10:07:04.975Z</time></trkpt><trkpt lat="44.1300180388216" lon="11.681229546590204"><ele>234.0</ele><time>2026-05-02T10:07:05.975Z</time></trkpt><trkpt lat="44.130186980956786" lon="11.68119365747679"><ele>236.66666666666669</ele><time>2026-05-02T10:07:06.975Z</time></trkpt><trkpt lat="44.130361651493885" lon="11.681091029587366"><ele>239.33333333333334</ele><time>2026-05-02T10:07:07.975Z</time></trkpt><trkpt lat="44.130541751785195" lon="11.680935340834132"><ele>242.0</ele><time>2026-05-02T10:07:08.975Z</time></trkpt><trkpt lat="44.130738181472445" lon="11.680759470922007"><ele>242.0</ele><time>2026-05-02T10:07:09.975Z</time></trkpt><trkpt lat="44.13094834911653" lon="11.680588642503366"><ele>242.0</ele><time>2026-05-02T10:07:10.975Z</time></trkpt><trkpt lat="44.13116834076021" lon="11.680429963212855"><ele>242.0</ele><time>2026-05-02T10:07:11.975Z</time></trkpt><trkpt lat="44.13138296106408" lon="11.680291535673668"><ele>242.0</ele><time>2026-05-02T10:07:12.975Z</time></trkpt><trkpt lat="44.131593334360645" lon="11.680194199287858"><ele>245.0</ele><time>2026-05-02T10:07:13.975Z</time></trkpt><trkpt lat="44.13179692204073" lon="11.680140497018481"><ele>248.0</ele><time>2026-05-02T10:07:14.975Z</time></trkpt><trkpt lat="44.13201971146852" lon="11.680148683080812"><ele>251.0</ele><time>2026-05-02T10:07:15.975Z</time></trkpt><trkpt lat="44.132259036144305" lon="11.68019512112679"><ele>250.33333333333334</ele><time>2026-05-02T10:07:16.975Z</time></trkpt><trkpt lat="44.132483119836905" lon="11.680229841249153"><ele>249.66666666666669</ele><time>2026-05-02T10:07:17.975Z</time></trkpt><trkpt lat="44.13268473467971" lon="11.680253543019973"><ele>249.0</ele><time>2026-05-02T10:07:18.975Z</time></trkpt><trkpt lat="44.132870565491864" lon="11.680284824489537"><ele>245.66666666666669</ele><time>2026-05-02T10:07:19.975Z</time></trkpt><trkpt lat="44.13304344810288" lon="11.680375387503291"><ele>242.33333333333334</ele><time>2026-05-02T10:07:20.975Z</time></trkpt><trkpt lat="44.13321478501611" lon="11.680537617316354"><ele>239.0</ele><time>2026-05-02T10:07:21.975Z</time></trkpt><trkpt lat="44.133385656273376" lon="11.680732455261518"><ele>239.0</ele><time>2026-05-02T10:07:22.975Z</time></trkpt><trkpt lat="44.13354727638331" lon="11.680926877373235"><ele>239.0</ele><time>2026-05-02T10:07:23.975Z</time></trkpt><trkpt lat="44.13369447244185" lon="11.681084713187651"><ele>239.0</ele><time>2026-05-02T10:07:24.975Z</time></trkpt><trkpt lat="44.13380435500551" lon="11.681234560645741"><ele>235.66666666666669</ele><time>2026-05-02T10:07:25.975Z</time></trkpt><trkpt lat="44.133869935400355" lon="11.68143145074202"><ele>232.33333333333331</ele><time>2026-05-02T10:07:26.975Z</time></trkpt><trkpt lat="44.13389998809886" lon="11.681666274735678"><ele>229.0</ele><time>2026-05-02T10:07:27.975Z</time></trkpt><trkpt lat="44.13393064486911" lon="11.681872150553383"><ele>229.33333333333331</ele><time>2026-05-02T10:07:28.975Z</time></trkpt><trkpt lat="44.13399410592215" lon="11.682027563185777"><ele>229.66666666666669</ele><time>2026-05-02T10:07:29.975Z</time></trkpt><trkpt lat="44.13411074679096" lon="11.682166851621066"><ele>230.0</ele><time>2026-05-02T10:07:30.975Z</time></trkpt><trkpt lat="44.13427801346344" lon="11.682281088650907"><ele>230.0</ele><time>2026-05-02T10:07:31.975Z</time></trkpt><trkpt lat="44.13445197914295" lon="11.68236487196614"><ele>230.0</ele><time>2026-05-02T10:07:32.975Z</time></trkpt><trkpt lat="44.134613873404184" lon="11.6824352796431"><ele>230.0</ele><time>2026-05-02T10:07:33.975Z</time></trkpt><trkpt lat="44.134805475933625" lon="11.682443660639079"><ele>233.0</ele><time>2026-05-02T10:07:34.975Z</time></trkpt><trkpt lat="44.135026189177935" lon="11.682413331758225"><ele>236.0</ele><time>2026-05-02T10:07:35.975Z</time></trkpt><trkpt lat="44.13524892602111" lon="11.682431030797249"><ele>239.0</ele><time>2026-05-02T10:07:36.975Z</time></trkpt><trkpt lat="44.13548595539126" lon="11.682495859379298"><ele>241.5</ele><time>2026-05-02T10:07:37.975Z</time></trkpt><trkpt lat="44.135725571611246" lon="11.682580768763788"><ele>244.0</ele><time>2026-05-02T10:07:38.975Z</time></trkpt><trkpt lat="44.135956958754875" lon="11.682664998468116"><ele>235.0</ele><time>2026-05-02T10:07:39.975Z</time></trkpt><trkpt lat="44.1361793044668" lon="11.682788080723723"><ele>226.0</ele><time>2026-05-02T10:07:40.975Z</time></trkpt><trkpt lat="44.13639077217254" lon="11.682954574732138"><ele>230.33333333333331</ele><time>2026-05-02T10:07:41.975Z</time></trkpt><trkpt lat="44.13658953529557" lon="11.68312460575626"><ele>234.66666666666669</ele><time>2026-05-02T10:07:42.975Z</time></trkpt><trkpt lat="44.136769967727275" lon="11.683273583201277"><ele>239.0</ele><time>2026-05-02T10:07:43.975Z</time></trkpt><trkpt lat="44.13694722328755" lon="11.683387490681703"><ele>239.0</ele><time>2026-05-02T10:07:44.975Z</time></trkpt><trkpt lat="44.13713567275005" lon="11.68347100648599"><ele>239.0</ele><time>2026-05-02T10:07:45.973Z</time></trkpt><trkpt lat="44.13734863862945" lon="11.683518717431978"><ele>239.0</ele><time>2026-05-02T10:07:46.973Z</time></trkpt><trkpt lat="44.13758039724438" lon="11.683553234306974"><ele>236.5</ele><time>2026-05-02T10:07:47.972Z</time></trkpt><trkpt lat="44.137806928752795" lon="11.683593562353005"><ele>234.0</ele><time>2026-05-02T10:07:48.973Z</time></trkpt><trkpt lat="44.138043381931915" lon="11.683683199177581"><ele>236.5</ele><time>2026-05-02T10:07:49.972Z</time></trkpt><trkpt lat="44.138285119151234" lon="11.683791705389103"><ele>239.0</ele><time>2026-05-02T10:07:50.972Z</time></trkpt><trkpt lat="44.138524336105114" lon="11.6838912390444"><ele>239.0</ele><time>2026-05-02T10:07:51.972Z</time></trkpt><trkpt lat="44.138748572889256" lon="11.683984625540862"><ele>239.0</ele><time>2026-05-02T10:07:52.972Z</time></trkpt><trkpt lat="44.138962850638464" lon="11.68407941289653"><ele>240.0</ele><time>2026-05-02T10:07:53.972Z</time></trkpt><trkpt lat="44.13917687202105" lon="11.684192945070503"><ele>241.0</ele><time>2026-05-02T10:07:54.972Z</time></trkpt><trkpt lat="44.139381137548696" lon="11.68433283819239"><ele>239.33333333333331</ele><time>2026-05-02T10:07:55.972Z</time></trkpt><trkpt lat="44.13957997450767" lon="11.68447461871348"><ele>237.66666666666669</ele><time>2026-05-02T10:07:56.972Z</time></trkpt><trkpt lat="44.13976667521938" lon="11.684604999903808"><ele>236.0</ele><time>2026-05-02T10:07:57.972Z</time></trkpt><trkpt lat="44.139943556736334" lon="11.684712643864854"><ele>236.0</ele><time>2026-05-02T10:07:58.972Z</time></trkpt><trkpt lat="44.14011573088268" lon="11.68481168912377"><ele>236.0</ele><time>2026-05-02T10:07:59.972Z</time></trkpt><trkpt lat="44.1402994777495" lon="11.684875130498664"><ele>236.0</ele><time>2026-05-02T10:08:00.972Z</time></trkpt><trkpt lat="44.14049601296764" lon="11.684911752956205"><ele>236.0</ele><time>2026-05-02T10:08:01.972Z</time></trkpt><trkpt lat="44.140703350201015" lon="11.684945287606608"><ele>236.0</ele><time>2026-05-02T10:08:02.972Z</time></trkpt><trkpt lat="44.14092612227502" lon="11.68497067537955"><ele>236.0</ele><time>2026-05-02T10:08:03.972Z</time></trkpt><trkpt lat="44.14117686878097" lon="11.68497247522181"><ele>236.5</ele><time>2026-05-02T10:08:04.972Z</time></trkpt><trkpt lat="44.14144429594036" lon="11.684994367549676"><ele>237.0</ele><time>2026-05-02T10:08:05.972Z</time></trkpt><trkpt lat="44.14172950247269" lon="11.685025528023118"><ele>238.0</ele><time>2026-05-02T10:08:06.972Z</time></trkpt><trkpt lat="44.142020958408146" lon="11.685054898921063"><ele>239.0</ele><time>2026-05-02T10:08:07.972Z</time></trkpt><trkpt lat="44.14232355614787" lon="11.685089605073959"><ele>238.5</ele><time>2026-05-02T10:08:08.972Z</time></trkpt><trkpt lat="44.14260937972095" lon="11.685127893742719"><ele>238.0</ele><time>2026-05-02T10:08:09.972Z</time></trkpt><trkpt lat="44.142873788911864" lon="11.685167356095747"><ele>238.0</ele><time>2026-05-02T10:08:10.972Z</time></trkpt><trkpt lat="44.143119491085194" lon="11.685207435742981"><ele>238.0</ele><time>2026-05-02T10:08:11.972Z</time></trkpt><trkpt lat="44.14335478097067" lon="11.68525428084139"><ele>234.0</ele><time>2026-05-02T10:08:12.972Z</time></trkpt><trkpt lat="44.14357740801461" lon="11.685316483874326"><ele>230.0</ele><time>2026-05-02T10:08:13.972Z</time></trkpt><trkpt lat="44.14379407935506" lon="11.68541554529359"><ele>230.0</ele><time>2026-05-02T10:08:14.972Z</time></trkpt><trkpt lat="44.14401195608018" lon="11.685551611994743"><ele>230.0</ele><time>2026-05-02T10:08:15.972Z</time></trkpt><trkpt lat="44.14422993560589" lon="11.68569962122652"><ele>232.5</ele><time>2026-05-02T10:08:16.972Z</time></trkpt><trkpt lat="44.14443595661562" lon="11.685840997460241"><ele>235.0</ele><time>2026-05-02T10:08:17.972Z</time></trkpt><trkpt lat="44.144644178041354" lon="11.685981621225364"><ele>231.5</ele><time>2026-05-02T10:08:18.972Z</time></trkpt><trkpt lat="44.14485117279557" lon="11.686126684951894"><ele>228.0</ele><time>2026-05-02T10:08:19.972Z</time></trkpt><trkpt lat="44.14507199826064" lon="11.686267846389173"><ele>228.0</ele><time>2026-05-02T10:08:20.972Z</time></trkpt><trkpt lat="44.14530472049468" lon="11.686420789380566"><ele>228.0</ele><time>2026-05-02T10:08:21.972Z</time></trkpt><trkpt lat="44.14554327182287" lon="11.68658036675684"><ele>233.5</ele><time>2026-05-02T10:08:22.972Z</time></trkpt><trkpt lat="44.14578062125135" lon="11.686738839383374"><ele>239.0</ele><time>2026-05-02T10:08:23.972Z</time></trkpt><trkpt lat="44.14600354583326" lon="11.686884063773206"><ele>233.66666666666669</ele><time>2026-05-02T10:08:24.972Z</time></trkpt><trkpt lat="44.146202871480384" lon="11.687012651357582"><ele>228.33333333333331</ele><time>2026-05-02T10:08:25.972Z</time></trkpt><trkpt lat="44.14637679709145" lon="11.687131858155933"><ele>223.0</ele><time>2026-05-02T10:08:26.972Z</time></trkpt><trkpt lat="44.14653022740869" lon="11.68725878274724"><ele>226.66666666666666</ele><time>2026-05-02T10:08:27.972Z</time></trkpt><trkpt lat="44.146655284149176" lon="11.68742203977196"><ele>230.33333333333331</ele><time>2026-05-02T10:08:28.972Z</time></trkpt><trkpt lat="44.146759900031036" lon="11.687580602764651"><ele>234.0</ele><time>2026-05-02T10:08:29.972Z</time></trkpt><trkpt lat="44.14686605767315" lon="11.687716855354099"><ele>230.5</ele><time>2026-05-02T10:08:30.972Z</time></trkpt><trkpt lat="44.14693250468436" lon="11.687862441136964"><ele>227.0</ele><time>2026-05-02T10:08:31.972Z</time></trkpt><trkpt lat="44.14700497204863" lon="11.687984014740984"><ele>223.5</ele><time>2026-05-02T10:08:32.972Z</time></trkpt><trkpt lat="44.14707725404242" lon="11.688096731163105"><ele>220.0</ele><time>2026-05-02T10:08:33.972Z</time></trkpt><trkpt lat="44.147155801126274" lon="11.688212727328494"><ele>220.0</ele><time>2026-05-02T10:08:34.972Z</time></trkpt><trkpt lat="44.14722799522464" lon="11.688336635973338"><ele>220.0</ele><time>2026-05-02T10:08:35.972Z</time></trkpt><trkpt lat="44.147300795650146" lon="11.688436696362547"><ele>220.0</ele><time>2026-05-02T10:08:36.972Z</time></trkpt><trkpt lat="44.14738898612224" lon="11.688548399094648"><ele>220.0</ele><time>2026-05-02T10:08:37.972Z</time></trkpt><trkpt lat="44.147482019209626" lon="11.688641771202944"><ele>221.75</ele><time>2026-05-02T10:08:38.972Z</time></trkpt><trkpt lat="44.147593526114164" lon="11.688718459370897"><ele>223.5</ele><time>2026-05-02T10:08:39.972Z</time></trkpt><trkpt lat="44.147701778197856" lon="11.68877272699376"><ele>225.25</ele><time>2026-05-02T10:08:40.972Z</time></trkpt><trkpt lat="44.14782200148413" lon="11.688807269630711"><ele>227.0</ele><time>2026-05-02T10:08:41.972Z</time></trkpt><trkpt lat="44.14794034588596" lon="11.688839482298441"><ele>227.0</ele><time>2026-05-02T10:08:42.972Z</time></trkpt><trkpt lat="44.14805870311375" lon="11.688877817657641"><ele>227.0</ele><time>2026-05-02T10:08:43.972Z</time></trkpt><trkpt lat="44.148169630134504" lon="11.688936313761008"><ele>227.0</ele><time>2026-05-02T10:08:44.972Z</time></trkpt><trkpt lat="44.14827701068891" lon="11.689028373775288"><ele>227.0</ele><time>2026-05-02T10:08:45.972Z</time></trkpt><trkpt lat="44.14835334160085" lon="11.689160457448358"><ele>227.5</ele><time>2026-05-02T10:08:46.972Z</time></trkpt><trkpt lat="44.148422032319154" lon="11.689324836041209"><ele>228.0</ele><time>2026-05-02T10:08:47.972Z</time></trkpt><trkpt lat="44.14849212261757" lon="11.689488741517586"><ele>228.5</ele><time>2026-05-02T10:08:48.972Z</time></trkpt><trkpt lat="44.14857788095512" lon="11.689644420355497"><ele>229.0</ele><time>2026-05-02T10:08:49.972Z</time></trkpt><trkpt lat="44.148679761930865" lon="11.6897916496165"><ele>229.0</ele><time>2026-05-02T10:08:50.972Z</time></trkpt><trkpt lat="44.14880114020102" lon="11.689909017567865"><ele>229.0</ele><time>2026-05-02T10:08:51.972Z</time></trkpt><trkpt lat="44.148929217330654" lon="11.690013950751974"><ele>229.0</ele><time>2026-05-02T10:08:52.972Z</time></trkpt><trkpt lat="44.14904342181414" lon="11.690121022232411"><ele>229.0</ele><time>2026-05-02T10:08:53.972Z</time></trkpt><trkpt lat="44.149162015458586" lon="11.690174246986711"><ele>229.79999999999998</ele><time>2026-05-02T10:08:54.972Z</time></trkpt><trkpt lat="44.149258740273055" lon="11.69020763274894"><ele>230.59999999999997</ele><time>2026-05-02T10:08:55.972Z</time></trkpt><trkpt lat="44.149334367432296" lon="11.690204969813657"><ele>231.4</ele><time>2026-05-02T10:08:56.972Z</time></trkpt><trkpt lat="44.14941594949164" lon="11.690133792744227"><ele>232.2</ele><time>2026-05-02T10:08:57.972Z</time></trkpt><trkpt lat="44.149506193748955" lon="11.690001523664378"><ele>233.0</ele><time>2026-05-02T10:08:58.972Z</time></trkpt><trkpt lat="44.1496010741249" lon="11.689853613701796"><ele>233.0</ele><time>2026-05-02T10:08:59.972Z</time></trkpt><trkpt lat="44.1497167563741" lon="11.689695438375438"><ele>233.0</ele><time>2026-05-02T10:09:00.972Z</time></trkpt><trkpt lat="44.14984257967765" lon="11.68955390615923"><ele>233.0</ele><time>2026-05-02T10:09:01.972Z</time></trkpt><trkpt lat="44.149960304956714" lon="11.689416054156098"><ele>233.75</ele><time>2026-05-02T10:09:02.972Z</time></trkpt><trkpt lat="44.15008199303851" lon="11.689280726169583"><ele>234.5</ele><time>2026-05-02T10:09:03.972Z</time></trkpt><trkpt lat="44.15020785930556" lon="11.689151746270904"><ele>235.25</ele><time>2026-05-02T10:09:04.972Z</time></trkpt><trkpt lat="44.15031350516759" lon="11.689056158401858"><ele>236.0</ele><time>2026-05-02T10:09:05.972Z</time></trkpt><trkpt lat="44.15039609111297" lon="11.688981877099248"><ele>236.00000000000003</ele><time>2026-05-02T10:09:06.972Z</time></trkpt><trkpt lat="44.150469909007654" lon="11.688924655823676"><ele>236.0</ele><time>2026-05-02T10:09:07.972Z</time></trkpt><trkpt lat="44.1505293824892" lon="11.688877567521502"><ele>236.0</ele><time>2026-05-02T10:09:08.972Z</time></trkpt><trkpt lat="44.15061370161918" lon="11.688811533290892"><ele>236.0</ele><time>2026-05-02T10:09:10.972Z</time></trkpt><trkpt lat="44.150721433394644" lon="11.688730687902225"><ele>236.00000000000003</ele><time>2026-05-02T10:11:03.97Z</time></trkpt><trkpt lat="44.1507807061272" lon="11.688664798116895"><ele>236.0</ele><time>2026-05-02T10:11:05.97Z</time></trkpt><trkpt lat="44.15090078103635" lon="11.68855077577924"><ele>237.4</ele><time>2026-05-02T10:11:07.97Z</time></trkpt><trkpt lat="44.150990739125156" lon="11.688506605853162"><ele>238.8</ele><time>2026-05-02T10:11:08.97Z</time></trkpt><trkpt lat="44.151071002222594" lon="11.68844053305019"><ele>240.20000000000002</ele><time>2026-05-02T10:11:09.97Z</time></trkpt><trkpt lat="44.15114527376661" lon="11.68836904407615"><ele>241.60000000000002</ele><time>2026-05-02T10:11:10.97Z</time></trkpt><trkpt lat="44.15121811181629" lon="11.688303679659985"><ele>243.0</ele><time>2026-05-02T10:11:11.97Z</time></trkpt><trkpt lat="44.151294310446026" lon="11.688234738978796"><ele>243.0</ele><time>2026-05-02T10:11:12.97Z</time></trkpt><trkpt lat="44.15138051732502" lon="11.688184430536635"><ele>243.0</ele><time>2026-05-02T10:11:13.97Z</time></trkpt><trkpt lat="44.15146732115044" lon="11.688124349806527"><ele>243.0</ele><time>2026-05-02T10:11:14.97Z</time></trkpt><trkpt lat="44.151541309603715" lon="11.688070493613282"><ele>243.0</ele><time>2026-05-02T10:11:15.97Z</time></trkpt><trkpt lat="44.15162008760986" lon="11.688001993020467"><ele>243.0</ele><time>2026-05-02T10:11:16.97Z</time></trkpt><trkpt lat="44.151698851799864" lon="11.687943227553331"><ele>243.4</ele><time>2026-05-02T10:11:17.97Z</time></trkpt><trkpt lat="44.15177935277729" lon="11.687876758533731"><ele>243.8</ele><time>2026-05-02T10:11:18.97Z</time></trkpt><trkpt lat="44.151864648035286" lon="11.687808284007446"><ele>244.2</ele><time>2026-05-02T10:11:19.97Z</time></trkpt><trkpt lat="44.15195074455864" lon="11.687736795779191"><ele>244.6</ele><time>2026-05-02T10:11:20.97Z</time></trkpt><trkpt lat="44.152032031892375" lon="11.687674007922213"><ele>245.0</ele><time>2026-05-02T10:11:21.97Z</time></trkpt><trkpt lat="44.15211735148941" lon="11.687603104643971"><ele>245.0</ele><time>2026-05-02T10:11:22.97Z</time></trkpt><trkpt lat="44.1522040041932" lon="11.687527546287807"><ele>245.0</ele><time>2026-05-02T10:11:23.97Z</time></trkpt><trkpt lat="44.15228454153687" lon="11.687442801050778"><ele>245.0</ele><time>2026-05-02T10:11:24.97Z</time></trkpt><trkpt lat="44.152381277580005" lon="11.687352419839545"><ele>245.0</ele><time>2026-05-02T10:11:25.97Z</time></trkpt><trkpt lat="44.15246776832138" lon="11.687267917352699"><ele>245.0</ele><time>2026-05-02T10:11:26.969Z</time></trkpt><trkpt lat="44.15255149858162" lon="11.687184348410472"><ele>246.25</ele><time>2026-05-02T10:11:27.969Z</time></trkpt><trkpt lat="44.152647414874934" lon="11.687113173813191"><ele>247.5</ele><time>2026-05-02T10:11:28.969Z</time></trkpt><trkpt lat="44.15273838077738" lon="11.687025101634372"><ele>248.75</ele><time>2026-05-02T10:11:29.969Z</time></trkpt><trkpt lat="44.15282867435611" lon="11.686917593499915"><ele>250.0</ele><time>2026-05-02T10:11:30.969Z</time></trkpt><trkpt lat="44.15292031006358" lon="11.686801611787784"><ele>250.0</ele><time>2026-05-02T10:11:31.969Z</time></trkpt><trkpt lat="44.15300399337811" lon="11.686679216673005"><ele>250.0</ele><time>2026-05-02T10:11:32.969Z</time></trkpt><trkpt lat="44.15311268038464" lon="11.686559658660803"><ele>250.0</ele><time>2026-05-02T10:11:33.969Z</time></trkpt><trkpt lat="44.15322673837933" lon="11.686445909830919"><ele>250.0</ele><time>2026-05-02T10:11:34.969Z</time></trkpt><trkpt lat="44.15333972981799" lon="11.686335373127639"><ele>251.25</ele><time>2026-05-02T10:11:35.969Z</time></trkpt><trkpt lat="44.153453436307046" lon="11.686232926204971"><ele>252.5</ele><time>2026-05-02T10:11:36.969Z</time></trkpt><trkpt lat="44.153578865545285" lon="11.686132070030364"><ele>253.75</ele><time>2026-05-02T10:11:37.969Z</time></trkpt><trkpt lat="44.153707253832934" lon="11.686039337830799"><ele>255.0</ele><time>2026-05-02T10:11:38.969Z</time></trkpt><trkpt lat="44.15383823809846" lon="11.685959156626838"><ele>255.0</ele><time>2026-05-02T10:11:39.969Z</time></trkpt><trkpt lat="44.15396787897085" lon="11.685891454187123"><ele>255.0</ele><time>2026-05-02T10:11:40.969Z</time></trkpt><trkpt lat="44.15409696924196" lon="11.685822537294065"><ele>255.0</ele><time>2026-05-02T10:11:41.969Z</time></trkpt><trkpt lat="44.154225837781915" lon="11.685776322871742"><ele>255.0</ele><time>2026-05-02T10:11:42.969Z</time></trkpt><trkpt lat="44.15436522061481" lon="11.685744129696301"><ele>242.66666666666669</ele><time>2026-05-02T10:11:43.969Z</time></trkpt><trkpt lat="44.154511740561425" lon="11.685719926292602"><ele>230.33333333333334</ele><time>2026-05-02T10:11:44.969Z</time></trkpt><trkpt lat="44.154663703396075" lon="11.685692609431992"><ele>218.0</ele><time>2026-05-02T10:11:45.969Z</time></trkpt><trkpt lat="44.15482534935668" lon="11.68564658766422"><ele>213.66666666666669</ele><time>2026-05-02T10:11:46.969Z</time></trkpt><trkpt lat="44.15498200240859" lon="11.685618176622233"><ele>209.33333333333331</ele><time>2026-05-02T10:11:47.969Z</time></trkpt><trkpt lat="44.155152355660974" lon="11.685568750273752"><ele>205.0</ele><time>2026-05-02T10:11:48.969Z</time></trkpt><trkpt lat="44.15533252687075" lon="11.685511549336159"><ele>205.0</ele><time>2026-05-02T10:11:49.969Z</time></trkpt><trkpt lat="44.15552399655991" lon="11.685438109865345"><ele>205.0</ele><time>2026-05-02T10:11:50.969Z</time></trkpt><trkpt lat="44.155734325930254" lon="11.685336665053702"><ele>205.0</ele><time>2026-05-02T10:11:51.969Z</time></trkpt><trkpt lat="44.15595804768516" lon="11.685246905097527"><ele>212.5</ele><time>2026-05-02T10:11:52.969Z</time></trkpt><trkpt lat="44.15620483414008" lon="11.685162197083963"><ele>220.0</ele><time>2026-05-02T10:11:53.969Z</time></trkpt><trkpt lat="44.15647209775456" lon="11.685058313358358"><ele>214.0</ele><time>2026-05-02T10:11:54.969Z</time></trkpt><trkpt lat="44.15673253186203" lon="11.68494653116888"><ele>208.0</ele><time>2026-05-02T10:11:55.969Z</time></trkpt><trkpt lat="44.15696677166848" lon="11.684855629014374"><ele>208.0</ele><time>2026-05-02T10:11:56.969Z</time></trkpt><trkpt lat="44.15717747397648" lon="11.684770085720992"><ele>208.0</ele><time>2026-05-02T10:11:57.969Z</time></trkpt><trkpt lat="44.157380604777735" lon="11.684691886651331"><ele>208.0</ele><time>2026-05-02T10:11:58.969Z</time></trkpt><trkpt lat="44.15758718698399" lon="11.684608826251315"><ele>206.33333333333331</ele><time>2026-05-02T10:11:59.969Z</time></trkpt><trkpt lat="44.15778671843943" lon="11.684527048949098"><ele>204.66666666666669</ele><time>2026-05-02T10:12:00.968Z</time></trkpt><trkpt lat="44.157977539054066" lon="11.684455011615169"><ele>203.0</ele><time>2026-05-02T10:12:01.968Z</time></trkpt><trkpt lat="44.15816683875047" lon="11.684402874870253"><ele>202.0</ele><time>2026-05-02T10:12:02.968Z</time></trkpt><trkpt lat="44.158354168907515" lon="11.684371260353636"><ele>201.0</ele><time>2026-05-02T10:12:03.968Z</time></trkpt><trkpt lat="44.15854604658952" lon="11.684374227486744"><ele>200.0</ele><time>2026-05-02T10:12:04.968Z</time></trkpt><trkpt lat="44.158746244889095" lon="11.684434415278995"><ele>200.0</ele><time>2026-05-02T10:12:05.968Z</time></trkpt><trkpt lat="44.15897542452797" lon="11.684492535480215"><ele>200.0</ele><time>2026-05-02T10:12:06.968Z</time></trkpt><trkpt lat="44.159210655901134" lon="11.684543628992882"><ele>200.66666666666669</ele><time>2026-05-02T10:12:07.969Z</time></trkpt><trkpt lat="44.159415344067355" lon="11.684603488868321"><ele>201.33333333333331</ele><time>2026-05-02T10:12:08.969Z</time></trkpt><trkpt lat="44.159591443822656" lon="11.684658197533079"><ele>202.0</ele><time>2026-05-02T10:12:09.968Z</time></trkpt><trkpt lat="44.15974801481388" lon="11.684745741457649"><ele>204.0</ele><time>2026-05-02T10:12:10.968Z</time></trkpt><trkpt lat="44.159877953883935" lon="11.68490628907526"><ele>206.0</ele><time>2026-05-02T10:12:11.968Z</time></trkpt><trkpt lat="44.15998980686297" lon="11.685084440214604"><ele>208.0</ele><time>2026-05-02T10:12:12.968Z</time></trkpt><trkpt lat="44.16009441579621" lon="11.685245808605393"><ele>203.0</ele><time>2026-05-02T10:12:13.968Z</time></trkpt><trkpt lat="44.16019145455114" lon="11.685349617010548"><ele>198.0</ele><time>2026-05-02T10:12:14.968Z</time></trkpt><trkpt lat="44.160287862193925" lon="11.685429284263865"><ele>193.0</ele><time>2026-05-02T10:12:15.968Z</time></trkpt><trkpt lat="44.16041741858296" lon="11.685439164433872"><ele>188.0</ele><time>2026-05-02T10:12:16.968Z</time></trkpt><trkpt lat="44.160588398563135" lon="11.685402058037898"><ele>188.0</ele><time>2026-05-02T10:12:17.968Z</time></trkpt><trkpt lat="44.16080033803294" lon="11.685344209636309"><ele>188.0</ele><time>2026-05-02T10:12:18.968Z</time></trkpt><trkpt lat="44.16101406717418" lon="11.685321918041549"><ele>188.0</ele><time>2026-05-02T10:12:19.968Z</time></trkpt><trkpt lat="44.16125082238941" lon="11.685313817895167"><ele>188.0</ele><time>2026-05-02T10:12:20.968Z</time></trkpt><trkpt lat="44.161496368576465" lon="11.685300631898746"><ele>188.0</ele><time>2026-05-02T10:12:21.968Z</time></trkpt><trkpt lat="44.16175341849003" lon="11.685272959487905"><ele>195.5</ele><time>2026-05-02T10:12:22.968Z</time></trkpt><trkpt lat="44.16201946757473" lon="11.68523219014713"><ele>203.0</ele><time>2026-05-02T10:12:23.968Z</time></trkpt><trkpt lat="44.1622985750627" lon="11.685185734138678"><ele>200.0</ele><time>2026-05-02T10:12:24.968Z</time></trkpt><trkpt lat="44.16257911888706" lon="11.68513971648301"><ele>197.0</ele><time>2026-05-02T10:12:25.968Z</time></trkpt><trkpt lat="44.16286324935609" lon="11.685098766400946"><ele>197.0</ele><time>2026-05-02T10:12:26.968Z</time></trkpt><trkpt lat="44.16314152133362" lon="11.68505624960123"><ele>197.0</ele><time>2026-05-02T10:12:27.968Z</time></trkpt><trkpt lat="44.16341279784299" lon="11.68500760855816"><ele>195.0</ele><time>2026-05-02T10:12:28.968Z</time></trkpt><trkpt lat="44.16368272144623" lon="11.684927206075304"><ele>193.0</ele><time>2026-05-02T10:12:29.968Z</time></trkpt><trkpt lat="44.16394628608036" lon="11.68483913514108"><ele>191.0</ele><time>2026-05-02T10:12:30.968Z</time></trkpt><trkpt lat="44.16420232340981" lon="11.684769040567604"><ele>189.0</ele><time>2026-05-02T10:12:31.968Z</time></trkpt><trkpt lat="44.16444679198759" lon="11.68469105514214"><ele>189.0</ele><time>2026-05-02T10:12:32.968Z</time></trkpt><trkpt lat="44.16468494524149" lon="11.684618940732827"><ele>189.0</ele><time>2026-05-02T10:12:33.968Z</time></trkpt><trkpt lat="44.16491135598584" lon="11.684535122802538"><ele>189.0</ele><time>2026-05-02T10:12:34.968Z</time></trkpt><trkpt lat="44.16513352563502" lon="11.684445535812104"><ele>189.0</ele><time>2026-05-02T10:12:35.968Z</time></trkpt><trkpt lat="44.165340728758885" lon="11.684359112970228"><ele>189.0</ele><time>2026-05-02T10:12:36.968Z</time></trkpt><trkpt lat="44.16553503171787" lon="11.684280672930049"><ele>187.66666666666666</ele><time>2026-05-02T10:12:37.968Z</time></trkpt><trkpt lat="44.16572116625181" lon="11.684209014200192"><ele>186.33333333333331</ele><time>2026-05-02T10:12:38.968Z</time></trkpt><trkpt lat="44.16588018770658" lon="11.684148442762933"><ele>185.0</ele><time>2026-05-02T10:12:39.968Z</time></trkpt><trkpt lat="44.166018984559976" lon="11.68412233758924"><ele>185.0</ele><time>2026-05-02T10:12:40.968Z</time></trkpt><trkpt lat="44.16616045529152" lon="11.684133731905444"><ele>185.0</ele><time>2026-05-02T10:12:41.968Z</time></trkpt><trkpt lat="44.166281286964356" lon="11.684199724927783"><ele>185.0</ele><time>2026-05-02T10:12:42.968Z</time></trkpt><trkpt lat="44.16640912837901" lon="11.684318708677697"><ele>185.0</ele><time>2026-05-02T10:12:43.968Z</time></trkpt><trkpt lat="44.166543666403136" lon="11.684461013252484"><ele>182.66666666666666</ele><time>2026-05-02T10:12:44.968Z</time></trkpt><trkpt lat="44.16668721157675" lon="11.684616051183259"><ele>180.33333333333334</ele><time>2026-05-02T10:12:45.968Z</time></trkpt><trkpt lat="44.16684265670592" lon="11.684775565249767"><ele>178.0</ele><time>2026-05-02T10:12:46.968Z</time></trkpt><trkpt lat="44.167006047852425" lon="11.684940973799213"><ele>178.0</ele><time>2026-05-02T10:12:47.968Z</time></trkpt><trkpt lat="44.16717898360812" lon="11.685113407506295"><ele>178.0</ele><time>2026-05-02T10:12:48.968Z</time></trkpt><trkpt lat="44.16735831659312" lon="11.685295676578106"><ele>178.0</ele><time>2026-05-02T10:12:49.968Z</time></trkpt><trkpt lat="44.16753703295263" lon="11.685482833078183"><ele>181.5</ele><time>2026-05-02T10:12:50.968Z</time></trkpt><trkpt lat="44.16771874938763" lon="11.685671035245068"><ele>185.0</ele><time>2026-05-02T10:12:51.968Z</time></trkpt><trkpt lat="44.167900388324824" lon="11.685857777712013"><ele>185.0</ele><time>2026-05-02T10:12:52.968Z</time></trkpt><trkpt lat="44.16807953784347" lon="11.686038694083496"><ele>185.0</ele><time>2026-05-02T10:12:53.968Z</time></trkpt><trkpt lat="44.16825374316391" lon="11.686208944381207"><ele>185.0</ele><time>2026-05-02T10:12:54.968Z</time></trkpt><trkpt lat="44.168433445114" lon="11.686364858778685"><ele>183.0</ele><time>2026-05-02T10:12:55.968Z</time></trkpt><trkpt lat="44.16862361213005" lon="11.686495872731776"><ele>181.0</ele><time>2026-05-02T10:12:56.968Z</time></trkpt><trkpt lat="44.16882764159694" lon="11.686598856756556"><ele>179.0</ele><time>2026-05-02T10:12:57.968Z</time></trkpt><trkpt lat="44.16905073097503" lon="11.68667592848278"><ele>178.5</ele><time>2026-05-02T10:12:58.968Z</time></trkpt><trkpt lat="44.169290676052995" lon="11.686728709116819"><ele>178.0</ele><time>2026-05-02T10:12:59.968Z</time></trkpt><trkpt lat="44.16952140608117" lon="11.686770054396554"><ele>178.0</ele><time>2026-05-02T10:13:00.968Z</time></trkpt><trkpt lat="44.169724457962815" lon="11.686807431644509"><ele>178.0</ele><time>2026-05-02T10:13:01.968Z</time></trkpt><trkpt lat="44.169894788904436" lon="11.686842885599976"><ele>178.0</ele><time>2026-05-02T10:13:02.968Z</time></trkpt><trkpt lat="44.17002811193366" lon="11.686873192284633"><ele>177.5</ele><time>2026-05-02T10:13:03.968Z</time></trkpt><trkpt lat="44.170134670305224" lon="11.686933975994345"><ele>177.0</ele><time>2026-05-02T10:13:04.968Z</time></trkpt><trkpt lat="44.170225746844444" lon="11.68706860511291"><ele>176.5</ele><time>2026-05-02T10:13:05.968Z</time></trkpt><trkpt lat="44.17026744061674" lon="11.687257852133744"><ele>176.0</ele><time>2026-05-02T10:13:06.968Z</time></trkpt><trkpt lat="44.170291752827495" lon="11.687479988751665"><ele>176.0</ele><time>2026-05-02T10:13:07.968Z</time></trkpt><trkpt lat="44.17027719784313" lon="11.687739414040516"><ele>176.0</ele><time>2026-05-02T10:13:08.968Z</time></trkpt><trkpt lat="44.170259871758596" lon="11.68801010941685"><ele>176.0</ele><time>2026-05-02T10:13:09.968Z</time></trkpt><trkpt lat="44.1702785750891" lon="11.68827211683522"><ele>176.0</ele><time>2026-05-02T10:13:10.968Z</time></trkpt><trkpt lat="44.170335379604104" lon="11.688554180104779"><ele>176.0</ele><time>2026-05-02T10:13:11.968Z</time></trkpt><trkpt lat="44.170413877682826" lon="11.688829966588214"><ele>176.0</ele><time>2026-05-02T10:13:12.968Z</time></trkpt><trkpt lat="44.17052356230013" lon="11.689095660899458"><ele>176.0</ele><time>2026-05-02T10:13:13.968Z</time></trkpt><trkpt lat="44.170606429189874" lon="11.689359131513466"><ele>176.0</ele><time>2026-05-02T10:13:14.968Z</time></trkpt><trkpt lat="44.17064074385255" lon="11.689608983321115"><ele>176.0</ele><time>2026-05-02T10:13:15.968Z</time></trkpt><trkpt lat="44.17067703809616" lon="11.689821484459454"><ele>177.0</ele><time>2026-05-02T10:13:16.968Z</time></trkpt><trkpt lat="44.170711062632975" lon="11.690017372169484"><ele>178.0</ele><time>2026-05-02T10:13:17.968Z</time></trkpt><trkpt lat="44.17074315409663" lon="11.69021364581318"><ele>179.0</ele><time>2026-05-02T10:13:18.968Z</time></trkpt><trkpt lat="44.170773419096506" lon="11.690419045323218"><ele>180.0</ele><time>2026-05-02T10:13:19.968Z</time></trkpt><trkpt lat="44.17080865694392" lon="11.690619010245518"><ele>180.0</ele><time>2026-05-02T10:13:20.968Z</time></trkpt><trkpt lat="44.170874662489425" lon="11.690803211452945"><ele>180.0</ele><time>2026-05-02T10:13:21.968Z</time></trkpt><trkpt lat="44.17098825372777" lon="11.690971199813674"><ele>180.0</ele><time>2026-05-02T10:13:22.968Z</time></trkpt><trkpt lat="44.17112925263348" lon="11.691130236463875"><ele>178.66666666666666</ele><time>2026-05-02T10:13:23.968Z</time></trkpt><trkpt lat="44.17128498859356" lon="11.691305766227828"><ele>177.33333333333331</ele><time>2026-05-02T10:13:24.968Z</time></trkpt><trkpt lat="44.171428436792304" lon="11.691509075762104"><ele>176.0</ele><time>2026-05-02T10:13:25.968Z</time></trkpt><trkpt lat="44.1715690597026" lon="11.69170797330174"><ele>176.0</ele><time>2026-05-02T10:13:26.968Z</time></trkpt><trkpt lat="44.17171973469883" lon="11.691914820480054"><ele>176.0</ele><time>2026-05-02T10:13:27.968Z</time></trkpt><trkpt lat="44.17186663344923" lon="11.692111908856639"><ele>176.0</ele><time>2026-05-02T10:13:28.968Z</time></trkpt><trkpt lat="44.17202110510559" lon="11.692285207721506"><ele>176.33333333333331</ele><time>2026-05-02T10:13:29.968Z</time></trkpt><trkpt lat="44.172197376362206" lon="11.692440300276147"><ele>176.66666666666666</ele><time>2026-05-02T10:13:30.968Z</time></trkpt><trkpt lat="44.17240043769512" lon="11.692559372941158"><ele>177.0</ele><time>2026-05-02T10:13:31.968Z</time></trkpt><trkpt lat="44.1726171425564" lon="11.692653791831635"><ele>177.0</ele><time>2026-05-02T10:13:32.968Z</time></trkpt><trkpt lat="44.17284554707655" lon="11.692717689075042"><ele>177.0</ele><time>2026-05-02T10:13:33.968Z</time></trkpt><trkpt lat="44.173083334206865" lon="11.692751140208689"><ele>174.0</ele><time>2026-05-02T10:13:34.968Z</time></trkpt><trkpt lat="44.17332627142272" lon="11.69276288036076"><ele>171.0</ele><time>2026-05-02T10:13:35.968Z</time></trkpt><trkpt lat="44.17357641940393" lon="11.69276600283999"><ele>171.0</ele><time>2026-05-02T10:13:36.968Z</time></trkpt><trkpt lat="44.17382791426587" lon="11.692773936736033"><ele>171.0</ele><time>2026-05-02T10:13:37.968Z</time></trkpt><trkpt lat="44.17408899499982" lon="11.692786590605827"><ele>170.0</ele><time>2026-05-02T10:13:38.968Z</time></trkpt><trkpt lat="44.17434999390073" lon="11.692798393225079"><ele>169.0</ele><time>2026-05-02T10:13:39.968Z</time></trkpt><trkpt lat="44.174615372979304" lon="11.69280475771229"><ele>170.5</ele><time>2026-05-02T10:13:40.968Z</time></trkpt><trkpt lat="44.174877972862" lon="11.69282140733834"><ele>172.0</ele><time>2026-05-02T10:13:41.968Z</time></trkpt><trkpt lat="44.17513751893603" lon="11.692856063852961"><ele>172.0</ele><time>2026-05-02T10:13:42.968Z</time></trkpt><trkpt lat="44.17540441014087" lon="11.692917974865619"><ele>172.0</ele><time>2026-05-02T10:13:43.968Z</time></trkpt><trkpt lat="44.17567483367557" lon="11.692993448261937"><ele>172.5</ele><time>2026-05-02T10:13:44.968Z</time></trkpt><trkpt lat="44.17595227735135" lon="11.693066458382546"><ele>173.0</ele><time>2026-05-02T10:13:45.968Z</time></trkpt><trkpt lat="44.176228573515466" lon="11.693138196913079"><ele>173.0</ele><time>2026-05-02T10:13:46.968Z</time></trkpt><trkpt lat="44.1765050170955" lon="11.69320475614868"><ele>173.0</ele><time>2026-05-02T10:13:47.968Z</time></trkpt><trkpt lat="44.176780441435774" lon="11.693268899029732"><ele>172.0</ele><time>2026-05-02T10:13:48.968Z</time></trkpt><trkpt lat="44.17705391239304" lon="11.693336274466372"><ele>171.0</ele><time>2026-05-02T10:13:49.968Z</time></trkpt><trkpt lat="44.17732425924869" lon="11.69340394706227"><ele>171.0</ele><time>2026-05-02T10:13:50.968Z</time></trkpt><trkpt lat="44.177584786091174" lon="11.693461289750736"><ele>171.0</ele><time>2026-05-02T10:13:51.968Z</time></trkpt><trkpt lat="44.177839129349806" lon="11.693521645377803"><ele>171.0</ele><time>2026-05-02T10:13:52.968Z</time></trkpt><trkpt lat="44.178081693938346" lon="11.693580152359793"><ele>171.0</ele><time>2026-05-02T10:13:53.968Z</time></trkpt><trkpt lat="44.178308246445035" lon="11.69364737207677"><ele>170.33333333333334</ele><time>2026-05-02T10:13:54.968Z</time></trkpt><trkpt lat="44.17852694734643" lon="11.693716766011045"><ele>169.66666666666669</ele><time>2026-05-02T10:13:55.968Z</time></trkpt><trkpt lat="44.178737522352456" lon="11.693820250000051"><ele>169.0</ele><time>2026-05-02T10:13:56.968Z</time></trkpt><trkpt lat="44.178920735529" lon="11.693994931159821"><ele>169.66666666666669</ele><time>2026-05-02T10:13:57.968Z</time></trkpt><trkpt lat="44.179093608207076" lon="11.694185277375858"><ele>170.33333333333334</ele><time>2026-05-02T10:13:58.968Z</time></trkpt><trkpt lat="44.17924263149061" lon="11.694418489846086"><ele>171.0</ele><time>2026-05-02T10:13:59.968Z</time></trkpt><trkpt lat="44.1793862410177" lon="11.694687226550741"><ele>167.5</ele><time>2026-05-02T10:14:00.968Z</time></trkpt><trkpt lat="44.17953158698899" lon="11.694973238852732"><ele>164.0</ele><time>2026-05-02T10:14:01.968Z</time></trkpt><trkpt lat="44.179692597635686" lon="11.695254993403367"><ele>165.0</ele><time>2026-05-02T10:14:02.968Z</time></trkpt><trkpt lat="44.17984628802385" lon="11.695564078676833"><ele>166.0</ele><time>2026-05-02T10:14:03.965Z</time></trkpt><trkpt lat="44.18000615027806" lon="11.695877239293774"><ele>162.0</ele><time>2026-05-02T10:14:04.966Z</time></trkpt><trkpt lat="44.18016865606547" lon="11.696179658540867"><ele>158.0</ele><time>2026-05-02T10:14:05.966Z</time></trkpt><trkpt lat="44.180304065964286" lon="11.696469497835722"><ele>158.0</ele><time>2026-05-02T10:14:06.965Z</time></trkpt><trkpt lat="44.18044827030445" lon="11.696745065176636"><ele>158.0</ele><time>2026-05-02T10:14:07.965Z</time></trkpt><trkpt lat="44.1805856413028" lon="11.697011850329137"><ele>159.33333333333331</ele><time>2026-05-02T10:14:08.965Z</time></trkpt><trkpt lat="44.18071643872474" lon="11.697265066110381"><ele>160.66666666666666</ele><time>2026-05-02T10:14:09.965Z</time></trkpt><trkpt lat="44.18084130297472" lon="11.697510450320014"><ele>162.0</ele><time>2026-05-02T10:14:10.964Z</time></trkpt><trkpt lat="44.18097008138734" lon="11.697752366987915"><ele>162.0</ele><time>2026-05-02T10:14:11.964Z</time></trkpt><trkpt lat="44.181100621142235" lon="11.69797857374065"><ele>162.0</ele><time>2026-05-02T10:14:12.964Z</time></trkpt><trkpt lat="44.1812460960712" lon="11.698191601293255"><ele>162.0</ele><time>2026-05-02T10:14:13.965Z</time></trkpt><trkpt lat="44.18139673085895" lon="11.698392179947493"><ele>162.0</ele><time>2026-05-02T10:14:14.965Z</time></trkpt><trkpt lat="44.18156550415744" lon="11.698582718599237"><ele>162.0</ele><time>2026-05-02T10:14:15.965Z</time></trkpt><trkpt lat="44.18175256798736" lon="11.698763089901107"><ele>162.0</ele><time>2026-05-02T10:14:16.964Z</time></trkpt><trkpt lat="44.1819510155373" lon="11.698930582238898"><ele>162.0</ele><time>2026-05-02T10:14:17.964Z</time></trkpt><trkpt lat="44.18214943910304" lon="11.69908831067342"><ele>162.0</ele><time>2026-05-02T10:14:18.964Z</time></trkpt><trkpt lat="44.18234659093193" lon="11.69926217137926"><ele>159.0</ele><time>2026-05-02T10:14:19.964Z</time></trkpt><trkpt lat="44.182533767765186" lon="11.699418755666072"><ele>156.0</ele><time>2026-05-02T10:14:20.964Z</time></trkpt><trkpt lat="44.1827243479447" lon="11.69959737046889"><ele>153.0</ele><time>2026-05-02T10:14:21.964Z</time></trkpt><trkpt lat="44.182912836378435" lon="11.69977889982679"><ele>153.0</ele><time>2026-05-02T10:14:22.964Z</time></trkpt><trkpt lat="44.18311335265229" lon="11.699953535737064"><ele>153.0</ele><time>2026-05-02T10:14:23.964Z</time></trkpt><trkpt lat="44.18332149352265" lon="11.700122898160826"><ele>149.0</ele><time>2026-05-02T10:14:24.964Z</time></trkpt><trkpt lat="44.183537120651366" lon="11.700296045738773"><ele>145.0</ele><time>2026-05-02T10:14:25.964Z</time></trkpt><trkpt lat="44.18373995841708" lon="11.700466555474053"><ele>145.0</ele><time>2026-05-02T10:14:26.964Z</time></trkpt><trkpt lat="44.18392783601213" lon="11.700626963035099"><ele>145.0</ele><time>2026-05-02T10:14:27.964Z</time></trkpt><trkpt lat="44.184100652979275" lon="11.700771490453915"><ele>145.0</ele><time>2026-05-02T10:14:28.964Z</time></trkpt><trkpt lat="44.184267828791185" lon="11.700896175209275"><ele>147.66666666666669</ele><time>2026-05-02T10:14:29.964Z</time></trkpt><trkpt lat="44.184442756963215" lon="11.700978081962475"><ele>150.33333333333334</ele><time>2026-05-02T10:14:30.964Z</time></trkpt><trkpt lat="44.18462408777476" lon="11.701009348402444"><ele>153.0</ele><time>2026-05-02T10:14:31.964Z</time></trkpt><trkpt lat="44.1848337316702" lon="11.701001556843707"><ele>152.0</ele><time>2026-05-02T10:14:32.964Z</time></trkpt><trkpt lat="44.185046064950185" lon="11.700961242262117"><ele>151.0</ele><time>2026-05-02T10:14:33.964Z</time></trkpt><trkpt lat="44.18524292519639" lon="11.700923554419434"><ele>150.0</ele><time>2026-05-02T10:14:34.964Z</time></trkpt><trkpt lat="44.185428661102684" lon="11.700903570615326"><ele>150.0</ele><time>2026-05-02T10:14:35.964Z</time></trkpt><trkpt lat="44.18559178430231" lon="11.700977783707556"><ele>150.0</ele><time>2026-05-02T10:14:36.964Z</time></trkpt><trkpt lat="44.18575776071342" lon="11.701072106837033"><ele>150.0</ele><time>2026-05-02T10:14:37.964Z</time></trkpt><trkpt lat="44.185930857628335" lon="11.70119377319634"><ele>147.0</ele><time>2026-05-02T10:14:38.964Z</time></trkpt><trkpt lat="44.18611541301509" lon="11.701308655431772"><ele>144.0</ele><time>2026-05-02T10:14:39.964Z</time></trkpt><trkpt lat="44.18629666322436" lon="11.70144576373013"><ele>141.0</ele><time>2026-05-02T10:14:40.964Z</time></trkpt><trkpt lat="44.1864656864395" lon="11.701593327043762"><ele>142.0</ele><time>2026-05-02T10:14:41.964Z</time></trkpt><trkpt lat="44.18662136713338" lon="11.701789275740387"><ele>143.0</ele><time>2026-05-02T10:14:42.964Z</time></trkpt><trkpt lat="44.186782829622814" lon="11.701967243899325"><ele>144.0</ele><time>2026-05-02T10:14:43.964Z</time></trkpt><trkpt lat="44.18692115908419" lon="11.70217534502649"><ele>144.0</ele><time>2026-05-02T10:14:44.964Z</time></trkpt><trkpt lat="44.187032069635436" lon="11.70243679908583"><ele>144.0</ele><time>2026-05-02T10:14:45.964Z</time></trkpt><trkpt lat="44.18716234817473" lon="11.702680346557388"><ele>144.0</ele><time>2026-05-02T10:14:46.964Z</time></trkpt><trkpt lat="44.18727143462285" lon="11.702939280280042"><ele>146.66666666666666</ele><time>2026-05-02T10:14:47.964Z</time></trkpt><trkpt lat="44.187381785809904" lon="11.703204100887596"><ele>149.33333333333331</ele><time>2026-05-02T10:14:48.964Z</time></trkpt><trkpt lat="44.18749009933552" lon="11.703465227383353"><ele>152.0</ele><time>2026-05-02T10:14:49.964Z</time></trkpt><trkpt lat="44.187593525724964" lon="11.70371347396008"><ele>152.66666666666666</ele><time>2026-05-02T10:14:50.964Z</time></trkpt><trkpt lat="44.187699122704075" lon="11.703970747416198"><ele>153.33333333333334</ele><time>2026-05-02T10:14:51.964Z</time></trkpt><trkpt lat="44.18780065800211" lon="11.704214269940893"><ele>154.0</ele><time>2026-05-02T10:14:52.964Z</time></trkpt><trkpt lat="44.18789440422487" lon="11.704444440520215"><ele>154.33333333333334</ele><time>2026-05-02T10:14:53.964Z</time></trkpt><trkpt lat="44.18798811964392" lon="11.704679308608336"><ele>154.66666666666666</ele><time>2026-05-02T10:14:54.964Z</time></trkpt><trkpt lat="44.188077420726785" lon="11.704890855206624"><ele>155.0</ele><time>2026-05-02T10:14:55.964Z</time></trkpt><trkpt lat="44.18815385920715" lon="11.70509579025487"><ele>156.0</ele><time>2026-05-02T10:14:56.964Z</time></trkpt><trkpt lat="44.18821544817299" lon="11.705295952277487"><ele>157.0</ele><time>2026-05-02T10:14:57.964Z</time></trkpt><trkpt lat="44.18826244335976" lon="11.705486981935898"><ele>158.0</ele><time>2026-05-02T10:14:58.964Z</time></trkpt><trkpt lat="44.188324057401935" lon="11.705657734688016"><ele>159.0</ele><time>2026-05-02T10:14:59.964Z</time></trkpt><trkpt lat="44.188402509559104" lon="11.705814609778784"><ele>159.0</ele><time>2026-05-02T10:15:00.964Z</time></trkpt><trkpt lat="44.18847343467527" lon="11.70596989603107"><ele>159.0</ele><time>2026-05-02T10:15:01.964Z</time></trkpt><trkpt lat="44.18855661793159" lon="11.70611867126071"><ele>159.0</ele><time>2026-05-02T10:15:02.964Z</time></trkpt><trkpt lat="44.188640527368726" lon="11.706273460361153"><ele>159.0</ele><time>2026-05-02T10:15:03.964Z</time></trkpt><trkpt lat="44.188721261015694" lon="11.706425581919087"><ele>158.5</ele><time>2026-05-02T10:15:04.964Z</time></trkpt><trkpt lat="44.18879652298789" lon="11.706568503570674"><ele>158.0</ele><time>2026-05-02T10:15:05.964Z</time></trkpt><trkpt lat="44.18887718905274" lon="11.7067142373461"><ele>157.5</ele><time>2026-05-02T10:15:06.964Z</time></trkpt><trkpt lat="44.188955350860034" lon="11.706868280671818"><ele>157.0</ele><time>2026-05-02T10:15:07.964Z</time></trkpt><trkpt lat="44.189034031149966" lon="11.707029022677622"><ele>157.0</ele><time>2026-05-02T10:15:08.964Z</time></trkpt><trkpt lat="44.18910846851683" lon="11.707198159166339"><ele>157.0</ele><time>2026-05-02T10:15:09.964Z</time></trkpt><trkpt lat="44.18918598202887" lon="11.707378291381149"><ele>157.0</ele><time>2026-05-02T10:15:10.964Z</time></trkpt><trkpt lat="44.18926372955042" lon="11.707572425015417"><ele>156.0</ele><time>2026-05-02T10:15:11.964Z</time></trkpt><trkpt lat="44.189359003628844" lon="11.70777187865387"><ele>155.0</ele><time>2026-05-02T10:15:12.964Z</time></trkpt><trkpt lat="44.18946624953491" lon="11.707982413294568"><ele>154.0</ele><time>2026-05-02T10:15:13.964Z</time></trkpt><trkpt lat="44.18958644737928" lon="11.70820298963998"><ele>154.0</ele><time>2026-05-02T10:15:14.964Z</time></trkpt><trkpt lat="44.18972204913876" lon="11.70843537321023"><ele>154.0</ele><time>2026-05-02T10:15:15.964Z</time></trkpt><trkpt lat="44.189854908774706" lon="11.70866214253341"><ele>154.0</ele><time>2026-05-02T10:15:16.964Z</time></trkpt><trkpt lat="44.18999418438302" lon="11.708868523858014"><ele>153.33333333333334</ele><time>2026-05-02T10:15:17.964Z</time></trkpt><trkpt lat="44.190140825407994" lon="11.709059784807506"><ele>152.66666666666666</ele><time>2026-05-02T10:15:18.964Z</time></trkpt><trkpt lat="44.19031601045625" lon="11.70921713658054"><ele>152.0</ele><time>2026-05-02T10:15:19.964Z</time></trkpt><trkpt lat="44.190502381763224" lon="11.709354148523355"><ele>150.0</ele><time>2026-05-02T10:15:20.964Z</time></trkpt><trkpt lat="44.19068613106636" lon="11.70952345757769"><ele>148.0</ele><time>2026-05-02T10:15:21.964Z</time></trkpt><trkpt lat="44.1908468968335" lon="11.709719772194932"><ele>146.0</ele><time>2026-05-02T10:15:22.964Z</time></trkpt><trkpt lat="44.19099495139229" lon="11.709929774988806"><ele>146.0</ele><time>2026-05-02T10:15:23.964Z</time></trkpt><trkpt lat="44.19113906125439" lon="11.710119239142209"><ele>146.0</ele><time>2026-05-02T10:15:24.964Z</time></trkpt><trkpt lat="44.191291835869194" lon="11.710293912035565"><ele>146.0</ele><time>2026-05-02T10:15:25.964Z</time></trkpt><trkpt lat="44.19146048526154" lon="11.71044284468593"><ele>143.66666666666666</ele><time>2026-05-02T10:15:26.964Z</time></trkpt><trkpt lat="44.191644606630646" lon="11.710569777912875"><ele>141.33333333333334</ele><time>2026-05-02T10:15:27.964Z</time></trkpt><trkpt lat="44.19182998077772" lon="11.71068627887293"><ele>139.0</ele><time>2026-05-02T10:15:28.964Z</time></trkpt><trkpt lat="44.19200899138381" lon="11.710799023804512"><ele>139.0</ele><time>2026-05-02T10:15:29.964Z</time></trkpt><trkpt lat="44.1921905136205" lon="11.710911940660807"><ele>139.0</ele><time>2026-05-02T10:15:30.964Z</time></trkpt><trkpt lat="44.19237068365574" lon="11.71102664489815"><ele>139.0</ele><time>2026-05-02T10:15:31.964Z</time></trkpt><trkpt lat="44.19254758745377" lon="11.71114600055266"><ele>139.66666666666669</ele><time>2026-05-02T10:15:32.964Z</time></trkpt><trkpt lat="44.19271783881698" lon="11.711279363140708"><ele>140.33333333333334</ele><time>2026-05-02T10:15:33.964Z</time></trkpt><trkpt lat="44.192879287991495" lon="11.711435615521205"><ele>141.0</ele><time>2026-05-02T10:15:34.964Z</time></trkpt><trkpt lat="44.19303226131602" lon="11.711617892778046"><ele>140.33333333333334</ele><time>2026-05-02T10:15:35.964Z</time></trkpt><trkpt lat="44.19317507159035" lon="11.711835035682432"><ele>139.66666666666669</ele><time>2026-05-02T10:15:36.964Z</time></trkpt><trkpt lat="44.193313019635355" lon="11.712055038251084"><ele>139.0</ele><time>2026-05-02T10:15:37.964Z</time></trkpt><trkpt lat="44.19344651332409" lon="11.71227606006329"><ele>139.0</ele><time>2026-05-02T10:15:38.964Z</time></trkpt><trkpt lat="44.19357563219319" lon="11.712489910521573"><ele>139.0</ele><time>2026-05-02T10:15:39.964Z</time></trkpt><trkpt lat="44.19370793807228" lon="11.712707212642327"><ele>139.0</ele><time>2026-05-02T10:15:40.964Z</time></trkpt><trkpt lat="44.19384479948758" lon="11.712919739969456"><ele>141.0</ele><time>2026-05-02T10:15:41.964Z</time></trkpt><trkpt lat="44.19397571668168" lon="11.713148207832328"><ele>143.0</ele><time>2026-05-02T10:15:42.964Z</time></trkpt><trkpt lat="44.19410841126823" lon="11.713367721387733"><ele>145.0</ele><time>2026-05-02T10:15:43.964Z</time></trkpt><trkpt lat="44.19423928791492" lon="11.713577255288774"><ele>140.66666666666669</ele><time>2026-05-02T10:15:44.964Z</time></trkpt><trkpt lat="44.194366540226156" lon="11.713788563079868"><ele>136.33333333333334</ele><time>2026-05-02T10:15:45.964Z</time></trkpt><trkpt lat="44.19448933435188" lon="11.713992854924582"><ele>132.0</ele><time>2026-05-02T10:15:46.964Z</time></trkpt><trkpt lat="44.19460481853149" lon="11.714186289372977"><ele>132.0</ele><time>2026-05-02T10:15:47.964Z</time></trkpt><trkpt lat="44.19471390551743" lon="11.714375863543028"><ele>132.0</ele><time>2026-05-02T10:15:48.964Z</time></trkpt><trkpt lat="44.194813682865686" lon="11.71455641752744"><ele>132.0</ele><time>2026-05-02T10:15:49.964Z</time></trkpt><trkpt lat="44.194908980443614" lon="11.714733045975173"><ele>135.25</ele><time>2026-05-02T10:15:50.964Z</time></trkpt><trkpt lat="44.1949935811802" lon="11.714908550224497"><ele>138.5</ele><time>2026-05-02T10:15:51.964Z</time></trkpt><trkpt lat="44.19507737033072" lon="11.715066578636977"><ele>141.75</ele><time>2026-05-02T10:15:52.964Z</time></trkpt><trkpt lat="44.195159723215376" lon="11.715214636810556"><ele>145.0</ele><time>2026-05-02T10:15:53.964Z</time></trkpt><trkpt lat="44.195236581601414" lon="11.715358061842801"><ele>145.0</ele><time>2026-05-02T10:15:54.964Z</time></trkpt><trkpt lat="44.195297147418415" lon="11.715494872459232"><ele>145.0</ele><time>2026-05-02T10:15:55.964Z</time></trkpt><trkpt lat="44.19535866397234" lon="11.715619583931755"><ele>145.0</ele><time>2026-05-02T10:15:56.964Z</time></trkpt><trkpt lat="44.19542469082052" lon="11.715737819555557"><ele>145.0</ele><time>2026-05-02T10:15:57.964Z</time></trkpt><trkpt lat="44.19549658309236" lon="11.715860901634553"><ele>145.0</ele><time>2026-05-02T10:15:58.964Z</time></trkpt><trkpt lat="44.195591189026615" lon="11.71595929062268"><ele>145.25</ele><time>2026-05-02T10:15:59.964Z</time></trkpt><trkpt lat="44.195692649242055" lon="11.716075902982766"><ele>145.5</ele><time>2026-05-02T10:16:00.964Z</time></trkpt><trkpt lat="44.19579367817489" lon="11.716201522417856"><ele>145.75</ele><time>2026-05-02T10:16:01.964Z</time></trkpt><trkpt lat="44.19589026101793" lon="11.716338302689362"><ele>146.0</ele><time>2026-05-02T10:16:02.964Z</time></trkpt><trkpt lat="44.19598636756527" lon="11.716466569334418"><ele>146.0</ele><time>2026-05-02T10:16:03.964Z</time></trkpt><trkpt lat="44.1960739161116" lon="11.716582773940695"><ele>146.0</ele><time>2026-05-02T10:16:04.964Z</time></trkpt><trkpt lat="44.19616288712071" lon="11.716704767971104"><ele>146.0</ele><time>2026-05-02T10:16:05.964Z</time></trkpt><trkpt lat="44.19626595397758" lon="11.716843600011563"><ele>146.0</ele><time>2026-05-02T10:16:06.964Z</time></trkpt><trkpt lat="44.196335649480275" lon="11.71701863976126"><ele>146.25</ele><time>2026-05-02T10:16:07.964Z</time></trkpt><trkpt lat="44.19641617125536" lon="11.717190325233558"><ele>146.5</ele><time>2026-05-02T10:16:08.964Z</time></trkpt><trkpt lat="44.196505706896154" lon="11.7173556590087"><ele>146.75</ele><time>2026-05-02T10:16:09.963Z</time></trkpt><trkpt lat="44.19657771212367" lon="11.717540911665258"><ele>147.0</ele><time>2026-05-02T10:16:10.962Z</time></trkpt><trkpt lat="44.19662161842604" lon="11.717758758887086"><ele>147.0</ele><time>2026-05-02T10:16:11.962Z</time></trkpt><trkpt lat="44.19667043737998" lon="11.717977027973962"><ele>147.0</ele><time>2026-05-02T10:16:12.962Z</time></trkpt><trkpt lat="44.196729303382895" lon="11.718183260909743"><ele>147.0</ele><time>2026-05-02T10:16:13.962Z</time></trkpt><trkpt lat="44.196757933038405" lon="11.718391324885209"><ele>144.33333333333334</ele><time>2026-05-02T10:16:14.962Z</time></trkpt><trkpt lat="44.19680076157556" lon="11.718592657477847"><ele>141.66666666666669</ele><time>2026-05-02T10:16:15.962Z</time></trkpt><trkpt lat="44.196846200814306" lon="11.718793650235092"><ele>139.0</ele><time>2026-05-02T10:16:16.962Z</time></trkpt><trkpt lat="44.19689330229515" lon="11.71899988888802"><ele>139.0</ele><time>2026-05-02T10:16:17.962Z</time></trkpt><trkpt lat="44.196948747940986" lon="11.719213399539385"><ele>139.0</ele><time>2026-05-02T10:16:18.962Z</time></trkpt><trkpt lat="44.19700520431326" lon="11.71942003316931"><ele>139.0</ele><time>2026-05-02T10:16:19.962Z</time></trkpt><trkpt lat="44.19707227192572" lon="11.719637581198327"><ele>137.66666666666669</ele><time>2026-05-02T10:16:20.962Z</time></trkpt><trkpt lat="44.197148168362276" lon="11.719860199673844"><ele>136.33333333333334</ele><time>2026-05-02T10:16:21.962Z</time></trkpt><trkpt lat="44.197227822245345" lon="11.720088562384786"><ele>135.0</ele><time>2026-05-02T10:16:22.961Z</time></trkpt><trkpt lat="44.19730914932199" lon="11.720319011221346"><ele>137.0</ele><time>2026-05-02T10:16:23.961Z</time></trkpt><trkpt lat="44.19738864949098" lon="11.720544283318192"><ele>139.0</ele><time>2026-05-02T10:16:24.961Z</time></trkpt><trkpt lat="44.19746725431277" lon="11.720768564170154"><ele>141.0</ele><time>2026-05-02T10:16:25.961Z</time></trkpt><trkpt lat="44.197546188752256" lon="11.721000045361013"><ele>140.66666666666666</ele><time>2026-05-02T10:16:26.961Z</time></trkpt><trkpt lat="44.19762237624562" lon="11.721234408569886"><ele>140.33333333333331</ele><time>2026-05-02T10:16:27.961Z</time></trkpt><trkpt lat="44.197695858219056" lon="11.72147097052096"><ele>140.0</ele><time>2026-05-02T10:16:28.961Z</time></trkpt><trkpt lat="44.19776802455334" lon="11.72169990397459"><ele>138.33333333333331</ele><time>2026-05-02T10:16:29.961Z</time></trkpt><trkpt lat="44.1978442471568" lon="11.721915605709748"><ele>136.66666666666666</ele><time>2026-05-02T10:16:30.961Z</time></trkpt><trkpt lat="44.19794112915761" lon="11.722111594975944"><ele>135.0</ele><time>2026-05-02T10:16:31.961Z</time></trkpt><trkpt lat="44.198037290161565" lon="11.722322497410392"><ele>135.0</ele><time>2026-05-02T10:16:32.961Z</time></trkpt><trkpt lat="44.19813938317365" lon="11.722526615391835"><ele>135.0</ele><time>2026-05-02T10:16:33.961Z</time></trkpt><trkpt lat="44.1982405821066" lon="11.722728764398722"><ele>135.0</ele><time>2026-05-02T10:16:34.961Z</time></trkpt><trkpt lat="44.19834282941191" lon="11.722927965660354"><ele>134.66666666666666</ele><time>2026-05-02T10:16:35.961Z</time></trkpt><trkpt lat="44.19844579738547" lon="11.723127025736487"><ele>134.33333333333331</ele><time>2026-05-02T10:16:36.961Z</time></trkpt><trkpt lat="44.19853918601596" lon="11.723345346640782"><ele>134.0</ele><time>2026-05-02T10:16:37.961Z</time></trkpt><trkpt lat="44.198657811645326" lon="11.723536545538796"><ele>133.33333333333331</ele><time>2026-05-02T10:16:38.961Z</time></trkpt><trkpt lat="44.198763530715475" lon="11.723742951619887"><ele>132.66666666666666</ele><time>2026-05-02T10:16:39.961Z</time></trkpt><trkpt lat="44.19885732562675" lon="11.723963433524007"><ele>132.0</ele><time>2026-05-02T10:16:40.961Z</time></trkpt><trkpt lat="44.1989638290746" lon="11.72416802549558"><ele>133.33333333333334</ele><time>2026-05-02T10:16:41.961Z</time></trkpt><trkpt lat="44.199083040087075" lon="11.724352451614413"><ele>134.66666666666669</ele><time>2026-05-02T10:16:42.961Z</time></trkpt><trkpt lat="44.199174323401046" lon="11.72455314532569"><ele>136.0</ele><time>2026-05-02T10:16:43.961Z</time></trkpt><trkpt lat="44.19928761913513" lon="11.724726209990932"><ele>136.0</ele><time>2026-05-02T10:16:44.961Z</time></trkpt><trkpt lat="44.199382482351226" lon="11.72490684321389"><ele>136.0</ele><time>2026-05-02T10:16:45.961Z</time></trkpt><trkpt lat="44.199506217848" lon="11.725076457906559"><ele>136.0</ele><time>2026-05-02T10:16:46.961Z</time></trkpt><trkpt lat="44.19959960563957" lon="11.725259825725324"><ele>135.0</ele><time>2026-05-02T10:16:47.961Z</time></trkpt><trkpt lat="44.19970189155272" lon="11.725458419410828"><ele>134.0</ele><time>2026-05-02T10:16:48.961Z</time></trkpt><trkpt lat="44.199773933534544" lon="11.725681974699661"><ele>133.0</ele><time>2026-05-02T10:16:49.961Z</time></trkpt><trkpt lat="44.19985690300668" lon="11.725894590269352"><ele>133.0</ele><time>2026-05-02T10:16:50.961Z</time></trkpt><trkpt lat="44.19995310289021" lon="11.726094371008879"><ele>133.0</ele><time>2026-05-02T10:16:51.961Z</time></trkpt><trkpt lat="44.20001846446262" lon="11.726311470322539"><ele>133.0</ele><time>2026-05-02T10:16:52.961Z</time></trkpt><trkpt lat="44.20010115219605" lon="11.726506632897685"><ele>133.0</ele><time>2026-05-02T10:16:53.961Z</time></trkpt><trkpt lat="44.20020042624767" lon="11.72668247406856"><ele>133.0</ele><time>2026-05-02T10:16:54.961Z</time></trkpt><trkpt lat="44.20028615053769" lon="11.726863436323754"><ele>133.0</ele><time>2026-05-02T10:16:55.961Z</time></trkpt><trkpt lat="44.20036788806513" lon="11.727025502684226"><ele>131.5</ele><time>2026-05-02T10:16:56.961Z</time></trkpt><trkpt lat="44.200448652834176" lon="11.727180422958732"><ele>130.0</ele><time>2026-05-02T10:16:57.961Z</time></trkpt><trkpt lat="44.200520411408554" lon="11.727332547700325"><ele>128.5</ele><time>2026-05-02T10:16:58.961Z</time></trkpt><trkpt lat="44.20059056794889" lon="11.727471443091927"><ele>127.0</ele><time>2026-05-02T10:16:59.961Z</time></trkpt><trkpt lat="44.200653500803575" lon="11.727617264042504"><ele>128.25</ele><time>2026-05-02T10:17:00.961Z</time></trkpt><trkpt lat="44.20072360657719" lon="11.727763544909616"><ele>129.5</ele><time>2026-05-02T10:17:01.961Z</time></trkpt><trkpt lat="44.200790316428005" lon="11.727909375937015"><ele>130.75</ele><time>2026-05-02T10:17:02.961Z</time></trkpt><trkpt lat="44.20085554960097" lon="11.728047779175785"><ele>132.0</ele><time>2026-05-02T10:17:03.961Z</time></trkpt><trkpt lat="44.200919140971386" lon="11.728187091659507"><ele>132.0</ele><time>2026-05-02T10:17:04.961Z</time></trkpt><trkpt lat="44.20098660142797" lon="11.728330014523648"><ele>132.0</ele><time>2026-05-02T10:17:05.961Z</time></trkpt><trkpt lat="44.20105385388946" lon="11.72846042063769"><ele>132.0</ele><time>2026-05-02T10:17:06.961Z</time></trkpt><trkpt lat="44.20112359424831" lon="11.728580150310266"><ele>132.0</ele><time>2026-05-02T10:17:07.961Z</time></trkpt><trkpt lat="44.20119193008792" lon="11.728682533348323"><ele>132.0</ele><time>2026-05-02T10:17:08.961Z</time></trkpt><trkpt lat="44.201278175982715" lon="11.728781985689947"><ele>131.0</ele><time>2026-05-02T10:17:09.961Z</time></trkpt><trkpt lat="44.20137916012727" lon="11.728852854179546"><ele>130.0</ele><time>2026-05-02T10:17:10.961Z</time></trkpt><trkpt lat="44.201500126394656" lon="11.728878557212346"><ele>129.0</ele><time>2026-05-02T10:17:11.961Z</time></trkpt><trkpt lat="44.2016181884197" lon="11.728904345706118"><ele>128.0</ele><time>2026-05-02T10:17:12.961Z</time></trkpt><trkpt lat="44.20174528508226" lon="11.728924903515875"><ele>128.0</ele><time>2026-05-02T10:17:13.961Z</time></trkpt><trkpt lat="44.20186580025927" lon="11.7289481815233"><ele>128.0</ele><time>2026-05-02T10:17:14.961Z</time></trkpt><trkpt lat="44.201982958088315" lon="11.728971655850223"><ele>128.0</ele><time>2026-05-02T10:17:15.961Z</time></trkpt><trkpt lat="44.20209943416985" lon="11.728991427672318"><ele>128.0</ele><time>2026-05-02T10:17:16.961Z</time></trkpt><trkpt lat="44.20221060876591" lon="11.729010556877517"><ele>128.0</ele><time>2026-05-02T10:17:17.961Z</time></trkpt><trkpt lat="44.20231430900403" lon="11.729027915668903"><ele>128.0</ele><time>2026-05-02T10:17:18.961Z</time></trkpt><trkpt lat="44.20240853803344" lon="11.729050918322983"><ele>128.0</ele><time>2026-05-02T10:17:19.961Z</time></trkpt><trkpt lat="44.20250509561514" lon="11.72906682285671"><ele>128.0</ele><time>2026-05-02T10:17:20.961Z</time></trkpt><trkpt lat="44.2025922006146" lon="11.729074794479894"><ele>128.0</ele><time>2026-05-02T10:17:21.961Z</time></trkpt><trkpt lat="44.20266691773739" lon="11.729097618159065"><ele>128.16666666666666</ele><time>2026-05-02T10:17:22.961Z</time></trkpt><trkpt lat="44.2027361857732" lon="11.72910994744424"><ele>128.33333333333331</ele><time>2026-05-02T10:17:23.961Z</time></trkpt><trkpt lat="44.20281655820564" lon="11.729125669380787"><ele>128.5</ele><time>2026-05-02T10:17:24.961Z</time></trkpt><trkpt lat="44.202886848866754" lon="11.729146074773949"><ele>128.66666666666666</ele><time>2026-05-02T10:17:25.961Z</time></trkpt><trkpt lat="44.202960560764126" lon="11.729184513578877"><ele>128.83333333333334</ele><time>2026-05-02T10:17:26.961Z</time></trkpt><trkpt lat="44.203037274763076" lon="11.729249219677083"><ele>129.0</ele><time>2026-05-02T10:17:27.961Z</time></trkpt><trkpt lat="44.20310251600212" lon="11.729345705603928"><ele>129.8</ele><time>2026-05-02T10:17:28.961Z</time></trkpt><trkpt lat="44.20314984384032" lon="11.729464067797528"><ele>130.60000000000002</ele><time>2026-05-02T10:17:29.961Z</time></trkpt><trkpt lat="44.20319978446842" lon="11.729606677356061"><ele>131.4</ele><time>2026-05-02T10:17:30.961Z</time></trkpt><trkpt lat="44.20324241645532" lon="11.729746522578406"><ele>132.20000000000002</ele><time>2026-05-02T10:17:31.961Z</time></trkpt><trkpt lat="44.20329281081199" lon="11.729904830714123"><ele>133.0</ele><time>2026-05-02T10:17:32.961Z</time></trkpt><trkpt lat="44.20334953094489" lon="11.730075047223172"><ele>132.0</ele><time>2026-05-02T10:17:33.961Z</time></trkpt><trkpt lat="44.203407638409175" lon="11.73024469998389"><ele>131.0</ele><time>2026-05-02T10:17:34.961Z</time></trkpt><trkpt lat="44.20343475501742" lon="11.73041230904045"><ele>130.0</ele><time>2026-05-02T10:17:35.961Z</time></trkpt><trkpt lat="44.20351111270151" lon="11.730556727154257"><ele>129.0</ele><time>2026-05-02T10:17:36.961Z</time></trkpt><trkpt lat="44.203581504788964" lon="11.730673658331462"><ele>129.0</ele><time>2026-05-02T10:17:37.961Z</time></trkpt><trkpt lat="44.203646036868946" lon="11.730769579634595"><ele>129.0</ele><time>2026-05-02T10:17:38.961Z</time></trkpt><trkpt lat="44.20370635684135" lon="11.730860905200196"><ele>129.0</ele><time>2026-05-02T10:17:39.961Z</time></trkpt><trkpt lat="44.20376052916326" lon="11.730958976776702"><ele>129.0</ele><time>2026-05-02T10:17:40.961Z</time></trkpt><trkpt lat="44.20380910058845" lon="11.731040167716774"><ele>129.0</ele><time>2026-05-02T10:17:41.961Z</time></trkpt><trkpt lat="44.20383877892546" lon="11.731132205301847"><ele>129.0</ele><time>2026-05-02T10:17:43.961Z</time></trkpt><trkpt lat="44.20384737370271" lon="11.731231068487944"><ele>128.2</ele><time>2026-05-02T10:17:47.961Z</time></trkpt><trkpt lat="44.20389155109769" lon="11.73135946842848"><ele>127.4</ele><time>2026-05-02T10:18:54.96Z</time></trkpt><trkpt lat="44.203849029890215" lon="11.731485985076393"><ele>126.6</ele><time>2026-05-02T10:18:57.96Z</time></trkpt><trkpt lat="44.20379271413752" lon="11.731584818774651"><ele>125.8</ele><time>2026-05-02T10:18:59.96Z</time></trkpt><trkpt lat="44.20374094103447" lon="11.731677099167058"><ele>125.0</ele><time>2026-05-02T10:19:01.96Z</time></trkpt><trkpt lat="44.203690548033414" lon="11.731763580276036"><ele>124.99999999999999</ele><time>2026-05-02T10:19:03.96Z</time></trkpt><trkpt lat="44.20362382270038" lon="11.731824390465334"><ele>125.0</ele><time>2026-05-02T10:19:05.96Z</time></trkpt><trkpt lat="44.20358037262768" lon="11.731917936300007"><ele>125.0</ele><time>2026-05-02T10:19:07.96Z</time></trkpt><trkpt lat="44.203531276885386" lon="11.732029748755393"><ele>125.0</ele><time>2026-05-02T10:19:09.96Z</time></trkpt><trkpt lat="44.203582118330345" lon="11.732133568228914"><ele>124.99999999999999</ele><time>2026-05-02T10:19:10.96Z</time></trkpt><trkpt lat="44.20364581148997" lon="11.732211160132731"><ele>125.0</ele><time>2026-05-02T10:19:12.96Z</time></trkpt><trkpt lat="44.20370114377318" lon="11.732280947499973"><ele>124.6</ele><time>2026-05-02T10:19:14.96Z</time></trkpt><trkpt lat="44.20375832796951" lon="11.732334751463886"><ele>124.2</ele><time>2026-05-02T10:19:15.96Z</time></trkpt><trkpt lat="44.20381001227666" lon="11.732403839546583"><ele>123.80000000000001</ele><time>2026-05-02T10:19:16.96Z</time></trkpt><trkpt lat="44.20384218910752" lon="11.732483871653466"><ele>123.4</ele><time>2026-05-02T10:19:17.96Z</time></trkpt><trkpt lat="44.20394458812632" lon="11.73257850094485"><ele>123.0</ele><time>2026-05-02T10:19:19.96Z</time></trkpt><trkpt lat="44.20403894846042" lon="11.73268374422754"><ele>123.5</ele><time>2026-05-02T10:19:21.96Z</time></trkpt><trkpt lat="44.20409044952194" lon="11.732740618300628"><ele>124.0</ele><time>2026-05-02T10:19:22.96Z</time></trkpt><trkpt lat="44.20415293949365" lon="11.732795760980949"><ele>124.5</ele><time>2026-05-02T10:19:23.96Z</time></trkpt><trkpt lat="44.2041887217998" lon="11.732914161819636"><ele>125.0</ele><time>2026-05-02T10:19:24.96Z</time></trkpt><trkpt lat="44.20424770366339" lon="11.732981316846098"><ele>125.5</ele><time>2026-05-02T10:19:25.96Z</time></trkpt><trkpt lat="44.20430764997956" lon="11.733043626600557"><ele>126.0</ele><time>2026-05-02T10:19:26.96Z</time></trkpt><trkpt lat="44.204374654606546" lon="11.733111411333192"><ele>126.0</ele><time>2026-05-02T10:19:27.96Z</time></trkpt><trkpt lat="44.204443712883496" lon="11.733169755141917"><ele>126.0</ele><time>2026-05-02T10:19:28.96Z</time></trkpt><trkpt lat="44.204511969617926" lon="11.733238611099777"><ele>126.0</ele><time>2026-05-02T10:19:29.96Z</time></trkpt><trkpt lat="44.20458740060527" lon="11.733300413189367"><ele>126.0</ele><time>2026-05-02T10:19:30.96Z</time></trkpt><trkpt lat="44.204660778259296" lon="11.73336274829347"><ele>126.0</ele><time>2026-05-02T10:19:31.96Z</time></trkpt><trkpt lat="44.20478021492702" lon="11.733396950759026"><ele>124.8</ele><time>2026-05-02T10:19:33.96Z</time></trkpt><trkpt lat="44.20488201749487" lon="11.73348286881268"><ele>123.6</ele><time>2026-05-02T10:19:35.96Z</time></trkpt><trkpt lat="44.20494745826413" lon="11.733516996997933"><ele>122.4</ele><time>2026-05-02T10:19:36.96Z</time></trkpt><trkpt lat="44.20504586395787" lon="11.733611258116087"><ele>121.2</ele><time>2026-05-02T10:19:38.96Z</time></trkpt><trkpt lat="44.205102224595535" lon="11.733684559494826"><ele>120.0</ele><time>2026-05-02T10:19:39.96Z</time></trkpt><trkpt lat="44.20516245453053" lon="11.733770428860714"><ele>120.0</ele><time>2026-05-02T10:19:40.96Z</time></trkpt><trkpt lat="44.20523761034564" lon="11.73387214036998"><ele>120.0</ele><time>2026-05-02T10:19:41.96Z</time></trkpt><trkpt lat="44.20532861491954" lon="11.733946201356332"><ele>120.0</ele><time>2026-05-02T10:19:42.96Z</time></trkpt><trkpt lat="44.20539403045722" lon="11.734036787956613"><ele>120.0</ele><time>2026-05-02T10:19:43.96Z</time></trkpt><trkpt lat="44.205425295544394" lon="11.734170833942953"><ele>120.0</ele><time>2026-05-02T10:19:44.96Z</time></trkpt><trkpt lat="44.2054404185229" lon="11.734307934071136"><ele>119.2</ele><time>2026-05-02T10:19:45.96Z</time></trkpt><trkpt lat="44.205468441680964" lon="11.73445060441458"><ele>118.4</ele><time>2026-05-02T10:19:46.96Z</time></trkpt><trkpt lat="44.205490946204336" lon="11.734589606498512"><ele>117.6</ele><time>2026-05-02T10:19:47.96Z</time></trkpt><trkpt lat="44.205503974418065" lon="11.734737359865978"><ele>116.8</ele><time>2026-05-02T10:19:48.96Z</time></trkpt><trkpt lat="44.20551365253306" lon="11.73487845173774"><ele>116.0</ele><time>2026-05-02T10:19:49.96Z</time></trkpt><trkpt lat="44.205489519213195" lon="11.735026265810848"><ele>116.0</ele><time>2026-05-02T10:19:50.96Z</time></trkpt><trkpt lat="44.20545281068495" lon="11.735173779987194"><ele>116.0</ele><time>2026-05-02T10:19:51.96Z</time></trkpt><trkpt lat="44.20541448621011" lon="11.735315883639876"><ele>116.0</ele><time>2026-05-02T10:19:52.96Z</time></trkpt><trkpt lat="44.20535855272703" lon="11.735451026980861"><ele>116.0</ele><time>2026-05-02T10:19:53.96Z</time></trkpt><trkpt lat="44.20530660735267" lon="11.735595784793576"><ele>116.0</ele><time>2026-05-02T10:19:54.96Z</time></trkpt><trkpt lat="44.20525787075954" lon="11.735748920329867"><ele>116.5</ele><time>2026-05-02T10:19:55.96Z</time></trkpt><trkpt lat="44.20522525834588" lon="11.735895630372982"><ele>117.0</ele><time>2026-05-02T10:19:56.96Z</time></trkpt><trkpt lat="44.205187094018285" lon="11.736051392838776"><ele>117.5</ele><time>2026-05-02T10:19:57.96Z</time></trkpt><trkpt lat="44.20514535738732" lon="11.736210265539007"><ele>118.0</ele><time>2026-05-02T10:19:58.96Z</time></trkpt><trkpt lat="44.20510739179541" lon="11.736365076620592"><ele>119.0</ele><time>2026-05-02T10:19:59.96Z</time></trkpt><trkpt lat="44.20508515556036" lon="11.7365098082296"><ele>120.0</ele><time>2026-05-02T10:20:00.96Z</time></trkpt><trkpt lat="44.20507062898532" lon="11.736666469129554"><ele>121.0</ele><time>2026-05-02T10:20:01.96Z</time></trkpt><trkpt lat="44.205078797493584" lon="11.736833494977835"><ele>122.0</ele><time>2026-05-02T10:20:02.96Z</time></trkpt><trkpt lat="44.20509027572142" lon="11.737006744516124"><ele>123.5</ele><time>2026-05-02T10:20:03.96Z</time></trkpt><trkpt lat="44.20511605874517" lon="11.737194911924835"><ele>125.0</ele><time>2026-05-02T10:20:04.96Z</time></trkpt><trkpt lat="44.20512867330457" lon="11.737387940917912"><ele>126.5</ele><time>2026-05-02T10:20:05.96Z</time></trkpt><trkpt lat="44.205131530784655" lon="11.737589266754295"><ele>128.0</ele><time>2026-05-02T10:20:06.96Z</time></trkpt><trkpt lat="44.205156775773126" lon="11.737778385431362"><ele>128.0</ele><time>2026-05-02T10:20:07.96Z</time></trkpt><trkpt lat="44.20517514393576" lon="11.737974900004938"><ele>128.0</ele><time>2026-05-02T10:20:08.96Z</time></trkpt><trkpt lat="44.205159164602605" lon="11.73817421977563"><ele>128.0</ele><time>2026-05-02T10:20:09.96Z</time></trkpt><trkpt lat="44.205174609773366" lon="11.738361849696437"><ele>128.0</ele><time>2026-05-02T10:20:10.96Z</time></trkpt><trkpt lat="44.205192574048084" lon="11.738538524829996"><ele>127.60000000000001</ele><time>2026-05-02T10:20:11.96Z</time></trkpt><trkpt lat="44.205206468303885" lon="11.738701056820492"><ele>127.20000000000002</ele><time>2026-05-02T10:20:12.96Z</time></trkpt><trkpt lat="44.205219597760966" lon="11.738849860797355"><ele>126.8</ele><time>2026-05-02T10:20:13.96Z</time></trkpt><trkpt lat="44.20523254459644" lon="11.738986142809424"><ele>126.4</ele><time>2026-05-02T10:20:14.96Z</time></trkpt><trkpt lat="44.20524593175656" lon="11.739108383137125"><ele>126.0</ele><time>2026-05-02T10:20:15.96Z</time></trkpt><trkpt lat="44.20525793671934" lon="11.739215897574116"><ele>126.0</ele><time>2026-05-02T10:20:16.96Z</time></trkpt><trkpt lat="44.20527574643463" lon="11.739349869757278"><ele>126.0</ele><time>2026-05-02T10:20:18.96Z</time></trkpt><trkpt lat="44.20528501549686" lon="11.739450626669315"><ele>126.0</ele><time>2026-05-02T10:20:21.958Z</time></trkpt><trkpt lat="44.205286784051346" lon="11.739538627718536"><ele>126.0</ele><time>2026-05-02T10:20:23.958Z</time></trkpt><trkpt lat="44.205296361220476" lon="11.73964252453404"><ele>126.0</ele><time>2026-05-02T10:20:25.957Z</time></trkpt><trkpt lat="44.20531795499954" lon="11.739726677718274"><ele>126.0</ele><time>2026-05-02T10:20:27.958Z</time></trkpt><trkpt lat="44.20534475023047" lon="11.739826532306477"><ele>126.0</ele><time>2026-05-02T10:20:30.958Z</time></trkpt><trkpt lat="44.20539015243197" lon="11.739910792686262"><ele>125.83333333333333</ele><time>2026-05-02T10:20:48.957Z</time></trkpt><trkpt lat="44.20542210786193" lon="11.74003238179655"><ele>125.66666666666666</ele><time>2026-05-02T10:20:50.957Z</time></trkpt><trkpt lat="44.2054471497849" lon="11.740117318656095"><ele>125.5</ele><time>2026-05-02T10:20:51.957Z</time></trkpt><trkpt lat="44.205483257041415" lon="11.740218455019237"><ele>125.33333333333333</ele><time>2026-05-02T10:20:52.957Z</time></trkpt><trkpt lat="44.20552869162713" lon="11.74034013840179"><ele>125.16666666666666</ele><time>2026-05-02T10:20:53.957Z</time></trkpt><trkpt lat="44.20557747750294" lon="11.740470986006981"><ele>125.0</ele><time>2026-05-02T10:20:54.957Z</time></trkpt><trkpt lat="44.205630958870294" lon="11.740608674486738"><ele>125.25</ele><time>2026-05-02T10:20:55.957Z</time></trkpt><trkpt lat="44.205688020904304" lon="11.740760785389499"><ele>125.5</ele><time>2026-05-02T10:20:56.957Z</time></trkpt><trkpt lat="44.20574962184807" lon="11.740927540432683"><ele>125.75</ele><time>2026-05-02T10:20:57.957Z</time></trkpt><trkpt lat="44.20582262802885" lon="11.741114671424723"><ele>126.0</ele><time>2026-05-02T10:20:58.957Z</time></trkpt><trkpt lat="44.20588674560589" lon="11.741335237756932"><ele>125.33333333333334</ele><time>2026-05-02T10:20:59.957Z</time></trkpt><trkpt lat="44.205966976795864" lon="11.741554944784783"><ele>124.66666666666667</ele><time>2026-05-02T10:21:00.957Z</time></trkpt><trkpt lat="44.206055790826746" lon="11.741799135695203"><ele>124.0</ele><time>2026-05-02T10:21:01.957Z</time></trkpt><trkpt lat="44.20614754931922" lon="11.742051422252569"><ele>124.0</ele><time>2026-05-02T10:21:02.957Z</time></trkpt><trkpt lat="44.20624305143353" lon="11.742310347736526"><ele>124.0</ele><time>2026-05-02T10:21:03.957Z</time></trkpt><trkpt lat="44.206353778791225" lon="11.742560283779298"><ele>124.0</ele><time>2026-05-02T10:21:04.957Z</time></trkpt><trkpt lat="44.20644899167659" lon="11.742822763831601"><ele>124.33333333333334</ele><time>2026-05-02T10:21:05.957Z</time></trkpt><trkpt lat="44.20654110775125" lon="11.743070991144869"><ele>124.66666666666666</ele><time>2026-05-02T10:21:06.957Z</time></trkpt><trkpt lat="44.206614445818566" lon="11.743320599741315"><ele>125.0</ele><time>2026-05-02T10:21:07.957Z</time></trkpt><trkpt lat="44.20669850447539" lon="11.743552648733766"><ele>124.0</ele><time>2026-05-02T10:21:08.957Z</time></trkpt><trkpt lat="44.20677903383921" lon="11.7437876267575"><ele>123.0</ele><time>2026-05-02T10:21:09.957Z</time></trkpt><trkpt lat="44.20685724666288" lon="11.744020611047038"><ele>122.0</ele><time>2026-05-02T10:21:10.957Z</time></trkpt><trkpt lat="44.2069367116268" lon="11.744240064676324"><ele>122.66666666666666</ele><time>2026-05-02T10:21:11.957Z</time></trkpt><trkpt lat="44.20701776574733" lon="11.744446020934554"><ele>123.33333333333334</ele><time>2026-05-02T10:21:12.957Z</time></trkpt><trkpt lat="44.207098669871165" lon="11.74464307236098"><ele>124.0</ele><time>2026-05-02T10:21:13.957Z</time></trkpt><trkpt lat="44.207177931734904" lon="11.744836123938619"><ele>124.0</ele><time>2026-05-02T10:21:14.957Z</time></trkpt><trkpt lat="44.20725428954929" lon="11.745022102297469"><ele>124.0</ele><time>2026-05-02T10:21:15.957Z</time></trkpt><trkpt lat="44.207325484236335" lon="11.745195505322219"><ele>124.0</ele><time>2026-05-02T10:21:16.957Z</time></trkpt><trkpt lat="44.207391057304" lon="11.74535521617062"><ele>124.0</ele><time>2026-05-02T10:21:17.957Z</time></trkpt><trkpt lat="44.20746145422606" lon="11.745480068697876"><ele>124.25</ele><time>2026-05-02T10:21:18.957Z</time></trkpt><trkpt lat="44.2075037878549" lon="11.745620424765026"><ele>124.5</ele><time>2026-05-02T10:21:19.957Z</time></trkpt><trkpt lat="44.20756418110579" lon="11.745764008538936"><ele>124.75</ele><time>2026-05-02T10:21:20.957Z</time></trkpt><trkpt lat="44.20763616362303" lon="11.745918617818251"><ele>125.0</ele><time>2026-05-02T10:21:21.957Z</time></trkpt><trkpt lat="44.207727927969366" lon="11.746069599124525"><ele>124.33333333333333</ele><time>2026-05-02T10:21:22.957Z</time></trkpt><trkpt lat="44.207833351348874" lon="11.74621876279714"><ele>123.66666666666666</ele><time>2026-05-02T10:21:23.957Z</time></trkpt><trkpt lat="44.207948653314084" lon="11.746377171814979"><ele>123.0</ele><time>2026-05-02T10:21:24.957Z</time></trkpt><trkpt lat="44.20807457900684" lon="11.746534325409453"><ele>122.66666666666666</ele><time>2026-05-02T10:21:25.957Z</time></trkpt><trkpt lat="44.208207843016226" lon="11.746694759313163"><ele>122.33333333333333</ele><time>2026-05-02T10:21:26.957Z</time></trkpt><trkpt lat="44.20834543121508" lon="11.746857981203624"><ele>122.0</ele><time>2026-05-02T10:21:27.957Z</time></trkpt><trkpt lat="44.208476809907594" lon="11.747028471468957"><ele>121.33333333333333</ele><time>2026-05-02T10:21:28.957Z</time></trkpt><trkpt lat="44.20860375494541" lon="11.747206093932549"><ele>120.66666666666666</ele><time>2026-05-02T10:21:29.957Z</time></trkpt><trkpt lat="44.20873836042914" lon="11.747379628099267"><ele>120.0</ele><time>2026-05-02T10:21:30.957Z</time></trkpt><trkpt lat="44.208870662939646" lon="11.747560031692629"><ele>120.0</ele><time>2026-05-02T10:21:31.957Z</time></trkpt><trkpt lat="44.208994841992805" lon="11.74774583826814"><ele>120.0</ele><time>2026-05-02T10:21:32.957Z</time></trkpt><trkpt lat="44.2091178157436" lon="11.74794420490288"><ele>120.0</ele><time>2026-05-02T10:21:33.957Z</time></trkpt><trkpt lat="44.20923488988709" lon="11.74815053712038"><ele>120.0</ele><time>2026-05-02T10:21:34.957Z</time></trkpt><trkpt lat="44.20936047883855" lon="11.748349214253478"><ele>120.0</ele><time>2026-05-02T10:21:35.957Z</time></trkpt><trkpt lat="44.209490879598064" lon="11.74854912353894"><ele>120.0</ele><time>2026-05-02T10:21:36.957Z</time></trkpt><trkpt lat="44.20962078268431" lon="11.748741661479878"><ele>120.0</ele><time>2026-05-02T10:21:37.957Z</time></trkpt><trkpt lat="44.20974517649045" lon="11.748925101748142"><ele>120.0</ele><time>2026-05-02T10:21:38.957Z</time></trkpt><trkpt lat="44.2098618638825" lon="11.749095835524676"><ele>120.0</ele><time>2026-05-02T10:21:39.957Z</time></trkpt><trkpt lat="44.20996917237184" lon="11.749257160846483"><ele>119.75</ele><time>2026-05-02T10:21:40.957Z</time></trkpt><trkpt lat="44.21007115111502" lon="11.749408511826438"><ele>119.5</ele><time>2026-05-02T10:21:41.957Z</time></trkpt><trkpt lat="44.21016122710525" lon="11.749549671528486"><ele>119.25</ele><time>2026-05-02T10:21:42.957Z</time></trkpt><trkpt lat="44.210246068888054" lon="11.749677989319384"><ele>119.0</ele><time>2026-05-02T10:21:43.957Z</time></trkpt><trkpt lat="44.21032460020158" lon="11.749785243190793"><ele>118.99999999999999</ele><time>2026-05-02T10:21:44.957Z</time></trkpt><trkpt lat="44.21039633091139" lon="11.749866246951784"><ele>119.0</ele><time>2026-05-02T10:21:45.957Z</time></trkpt><trkpt lat="44.21046415092506" lon="11.749928126685907"><ele>119.0</ele><time>2026-05-02T10:21:46.957Z</time></trkpt><trkpt lat="44.210524516924394" lon="11.749971909120642"><ele>119.0</ele><time>2026-05-02T10:21:47.957Z</time></trkpt><trkpt lat="44.210583171820794" lon="11.750012697593782"><ele>118.99999999999999</ele><time>2026-05-02T10:21:50.957Z</time></trkpt><trkpt lat="44.21065348485514" lon="11.750079879017886"><ele>119.0</ele><time>2026-05-02T10:22:03.957Z</time></trkpt><trkpt lat="44.21078501578622" lon="11.75015488556794"><ele>117.5</ele><time>2026-05-02T10:22:05.957Z</time></trkpt><trkpt lat="44.21088073804682" lon="11.750187684262599"><ele>116.0</ele><time>2026-05-02T10:22:06.957Z</time></trkpt><trkpt lat="44.210989767872555" lon="11.750215758745307"><ele>114.5</ele><time>2026-05-02T10:22:07.957Z</time></trkpt><trkpt lat="44.21110313571092" lon="11.750235944591628"><ele>113.0</ele><time>2026-05-02T10:22:08.957Z</time></trkpt><trkpt lat="44.211236628751706" lon="11.750252126740795"><ele>108.66666666666666</ele><time>2026-05-02T10:22:09.957Z</time></trkpt><trkpt lat="44.21138440839505" lon="11.750255780666938"><ele>104.33333333333334</ele><time>2026-05-02T10:22:10.957Z</time></trkpt><trkpt lat="44.21154953901261" lon="11.750293360386648"><ele>100.0</ele><time>2026-05-02T10:22:11.957Z</time></trkpt><trkpt lat="44.211732860496966" lon="11.750316189095843"><ele>100.0</ele><time>2026-05-02T10:22:12.957Z</time></trkpt><trkpt lat="44.21192558741917" lon="11.750321621560278"><ele>100.0</ele><time>2026-05-02T10:22:13.957Z</time></trkpt><trkpt lat="44.21212331853113" lon="11.750338414307244"><ele>100.0</ele><time>2026-05-02T10:22:14.957Z</time></trkpt><trkpt lat="44.21232212221345" lon="11.750355516738086"><ele>103.0</ele><time>2026-05-02T10:22:15.957Z</time></trkpt><trkpt lat="44.212512753734565" lon="11.750371987680191"><ele>106.0</ele><time>2026-05-02T10:22:16.957Z</time></trkpt><trkpt lat="44.21268648729839" lon="11.750391352298468"><ele>109.0</ele><time>2026-05-02T10:22:17.957Z</time></trkpt><trkpt lat="44.212839132479374" lon="11.75040508422091"><ele>109.0</ele><time>2026-05-02T10:22:18.957Z</time></trkpt><trkpt lat="44.212978855971365" lon="11.750438930237081"><ele>109.0</ele><time>2026-05-02T10:22:19.957Z</time></trkpt><trkpt lat="44.21310938873569" lon="11.750488699150702"><ele>109.0</ele><time>2026-05-02T10:22:20.957Z</time></trkpt><trkpt lat="44.21323784187029" lon="11.750590177811125"><ele>109.0</ele><time>2026-05-02T10:22:21.957Z</time></trkpt><trkpt lat="44.21336342597351" lon="11.750732240479824"><ele>110.0</ele><time>2026-05-02T10:22:22.957Z</time></trkpt><trkpt lat="44.21349708561602" lon="11.750876400319783"><ele>111.0</ele><time>2026-05-02T10:22:23.957Z</time></trkpt><trkpt lat="44.213639222930155" lon="11.7510333639249"><ele>112.0</ele><time>2026-05-02T10:22:24.957Z</time></trkpt><trkpt lat="44.21379121095167" lon="11.751192404820365"><ele>112.0</ele><time>2026-05-02T10:22:25.957Z</time></trkpt><trkpt lat="44.21393170709291" lon="11.751341414269184"><ele>112.0</ele><time>2026-05-02T10:22:26.957Z</time></trkpt><trkpt lat="44.21406517858911" lon="11.75148280341754"><ele>112.0</ele><time>2026-05-02T10:22:27.955Z</time></trkpt><trkpt lat="44.21419019615105" lon="11.751617452879634"><ele>112.33333333333334</ele><time>2026-05-02T10:22:28.956Z</time></trkpt><trkpt lat="44.21431119053859" lon="11.75174960671974"><ele>112.66666666666666</ele><time>2026-05-02T10:22:29.956Z</time></trkpt><trkpt lat="44.21443282490755" lon="11.751878618570725"><ele>113.0</ele><time>2026-05-02T10:22:30.956Z</time></trkpt><trkpt lat="44.21455215403136" lon="11.752004532016404"><ele>113.0</ele><time>2026-05-02T10:22:31.955Z</time></trkpt><trkpt lat="44.21466254988441" lon="11.752121808466283"><ele>113.0</ele><time>2026-05-02T10:22:32.955Z</time></trkpt><trkpt lat="44.21476535841733" lon="11.752232444012613"><ele>113.0</ele><time>2026-05-02T10:22:33.955Z</time></trkpt><trkpt lat="44.21486492427918" lon="11.752338210552928"><ele>113.0</ele><time>2026-05-02T10:22:34.955Z</time></trkpt><trkpt lat="44.2149672260693" lon="11.75244935698273"><ele>112.75</ele><time>2026-05-02T10:22:35.955Z</time></trkpt><trkpt lat="44.215080079940186" lon="11.75256651580045"><ele>112.5</ele><time>2026-05-02T10:22:36.955Z</time></trkpt><trkpt lat="44.215188560425744" lon="11.752683579611853"><ele>112.25</ele><time>2026-05-02T10:22:37.955Z</time></trkpt><trkpt lat="44.21530275715851" lon="11.752802731574757"><ele>112.0</ele><time>2026-05-02T10:22:38.955Z</time></trkpt><trkpt lat="44.21541715994332" lon="11.752924067534991"><ele>112.0</ele><time>2026-05-02T10:22:39.955Z</time></trkpt><trkpt lat="44.21553413665435" lon="11.753045936202076"><ele>112.0</ele><time>2026-05-02T10:22:40.955Z</time></trkpt><trkpt lat="44.21565039806762" lon="11.753167329770275"><ele>112.0</ele><time>2026-05-02T10:22:41.955Z</time></trkpt><trkpt lat="44.215763597383706" lon="11.753287099372336"><ele>112.0</ele><time>2026-05-02T10:22:42.955Z</time></trkpt><trkpt lat="44.2158759776691" lon="11.753415365679338"><ele>113.0</ele><time>2026-05-02T10:22:43.955Z</time></trkpt><trkpt lat="44.215954398587" lon="11.753578301876141"><ele>114.0</ele><time>2026-05-02T10:22:44.955Z</time></trkpt><trkpt lat="44.216025707719155" lon="11.753751436460064"><ele>115.0</ele><time>2026-05-02T10:22:45.955Z</time></trkpt><trkpt lat="44.2160815080773" lon="11.753939083731467"><ele>116.0</ele><time>2026-05-02T10:22:46.955Z</time></trkpt><trkpt lat="44.216137007805074" lon="11.754137568934329"><ele>116.0</ele><time>2026-05-02T10:22:47.955Z</time></trkpt><trkpt lat="44.21619394623342" lon="11.75434007364775"><ele>116.0</ele><time>2026-05-02T10:22:48.955Z</time></trkpt><trkpt lat="44.21625222924938" lon="11.754545987979167"><ele>116.0</ele><time>2026-05-02T10:22:49.955Z</time></trkpt><trkpt lat="44.21631262487445" lon="11.75476005598626"><ele>115.33333333333333</ele><time>2026-05-02T10:22:50.955Z</time></trkpt><trkpt lat="44.21638888502808" lon="11.754983666640426"><ele>114.66666666666666</ele><time>2026-05-02T10:22:51.955Z</time></trkpt><trkpt lat="44.21642701606585" lon="11.755225108748228"><ele>114.0</ele><time>2026-05-02T10:22:52.955Z</time></trkpt><trkpt lat="44.21646671179047" lon="11.755463158816577"><ele>114.0</ele><time>2026-05-02T10:22:53.955Z</time></trkpt><trkpt lat="44.216510386665156" lon="11.755717357864137"><ele>114.0</ele><time>2026-05-02T10:22:54.955Z</time></trkpt><trkpt lat="44.21655717273412" lon="11.755979699701987"><ele>114.0</ele><time>2026-05-02T10:22:55.955Z</time></trkpt><trkpt lat="44.21660683876384" lon="11.756230799804941"><ele>114.0</ele><time>2026-05-02T10:22:56.955Z</time></trkpt><trkpt lat="44.21667947958388" lon="11.756492875524614"><ele>114.0</ele><time>2026-05-02T10:22:57.955Z</time></trkpt><trkpt lat="44.2167415265521" lon="11.75677047378412"><ele>114.0</ele><time>2026-05-02T10:22:58.955Z</time></trkpt><trkpt lat="44.216819553272614" lon="11.757057957670899"><ele>113.0</ele><time>2026-05-02T10:22:59.955Z</time></trkpt><trkpt lat="44.216914656252456" lon="11.757340205785118"><ele>112.0</ele><time>2026-05-02T10:23:00.955Z</time></trkpt><trkpt lat="44.217010746034234" lon="11.757619058388318"><ele>111.0</ele><time>2026-05-02T10:23:01.955Z</time></trkpt><trkpt lat="44.21710196385088" lon="11.757899009068163"><ele>110.66666666666666</ele><time>2026-05-02T10:23:02.955Z</time></trkpt><trkpt lat="44.21719114264646" lon="11.75817523669001"><ele>110.33333333333333</ele><time>2026-05-02T10:23:03.955Z</time></trkpt><trkpt lat="44.21727462346012" lon="11.758443570936931"><ele>110.0</ele><time>2026-05-02T10:23:04.955Z</time></trkpt><trkpt lat="44.21735690317049" lon="11.75870714381976"><ele>110.0</ele><time>2026-05-02T10:23:05.955Z</time></trkpt><trkpt lat="44.217441175505826" lon="11.758974856491887"><ele>110.0</ele><time>2026-05-02T10:23:06.955Z</time></trkpt><trkpt lat="44.21752520181406" lon="11.759242894535358"><ele>110.0</ele><time>2026-05-02T10:23:07.955Z</time></trkpt><trkpt lat="44.217596901534364" lon="11.759517716431565"><ele>110.33333333333333</ele><time>2026-05-02T10:23:08.955Z</time></trkpt><trkpt lat="44.217635689953035" lon="11.759803942239941"><ele>110.66666666666666</ele><time>2026-05-02T10:23:09.955Z</time></trkpt><trkpt lat="44.217707218757084" lon="11.760067326022277"><ele>111.0</ele><time>2026-05-02T10:23:10.955Z</time></trkpt><trkpt lat="44.21777270837774" lon="11.760315398855187"><ele>111.33333333333334</ele><time>2026-05-02T10:23:11.955Z</time></trkpt><trkpt lat="44.2178608652263" lon="11.760548631197363"><ele>111.66666666666667</ele><time>2026-05-02T10:23:12.955Z</time></trkpt><trkpt lat="44.21796798207399" lon="11.76076858302149"><ele>112.0</ele><time>2026-05-02T10:23:13.955Z</time></trkpt><trkpt lat="44.21809575585901" lon="11.760959343779442"><ele>111.66666666666667</ele><time>2026-05-02T10:23:14.955Z</time></trkpt><trkpt lat="44.21825003597691" lon="11.761111543717739"><ele>111.33333333333334</ele><time>2026-05-02T10:23:15.955Z</time></trkpt><trkpt lat="44.21840857476826" lon="11.76124302087726"><ele>111.0</ele><time>2026-05-02T10:23:16.955Z</time></trkpt><trkpt lat="44.21856766787475" lon="11.761363881966647"><ele>111.0</ele><time>2026-05-02T10:23:17.955Z</time></trkpt><trkpt lat="44.21872118430916" lon="11.761504286670267"><ele>111.0</ele><time>2026-05-02T10:23:18.955Z</time></trkpt><trkpt lat="44.21885523264968" lon="11.761665914147631"><ele>111.0</ele><time>2026-05-02T10:23:19.955Z</time></trkpt><trkpt lat="44.21896497820677" lon="11.761878565578826"><ele>112.66666666666666</ele><time>2026-05-02T10:23:20.955Z</time></trkpt><trkpt lat="44.21908353471404" lon="11.762082413042672"><ele>114.33333333333333</ele><time>2026-05-02T10:23:21.955Z</time></trkpt><trkpt lat="44.21920312599192" lon="11.762292148168811"><ele>116.0</ele><time>2026-05-02T10:23:22.955Z</time></trkpt><trkpt lat="44.2193240086339" lon="11.762504147961705"><ele>116.0</ele><time>2026-05-02T10:23:23.955Z</time></trkpt><trkpt lat="44.21944224618557" lon="11.7627115102534"><ele>116.0</ele><time>2026-05-02T10:23:24.955Z</time></trkpt><trkpt lat="44.21955584519245" lon="11.762912712524694"><ele>116.0</ele><time>2026-05-02T10:23:25.955Z</time></trkpt><trkpt lat="44.219663630250636" lon="11.763110262722064"><ele>116.0</ele><time>2026-05-02T10:23:26.955Z</time></trkpt><trkpt lat="44.21977394876126" lon="11.763315524689592"><ele>116.0</ele><time>2026-05-02T10:23:27.955Z</time></trkpt><trkpt lat="44.21988512070531" lon="11.763526092413045"><ele>116.0</ele><time>2026-05-02T10:23:28.955Z</time></trkpt><trkpt lat="44.21998695968989" lon="11.763732368009588"><ele>116.33333333333333</ele><time>2026-05-02T10:23:29.955Z</time></trkpt><trkpt lat="44.220085716944055" lon="11.76394169744344"><ele>116.66666666666666</ele><time>2026-05-02T10:23:30.955Z</time></trkpt><trkpt lat="44.22018350495232" lon="11.764152939336759"><ele>117.0</ele><time>2026-05-02T10:23:31.955Z</time></trkpt><trkpt lat="44.220277576471574" lon="11.764370106996342"><ele>116.33333333333334</ele><time>2026-05-02T10:23:32.955Z</time></trkpt><trkpt lat="44.22036802542782" lon="11.764607256171852"><ele>115.66666666666667</ele><time>2026-05-02T10:23:33.955Z</time></trkpt><trkpt lat="44.22045719569403" lon="11.764844351096693"><ele>115.0</ele><time>2026-05-02T10:23:34.955Z</time></trkpt><trkpt lat="44.220562563098504" lon="11.76507003519955"><ele>114.66666666666667</ele><time>2026-05-02T10:23:35.955Z</time></trkpt><trkpt lat="44.22064854631071" lon="11.765294431480081"><ele>114.33333333333334</ele><time>2026-05-02T10:23:36.955Z</time></trkpt><trkpt lat="44.22073033845201" lon="11.765491809652408"><ele>114.0</ele><time>2026-05-02T10:23:37.955Z</time></trkpt><trkpt lat="44.22081820887216" lon="11.765690132837863"><ele>114.0</ele><time>2026-05-02T10:23:38.955Z</time></trkpt><trkpt lat="44.22091030151854" lon="11.76588939066298"><ele>114.0</ele><time>2026-05-02T10:23:39.955Z</time></trkpt><trkpt lat="44.22099784556471" lon="11.76609013956281"><ele>114.0</ele><time>2026-05-02T10:23:40.955Z</time></trkpt><trkpt lat="44.22109088888434" lon="11.766290903355742"><ele>113.5</ele><time>2026-05-02T10:23:41.955Z</time></trkpt><trkpt lat="44.22117556450629" lon="11.766472767289484"><ele>113.0</ele><time>2026-05-02T10:23:42.955Z</time></trkpt><trkpt lat="44.221252870807014" lon="11.766646253658692"><ele>112.5</ele><time>2026-05-02T10:23:43.955Z</time></trkpt><trkpt lat="44.221333614613336" lon="11.766814282698132"><ele>112.0</ele><time>2026-05-02T10:23:44.955Z</time></trkpt><trkpt lat="44.22134437113045" lon="11.76700394277277"><ele>111.66666666666667</ele><time>2026-05-02T10:23:45.955Z</time></trkpt><trkpt lat="44.22136478166084" lon="11.767218730974081"><ele>111.33333333333334</ele><time>2026-05-02T10:23:46.955Z</time></trkpt><trkpt lat="44.22136970875323" lon="11.767443574504588"><ele>111.0</ele><time>2026-05-02T10:23:47.955Z</time></trkpt><trkpt lat="44.22138355379988" lon="11.767683582596469"><ele>110.33333333333334</ele><time>2026-05-02T10:23:48.955Z</time></trkpt><trkpt lat="44.221402448218136" lon="11.76790952219709"><ele>109.66666666666667</ele><time>2026-05-02T10:23:49.955Z</time></trkpt><trkpt lat="44.221425070195394" lon="11.768140964787184"><ele>109.0</ele><time>2026-05-02T10:23:50.955Z</time></trkpt><trkpt lat="44.221464423519556" lon="11.768353566753662"><ele>109.75</ele><time>2026-05-02T10:23:51.955Z</time></trkpt><trkpt lat="44.22151764807577" lon="11.768540938525211"><ele>110.5</ele><time>2026-05-02T10:23:52.955Z</time></trkpt><trkpt lat="44.22158666033337" lon="11.76871617698437"><ele>111.25</ele><time>2026-05-02T10:23:53.955Z</time></trkpt><trkpt lat="44.22162142030465" lon="11.768859326953033"><ele>112.0</ele><time>2026-05-02T10:23:54.955Z</time></trkpt><trkpt lat="44.221665033013515" lon="11.768958710576797"><ele>112.0</ele><time>2026-05-02T10:23:55.955Z</time></trkpt><trkpt lat="44.22167579767019" lon="11.76904630885538"><ele>111.99999999999999</ele><time>2026-05-02T10:23:56.955Z</time></trkpt><trkpt lat="44.221576636465" lon="11.769170585294653"><ele>111.99999999999999</ele><time>2026-05-02T10:23:58.955Z</time></trkpt><trkpt lat="44.221494776182375" lon="11.76923409106813"><ele>112.0</ele><time>2026-05-02T10:23:59.955Z</time></trkpt><trkpt lat="44.221397123022506" lon="11.76928203194789"><ele>112.0</ele><time>2026-05-02T10:24:00.955Z</time></trkpt><trkpt lat="44.2213029090515" lon="11.76933550471436"><ele>111.50000000000001</ele><time>2026-05-02T10:24:01.955Z</time></trkpt><trkpt lat="44.221227926958036" lon="11.769371375387287"><ele>111.0</ele><time>2026-05-02T10:24:02.955Z</time></trkpt><trkpt lat="44.22115420110311" lon="11.76940470053961"><ele>110.5</ele><time>2026-05-02T10:24:03.955Z</time></trkpt><trkpt lat="44.22106878498214" lon="11.769447334141802"><ele>110.0</ele><time>2026-05-02T10:24:04.955Z</time></trkpt><trkpt lat="44.22101457540382" lon="11.769509557836086"><ele>109.50000000000001</ele><time>2026-05-02T10:24:05.955Z</time></trkpt><trkpt lat="44.22098469370272" lon="11.769622917317498"><ele>109.0</ele><time>2026-05-02T10:24:06.955Z</time></trkpt><trkpt lat="44.22099558554442" lon="11.76974962072962"><ele>109.00000000000001</ele><time>2026-05-02T10:24:07.955Z</time></trkpt><trkpt lat="44.22103845180971" lon="11.76986134233876"><ele>109.0</ele><time>2026-05-02T10:24:08.955Z</time></trkpt><trkpt lat="44.221055555214235" lon="11.769993906086384"><ele>109.0</ele><time>2026-05-02T10:24:10.955Z</time></trkpt><trkpt lat="44.22108952525959" lon="11.770083757271477"><ele>109.0</ele><time>2026-05-02T10:24:13.955Z</time></trkpt><trkpt lat="44.22110778339333" lon="11.770168968850987"><ele>109.00000000000001</ele><time>2026-05-02T10:24:15.955Z</time></trkpt><trkpt lat="44.22113255594766" lon="11.770325571837844"><ele>109.0</ele><time>2026-05-02T10:24:17.955Z</time></trkpt><trkpt lat="44.221179669796754" lon="11.77050715911426"><ele>108.5</ele><time>2026-05-02T10:24:19.955Z</time></trkpt><trkpt lat="44.22120693902243" lon="11.770643599105096"><ele>108.0</ele><time>2026-05-02T10:24:20.955Z</time></trkpt><trkpt lat="44.221240737677284" lon="11.770790136395373"><ele>107.5</ele><time>2026-05-02T10:24:21.955Z</time></trkpt><trkpt lat="44.22127460364098" lon="11.770947973475815"><ele>107.0</ele><time>2026-05-02T10:24:22.955Z</time></trkpt><trkpt lat="44.221305100165516" lon="11.771112202483772"><ele>106.75</ele><time>2026-05-02T10:24:23.955Z</time></trkpt><trkpt lat="44.22133462057073" lon="11.771277112328772"><ele>106.5</ele><time>2026-05-02T10:24:24.955Z</time></trkpt><trkpt lat="44.2213642927319" lon="11.771444394279802"><ele>106.25</ele><time>2026-05-02T10:24:25.955Z</time></trkpt><trkpt lat="44.22140830612816" lon="11.771623700313407"><ele>106.0</ele><time>2026-05-02T10:24:26.955Z</time></trkpt><trkpt lat="44.22146099012195" lon="11.771806584793024"><ele>106.25</ele><time>2026-05-02T10:24:27.955Z</time></trkpt><trkpt lat="44.221513815763075" lon="11.771985944407893"><ele>106.5</ele><time>2026-05-02T10:24:28.955Z</time></trkpt><trkpt lat="44.22155590214757" lon="11.772180103736249"><ele>106.75</ele><time>2026-05-02T10:24:29.955Z</time></trkpt><trkpt lat="44.22161243005622" lon="11.77238584272942"><ele>107.0</ele><time>2026-05-02T10:24:30.955Z</time></trkpt><trkpt lat="44.22166813420274" lon="11.772596920170182"><ele>106.66666666666666</ele><time>2026-05-02T10:24:31.955Z</time></trkpt><trkpt lat="44.22172214755883" lon="11.772807614631578"><ele>106.33333333333334</ele><time>2026-05-02T10:24:32.955Z</time></trkpt><trkpt lat="44.221776359618964" lon="11.77302228763696"><ele>106.0</ele><time>2026-05-02T10:24:33.953Z</time></trkpt><trkpt lat="44.221829764630186" lon="11.773238705368716"><ele>106.0</ele><time>2026-05-02T10:24:34.952Z</time></trkpt><trkpt lat="44.22188494482988" lon="11.773454505203711"><ele>106.0</ele><time>2026-05-02T10:24:35.952Z</time></trkpt><trkpt lat="44.22193859098872" lon="11.773669574114193"><ele>106.0</ele><time>2026-05-02T10:24:36.952Z</time></trkpt><trkpt lat="44.22199643179794" lon="11.773880400040824"><ele>106.33333333333334</ele><time>2026-05-02T10:24:37.953Z</time></trkpt><trkpt lat="44.222043688810096" lon="11.774090583750391"><ele>106.66666666666666</ele><time>2026-05-02T10:24:38.953Z</time></trkpt><trkpt lat="44.222108546062266" lon="11.774283260758972"><ele>107.0</ele><time>2026-05-02T10:24:39.953Z</time></trkpt><trkpt lat="44.22217648196724" lon="11.774465464470898"><ele>107.19999999999999</ele><time>2026-05-02T10:24:40.952Z</time></trkpt><trkpt lat="44.22223981110597" lon="11.77461177349574"><ele>107.39999999999999</ele><time>2026-05-02T10:24:41.952Z</time></trkpt><trkpt lat="44.22231170654602" lon="11.77472259655993"><ele>107.60000000000001</ele><time>2026-05-02T10:24:42.952Z</time></trkpt><trkpt lat="44.222348896333955" lon="11.77484783133572"><ele>107.80000000000001</ele><time>2026-05-02T10:24:43.952Z</time></trkpt><trkpt lat="44.22240109093238" lon="11.774950360203691"><ele>108.0</ele><time>2026-05-02T10:24:44.952Z</time></trkpt><trkpt lat="44.222446986338404" lon="11.77504020759334"><ele>108.0</ele><time>2026-05-02T10:24:45.952Z</time></trkpt><trkpt lat="44.2224936678175" lon="11.775126284194837"><ele>108.00000000000001</ele><time>2026-05-02T10:24:46.952Z</time></trkpt><trkpt lat="44.22254201335856" lon="11.775223275935563"><ele>108.00000000000001</ele><time>2026-05-02T10:24:47.952Z</time></trkpt><trkpt lat="44.22259619310593" lon="11.77532546432825"><ele>108.0</ele><time>2026-05-02T10:24:48.952Z</time></trkpt><trkpt lat="44.222656562010876" lon="11.77543178091728"><ele>108.0</ele><time>2026-05-02T10:24:49.952Z</time></trkpt><trkpt lat="44.22272387351078" lon="11.775544362904057"><ele>107.2</ele><time>2026-05-02T10:24:50.952Z</time></trkpt><trkpt lat="44.22278805258542" lon="11.775660925246266"><ele>106.4</ele><time>2026-05-02T10:24:51.952Z</time></trkpt><trkpt lat="44.222851518080525" lon="11.775777346155046"><ele>105.60000000000001</ele><time>2026-05-02T10:24:52.952Z</time></trkpt><trkpt lat="44.2229107609794" lon="11.77589212142529"><ele>104.80000000000001</ele><time>2026-05-02T10:24:53.952Z</time></trkpt><trkpt lat="44.22296742087384" lon="11.776005413220183"><ele>104.0</ele><time>2026-05-02T10:24:54.952Z</time></trkpt><trkpt lat="44.22302689964895" lon="11.776116175254762"><ele>103.4</ele><time>2026-05-02T10:24:55.952Z</time></trkpt><trkpt lat="44.22308625637275" lon="11.776227495183198"><ele>102.80000000000001</ele><time>2026-05-02T10:24:56.952Z</time></trkpt><trkpt lat="44.22314379163592" lon="11.776334235332396"><ele>102.19999999999999</ele><time>2026-05-02T10:24:57.952Z</time></trkpt><trkpt lat="44.22320634832172" lon="11.776444972748841"><ele>101.6</ele><time>2026-05-02T10:24:58.952Z</time></trkpt><trkpt lat="44.22326790547186" lon="11.776559589299918"><ele>101.0</ele><time>2026-05-02T10:24:59.952Z</time></trkpt><trkpt lat="44.223318908105604" lon="11.77669321168767"><ele>101.4</ele><time>2026-05-02T10:25:00.952Z</time></trkpt><trkpt lat="44.22338270221387" lon="11.77681591164962"><ele>101.8</ele><time>2026-05-02T10:25:01.952Z</time></trkpt><trkpt lat="44.22344536873374" lon="11.776936442834135"><ele>102.2</ele><time>2026-05-02T10:25:02.952Z</time></trkpt><trkpt lat="44.223508995327556" lon="11.777058628748048"><ele>102.60000000000001</ele><time>2026-05-02T10:25:03.952Z</time></trkpt><trkpt lat="44.22357082401718" lon="11.77717724732445"><ele>103.0</ele><time>2026-05-02T10:25:04.952Z</time></trkpt><trkpt lat="44.223630563056886" lon="11.77729185685201"><ele>103.0</ele><time>2026-05-02T10:25:05.952Z</time></trkpt><trkpt lat="44.223690110843826" lon="11.77740587342772"><ele>103.0</ele><time>2026-05-02T10:25:06.952Z</time></trkpt><trkpt lat="44.22374312792194" lon="11.777507114725067"><ele>103.0</ele><time>2026-05-02T10:25:07.952Z</time></trkpt><trkpt lat="44.22379010798039" lon="11.777596827733934"><ele>103.0</ele><time>2026-05-02T10:25:08.952Z</time></trkpt><trkpt lat="44.223819523735735" lon="11.777748629647768"><ele>103.0</ele><time>2026-05-02T10:25:10.952Z</time></trkpt><trkpt lat="44.223771473644284" lon="11.777833354465844"><ele>102.60000000000001</ele><time>2026-05-02T10:25:11.952Z</time></trkpt><trkpt lat="44.22371911975652" lon="11.777928818717896"><ele>102.2</ele><time>2026-05-02T10:25:12.952Z</time></trkpt><trkpt lat="44.22367652522919" lon="11.77803612042889"><ele>101.8</ele><time>2026-05-02T10:25:13.952Z</time></trkpt><trkpt lat="44.22368866380063" lon="11.778176734192916"><ele>101.4</ele><time>2026-05-02T10:25:14.952Z</time></trkpt><trkpt lat="44.22374120027148" lon="11.778322039514926"><ele>101.0</ele><time>2026-05-02T10:25:15.952Z</time></trkpt><trkpt lat="44.22382687657369" lon="11.778461066701947"><ele>100.75</ele><time>2026-05-02T10:25:16.952Z</time></trkpt><trkpt lat="44.22391163169251" lon="11.778609692672205"><ele>100.5</ele><time>2026-05-02T10:25:17.952Z</time></trkpt><trkpt lat="44.22400022374855" lon="11.778765885544532"><ele>100.25</ele><time>2026-05-02T10:25:18.952Z</time></trkpt><trkpt lat="44.224094186677156" lon="11.778932131109142"><ele>100.0</ele><time>2026-05-02T10:25:19.952Z</time></trkpt><trkpt lat="44.224184954338" lon="11.779091570298352"><ele>100.0</ele><time>2026-05-02T10:25:20.952Z</time></trkpt><trkpt lat="44.22427167270983" lon="11.779240579479243"><ele>100.0</ele><time>2026-05-02T10:25:21.952Z</time></trkpt><trkpt lat="44.224353254025516" lon="11.779376235087073"><ele>100.0</ele><time>2026-05-02T10:25:22.952Z</time></trkpt><trkpt lat="44.22442207119126" lon="11.779489912900527"><ele>100.0</ele><time>2026-05-02T10:25:23.952Z</time></trkpt><trkpt lat="44.224471352826804" lon="11.779591008539732"><ele>99.2</ele><time>2026-05-02T10:25:24.952Z</time></trkpt><trkpt lat="44.224524510390005" lon="11.779667504061315"><ele>98.4</ele><time>2026-05-02T10:25:25.952Z</time></trkpt><trkpt lat="44.22452893407951" lon="11.779769046496632"><ele>97.6</ele><time>2026-05-02T10:25:26.952Z</time></trkpt><trkpt lat="44.22449999226039" lon="11.77990362756937"><ele>96.8</ele><time>2026-05-02T10:25:27.952Z</time></trkpt><trkpt lat="44.22440476322976" lon="11.780008728646502"><ele>96.0</ele><time>2026-05-02T10:25:28.952Z</time></trkpt><trkpt lat="44.22428317832293" lon="11.780082514614016"><ele>94.33333333333333</ele><time>2026-05-02T10:25:29.952Z</time></trkpt><trkpt lat="44.22416696447134" lon="11.78020869680809"><ele>92.66666666666666</ele><time>2026-05-02T10:25:30.952Z</time></trkpt><trkpt lat="44.22404091848633" lon="11.780355154070266"><ele>91.0</ele><time>2026-05-02T10:25:31.952Z</time></trkpt><trkpt lat="44.223940455320374" lon="11.780529618410384"><ele>89.0</ele><time>2026-05-02T10:25:32.952Z</time></trkpt><trkpt lat="44.223835246306926" lon="11.780707953363327"><ele>87.0</ele><time>2026-05-02T10:25:33.952Z</time></trkpt><trkpt lat="44.223744089973984" lon="11.780926862665181"><ele>85.0</ele><time>2026-05-02T10:25:34.952Z</time></trkpt><trkpt lat="44.2236464575539" lon="11.781146038426506"><ele>83.33333333333333</ele><time>2026-05-02T10:25:35.952Z</time></trkpt><trkpt lat="44.223561619514385" lon="11.781387933724186"><ele>81.66666666666667</ele><time>2026-05-02T10:25:36.952Z</time></trkpt><trkpt lat="44.22346392862531" lon="11.781632712182427"><ele>80.0</ele><time>2026-05-02T10:25:37.952Z</time></trkpt><trkpt lat="44.223369877605194" lon="11.781871762774685"><ele>79.66666666666667</ele><time>2026-05-02T10:25:38.952Z</time></trkpt><trkpt lat="44.22327557930868" lon="11.782102281912328"><ele>79.33333333333333</ele><time>2026-05-02T10:25:39.952Z</time></trkpt><trkpt lat="44.22318486186514" lon="11.782318594650066"><ele>79.0</ele><time>2026-05-02T10:25:40.952Z</time></trkpt><trkpt lat="44.223101415487214" lon="11.782532756163839"><ele>78.66666666666666</ele><time>2026-05-02T10:25:41.952Z</time></trkpt><trkpt lat="44.223018158202535" lon="11.782734444702767"><ele>78.33333333333333</ele><time>2026-05-02T10:25:42.952Z</time></trkpt><trkpt lat="44.22294242735069" lon="11.782933298919858"><ele>78.0</ele><time>2026-05-02T10:25:43.952Z</time></trkpt><trkpt lat="44.222861994589145" lon="11.78313079910448"><ele>78.0</ele><time>2026-05-02T10:25:44.952Z</time></trkpt><trkpt lat="44.222781439260935" lon="11.78334170012458"><ele>78.0</ele><time>2026-05-02T10:25:45.952Z</time></trkpt><trkpt lat="44.22271405165337" lon="11.783573842828309"><ele>78.0</ele><time>2026-05-02T10:25:46.952Z</time></trkpt><trkpt lat="44.22265646056061" lon="11.78381498171597"><ele>76.66666666666667</ele><time>2026-05-02T10:25:47.952Z</time></trkpt><trkpt lat="44.22260500951743" lon="11.784073400049005"><ele>75.33333333333334</ele><time>2026-05-02T10:25:48.952Z</time></trkpt><trkpt lat="44.22255754349954" lon="11.784326266109282"><ele>74.0</ele><time>2026-05-02T10:25:49.952Z</time></trkpt><trkpt lat="44.22250404957942" lon="11.784568334737898"><ele>73.0</ele><time>2026-05-02T10:25:50.952Z</time></trkpt><trkpt lat="44.22244511547586" lon="11.784793121237831"><ele>72.0</ele><time>2026-05-02T10:25:51.952Z</time></trkpt><trkpt lat="44.222376239960575" lon="11.785020720744452"><ele>71.0</ele><time>2026-05-02T10:25:52.952Z</time></trkpt><trkpt lat="44.222288199853644" lon="11.785219241789655"><ele>70.33333333333334</ele><time>2026-05-02T10:25:53.952Z</time></trkpt><trkpt lat="44.222217559141626" lon="11.785444613717623"><ele>69.66666666666667</ele><time>2026-05-02T10:25:54.952Z</time></trkpt><trkpt lat="44.22213349445533" lon="11.785660808408688"><ele>69.0</ele><time>2026-05-02T10:25:55.952Z</time></trkpt><trkpt lat="44.22204958143721" lon="11.7858742529522"><ele>69.33333333333333</ele><time>2026-05-02T10:25:56.952Z</time></trkpt><trkpt lat="44.22196919597972" lon="11.78608900809909"><ele>69.66666666666666</ele><time>2026-05-02T10:25:57.952Z</time></trkpt><trkpt lat="44.22189367121238" lon="11.786295957460347"><ele>70.0</ele><time>2026-05-02T10:25:58.952Z</time></trkpt><trkpt lat="44.221817555274676" lon="11.786510883013271"><ele>70.0</ele><time>2026-05-02T10:25:59.952Z</time></trkpt><trkpt lat="44.221741666294804" lon="11.78671654030194"><ele>70.0</ele><time>2026-05-02T10:26:00.952Z</time></trkpt><trkpt lat="44.221662656977955" lon="11.786923695998444"><ele>70.0</ele><time>2026-05-02T10:26:01.952Z</time></trkpt><trkpt lat="44.221583778423" lon="11.78713039961816"><ele>70.33333333333333</ele><time>2026-05-02T10:26:02.952Z</time></trkpt><trkpt lat="44.221503670658066" lon="11.787340783036987"><ele>70.66666666666667</ele><time>2026-05-02T10:26:03.952Z</time></trkpt><trkpt lat="44.2214362714581" lon="11.787550186137635"><ele>71.0</ele><time>2026-05-02T10:26:04.952Z</time></trkpt><trkpt lat="44.22136765912201" lon="11.787758888402074"><ele>76.33333333333334</ele><time>2026-05-02T10:26:05.952Z</time></trkpt><trkpt lat="44.22131088064725" lon="11.787968802077314"><ele>81.66666666666667</ele><time>2026-05-02T10:26:06.952Z</time></trkpt><trkpt lat="44.22128432112676" lon="11.788188157450485"><ele>87.0</ele><time>2026-05-02T10:26:07.952Z</time></trkpt><trkpt lat="44.22129109342672" lon="11.78842341617376"><ele>86.33333333333333</ele><time>2026-05-02T10:26:08.952Z</time></trkpt><trkpt lat="44.22133374225975" lon="11.788651763863275"><ele>85.66666666666666</ele><time>2026-05-02T10:26:09.952Z</time></trkpt><trkpt lat="44.22138278068191" lon="11.788879232600523"><ele>85.0</ele><time>2026-05-02T10:26:10.952Z</time></trkpt><trkpt lat="44.22143781235402" lon="11.789111135018864"><ele>81.33333333333333</ele><time>2026-05-02T10:26:11.952Z</time></trkpt><trkpt lat="44.221559030398296" lon="11.789314525499302"><ele>77.66666666666667</ele><time>2026-05-02T10:26:12.952Z</time></trkpt><trkpt lat="44.22166713068731" lon="11.789529693424537"><ele>74.0</ele><time>2026-05-02T10:26:13.952Z</time></trkpt><trkpt lat="44.221787924617594" lon="11.789752975476256"><ele>74.0</ele><time>2026-05-02T10:26:14.952Z</time></trkpt><trkpt lat="44.22191198033603" lon="11.78998386661994"><ele>74.0</ele><time>2026-05-02T10:26:15.952Z</time></trkpt><trkpt lat="44.2220294051573" lon="11.790214743668766"><ele>74.0</ele><time>2026-05-02T10:26:16.952Z</time></trkpt><trkpt lat="44.2221394728565" lon="11.790446825488505"><ele>73.33333333333334</ele><time>2026-05-02T10:26:17.952Z</time></trkpt><trkpt lat="44.222242447480596" lon="11.79069109394748"><ele>72.66666666666667</ele><time>2026-05-02T10:26:18.952Z</time></trkpt><trkpt lat="44.22233075978912" lon="11.79095271470698"><ele>72.0</ele><time>2026-05-02T10:26:19.952Z</time></trkpt><trkpt lat="44.22240829083343" lon="11.79123231071955"><ele>72.0</ele><time>2026-05-02T10:26:20.952Z</time></trkpt><trkpt lat="44.22247238568778" lon="11.791519512281324"><ele>72.0</ele><time>2026-05-02T10:26:21.952Z</time></trkpt><trkpt lat="44.22252168572692" lon="11.791818336679295"><ele>72.0</ele><time>2026-05-02T10:26:22.952Z</time></trkpt><trkpt lat="44.22256777106787" lon="11.792125002855675"><ele>72.33333333333333</ele><time>2026-05-02T10:26:23.952Z</time></trkpt><trkpt lat="44.22261698145848" lon="11.792435102436137"><ele>72.66666666666666</ele><time>2026-05-02T10:26:24.952Z</time></trkpt><trkpt lat="44.22266617845514" lon="11.792733924348788"><ele>73.0</ele><time>2026-05-02T10:26:25.952Z</time></trkpt><trkpt lat="44.22271306212742" lon="11.793021494936378"><ele>73.66666666666666</ele><time>2026-05-02T10:26:26.952Z</time></trkpt><trkpt lat="44.22276408038013" lon="11.793309908050716"><ele>74.33333333333333</ele><time>2026-05-02T10:26:27.951Z</time></trkpt><trkpt lat="44.22283130446544" lon="11.7935922191548"><ele>75.0</ele><time>2026-05-02T10:26:28.951Z</time></trkpt><trkpt lat="44.222928695624134" lon="11.79386744509618"><ele>74.33333333333333</ele><time>2026-05-02T10:26:29.951Z</time></trkpt><trkpt lat="44.22303756264059" lon="11.794137415936913"><ele>73.66666666666666</ele><time>2026-05-02T10:26:30.951Z</time></trkpt><trkpt lat="44.223152843136276" lon="11.794403021077192"><ele>73.0</ele><time>2026-05-02T10:26:31.951Z</time></trkpt><trkpt lat="44.223271916494156" lon="11.794659011867964"><ele>73.0</ele><time>2026-05-02T10:26:32.951Z</time></trkpt><trkpt lat="44.223404335481256" lon="11.79489899151478"><ele>73.0</ele><time>2026-05-02T10:26:33.951Z</time></trkpt><trkpt lat="44.22355704148099" lon="11.795112286388779"><ele>73.0</ele><time>2026-05-02T10:26:34.951Z</time></trkpt><trkpt lat="44.22370825882211" lon="11.795302135261677"><ele>71.66666666666666</ele><time>2026-05-02T10:26:35.951Z</time></trkpt><trkpt lat="44.22383957855217" lon="11.795486273085137"><ele>70.33333333333333</ele><time>2026-05-02T10:26:36.951Z</time></trkpt><trkpt lat="44.223947248593525" lon="11.795667164417393"><ele>69.0</ele><time>2026-05-02T10:26:37.951Z</time></trkpt><trkpt lat="44.22402333747805" lon="11.795866041777908"><ele>69.0</ele><time>2026-05-02T10:26:38.951Z</time></trkpt><trkpt lat="44.22405303550411" lon="11.796105002384648"><ele>69.0</ele><time>2026-05-02T10:26:39.949Z</time></trkpt><trkpt lat="44.22407942826894" lon="11.796367330791774"><ele>69.0</ele><time>2026-05-02T10:26:40.949Z</time></trkpt><trkpt lat="44.22409847462908" lon="11.79664925276827"><ele>70.0</ele><time>2026-05-02T10:26:41.949Z</time></trkpt><trkpt lat="44.22412831443701" lon="11.796940258909405"><ele>71.0</ele><time>2026-05-02T10:26:42.949Z</time></trkpt><trkpt lat="44.22414545326889" lon="11.797236214724045"><ele>72.0</ele><time>2026-05-02T10:26:43.95Z</time></trkpt><trkpt lat="44.224165221163624" lon="11.797528678707582"><ele>73.0</ele><time>2026-05-02T10:26:44.95Z</time></trkpt><trkpt lat="44.224186102257896" lon="11.797807081272325"><ele>74.0</ele><time>2026-05-02T10:26:45.95Z</time></trkpt><trkpt lat="44.22420567884913" lon="11.798074405514024"><ele>75.0</ele><time>2026-05-02T10:26:46.95Z</time></trkpt><trkpt lat="44.22424728169158" lon="11.798337535641744"><ele>78.0</ele><time>2026-05-02T10:26:47.95Z</time></trkpt><trkpt lat="44.22431133095377" lon="11.798598256245057"><ele>81.0</ele><time>2026-05-02T10:26:48.95Z</time></trkpt><trkpt lat="44.22438419887393" lon="11.79886588798762"><ele>84.0</ele><time>2026-05-02T10:26:49.95Z</time></trkpt><trkpt lat="44.2244410504863" lon="11.79911053043295"><ele>85.0</ele><time>2026-05-02T10:26:50.95Z</time></trkpt><trkpt lat="44.22445147571899" lon="11.799339130325768"><ele>86.0</ele><time>2026-05-02T10:26:51.949Z</time></trkpt><trkpt lat="44.224438275874164" lon="11.799575460181888"><ele>87.0</ele><time>2026-05-02T10:26:52.95Z</time></trkpt><trkpt lat="44.22440021862991" lon="11.799844146725858"><ele>87.0</ele><time>2026-05-02T10:26:53.95Z</time></trkpt><trkpt lat="44.22436894313548" lon="11.800140707545083"><ele>87.0</ele><time>2026-05-02T10:26:54.95Z</time></trkpt><trkpt lat="44.22431721999925" lon="11.80042339958497"><ele>87.0</ele><time>2026-05-02T10:26:55.95Z</time></trkpt><trkpt lat="44.22427495009274" lon="11.800706433145193"><ele>87.66666666666667</ele><time>2026-05-02T10:26:56.95Z</time></trkpt><trkpt lat="44.224238635894" lon="11.800978470448456"><ele>88.33333333333334</ele><time>2026-05-02T10:26:57.95Z</time></trkpt><trkpt lat="44.22420520834345" lon="11.801229084480658"><ele>89.0</ele><time>2026-05-02T10:26:58.95Z</time></trkpt><trkpt lat="44.22418669739261" lon="11.801466720615117"><ele>89.66666666666667</ele><time>2026-05-02T10:26:59.95Z</time></trkpt><trkpt lat="44.2241936865685" lon="11.801687951585377"><ele>90.33333333333333</ele><time>2026-05-02T10:27:00.95Z</time></trkpt><trkpt lat="44.22423628408878" lon="11.801910677262507"><ele>91.0</ele><time>2026-05-02T10:27:01.95Z</time></trkpt><trkpt lat="44.22430174354616" lon="11.802126750978921"><ele>91.0</ele><time>2026-05-02T10:27:02.95Z</time></trkpt><trkpt lat="44.22438010060912" lon="11.80233966286902"><ele>91.0</ele><time>2026-05-02T10:27:03.95Z</time></trkpt><trkpt lat="44.224470007574666" lon="11.80255776312585"><ele>91.0</ele><time>2026-05-02T10:27:04.95Z</time></trkpt><trkpt lat="44.22455792720322" lon="11.802800375904928"><ele>91.0</ele><time>2026-05-02T10:27:05.95Z</time></trkpt><trkpt lat="44.224623740311706" lon="11.803077072847277"><ele>91.0</ele><time>2026-05-02T10:27:06.95Z</time></trkpt><trkpt lat="44.22471898890549" lon="11.80336222645747"><ele>91.0</ele><time>2026-05-02T10:27:07.95Z</time></trkpt><trkpt lat="44.22481765208423" lon="11.803646787263506"><ele>85.0</ele><time>2026-05-02T10:27:08.95Z</time></trkpt><trkpt lat="44.22492114345088" lon="11.80392420588939"><ele>79.0</ele><time>2026-05-02T10:27:09.95Z</time></trkpt><trkpt lat="44.22503513264921" lon="11.804203682583893"><ele>78.0</ele><time>2026-05-02T10:27:10.95Z</time></trkpt><trkpt lat="44.22515664224677" lon="11.804483614669202"><ele>77.0</ele><time>2026-05-02T10:27:11.95Z</time></trkpt><trkpt lat="44.22529447247513" lon="11.804757115848355"><ele>77.0</ele><time>2026-05-02T10:27:12.95Z</time></trkpt><trkpt lat="44.225413488611586" lon="11.805037070274755"><ele>77.0</ele><time>2026-05-02T10:27:13.95Z</time></trkpt><trkpt lat="44.22552521391237" lon="11.805328490248195"><ele>78.0</ele><time>2026-05-02T10:27:14.95Z</time></trkpt><trkpt lat="44.22564216145578" lon="11.805622398354448"><ele>79.0</ele><time>2026-05-02T10:27:15.95Z</time></trkpt><trkpt lat="44.22576193362298" lon="11.805907984228986"><ele>76.33333333333333</ele><time>2026-05-02T10:27:16.95Z</time></trkpt><trkpt lat="44.22587472543399" lon="11.806183746029236"><ele>73.66666666666667</ele><time>2026-05-02T10:27:17.95Z</time></trkpt><trkpt lat="44.22598690789789" lon="11.806443117136006"><ele>71.0</ele><time>2026-05-02T10:27:18.95Z</time></trkpt><trkpt lat="44.22609421195482" lon="11.806690015511318"><ele>73.33333333333334</ele><time>2026-05-02T10:27:19.95Z</time></trkpt><trkpt lat="44.22619185677321" lon="11.806934563719953"><ele>75.66666666666667</ele><time>2026-05-02T10:27:20.95Z</time></trkpt><trkpt lat="44.22629350840853" lon="11.80717929584038"><ele>78.0</ele><time>2026-05-02T10:27:21.95Z</time></trkpt><trkpt lat="44.22638283777477" lon="11.807433573651306"><ele>75.33333333333333</ele><time>2026-05-02T10:27:22.95Z</time></trkpt><trkpt lat="44.226457015732784" lon="11.807715183190163"><ele>72.66666666666666</ele><time>2026-05-02T10:27:23.95Z</time></trkpt><trkpt lat="44.226511838164036" lon="11.808001227314982"><ele>70.0</ele><time>2026-05-02T10:27:24.95Z</time></trkpt><trkpt lat="44.226563147225356" lon="11.8082716018421"><ele>72.0</ele><time>2026-05-02T10:27:25.95Z</time></trkpt><trkpt lat="44.22660233694546" lon="11.808517566984813"><ele>74.0</ele><time>2026-05-02T10:27:26.95Z</time></trkpt><trkpt lat="44.22664550070743" lon="11.808761814255403"><ele>76.0</ele><time>2026-05-02T10:27:27.95Z</time></trkpt><trkpt lat="44.22668253665113" lon="11.808973652094567"><ele>76.0</ele><time>2026-05-02T10:27:28.95Z</time></trkpt><trkpt lat="44.22671706865551" lon="11.809161128957713"><ele>76.0</ele><time>2026-05-02T10:27:29.95Z</time></trkpt><trkpt lat="44.22675310678546" lon="11.809329741338171"><ele>76.0</ele><time>2026-05-02T10:27:30.95Z</time></trkpt><trkpt lat="44.226789299228415" lon="11.809479503828454"><ele>76.0</ele><time>2026-05-02T10:27:31.95Z</time></trkpt><trkpt lat="44.22683459346528" lon="11.809605695943569"><ele>77.8</ele><time>2026-05-02T10:27:32.95Z</time></trkpt><trkpt lat="44.226911561396676" lon="11.809708095140364"><ele>79.6</ele><time>2026-05-02T10:27:33.95Z</time></trkpt><trkpt lat="44.22699392967524" lon="11.809785103231551"><ele>81.4</ele><time>2026-05-02T10:27:34.95Z</time></trkpt><trkpt lat="44.22707304251781" lon="11.80986036933638"><ele>83.2</ele><time>2026-05-02T10:27:35.95Z</time></trkpt><trkpt lat="44.22715046522726" lon="11.809939700126327"><ele>85.0</ele><time>2026-05-02T10:27:36.95Z</time></trkpt><trkpt lat="44.227230279376805" lon="11.81003601577874"><ele>85.0</ele><time>2026-05-02T10:27:37.95Z</time></trkpt><trkpt lat="44.22729596169705" lon="11.810154199479687"><ele>85.0</ele><time>2026-05-02T10:27:38.95Z</time></trkpt><trkpt lat="44.227362888502526" lon="11.810280248517861"><ele>85.0</ele><time>2026-05-02T10:27:39.95Z</time></trkpt><trkpt lat="44.22743185025152" lon="11.810412447822454"><ele>85.0</ele><time>2026-05-02T10:27:40.95Z</time></trkpt><trkpt lat="44.22750861597282" lon="11.81053593566822"><ele>87.0</ele><time>2026-05-02T10:27:41.95Z</time></trkpt><trkpt lat="44.22759416487017" lon="11.810647890241885"><ele>89.0</ele><time>2026-05-02T10:27:42.95Z</time></trkpt><trkpt lat="44.22768470709613" lon="11.810757220507746"><ele>91.0</ele><time>2026-05-02T10:27:43.95Z</time></trkpt><trkpt lat="44.22778943670039" lon="11.810846314309208"><ele>93.0</ele><time>2026-05-02T10:27:44.95Z</time></trkpt><trkpt lat="44.22790586566231" lon="11.81093780553176"><ele>92.5</ele><time>2026-05-02T10:27:45.95Z</time></trkpt><trkpt lat="44.22802284189857" lon="11.8110307402164"><ele>92.0</ele><time>2026-05-02T10:27:46.95Z</time></trkpt><trkpt lat="44.22814039861327" lon="11.811135111356142"><ele>91.5</ele><time>2026-05-02T10:27:47.95Z</time></trkpt><trkpt lat="44.22826667815647" lon="11.811245713147958"><ele>91.0</ele><time>2026-05-02T10:27:48.95Z</time></trkpt><trkpt lat="44.2284027001254" lon="11.811362035624029"><ele>91.0</ele><time>2026-05-02T10:27:49.95Z</time></trkpt><trkpt lat="44.22854587556605" lon="11.811481281953416"><ele>91.0</ele><time>2026-05-02T10:27:50.95Z</time></trkpt><trkpt lat="44.228695167569995" lon="11.811600204561165"><ele>91.0</ele><time>2026-05-02T10:27:51.95Z</time></trkpt><trkpt lat="44.22884209047809" lon="11.811716001108078"><ele>90.0</ele><time>2026-05-02T10:27:52.95Z</time></trkpt><trkpt lat="44.228990190219264" lon="11.811828427461316"><ele>89.0</ele><time>2026-05-02T10:27:53.95Z</time></trkpt><trkpt lat="44.22914154504321" lon="11.811931379962777"><ele>88.0</ele><time>2026-05-02T10:27:54.95Z</time></trkpt><trkpt lat="44.22928197031886" lon="11.812014766214322"><ele>88.0</ele><time>2026-05-02T10:27:55.95Z</time></trkpt><trkpt lat="44.22941241022424" lon="11.81209451998226"><ele>88.0</ele><time>2026-05-02T10:27:56.95Z</time></trkpt><trkpt lat="44.229526285137005" lon="11.812173356437423"><ele>88.0</ele><time>2026-05-02T10:27:57.95Z</time></trkpt><trkpt lat="44.229628748822975" lon="11.812253441481255"><ele>88.0</ele><time>2026-05-02T10:27:58.95Z</time></trkpt><trkpt lat="44.229723364556456" lon="11.812337135654753"><ele>88.25</ele><time>2026-05-02T10:27:59.95Z</time></trkpt><trkpt lat="44.22981183220127" lon="11.812430985195498"><ele>88.5</ele><time>2026-05-02T10:28:00.95Z</time></trkpt><trkpt lat="44.22990332056762" lon="11.812532819272285"><ele>88.75</ele><time>2026-05-02T10:28:01.95Z</time></trkpt><trkpt lat="44.22999969140322" lon="11.812654832404311"><ele>89.0</ele><time>2026-05-02T10:28:02.95Z</time></trkpt><trkpt lat="44.230103035553384" lon="11.812780064794165"><ele>89.0</ele><time>2026-05-02T10:28:03.95Z</time></trkpt><trkpt lat="44.230211785051765" lon="11.812907038010213"><ele>89.0</ele><time>2026-05-02T10:28:04.95Z</time></trkpt><trkpt lat="44.230323446336264" lon="11.813037583563018"><ele>89.0</ele><time>2026-05-02T10:28:05.95Z</time></trkpt><trkpt lat="44.23042211767088" lon="11.81316176761725"><ele>89.0</ele><time>2026-05-02T10:28:06.95Z</time></trkpt><trkpt lat="44.23051484683467" lon="11.813273806875427"><ele>89.0</ele><time>2026-05-02T10:28:07.95Z</time></trkpt><trkpt lat="44.23060105511849" lon="11.813381241091209"><ele>89.0</ele><time>2026-05-02T10:28:08.95Z</time></trkpt><trkpt lat="44.23069528105321" lon="11.813480629893148"><ele>89.0</ele><time>2026-05-02T10:28:09.95Z</time></trkpt><trkpt lat="44.23079329840979" lon="11.813553398649702"><ele>89.0</ele><time>2026-05-02T10:28:10.95Z</time></trkpt><trkpt lat="44.230894518734" lon="11.813582048082754"><ele>89.0</ele><time>2026-05-02T10:28:11.95Z</time></trkpt><trkpt lat="44.23100366024596" lon="11.813587615431022"><ele>89.25</ele><time>2026-05-02T10:28:12.95Z</time></trkpt><trkpt lat="44.231107777466036" lon="11.813561917346005"><ele>89.5</ele><time>2026-05-02T10:28:13.95Z</time></trkpt><trkpt lat="44.23121154501689" lon="11.813489697353951"><ele>89.75</ele><time>2026-05-02T10:28:14.95Z</time></trkpt><trkpt lat="44.23131433592555" lon="11.813384303659689"><ele>90.0</ele><time>2026-05-02T10:28:15.95Z</time></trkpt><trkpt lat="44.23141614752721" lon="11.813278862891345"><ele>88.2</ele><time>2026-05-02T10:28:16.95Z</time></trkpt><trkpt lat="44.23151323881449" lon="11.813177158963647"><ele>86.4</ele><time>2026-05-02T10:28:17.95Z</time></trkpt><trkpt lat="44.23161021667153" lon="11.813078473453515"><ele>84.6</ele><time>2026-05-02T10:28:18.95Z</time></trkpt><trkpt lat="44.23169614410976" lon="11.812991179363632"><ele>82.8</ele><time>2026-05-02T10:28:19.95Z</time></trkpt><trkpt lat="44.23177380634562" lon="11.812915981339344"><ele>81.0</ele><time>2026-05-02T10:28:20.95Z</time></trkpt><trkpt lat="44.2318568381899" lon="11.81285586807266"><ele>81.0</ele><time>2026-05-02T10:28:21.95Z</time></trkpt><trkpt lat="44.23194964399466" lon="11.812822911610217"><ele>81.0</ele><time>2026-05-02T10:28:22.95Z</time></trkpt><trkpt lat="44.232051857478716" lon="11.812824156880097"><ele>81.0</ele><time>2026-05-02T10:28:23.95Z</time></trkpt><trkpt lat="44.23215459518974" lon="11.812870412816476"><ele>81.0</ele><time>2026-05-02T10:28:24.95Z</time></trkpt><trkpt lat="44.23226114388067" lon="11.812966507743539"><ele>81.0</ele><time>2026-05-02T10:28:25.95Z</time></trkpt><trkpt lat="44.23235910663908" lon="11.813102847623506"><ele>80.33333333333333</ele><time>2026-05-02T10:28:26.95Z</time></trkpt><trkpt lat="44.23246344488497" lon="11.813268193968563"><ele>79.66666666666666</ele><time>2026-05-02T10:28:27.95Z</time></trkpt><trkpt lat="44.23257911875157" lon="11.813451974247938"><ele>79.0</ele><time>2026-05-02T10:28:28.95Z</time></trkpt><trkpt lat="44.23271908298739" lon="11.813668810857251"><ele>79.0</ele><time>2026-05-02T10:28:29.95Z</time></trkpt><trkpt lat="44.23287022701686" lon="11.813914380020925"><ele>79.0</ele><time>2026-05-02T10:28:30.95Z</time></trkpt><trkpt lat="44.23303046925123" lon="11.814178498349218"><ele>78.0</ele><time>2026-05-02T10:28:31.95Z</time></trkpt><trkpt lat="44.23320474891655" lon="11.814465035023925"><ele>77.0</ele><time>2026-05-02T10:28:32.95Z</time></trkpt><trkpt lat="44.23338973174091" lon="11.814752471777192"><ele>77.0</ele><time>2026-05-02T10:28:33.95Z</time></trkpt><trkpt lat="44.23357412893355" lon="11.815034083007117"><ele>77.0</ele><time>2026-05-02T10:28:34.95Z</time></trkpt><trkpt lat="44.233753588058185" lon="11.815310065899897"><ele>78.5</ele><time>2026-05-02T10:28:35.95Z</time></trkpt><trkpt lat="44.23392754288086" lon="11.815586173925313"><ele>80.0</ele><time>2026-05-02T10:28:36.95Z</time></trkpt><trkpt lat="44.234097945296945" lon="11.815858189628061"><ele>79.0</ele><time>2026-05-02T10:28:37.95Z</time></trkpt><trkpt lat="44.234260055930854" lon="11.816132947100556"><ele>78.0</ele><time>2026-05-02T10:28:38.95Z</time></trkpt><trkpt lat="44.23439196559011" lon="11.816438638077853"><ele>78.0</ele><time>2026-05-02T10:28:39.95Z</time></trkpt><trkpt lat="44.23452757773189" lon="11.816768039381682"><ele>78.0</ele><time>2026-05-02T10:28:40.95Z</time></trkpt><trkpt lat="44.23466405859253" lon="11.817118920755007"><ele>78.0</ele><time>2026-05-02T10:28:41.95Z</time></trkpt><trkpt lat="44.2348087119415" lon="11.817490812942136"><ele>78.0</ele><time>2026-05-02T10:28:42.95Z</time></trkpt><trkpt lat="44.23498005190056" lon="11.817879568381073"><ele>78.0</ele><time>2026-05-02T10:28:43.95Z</time></trkpt><trkpt lat="44.23512844240769" lon="11.81826173903963"><ele>78.0</ele><time>2026-05-02T10:28:44.947Z</time></trkpt><trkpt lat="44.235267340352515" lon="11.818617072583807"><ele>79.5</ele><time>2026-05-02T10:28:45.948Z</time></trkpt><trkpt lat="44.235402071511835" lon="11.818950854959944"><ele>81.0</ele><time>2026-05-02T10:28:46.948Z</time></trkpt><trkpt lat="44.235532893715686" lon="11.819275433444963"><ele>80.5</ele><time>2026-05-02T10:28:47.947Z</time></trkpt><trkpt lat="44.23565249161681" lon="11.819576822478503"><ele>80.0</ele><time>2026-05-02T10:28:48.948Z</time></trkpt><trkpt lat="44.23576563250258" lon="11.819854949399744"><ele>80.0</ele><time>2026-05-02T10:28:49.948Z</time></trkpt><trkpt lat="44.235882139997166" lon="11.820119798883354"><ele>80.0</ele><time>2026-05-02T10:28:50.947Z</time></trkpt><trkpt lat="44.23601354048547" lon="11.820370394169926"><ele>80.0</ele><time>2026-05-02T10:28:51.947Z</time></trkpt><trkpt lat="44.23616013217731" lon="11.820612333022606"><ele>81.33333333333334</ele><time>2026-05-02T10:28:52.947Z</time></trkpt><trkpt lat="44.236310028835405" lon="11.820847990474313"><ele>82.66666666666667</ele><time>2026-05-02T10:28:53.947Z</time></trkpt><trkpt lat="44.23645937041895" lon="11.821078772263615"><ele>84.0</ele><time>2026-05-02T10:28:54.947Z</time></trkpt><trkpt lat="44.23660412956958" lon="11.821306801826326"><ele>84.0</ele><time>2026-05-02T10:28:55.947Z</time></trkpt><trkpt lat="44.23674709024139" lon="11.821528926221024"><ele>84.0</ele><time>2026-05-02T10:28:56.948Z</time></trkpt><trkpt lat="44.23688162113526" lon="11.82173613864704"><ele>84.0</ele><time>2026-05-02T10:28:57.948Z</time></trkpt><trkpt lat="44.23700541795883" lon="11.821933147765275"><ele>84.66666666666667</ele><time>2026-05-02T10:28:58.948Z</time></trkpt><trkpt lat="44.237124345596136" lon="11.822131375532978"><ele>85.33333333333334</ele><time>2026-05-02T10:28:59.948Z</time></trkpt><trkpt lat="44.23722779856846" lon="11.822324277563775"><ele>86.0</ele><time>2026-05-02T10:29:00.948Z</time></trkpt><trkpt lat="44.237284835018954" lon="11.822529603747235"><ele>85.5</ele><time>2026-05-02T10:29:01.948Z</time></trkpt><trkpt lat="44.23734129653853" lon="11.822731522509798"><ele>85.0</ele><time>2026-05-02T10:29:02.948Z</time></trkpt><trkpt lat="44.2373822403541" lon="11.822924027693288"><ele>84.5</ele><time>2026-05-02T10:29:03.948Z</time></trkpt><trkpt lat="44.23739907735693" lon="11.823087530718222"><ele>84.0</ele><time>2026-05-02T10:29:04.948Z</time></trkpt><trkpt lat="44.237386850437524" lon="11.823226559848505"><ele>84.0</ele><time>2026-05-02T10:29:05.948Z</time></trkpt><trkpt lat="44.23733106465763" lon="11.823353675366459"><ele>84.0</ele><time>2026-05-02T10:29:06.948Z</time></trkpt><trkpt lat="44.237242022279126" lon="11.823498300056118"><ele>84.0</ele><time>2026-05-02T10:29:07.948Z</time></trkpt><trkpt lat="44.23716319857535" lon="11.823671517978642"><ele>84.0</ele><time>2026-05-02T10:29:08.948Z</time></trkpt><trkpt lat="44.237063275608804" lon="11.8238489796376"><ele>84.25</ele><time>2026-05-02T10:29:09.948Z</time></trkpt><trkpt lat="44.236970222137266" lon="11.824042146308585"><ele>84.5</ele><time>2026-05-02T10:29:10.948Z</time></trkpt><trkpt lat="44.23688513542055" lon="11.824222803657474"><ele>84.75</ele><time>2026-05-02T10:29:11.948Z</time></trkpt><trkpt lat="44.23682500646513" lon="11.824379542281886"><ele>85.0</ele><time>2026-05-02T10:29:12.948Z</time></trkpt><trkpt lat="44.236780077925935" lon="11.824518514384303"><ele>85.0</ele><time>2026-05-02T10:29:13.948Z</time></trkpt><trkpt lat="44.2367732250936" lon="11.824653519105857"><ele>85.0</ele><time>2026-05-02T10:29:14.948Z</time></trkpt><trkpt lat="44.23680815684488" lon="11.824790648013051"><ele>85.0</ele><time>2026-05-02T10:29:15.948Z</time></trkpt><trkpt lat="44.236882938832515" lon="11.824909930236302"><ele>85.0</ele><time>2026-05-02T10:29:16.948Z</time></trkpt><trkpt lat="44.23700160596901" lon="11.825013302546886"><ele>85.0</ele><time>2026-05-02T10:29:17.948Z</time></trkpt><trkpt lat="44.23712719130629" lon="11.825132220791259"><ele>85.0</ele><time>2026-05-02T10:29:18.948Z</time></trkpt><trkpt lat="44.23726772986796" lon="11.82526660503314"><ele>85.0</ele><time>2026-05-02T10:29:19.948Z</time></trkpt><trkpt lat="44.23741103672101" lon="11.825416454577825"><ele>85.33333333333333</ele><time>2026-05-02T10:29:20.948Z</time></trkpt><trkpt lat="44.2375538088815" lon="11.825579033347221"><ele>85.66666666666667</ele><time>2026-05-02T10:29:21.948Z</time></trkpt><trkpt lat="44.23770111292026" lon="11.82574964638766"><ele>86.0</ele><time>2026-05-02T10:29:22.948Z</time></trkpt><trkpt lat="44.23785005522988" lon="11.825925773749532"><ele>86.33333333333334</ele><time>2026-05-02T10:29:23.948Z</time></trkpt><trkpt lat="44.237996159487416" lon="11.826108881765029"><ele>86.66666666666667</ele><time>2026-05-02T10:29:24.948Z</time></trkpt><trkpt lat="44.23813451243239" lon="11.826301768870561"><ele>87.0</ele><time>2026-05-02T10:29:25.948Z</time></trkpt><trkpt lat="44.23826683802377" lon="11.82651711679664"><ele>86.66666666666667</ele><time>2026-05-02T10:29:26.948Z</time></trkpt><trkpt lat="44.238398007458834" lon="11.826748398453415"><ele>86.33333333333334</ele><time>2026-05-02T10:29:27.948Z</time></trkpt><trkpt lat="44.23853071241383" lon="11.826980213840843"><ele>86.0</ele><time>2026-05-02T10:29:28.948Z</time></trkpt><trkpt lat="44.23866062540318" lon="11.8272074871419"><ele>86.0</ele><time>2026-05-02T10:29:29.948Z</time></trkpt><trkpt lat="44.23878758781934" lon="11.82743070952504"><ele>86.0</ele><time>2026-05-02T10:29:30.948Z</time></trkpt><trkpt lat="44.238914809538414" lon="11.827650406953222"><ele>86.0</ele><time>2026-05-02T10:29:31.948Z</time></trkpt><trkpt lat="44.2390449525" lon="11.82787184510119"><ele>86.0</ele><time>2026-05-02T10:29:32.948Z</time></trkpt><trkpt lat="44.239171063012925" lon="11.828089472652266"><ele>86.0</ele><time>2026-05-02T10:29:33.948Z</time></trkpt><trkpt lat="44.23929654711125" lon="11.828306368187008"><ele>86.0</ele><time>2026-05-02T10:29:34.948Z</time></trkpt><trkpt lat="44.23942336301211" lon="11.828531593404678"><ele>86.0</ele><time>2026-05-02T10:29:35.948Z</time></trkpt><trkpt lat="44.239561032800026" lon="11.82874968923181"><ele>86.0</ele><time>2026-05-02T10:29:36.948Z</time></trkpt><trkpt lat="44.239694729393236" lon="11.828972486687046"><ele>86.0</ele><time>2026-05-02T10:29:37.948Z</time></trkpt><trkpt lat="44.239825394018176" lon="11.829190962376085"><ele>84.33333333333334</ele><time>2026-05-02T10:29:38.948Z</time></trkpt><trkpt lat="44.23996101874138" lon="11.829408487880574"><ele>82.66666666666667</ele><time>2026-05-02T10:29:39.948Z</time></trkpt><trkpt lat="44.240097080561796" lon="11.829631023441507"><ele>81.0</ele><time>2026-05-02T10:29:40.948Z</time></trkpt><trkpt lat="44.24023226544317" lon="11.829852969653574"><ele>81.0</ele><time>2026-05-02T10:29:41.948Z</time></trkpt><trkpt lat="44.24036708904463" lon="11.830069494546862"><ele>81.0</ele><time>2026-05-02T10:29:42.948Z</time></trkpt><trkpt lat="44.24048611222431" lon="11.83027176605688"><ele>81.0</ele><time>2026-05-02T10:29:43.948Z</time></trkpt><trkpt lat="44.24060283166894" lon="11.830450514824744"><ele>81.25</ele><time>2026-05-02T10:29:44.947Z</time></trkpt><trkpt lat="44.240705400504524" lon="11.830610756247976"><ele>81.5</ele><time>2026-05-02T10:29:45.947Z</time></trkpt><trkpt lat="44.24079471335012" lon="11.830757296487569"><ele>81.75</ele><time>2026-05-02T10:29:46.947Z</time></trkpt><trkpt lat="44.240866089622585" lon="11.830891027855287"><ele>82.0</ele><time>2026-05-02T10:29:47.947Z</time></trkpt><trkpt lat="44.240914834570994" lon="11.831023649212375"><ele>82.0</ele><time>2026-05-02T10:29:48.947Z</time></trkpt><trkpt lat="44.24092398011101" lon="11.83114830307096"><ele>82.0</ele><time>2026-05-02T10:29:49.947Z</time></trkpt><trkpt lat="44.2408869634396" lon="11.831252105333068"><ele>82.0</ele><time>2026-05-02T10:29:50.947Z</time></trkpt><trkpt lat="44.24079336571796" lon="11.83133650520548"><ele>82.0</ele><time>2026-05-02T10:29:51.947Z</time></trkpt><trkpt lat="44.24071771355107" lon="11.831463071103485"><ele>82.0</ele><time>2026-05-02T10:29:52.947Z</time></trkpt><trkpt lat="44.24064118162084" lon="11.831617227964736"><ele>83.0</ele><time>2026-05-02T10:29:53.947Z</time></trkpt><trkpt lat="44.2405478375772" lon="11.831780334926176"><ele>84.0</ele><time>2026-05-02T10:29:54.947Z</time></trkpt><trkpt lat="44.24045928301412" lon="11.831930137648149"><ele>85.0</ele><time>2026-05-02T10:29:55.947Z</time></trkpt><trkpt lat="44.24038334209703" lon="11.832057389977809"><ele>86.0</ele><time>2026-05-02T10:29:56.947Z</time></trkpt><trkpt lat="44.24032586583255" lon="11.832190667125989"><ele>86.25</ele><time>2026-05-02T10:29:57.947Z</time></trkpt><trkpt lat="44.240308360966615" lon="11.832346906809839"><ele>86.5</ele><time>2026-05-02T10:29:58.947Z</time></trkpt><trkpt lat="44.240327022322745" lon="11.832518807257879"><ele>86.75</ele><time>2026-05-02T10:29:59.947Z</time></trkpt><trkpt lat="44.240385657981484" lon="11.832707376946507"><ele>87.0</ele><time>2026-05-02T10:30:00.947Z</time></trkpt><trkpt lat="44.24048284601655" lon="11.832895809924874"><ele>87.33333333333333</ele><time>2026-05-02T10:30:01.947Z</time></trkpt><trkpt lat="44.24059131270546" lon="11.833080281522122"><ele>87.66666666666666</ele><time>2026-05-02T10:30:02.947Z</time></trkpt><trkpt lat="44.24071015052248" lon="11.833264210015278"><ele>88.0</ele><time>2026-05-02T10:30:03.947Z</time></trkpt><trkpt lat="44.240851573036885" lon="11.833443504920425"><ele>86.33333333333333</ele><time>2026-05-02T10:30:04.947Z</time></trkpt><trkpt lat="44.24100243409829" lon="11.83361464864178"><ele>84.66666666666667</ele><time>2026-05-02T10:30:05.947Z</time></trkpt><trkpt lat="44.24117058438617" lon="11.833776736888646"><ele>83.0</ele><time>2026-05-02T10:30:06.947Z</time></trkpt><trkpt lat="44.24134529067647" lon="11.833933975662736"><ele>82.33333333333334</ele><time>2026-05-02T10:30:07.947Z</time></trkpt><trkpt lat="44.24151935825505" lon="11.834084458458726"><ele>81.66666666666667</ele><time>2026-05-02T10:30:08.947Z</time></trkpt><trkpt lat="44.241693299048606" lon="11.834231368450029"><ele>81.0</ele><time>2026-05-02T10:30:09.947Z</time></trkpt><trkpt lat="44.24185277043731" lon="11.83440755367391"><ele>81.0</ele><time>2026-05-02T10:30:10.947Z</time></trkpt><trkpt lat="44.242027673352304" lon="11.834560865918077"><ele>81.0</ele><time>2026-05-02T10:30:11.947Z</time></trkpt><trkpt lat="44.24218225983413" lon="11.834736621096102"><ele>81.0</ele><time>2026-05-02T10:30:12.947Z</time></trkpt><trkpt lat="44.24232276675266" lon="11.834906805216612"><ele>80.0</ele><time>2026-05-02T10:30:13.947Z</time></trkpt><trkpt lat="44.24244930464475" lon="11.835067542138063"><ele>79.0</ele><time>2026-05-02T10:30:14.947Z</time></trkpt><trkpt lat="44.242579423399505" lon="11.835209955375225"><ele>78.0</ele><time>2026-05-02T10:30:15.947Z</time></trkpt><trkpt lat="44.242721479763226" lon="11.835326338304384"><ele>78.0</ele><time>2026-05-02T10:30:16.947Z</time></trkpt><trkpt lat="44.242885001738244" lon="11.835422516243623"><ele>78.0</ele><time>2026-05-02T10:30:17.947Z</time></trkpt><trkpt lat="44.243072637457665" lon="11.835503895710486"><ele>78.0</ele><time>2026-05-02T10:30:18.947Z</time></trkpt><trkpt lat="44.243273634934795" lon="11.83558561932674"><ele>77.0</ele><time>2026-05-02T10:30:19.947Z</time></trkpt><trkpt lat="44.24347048332131" lon="11.835706799303008"><ele>76.0</ele><time>2026-05-02T10:30:20.947Z</time></trkpt><trkpt lat="44.243656168798765" lon="11.835827089778459"><ele>75.0</ele><time>2026-05-02T10:30:21.947Z</time></trkpt><trkpt lat="44.2438204430241" lon="11.835979063367597"><ele>73.66666666666667</ele><time>2026-05-02T10:30:22.947Z</time></trkpt><trkpt lat="44.243977520191116" lon="11.836150267096572"><ele>72.33333333333334</ele><time>2026-05-02T10:30:23.947Z</time></trkpt><trkpt lat="44.244128387201876" lon="11.836317251439693"><ele>71.0</ele><time>2026-05-02T10:30:24.947Z</time></trkpt><trkpt lat="44.24426263298254" lon="11.836484456061852"><ele>71.0</ele><time>2026-05-02T10:30:25.947Z</time></trkpt><trkpt lat="44.2443684852328" lon="11.836669764146018"><ele>71.0</ele><time>2026-05-02T10:30:26.947Z</time></trkpt><trkpt lat="44.24445050002076" lon="11.836867514948612"><ele>71.0</ele><time>2026-05-02T10:30:27.947Z</time></trkpt><trkpt lat="44.24453753141335" lon="11.837062827663754"><ele>71.33333333333334</ele><time>2026-05-02T10:30:28.947Z</time></trkpt><trkpt lat="44.24463589671168" lon="11.837243068635926"><ele>71.66666666666667</ele><time>2026-05-02T10:30:29.947Z</time></trkpt><trkpt lat="44.24474701832643" lon="11.837407340666966"><ele>72.0</ele><time>2026-05-02T10:30:30.947Z</time></trkpt><trkpt lat="44.24487117794316" lon="11.837561468564031"><ele>72.0</ele><time>2026-05-02T10:30:31.947Z</time></trkpt><trkpt lat="44.24501365338763" lon="11.837719562015042"><ele>72.0</ele><time>2026-05-02T10:30:32.947Z</time></trkpt><trkpt lat="44.24517195757869" lon="11.837875428521416"><ele>72.0</ele><time>2026-05-02T10:30:33.947Z</time></trkpt><trkpt lat="44.24530199414118" lon="11.83805597990285"><ele>72.0</ele><time>2026-05-02T10:30:34.947Z</time></trkpt><trkpt lat="44.24545203971197" lon="11.838227706855244"><ele>72.0</ele><time>2026-05-02T10:30:35.947Z</time></trkpt><trkpt lat="44.24558811753439" lon="11.838404314617021"><ele>72.0</ele><time>2026-05-02T10:30:36.947Z</time></trkpt><trkpt lat="44.24571415140478" lon="11.838562094052731"><ele>71.33333333333333</ele><time>2026-05-02T10:30:37.947Z</time></trkpt><trkpt lat="44.24584346103166" lon="11.838699210137612"><ele>70.66666666666666</ele><time>2026-05-02T10:30:38.947Z</time></trkpt><trkpt lat="44.245981947895096" lon="11.838822080653905"><ele>70.0</ele><time>2026-05-02T10:30:39.947Z</time></trkpt><trkpt lat="44.24612275328874" lon="11.838942450809766"><ele>70.0</ele><time>2026-05-02T10:30:40.947Z</time></trkpt><trkpt lat="44.2462631187717" lon="11.83906915731108"><ele>70.0</ele><time>2026-05-02T10:30:41.947Z</time></trkpt><trkpt lat="44.24638821121355" lon="11.839224703359704"><ele>70.0</ele><time>2026-05-02T10:30:42.947Z</time></trkpt><trkpt lat="44.246496305881394" lon="11.839425569977822"><ele>69.0</ele><time>2026-05-02T10:30:43.947Z</time></trkpt><trkpt lat="44.24660021799544" lon="11.839646323500139"><ele>68.0</ele><time>2026-05-02T10:30:44.947Z</time></trkpt><trkpt lat="44.24669984795891" lon="11.839847199950174"><ele>67.0</ele><time>2026-05-02T10:30:45.947Z</time></trkpt><trkpt lat="44.246801903661854" lon="11.840010247437258"><ele>67.0</ele><time>2026-05-02T10:30:46.947Z</time></trkpt><trkpt lat="44.24691770698807" lon="11.840132944545115"><ele>67.0</ele><time>2026-05-02T10:30:47.947Z</time></trkpt><trkpt lat="44.24705949991365" lon="11.840207319825014"><ele>67.0</ele><time>2026-05-02T10:30:48.947Z</time></trkpt><trkpt lat="44.24721972811663" lon="11.840260093558415"><ele>66.66666666666666</ele><time>2026-05-02T10:30:49.947Z</time></trkpt><trkpt lat="44.24737486738508" lon="11.840322382758663"><ele>66.33333333333333</ele><time>2026-05-02T10:30:50.945Z</time></trkpt><trkpt lat="44.247514056750816" lon="11.840441824897455"><ele>66.0</ele><time>2026-05-02T10:30:51.945Z</time></trkpt><trkpt lat="44.2476325336632" lon="11.840623887721453"><ele>66.0</ele><time>2026-05-02T10:30:52.945Z</time></trkpt><trkpt lat="44.24777448370618" lon="11.840790350074428"><ele>66.0</ele><time>2026-05-02T10:30:53.945Z</time></trkpt><trkpt lat="44.24790274623837" lon="11.840981541105206"><ele>66.0</ele><time>2026-05-02T10:30:54.945Z</time></trkpt><trkpt lat="44.248025894670164" lon="11.84115869440048"><ele>66.0</ele><time>2026-05-02T10:30:55.945Z</time></trkpt><trkpt lat="44.24815158591566" lon="11.841319113958875"><ele>66.0</ele><time>2026-05-02T10:30:56.945Z</time></trkpt><trkpt lat="44.24827404890769" lon="11.84147454727755"><ele>66.0</ele><time>2026-05-02T10:30:57.945Z</time></trkpt><trkpt lat="44.24838010500139" lon="11.841633567954066"><ele>66.33333333333333</ele><time>2026-05-02T10:30:58.945Z</time></trkpt><trkpt lat="44.248459957733665" lon="11.84182960318335"><ele>66.66666666666666</ele><time>2026-05-02T10:30:59.945Z</time></trkpt><trkpt lat="44.24851465817282" lon="11.842054285129004"><ele>67.0</ele><time>2026-05-02T10:31:00.945Z</time></trkpt><trkpt lat="44.24857379258717" lon="11.842278988520082"><ele>67.0</ele><time>2026-05-02T10:31:01.945Z</time></trkpt><trkpt lat="44.24866397989938" lon="11.842479709076477"><ele>67.0</ele><time>2026-05-02T10:31:02.945Z</time></trkpt><trkpt lat="44.248793296078794" lon="11.84265275204962"><ele>67.0</ele><time>2026-05-02T10:31:03.945Z</time></trkpt><trkpt lat="44.24892373629263" lon="11.84283164197868"><ele>68.0</ele><time>2026-05-02T10:31:04.945Z</time></trkpt><trkpt lat="44.249050129209834" lon="11.843010157881578"><ele>69.0</ele><time>2026-05-02T10:31:05.945Z</time></trkpt><trkpt lat="44.249159478828815" lon="11.843176250106621"><ele>70.0</ele><time>2026-05-02T10:31:06.945Z</time></trkpt><trkpt lat="44.24926184200346" lon="11.843328922518518"><ele>71.0</ele><time>2026-05-02T10:31:07.945Z</time></trkpt><trkpt lat="44.24935837262694" lon="11.843470027802585"><ele>72.0</ele><time>2026-05-02T10:31:08.945Z</time></trkpt><trkpt lat="44.24944521178585" lon="11.843599193393274"><ele>73.0</ele><time>2026-05-02T10:31:09.945Z</time></trkpt><trkpt lat="44.249517412026805" lon="11.843703797074255"><ele>74.0</ele><time>2026-05-02T10:31:10.945Z</time></trkpt><trkpt lat="44.249576259947226" lon="11.84376503397981"><ele>75.0</ele><time>2026-05-02T10:31:11.945Z</time></trkpt><trkpt lat="44.24964023053604" lon="11.843784310540668"><ele>75.0</ele><time>2026-05-02T10:31:12.945Z</time></trkpt><trkpt lat="44.249708806781584" lon="11.84369409215395"><ele>75.0</ele><time>2026-05-02T10:31:13.945Z</time></trkpt><trkpt lat="44.24978720248422" lon="11.843566638620565"><ele>75.0</ele><time>2026-05-02T10:31:14.945Z</time></trkpt><trkpt lat="44.24990569013151" lon="11.84343490900508"><ele>75.0</ele><time>2026-05-02T10:31:15.945Z</time></trkpt><trkpt lat="44.25002349458893" lon="11.843286392509553"><ele>72.33333333333333</ele><time>2026-05-02T10:31:16.945Z</time></trkpt><trkpt lat="44.250147091101205" lon="11.84313055080792"><ele>69.66666666666666</ele><time>2026-05-02T10:31:17.945Z</time></trkpt><trkpt lat="44.25027651037038" lon="11.842968688661633"><ele>67.0</ele><time>2026-05-02T10:31:18.945Z</time></trkpt><trkpt lat="44.25041390457004" lon="11.842804606108889"><ele>67.0</ele><time>2026-05-02T10:31:19.945Z</time></trkpt><trkpt lat="44.250557038387555" lon="11.842635860272264"><ele>67.0</ele><time>2026-05-02T10:31:20.945Z</time></trkpt><trkpt lat="44.25070534013995" lon="11.842464679804893"><ele>67.0</ele><time>2026-05-02T10:31:21.945Z</time></trkpt><trkpt lat="44.25085273942081" lon="11.84229950067526"><ele>65.33333333333333</ele><time>2026-05-02T10:31:22.945Z</time></trkpt><trkpt lat="44.251000639829364" lon="11.842130300395723"><ele>63.66666666666667</ele><time>2026-05-02T10:31:23.945Z</time></trkpt><trkpt lat="44.25115291229784" lon="11.84195257694122"><ele>62.0</ele><time>2026-05-02T10:31:24.945Z</time></trkpt><trkpt lat="44.251308695096924" lon="11.841769589486072"><ele>62.0</ele><time>2026-05-02T10:31:25.945Z</time></trkpt><trkpt lat="44.251457178620605" lon="11.84159470361979"><ele>62.0</ele><time>2026-05-02T10:31:26.945Z</time></trkpt><trkpt lat="44.25159714148316" lon="11.841433147202503"><ele>62.0</ele><time>2026-05-02T10:31:27.945Z</time></trkpt><trkpt lat="44.25173693832164" lon="11.841274759945508"><ele>61.66666666666667</ele><time>2026-05-02T10:31:28.945Z</time></trkpt><trkpt lat="44.251871775154804" lon="11.841124159071777"><ele>61.33333333333333</ele><time>2026-05-02T10:31:29.945Z</time></trkpt><trkpt lat="44.2519952215875" lon="11.840986563956402"><ele>61.0</ele><time>2026-05-02T10:31:30.945Z</time></trkpt><trkpt lat="44.2521079887858" lon="11.840857724127384"><ele>61.0</ele><time>2026-05-02T10:31:31.945Z</time></trkpt><trkpt lat="44.25221078047788" lon="11.840756032301856"><ele>61.0</ele><time>2026-05-02T10:31:32.945Z</time></trkpt><trkpt lat="44.25231397801512" lon="11.840688570185772"><ele>61.0</ele><time>2026-05-02T10:31:33.945Z</time></trkpt><trkpt lat="44.25241878882489" lon="11.84070458200248"><ele>61.0</ele><time>2026-05-02T10:31:34.945Z</time></trkpt><trkpt lat="44.2525368105575" lon="11.840738696699777"><ele>61.0</ele><time>2026-05-02T10:31:35.945Z</time></trkpt><trkpt lat="44.25263800084158" lon="11.840891378208804"><ele>61.0</ele><time>2026-05-02T10:31:36.945Z</time></trkpt><trkpt lat="44.25275066323104" lon="11.841032165805427"><ele>61.0</ele><time>2026-05-02T10:31:37.945Z</time></trkpt><trkpt lat="44.25287143883109" lon="11.841195606917076"><ele>61.0</ele><time>2026-05-02T10:31:38.945Z</time></trkpt><trkpt lat="44.25299189365244" lon="11.841376089142791"><ele>61.0</ele><time>2026-05-02T10:31:39.945Z</time></trkpt><trkpt lat="44.253110625174784" lon="11.841578021476977"><ele>61.0</ele><time>2026-05-02T10:31:40.945Z</time></trkpt><trkpt lat="44.25321925949955" lon="11.841799863877327"><ele>61.0</ele><time>2026-05-02T10:31:41.945Z</time></trkpt><trkpt lat="44.253322130756644" lon="11.842047894635373"><ele>61.0</ele><time>2026-05-02T10:31:42.945Z</time></trkpt><trkpt lat="44.25343138520151" lon="11.842302425449212"><ele>61.0</ele><time>2026-05-02T10:31:43.945Z</time></trkpt><trkpt lat="44.25355023350885" lon="11.842550534731188"><ele>60.33333333333333</ele><time>2026-05-02T10:31:44.945Z</time></trkpt><trkpt lat="44.25365713311053" lon="11.842791655826073"><ele>59.66666666666667</ele><time>2026-05-02T10:31:45.945Z</time></trkpt><trkpt lat="44.253767982162614" lon="11.843019333257992"><ele>59.0</ele><time>2026-05-02T10:31:46.945Z</time></trkpt><trkpt lat="44.25388894515055" lon="11.84323702457506"><ele>59.333333333333336</ele><time>2026-05-02T10:31:47.945Z</time></trkpt><trkpt lat="44.25400565524441" lon="11.843459948157594"><ele>59.66666666666667</ele><time>2026-05-02T10:31:48.945Z</time></trkpt><trkpt lat="44.254112130854" lon="11.843661169831945"><ele>60.0</ele><time>2026-05-02T10:31:49.945Z</time></trkpt><trkpt lat="44.254212406145044" lon="11.84384670830816"><ele>59.33333333333333</ele><time>2026-05-02T10:31:50.945Z</time></trkpt><trkpt lat="44.25432392500997" lon="11.844023438786659"><ele>58.666666666666664</ele><time>2026-05-02T10:31:51.945Z</time></trkpt><trkpt lat="44.25446245834901" lon="11.84417433326593"><ele>58.0</ele><time>2026-05-02T10:31:52.945Z</time></trkpt><trkpt lat="44.254653767229605" lon="11.844244850609673"><ele>57.33333333333333</ele><time>2026-05-02T10:31:53.945Z</time></trkpt><trkpt lat="44.254821744660795" lon="11.844341656334027"><ele>56.66666666666667</ele><time>2026-05-02T10:31:54.945Z</time></trkpt><trkpt lat="44.25498063113938" lon="11.844509545896596"><ele>56.0</ele><time>2026-05-02T10:31:55.945Z</time></trkpt><trkpt lat="44.25513353339505" lon="11.84469526606147"><ele>56.0</ele><time>2026-05-02T10:31:56.945Z</time></trkpt><trkpt lat="44.25527716816076" lon="11.844890717365967"><ele>56.0</ele><time>2026-05-02T10:31:57.945Z</time></trkpt><trkpt lat="44.25542641210362" lon="11.845081812255524"><ele>56.0</ele><time>2026-05-02T10:31:58.945Z</time></trkpt><trkpt lat="44.255581043710166" lon="11.84527141674616"><ele>55.66666666666667</ele><time>2026-05-02T10:31:59.945Z</time></trkpt><trkpt lat="44.25572722072203" lon="11.845459718745863"><ele>55.33333333333333</ele><time>2026-05-02T10:32:00.945Z</time></trkpt><trkpt lat="44.2558796557631" lon="11.845640719340581"><ele>55.0</ele><time>2026-05-02T10:32:01.945Z</time></trkpt><trkpt lat="44.25602972179491" lon="11.845823997655792"><ele>55.0</ele><time>2026-05-02T10:32:02.945Z</time></trkpt><trkpt lat="44.25618092036299" lon="11.846010269622052"><ele>55.0</ele><time>2026-05-02T10:32:03.945Z</time></trkpt><trkpt lat="44.256331167978814" lon="11.846199671753595"><ele>55.0</ele><time>2026-05-02T10:32:04.945Z</time></trkpt><trkpt lat="44.256476841158005" lon="11.846395552886445"><ele>54.33333333333333</ele><time>2026-05-02T10:32:05.945Z</time></trkpt><trkpt lat="44.25662184888213" lon="11.846613512139465"><ele>53.66666666666667</ele><time>2026-05-02T10:32:06.945Z</time></trkpt><trkpt lat="44.256759613730694" lon="11.846844245884931"><ele>53.0</ele><time>2026-05-02T10:32:07.945Z</time></trkpt><trkpt lat="44.256891030496035" lon="11.847083765801758"><ele>53.0</ele><time>2026-05-02T10:32:08.945Z</time></trkpt><trkpt lat="44.257021941763895" lon="11.847326649557019"><ele>53.0</ele><time>2026-05-02T10:32:09.945Z</time></trkpt><trkpt lat="44.257142212112406" lon="11.847564379652466"><ele>53.0</ele><time>2026-05-02T10:32:10.945Z</time></trkpt><trkpt lat="44.25725577324181" lon="11.847797723255589"><ele>52.66666666666667</ele><time>2026-05-02T10:32:11.945Z</time></trkpt><trkpt lat="44.2573630352385" lon="11.848026632186357"><ele>52.33333333333333</ele><time>2026-05-02T10:32:12.945Z</time></trkpt><trkpt lat="44.25746908293627" lon="11.848252823770464"><ele>52.0</ele><time>2026-05-02T10:32:13.945Z</time></trkpt><trkpt lat="44.25758267092076" lon="11.848476493634324"><ele>51.666666666666664</ele><time>2026-05-02T10:32:14.945Z</time></trkpt><trkpt lat="44.25771563435448" lon="11.848694734766912"><ele>51.33333333333333</ele><time>2026-05-02T10:32:15.945Z</time></trkpt><trkpt lat="44.25786009794098" lon="11.848910216698513"><ele>51.0</ele><time>2026-05-02T10:32:16.945Z</time></trkpt><trkpt lat="44.258004834567025" lon="11.849127509821816"><ele>51.66666666666667</ele><time>2026-05-02T10:32:17.945Z</time></trkpt><trkpt lat="44.25814807269432" lon="11.849344972948831"><ele>52.333333333333336</ele><time>2026-05-02T10:32:18.945Z</time></trkpt><trkpt lat="44.258294226800835" lon="11.849559063410904"><ele>53.0</ele><time>2026-05-02T10:32:19.945Z</time></trkpt><trkpt lat="44.25844216409106" lon="11.849774160689394"><ele>53.0</ele><time>2026-05-02T10:32:20.945Z</time></trkpt><trkpt lat="44.2585897997821" lon="11.849986259051377"><ele>53.0</ele><time>2026-05-02T10:32:21.945Z</time></trkpt><trkpt lat="44.258732786675246" lon="11.85019414668159"><ele>53.0</ele><time>2026-05-02T10:32:22.945Z</time></trkpt><trkpt lat="44.25886613845024" lon="11.85040181795787"><ele>52.0</ele><time>2026-05-02T10:32:23.945Z</time></trkpt><trkpt lat="44.25899997846381" lon="11.85061351068462"><ele>51.0</ele><time>2026-05-02T10:32:24.945Z</time></trkpt><trkpt lat="44.25912180985199" lon="11.850835290044175"><ele>50.0</ele><time>2026-05-02T10:32:25.945Z</time></trkpt><trkpt lat="44.25923609742102" lon="11.851045356312756"><ele>49.66666666666667</ele><time>2026-05-02T10:32:26.945Z</time></trkpt><trkpt lat="44.25934455835973" lon="11.851238546721573"><ele>49.33333333333333</ele><time>2026-05-02T10:32:27.945Z</time></trkpt><trkpt lat="44.25947122205834" lon="11.851411651475509"><ele>49.0</ele><time>2026-05-02T10:32:28.945Z</time></trkpt><trkpt lat="44.25963096318148" lon="11.851567391486226"><ele>48.666666666666664</ele><time>2026-05-02T10:32:29.945Z</time></trkpt><trkpt lat="44.259801217091535" lon="11.851707362733451"><ele>48.33333333333333</ele><time>2026-05-02T10:32:30.945Z</time></trkpt><trkpt lat="44.259981553106115" lon="11.851829125915819"><ele>48.0</ele><time>2026-05-02T10:32:31.945Z</time></trkpt><trkpt lat="44.26016850934676" lon="11.851933611057062"><ele>48.0</ele><time>2026-05-02T10:32:32.945Z</time></trkpt><trkpt lat="44.26035543759451" lon="11.852025668987528"><ele>48.0</ele><time>2026-05-02T10:32:33.945Z</time></trkpt><trkpt lat="44.26053963788332" lon="11.8521118178997"><ele>48.0</ele><time>2026-05-02T10:32:34.945Z</time></trkpt><trkpt lat="44.26071440294854" lon="11.852207247175059"><ele>48.33333333333333</ele><time>2026-05-02T10:32:35.945Z</time></trkpt><trkpt lat="44.26090676033024" lon="11.852304256652515"><ele>48.666666666666664</ele><time>2026-05-02T10:32:36.945Z</time></trkpt><trkpt lat="44.261092120733394" lon="11.852374739311472"><ele>49.0</ele><time>2026-05-02T10:32:37.945Z</time></trkpt><trkpt lat="44.26129318823534" lon="11.852419647223611"><ele>49.0</ele><time>2026-05-02T10:32:38.945Z</time></trkpt><trkpt lat="44.26150021504424" lon="11.852466004006514"><ele>49.0</ele><time>2026-05-02T10:32:39.945Z</time></trkpt><trkpt lat="44.26169640613136" lon="11.852544299487842"><ele>49.0</ele><time>2026-05-02T10:32:40.945Z</time></trkpt><trkpt lat="44.26187946736405" lon="11.852646682278694"><ele>49.0</ele><time>2026-05-02T10:32:41.945Z</time></trkpt><trkpt lat="44.26206587759986" lon="11.852751431865501"><ele>49.0</ele><time>2026-05-02T10:32:42.945Z</time></trkpt><trkpt lat="44.262238681170594" lon="11.85287837123034"><ele>49.0</ele><time>2026-05-02T10:32:43.945Z</time></trkpt><trkpt lat="44.26240376439898" lon="11.85302119939905"><ele>48.33333333333333</ele><time>2026-05-02T10:32:44.945Z</time></trkpt><trkpt lat="44.26255647266176" lon="11.853154964599849"><ele>47.666666666666664</ele><time>2026-05-02T10:32:45.945Z</time></trkpt><trkpt lat="44.26270428602625" lon="11.853283599470906"><ele>47.0</ele><time>2026-05-02T10:32:46.945Z</time></trkpt><trkpt lat="44.26287294853886" lon="11.853379952869227"><ele>47.0</ele><time>2026-05-02T10:32:47.945Z</time></trkpt><trkpt lat="44.26304069770473" lon="11.853463464870988"><ele>47.0</ele><time>2026-05-02T10:32:48.945Z</time></trkpt><trkpt lat="44.263210557951204" lon="11.853557412033583"><ele>47.0</ele><time>2026-05-02T10:32:49.944Z</time></trkpt><trkpt lat="44.26336776760798" lon="11.853672527896256"><ele>46.666666666666664</ele><time>2026-05-02T10:32:50.944Z</time></trkpt><trkpt lat="44.263511791613816" lon="11.853784330115259"><ele>46.333333333333336</ele><time>2026-05-02T10:32:51.944Z</time></trkpt><trkpt lat="44.26363743664953" lon="11.853905782814497"><ele>46.0</ele><time>2026-05-02T10:32:52.944Z</time></trkpt><trkpt lat="44.2637436007773" lon="11.854077274861902"><ele>46.0</ele><time>2026-05-02T10:32:53.944Z</time></trkpt><trkpt lat="44.263847880509545" lon="11.854277868399734"><ele>46.0</ele><time>2026-05-02T10:32:54.944Z</time></trkpt><trkpt lat="44.26392807342063" lon="11.854513463793767"><ele>46.0</ele><time>2026-05-02T10:32:55.944Z</time></trkpt><trkpt lat="44.26400781064678" lon="11.854762559979434"><ele>46.0</ele><time>2026-05-02T10:32:56.943Z</time></trkpt><trkpt lat="44.26411457950125" lon="11.854984247576573"><ele>46.0</ele><time>2026-05-02T10:32:57.943Z</time></trkpt><trkpt lat="44.26424002595728" lon="11.85518506980883"><ele>46.0</ele><time>2026-05-02T10:32:58.943Z</time></trkpt><trkpt lat="44.26438267723439" lon="11.855383632167905"><ele>46.0</ele><time>2026-05-02T10:32:59.942Z</time></trkpt><trkpt lat="44.2645008191792" lon="11.855616169076853"><ele>46.0</ele><time>2026-05-02T10:33:00.942Z</time></trkpt><trkpt lat="44.26461514166714" lon="11.855858842019941"><ele>46.0</ele><time>2026-05-02T10:33:01.942Z</time></trkpt><trkpt lat="44.26473574575442" lon="11.856084110886671"><ele>46.333333333333336</ele><time>2026-05-02T10:33:02.943Z</time></trkpt><trkpt lat="44.264846194907086" lon="11.856299661550782"><ele>46.666666666666664</ele><time>2026-05-02T10:33:03.942Z</time></trkpt><trkpt lat="44.26494884227322" lon="11.856494199920505"><ele>47.0</ele><time>2026-05-02T10:33:04.942Z</time></trkpt><trkpt lat="44.26505333789413" lon="11.856687496406284"><ele>46.33333333333333</ele><time>2026-05-02T10:33:05.943Z</time></trkpt><trkpt lat="44.26515633552889" lon="11.856885975668296"><ele>45.666666666666664</ele><time>2026-05-02T10:33:06.943Z</time></trkpt><trkpt lat="44.26526254453242" lon="11.857079330087128"><ele>45.0</ele><time>2026-05-02T10:33:07.943Z</time></trkpt><trkpt lat="44.26537011152854" lon="11.857275892750721"><ele>45.0</ele><time>2026-05-02T10:33:08.942Z</time></trkpt><trkpt lat="44.2654847893537" lon="11.857462590739543"><ele>45.0</ele><time>2026-05-02T10:33:09.942Z</time></trkpt><trkpt lat="44.265607488751584" lon="11.857644710789062"><ele>45.0</ele><time>2026-05-02T10:33:10.942Z</time></trkpt><trkpt lat="44.26572417924091" lon="11.857846580856318"><ele>44.666666666666664</ele><time>2026-05-02T10:33:11.942Z</time></trkpt><trkpt lat="44.26582264712098" lon="11.858071773918077"><ele>44.33333333333333</ele><time>2026-05-02T10:33:12.942Z</time></trkpt><trkpt lat="44.265897582352416" lon="11.858327529463002"><ele>44.0</ele><time>2026-05-02T10:33:13.942Z</time></trkpt><trkpt lat="44.26596378859947" lon="11.858575414309223"><ele>43.666666666666664</ele><time>2026-05-02T10:33:14.942Z</time></trkpt><trkpt lat="44.26603557898491" lon="11.858784200953343"><ele>43.333333333333336</ele><time>2026-05-02T10:33:15.942Z</time></trkpt><trkpt lat="44.26612594998599" lon="11.85898321081822"><ele>43.0</ele><time>2026-05-02T10:33:16.942Z</time></trkpt><trkpt lat="44.266237814526676" lon="11.859119039998388"><ele>43.0</ele><time>2026-05-02T10:33:17.942Z</time></trkpt><trkpt lat="44.266359662139806" lon="11.859225368041308"><ele>43.0</ele><time>2026-05-02T10:33:18.942Z</time></trkpt><trkpt lat="44.26650135178191" lon="11.8593208743054"><ele>43.0</ele><time>2026-05-02T10:33:19.942Z</time></trkpt><trkpt lat="44.266666089189805" lon="11.85941414177021"><ele>43.0</ele><time>2026-05-02T10:33:20.942Z</time></trkpt><trkpt lat="44.266830185560735" lon="11.859525574695088"><ele>43.0</ele><time>2026-05-02T10:33:21.942Z</time></trkpt><trkpt lat="44.26698996640255" lon="11.859652695667771"><ele>43.0</ele><time>2026-05-02T10:33:22.942Z</time></trkpt><trkpt lat="44.26714325515279" lon="11.859791225276751"><ele>43.0</ele><time>2026-05-02T10:33:23.942Z</time></trkpt><trkpt lat="44.267287890498764" lon="11.859951152968534"><ele>43.0</ele><time>2026-05-02T10:33:24.942Z</time></trkpt><trkpt lat="44.267418803948075" lon="11.860129119534673"><ele>43.0</ele><time>2026-05-02T10:33:25.942Z</time></trkpt><trkpt lat="44.26752193852114" lon="11.86034388039517"><ele>43.0</ele><time>2026-05-02T10:33:26.942Z</time></trkpt><trkpt lat="44.26760512937167" lon="11.860575995562225"><ele>43.0</ele><time>2026-05-02T10:33:27.942Z</time></trkpt><trkpt lat="44.26768519070943" lon="11.860813082117843"><ele>43.0</ele><time>2026-05-02T10:33:28.942Z</time></trkpt><trkpt lat="44.26776978920732" lon="11.861052105611442"><ele>43.0</ele><time>2026-05-02T10:33:29.942Z</time></trkpt><trkpt lat="44.2678576481092" lon="11.861276960249103"><ele>43.0</ele><time>2026-05-02T10:33:30.942Z</time></trkpt><trkpt lat="44.26795001073228" lon="11.861483998680693"><ele>43.0</ele><time>2026-05-02T10:33:31.942Z</time></trkpt><trkpt lat="44.26804768665718" lon="11.86168943592457"><ele>42.66666666666667</ele><time>2026-05-02T10:33:32.942Z</time></trkpt><trkpt lat="44.26813517641919" lon="11.861890878599914"><ele>42.333333333333336</ele><time>2026-05-02T10:33:33.942Z</time></trkpt><trkpt lat="44.268200857855184" lon="11.86208820069048"><ele>42.0</ele><time>2026-05-02T10:33:34.942Z</time></trkpt><trkpt lat="44.26822433094573" lon="11.862307495626675"><ele>42.0</ele><time>2026-05-02T10:33:35.942Z</time></trkpt><trkpt lat="44.26827227419131" lon="11.86253335719565"><ele>42.0</ele><time>2026-05-02T10:33:36.942Z</time></trkpt><trkpt lat="44.26832667651793" lon="11.862760139360775"><ele>42.0</ele><time>2026-05-02T10:33:37.942Z</time></trkpt><trkpt lat="44.2684245793512" lon="11.862981239223526"><ele>42.333333333333336</ele><time>2026-05-02T10:33:38.942Z</time></trkpt><trkpt lat="44.26854155215254" lon="11.863191678727286"><ele>42.66666666666667</ele><time>2026-05-02T10:33:39.942Z</time></trkpt><trkpt lat="44.26865742645218" lon="11.863399040739518"><ele>43.0</ele><time>2026-05-02T10:33:40.942Z</time></trkpt><trkpt lat="44.26878351413086" lon="11.863597552675076"><ele>43.0</ele><time>2026-05-02T10:33:41.942Z</time></trkpt><trkpt lat="44.268922582633685" lon="11.863789609436711"><ele>43.0</ele><time>2026-05-02T10:33:42.942Z</time></trkpt><trkpt lat="44.269065294918136" lon="11.86395988828893"><ele>43.0</ele><time>2026-05-02T10:33:43.942Z</time></trkpt><trkpt lat="44.26919880609628" lon="11.864119294752937"><ele>42.333333333333336</ele><time>2026-05-02T10:33:44.942Z</time></trkpt><trkpt lat="44.26932194765359" lon="11.864274751463105"><ele>41.666666666666664</ele><time>2026-05-02T10:33:45.942Z</time></trkpt><trkpt lat="44.269445858976184" lon="11.864418441179179"><ele>41.0</ele><time>2026-05-02T10:33:46.942Z</time></trkpt><trkpt lat="44.269579397625954" lon="11.864535881557602"><ele>40.666666666666664</ele><time>2026-05-02T10:33:47.942Z</time></trkpt><trkpt lat="44.26973274778496" lon="11.864618250396909"><ele>40.333333333333336</ele><time>2026-05-02T10:33:48.942Z</time></trkpt><trkpt lat="44.26990748657283" lon="11.86466895272074"><ele>40.0</ele><time>2026-05-02T10:33:49.942Z</time></trkpt><trkpt lat="44.2700987582869" lon="11.864721592378764"><ele>38.66666666666667</ele><time>2026-05-02T10:33:50.942Z</time></trkpt><trkpt lat="44.27028912660326" lon="11.864783845430793"><ele>37.333333333333336</ele><time>2026-05-02T10:33:51.942Z</time></trkpt><trkpt lat="44.27048355880423" lon="11.864857580498768"><ele>36.0</ele><time>2026-05-02T10:33:52.942Z</time></trkpt><trkpt lat="44.270670369093324" lon="11.86493440579064"><ele>36.0</ele><time>2026-05-02T10:33:53.942Z</time></trkpt><trkpt lat="44.27084311295871" lon="11.865033591433972"><ele>36.0</ele><time>2026-05-02T10:33:54.942Z</time></trkpt><trkpt lat="44.2710222900423" lon="11.86510344992768"><ele>36.0</ele><time>2026-05-02T10:33:55.942Z</time></trkpt><trkpt lat="44.27119136271212" lon="11.865166567907465"><ele>36.0</ele><time>2026-05-02T10:33:56.942Z</time></trkpt><trkpt lat="44.27135831476849" lon="11.865228117138374"><ele>36.0</ele><time>2026-05-02T10:33:57.942Z</time></trkpt><trkpt lat="44.27152592684463" lon="11.865287612073049"><ele>36.0</ele><time>2026-05-02T10:33:58.942Z</time></trkpt><trkpt lat="44.27169193426317" lon="11.865364644656692"><ele>36.0</ele><time>2026-05-02T10:33:59.942Z</time></trkpt><trkpt lat="44.2718602195795" lon="11.865467037458965"><ele>36.0</ele><time>2026-05-02T10:34:00.942Z</time></trkpt><trkpt lat="44.27202252469601" lon="11.865604960506566"><ele>36.0</ele><time>2026-05-02T10:34:01.942Z</time></trkpt><trkpt lat="44.2721701775328" lon="11.865782258322655"><ele>36.333333333333336</ele><time>2026-05-02T10:34:02.942Z</time></trkpt><trkpt lat="44.2723096930485" lon="11.865967790896752"><ele>36.66666666666667</ele><time>2026-05-02T10:34:03.942Z</time></trkpt><trkpt lat="44.27244862610582" lon="11.866138438523707"><ele>37.0</ele><time>2026-05-02T10:34:04.942Z</time></trkpt><trkpt lat="44.27258575351115" lon="11.866304619868053"><ele>37.0</ele><time>2026-05-02T10:34:05.942Z</time></trkpt><trkpt lat="44.27271538084702" lon="11.866459906767094"><ele>37.0</ele><time>2026-05-02T10:34:06.942Z</time></trkpt><trkpt lat="44.27285195048127" lon="11.866595607905127"><ele>37.0</ele><time>2026-05-02T10:34:07.942Z</time></trkpt><trkpt lat="44.27298510758387" lon="11.866747516239741"><ele>36.333333333333336</ele><time>2026-05-02T10:34:08.942Z</time></trkpt><trkpt lat="44.27312638284677" lon="11.866901024319029"><ele>35.666666666666664</ele><time>2026-05-02T10:34:09.942Z</time></trkpt><trkpt lat="44.273273052594135" lon="11.86706327558591"><ele>35.0</ele><time>2026-05-02T10:34:10.942Z</time></trkpt><trkpt lat="44.27342048598045" lon="11.86723173370356"><ele>35.0</ele><time>2026-05-02T10:34:11.942Z</time></trkpt><trkpt lat="44.2735604015839" lon="11.867413305590244"><ele>35.0</ele><time>2026-05-02T10:34:12.942Z</time></trkpt><trkpt lat="44.273688205264925" lon="11.867622267766128"><ele>35.0</ele><time>2026-05-02T10:34:13.942Z</time></trkpt><trkpt lat="44.27379741043857" lon="11.867834150261201"><ele>34.5</ele><time>2026-05-02T10:34:14.942Z</time></trkpt><trkpt lat="44.27389462316905" lon="11.86802836920347"><ele>34.0</ele><time>2026-05-02T10:34:15.942Z</time></trkpt><trkpt lat="44.273983115918035" lon="11.868192663401732"><ele>33.5</ele><time>2026-05-02T10:34:16.942Z</time></trkpt><trkpt lat="44.27406407284684" lon="11.868334350938994"><ele>33.0</ele><time>2026-05-02T10:34:17.942Z</time></trkpt><trkpt lat="44.27411528258138" lon="11.868456283840915"><ele>32.75</ele><time>2026-05-02T10:34:18.942Z</time></trkpt><trkpt lat="44.274130173612946" lon="11.868596125785698"><ele>32.5</ele><time>2026-05-02T10:34:19.942Z</time></trkpt><trkpt lat="44.27410382133583" lon="11.868750955595138"><ele>32.25</ele><time>2026-05-02T10:34:20.942Z</time></trkpt><trkpt lat="44.27402979882887" lon="11.868903897184028"><ele>32.0</ele><time>2026-05-02T10:34:21.942Z</time></trkpt><trkpt lat="44.273936639264015" lon="11.86905718311149"><ele>32.0</ele><time>2026-05-02T10:34:22.942Z</time></trkpt><trkpt lat="44.27383597882891" lon="11.86922751452647"><ele>32.0</ele><time>2026-05-02T10:34:23.942Z</time></trkpt><trkpt lat="44.27373117562951" lon="11.869415744384607"><ele>32.0</ele><time>2026-05-02T10:34:24.942Z</time></trkpt><trkpt lat="44.27362779854628" lon="11.86961236011682"><ele>32.0</ele><time>2026-05-02T10:34:25.942Z</time></trkpt><trkpt lat="44.273525849897254" lon="11.86981029860444"><ele>32.0</ele><time>2026-05-02T10:34:26.942Z</time></trkpt><trkpt lat="44.27343560390342" lon="11.87000219280992"><ele>32.0</ele><time>2026-05-02T10:34:27.942Z</time></trkpt><trkpt lat="44.2733591759862" lon="11.87020570656291"><ele>31.666666666666664</ele><time>2026-05-02T10:34:28.942Z</time></trkpt><trkpt lat="44.273301294102005" lon="11.870431675956043"><ele>31.333333333333336</ele><time>2026-05-02T10:34:29.942Z</time></trkpt><trkpt lat="44.27326982454907" lon="11.870662022245032"><ele>31.0</ele><time>2026-05-02T10:34:30.942Z</time></trkpt><trkpt lat="44.27324125578897" lon="11.870868876338232"><ele>31.0</ele><time>2026-05-02T10:34:31.942Z</time></trkpt><trkpt lat="44.27319625258006" lon="11.871057345269426"><ele>31.0</ele><time>2026-05-02T10:34:32.942Z</time></trkpt><trkpt lat="44.273093497936685" lon="11.871200738865959"><ele>31.0</ele><time>2026-05-02T10:34:33.942Z</time></trkpt><trkpt lat="44.27297547296501" lon="11.871352612598953"><ele>31.0</ele><time>2026-05-02T10:34:34.942Z</time></trkpt><trkpt lat="44.27284327663958" lon="11.87151329826757"><ele>32.0</ele><time>2026-05-02T10:34:35.942Z</time></trkpt><trkpt lat="44.27271990810587" lon="11.871688069775443"><ele>33.0</ele><time>2026-05-02T10:34:36.942Z</time></trkpt><trkpt lat="44.27259633218991" lon="11.871840228343313"><ele>34.0</ele><time>2026-05-02T10:34:37.942Z</time></trkpt><trkpt lat="44.27248867144939" lon="11.871971071567696"><ele>34.0</ele><time>2026-05-02T10:34:38.942Z</time></trkpt><trkpt lat="44.27239578656779" lon="11.87208799002586"><ele>34.0</ele><time>2026-05-02T10:34:39.942Z</time></trkpt><trkpt lat="44.27233024949428" lon="11.872187870185503"><ele>34.0</ele><time>2026-05-02T10:34:40.942Z</time></trkpt><trkpt lat="44.27230291315093" lon="11.872288529372241"><ele>34.0</ele><time>2026-05-02T10:34:41.942Z</time></trkpt><trkpt lat="44.27231880942043" lon="11.872398883629003"><ele>34.0</ele><time>2026-05-02T10:34:42.942Z</time></trkpt><trkpt lat="44.272380922175664" lon="11.872525424890378"><ele>34.333333333333336</ele><time>2026-05-02T10:34:43.942Z</time></trkpt><trkpt lat="44.27247176357471" lon="11.872655338780852"><ele>34.666666666666664</ele><time>2026-05-02T10:34:44.942Z</time></trkpt><trkpt lat="44.272592142660834" lon="11.872803033656742"><ele>35.0</ele><time>2026-05-02T10:34:45.942Z</time></trkpt><trkpt lat="44.27271087461145" lon="11.872977507105432"><ele>35.0</ele><time>2026-05-02T10:34:46.942Z</time></trkpt><trkpt lat="44.27283345723818" lon="11.873155526310816"><ele>35.0</ele><time>2026-05-02T10:34:47.942Z</time></trkpt><trkpt lat="44.2729557703516" lon="11.8733420428869"><ele>35.0</ele><time>2026-05-02T10:34:48.942Z</time></trkpt><trkpt lat="44.27307454009314" lon="11.87353881701786"><ele>33.666666666666664</ele><time>2026-05-02T10:34:49.942Z</time></trkpt><trkpt lat="44.27318728566604" lon="11.873737185537118"><ele>32.333333333333336</ele><time>2026-05-02T10:34:50.942Z</time></trkpt><trkpt lat="44.27328492119183" lon="11.873923746527195"><ele>31.0</ele><time>2026-05-02T10:34:51.942Z</time></trkpt><trkpt lat="44.27337085362171" lon="11.874096782873842"><ele>31.0</ele><time>2026-05-02T10:34:52.942Z</time></trkpt><trkpt lat="44.273447772555315" lon="11.874252648491968"><ele>31.0</ele><time>2026-05-02T10:34:53.942Z</time></trkpt><trkpt lat="44.27351890584793" lon="11.874391345914397"><ele>31.0</ele><time>2026-05-02T10:34:54.942Z</time></trkpt><trkpt lat="44.27358135123723" lon="11.87449821491852"><ele>31.0</ele><time>2026-05-02T10:34:55.942Z</time></trkpt><trkpt lat="44.273634508167746" lon="11.874583342223012"><ele>31.0</ele><time>2026-05-02T10:34:56.942Z</time></trkpt><trkpt lat="44.27368653578653" lon="11.874690320159306"><ele>30.8</ele><time>2026-05-02T10:34:58.942Z</time></trkpt><trkpt lat="44.2736926357808" lon="11.874794783993408"><ele>30.6</ele><time>2026-05-02T10:35:21.94Z</time></trkpt><trkpt lat="44.27376912940261" lon="11.874855913276859"><ele>30.4</ele><time>2026-05-02T10:35:23.94Z</time></trkpt><trkpt lat="44.273850039710204" lon="11.874861560671468"><ele>30.2</ele><time>2026-05-02T10:35:24.94Z</time></trkpt><trkpt lat="44.273946720877696" lon="11.874865835729508"><ele>30.0</ele><time>2026-05-02T10:35:25.94Z</time></trkpt><trkpt lat="44.27406347379926" lon="11.874876722959893"><ele>29.75</ele><time>2026-05-02T10:35:26.94Z</time></trkpt><trkpt lat="44.27419308138188" lon="11.874889073011111"><ele>29.5</ele><time>2026-05-02T10:35:27.94Z</time></trkpt><trkpt lat="44.274330747457135" lon="11.87490520527206"><ele>29.25</ele><time>2026-05-02T10:35:28.94Z</time></trkpt><trkpt lat="44.274477696073184" lon="11.874925260614786"><ele>29.0</ele><time>2026-05-02T10:35:29.94Z</time></trkpt><trkpt lat="44.27462939773662" lon="11.874954809790923"><ele>29.5</ele><time>2026-05-02T10:35:30.94Z</time></trkpt><trkpt lat="44.27477661168158" lon="11.87499937900094"><ele>30.0</ele><time>2026-05-02T10:35:31.94Z</time></trkpt><trkpt lat="44.27491776503329" lon="11.875063311667454"><ele>30.5</ele><time>2026-05-02T10:35:32.94Z</time></trkpt><trkpt lat="44.27505090735116" lon="11.875145859387333"><ele>31.0</ele><time>2026-05-02T10:35:33.94Z</time></trkpt><trkpt lat="44.27517470270331" lon="11.875245736639176"><ele>31.0</ele><time>2026-05-02T10:35:34.94Z</time></trkpt><trkpt lat="44.27529044344981" lon="11.875350319782202"><ele>31.0</ele><time>2026-05-02T10:35:35.94Z</time></trkpt><trkpt lat="44.27539934915006" lon="11.875471397291887"><ele>31.0</ele><time>2026-05-02T10:35:36.94Z</time></trkpt><trkpt lat="44.2755076464615" lon="11.875595409804673"><ele>31.0</ele><time>2026-05-02T10:35:37.94Z</time></trkpt><trkpt lat="44.275614470133284" lon="11.87571920667178"><ele>31.25</ele><time>2026-05-02T10:35:38.94Z</time></trkpt><trkpt lat="44.275719694974754" lon="11.875840769852832"><ele>31.5</ele><time>2026-05-02T10:35:39.94Z</time></trkpt><trkpt lat="44.27582500939512" lon="11.875964468309459"><ele>31.75</ele><time>2026-05-02T10:35:40.94Z</time></trkpt><trkpt lat="44.275929700310684" lon="11.876088915737473"><ele>32.0</ele><time>2026-05-02T10:35:41.94Z</time></trkpt><trkpt lat="44.27603364930824" lon="11.876212920594378"><ele>32.0</ele><time>2026-05-02T10:35:42.94Z</time></trkpt><trkpt lat="44.27613387674919" lon="11.876331298659613"><ele>32.0</ele><time>2026-05-02T10:35:43.94Z</time></trkpt><trkpt lat="44.27623615722429" lon="11.876446315527554"><ele>32.0</ele><time>2026-05-02T10:35:44.94Z</time></trkpt><trkpt lat="44.27632989448163" lon="11.876559260544736"><ele>32.0</ele><time>2026-05-02T10:35:45.94Z</time></trkpt><trkpt lat="44.27642699517032" lon="11.876672754929917"><ele>31.75</ele><time>2026-05-02T10:35:46.94Z</time></trkpt><trkpt lat="44.2765214332508" lon="11.876785455785418"><ele>31.5</ele><time>2026-05-02T10:35:47.94Z</time></trkpt><trkpt lat="44.276613173385485" lon="11.876892542363946"><ele>31.25</ele><time>2026-05-02T10:35:48.94Z</time></trkpt><trkpt lat="44.27670168462157" lon="11.877000633102313"><ele>31.0</ele><time>2026-05-02T10:35:49.94Z</time></trkpt><trkpt lat="44.276792007561944" lon="11.877108513250024"><ele>31.0</ele><time>2026-05-02T10:35:50.94Z</time></trkpt><trkpt lat="44.27688298271019" lon="11.877211954427244"><ele>31.0</ele><time>2026-05-02T10:35:51.94Z</time></trkpt><trkpt lat="44.276974308306016" lon="11.877312737497869"><ele>31.0</ele><time>2026-05-02T10:35:52.94Z</time></trkpt><trkpt lat="44.27706314230279" lon="11.877412221270431"><ele>31.0</ele><time>2026-05-02T10:35:53.94Z</time></trkpt><trkpt lat="44.2771558779755" lon="11.877509731037303"><ele>31.0</ele><time>2026-05-02T10:35:54.94Z</time></trkpt><trkpt lat="44.2772502305631" lon="11.877601498670765"><ele>31.0</ele><time>2026-05-02T10:35:55.94Z</time></trkpt><trkpt lat="44.27734862656011" lon="11.877688231052927"><ele>31.0</ele><time>2026-05-02T10:35:56.94Z</time></trkpt><trkpt lat="44.277440789399535" lon="11.877775429963005"><ele>31.0</ele><time>2026-05-02T10:35:57.94Z</time></trkpt><trkpt lat="44.27753844166752" lon="11.877856291286186"><ele>30.833333333333336</ele><time>2026-05-02T10:35:58.94Z</time></trkpt><trkpt lat="44.27763015976782" lon="11.877928989936686"><ele>30.666666666666668</ele><time>2026-05-02T10:35:59.94Z</time></trkpt><trkpt lat="44.27771051746486" lon="11.877993934288545"><ele>30.5</ele><time>2026-05-02T10:36:00.94Z</time></trkpt><trkpt lat="44.277786377664924" lon="11.878054827366858"><ele>30.333333333333336</ele><time>2026-05-02T10:36:01.94Z</time></trkpt><trkpt lat="44.277857355355394" lon="11.878108664250947"><ele>30.166666666666668</ele><time>2026-05-02T10:36:02.94Z</time></trkpt><trkpt lat="44.27791040726257" lon="11.878159617058545"><ele>30.0</ele><time>2026-05-02T10:36:03.94Z</time></trkpt><trkpt lat="44.2779993231861" lon="11.878249920264631"><ele>30.0</ele><time>2026-05-02T10:36:05.939Z</time></trkpt><trkpt lat="44.278087319780596" lon="11.87832853858782"><ele>30.0</ele><time>2026-05-02T10:36:07.939Z</time></trkpt><trkpt lat="44.27820658786757" lon="11.878393348966567"><ele>30.0</ele><time>2026-05-02T10:36:09.939Z</time></trkpt><trkpt lat="44.278337476077354" lon="11.87829397346225"><ele>30.0</ele><time>2026-05-02T10:36:11.939Z</time></trkpt><trkpt lat="44.278389874883615" lon="11.878160559531318"><ele>30.0</ele><time>2026-05-02T10:36:12.939Z</time></trkpt><trkpt lat="44.27844982814928" lon="11.878014186857975"><ele>30.0</ele><time>2026-05-02T10:36:13.939Z</time></trkpt><trkpt lat="44.278520203934974" lon="11.87785816285499"><ele>30.0</ele><time>2026-05-02T10:36:14.939Z</time></trkpt><trkpt lat="44.278596232831546" lon="11.877704928366377"><ele>30.0</ele><time>2026-05-02T10:36:15.939Z</time></trkpt><trkpt lat="44.27866419855254" lon="11.877569194406046"><ele>30.0</ele><time>2026-05-02T10:36:16.939Z</time></trkpt><trkpt lat="44.27872821688029" lon="11.877451795365936"><ele>30.0</ele><time>2026-05-02T10:36:17.939Z</time></trkpt><trkpt lat="44.278791960015205" lon="11.87734639604757"><ele>30.0</ele><time>2026-05-02T10:36:18.939Z</time></trkpt><trkpt lat="44.278848356323245" lon="11.877251482418453"><ele>30.0</ele><time>2026-05-02T10:36:19.939Z</time></trkpt><trkpt lat="44.27889622692047" lon="11.877169632899658"><ele>30.0</ele><time>2026-05-02T10:36:20.939Z</time></trkpt><trkpt lat="44.27897448721714" lon="11.877081439531372"><ele>30.0</ele><time>2026-05-02T10:36:22.939Z</time></trkpt><trkpt lat="44.27905295709476" lon="11.877064639202855"><ele>30.0</ele><time>2026-05-02T10:36:25.939Z</time></trkpt><trkpt lat="44.27911173328005" lon="11.877114584515487"><ele>30.0</ele><time>2026-05-02T10:36:31.939Z</time></trkpt><trkpt lat="44.279124631274954" lon="11.877262197249378"><ele>30.0</ele><time>2026-05-02T10:36:38.939Z</time></trkpt><trkpt lat="44.27911775107496" lon="11.877370839194347"><ele>30.0</ele><time>2026-05-02T10:36:39.939Z</time></trkpt><trkpt lat="44.27904326115404" lon="11.877486035624305"><ele>30.0</ele><time>2026-05-02T10:36:40.939Z</time></trkpt><trkpt lat="44.27899531059323" lon="11.877619621847483"><ele>30.0</ele><time>2026-05-02T10:36:41.939Z</time></trkpt><trkpt lat="44.27894838371819" lon="11.877773084432521"><ele>30.0</ele><time>2026-05-02T10:36:42.939Z</time></trkpt><trkpt lat="44.2788975010945" lon="11.877941546334426"><ele>30.0</ele><time>2026-05-02T10:36:43.939Z</time></trkpt><trkpt lat="44.278848522466724" lon="11.878121992294474"><ele>30.0</ele><time>2026-05-02T10:36:44.939Z</time></trkpt><trkpt lat="44.278799894442145" lon="11.878311793687045"><ele>30.666666666666664</ele><time>2026-05-02T10:36:45.939Z</time></trkpt><trkpt lat="44.27875275888645" lon="11.87850819312349"><ele>31.333333333333332</ele><time>2026-05-02T10:36:46.939Z</time></trkpt><trkpt lat="44.278708295895264" lon="11.878709639618751"><ele>32.0</ele><time>2026-05-02T10:36:47.939Z</time></trkpt><trkpt lat="44.27866661868737" lon="11.878918674357065"><ele>32.0</ele><time>2026-05-02T10:36:48.939Z</time></trkpt><trkpt lat="44.278626504386715" lon="11.879133096481828"><ele>32.0</ele><time>2026-05-02T10:36:49.939Z</time></trkpt><trkpt lat="44.278583969841364" lon="11.879356620416452"><ele>32.0</ele><time>2026-05-02T10:36:50.939Z</time></trkpt><trkpt lat="44.27854119651587" lon="11.879587477919458"><ele>31.666666666666664</ele><time>2026-05-02T10:36:51.939Z</time></trkpt><trkpt lat="44.27850914564523" lon="11.879830551465183"><ele>31.333333333333336</ele><time>2026-05-02T10:36:52.939Z</time></trkpt><trkpt lat="44.278479991617125" lon="11.880075577442213"><ele>31.0</ele><time>2026-05-02T10:36:53.939Z</time></trkpt><trkpt lat="44.27845513854659" lon="11.880328873609576"><ele>31.0</ele><time>2026-05-02T10:36:54.939Z</time></trkpt><trkpt lat="44.27843377751985" lon="11.880579656505436"><ele>31.0</ele><time>2026-05-02T10:36:55.939Z</time></trkpt><trkpt lat="44.2784184959659" lon="11.880830785606868"><ele>31.0</ele><time>2026-05-02T10:36:56.939Z</time></trkpt><trkpt lat="44.27840349656257" lon="11.881080316028658"><ele>31.0</ele><time>2026-05-02T10:36:57.939Z</time></trkpt><trkpt lat="44.2784003956672" lon="11.881339311818163"><ele>31.0</ele><time>2026-05-02T10:36:58.939Z</time></trkpt><trkpt lat="44.27840481162833" lon="11.881596584061072"><ele>31.0</ele><time>2026-05-02T10:36:59.939Z</time></trkpt><trkpt lat="44.27840950423397" lon="11.88185573054994"><ele>31.0</ele><time>2026-05-02T10:37:00.939Z</time></trkpt><trkpt lat="44.27841939841919" lon="11.882119235359237"><ele>31.0</ele><time>2026-05-02T10:37:01.939Z</time></trkpt><trkpt lat="44.278431150996326" lon="11.882388162589013"><ele>31.0</ele><time>2026-05-02T10:37:02.939Z</time></trkpt><trkpt lat="44.27844501303983" lon="11.882664758669979"><ele>31.0</ele><time>2026-05-02T10:37:03.939Z</time></trkpt><trkpt lat="44.27846130338574" lon="11.882950514412306"><ele>31.0</ele><time>2026-05-02T10:37:04.939Z</time></trkpt><trkpt lat="44.27847992139508" lon="11.883242349785906"><ele>31.0</ele><time>2026-05-02T10:37:05.939Z</time></trkpt><trkpt lat="44.27849342387278" lon="11.883541066197822"><ele>31.0</ele><time>2026-05-02T10:37:06.939Z</time></trkpt><trkpt lat="44.27850275382121" lon="11.883842030841524"><ele>31.0</ele><time>2026-05-02T10:37:07.937Z</time></trkpt><trkpt lat="44.2785140228182" lon="11.884137858021532"><ele>31.0</ele><time>2026-05-02T10:37:08.937Z</time></trkpt><trkpt lat="44.278526382465266" lon="11.88443113529506"><ele>30.666666666666668</ele><time>2026-05-02T10:37:09.937Z</time></trkpt><trkpt lat="44.27854218964663" lon="11.884719989161884"><ele>30.333333333333336</ele><time>2026-05-02T10:37:10.937Z</time></trkpt><trkpt lat="44.27855171789291" lon="11.885007454225816"><ele>30.0</ele><time>2026-05-02T10:37:11.937Z</time></trkpt><trkpt lat="44.278564585196385" lon="11.885284901564281"><ele>30.0</ele><time>2026-05-02T10:37:12.937Z</time></trkpt><trkpt lat="44.27857483161385" lon="11.885569989995187"><ele>30.0</ele><time>2026-05-02T10:37:13.937Z</time></trkpt><trkpt lat="44.27858502753432" lon="11.88585167775169"><ele>30.0</ele><time>2026-05-02T10:37:14.937Z</time></trkpt><trkpt lat="44.27859521628113" lon="11.886134271733638"><ele>30.0</ele><time>2026-05-02T10:37:15.937Z</time></trkpt><trkpt lat="44.278606581725384" lon="11.88641894101731"><ele>30.0</ele><time>2026-05-02T10:37:16.937Z</time></trkpt><trkpt lat="44.27861843082821" lon="11.88670782393327"><ele>30.0</ele><time>2026-05-02T10:37:17.937Z</time></trkpt><trkpt lat="44.27862928905704" lon="11.887000073519658"><ele>30.0</ele><time>2026-05-02T10:37:18.937Z</time></trkpt><trkpt lat="44.27863795782151" lon="11.887287780157317"><ele>30.0</ele><time>2026-05-02T10:37:19.937Z</time></trkpt><trkpt lat="44.27864801835215" lon="11.887564129179097"><ele>30.0</ele><time>2026-05-02T10:37:20.937Z</time></trkpt><trkpt lat="44.27865732048973" lon="11.887836478779978"><ele>30.0</ele><time>2026-05-02T10:37:21.937Z</time></trkpt><trkpt lat="44.27866558473281" lon="11.88809243221681"><ele>30.0</ele><time>2026-05-02T10:37:22.937Z</time></trkpt><trkpt lat="44.2786714839435" lon="11.888328109513214"><ele>30.0</ele><time>2026-05-02T10:37:23.937Z</time></trkpt><trkpt lat="44.278680385533995" lon="11.88855656090561"><ele>30.25</ele><time>2026-05-02T10:37:24.937Z</time></trkpt><trkpt lat="44.278688979290955" lon="11.888762438269909"><ele>30.5</ele><time>2026-05-02T10:37:25.937Z</time></trkpt><trkpt lat="44.27869263695592" lon="11.888957856461724"><ele>30.75</ele><time>2026-05-02T10:37:26.937Z</time></trkpt><trkpt lat="44.27870033557492" lon="11.889137595041072"><ele>31.0</ele><time>2026-05-02T10:37:27.937Z</time></trkpt><trkpt lat="44.2787055954596" lon="11.889321073265663"><ele>31.5</ele><time>2026-05-02T10:37:28.937Z</time></trkpt><trkpt lat="44.27871100375868" lon="11.889509803253164"><ele>32.0</ele><time>2026-05-02T10:37:29.937Z</time></trkpt><trkpt lat="44.27871733831688" lon="11.8896883017829"><ele>32.5</ele><time>2026-05-02T10:37:30.937Z</time></trkpt><trkpt lat="44.278723254132615" lon="11.88986502088468"><ele>33.0</ele><time>2026-05-02T10:37:31.937Z</time></trkpt><trkpt lat="44.27872940601933" lon="11.890046508238015"><ele>33.75</ele><time>2026-05-02T10:37:32.937Z</time></trkpt><trkpt lat="44.27873866735159" lon="11.890234587512822"><ele>34.5</ele><time>2026-05-02T10:37:33.937Z</time></trkpt><trkpt lat="44.27874557785548" lon="11.890425764692981"><ele>35.25</ele><time>2026-05-02T10:37:34.937Z</time></trkpt><trkpt lat="44.27875422420025" lon="11.890628167423083"><ele>36.0</ele><time>2026-05-02T10:37:35.937Z</time></trkpt><trkpt lat="44.27876196490486" lon="11.89084502537376"><ele>36.333333333333336</ele><time>2026-05-02T10:37:36.937Z</time></trkpt><trkpt lat="44.27878014362652" lon="11.891077620174261"><ele>36.66666666666667</ele><time>2026-05-02T10:37:37.937Z</time></trkpt><trkpt lat="44.27879350942142" lon="11.891320184218783"><ele>37.0</ele><time>2026-05-02T10:37:38.937Z</time></trkpt><trkpt lat="44.27880213212254" lon="11.891572574157268"><ele>36.66666666666667</ele><time>2026-05-02T10:37:39.937Z</time></trkpt><trkpt lat="44.27881835249075" lon="11.891830439961572"><ele>36.333333333333336</ele><time>2026-05-02T10:37:40.937Z</time></trkpt><trkpt lat="44.27883129564428" lon="11.892086014118261"><ele>36.0</ele><time>2026-05-02T10:37:41.937Z</time></trkpt><trkpt lat="44.27883839597513" lon="11.892350138577726"><ele>36.666666666666664</ele><time>2026-05-02T10:37:42.937Z</time></trkpt><trkpt lat="44.27884296849866" lon="11.892607974811023"><ele>37.33333333333333</ele><time>2026-05-02T10:37:43.937Z</time></trkpt><trkpt lat="44.27885231694605" lon="11.892880524461875"><ele>38.0</ele><time>2026-05-02T10:37:44.937Z</time></trkpt><trkpt lat="44.27886566174107" lon="11.893150959676337"><ele>38.0</ele><time>2026-05-02T10:37:45.937Z</time></trkpt><trkpt lat="44.27887700767568" lon="11.89342442674209"><ele>38.0</ele><time>2026-05-02T10:37:46.937Z</time></trkpt><trkpt lat="44.27888502524683" lon="11.893701144119637"><ele>38.0</ele><time>2026-05-02T10:37:47.937Z</time></trkpt><trkpt lat="44.27889508576097" lon="11.89397892526947"><ele>37.666666666666664</ele><time>2026-05-02T10:37:48.937Z</time></trkpt><trkpt lat="44.27890326250721" lon="11.89426041203851"><ele>37.333333333333336</ele><time>2026-05-02T10:37:49.937Z</time></trkpt><trkpt lat="44.27891551369581" lon="11.894540330673314"><ele>37.0</ele><time>2026-05-02T10:37:50.937Z</time></trkpt><trkpt lat="44.278930206067066" lon="11.894824665848986"><ele>37.333333333333336</ele><time>2026-05-02T10:37:51.937Z</time></trkpt><trkpt lat="44.278945269156104" lon="11.895113346449808"><ele>37.666666666666664</ele><time>2026-05-02T10:37:52.937Z</time></trkpt><trkpt lat="44.27895888881764" lon="11.895402288001257"><ele>38.0</ele><time>2026-05-02T10:37:53.937Z</time></trkpt><trkpt lat="44.27897166605085" lon="11.895689420786093"><ele>38.0</ele><time>2026-05-02T10:37:54.937Z</time></trkpt><trkpt lat="44.27898182594304" lon="11.895975778339926"><ele>38.0</ele><time>2026-05-02T10:37:55.937Z</time></trkpt><trkpt lat="44.27898924989227" lon="11.89626160310186"><ele>38.0</ele><time>2026-05-02T10:37:56.937Z</time></trkpt><trkpt lat="44.279001331405" lon="11.896544306161406"><ele>38.33333333333333</ele><time>2026-05-02T10:37:57.937Z</time></trkpt><trkpt lat="44.27901709944884" lon="11.896816058961107"><ele>38.666666666666664</ele><time>2026-05-02T10:37:58.937Z</time></trkpt><trkpt lat="44.27902609423402" lon="11.897076236315058"><ele>39.0</ele><time>2026-05-02T10:37:59.937Z</time></trkpt><trkpt lat="44.27903532633394" lon="11.897325461635157"><ele>39.0</ele><time>2026-05-02T10:38:00.937Z</time></trkpt><trkpt lat="44.2790433167268" lon="11.897555825595338"><ele>39.0</ele><time>2026-05-02T10:38:01.937Z</time></trkpt><trkpt lat="44.279049039135764" lon="11.89776558646827"><ele>39.0</ele><time>2026-05-02T10:38:02.937Z</time></trkpt><trkpt lat="44.279052744679255" lon="11.897952760874563"><ele>39.0</ele><time>2026-05-02T10:38:03.937Z</time></trkpt><trkpt lat="44.27905211026247" lon="11.89810802393565"><ele>39.0</ele><time>2026-05-02T10:38:04.937Z</time></trkpt><trkpt lat="44.279047515742484" lon="11.898222624296068"><ele>39.0</ele><time>2026-05-02T10:38:05.937Z</time></trkpt><trkpt lat="44.27903816643627" lon="11.898310757004117"><ele>39.0</ele><time>2026-05-02T10:38:06.937Z</time></trkpt><trkpt lat="44.279016178765296" lon="11.898397013176496"><ele>39.0</ele><time>2026-05-02T10:38:07.937Z</time></trkpt><trkpt lat="44.27896736182629" lon="11.898511381911751"><ele>39.0</ele><time>2026-05-02T10:38:08.937Z</time></trkpt><trkpt lat="44.278902259337535" lon="11.898615791362595"><ele>39.0</ele><time>2026-05-02T10:38:09.937Z</time></trkpt><trkpt lat="44.27888230502605" lon="11.898743510979584"><ele>39.0</ele><time>2026-05-02T10:38:10.937Z</time></trkpt><trkpt lat="44.27891604777167" lon="11.898871679146072"><ele>39.0</ele><time>2026-05-02T10:38:11.937Z</time></trkpt><trkpt lat="44.27894507578706" lon="11.899005610902604"><ele>39.0</ele><time>2026-05-02T10:38:12.937Z</time></trkpt><trkpt lat="44.27898229238137" lon="11.899141750175417"><ele>39.0</ele><time>2026-05-02T10:38:13.937Z</time></trkpt><trkpt lat="44.279006214948105" lon="11.899272717359061"><ele>39.0</ele><time>2026-05-02T10:38:14.937Z</time></trkpt><trkpt lat="44.279012452527816" lon="11.89940161023306"><ele>39.0</ele><time>2026-05-02T10:38:15.937Z</time></trkpt><trkpt lat="44.27900103647541" lon="11.899517166484952"><ele>39.0</ele><time>2026-05-02T10:38:16.937Z</time></trkpt><trkpt lat="44.278977585565706" lon="11.899644395216075"><ele>39.0</ele><time>2026-05-02T10:38:17.937Z</time></trkpt><trkpt lat="44.27895414050145" lon="11.8997748500713"><ele>39.0</ele><time>2026-05-02T10:38:18.937Z</time></trkpt><trkpt lat="44.27893344589205" lon="11.899890884366327"><ele>39.0</ele><time>2026-05-02T10:38:19.937Z</time></trkpt><trkpt lat="44.2789141155502" lon="11.899998841210246"><ele>39.0</ele><time>2026-05-02T10:38:20.937Z</time></trkpt><trkpt lat="44.27889351038204" lon="11.900095452070074"><ele>38.833333333333336</ele><time>2026-05-02T10:38:21.937Z</time></trkpt><trkpt lat="44.2788702357729" lon="11.900207767466508"><ele>38.666666666666664</ele><time>2026-05-02T10:38:22.937Z</time></trkpt><trkpt lat="44.278828132095796" lon="11.900307365577493"><ele>38.5</ele><time>2026-05-02T10:38:23.937Z</time></trkpt><trkpt lat="44.27879687458957" lon="11.90042358521413"><ele>38.33333333333333</ele><time>2026-05-02T10:38:24.937Z</time></trkpt><trkpt lat="44.27876437227637" lon="11.900542863745127"><ele>38.166666666666664</ele><time>2026-05-02T10:38:25.937Z</time></trkpt><trkpt lat="44.278728796630645" lon="11.900670918990704"><ele>38.0</ele><time>2026-05-02T10:38:26.937Z</time></trkpt><trkpt lat="44.27870041591943" lon="11.900815066920407"><ele>37.8</ele><time>2026-05-02T10:38:27.937Z</time></trkpt><trkpt lat="44.27863259243033" lon="11.900947368834217"><ele>37.599999999999994</ele><time>2026-05-02T10:38:28.937Z</time></trkpt><trkpt lat="44.27859131479786" lon="11.901081934753519"><ele>37.400000000000006</ele><time>2026-05-02T10:38:29.937Z</time></trkpt><trkpt lat="44.27854551619117" lon="11.901212760215062"><ele>37.2</ele><time>2026-05-02T10:38:30.937Z</time></trkpt><trkpt lat="44.27849269156249" lon="11.901341281888383"><ele>37.0</ele><time>2026-05-02T10:38:31.937Z</time></trkpt><trkpt lat="44.278433427309636" lon="11.90148992570265"><ele>37.0</ele><time>2026-05-02T10:38:32.937Z</time></trkpt><trkpt lat="44.278371135529284" lon="11.90165497178325"><ele>37.0</ele><time>2026-05-02T10:38:33.937Z</time></trkpt><trkpt lat="44.27830184976205" lon="11.901839510793566"><ele>37.0</ele><time>2026-05-02T10:38:34.937Z</time></trkpt><trkpt lat="44.27821390697763" lon="11.902017048392796"><ele>37.0</ele><time>2026-05-02T10:38:35.937Z</time></trkpt><trkpt lat="44.27814242833138" lon="11.902205976950981"><ele>37.0</ele><time>2026-05-02T10:38:36.937Z</time></trkpt><trkpt lat="44.27806462798699" lon="11.902383604056682"><ele>37.0</ele><time>2026-05-02T10:38:37.937Z</time></trkpt><trkpt lat="44.27799570494129" lon="11.90255974081699"><ele>37.0</ele><time>2026-05-02T10:38:38.937Z</time></trkpt><trkpt lat="44.2779291293404" lon="11.90272284899708"><ele>37.0</ele><time>2026-05-02T10:38:39.937Z</time></trkpt><trkpt lat="44.277865649587355" lon="11.902889328300374"><ele>37.0</ele><time>2026-05-02T10:38:40.937Z</time></trkpt><trkpt lat="44.27780471047188" lon="11.903043479889247"><ele>37.0</ele><time>2026-05-02T10:38:41.937Z</time></trkpt><trkpt lat="44.277743010121426" lon="11.903203801651655"><ele>37.0</ele><time>2026-05-02T10:38:42.937Z</time></trkpt><trkpt lat="44.27767687371856" lon="11.903377617546264"><ele>37.0</ele><time>2026-05-02T10:38:43.937Z</time></trkpt><trkpt lat="44.277604177572705" lon="11.903553531143126"><ele>37.0</ele><time>2026-05-02T10:38:44.937Z</time></trkpt><trkpt lat="44.27753473443997" lon="11.903727783105628"><ele>37.0</ele><time>2026-05-02T10:38:45.937Z</time></trkpt><trkpt lat="44.277462990280235" lon="11.903901694536508"><ele>37.0</ele><time>2026-05-02T10:38:46.937Z</time></trkpt><trkpt lat="44.27739651941948" lon="11.904083660174834"><ele>37.0</ele><time>2026-05-02T10:38:47.937Z</time></trkpt><trkpt lat="44.27732425400837" lon="11.904271261206922"><ele>36.66666666666667</ele><time>2026-05-02T10:38:48.937Z</time></trkpt><trkpt lat="44.27725048618594" lon="11.904453258627802"><ele>36.333333333333336</ele><time>2026-05-02T10:38:49.937Z</time></trkpt><trkpt lat="44.27717953483635" lon="11.904640093423753"><ele>36.0</ele><time>2026-05-02T10:38:50.937Z</time></trkpt><trkpt lat="44.2771019908194" lon="11.90483514507055"><ele>36.0</ele><time>2026-05-02T10:38:51.937Z</time></trkpt><trkpt lat="44.277017381331405" lon="11.905043698465484"><ele>36.0</ele><time>2026-05-02T10:38:52.937Z</time></trkpt><trkpt lat="44.276930412647125" lon="11.905255962157899"><ele>36.0</ele><time>2026-05-02T10:38:53.937Z</time></trkpt><trkpt lat="44.276842279081606" lon="11.905473256689259"><ele>35.333333333333336</ele><time>2026-05-02T10:38:54.937Z</time></trkpt><trkpt lat="44.27674615972678" lon="11.905703669614457"><ele>34.66666666666667</ele><time>2026-05-02T10:38:55.937Z</time></trkpt><trkpt lat="44.276650729145246" lon="11.905938072847274"><ele>34.0</ele><time>2026-05-02T10:38:56.937Z</time></trkpt><trkpt lat="44.27655334061554" lon="11.906175993499497"><ele>34.0</ele><time>2026-05-02T10:38:57.937Z</time></trkpt><trkpt lat="44.276452107259544" lon="11.90642055481033"><ele>34.0</ele><time>2026-05-02T10:38:58.937Z</time></trkpt><trkpt lat="44.276355457752935" lon="11.906661677030959"><ele>34.0</ele><time>2026-05-02T10:38:59.937Z</time></trkpt><trkpt lat="44.276259092559314" lon="11.906901743777986"><ele>34.333333333333336</ele><time>2026-05-02T10:39:00.937Z</time></trkpt><trkpt lat="44.27616484343027" lon="11.907134464838228"><ele>34.666666666666664</ele><time>2026-05-02T10:39:01.937Z</time></trkpt><trkpt lat="44.27606918485596" lon="11.907367580686495"><ele>35.0</ele><time>2026-05-02T10:39:02.937Z</time></trkpt><trkpt lat="44.27597301796757" lon="11.907604946480355"><ele>35.33333333333333</ele><time>2026-05-02T10:39:03.937Z</time></trkpt><trkpt lat="44.27588101747032" lon="11.907839897473401"><ele>35.666666666666664</ele><time>2026-05-02T10:39:04.937Z</time></trkpt><trkpt lat="44.27578813027475" lon="11.9080855820534"><ele>36.0</ele><time>2026-05-02T10:39:05.937Z</time></trkpt><trkpt lat="44.27569472825058" lon="11.908323840710338"><ele>35.333333333333336</ele><time>2026-05-02T10:39:06.937Z</time></trkpt><trkpt lat="44.275603041330626" lon="11.908561333043517"><ele>34.66666666666667</ele><time>2026-05-02T10:39:07.937Z</time></trkpt><trkpt lat="44.27551629977401" lon="11.908784880965241"><ele>34.0</ele><time>2026-05-02T10:39:08.937Z</time></trkpt><trkpt lat="44.275430903327056" lon="11.908997184185923"><ele>34.0</ele><time>2026-05-02T10:39:09.937Z</time></trkpt><trkpt lat="44.27533729002546" lon="11.909184486526733"><ele>34.0</ele><time>2026-05-02T10:39:10.937Z</time></trkpt><trkpt lat="44.275276476404976" lon="11.909374453204888"><ele>34.0</ele><time>2026-05-02T10:39:11.937Z</time></trkpt><trkpt lat="44.27519705732044" lon="11.909524225027807"><ele>34.0</ele><time>2026-05-02T10:39:12.937Z</time></trkpt><trkpt lat="44.275136820737025" lon="11.909666417724116"><ele>34.16666666666667</ele><time>2026-05-02T10:39:13.934Z</time></trkpt><trkpt lat="44.27508464219901" lon="11.9097932932471"><ele>34.333333333333336</ele><time>2026-05-02T10:39:14.934Z</time></trkpt><trkpt lat="44.275041472748796" lon="11.909899117264025"><ele>34.5</ele><time>2026-05-02T10:39:15.934Z</time></trkpt><trkpt lat="44.27499487633361" lon="11.910012791250818"><ele>34.666666666666664</ele><time>2026-05-02T10:39:17.934Z</time></trkpt><trkpt lat="44.274953124373624" lon="11.910114646571994"><ele>34.83333333333333</ele><time>2026-05-02T10:39:21.934Z</time></trkpt><trkpt lat="44.274930854094194" lon="11.910198746071352"><ele>35.0</ele><time>2026-05-02T10:39:23.934Z</time></trkpt><trkpt lat="44.27508122414485" lon="11.910334599341665"><ele>35.0</ele><time>2026-05-02T10:39:24.934Z</time></trkpt><trkpt lat="44.27516347948101" lon="11.910394777264269"><ele>35.0</ele><time>2026-05-02T10:39:25.934Z</time></trkpt><trkpt lat="44.275270378300554" lon="11.91045027666572"><ele>35.0</ele><time>2026-05-02T10:39:26.934Z</time></trkpt><trkpt lat="44.275380849880044" lon="11.910506485776137"><ele>35.0</ele><time>2026-05-02T10:39:27.934Z</time></trkpt><trkpt lat="44.275500498517026" lon="11.910576080788518"><ele>35.0</ele><time>2026-05-02T10:39:28.934Z</time></trkpt><trkpt lat="44.27563680072004" lon="11.91066129315028"><ele>35.0</ele><time>2026-05-02T10:39:29.934Z</time></trkpt><trkpt lat="44.27577305324665" lon="11.910762299079474"><ele>35.0</ele><time>2026-05-02T10:39:30.934Z</time></trkpt><trkpt lat="44.275908992627954" lon="11.910871301604425"><ele>35.25</ele><time>2026-05-02T10:39:31.934Z</time></trkpt><trkpt lat="44.276039175588764" lon="11.910973640111973"><ele>35.5</ele><time>2026-05-02T10:39:32.934Z</time></trkpt><trkpt lat="44.27615998660859" lon="11.911065140959169"><ele>35.75</ele><time>2026-05-02T10:39:33.934Z</time></trkpt><trkpt lat="44.27627667817685" lon="11.911157883910946"><ele>36.0</ele><time>2026-05-02T10:39:34.934Z</time></trkpt><trkpt lat="44.27639601837136" lon="11.911247771848666"><ele>35.5</ele><time>2026-05-02T10:39:35.934Z</time></trkpt><trkpt lat="44.27652541630316" lon="11.911346127238035"><ele>35.0</ele><time>2026-05-02T10:39:36.934Z</time></trkpt><trkpt lat="44.27666018980769" lon="11.911446720597382"><ele>34.5</ele><time>2026-05-02T10:39:37.934Z</time></trkpt><trkpt lat="44.276789571896295" lon="11.911550464051968"><ele>34.0</ele><time>2026-05-02T10:39:38.934Z</time></trkpt><trkpt lat="44.276918925330925" lon="11.911648436125047"><ele>34.0</ele><time>2026-05-02T10:39:39.934Z</time></trkpt><trkpt lat="44.27705043465676" lon="11.911746335878343"><ele>34.0</ele><time>2026-05-02T10:39:40.934Z</time></trkpt><trkpt lat="44.27717925317137" lon="11.911851545687085"><ele>34.0</ele><time>2026-05-02T10:39:41.934Z</time></trkpt><trkpt lat="44.27731580382759" lon="11.91195938686595"><ele>34.0</ele><time>2026-05-02T10:39:42.934Z</time></trkpt><trkpt lat="44.27745768425093" lon="11.912059939107566"><ele>34.0</ele><time>2026-05-02T10:39:43.934Z</time></trkpt><trkpt lat="44.277589417823336" lon="11.912166341817588"><ele>34.0</ele><time>2026-05-02T10:39:44.934Z</time></trkpt><trkpt lat="44.27771884526323" lon="11.912269490875001"><ele>34.0</ele><time>2026-05-02T10:39:45.934Z</time></trkpt><trkpt lat="44.277853054551265" lon="11.912378602020214"><ele>34.0</ele><time>2026-05-02T10:39:46.934Z</time></trkpt><trkpt lat="44.27799162417088" lon="11.912489423548433"><ele>34.0</ele><time>2026-05-02T10:39:47.934Z</time></trkpt><trkpt lat="44.27813112388258" lon="11.912610041538814"><ele>33.66666666666667</ele><time>2026-05-02T10:39:48.934Z</time></trkpt><trkpt lat="44.2782754100094" lon="11.912734278309848"><ele>33.333333333333336</ele><time>2026-05-02T10:39:49.934Z</time></trkpt><trkpt lat="44.27841702011828" lon="11.912848553436342"><ele>33.0</ele><time>2026-05-02T10:39:50.934Z</time></trkpt><trkpt lat="44.278565390720956" lon="11.91297136423526"><ele>33.0</ele><time>2026-05-02T10:39:51.934Z</time></trkpt><trkpt lat="44.278719428869664" lon="11.913112238631143"><ele>33.0</ele><time>2026-05-02T10:39:52.934Z</time></trkpt><trkpt lat="44.27888026965107" lon="11.913263613285753"><ele>33.0</ele><time>2026-05-02T10:39:53.934Z</time></trkpt><trkpt lat="44.27904467881249" lon="11.913419594135094"><ele>32.333333333333336</ele><time>2026-05-02T10:39:54.934Z</time></trkpt><trkpt lat="44.27921506122068" lon="11.91357884725416"><ele>31.666666666666668</ele><time>2026-05-02T10:39:55.934Z</time></trkpt><trkpt lat="44.279388448699564" lon="11.913740176813512"><ele>31.0</ele><time>2026-05-02T10:39:56.934Z</time></trkpt><trkpt lat="44.27957284835486" lon="11.91390571936308"><ele>31.0</ele><time>2026-05-02T10:39:57.934Z</time></trkpt><trkpt lat="44.2797654466688" lon="11.91406549071493"><ele>31.0</ele><time>2026-05-02T10:39:58.934Z</time></trkpt><trkpt lat="44.27996335842564" lon="11.914225991391309"><ele>30.5</ele><time>2026-05-02T10:39:59.934Z</time></trkpt><trkpt lat="44.28016589158009" lon="11.914381846743712"><ele>30.0</ele><time>2026-05-02T10:40:00.934Z</time></trkpt><trkpt lat="44.28036767805043" lon="11.91453496646732"><ele>30.0</ele><time>2026-05-02T10:40:01.934Z</time></trkpt><trkpt lat="44.280561608934484" lon="11.914683595240335"><ele>30.0</ele><time>2026-05-02T10:40:02.934Z</time></trkpt><trkpt lat="44.280741617192724" lon="11.914820644640788"><ele>30.0</ele><time>2026-05-02T10:40:03.934Z</time></trkpt><trkpt lat="44.28091082517165" lon="11.914949042456989"><ele>29.666666666666664</ele><time>2026-05-02T10:40:04.934Z</time></trkpt><trkpt lat="44.28107357370721" lon="11.915073944402268"><ele>29.333333333333332</ele><time>2026-05-02T10:40:05.934Z</time></trkpt><trkpt lat="44.28123662221112" lon="11.915196627180313"><ele>29.0</ele><time>2026-05-02T10:40:06.934Z</time></trkpt><trkpt lat="44.281404450126814" lon="11.91532242029663"><ele>30.0</ele><time>2026-05-02T10:40:07.934Z</time></trkpt><trkpt lat="44.28157796009321" lon="11.91544941683714"><ele>31.0</ele><time>2026-05-02T10:40:08.934Z</time></trkpt><trkpt lat="44.28175518347785" lon="11.91558234191514"><ele>32.0</ele><time>2026-05-02T10:40:09.934Z</time></trkpt><trkpt lat="44.281939305347315" lon="11.915714457137847"><ele>32.0</ele><time>2026-05-02T10:40:10.934Z</time></trkpt><trkpt lat="44.282129046864526" lon="11.915842298386783"><ele>32.0</ele><time>2026-05-02T10:40:11.934Z</time></trkpt><trkpt lat="44.282314664225595" lon="11.915967709331673"><ele>32.0</ele><time>2026-05-02T10:40:12.934Z</time></trkpt><trkpt lat="44.28250297995291" lon="11.916092722515819"><ele>31.333333333333332</ele><time>2026-05-02T10:40:13.934Z</time></trkpt><trkpt lat="44.28269102636476" lon="11.91621539083257"><ele>30.666666666666664</ele><time>2026-05-02T10:40:14.934Z</time></trkpt><trkpt lat="44.28287433183209" lon="11.916336798011763"><ele>30.0</ele><time>2026-05-02T10:40:15.934Z</time></trkpt><trkpt lat="44.28306113214982" lon="11.916459811780207"><ele>29.333333333333336</ele><time>2026-05-02T10:40:16.934Z</time></trkpt><trkpt lat="44.28324491082498" lon="11.916586062663292"><ele>28.666666666666668</ele><time>2026-05-02T10:40:17.934Z</time></trkpt><trkpt lat="44.283428350535225" lon="11.916719620313074"><ele>28.0</ele><time>2026-05-02T10:40:18.934Z</time></trkpt><trkpt lat="44.283612015165055" lon="11.91685168210957"><ele>28.0</ele><time>2026-05-02T10:40:19.934Z</time></trkpt><trkpt lat="44.28379744748437" lon="11.916986998404555"><ele>28.0</ele><time>2026-05-02T10:40:20.934Z</time></trkpt><trkpt lat="44.28398013563572" lon="11.917123332082168"><ele>28.0</ele><time>2026-05-02T10:40:21.934Z</time></trkpt><trkpt lat="44.284159693471786" lon="11.917262472534036"><ele>28.0</ele><time>2026-05-02T10:40:22.934Z</time></trkpt><trkpt lat="44.28433895416927" lon="11.917400501995694"><ele>28.0</ele><time>2026-05-02T10:40:23.935Z</time></trkpt><trkpt lat="44.28451287283815" lon="11.917538431532837"><ele>28.0</ele><time>2026-05-02T10:40:24.935Z</time></trkpt><trkpt lat="44.28468311075957" lon="11.917673262386849"><ele>28.0</ele><time>2026-05-02T10:40:25.935Z</time></trkpt><trkpt lat="44.28485371592571" lon="11.917808324661474"><ele>28.0</ele><time>2026-05-02T10:40:26.935Z</time></trkpt><trkpt lat="44.28502345139458" lon="11.917942979384831"><ele>28.0</ele><time>2026-05-02T10:40:27.935Z</time></trkpt><trkpt lat="44.28518903021203" lon="11.918076194920843"><ele>28.0</ele><time>2026-05-02T10:40:28.936Z</time></trkpt><trkpt lat="44.28535067597306" lon="11.91820646918508"><ele>28.0</ele><time>2026-05-02T10:40:29.936Z</time></trkpt><trkpt lat="44.28550990950594" lon="11.91833973145436"><ele>28.0</ele><time>2026-05-02T10:40:30.936Z</time></trkpt><trkpt lat="44.28566680083448" lon="11.91848001816073"><ele>28.0</ele><time>2026-05-02T10:40:31.936Z</time></trkpt><trkpt lat="44.285819519230465" lon="11.918632424500613"><ele>28.0</ele><time>2026-05-02T10:40:32.936Z</time></trkpt><trkpt lat="44.285973076618866" lon="11.91880113465806"><ele>28.0</ele><time>2026-05-02T10:40:33.936Z</time></trkpt><trkpt lat="44.28612510494408" lon="11.918981560776169"><ele>28.0</ele><time>2026-05-02T10:40:34.936Z</time></trkpt><trkpt lat="44.286279301534556" lon="11.919163806583317"><ele>28.0</ele><time>2026-05-02T10:40:35.936Z</time></trkpt><trkpt lat="44.286438311020724" lon="11.919340554115069"><ele>28.0</ele><time>2026-05-02T10:40:36.936Z</time></trkpt><trkpt lat="44.28658095507939" lon="11.919541286473638"><ele>27.666666666666668</ele><time>2026-05-02T10:40:37.937Z</time></trkpt><trkpt lat="44.286730405355854" lon="11.919721214657025"><ele>27.333333333333336</ele><time>2026-05-02T10:40:38.937Z</time></trkpt><trkpt lat="44.286877541764625" lon="11.91989835697045"><ele>27.0</ele><time>2026-05-02T10:40:39.937Z</time></trkpt><trkpt lat="44.28702593069901" lon="11.920077007319602"><ele>27.0</ele><time>2026-05-02T10:40:40.937Z</time></trkpt><trkpt lat="44.287177427683964" lon="11.920260228609086"><ele>27.0</ele><time>2026-05-02T10:40:41.937Z</time></trkpt><trkpt lat="44.287326830795124" lon="11.920446232331921"><ele>27.0</ele><time>2026-05-02T10:40:42.937Z</time></trkpt><trkpt lat="44.28747851700761" lon="11.920637156688686"><ele>27.333333333333336</ele><time>2026-05-02T10:40:43.937Z</time></trkpt><trkpt lat="44.287632702185846" lon="11.92083109953187"><ele>27.666666666666668</ele><time>2026-05-02T10:40:44.937Z</time></trkpt><trkpt lat="44.287779228339986" lon="11.921028084320385"><ele>28.0</ele><time>2026-05-02T10:40:45.937Z</time></trkpt><trkpt lat="44.287921560340266" lon="11.921220972431746"><ele>28.0</ele><time>2026-05-02T10:40:46.937Z</time></trkpt><trkpt lat="44.28806348852869" lon="11.9214443153836"><ele>28.0</ele><time>2026-05-02T10:40:47.937Z</time></trkpt><trkpt lat="44.28819853817898" lon="11.921686709227858"><ele>28.0</ele><time>2026-05-02T10:40:48.937Z</time></trkpt><trkpt lat="44.28830975041316" lon="11.921961381806911"><ele>28.0</ele><time>2026-05-02T10:40:49.937Z</time></trkpt><trkpt lat="44.2884356402469" lon="11.922229706106254"><ele>28.0</ele><time>2026-05-02T10:40:50.937Z</time></trkpt><trkpt lat="44.2885589589352" lon="11.922497809462115"><ele>27.666666666666668</ele><time>2026-05-02T10:40:51.937Z</time></trkpt><trkpt lat="44.288674168603364" lon="11.922747125283756"><ele>27.333333333333336</ele><time>2026-05-02T10:40:52.937Z</time></trkpt><trkpt lat="44.2887784703854" lon="11.92297300629357"><ele>27.0</ele><time>2026-05-02T10:40:53.937Z</time></trkpt><trkpt lat="44.28888689876206" lon="11.923171732017858"><ele>27.0</ele><time>2026-05-02T10:40:54.937Z</time></trkpt><trkpt lat="44.288962707682366" lon="11.923372340006072"><ele>27.0</ele><time>2026-05-02T10:40:55.937Z</time></trkpt><trkpt lat="44.288989432743165" lon="11.923604794666147"><ele>27.0</ele><time>2026-05-02T10:40:56.937Z</time></trkpt><trkpt lat="44.28898634918436" lon="11.923844427324614"><ele>27.0</ele><time>2026-05-02T10:40:57.937Z</time></trkpt><trkpt lat="44.28895186087553" lon="11.924101621912799"><ele>27.0</ele><time>2026-05-02T10:40:58.937Z</time></trkpt><trkpt lat="44.28888696707161" lon="11.924371390573835"><ele>27.0</ele><time>2026-05-02T10:40:59.937Z</time></trkpt><trkpt lat="44.28879321062469" lon="11.924648788715167"><ele>27.0</ele><time>2026-05-02T10:41:00.937Z</time></trkpt><trkpt lat="44.28869233308453" lon="11.924932036596594"><ele>27.0</ele><time>2026-05-02T10:41:01.937Z</time></trkpt><trkpt lat="44.28859094861969" lon="11.925213485118718"><ele>27.0</ele><time>2026-05-02T10:41:02.937Z</time></trkpt><trkpt lat="44.28851286911459" lon="11.925488614563658"><ele>27.0</ele><time>2026-05-02T10:41:03.937Z</time></trkpt><trkpt lat="44.28843343398984" lon="11.925753447550822"><ele>27.0</ele><time>2026-05-02T10:41:04.938Z</time></trkpt><trkpt lat="44.288386522390965" lon="11.926020046340398"><ele>27.0</ele><time>2026-05-02T10:41:05.938Z</time></trkpt><trkpt lat="44.288359707476" lon="11.926292923973083"><ele>27.0</ele><time>2026-05-02T10:41:06.938Z</time></trkpt><trkpt lat="44.28834130924845" lon="11.926563265123141"><ele>27.0</ele><time>2026-05-02T10:41:07.938Z</time></trkpt><trkpt lat="44.288329414207944" lon="11.926837494063106"><ele>26.666666666666664</ele><time>2026-05-02T10:41:08.938Z</time></trkpt><trkpt lat="44.2883304302008" lon="11.927108052067384"><ele>26.333333333333332</ele><time>2026-05-02T10:41:09.938Z</time></trkpt><trkpt lat="44.288343714780595" lon="11.927379924103382"><ele>26.0</ele><time>2026-05-02T10:41:10.938Z</time></trkpt><trkpt lat="44.28836009802683" lon="11.927648064123849"><ele>25.666666666666664</ele><time>2026-05-02T10:41:11.938Z</time></trkpt><trkpt lat="44.2883771795852" lon="11.927925036852734"><ele>25.333333333333336</ele><time>2026-05-02T10:41:12.938Z</time></trkpt><trkpt lat="44.28839492968331" lon="11.928184538260128"><ele>25.0</ele><time>2026-05-02T10:41:13.938Z</time></trkpt><trkpt lat="44.28841062841439" lon="11.92843426836281"><ele>25.0</ele><time>2026-05-02T10:41:14.938Z</time></trkpt><trkpt lat="44.28842548912324" lon="11.92868081995449"><ele>25.0</ele><time>2026-05-02T10:41:15.938Z</time></trkpt><trkpt lat="44.28844477863977" lon="11.928903322498122"><ele>25.0</ele><time>2026-05-02T10:41:16.938Z</time></trkpt><trkpt lat="44.28848411485572" lon="11.929103284305993"><ele>25.333333333333336</ele><time>2026-05-02T10:41:17.938Z</time></trkpt><trkpt lat="44.288555024143236" lon="11.929291741052937"><ele>25.666666666666664</ele><time>2026-05-02T10:41:18.938Z</time></trkpt><trkpt lat="44.28866343578017" lon="11.929452075052685"><ele>26.0</ele><time>2026-05-02T10:41:19.935Z</time></trkpt><trkpt lat="44.28880391954557" lon="11.929581968633377"><ele>26.0</ele><time>2026-05-02T10:41:20.936Z</time></trkpt><trkpt lat="44.288966077834075" lon="11.929672178539867"><ele>26.0</ele><time>2026-05-02T10:41:21.936Z</time></trkpt><trkpt lat="44.28911344944936" lon="11.929807662064432"><ele>26.0</ele><time>2026-05-02T10:41:22.936Z</time></trkpt><trkpt lat="44.28927344294578" lon="11.929944450345985"><ele>26.0</ele><time>2026-05-02T10:41:23.936Z</time></trkpt><trkpt lat="44.289482518747036" lon="11.929974148979118"><ele>26.0</ele><time>2026-05-02T10:41:24.936Z</time></trkpt><trkpt lat="44.28966023949252" lon="11.93008186637603"><ele>26.0</ele><time>2026-05-02T10:41:25.936Z</time></trkpt><trkpt lat="44.28983854389072" lon="11.93019408874346"><ele>26.0</ele><time>2026-05-02T10:41:26.935Z</time></trkpt><trkpt lat="44.29001715675578" lon="11.93030621271933"><ele>26.0</ele><time>2026-05-02T10:41:27.935Z</time></trkpt><trkpt lat="44.2901954557214" lon="11.930416195631993"><ele>26.0</ele><time>2026-05-02T10:41:28.935Z</time></trkpt><trkpt lat="44.29036849115796" lon="11.930521680501489"><ele>26.0</ele><time>2026-05-02T10:41:29.935Z</time></trkpt><trkpt lat="44.29053926525772" lon="11.930624287155284"><ele>26.0</ele><time>2026-05-02T10:41:30.935Z</time></trkpt><trkpt lat="44.29069782009576" lon="11.930723535644624"><ele>26.0</ele><time>2026-05-02T10:41:31.936Z</time></trkpt><trkpt lat="44.29084773705636" lon="11.93081489515096"><ele>25.75</ele><time>2026-05-02T10:41:32.936Z</time></trkpt><trkpt lat="44.290984800450445" lon="11.9308994843711"><ele>25.5</ele><time>2026-05-02T10:41:33.936Z</time></trkpt><trkpt lat="44.29110071806111" lon="11.930997280520007"><ele>25.25</ele><time>2026-05-02T10:41:34.936Z</time></trkpt><trkpt lat="44.29118252930203" lon="11.93114386710659"><ele>25.0</ele><time>2026-05-02T10:41:35.936Z</time></trkpt><trkpt lat="44.29121294891963" lon="11.93132209201748"><ele>25.0</ele><time>2026-05-02T10:41:36.936Z</time></trkpt><trkpt lat="44.29121338628727" lon="11.931554861144646"><ele>25.0</ele><time>2026-05-02T10:41:37.936Z</time></trkpt><trkpt lat="44.29122008289551" lon="11.931807971513473"><ele>25.0</ele><time>2026-05-02T10:41:38.936Z</time></trkpt><trkpt lat="44.291240209816394" lon="11.932054778424696"><ele>24.333333333333336</ele><time>2026-05-02T10:41:39.936Z</time></trkpt><trkpt lat="44.29127571889273" lon="11.932278789083144"><ele>23.666666666666668</ele><time>2026-05-02T10:41:40.936Z</time></trkpt><trkpt lat="44.29133082415709" lon="11.932489908995468"><ele>23.0</ele><time>2026-05-02T10:41:41.936Z</time></trkpt><trkpt lat="44.29142030045348" lon="11.93269132581827"><ele>23.333333333333336</ele><time>2026-05-02T10:41:42.936Z</time></trkpt><trkpt lat="44.29152805933187" lon="11.932890145136192"><ele>23.666666666666668</ele><time>2026-05-02T10:41:43.936Z</time></trkpt><trkpt lat="44.2916240378366" lon="11.933103950873791"><ele>24.0</ele><time>2026-05-02T10:41:44.936Z</time></trkpt><trkpt lat="44.29170500638638" lon="11.933340867897156"><ele>23.666666666666668</ele><time>2026-05-02T10:41:45.936Z</time></trkpt><trkpt lat="44.29178094413762" lon="11.933591308102827"><ele>23.333333333333336</ele><time>2026-05-02T10:41:46.936Z</time></trkpt><trkpt lat="44.29184990949795" lon="11.933838945145212"><ele>23.0</ele><time>2026-05-02T10:41:47.936Z</time></trkpt><trkpt lat="44.29191475046823" lon="11.934079733077764"><ele>23.333333333333336</ele><time>2026-05-02T10:41:48.936Z</time></trkpt><trkpt lat="44.29198022328804" lon="11.934313481060595"><ele>23.666666666666668</ele><time>2026-05-02T10:41:49.936Z</time></trkpt><trkpt lat="44.292043668268704" lon="11.934547090093444"><ele>24.0</ele><time>2026-05-02T10:41:50.936Z</time></trkpt><trkpt lat="44.292103456627146" lon="11.934788909269784"><ele>24.0</ele><time>2026-05-02T10:41:51.936Z</time></trkpt><trkpt lat="44.29215420171716" lon="11.935039085385712"><ele>24.0</ele><time>2026-05-02T10:41:52.936Z</time></trkpt><trkpt lat="44.29219683601218" lon="11.935300177041011"><ele>24.0</ele><time>2026-05-02T10:41:53.936Z</time></trkpt><trkpt lat="44.29223989816302" lon="11.935568499936585"><ele>24.0</ele><time>2026-05-02T10:41:54.936Z</time></trkpt><trkpt lat="44.292283700106424" lon="11.93584130823497"><ele>24.0</ele><time>2026-05-02T10:41:55.936Z</time></trkpt><trkpt lat="44.29233122597906" lon="11.936123985356994"><ele>24.0</ele><time>2026-05-02T10:41:56.936Z</time></trkpt><trkpt lat="44.29237770321851" lon="11.936412681190465"><ele>24.0</ele><time>2026-05-02T10:41:57.936Z</time></trkpt><trkpt lat="44.29243100635848" lon="11.936706249705017"><ele>24.0</ele><time>2026-05-02T10:41:58.936Z</time></trkpt><trkpt lat="44.29248397289342" lon="11.936991263467753"><ele>24.0</ele><time>2026-05-02T10:41:59.936Z</time></trkpt><trkpt lat="44.292533322608406" lon="11.937271384631048"><ele>24.0</ele><time>2026-05-02T10:42:00.936Z</time></trkpt><trkpt lat="44.29256300688366" lon="11.937551493223081"><ele>24.0</ele><time>2026-05-02T10:42:01.936Z</time></trkpt><trkpt lat="44.29260551560118" lon="11.937807985043756"><ele>24.0</ele><time>2026-05-02T10:42:02.936Z</time></trkpt><trkpt lat="44.292647024290275" lon="11.938058512498177"><ele>23.666666666666668</ele><time>2026-05-02T10:42:03.936Z</time></trkpt><trkpt lat="44.29269786689774" lon="11.938303338473503"><ele>23.333333333333336</ele><time>2026-05-02T10:42:04.936Z</time></trkpt><trkpt lat="44.29271617506749" lon="11.938548310742505"><ele>23.0</ele><time>2026-05-02T10:42:05.936Z</time></trkpt><trkpt lat="44.29274886035451" lon="11.93878075072968"><ele>23.0</ele><time>2026-05-02T10:42:06.936Z</time></trkpt><trkpt lat="44.292805374626056" lon="11.939006354160632"><ele>23.0</ele><time>2026-05-02T10:42:07.936Z</time></trkpt><trkpt lat="44.292864756032515" lon="11.939243802570184"><ele>23.0</ele><time>2026-05-02T10:42:08.936Z</time></trkpt><trkpt lat="44.29294815482704" lon="11.939481842355676"><ele>23.0</ele><time>2026-05-02T10:42:09.936Z</time></trkpt><trkpt lat="44.29305647776241" lon="11.939741535930194"><ele>23.0</ele><time>2026-05-02T10:42:10.936Z</time></trkpt><trkpt lat="44.293166403788184" lon="11.940024967725327"><ele>23.0</ele><time>2026-05-02T10:42:11.936Z</time></trkpt><trkpt lat="44.29329083377115" lon="11.940320981064145"><ele>22.0</ele><time>2026-05-02T10:42:12.936Z</time></trkpt><trkpt lat="44.29342961961257" lon="11.940628888197711"><ele>21.0</ele><time>2026-05-02T10:42:13.936Z</time></trkpt><trkpt lat="44.29355470344538" lon="11.94094346626782"><ele>21.0</ele><time>2026-05-02T10:42:14.936Z</time></trkpt><trkpt lat="44.293681134898634" lon="11.94125394895851"><ele>21.0</ele><time>2026-05-02T10:42:15.936Z</time></trkpt><trkpt lat="44.2938046659502" lon="11.941554465472"><ele>21.0</ele><time>2026-05-02T10:42:16.936Z</time></trkpt><trkpt lat="44.29392584897878" lon="11.941842865951257"><ele>21.0</ele><time>2026-05-02T10:42:17.936Z</time></trkpt><trkpt lat="44.29404585461653" lon="11.942129442034098"><ele>21.0</ele><time>2026-05-02T10:42:18.936Z</time></trkpt><trkpt lat="44.29415970534486" lon="11.942405170170439"><ele>21.0</ele><time>2026-05-02T10:42:19.936Z</time></trkpt><trkpt lat="44.29427585327772" lon="11.942679218923791"><ele>21.0</ele><time>2026-05-02T10:42:20.936Z</time></trkpt><trkpt lat="44.294394355723036" lon="11.942946406741472"><ele>21.0</ele><time>2026-05-02T10:42:21.936Z</time></trkpt><trkpt lat="44.29451445969368" lon="11.94321019719492"><ele>21.0</ele><time>2026-05-02T10:42:22.936Z</time></trkpt><trkpt lat="44.29463163091053" lon="11.943473738294438"><ele>21.0</ele><time>2026-05-02T10:42:23.936Z</time></trkpt><trkpt lat="44.294755078600026" lon="11.943723796907838"><ele>21.0</ele><time>2026-05-02T10:42:24.936Z</time></trkpt><trkpt lat="44.29487280994406" lon="11.943971841907022"><ele>21.0</ele><time>2026-05-02T10:42:25.936Z</time></trkpt><trkpt lat="44.29499164659411" lon="11.944218446556837"><ele>21.0</ele><time>2026-05-02T10:42:26.936Z</time></trkpt><trkpt lat="44.295109848236" lon="11.94446796475397"><ele>21.0</ele><time>2026-05-02T10:42:27.936Z</time></trkpt><trkpt lat="44.295230332877395" lon="11.9447176846361"><ele>21.0</ele><time>2026-05-02T10:42:28.936Z</time></trkpt><trkpt lat="44.295340225279915" lon="11.944964839595384"><ele>21.0</ele><time>2026-05-02T10:42:29.936Z</time></trkpt><trkpt lat="44.295448516261175" lon="11.945196510886536"><ele>21.0</ele><time>2026-05-02T10:42:30.936Z</time></trkpt><trkpt lat="44.29554225841194" lon="11.94542215744858"><ele>21.0</ele><time>2026-05-02T10:42:31.936Z</time></trkpt><trkpt lat="44.29562034964572" lon="11.945662470788411"><ele>21.0</ele><time>2026-05-02T10:42:32.936Z</time></trkpt><trkpt lat="44.2956583552307" lon="11.945914058454004"><ele>21.0</ele><time>2026-05-02T10:42:33.936Z</time></trkpt><trkpt lat="44.295675271919485" lon="11.9461720802871"><ele>21.0</ele><time>2026-05-02T10:42:34.936Z</time></trkpt><trkpt lat="44.295659518126335" lon="11.946443832390923"><ele>20.666666666666668</ele><time>2026-05-02T10:42:35.936Z</time></trkpt><trkpt lat="44.295662369367804" lon="11.946720129553176"><ele>20.333333333333336</ele><time>2026-05-02T10:42:36.936Z</time></trkpt><trkpt lat="44.29564616094791" lon="11.946982950377523"><ele>20.0</ele><time>2026-05-02T10:42:37.936Z</time></trkpt><trkpt lat="44.29565506462758" lon="11.947255127718536"><ele>20.0</ele><time>2026-05-02T10:42:38.936Z</time></trkpt><trkpt lat="44.295671790718366" lon="11.947521843247863"><ele>20.0</ele><time>2026-05-02T10:42:39.936Z</time></trkpt><trkpt lat="44.295685153840246" lon="11.947773354828275"><ele>20.0</ele><time>2026-05-02T10:42:40.936Z</time></trkpt><trkpt lat="44.295688656168984" lon="11.948030098074529"><ele>20.0</ele><time>2026-05-02T10:42:41.936Z</time></trkpt><trkpt lat="44.295641547670066" lon="11.948277022061646"><ele>20.0</ele><time>2026-05-02T10:42:42.936Z</time></trkpt><trkpt lat="44.29557548638527" lon="11.948533424285614"><ele>20.0</ele><time>2026-05-02T10:42:43.936Z</time></trkpt><trkpt lat="44.29549959288391" lon="11.948796789973668"><ele>20.0</ele><time>2026-05-02T10:42:44.936Z</time></trkpt><trkpt lat="44.295422569164536" lon="11.949064908052664"><ele>20.0</ele><time>2026-05-02T10:42:45.936Z</time></trkpt><trkpt lat="44.29536229341859" lon="11.949333092528079"><ele>20.0</ele><time>2026-05-02T10:42:46.936Z</time></trkpt><trkpt lat="44.295285418360805" lon="11.94958666343475"><ele>20.0</ele><time>2026-05-02T10:42:47.936Z</time></trkpt><trkpt lat="44.29520972908934" lon="11.949831720311312"><ele>20.0</ele><time>2026-05-02T10:42:48.936Z</time></trkpt><trkpt lat="44.29512934639305" lon="11.95007292627595"><ele>20.0</ele><time>2026-05-02T10:42:49.936Z</time></trkpt><trkpt lat="44.29504014270309" lon="11.950312023781592"><ele>20.0</ele><time>2026-05-02T10:42:50.936Z</time></trkpt><trkpt lat="44.29494919248045" lon="11.950546813990732"><ele>20.0</ele><time>2026-05-02T10:42:51.936Z</time></trkpt><trkpt lat="44.294860642788976" lon="11.950772632570043"><ele>20.0</ele><time>2026-05-02T10:42:52.936Z</time></trkpt><trkpt lat="44.294781982126665" lon="11.950984674992911"><ele>20.0</ele><time>2026-05-02T10:42:53.936Z</time></trkpt><trkpt lat="44.29472641338178" lon="11.951192899271188"><ele>20.0</ele><time>2026-05-02T10:42:54.936Z</time></trkpt><trkpt lat="44.29471158843578" lon="11.951408026935681"><ele>20.0</ele><time>2026-05-02T10:42:55.936Z</time></trkpt><trkpt lat="44.29474258362034" lon="11.95163234327837"><ele>20.333333333333336</ele><time>2026-05-02T10:42:56.936Z</time></trkpt><trkpt lat="44.294788602322704" lon="11.951859945211316"><ele>20.666666666666668</ele><time>2026-05-02T10:42:57.936Z</time></trkpt><trkpt lat="44.29476959157798" lon="11.952092323829909"><ele>21.0</ele><time>2026-05-02T10:42:58.936Z</time></trkpt><trkpt lat="44.29473921241277" lon="11.952310597010447"><ele>21.0</ele><time>2026-05-02T10:42:59.936Z</time></trkpt><trkpt lat="44.294762487033466" lon="11.952513738036568"><ele>21.0</ele><time>2026-05-02T10:43:00.936Z</time></trkpt><trkpt lat="44.294809880479626" lon="11.952715303099973"><ele>21.0</ele><time>2026-05-02T10:43:01.936Z</time></trkpt><trkpt lat="44.29490161125528" lon="11.95292356337782"><ele>20.666666666666668</ele><time>2026-05-02T10:43:02.936Z</time></trkpt><trkpt lat="44.295003691478506" lon="11.953130923368095"><ele>20.333333333333336</ele><time>2026-05-02T10:43:03.936Z</time></trkpt><trkpt lat="44.295103766266095" lon="11.95335283661246"><ele>20.0</ele><time>2026-05-02T10:43:04.936Z</time></trkpt><trkpt lat="44.29519956941063" lon="11.953586401372986"><ele>19.666666666666668</ele><time>2026-05-02T10:43:05.936Z</time></trkpt><trkpt lat="44.29529281426475" lon="11.953822736132727"><ele>19.333333333333332</ele><time>2026-05-02T10:43:06.936Z</time></trkpt><trkpt lat="44.29538430165067" lon="11.954056230802438"><ele>19.0</ele><time>2026-05-02T10:43:07.936Z</time></trkpt><trkpt lat="44.29547464804274" lon="11.954287781082472"><ele>18.666666666666664</ele><time>2026-05-02T10:43:08.936Z</time></trkpt><trkpt lat="44.2955660288839" lon="11.954511638481506"><ele>18.333333333333332</ele><time>2026-05-02T10:43:09.936Z</time></trkpt><trkpt lat="44.29565572222997" lon="11.954725597826673"><ele>18.0</ele><time>2026-05-02T10:43:10.936Z</time></trkpt><trkpt lat="44.29574290495729" lon="11.954938052558356"><ele>18.0</ele><time>2026-05-02T10:43:11.935Z</time></trkpt><trkpt lat="44.29581070649996" lon="11.955173186894937"><ele>18.0</ele><time>2026-05-02T10:43:12.935Z</time></trkpt><trkpt lat="44.29584728111983" lon="11.955430023738895"><ele>18.0</ele><time>2026-05-02T10:43:13.935Z</time></trkpt><trkpt lat="44.2958570722209" lon="11.95570695130563"><ele>18.333333333333332</ele><time>2026-05-02T10:43:14.935Z</time></trkpt><trkpt lat="44.29586261191787" lon="11.955977980635542"><ele>18.666666666666664</ele><time>2026-05-02T10:43:15.935Z</time></trkpt><trkpt lat="44.29587287621229" lon="11.956234442874432"><ele>19.0</ele><time>2026-05-02T10:43:16.935Z</time></trkpt><trkpt lat="44.29589496632536" lon="11.956465710786718"><ele>19.0</ele><time>2026-05-02T10:43:17.935Z</time></trkpt><trkpt lat="44.29593901292478" lon="11.956672707478134"><ele>19.0</ele><time>2026-05-02T10:43:18.935Z</time></trkpt><trkpt lat="44.29597884612502" lon="11.956871886582205"><ele>19.0</ele><time>2026-05-02T10:43:19.935Z</time></trkpt><trkpt lat="44.29600384348026" lon="11.957088799355004"><ele>19.0</ele><time>2026-05-02T10:43:20.935Z</time></trkpt><trkpt lat="44.29600341028401" lon="11.95732914964787"><ele>19.0</ele><time>2026-05-02T10:43:21.935Z</time></trkpt><trkpt lat="44.29599858008909" lon="11.957584520484247"><ele>19.0</ele><time>2026-05-02T10:43:22.935Z</time></trkpt><trkpt lat="44.29599054221423" lon="11.95785650796603"><ele>19.0</ele><time>2026-05-02T10:43:23.935Z</time></trkpt><trkpt lat="44.29598764252752" lon="11.958127328774701"><ele>19.0</ele><time>2026-05-02T10:43:24.935Z</time></trkpt><trkpt lat="44.29598772878582" lon="11.958395439872698"><ele>19.0</ele><time>2026-05-02T10:43:25.933Z</time></trkpt><trkpt lat="44.29598814546685" lon="11.958656435304599"><ele>18.333333333333332</ele><time>2026-05-02T10:43:26.933Z</time></trkpt><trkpt lat="44.29598426009324" lon="11.958912945285974"><ele>17.666666666666668</ele><time>2026-05-02T10:43:27.933Z</time></trkpt><trkpt lat="44.29597607274509" lon="11.959170030474668"><ele>17.0</ele><time>2026-05-02T10:43:28.933Z</time></trkpt><trkpt lat="44.29596261171896" lon="11.959412038906947"><ele>17.0</ele><time>2026-05-02T10:43:29.933Z</time></trkpt><trkpt lat="44.29594589804531" lon="11.959635573362545"><ele>17.0</ele><time>2026-05-02T10:43:30.933Z</time></trkpt><trkpt lat="44.29592785855964" lon="11.95983985792304"><ele>17.0</ele><time>2026-05-02T10:43:31.934Z</time></trkpt><trkpt lat="44.295910469779415" lon="11.960019679550573"><ele>17.0</ele><time>2026-05-02T10:43:32.934Z</time></trkpt><trkpt lat="44.29591120184608" lon="11.960194655442034"><ele>17.25</ele><time>2026-05-02T10:43:33.934Z</time></trkpt><trkpt lat="44.29594858445511" lon="11.960360009534499"><ele>17.5</ele><time>2026-05-02T10:43:34.933Z</time></trkpt><trkpt lat="44.29604454720896" lon="11.960513279362605"><ele>17.75</ele><time>2026-05-02T10:43:35.933Z</time></trkpt><trkpt lat="44.29616422889465" lon="11.96065432456659"><ele>18.0</ele><time>2026-05-02T10:43:36.933Z</time></trkpt><trkpt lat="44.29631395923539" lon="11.960789991280096"><ele>17.666666666666668</ele><time>2026-05-02T10:43:37.933Z</time></trkpt><trkpt lat="44.296474456018935" lon="11.960932146028114"><ele>17.333333333333336</ele><time>2026-05-02T10:43:38.934Z</time></trkpt><trkpt lat="44.29663746524626" lon="11.961089707644037"><ele>17.0</ele><time>2026-05-02T10:43:39.934Z</time></trkpt><trkpt lat="44.296794943159306" lon="11.961256888130565"><ele>17.0</ele><time>2026-05-02T10:43:40.934Z</time></trkpt><trkpt lat="44.29695663211405" lon="11.961424223320572"><ele>17.0</ele><time>2026-05-02T10:43:41.934Z</time></trkpt><trkpt lat="44.2971230928443" lon="11.961597810003378"><ele>17.0</ele><time>2026-05-02T10:43:42.934Z</time></trkpt><trkpt lat="44.297290413203726" lon="11.961767805150572"><ele>16.666666666666668</ele><time>2026-05-02T10:43:43.934Z</time></trkpt><trkpt lat="44.29746183592013" lon="11.961942037667372"><ele>16.333333333333332</ele><time>2026-05-02T10:43:44.934Z</time></trkpt><trkpt lat="44.2976251372989" lon="11.962112985085229"><ele>16.0</ele><time>2026-05-02T10:43:45.934Z</time></trkpt><trkpt lat="44.297788675712845" lon="11.962275443342127"><ele>16.0</ele><time>2026-05-02T10:43:46.934Z</time></trkpt><trkpt lat="44.29795395111414" lon="11.962432065313743"><ele>16.0</ele><time>2026-05-02T10:43:47.934Z</time></trkpt><trkpt lat="44.2981282968476" lon="11.962580239090808"><ele>16.0</ele><time>2026-05-02T10:43:48.934Z</time></trkpt><trkpt lat="44.29830534335148" lon="11.962717141182512"><ele>16.666666666666664</ele><time>2026-05-02T10:43:49.934Z</time></trkpt><trkpt lat="44.298483924017155" lon="11.962847624961686"><ele>17.333333333333332</ele><time>2026-05-02T10:43:50.934Z</time></trkpt><trkpt lat="44.298660816156236" lon="11.962980932555418"><ele>18.0</ele><time>2026-05-02T10:43:51.934Z</time></trkpt><trkpt lat="44.29883735614381" lon="11.963111954778395"><ele>18.0</ele><time>2026-05-02T10:43:52.934Z</time></trkpt><trkpt lat="44.29901174436314" lon="11.963238712534062"><ele>18.0</ele><time>2026-05-02T10:43:53.934Z</time></trkpt><trkpt lat="44.299172598890564" lon="11.963359435620054"><ele>18.0</ele><time>2026-05-02T10:43:54.934Z</time></trkpt><trkpt lat="44.299330086871514" lon="11.963474744461216"><ele>17.666666666666668</ele><time>2026-05-02T10:43:55.934Z</time></trkpt><trkpt lat="44.29948893625635" lon="11.963597609601871"><ele>17.333333333333336</ele><time>2026-05-02T10:43:56.934Z</time></trkpt><trkpt lat="44.29964597956529" lon="11.963717909543709"><ele>17.0</ele><time>2026-05-02T10:43:57.934Z</time></trkpt><trkpt lat="44.29980348497302" lon="11.963835007355895"><ele>17.666666666666668</ele><time>2026-05-02T10:43:58.934Z</time></trkpt><trkpt lat="44.299969671498424" lon="11.963955477201061"><ele>18.333333333333332</ele><time>2026-05-02T10:43:59.934Z</time></trkpt><trkpt lat="44.30014058993485" lon="11.964082349768756"><ele>19.0</ele><time>2026-05-02T10:44:00.934Z</time></trkpt><trkpt lat="44.300313993506556" lon="11.964214487071855"><ele>19.0</ele><time>2026-05-02T10:44:01.934Z</time></trkpt><trkpt lat="44.30049325299801" lon="11.964348434468485"><ele>19.0</ele><time>2026-05-02T10:44:02.934Z</time></trkpt><trkpt lat="44.30067757777836" lon="11.964485113903445"><ele>19.0</ele><time>2026-05-02T10:44:03.934Z</time></trkpt><trkpt lat="44.30086470461214" lon="11.964623755444437"><ele>19.0</ele><time>2026-05-02T10:44:04.934Z</time></trkpt><trkpt lat="44.30105435523781" lon="11.964768316216079"><ele>19.0</ele><time>2026-05-02T10:44:05.934Z</time></trkpt><trkpt lat="44.30124637405245" lon="11.96491430662813"><ele>19.0</ele><time>2026-05-02T10:44:06.934Z</time></trkpt><trkpt lat="44.301440636418675" lon="11.96505960282002"><ele>18.666666666666664</ele><time>2026-05-02T10:44:07.934Z</time></trkpt><trkpt lat="44.30162951615687" lon="11.96519882761498"><ele>18.333333333333332</ele><time>2026-05-02T10:44:08.934Z</time></trkpt><trkpt lat="44.30180833415354" lon="11.965337483981024"><ele>18.0</ele><time>2026-05-02T10:44:09.934Z</time></trkpt><trkpt lat="44.301978150737675" lon="11.965482134566154"><ele>18.0</ele><time>2026-05-02T10:44:10.934Z</time></trkpt><trkpt lat="44.30213913979764" lon="11.965638107670978"><ele>18.0</ele><time>2026-05-02T10:44:11.934Z</time></trkpt><trkpt lat="44.30229069474868" lon="11.965815753087917"><ele>18.0</ele><time>2026-05-02T10:44:12.934Z</time></trkpt><trkpt lat="44.30243319125844" lon="11.966008256625965"><ele>18.0</ele><time>2026-05-02T10:44:13.934Z</time></trkpt><trkpt lat="44.30255446380972" lon="11.966229931297606"><ele>18.0</ele><time>2026-05-02T10:44:14.934Z</time></trkpt><trkpt lat="44.30267949261269" lon="11.966449196941909"><ele>18.0</ele><time>2026-05-02T10:44:15.934Z</time></trkpt><trkpt lat="44.3028003883834" lon="11.966675556983665"><ele>18.333333333333332</ele><time>2026-05-02T10:44:16.934Z</time></trkpt><trkpt lat="44.30292924772516" lon="11.966889230618127"><ele>18.666666666666664</ele><time>2026-05-02T10:44:17.934Z</time></trkpt><trkpt lat="44.303044173769486" lon="11.967111765541079"><ele>19.0</ele><time>2026-05-02T10:44:18.934Z</time></trkpt><trkpt lat="44.30315886266218" lon="11.967333824744092"><ele>19.666666666666664</ele><time>2026-05-02T10:44:19.934Z</time></trkpt><trkpt lat="44.303271174589" lon="11.967556301766045"><ele>20.333333333333332</ele><time>2026-05-02T10:44:20.934Z</time></trkpt><trkpt lat="44.30338325972349" lon="11.967777439665207"><ele>21.0</ele><time>2026-05-02T10:44:21.934Z</time></trkpt><trkpt lat="44.30349991261211" lon="11.967998709916516"><ele>21.0</ele><time>2026-05-02T10:44:22.934Z</time></trkpt><trkpt lat="44.30361655975188" lon="11.968218841576995"><ele>21.0</ele><time>2026-05-02T10:44:23.934Z</time></trkpt><trkpt lat="44.30373262692121" lon="11.968437987454855"><ele>21.0</ele><time>2026-05-02T10:44:24.934Z</time></trkpt><trkpt lat="44.30384693746421" lon="11.96866275214671"><ele>21.0</ele><time>2026-05-02T10:44:25.934Z</time></trkpt><trkpt lat="44.303962571657365" lon="11.968889858832496"><ele>21.0</ele><time>2026-05-02T10:44:26.934Z</time></trkpt><trkpt lat="44.30407785090781" lon="11.969117108427152"><ele>21.0</ele><time>2026-05-02T10:44:27.934Z</time></trkpt><trkpt lat="44.30419389111495" lon="11.969333655950084"><ele>20.666666666666668</ele><time>2026-05-02T10:44:28.934Z</time></trkpt><trkpt lat="44.30431250180982" lon="11.969549547493461"><ele>20.333333333333336</ele><time>2026-05-02T10:44:29.934Z</time></trkpt><trkpt lat="44.30443154565038" lon="11.969772189223008"><ele>20.0</ele><time>2026-05-02T10:44:30.934Z</time></trkpt><trkpt lat="44.30454816129787" lon="11.9699968419517"><ele>19.666666666666668</ele><time>2026-05-02T10:44:31.934Z</time></trkpt><trkpt lat="44.30465727617847" lon="11.97022185425954"><ele>19.333333333333332</ele><time>2026-05-02T10:44:32.934Z</time></trkpt><trkpt lat="44.304771184579224" lon="11.97044636001968"><ele>19.0</ele><time>2026-05-02T10:44:33.934Z</time></trkpt><trkpt lat="44.304900052303196" lon="11.970665987537025"><ele>18.666666666666664</ele><time>2026-05-02T10:44:34.933Z</time></trkpt><trkpt lat="44.30502504587812" lon="11.970890405825486"><ele>18.333333333333332</ele><time>2026-05-02T10:44:35.933Z</time></trkpt><trkpt lat="44.30516374720431" lon="11.971111017799549"><ele>18.0</ele><time>2026-05-02T10:44:36.933Z</time></trkpt><trkpt lat="44.30531461978519" lon="11.97132902713719"><ele>18.0</ele><time>2026-05-02T10:44:37.933Z</time></trkpt><trkpt lat="44.30546012620508" lon="11.971545308525952"><ele>18.0</ele><time>2026-05-02T10:44:38.933Z</time></trkpt><trkpt lat="44.30560494542455" lon="11.971758159598709"><ele>18.0</ele><time>2026-05-02T10:44:39.933Z</time></trkpt><trkpt lat="44.30574632175735" lon="11.971968030099024"><ele>18.333333333333332</ele><time>2026-05-02T10:44:40.933Z</time></trkpt><trkpt lat="44.30588583292244" lon="11.97217975502607"><ele>18.666666666666664</ele><time>2026-05-02T10:44:41.933Z</time></trkpt><trkpt lat="44.306022860528394" lon="11.972392685417196"><ele>19.0</ele><time>2026-05-02T10:44:42.933Z</time></trkpt><trkpt lat="44.306161256271395" lon="11.972603253562937"><ele>19.0</ele><time>2026-05-02T10:44:43.933Z</time></trkpt><trkpt lat="44.306300550725965" lon="11.97281861099147"><ele>19.0</ele><time>2026-05-02T10:44:44.933Z</time></trkpt><trkpt lat="44.30643883651767" lon="11.973032222145278"><ele>19.0</ele><time>2026-05-02T10:44:45.933Z</time></trkpt><trkpt lat="44.30658025291892" lon="11.97324643959791"><ele>18.666666666666664</ele><time>2026-05-02T10:44:46.933Z</time></trkpt><trkpt lat="44.306723914935134" lon="11.973455946653273"><ele>18.333333333333332</ele><time>2026-05-02T10:44:47.933Z</time></trkpt><trkpt lat="44.306874868488826" lon="11.97367358940648"><ele>18.0</ele><time>2026-05-02T10:44:48.933Z</time></trkpt><trkpt lat="44.30702026353251" lon="11.973898377639816"><ele>18.0</ele><time>2026-05-02T10:44:49.933Z</time></trkpt><trkpt lat="44.307167053914206" lon="11.97412507010867"><ele>18.0</ele><time>2026-05-02T10:44:50.933Z</time></trkpt><trkpt lat="44.30731101877548" lon="11.9743496749096"><ele>18.0</ele><time>2026-05-02T10:44:51.933Z</time></trkpt><trkpt lat="44.30745942530856" lon="11.974569641333222"><ele>18.0</ele><time>2026-05-02T10:44:52.933Z</time></trkpt><trkpt lat="44.307605056076845" lon="11.974789658380587"><ele>18.0</ele><time>2026-05-02T10:44:53.933Z</time></trkpt><trkpt lat="44.307747642649815" lon="11.975009648827745"><ele>18.0</ele><time>2026-05-02T10:44:54.933Z</time></trkpt><trkpt lat="44.307890213489294" lon="11.975230155967001"><ele>18.0</ele><time>2026-05-02T10:44:55.933Z</time></trkpt><trkpt lat="44.3080307995249" lon="11.975451188223547"><ele>18.0</ele><time>2026-05-02T10:44:56.933Z</time></trkpt><trkpt lat="44.30817243564655" lon="11.975663984005585"><ele>18.0</ele><time>2026-05-02T10:44:57.933Z</time></trkpt><trkpt lat="44.30831020865337" lon="11.975876334442088"><ele>18.0</ele><time>2026-05-02T10:44:58.933Z</time></trkpt><trkpt lat="44.30844585455383" lon="11.976088166488147"><ele>18.0</ele><time>2026-05-02T10:44:59.933Z</time></trkpt><trkpt lat="44.30858193532257" lon="11.976299946783213"><ele>18.0</ele><time>2026-05-02T10:45:00.933Z</time></trkpt><trkpt lat="44.30871779176474" lon="11.976512912392627"><ele>18.0</ele><time>2026-05-02T10:45:01.933Z</time></trkpt><trkpt lat="44.308850482880565" lon="11.976733079237574"><ele>18.0</ele><time>2026-05-02T10:45:02.933Z</time></trkpt><trkpt lat="44.30899501367213" lon="11.97693627447174"><ele>18.0</ele><time>2026-05-02T10:45:03.933Z</time></trkpt><trkpt lat="44.30913996617895" lon="11.977152299498742"><ele>18.0</ele><time>2026-05-02T10:45:04.933Z</time></trkpt><trkpt lat="44.30928359857927" lon="11.977368471368095"><ele>18.0</ele><time>2026-05-02T10:45:05.933Z</time></trkpt><trkpt lat="44.309429829826485" lon="11.977591408951984"><ele>18.0</ele><time>2026-05-02T10:45:06.933Z</time></trkpt><trkpt lat="44.309574739112634" lon="11.97781026016546"><ele>18.0</ele><time>2026-05-02T10:45:07.933Z</time></trkpt><trkpt lat="44.3097161380305" lon="11.978027431349965"><ele>18.0</ele><time>2026-05-02T10:45:08.933Z</time></trkpt><trkpt lat="44.309852982493524" lon="11.978242514527587"><ele>18.0</ele><time>2026-05-02T10:45:09.933Z</time></trkpt><trkpt lat="44.309991483372166" lon="11.978457733107893"><ele>17.666666666666668</ele><time>2026-05-02T10:45:10.933Z</time></trkpt><trkpt lat="44.31012821205237" lon="11.978670124614519"><ele>17.333333333333336</ele><time>2026-05-02T10:45:11.933Z</time></trkpt><trkpt lat="44.31026765839576" lon="11.978881099586804"><ele>17.0</ele><time>2026-05-02T10:45:12.933Z</time></trkpt><trkpt lat="44.31040834281519" lon="11.979083128689592"><ele>17.0</ele><time>2026-05-02T10:45:13.933Z</time></trkpt><trkpt lat="44.310562388752864" lon="11.979254617031376"><ele>17.0</ele><time>2026-05-02T10:45:14.933Z</time></trkpt><trkpt lat="44.31072961987845" lon="11.97940224390048"><ele>17.0</ele><time>2026-05-02T10:45:15.933Z</time></trkpt><trkpt lat="44.31090071418048" lon="11.97951169145757"><ele>17.0</ele><time>2026-05-02T10:45:16.933Z</time></trkpt><trkpt lat="44.31107833167416" lon="11.979593911425884"><ele>17.0</ele><time>2026-05-02T10:45:17.933Z</time></trkpt><trkpt lat="44.31126175626194" lon="11.979651353941223"><ele>17.0</ele><time>2026-05-02T10:45:18.933Z</time></trkpt><trkpt lat="44.31146241190088" lon="11.979687970194082"><ele>17.333333333333336</ele><time>2026-05-02T10:45:19.933Z</time></trkpt><trkpt lat="44.31167219682132" lon="11.979713640234948"><ele>17.666666666666668</ele><time>2026-05-02T10:45:20.933Z</time></trkpt><trkpt lat="44.311882322198095" lon="11.9797439003545"><ele>18.0</ele><time>2026-05-02T10:45:21.933Z</time></trkpt><trkpt lat="44.31209029692045" lon="11.979777219105351"><ele>18.0</ele><time>2026-05-02T10:45:22.933Z</time></trkpt><trkpt lat="44.312294894990615" lon="11.979809670774722"><ele>18.0</ele><time>2026-05-02T10:45:23.933Z</time></trkpt><trkpt lat="44.31250246548564" lon="11.979847825058641"><ele>18.0</ele><time>2026-05-02T10:45:24.933Z</time></trkpt><trkpt lat="44.31270389586478" lon="11.979883069560254"><ele>18.0</ele><time>2026-05-02T10:45:25.933Z</time></trkpt><trkpt lat="44.312900377161505" lon="11.979914251357982"><ele>18.0</ele><time>2026-05-02T10:45:26.933Z</time></trkpt><trkpt lat="44.313088358767374" lon="11.979941679503847"><ele>18.0</ele><time>2026-05-02T10:45:27.933Z</time></trkpt><trkpt lat="44.31326195113636" lon="11.979972628219762"><ele>17.333333333333332</ele><time>2026-05-02T10:45:28.933Z</time></trkpt><trkpt lat="44.31342351764924" lon="11.98002592236313"><ele>16.666666666666664</ele><time>2026-05-02T10:45:29.933Z</time></trkpt><trkpt lat="44.31357791267032" lon="11.980117169916976"><ele>16.0</ele><time>2026-05-02T10:45:30.933Z</time></trkpt><trkpt lat="44.3137124957536" lon="11.980266668595956"><ele>16.0</ele><time>2026-05-02T10:45:31.931Z</time></trkpt><trkpt lat="44.31384385412112" lon="11.980448944212943"><ele>16.0</ele><time>2026-05-02T10:45:32.932Z</time></trkpt><trkpt lat="44.313967601708654" lon="11.980643542641053"><ele>16.0</ele><time>2026-05-02T10:45:33.932Z</time></trkpt><trkpt lat="44.314090715251496" lon="11.980841653828733"><ele>16.333333333333332</ele><time>2026-05-02T10:45:34.932Z</time></trkpt><trkpt lat="44.314211141311354" lon="11.981033059403485"><ele>16.666666666666668</ele><time>2026-05-02T10:45:35.931Z</time></trkpt><trkpt lat="44.314329733545556" lon="11.981229564039706"><ele>17.0</ele><time>2026-05-02T10:45:36.931Z</time></trkpt><trkpt lat="44.31445012989509" lon="11.981426665065722"><ele>17.0</ele><time>2026-05-02T10:45:37.932Z</time></trkpt><trkpt lat="44.31457578459769" lon="11.981627479716867"><ele>17.0</ele><time>2026-05-02T10:45:38.931Z</time></trkpt><trkpt lat="44.31470079208233" lon="11.981837263981262"><ele>17.0</ele><time>2026-05-02T10:45:39.931Z</time></trkpt><trkpt lat="44.314816160039996" lon="11.982058334732221"><ele>16.666666666666668</ele><time>2026-05-02T10:45:40.931Z</time></trkpt><trkpt lat="44.3149303612806" lon="11.982291238340736"><ele>16.333333333333332</ele><time>2026-05-02T10:45:41.931Z</time></trkpt><trkpt lat="44.315022201130496" lon="11.982547021508742"><ele>16.0</ele><time>2026-05-02T10:45:42.931Z</time></trkpt><trkpt lat="44.31510891747707" lon="11.98280017523272"><ele>16.0</ele><time>2026-05-02T10:45:43.932Z</time></trkpt><trkpt lat="44.315184553882986" lon="11.98305787717755"><ele>16.0</ele><time>2026-05-02T10:45:44.931Z</time></trkpt><trkpt lat="44.31527573328292" lon="11.983296302910302"><ele>16.0</ele><time>2026-05-02T10:45:45.931Z</time></trkpt><trkpt lat="44.315360306501965" lon="11.983538408589459"><ele>16.0</ele><time>2026-05-02T10:45:46.931Z</time></trkpt><trkpt lat="44.31546036660364" lon="11.983755315858954"><ele>16.0</ele><time>2026-05-02T10:45:47.931Z</time></trkpt><trkpt lat="44.31557748763099" lon="11.983962227178406"><ele>16.0</ele><time>2026-05-02T10:45:48.931Z</time></trkpt><trkpt lat="44.31569751480156" lon="11.984163700867047"><ele>15.666666666666666</ele><time>2026-05-02T10:45:49.931Z</time></trkpt><trkpt lat="44.315830329289895" lon="11.98435992072732"><ele>15.333333333333332</ele><time>2026-05-02T10:45:50.931Z</time></trkpt><trkpt lat="44.315980520816865" lon="11.984543357888674"><ele>15.0</ele><time>2026-05-02T10:45:51.931Z</time></trkpt><trkpt lat="44.31614543855812" lon="11.984713661788653"><ele>15.0</ele><time>2026-05-02T10:45:52.931Z</time></trkpt><trkpt lat="44.316317648877046" lon="11.984874469981802"><ele>15.0</ele><time>2026-05-02T10:45:53.931Z</time></trkpt><trkpt lat="44.31649276271509" lon="11.985015430423386"><ele>15.0</ele><time>2026-05-02T10:45:54.931Z</time></trkpt><trkpt lat="44.3166734982461" lon="11.985137689341972"><ele>14.666666666666668</ele><time>2026-05-02T10:45:55.931Z</time></trkpt><trkpt lat="44.316849884995825" lon="11.98525681658729"><ele>14.333333333333334</ele><time>2026-05-02T10:45:56.931Z</time></trkpt><trkpt lat="44.31702550037735" lon="11.985371827676515"><ele>14.0</ele><time>2026-05-02T10:45:57.931Z</time></trkpt><trkpt lat="44.31719966591984" lon="11.985492453401571"><ele>14.0</ele><time>2026-05-02T10:45:58.931Z</time></trkpt><trkpt lat="44.31735875832769" lon="11.98564401246774"><ele>14.0</ele><time>2026-05-02T10:45:59.931Z</time></trkpt><trkpt lat="44.31751659930782" lon="11.985801592521561"><ele>14.0</ele><time>2026-05-02T10:46:00.931Z</time></trkpt><trkpt lat="44.317683633547105" lon="11.985958977633288"><ele>14.0</ele><time>2026-05-02T10:46:01.931Z</time></trkpt><trkpt lat="44.31785096573533" lon="11.986131293442346"><ele>14.0</ele><time>2026-05-02T10:46:02.931Z</time></trkpt><trkpt lat="44.31802828472216" lon="11.98626636887831"><ele>14.0</ele><time>2026-05-02T10:46:03.931Z</time></trkpt><trkpt lat="44.318229374300564" lon="11.986365522288501"><ele>14.333333333333334</ele><time>2026-05-02T10:46:04.931Z</time></trkpt><trkpt lat="44.318441913745964" lon="11.986447897124972"><ele>14.666666666666668</ele><time>2026-05-02T10:46:05.931Z</time></trkpt><trkpt lat="44.31865032491965" lon="11.986535261212262"><ele>15.0</ele><time>2026-05-02T10:46:06.931Z</time></trkpt><trkpt lat="44.318860140160396" lon="11.986622742398303"><ele>15.0</ele><time>2026-05-02T10:46:07.931Z</time></trkpt><trkpt lat="44.31906944063192" lon="11.986718208529863"><ele>15.0</ele><time>2026-05-02T10:46:08.931Z</time></trkpt><trkpt lat="44.31928033080287" lon="11.986813077246047"><ele>15.0</ele><time>2026-05-02T10:46:09.931Z</time></trkpt><trkpt lat="44.319481370400474" lon="11.986902754980038"><ele>15.0</ele><time>2026-05-02T10:46:10.931Z</time></trkpt><trkpt lat="44.31966682587091" lon="11.98698872098282"><ele>15.0</ele><time>2026-05-02T10:46:11.931Z</time></trkpt><trkpt lat="44.31984073458048" lon="11.987086122130385"><ele>15.0</ele><time>2026-05-02T10:46:12.931Z</time></trkpt><trkpt lat="44.31999383851765" lon="11.987241695102409"><ele>15.0</ele><time>2026-05-02T10:46:13.931Z</time></trkpt><trkpt lat="44.32013332008591" lon="11.987432653486389"><ele>15.0</ele><time>2026-05-02T10:46:14.931Z</time></trkpt><trkpt lat="44.32025547330961" lon="11.987650423771013"><ele>15.0</ele><time>2026-05-02T10:46:15.931Z</time></trkpt><trkpt lat="44.320387247987036" lon="11.987874157935984"><ele>15.0</ele><time>2026-05-02T10:46:16.931Z</time></trkpt><trkpt lat="44.32053192238822" lon="11.988074710558768"><ele>15.0</ele><time>2026-05-02T10:46:17.931Z</time></trkpt><trkpt lat="44.32067672298831" lon="11.98827706530534"><ele>15.0</ele><time>2026-05-02T10:46:18.931Z</time></trkpt><trkpt lat="44.320820298204254" lon="11.988473055561721"><ele>15.0</ele><time>2026-05-02T10:46:19.931Z</time></trkpt><trkpt lat="44.32095543538041" lon="11.988663728812334"><ele>15.0</ele><time>2026-05-02T10:46:20.931Z</time></trkpt><trkpt lat="44.321088148612425" lon="11.988847348884843"><ele>15.0</ele><time>2026-05-02T10:46:21.931Z</time></trkpt><trkpt lat="44.32122414607143" lon="11.989037328415819"><ele>15.0</ele><time>2026-05-02T10:46:22.931Z</time></trkpt><trkpt lat="44.32136057946787" lon="11.98923534763591"><ele>15.0</ele><time>2026-05-02T10:46:23.931Z</time></trkpt><trkpt lat="44.32146795951075" lon="11.989466715000784"><ele>15.0</ele><time>2026-05-02T10:46:24.931Z</time></trkpt><trkpt lat="44.32155398424029" lon="11.989712782885947"><ele>15.0</ele><time>2026-05-02T10:46:25.931Z</time></trkpt><trkpt lat="44.321632910144444" lon="11.989970121376556"><ele>15.0</ele><time>2026-05-02T10:46:26.931Z</time></trkpt><trkpt lat="44.321750639305" lon="11.990198529946346"><ele>15.0</ele><time>2026-05-02T10:46:27.931Z</time></trkpt><trkpt lat="44.32185798855406" lon="11.990434629195244"><ele>15.0</ele><time>2026-05-02T10:46:28.931Z</time></trkpt><trkpt lat="44.32196739097404" lon="11.990675713772156"><ele>15.0</ele><time>2026-05-02T10:46:29.931Z</time></trkpt><trkpt lat="44.32207990569305" lon="11.990886735980345"><ele>15.0</ele><time>2026-05-02T10:46:30.931Z</time></trkpt><trkpt lat="44.32218159735813" lon="11.991104424068645"><ele>15.333333333333332</ele><time>2026-05-02T10:46:31.931Z</time></trkpt><trkpt lat="44.32225942319589" lon="11.991333495731924"><ele>15.666666666666666</ele><time>2026-05-02T10:46:32.931Z</time></trkpt><trkpt lat="44.322299062518375" lon="11.9915896880818"><ele>16.0</ele><time>2026-05-02T10:46:33.931Z</time></trkpt><trkpt lat="44.32231732610009" lon="11.991853990079935"><ele>16.0</ele><time>2026-05-02T10:46:34.931Z</time></trkpt><trkpt lat="44.32232117267895" lon="11.99211790930023"><ele>16.0</ele><time>2026-05-02T10:46:35.931Z</time></trkpt><trkpt lat="44.32231654334584" lon="11.992360416717004"><ele>16.0</ele><time>2026-05-02T10:46:36.931Z</time></trkpt><trkpt lat="44.322317951539205" lon="11.992578917127116"><ele>15.666666666666666</ele><time>2026-05-02T10:46:37.931Z</time></trkpt><trkpt lat="44.32235450144849" lon="11.992793369188494"><ele>15.333333333333332</ele><time>2026-05-02T10:46:38.931Z</time></trkpt><trkpt lat="44.32242509030419" lon="11.993000031638017"><ele>15.0</ele><time>2026-05-02T10:46:39.931Z</time></trkpt><trkpt lat="44.32252170131427" lon="11.993164158440406"><ele>15.0</ele><time>2026-05-02T10:46:40.931Z</time></trkpt><trkpt lat="44.32264815584737" lon="11.993268058851"><ele>15.0</ele><time>2026-05-02T10:46:41.931Z</time></trkpt><trkpt lat="44.322796565051924" lon="11.993337452728465"><ele>15.0</ele><time>2026-05-02T10:46:42.931Z</time></trkpt><trkpt lat="44.32296160441286" lon="11.993395410436454"><ele>15.0</ele><time>2026-05-02T10:46:43.931Z</time></trkpt><trkpt lat="44.323128760396834" lon="11.993457964238157"><ele>15.0</ele><time>2026-05-02T10:46:44.931Z</time></trkpt><trkpt lat="44.32329718353619" lon="11.993511235653552"><ele>15.0</ele><time>2026-05-02T10:46:45.931Z</time></trkpt><trkpt lat="44.32347300113534" lon="11.99352161123694"><ele>15.0</ele><time>2026-05-02T10:46:46.931Z</time></trkpt><trkpt lat="44.32364978938908" lon="11.993501670725685"><ele>15.0</ele><time>2026-05-02T10:46:47.931Z</time></trkpt><trkpt lat="44.32381534063504" lon="11.993517692926988"><ele>15.0</ele><time>2026-05-02T10:46:48.931Z</time></trkpt><trkpt lat="44.32398258461318" lon="11.99360015752156"><ele>15.0</ele><time>2026-05-02T10:46:49.931Z</time></trkpt><trkpt lat="44.32414545468263" lon="11.993737621684788"><ele>15.0</ele><time>2026-05-02T10:46:50.931Z</time></trkpt><trkpt lat="44.32430432410978" lon="11.993897361004244"><ele>15.0</ele><time>2026-05-02T10:46:51.931Z</time></trkpt><trkpt lat="44.32446172461846" lon="11.994057675787712"><ele>14.666666666666668</ele><time>2026-05-02T10:46:52.931Z</time></trkpt><trkpt lat="44.32462323725364" lon="11.994219478633932"><ele>14.333333333333334</ele><time>2026-05-02T10:46:53.931Z</time></trkpt><trkpt lat="44.32477540975745" lon="11.994404459761741"><ele>14.0</ele><time>2026-05-02T10:46:54.931Z</time></trkpt><trkpt lat="44.32491651714569" lon="11.994602840282651"><ele>14.333333333333334</ele><time>2026-05-02T10:46:55.931Z</time></trkpt><trkpt lat="44.325049403193496" lon="11.994806176752691"><ele>14.666666666666668</ele><time>2026-05-02T10:46:56.931Z</time></trkpt><trkpt lat="44.32517469784225" lon="11.995008941379172"><ele>15.0</ele><time>2026-05-02T10:46:57.931Z</time></trkpt><trkpt lat="44.32529742300594" lon="11.995206522025235"><ele>15.0</ele><time>2026-05-02T10:46:58.931Z</time></trkpt><trkpt lat="44.32541471833313" lon="11.995385390851926"><ele>15.0</ele><time>2026-05-02T10:46:59.931Z</time></trkpt><trkpt lat="44.325536588020924" lon="11.995556293552431"><ele>15.0</ele><time>2026-05-02T10:47:00.931Z</time></trkpt><trkpt lat="44.32565904355479" lon="11.99571425483239"><ele>14.666666666666668</ele><time>2026-05-02T10:47:01.931Z</time></trkpt><trkpt lat="44.325783875793086" lon="11.995851268187382"><ele>14.333333333333334</ele><time>2026-05-02T10:47:02.931Z</time></trkpt><trkpt lat="44.32590825102394" lon="11.995952181959888"><ele>14.0</ele><time>2026-05-02T10:47:03.931Z</time></trkpt><trkpt lat="44.32605125060654" lon="11.996010700332345"><ele>14.0</ele><time>2026-05-02T10:47:04.931Z</time></trkpt><trkpt lat="44.32622166476165" lon="11.996022038521403"><ele>14.0</ele><time>2026-05-02T10:47:05.931Z</time></trkpt><trkpt lat="44.32639726278442" lon="11.996000419335761"><ele>14.0</ele><time>2026-05-02T10:47:06.931Z</time></trkpt><trkpt lat="44.326581326532455" lon="11.995966415793239"><ele>14.333333333333334</ele><time>2026-05-02T10:47:07.931Z</time></trkpt><trkpt lat="44.32676829556336" lon="11.995933716280815"><ele>14.666666666666668</ele><time>2026-05-02T10:47:08.931Z</time></trkpt><trkpt lat="44.3269586160433" lon="11.995895873192314"><ele>15.0</ele><time>2026-05-02T10:47:09.931Z</time></trkpt><trkpt lat="44.327153912832664" lon="11.995855515370714"><ele>15.0</ele><time>2026-05-02T10:47:10.931Z</time></trkpt><trkpt lat="44.32734895088864" lon="11.995811607456554"><ele>15.0</ele><time>2026-05-02T10:47:11.931Z</time></trkpt><trkpt lat="44.327534053878566" lon="11.995762920432776"><ele>15.0</ele><time>2026-05-02T10:47:12.931Z</time></trkpt><trkpt lat="44.327722905551155" lon="11.99571541399623"><ele>15.0</ele><time>2026-05-02T10:47:13.931Z</time></trkpt><trkpt lat="44.327908815863815" lon="11.995670185934278"><ele>15.0</ele><time>2026-05-02T10:47:14.931Z</time></trkpt><trkpt lat="44.32810213393993" lon="11.995625414278877"><ele>15.0</ele><time>2026-05-02T10:47:15.931Z</time></trkpt><trkpt lat="44.32829452945265" lon="11.995590447397602"><ele>14.666666666666668</ele><time>2026-05-02T10:47:16.931Z</time></trkpt><trkpt lat="44.32849842934461" lon="11.995559374338812"><ele>14.333333333333334</ele><time>2026-05-02T10:47:17.931Z</time></trkpt><trkpt lat="44.328696813642466" lon="11.995513167486198"><ele>14.0</ele><time>2026-05-02T10:47:18.931Z</time></trkpt><trkpt lat="44.328893770960136" lon="11.995455235778559"><ele>14.666666666666668</ele><time>2026-05-02T10:47:19.931Z</time></trkpt><trkpt lat="44.32908891211952" lon="11.995392849774841"><ele>15.333333333333332</ele><time>2026-05-02T10:47:20.931Z</time></trkpt><trkpt lat="44.32928324456686" lon="11.995355007374927"><ele>16.0</ele><time>2026-05-02T10:47:21.931Z</time></trkpt><trkpt lat="44.32948006239281" lon="11.995347024109394"><ele>16.0</ele><time>2026-05-02T10:47:22.931Z</time></trkpt><trkpt lat="44.32968070344282" lon="11.99537949933784"><ele>16.0</ele><time>2026-05-02T10:47:23.931Z</time></trkpt><trkpt lat="44.329881971089584" lon="11.99543190821448"><ele>16.0</ele><time>2026-05-02T10:47:24.931Z</time></trkpt><trkpt lat="44.330083439316184" lon="11.995503890181928"><ele>16.333333333333332</ele><time>2026-05-02T10:47:25.931Z</time></trkpt><trkpt lat="44.330278599666606" lon="11.995598936509477"><ele>16.666666666666668</ele><time>2026-05-02T10:47:26.931Z</time></trkpt><trkpt lat="44.33046537927315" lon="11.995692784615072"><ele>17.0</ele><time>2026-05-02T10:47:27.931Z</time></trkpt><trkpt lat="44.33064264905735" lon="11.995766926326064"><ele>16.0</ele><time>2026-05-02T10:47:28.931Z</time></trkpt><trkpt lat="44.33082270131749" lon="11.995810459250116"><ele>15.0</ele><time>2026-05-02T10:47:29.931Z</time></trkpt><trkpt lat="44.331006452759446" lon="11.995811161471982"><ele>14.0</ele><time>2026-05-02T10:47:30.931Z</time></trkpt><trkpt lat="44.331185901587276" lon="11.995765910007197"><ele>14.0</ele><time>2026-05-02T10:47:31.931Z</time></trkpt><trkpt lat="44.331360214225604" lon="11.995700524511403"><ele>14.0</ele><time>2026-05-02T10:47:32.931Z</time></trkpt><trkpt lat="44.33152986983679" lon="11.995603388396185"><ele>14.0</ele><time>2026-05-02T10:47:33.931Z</time></trkpt><trkpt lat="44.33169688986569" lon="11.995473200997825"><ele>14.0</ele><time>2026-05-02T10:47:34.931Z</time></trkpt><trkpt lat="44.331858245671405" lon="11.995343631370458"><ele>14.0</ele><time>2026-05-02T10:47:35.931Z</time></trkpt><trkpt lat="44.33202074200129" lon="11.995228244593127"><ele>14.0</ele><time>2026-05-02T10:47:36.931Z</time></trkpt><trkpt lat="44.332172591150204" lon="11.99513538176979"><ele>13.75</ele><time>2026-05-02T10:47:37.93Z</time></trkpt><trkpt lat="44.33231986710593" lon="11.995065421607695"><ele>13.5</ele><time>2026-05-02T10:47:38.929Z</time></trkpt><trkpt lat="44.33246095428131" lon="11.995072195231261"><ele>13.25</ele><time>2026-05-02T10:47:39.929Z</time></trkpt><trkpt lat="44.332593295306395" lon="11.995112929238628"><ele>13.0</ele><time>2026-05-02T10:47:40.929Z</time></trkpt><trkpt lat="44.332715028825795" lon="11.995235731452636"><ele>13.0</ele><time>2026-05-02T10:47:41.929Z</time></trkpt><trkpt lat="44.33282925128505" lon="11.99540124924328"><ele>13.0</ele><time>2026-05-02T10:47:42.929Z</time></trkpt><trkpt lat="44.33294013248269" lon="11.995590855902266"><ele>13.0</ele><time>2026-05-02T10:47:43.929Z</time></trkpt><trkpt lat="44.333056773416764" lon="11.99575687120361"><ele>13.333333333333332</ele><time>2026-05-02T10:47:44.929Z</time></trkpt><trkpt lat="44.33317576100761" lon="11.99592049852604"><ele>13.666666666666668</ele><time>2026-05-02T10:47:45.929Z</time></trkpt><trkpt lat="44.33332224475635" lon="11.9960557185833"><ele>14.0</ele><time>2026-05-02T10:47:46.929Z</time></trkpt><trkpt lat="44.33348469629124" lon="11.996168573903155"><ele>14.0</ele><time>2026-05-02T10:47:47.929Z</time></trkpt><trkpt lat="44.33364172804609" lon="11.996270988167758"><ele>14.0</ele><time>2026-05-02T10:47:48.929Z</time></trkpt><trkpt lat="44.33378749871361" lon="11.996371691350122"><ele>14.0</ele><time>2026-05-02T10:47:49.929Z</time></trkpt><trkpt lat="44.33392909730823" lon="11.996478190201058"><ele>14.0</ele><time>2026-05-02T10:47:50.929Z</time></trkpt><trkpt lat="44.3340678646493" lon="11.996580251518756"><ele>14.0</ele><time>2026-05-02T10:47:51.929Z</time></trkpt><trkpt lat="44.33419917348446" lon="11.996666647016175"><ele>14.0</ele><time>2026-05-02T10:47:52.929Z</time></trkpt><trkpt lat="44.33432831843958" lon="11.996754482676147"><ele>14.0</ele><time>2026-05-02T10:47:53.929Z</time></trkpt><trkpt lat="44.33446136714708" lon="11.996836602046256"><ele>13.75</ele><time>2026-05-02T10:47:54.929Z</time></trkpt><trkpt lat="44.334583539245145" lon="11.996902266556262"><ele>13.5</ele><time>2026-05-02T10:47:55.929Z</time></trkpt><trkpt lat="44.33469817638111" lon="11.996955494101345"><ele>13.25</ele><time>2026-05-02T10:47:56.929Z</time></trkpt><trkpt lat="44.33480184850141" lon="11.996995842864495"><ele>13.0</ele><time>2026-05-02T10:47:57.929Z</time></trkpt><trkpt lat="44.33489087974188" lon="11.997029438883809"><ele>12.999999999999998</ele><time>2026-05-02T10:47:58.929Z</time></trkpt><trkpt lat="44.33497292682958" lon="11.997057327530925"><ele>13.0</ele><time>2026-05-02T10:47:59.929Z</time></trkpt><trkpt lat="44.335047135092395" lon="11.997082975118976"><ele>13.0</ele><time>2026-05-02T10:48:00.929Z</time></trkpt><trkpt lat="44.33514345829556" lon="11.997111846306433"><ele>13.0</ele><time>2026-05-02T10:48:02.929Z</time></trkpt><trkpt lat="44.33521683157261" lon="11.997136457627105"><ele>12.999999999999998</ele><time>2026-05-02T10:48:04.929Z</time></trkpt><trkpt lat="44.33531062450544" lon="11.997169472388284"><ele>13.0</ele><time>2026-05-02T10:48:06.929Z</time></trkpt><trkpt lat="44.335372372143894" lon="11.997216512046515"><ele>13.0</ele><time>2026-05-02T10:48:07.929Z</time></trkpt><trkpt lat="44.33545156495541" lon="11.997295878168858"><ele>13.0</ele><time>2026-05-02T10:48:08.929Z</time></trkpt><trkpt lat="44.33554317373082" lon="11.997391375188917"><ele>13.0</ele><time>2026-05-02T10:48:09.929Z</time></trkpt><trkpt lat="44.3356418992865" lon="11.997491074134619"><ele>13.0</ele><time>2026-05-02T10:48:10.929Z</time></trkpt><trkpt lat="44.335750384397166" lon="11.99759138907845"><ele>13.0</ele><time>2026-05-02T10:48:11.929Z</time></trkpt><trkpt lat="44.33587361799291" lon="11.997694022231943"><ele>13.0</ele><time>2026-05-02T10:48:12.929Z</time></trkpt><trkpt lat="44.33600463370614" lon="11.997793611594986"><ele>13.0</ele><time>2026-05-02T10:48:13.929Z</time></trkpt><trkpt lat="44.33613674070097" lon="11.997901482434026"><ele>13.0</ele><time>2026-05-02T10:48:14.929Z</time></trkpt><trkpt lat="44.33626042762444" lon="11.998028887442167"><ele>13.333333333333332</ele><time>2026-05-02T10:48:15.929Z</time></trkpt><trkpt lat="44.336423837222945" lon="11.998143850405906"><ele>13.666666666666668</ele><time>2026-05-02T10:48:16.929Z</time></trkpt><trkpt lat="44.33659903497258" lon="11.998270373816448"><ele>14.0</ele><time>2026-05-02T10:48:17.929Z</time></trkpt><trkpt lat="44.33678303473654" lon="11.998403578792706"><ele>14.5</ele><time>2026-05-02T10:48:18.929Z</time></trkpt><trkpt lat="44.33698226815586" lon="11.998552876425965"><ele>15.0</ele><time>2026-05-02T10:48:19.929Z</time></trkpt><trkpt lat="44.337187224207675" lon="11.998714835300078"><ele>14.0</ele><time>2026-05-02T10:48:20.929Z</time></trkpt><trkpt lat="44.33737788624364" lon="11.99888625645527"><ele>13.0</ele><time>2026-05-02T10:48:21.929Z</time></trkpt><trkpt lat="44.33757688259172" lon="11.999021862270022"><ele>12.0</ele><time>2026-05-02T10:48:22.929Z</time></trkpt><trkpt lat="44.33776769623441" lon="11.999171498107707"><ele>12.0</ele><time>2026-05-02T10:48:23.929Z</time></trkpt><trkpt lat="44.33795437445228" lon="11.999322175432354"><ele>12.0</ele><time>2026-05-02T10:48:24.929Z</time></trkpt><trkpt lat="44.338143834670774" lon="11.999473538765256"><ele>12.0</ele><time>2026-05-02T10:48:25.929Z</time></trkpt><trkpt lat="44.33833185315772" lon="11.999623432445881"><ele>12.0</ele><time>2026-05-02T10:48:26.929Z</time></trkpt><trkpt lat="44.338519857969246" lon="11.999770771244805"><ele>12.0</ele><time>2026-05-02T10:48:27.929Z</time></trkpt><trkpt lat="44.33870088533874" lon="11.99991442598511"><ele>12.0</ele><time>2026-05-02T10:48:28.929Z</time></trkpt><trkpt lat="44.33887795502269" lon="12.000055479475241"><ele>13.0</ele><time>2026-05-02T10:48:29.929Z</time></trkpt><trkpt lat="44.33905582206192" lon="12.000198499975038"><ele>14.0</ele><time>2026-05-02T10:48:30.929Z</time></trkpt><trkpt lat="44.33923392671764" lon="12.000340427795312"><ele>15.0</ele><time>2026-05-02T10:48:31.929Z</time></trkpt><trkpt lat="44.33940966671699" lon="12.000487852188279"><ele>15.0</ele><time>2026-05-02T10:48:32.929Z</time></trkpt><trkpt lat="44.33958698103876" lon="12.000624756730689"><ele>15.0</ele><time>2026-05-02T10:48:33.929Z</time></trkpt><trkpt lat="44.33976807217449" lon="12.000756317288932"><ele>15.0</ele><time>2026-05-02T10:48:34.929Z</time></trkpt><trkpt lat="44.33994590798427" lon="12.000898071293937"><ele>14.666666666666668</ele><time>2026-05-02T10:48:35.929Z</time></trkpt><trkpt lat="44.34012622687919" lon="12.001043142536869"><ele>14.333333333333334</ele><time>2026-05-02T10:48:36.929Z</time></trkpt><trkpt lat="44.3403061380995" lon="12.001179861910902"><ele>14.0</ele><time>2026-05-02T10:48:37.929Z</time></trkpt><trkpt lat="44.34048712213439" lon="12.001324640411429"><ele>14.0</ele><time>2026-05-02T10:48:38.929Z</time></trkpt><trkpt lat="44.34066642092683" lon="12.001466490987307"><ele>14.0</ele><time>2026-05-02T10:48:39.929Z</time></trkpt><trkpt lat="44.34084570120166" lon="12.0016064795061"><ele>14.0</ele><time>2026-05-02T10:48:40.929Z</time></trkpt><trkpt lat="44.34102345378924" lon="12.001747181530082"><ele>14.0</ele><time>2026-05-02T10:48:41.929Z</time></trkpt><trkpt lat="44.34120340896625" lon="12.001885295580482"><ele>14.0</ele><time>2026-05-02T10:48:42.929Z</time></trkpt><trkpt lat="44.341380650882954" lon="12.00202441846723"><ele>14.0</ele><time>2026-05-02T10:48:43.929Z</time></trkpt><trkpt lat="44.341562016017726" lon="12.002163718823091"><ele>14.0</ele><time>2026-05-02T10:48:44.929Z</time></trkpt><trkpt lat="44.3417398214022" lon="12.002307861287523"><ele>14.0</ele><time>2026-05-02T10:48:45.929Z</time></trkpt><trkpt lat="44.34192740496901" lon="12.00244560453193"><ele>14.0</ele><time>2026-05-02T10:48:46.929Z</time></trkpt><trkpt lat="44.342106115582254" lon="12.002583904487098"><ele>13.666666666666668</ele><time>2026-05-02T10:48:47.929Z</time></trkpt><trkpt lat="44.34228457412129" lon="12.002726733715509"><ele>13.333333333333332</ele><time>2026-05-02T10:48:48.929Z</time></trkpt><trkpt lat="44.34246303954528" lon="12.002864988384898"><ele>13.0</ele><time>2026-05-02T10:48:49.929Z</time></trkpt><trkpt lat="44.342639480351316" lon="12.003004572446777"><ele>13.0</ele><time>2026-05-02T10:48:50.929Z</time></trkpt><trkpt lat="44.342816049064766" lon="12.003145087817366"><ele>13.0</ele><time>2026-05-02T10:48:51.929Z</time></trkpt><trkpt lat="44.342991361281456" lon="12.003284531422622"><ele>13.0</ele><time>2026-05-02T10:48:52.929Z</time></trkpt><trkpt lat="44.34316745052471" lon="12.00342324493869"><ele>13.0</ele><time>2026-05-02T10:48:53.929Z</time></trkpt><trkpt lat="44.34334049279235" lon="12.00355735472854"><ele>13.0</ele><time>2026-05-02T10:48:54.929Z</time></trkpt><trkpt lat="44.343515034808085" lon="12.00369415130185"><ele>13.0</ele><time>2026-05-02T10:48:55.929Z</time></trkpt><trkpt lat="44.343693032378006" lon="12.003832552224985"><ele>13.0</ele><time>2026-05-02T10:48:56.929Z</time></trkpt><trkpt lat="44.34387211613884" lon="12.003970412791652"><ele>13.0</ele><time>2026-05-02T10:48:57.929Z</time></trkpt><trkpt lat="44.34405476175823" lon="12.004103385094822"><ele>13.0</ele><time>2026-05-02T10:48:58.929Z</time></trkpt><trkpt lat="44.34424766965468" lon="12.004218847580146"><ele>13.0</ele><time>2026-05-02T10:48:59.929Z</time></trkpt><trkpt lat="44.34445023663758" lon="12.00431533387038"><ele>13.0</ele><time>2026-05-02T10:49:00.929Z</time></trkpt><trkpt lat="44.344653504366825" lon="12.004408619095305"><ele>13.0</ele><time>2026-05-02T10:49:01.929Z</time></trkpt><trkpt lat="44.34486207024615" lon="12.004499152883641"><ele>12.666666666666666</ele><time>2026-05-02T10:49:02.929Z</time></trkpt><trkpt lat="44.345064998367675" lon="12.004591909723226"><ele>12.333333333333332</ele><time>2026-05-02T10:49:03.929Z</time></trkpt><trkpt lat="44.345268570137904" lon="12.004686618833919"><ele>12.0</ele><time>2026-05-02T10:49:04.929Z</time></trkpt><trkpt lat="44.345471326328855" lon="12.00478168912572"><ele>12.0</ele><time>2026-05-02T10:49:05.929Z</time></trkpt><trkpt lat="44.34567320725055" lon="12.004873165964565"><ele>12.0</ele><time>2026-05-02T10:49:06.929Z</time></trkpt><trkpt lat="44.34587634266982" lon="12.004963115336816"><ele>12.0</ele><time>2026-05-02T10:49:07.929Z</time></trkpt><trkpt lat="44.346078367960224" lon="12.00505504742964"><ele>12.0</ele><time>2026-05-02T10:49:08.929Z</time></trkpt><trkpt lat="44.34627824411666" lon="12.005142675270477"><ele>12.0</ele><time>2026-05-02T10:49:09.929Z</time></trkpt><trkpt lat="44.346480013706746" lon="12.005232559570214"><ele>12.0</ele><time>2026-05-02T10:49:10.929Z</time></trkpt><trkpt lat="44.346676383196616" lon="12.005322550181463"><ele>11.666666666666666</ele><time>2026-05-02T10:49:11.929Z</time></trkpt><trkpt lat="44.346864169064105" lon="12.00541220418201"><ele>11.333333333333332</ele><time>2026-05-02T10:49:12.929Z</time></trkpt><trkpt lat="44.34705471708338" lon="12.005502285141212"><ele>11.0</ele><time>2026-05-02T10:49:13.929Z</time></trkpt><trkpt lat="44.34724974047166" lon="12.005595087764895"><ele>11.0</ele><time>2026-05-02T10:49:14.929Z</time></trkpt><trkpt lat="44.3474423333946" lon="12.005687812024362"><ele>11.0</ele><time>2026-05-02T10:49:15.929Z</time></trkpt><trkpt lat="44.34763582583107" lon="12.005781042845307"><ele>11.0</ele><time>2026-05-02T10:49:16.929Z</time></trkpt><trkpt lat="44.34782638390235" lon="12.005877756934922"><ele>11.0</ele><time>2026-05-02T10:49:17.929Z</time></trkpt><trkpt lat="44.34801824492265" lon="12.005972637263211"><ele>11.0</ele><time>2026-05-02T10:49:18.929Z</time></trkpt><trkpt lat="44.348206105524156" lon="12.00606686072015"><ele>11.0</ele><time>2026-05-02T10:49:19.929Z</time></trkpt><trkpt lat="44.34839541985524" lon="12.006161154260711"><ele>11.0</ele><time>2026-05-02T10:49:20.929Z</time></trkpt><trkpt lat="44.34858495385395" lon="12.006255593964061"><ele>11.0</ele><time>2026-05-02T10:49:21.929Z</time></trkpt><trkpt lat="44.34877662243004" lon="12.006348675931099"><ele>11.0</ele><time>2026-05-02T10:49:22.929Z</time></trkpt><trkpt lat="44.34896174312349" lon="12.00643643506027"><ele>11.0</ele><time>2026-05-02T10:49:23.929Z</time></trkpt><trkpt lat="44.349138432658805" lon="12.006520381924252"><ele>11.0</ele><time>2026-05-02T10:49:24.929Z</time></trkpt><trkpt lat="44.34931781806696" lon="12.006603413758162"><ele>11.0</ele><time>2026-05-02T10:49:25.929Z</time></trkpt><trkpt lat="44.349497878950245" lon="12.006687459846487"><ele>11.0</ele><time>2026-05-02T10:49:26.929Z</time></trkpt><trkpt lat="44.34968114547111" lon="12.006775692734864"><ele>11.0</ele><time>2026-05-02T10:49:27.929Z</time></trkpt><trkpt lat="44.349859769251125" lon="12.00687116236331"><ele>11.0</ele><time>2026-05-02T10:49:28.929Z</time></trkpt><trkpt lat="44.35003826582383" lon="12.006974146302166"><ele>11.0</ele><time>2026-05-02T10:49:29.929Z</time></trkpt><trkpt lat="44.35021543573397" lon="12.007080686797753"><ele>11.0</ele><time>2026-05-02T10:49:30.929Z</time></trkpt><trkpt lat="44.35039210450347" lon="12.007189491927544"><ele>11.0</ele><time>2026-05-02T10:49:31.929Z</time></trkpt><trkpt lat="44.35057193612147" lon="12.0072927650216"><ele>11.333333333333332</ele><time>2026-05-02T10:49:32.929Z</time></trkpt><trkpt lat="44.35075002428298" lon="12.007398195968259"><ele>11.666666666666666</ele><time>2026-05-02T10:49:33.929Z</time></trkpt><trkpt lat="44.35092638309423" lon="12.007506332174037"><ele>12.0</ele><time>2026-05-02T10:49:34.929Z</time></trkpt><trkpt lat="44.351100500086204" lon="12.007616567553711"><ele>12.0</ele><time>2026-05-02T10:49:35.929Z</time></trkpt><trkpt lat="44.35127479172" lon="12.007725370831135"><ele>12.0</ele><time>2026-05-02T10:49:36.929Z</time></trkpt><trkpt lat="44.351452348762656" lon="12.007831740613277"><ele>12.0</ele><time>2026-05-02T10:49:37.929Z</time></trkpt><trkpt lat="44.351632288898486" lon="12.007940478978865"><ele>12.0</ele><time>2026-05-02T10:49:38.929Z</time></trkpt><trkpt lat="44.35181105977949" lon="12.00805360677031"><ele>12.0</ele><time>2026-05-02T10:49:39.929Z</time></trkpt><trkpt lat="44.351987782098135" lon="12.008167169138966"><ele>12.0</ele><time>2026-05-02T10:49:40.929Z</time></trkpt><trkpt lat="44.35216565342886" lon="12.008279304973414"><ele>11.333333333333334</ele><time>2026-05-02T10:49:41.929Z</time></trkpt><trkpt lat="44.35234321754344" lon="12.008389288731891"><ele>10.666666666666668</ele><time>2026-05-02T10:49:42.929Z</time></trkpt><trkpt lat="44.352520923037204" lon="12.008499928724994"><ele>10.0</ele><time>2026-05-02T10:49:43.927Z</time></trkpt><trkpt lat="44.35269852267767" lon="12.008614811849297"><ele>10.0</ele><time>2026-05-02T10:49:44.926Z</time></trkpt><trkpt lat="44.352875805524796" lon="12.00872909427638"><ele>10.0</ele><time>2026-05-02T10:49:45.926Z</time></trkpt><trkpt lat="44.35306018282808" lon="12.008847802018002"><ele>10.0</ele><time>2026-05-02T10:49:46.927Z</time></trkpt><trkpt lat="44.35324516383874" lon="12.008974300756615"><ele>10.666666666666668</ele><time>2026-05-02T10:49:47.926Z</time></trkpt><trkpt lat="44.35342993884264" lon="12.009100813822423"><ele>11.333333333333334</ele><time>2026-05-02T10:49:48.926Z</time></trkpt><trkpt lat="44.35361564088155" lon="12.009227849370932"><ele>12.0</ele><time>2026-05-02T10:49:49.926Z</time></trkpt><trkpt lat="44.353799399079904" lon="12.009353921912696"><ele>12.0</ele><time>2026-05-02T10:49:50.927Z</time></trkpt><trkpt lat="44.3539896025778" lon="12.009478634682713"><ele>12.0</ele><time>2026-05-02T10:49:51.927Z</time></trkpt><trkpt lat="44.354177578143045" lon="12.009595508393865"><ele>12.0</ele><time>2026-05-02T10:49:52.927Z</time></trkpt><trkpt lat="44.354369285571074" lon="12.009713518783654"><ele>12.0</ele><time>2026-05-02T10:49:53.926Z</time></trkpt><trkpt lat="44.354559509797" lon="12.00982796534375"><ele>12.0</ele><time>2026-05-02T10:49:54.926Z</time></trkpt><trkpt lat="44.354740040965204" lon="12.00993727879062"><ele>12.0</ele><time>2026-05-02T10:49:55.927Z</time></trkpt><trkpt lat="44.35491581574805" lon="12.010044525635879"><ele>11.333333333333334</ele><time>2026-05-02T10:49:56.926Z</time></trkpt><trkpt lat="44.35509038571014" lon="12.010154304213575"><ele>10.666666666666668</ele><time>2026-05-02T10:49:57.926Z</time></trkpt><trkpt lat="44.3552683213676" lon="12.0102631128326"><ele>10.0</ele><time>2026-05-02T10:49:58.926Z</time></trkpt><trkpt lat="44.35545025727914" lon="12.010370264188689"><ele>9.666666666666668</ele><time>2026-05-02T10:49:59.926Z</time></trkpt><trkpt lat="44.35563297542988" lon="12.010481386923814"><ele>9.333333333333334</ele><time>2026-05-02T10:50:00.926Z</time></trkpt><trkpt lat="44.35581739988723" lon="12.010593440024492"><ele>9.0</ele><time>2026-05-02T10:50:01.926Z</time></trkpt><trkpt lat="44.35600631603266" lon="12.010705574286485"><ele>9.0</ele><time>2026-05-02T10:50:02.926Z</time></trkpt><trkpt lat="44.35620076974498" lon="12.010819466453222"><ele>9.0</ele><time>2026-05-02T10:50:03.926Z</time></trkpt><trkpt lat="44.35639356937289" lon="12.010935314728254"><ele>9.0</ele><time>2026-05-02T10:50:04.926Z</time></trkpt><trkpt lat="44.35658526811839" lon="12.011052781266631"><ele>9.333333333333334</ele><time>2026-05-02T10:50:05.926Z</time></trkpt><trkpt lat="44.35677891628253" lon="12.011172098385638"><ele>9.666666666666668</ele><time>2026-05-02T10:50:06.926Z</time></trkpt><trkpt lat="44.356972563311395" lon="12.011295215763436"><ele>10.0</ele><time>2026-05-02T10:50:07.926Z</time></trkpt><trkpt lat="44.35716709850603" lon="12.01141779284972"><ele>10.333333333333334</ele><time>2026-05-02T10:50:08.926Z</time></trkpt><trkpt lat="44.35735861194949" lon="12.01153825332373"><ele>10.666666666666666</ele><time>2026-05-02T10:50:09.926Z</time></trkpt><trkpt lat="44.35755122268499" lon="12.011657306831134"><ele>11.0</ele><time>2026-05-02T10:50:10.926Z</time></trkpt><trkpt lat="44.357738813150625" lon="12.011773303382501"><ele>10.666666666666666</ele><time>2026-05-02T10:50:11.926Z</time></trkpt><trkpt lat="44.35792632743314" lon="12.011890003313837"><ele>10.333333333333334</ele><time>2026-05-02T10:50:12.926Z</time></trkpt><trkpt lat="44.35811047363061" lon="12.012011138493461"><ele>10.0</ele><time>2026-05-02T10:50:13.926Z</time></trkpt><trkpt lat="44.358288731175854" lon="12.01214636428871"><ele>10.0</ele><time>2026-05-02T10:50:14.926Z</time></trkpt><trkpt lat="44.35847059273492" lon="12.012284753405805"><ele>10.0</ele><time>2026-05-02T10:50:15.926Z</time></trkpt><trkpt lat="44.35865485758417" lon="12.012430046320578"><ele>10.0</ele><time>2026-05-02T10:50:16.926Z</time></trkpt><trkpt lat="44.35883388331432" lon="12.012580032447774"><ele>10.0</ele><time>2026-05-02T10:50:17.926Z</time></trkpt><trkpt lat="44.35900949986725" lon="12.012731559244664"><ele>10.0</ele><time>2026-05-02T10:50:18.926Z</time></trkpt><trkpt lat="44.35918241716783" lon="12.01287688864262"><ele>10.0</ele><time>2026-05-02T10:50:19.926Z</time></trkpt><trkpt lat="44.35935387672846" lon="12.013017298746181"><ele>10.0</ele><time>2026-05-02T10:50:20.926Z</time></trkpt><trkpt lat="44.359525057409364" lon="12.013160846394381"><ele>10.0</ele><time>2026-05-02T10:50:21.926Z</time></trkpt><trkpt lat="44.359688518092426" lon="12.013300145442624"><ele>10.0</ele><time>2026-05-02T10:50:22.926Z</time></trkpt><trkpt lat="44.3598509979916" lon="12.013442010897025"><ele>10.333333333333334</ele><time>2026-05-02T10:50:23.926Z</time></trkpt><trkpt lat="44.36001864748121" lon="12.013583392581472"><ele>10.666666666666666</ele><time>2026-05-02T10:50:24.926Z</time></trkpt><trkpt lat="44.36018969389063" lon="12.013726629519455"><ele>11.0</ele><time>2026-05-02T10:50:25.926Z</time></trkpt><trkpt lat="44.36036032369946" lon="12.013868942157309"><ele>11.0</ele><time>2026-05-02T10:50:26.926Z</time></trkpt><trkpt lat="44.36053057833811" lon="12.01401075081106"><ele>11.0</ele><time>2026-05-02T10:50:27.926Z</time></trkpt><trkpt lat="44.3607013697773" lon="12.014157237894514"><ele>11.0</ele><time>2026-05-02T10:50:28.926Z</time></trkpt><trkpt lat="44.36087525240729" lon="12.014293741262817"><ele>11.0</ele><time>2026-05-02T10:50:29.926Z</time></trkpt><trkpt lat="44.36104521786216" lon="12.014446966180008"><ele>11.0</ele><time>2026-05-02T10:50:30.926Z</time></trkpt><trkpt lat="44.36122322372719" lon="12.01459854229194"><ele>11.0</ele><time>2026-05-02T10:50:31.926Z</time></trkpt><trkpt lat="44.361400655835524" lon="12.014750748634023"><ele>10.666666666666666</ele><time>2026-05-02T10:50:32.926Z</time></trkpt><trkpt lat="44.36157773781284" lon="12.014904131437103"><ele>10.333333333333334</ele><time>2026-05-02T10:50:33.926Z</time></trkpt><trkpt lat="44.36175463061503" lon="12.01505774645664"><ele>10.0</ele><time>2026-05-02T10:50:34.926Z</time></trkpt><trkpt lat="44.361929807390624" lon="12.015205409113198"><ele>10.0</ele><time>2026-05-02T10:50:35.926Z</time></trkpt><trkpt lat="44.3620991974284" lon="12.015351947060674"><ele>10.0</ele><time>2026-05-02T10:50:36.926Z</time></trkpt><trkpt lat="44.3622687118299" lon="12.015500366454877"><ele>10.0</ele><time>2026-05-02T10:50:37.926Z</time></trkpt><trkpt lat="44.36244030178044" lon="12.015653403037483"><ele>10.666666666666668</ele><time>2026-05-02T10:50:38.926Z</time></trkpt><trkpt lat="44.36260977657323" lon="12.015809830055"><ele>11.333333333333334</ele><time>2026-05-02T10:50:39.926Z</time></trkpt><trkpt lat="44.36277475806546" lon="12.015977085890627"><ele>12.0</ele><time>2026-05-02T10:50:40.926Z</time></trkpt><trkpt lat="44.362932889069576" lon="12.016167303255543"><ele>12.0</ele><time>2026-05-02T10:50:41.926Z</time></trkpt><trkpt lat="44.36308247125931" lon="12.01638064836989"><ele>12.0</ele><time>2026-05-02T10:50:42.926Z</time></trkpt><trkpt lat="44.363220218615204" lon="12.016616896840587"><ele>12.0</ele><time>2026-05-02T10:50:43.926Z</time></trkpt><trkpt lat="44.36335784652026" lon="12.016859132557748"><ele>12.0</ele><time>2026-05-02T10:50:44.926Z</time></trkpt><trkpt lat="44.36348845865517" lon="12.017096585837836"><ele>12.0</ele><time>2026-05-02T10:50:45.926Z</time></trkpt><trkpt lat="44.36361319901822" lon="12.017324264337987"><ele>12.0</ele><time>2026-05-02T10:50:46.926Z</time></trkpt><trkpt lat="44.363734028707384" lon="12.01755038646746"><ele>11.666666666666666</ele><time>2026-05-02T10:50:47.926Z</time></trkpt><trkpt lat="44.363859448840294" lon="12.01776625319525"><ele>11.333333333333332</ele><time>2026-05-02T10:50:48.926Z</time></trkpt><trkpt lat="44.36398545660902" lon="12.017983673297822"><ele>11.0</ele><time>2026-05-02T10:50:49.926Z</time></trkpt><trkpt lat="44.36410853385893" lon="12.018201648404123"><ele>11.0</ele><time>2026-05-02T10:50:50.926Z</time></trkpt><trkpt lat="44.3642339002149" lon="12.01841972048786"><ele>11.0</ele><time>2026-05-02T10:50:51.926Z</time></trkpt><trkpt lat="44.36435518503256" lon="12.018634187421155"><ele>11.0</ele><time>2026-05-02T10:50:52.926Z</time></trkpt><trkpt lat="44.36447517581243" lon="12.018843542564843"><ele>11.0</ele><time>2026-05-02T10:50:53.926Z</time></trkpt><trkpt lat="44.364592709111186" lon="12.019049135550214"><ele>11.0</ele><time>2026-05-02T10:50:54.926Z</time></trkpt><trkpt lat="44.36469908134254" lon="12.019252715481755"><ele>11.0</ele><time>2026-05-02T10:50:55.926Z</time></trkpt><trkpt lat="44.36479924512377" lon="12.019442013724975"><ele>11.0</ele><time>2026-05-02T10:50:56.926Z</time></trkpt><trkpt lat="44.364905574511944" lon="12.01961991239047"><ele>11.0</ele><time>2026-05-02T10:50:57.926Z</time></trkpt><trkpt lat="44.36500193345689" lon="12.019793202116482"><ele>11.0</ele><time>2026-05-02T10:50:58.926Z</time></trkpt><trkpt lat="44.36509717459122" lon="12.019955934983612"><ele>11.0</ele><time>2026-05-02T10:50:59.926Z</time></trkpt><trkpt lat="44.365188048066884" lon="12.02011001254402"><ele>11.0</ele><time>2026-05-02T10:51:00.926Z</time></trkpt><trkpt lat="44.36527406140165" lon="12.020258368662772"><ele>11.0</ele><time>2026-05-02T10:51:01.926Z</time></trkpt><trkpt lat="44.36535755984761" lon="12.020406703249611"><ele>11.0</ele><time>2026-05-02T10:51:02.926Z</time></trkpt><trkpt lat="44.365448200430684" lon="12.020559829301114"><ele>11.0</ele><time>2026-05-02T10:51:03.926Z</time></trkpt><trkpt lat="44.365537596539205" lon="12.020715928465096"><ele>11.0</ele><time>2026-05-02T10:51:04.926Z</time></trkpt><trkpt lat="44.365634442448396" lon="12.020879727879576"><ele>11.0</ele><time>2026-05-02T10:51:05.926Z</time></trkpt><trkpt lat="44.36573262068077" lon="12.02105028314294"><ele>11.0</ele><time>2026-05-02T10:51:06.926Z</time></trkpt><trkpt lat="44.36583531062446" lon="12.021225609863972"><ele>11.0</ele><time>2026-05-02T10:51:07.926Z</time></trkpt><trkpt lat="44.365937352078404" lon="12.021405022736454"><ele>11.0</ele><time>2026-05-02T10:51:08.926Z</time></trkpt><trkpt lat="44.366038313042864" lon="12.021587753286838"><ele>10.666666666666666</ele><time>2026-05-02T10:51:09.926Z</time></trkpt><trkpt lat="44.366137790962874" lon="12.021766780417323"><ele>10.333333333333334</ele><time>2026-05-02T10:51:10.926Z</time></trkpt><trkpt lat="44.366234697227796" lon="12.021945025620088"><ele>10.0</ele><time>2026-05-02T10:51:11.926Z</time></trkpt><trkpt lat="44.3663353225292" lon="12.02212235889563"><ele>10.666666666666668</ele><time>2026-05-02T10:51:12.926Z</time></trkpt><trkpt lat="44.366437495043456" lon="12.022295325167438"><ele>11.333333333333334</ele><time>2026-05-02T10:51:13.926Z</time></trkpt><trkpt lat="44.3665396129994" lon="12.022469545342345"><ele>12.0</ele><time>2026-05-02T10:51:14.926Z</time></trkpt><trkpt lat="44.36664362182196" lon="12.022639246080864"><ele>12.0</ele><time>2026-05-02T10:51:15.926Z</time></trkpt><trkpt lat="44.36674416927319" lon="12.022814693457573"><ele>12.0</ele><time>2026-05-02T10:51:16.926Z</time></trkpt><trkpt lat="44.366844106023414" lon="12.022989567516765"><ele>12.0</ele><time>2026-05-02T10:51:17.926Z</time></trkpt><trkpt lat="44.36694201051317" lon="12.023160605592453"><ele>11.0</ele><time>2026-05-02T10:51:18.926Z</time></trkpt><trkpt lat="44.36703489293074" lon="12.023320580620583"><ele>10.0</ele><time>2026-05-02T10:51:19.926Z</time></trkpt><trkpt lat="44.36712259665769" lon="12.02346731657225"><ele>9.0</ele><time>2026-05-02T10:51:20.926Z</time></trkpt><trkpt lat="44.36719497640535" lon="12.023594030847066"><ele>8.0</ele><time>2026-05-02T10:51:21.926Z</time></trkpt><trkpt lat="44.36725738597929" lon="12.023715244622409"><ele>8.0</ele><time>2026-05-02T10:51:22.926Z</time></trkpt><trkpt lat="44.36729272063358" lon="12.02385069898544"><ele>8.0</ele><time>2026-05-02T10:51:23.926Z</time></trkpt><trkpt lat="44.36730650507215" lon="12.023986004196123"><ele>8.0</ele><time>2026-05-02T10:51:24.926Z</time></trkpt><trkpt lat="44.367337991673104" lon="12.024099599372214"><ele>8.0</ele><time>2026-05-02T10:51:25.926Z</time></trkpt><trkpt lat="44.36741468580696" lon="12.024180364171366"><ele>8.0</ele><time>2026-05-02T10:51:26.926Z</time></trkpt><trkpt lat="44.36752507025391" lon="12.024228788988701"><ele>8.0</ele><time>2026-05-02T10:51:27.926Z</time></trkpt><trkpt lat="44.36762667489214" lon="12.024309809109518"><ele>8.0</ele><time>2026-05-02T10:51:28.926Z</time></trkpt><trkpt lat="44.36771514430364" lon="12.024462354880148"><ele>8.0</ele><time>2026-05-02T10:51:29.926Z</time></trkpt><trkpt lat="44.367799112817764" lon="12.024642073337041"><ele>8.0</ele><time>2026-05-02T10:51:30.926Z</time></trkpt><trkpt lat="44.367887756448845" lon="12.02482140121732"><ele>8.333333333333332</ele><time>2026-05-02T10:51:31.926Z</time></trkpt><trkpt lat="44.3679841564821" lon="12.024998760720427"><ele>8.666666666666666</ele><time>2026-05-02T10:51:32.926Z</time></trkpt><trkpt lat="44.36808568928901" lon="12.025179371713257"><ele>9.0</ele><time>2026-05-02T10:51:33.926Z</time></trkpt><trkpt lat="44.368186315009254" lon="12.025354583999706"><ele>9.25</ele><time>2026-05-02T10:51:34.926Z</time></trkpt><trkpt lat="44.368280672807266" lon="12.02552410075682"><ele>9.5</ele><time>2026-05-02T10:51:35.926Z</time></trkpt><trkpt lat="44.368387520484085" lon="12.025682985747856"><ele>9.75</ele><time>2026-05-02T10:51:36.926Z</time></trkpt><trkpt lat="44.3684631895159" lon="12.025847629206808"><ele>10.0</ele><time>2026-05-02T10:51:37.926Z</time></trkpt><trkpt lat="44.368559685116274" lon="12.025995407757183"><ele>10.0</ele><time>2026-05-02T10:51:38.926Z</time></trkpt><trkpt lat="44.36865106825847" lon="12.026143940627469"><ele>10.0</ele><time>2026-05-02T10:51:39.926Z</time></trkpt><trkpt lat="44.368740538286524" lon="12.026295409174786"><ele>10.0</ele><time>2026-05-02T10:51:40.926Z</time></trkpt><trkpt lat="44.36882191496145" lon="12.026450084268545"><ele>10.0</ele><time>2026-05-02T10:51:41.926Z</time></trkpt><trkpt lat="44.36890695347794" lon="12.026600322468209"><ele>10.0</ele><time>2026-05-02T10:51:42.926Z</time></trkpt><trkpt lat="44.36899204911285" lon="12.026760250634235"><ele>10.0</ele><time>2026-05-02T10:51:43.926Z</time></trkpt><trkpt lat="44.36907935901584" lon="12.026917040013206"><ele>10.0</ele><time>2026-05-02T10:51:44.926Z</time></trkpt><trkpt lat="44.36916546260478" lon="12.027070223534096"><ele>10.0</ele><time>2026-05-02T10:51:45.926Z</time></trkpt><trkpt lat="44.36925151948173" lon="12.027219927679417"><ele>10.0</ele><time>2026-05-02T10:51:46.926Z</time></trkpt><trkpt lat="44.36933545258445" lon="12.027361192844795"><ele>10.0</ele><time>2026-05-02T10:51:47.926Z</time></trkpt><trkpt lat="44.36941732141329" lon="12.027498889954781"><ele>10.0</ele><time>2026-05-02T10:51:48.926Z</time></trkpt><trkpt lat="44.369502127660844" lon="12.027635193681466"><ele>10.0</ele><time>2026-05-02T10:51:49.925Z</time></trkpt><trkpt lat="44.3695867845587" lon="12.027778565018128"><ele>10.0</ele><time>2026-05-02T10:51:50.924Z</time></trkpt><trkpt lat="44.369672091207434" lon="12.027920687037817"><ele>10.0</ele><time>2026-05-02T10:51:51.924Z</time></trkpt><trkpt lat="44.36975872815527" lon="12.028065044130496"><ele>10.0</ele><time>2026-05-02T10:51:52.924Z</time></trkpt><trkpt lat="44.3698420445015" lon="12.028210505952407"><ele>10.0</ele><time>2026-05-02T10:51:53.924Z</time></trkpt><trkpt lat="44.36992775257657" lon="12.028351172892368"><ele>10.0</ele><time>2026-05-02T10:51:54.924Z</time></trkpt><trkpt lat="44.36999313337298" lon="12.028513777520537"><ele>10.0</ele><time>2026-05-02T10:51:55.924Z</time></trkpt><trkpt lat="44.37007183832242" lon="12.028651588871728"><ele>10.0</ele><time>2026-05-02T10:51:56.925Z</time></trkpt><trkpt lat="44.37015445780135" lon="12.028796254592224"><ele>10.0</ele><time>2026-05-02T10:51:57.925Z</time></trkpt><trkpt lat="44.370239354468566" lon="12.028944907595111"><ele>10.0</ele><time>2026-05-02T10:51:58.924Z</time></trkpt><trkpt lat="44.370335731362566" lon="12.029076016474484"><ele>10.0</ele><time>2026-05-02T10:51:59.924Z</time></trkpt><trkpt lat="44.3704045693616" lon="12.029223132134476"><ele>10.0</ele><time>2026-05-02T10:52:00.924Z</time></trkpt><trkpt lat="44.37048911873967" lon="12.029361871901308"><ele>10.0</ele><time>2026-05-02T10:52:01.924Z</time></trkpt><trkpt lat="44.37056916714301" lon="12.029506098452655"><ele>10.0</ele><time>2026-05-02T10:52:02.924Z</time></trkpt><trkpt lat="44.37065358204106" lon="12.029650856324537"><ele>10.0</ele><time>2026-05-02T10:52:03.924Z</time></trkpt><trkpt lat="44.370735166676596" lon="12.029795625368239"><ele>10.0</ele><time>2026-05-02T10:52:04.924Z</time></trkpt><trkpt lat="44.370815418389206" lon="12.029940514062568"><ele>10.0</ele><time>2026-05-02T10:52:05.924Z</time></trkpt><trkpt lat="44.370902438724634" lon="12.030089251409084"><ele>10.0</ele><time>2026-05-02T10:52:06.924Z</time></trkpt><trkpt lat="44.370993294315475" lon="12.030248878603793"><ele>10.0</ele><time>2026-05-02T10:52:07.924Z</time></trkpt><trkpt lat="44.371086430239096" lon="12.030403641945846"><ele>10.0</ele><time>2026-05-02T10:52:08.924Z</time></trkpt><trkpt lat="44.37118218865194" lon="12.03055320311794"><ele>10.0</ele><time>2026-05-02T10:52:09.924Z</time></trkpt><trkpt lat="44.37127748389955" lon="12.030695451828974"><ele>10.5</ele><time>2026-05-02T10:52:10.924Z</time></trkpt><trkpt lat="44.37136624480426" lon="12.030827480667106"><ele>11.0</ele><time>2026-05-02T10:52:11.924Z</time></trkpt><trkpt lat="44.37145093742358" lon="12.030951861084787"><ele>11.5</ele><time>2026-05-02T10:52:12.924Z</time></trkpt><trkpt lat="44.371532955904655" lon="12.031060395751142"><ele>12.0</ele><time>2026-05-02T10:52:13.924Z</time></trkpt><trkpt lat="44.37161394300265" lon="12.0311581738576"><ele>12.0</ele><time>2026-05-02T10:52:14.924Z</time></trkpt><trkpt lat="44.37165521171319" lon="12.031263660796617"><ele>12.0</ele><time>2026-05-02T10:52:15.924Z</time></trkpt><trkpt lat="44.37170861485926" lon="12.031331010570122"><ele>12.0</ele><time>2026-05-02T10:52:16.924Z</time></trkpt><trkpt lat="44.37183709353052" lon="12.031356927270757"><ele>12.0</ele><time>2026-05-02T10:52:18.924Z</time></trkpt><trkpt lat="44.37192991159759" lon="12.031298818226723"><ele>12.0</ele><time>2026-05-02T10:52:19.924Z</time></trkpt><trkpt lat="44.37202389992307" lon="12.031210057247831"><ele>12.0</ele><time>2026-05-02T10:52:20.924Z</time></trkpt><trkpt lat="44.37209467066089" lon="12.031110566798723"><ele>12.0</ele><time>2026-05-02T10:52:21.924Z</time></trkpt><trkpt lat="44.37215814314656" lon="12.031017234581471"><ele>12.0</ele><time>2026-05-02T10:52:22.924Z</time></trkpt><trkpt lat="44.37224636830468" lon="12.031034211285725"><ele>12.0</ele><time>2026-05-02T10:52:23.924Z</time></trkpt><trkpt lat="44.37232060688923" lon="12.031053758471367"><ele>12.0</ele><time>2026-05-02T10:52:24.924Z</time></trkpt><trkpt lat="44.37237185047543" lon="12.031133847916022"><ele>12.0</ele><time>2026-05-02T10:52:25.924Z</time></trkpt><trkpt lat="44.37247087853529" lon="12.031206474908325"><ele>12.0</ele><time>2026-05-02T10:52:27.924Z</time></trkpt><trkpt lat="44.37258389638452" lon="12.031281409194927"><ele>12.0</ele><time>2026-05-02T10:52:29.924Z</time></trkpt><trkpt lat="44.3726618824" lon="12.03133673003368"><ele>12.0</ele><time>2026-05-02T10:52:30.924Z</time></trkpt><trkpt lat="44.37276807515573" lon="12.031386949126226"><ele>12.0</ele><time>2026-05-02T10:52:31.924Z</time></trkpt><trkpt lat="44.37285935421831" lon="12.031453487609879"><ele>12.0</ele><time>2026-05-02T10:52:32.924Z</time></trkpt><trkpt lat="44.37295748149478" lon="12.03151306284945"><ele>12.0</ele><time>2026-05-02T10:52:33.924Z</time></trkpt><trkpt lat="44.37306172080898" lon="12.03158181851166"><ele>12.0</ele><time>2026-05-02T10:52:34.924Z</time></trkpt><trkpt lat="44.37317299876772" lon="12.031654747695024"><ele>12.0</ele><time>2026-05-02T10:52:35.924Z</time></trkpt><trkpt lat="44.37330032333246" lon="12.031709405774375"><ele>12.0</ele><time>2026-05-02T10:52:36.924Z</time></trkpt><trkpt lat="44.37343510842334" lon="12.03176907326421"><ele>12.0</ele><time>2026-05-02T10:52:37.924Z</time></trkpt><trkpt lat="44.373562058851974" lon="12.031824129499121"><ele>12.0</ele><time>2026-05-02T10:52:38.924Z</time></trkpt><trkpt lat="44.37369254032663" lon="12.031877226215979"><ele>12.0</ele><time>2026-05-02T10:52:39.924Z</time></trkpt><trkpt lat="44.37382099560612" lon="12.031930507580112"><ele>12.0</ele><time>2026-05-02T10:52:40.924Z</time></trkpt><trkpt lat="44.37395541982211" lon="12.031981648045727"><ele>12.25</ele><time>2026-05-02T10:52:41.924Z</time></trkpt><trkpt lat="44.37409008465694" lon="12.032045674243854"><ele>12.5</ele><time>2026-05-02T10:52:42.924Z</time></trkpt><trkpt lat="44.3742169925076" lon="12.032096528353609"><ele>12.75</ele><time>2026-05-02T10:52:43.924Z</time></trkpt><trkpt lat="44.374343820535145" lon="12.032153781786779"><ele>13.0</ele><time>2026-05-02T10:52:44.924Z</time></trkpt><trkpt lat="44.37446491249689" lon="12.03220532347268"><ele>13.0</ele><time>2026-05-02T10:52:45.924Z</time></trkpt><trkpt lat="44.37458394213957" lon="12.032251205424455"><ele>13.0</ele><time>2026-05-02T10:52:46.924Z</time></trkpt><trkpt lat="44.37469978914978" lon="12.03230416514894"><ele>13.0</ele><time>2026-05-02T10:52:47.924Z</time></trkpt><trkpt lat="44.37481268480467" lon="12.032348822567581"><ele>13.0</ele><time>2026-05-02T10:52:48.924Z</time></trkpt><trkpt lat="44.37491528883681" lon="12.03239541986684"><ele>13.0</ele><time>2026-05-02T10:52:49.924Z</time></trkpt><trkpt lat="44.375006084980065" lon="12.032438321947607"><ele>13.0</ele><time>2026-05-02T10:52:50.924Z</time></trkpt><trkpt lat="44.3750834268546" lon="12.032471855315952"><ele>13.0</ele><time>2026-05-02T10:52:51.924Z</time></trkpt><trkpt lat="44.37519048083471" lon="12.032515024181336"><ele>13.0</ele><time>2026-05-02T10:52:53.924Z</time></trkpt><trkpt lat="44.37530614290245" lon="12.032551877214734"><ele>13.0</ele><time>2026-05-02T10:52:55.924Z</time></trkpt><trkpt lat="44.375378240435715" lon="12.032569230690717"><ele>13.0</ele><time>2026-05-02T10:52:56.924Z</time></trkpt><trkpt lat="44.375462279982045" lon="12.032596930081525"><ele>13.0</ele><time>2026-05-02T10:52:57.924Z</time></trkpt><trkpt lat="44.37555749028998" lon="12.032626778032716"><ele>13.0</ele><time>2026-05-02T10:52:58.924Z</time></trkpt><trkpt lat="44.37566424359591" lon="12.032671413014237"><ele>13.0</ele><time>2026-05-02T10:52:59.924Z</time></trkpt><trkpt lat="44.37575911300779" lon="12.032747267498369"><ele>13.0</ele><time>2026-05-02T10:53:00.924Z</time></trkpt><trkpt lat="44.37587898221244" lon="12.032794927364003"><ele>12.5</ele><time>2026-05-02T10:53:01.924Z</time></trkpt><trkpt lat="44.375998845069844" lon="12.032838534164105"><ele>12.0</ele><time>2026-05-02T10:53:02.924Z</time></trkpt><trkpt lat="44.37612778500312" lon="12.03289549586409"><ele>11.5</ele><time>2026-05-02T10:53:03.924Z</time></trkpt><trkpt lat="44.37624405887165" lon="12.03294512503153"><ele>11.0</ele><time>2026-05-02T10:53:04.924Z</time></trkpt><trkpt lat="44.376356396863684" lon="12.032996002666673"><ele>11.0</ele><time>2026-05-02T10:53:05.924Z</time></trkpt><trkpt lat="44.37647340234948" lon="12.033042536189445"><ele>11.0</ele><time>2026-05-02T10:53:06.924Z</time></trkpt><trkpt lat="44.376594642245195" lon="12.033096000473765"><ele>11.0</ele><time>2026-05-02T10:53:07.923Z</time></trkpt><trkpt lat="44.37673042078239" lon="12.033148418013177"><ele>11.0</ele><time>2026-05-02T10:53:08.923Z</time></trkpt><trkpt lat="44.3768710939685" lon="12.033194390850083"><ele>11.0</ele><time>2026-05-02T10:53:09.923Z</time></trkpt><trkpt lat="44.377012464076806" lon="12.033250994868528"><ele>11.0</ele><time>2026-05-02T10:53:10.923Z</time></trkpt><trkpt lat="44.37715206093761" lon="12.03330228408194"><ele>11.0</ele><time>2026-05-02T10:53:11.923Z</time></trkpt><trkpt lat="44.37729187079158" lon="12.033356866380906"><ele>11.0</ele><time>2026-05-02T10:53:12.923Z</time></trkpt><trkpt lat="44.37742971712876" lon="12.033417281571271"><ele>11.0</ele><time>2026-05-02T10:53:13.923Z</time></trkpt><trkpt lat="44.37755707969167" lon="12.03347483686662"><ele>11.0</ele><time>2026-05-02T10:53:14.923Z</time></trkpt><trkpt lat="44.37768558056214" lon="12.033527358930172"><ele>11.0</ele><time>2026-05-02T10:53:15.923Z</time></trkpt><trkpt lat="44.37781635066579" lon="12.0335897747463"><ele>11.0</ele><time>2026-05-02T10:53:16.923Z</time></trkpt><trkpt lat="44.377953172078" lon="12.033648446580166"><ele>11.333333333333332</ele><time>2026-05-02T10:53:17.923Z</time></trkpt><trkpt lat="44.37810128879622" lon="12.033701654076728"><ele>11.666666666666666</ele><time>2026-05-02T10:53:18.923Z</time></trkpt><trkpt lat="44.37825183499688" lon="12.033755241554747"><ele>12.0</ele><time>2026-05-02T10:53:19.923Z</time></trkpt><trkpt lat="44.37840879678498" lon="12.03381668588614"><ele>12.0</ele><time>2026-05-02T10:53:20.923Z</time></trkpt><trkpt lat="44.37856591725137" lon="12.033870121370986"><ele>12.0</ele><time>2026-05-02T10:53:21.923Z</time></trkpt><trkpt lat="44.378719930794034" lon="12.033923723555304"><ele>12.0</ele><time>2026-05-02T10:53:22.923Z</time></trkpt><trkpt lat="44.37887419990305" lon="12.033980522899284"><ele>11.666666666666666</ele><time>2026-05-02T10:53:23.923Z</time></trkpt><trkpt lat="44.37902725635104" lon="12.034036731777247"><ele>11.333333333333332</ele><time>2026-05-02T10:53:24.923Z</time></trkpt><trkpt lat="44.379164325964624" lon="12.034151573625426"><ele>11.0</ele><time>2026-05-02T10:53:25.923Z</time></trkpt><trkpt lat="44.379303554423736" lon="12.034211065912272"><ele>10.75</ele><time>2026-05-02T10:53:26.923Z</time></trkpt><trkpt lat="44.379447163554616" lon="12.034271222471872"><ele>10.5</ele><time>2026-05-02T10:53:27.923Z</time></trkpt><trkpt lat="44.379587662924855" lon="12.034327379244651"><ele>10.25</ele><time>2026-05-02T10:53:28.923Z</time></trkpt><trkpt lat="44.37971922619839" lon="12.034385965773017"><ele>10.0</ele><time>2026-05-02T10:53:29.923Z</time></trkpt><trkpt lat="44.37986703283509" lon="12.034443805645417"><ele>10.0</ele><time>2026-05-02T10:53:30.923Z</time></trkpt><trkpt lat="44.380013878198945" lon="12.034503278719864"><ele>10.0</ele><time>2026-05-02T10:53:31.923Z</time></trkpt><trkpt lat="44.380154248702816" lon="12.034563696941666"><ele>10.0</ele><time>2026-05-02T10:53:32.923Z</time></trkpt><trkpt lat="44.38029871232057" lon="12.034625063641053"><ele>10.0</ele><time>2026-05-02T10:53:33.923Z</time></trkpt><trkpt lat="44.38044785239293" lon="12.034683899693906"><ele>10.0</ele><time>2026-05-02T10:53:34.923Z</time></trkpt><trkpt lat="44.380598590723984" lon="12.034745040997677"><ele>10.0</ele><time>2026-05-02T10:53:35.923Z</time></trkpt><trkpt lat="44.38075100493441" lon="12.034805848375823"><ele>10.333333333333334</ele><time>2026-05-02T10:53:36.923Z</time></trkpt><trkpt lat="44.38091002117448" lon="12.03486617768801"><ele>10.666666666666666</ele><time>2026-05-02T10:53:37.923Z</time></trkpt><trkpt lat="44.381059572387095" lon="12.03493551273945"><ele>11.0</ele><time>2026-05-02T10:53:38.923Z</time></trkpt><trkpt lat="44.38121121446721" lon="12.03500380063885"><ele>10.666666666666666</ele><time>2026-05-02T10:53:39.923Z</time></trkpt><trkpt lat="44.38135922838015" lon="12.035067257125638"><ele>10.333333333333334</ele><time>2026-05-02T10:53:40.923Z</time></trkpt><trkpt lat="44.38151782646312" lon="12.035133423380273"><ele>10.0</ele><time>2026-05-02T10:53:41.923Z</time></trkpt><trkpt lat="44.38167034250515" lon="12.03521506737197"><ele>10.0</ele><time>2026-05-02T10:53:42.923Z</time></trkpt><trkpt lat="44.38181351588062" lon="12.035326886354058"><ele>10.0</ele><time>2026-05-02T10:53:43.923Z</time></trkpt><trkpt lat="44.38194107281274" lon="12.035460659881752"><ele>10.0</ele><time>2026-05-02T10:53:44.923Z</time></trkpt><trkpt lat="44.382037011931466" lon="12.035646812728388"><ele>10.0</ele><time>2026-05-02T10:53:45.923Z</time></trkpt><trkpt lat="44.382145507572154" lon="12.035811249922176"><ele>10.0</ele><time>2026-05-02T10:53:46.923Z</time></trkpt><trkpt lat="44.38226048331504" lon="12.035963212367038"><ele>10.0</ele><time>2026-05-02T10:53:47.923Z</time></trkpt><trkpt lat="44.38236516340582" lon="12.03611734642173"><ele>10.0</ele><time>2026-05-02T10:53:48.923Z</time></trkpt><trkpt lat="44.382466697998474" lon="12.036277788066805"><ele>10.0</ele><time>2026-05-02T10:53:49.923Z</time></trkpt><trkpt lat="44.382541070280816" lon="12.036442514759129"><ele>10.0</ele><time>2026-05-02T10:53:50.923Z</time></trkpt><trkpt lat="44.382643460910245" lon="12.036604188777911"><ele>10.0</ele><time>2026-05-02T10:53:51.923Z</time></trkpt><trkpt lat="44.38275070232149" lon="12.03675912346816"><ele>10.0</ele><time>2026-05-02T10:53:52.923Z</time></trkpt><trkpt lat="44.38285755158768" lon="12.036914889947182"><ele>10.0</ele><time>2026-05-02T10:53:53.923Z</time></trkpt><trkpt lat="44.38296836614253" lon="12.037067279500095"><ele>10.0</ele><time>2026-05-02T10:53:54.923Z</time></trkpt><trkpt lat="44.383076523379856" lon="12.037222470087475"><ele>10.0</ele><time>2026-05-02T10:53:55.921Z</time></trkpt><trkpt lat="44.38317543034313" lon="12.037387387770977"><ele>10.0</ele><time>2026-05-02T10:53:56.922Z</time></trkpt><trkpt lat="44.38328092387539" lon="12.037547585373101"><ele>10.0</ele><time>2026-05-02T10:53:57.922Z</time></trkpt><trkpt lat="44.38338496100385" lon="12.037719731988455"><ele>10.0</ele><time>2026-05-02T10:53:58.922Z</time></trkpt><trkpt lat="44.38348270392989" lon="12.037901797648042"><ele>10.0</ele><time>2026-05-02T10:53:59.922Z</time></trkpt><trkpt lat="44.38357560711436" lon="12.038094175770002"><ele>10.0</ele><time>2026-05-02T10:54:00.922Z</time></trkpt><trkpt lat="44.38365297316533" lon="12.038291841682048"><ele>10.0</ele><time>2026-05-02T10:54:01.922Z</time></trkpt><trkpt lat="44.383734543048455" lon="12.038485202689612"><ele>10.0</ele><time>2026-05-02T10:54:02.922Z</time></trkpt><trkpt lat="44.3838124185755" lon="12.038664001641369"><ele>10.0</ele><time>2026-05-02T10:54:03.922Z</time></trkpt><trkpt lat="44.38389223487938" lon="12.038827754828292"><ele>9.25</ele><time>2026-05-02T10:54:04.921Z</time></trkpt><trkpt lat="44.38396405219622" lon="12.038980852720071"><ele>8.5</ele><time>2026-05-02T10:54:05.922Z</time></trkpt><trkpt lat="44.38402648698815" lon="12.039114940637123"><ele>7.75</ele><time>2026-05-02T10:54:06.922Z</time></trkpt><trkpt lat="44.38408668190185" lon="12.039244423108261"><ele>7.0</ele><time>2026-05-02T10:54:07.922Z</time></trkpt><trkpt lat="44.38413930967226" lon="12.039363821985086"><ele>6.8</ele><time>2026-05-02T10:54:08.922Z</time></trkpt><trkpt lat="44.384191511454304" lon="12.039482956912561"><ele>6.6</ele><time>2026-05-02T10:54:09.922Z</time></trkpt><trkpt lat="44.384232223955685" lon="12.039603296407375"><ele>6.3999999999999995</ele><time>2026-05-02T10:54:10.922Z</time></trkpt><trkpt lat="44.384256478420724" lon="12.03972893063371"><ele>6.199999999999999</ele><time>2026-05-02T10:54:11.922Z</time></trkpt><trkpt lat="44.38425619946769" lon="12.039859579744915"><ele>6.0</ele><time>2026-05-02T10:54:12.922Z</time></trkpt><trkpt lat="44.38426903039318" lon="12.039976097890237"><ele>6.75</ele><time>2026-05-02T10:54:13.922Z</time></trkpt><trkpt lat="44.384323423925004" lon="12.04007946618985"><ele>7.5</ele><time>2026-05-02T10:54:14.922Z</time></trkpt><trkpt lat="44.3844192375779" lon="12.040161062134596"><ele>8.25</ele><time>2026-05-02T10:54:15.922Z</time></trkpt><trkpt lat="44.384521970679806" lon="12.040242118837119"><ele>9.0</ele><time>2026-05-02T10:54:16.922Z</time></trkpt><trkpt lat="44.384617477264236" lon="12.040366281623466"><ele>9.0</ele><time>2026-05-02T10:54:17.922Z</time></trkpt><trkpt lat="44.38466254782448" lon="12.040545020430416"><ele>9.0</ele><time>2026-05-02T10:54:18.922Z</time></trkpt><trkpt lat="44.38472377746006" lon="12.040682448560364"><ele>9.0</ele><time>2026-05-02T10:54:19.922Z</time></trkpt><trkpt lat="44.38477300548172" lon="12.040762925274016"><ele>9.0</ele><time>2026-05-02T10:54:20.922Z</time></trkpt><trkpt lat="44.384778174700735" lon="12.040892361433295"><ele>9.0</ele><time>2026-05-02T10:54:22.922Z</time></trkpt><trkpt lat="44.384784289481175" lon="12.040999057982509"><ele>8.714285714285715</ele><time>2026-05-02T10:54:24.922Z</time></trkpt><trkpt lat="44.384822565711914" lon="12.041089815758683"><ele>8.428571428571429</ele><time>2026-05-02T10:54:26.922Z</time></trkpt><trkpt lat="44.38484811547795" lon="12.041172886776437"><ele>8.142857142857142</ele><time>2026-05-02T10:54:28.922Z</time></trkpt><trkpt lat="44.38490537366083" lon="12.04122140225919"><ele>7.857142857142858</ele><time>2026-05-02T10:55:21.922Z</time></trkpt><trkpt lat="44.3849597303675" lon="12.041297743815022"><ele>7.571428571428571</ele><time>2026-05-02T10:55:23.922Z</time></trkpt><trkpt lat="44.3850131747837" lon="12.041355161529863"><ele>7.285714285714286</ele><time>2026-05-02T10:55:24.922Z</time></trkpt><trkpt lat="44.38507164497851" lon="12.041425508235905"><ele>7.0</ele><time>2026-05-02T10:55:25.922Z</time></trkpt><trkpt lat="44.38512365504268" lon="12.041522099591777"><ele>7.5</ele><time>2026-05-02T10:55:26.922Z</time></trkpt><trkpt lat="44.38517712473317" lon="12.041644001169141"><ele>8.0</ele><time>2026-05-02T10:55:27.922Z</time></trkpt><trkpt lat="44.3852344049711" lon="12.041785877286594"><ele>8.5</ele><time>2026-05-02T10:55:28.922Z</time></trkpt><trkpt lat="44.38530163569885" lon="12.04193095084069"><ele>9.0</ele><time>2026-05-02T10:55:29.922Z</time></trkpt><trkpt lat="44.385375046550834" lon="12.042085660975545"><ele>9.0</ele><time>2026-05-02T10:55:30.922Z</time></trkpt><trkpt lat="44.385449997990264" lon="12.04225048605005"><ele>9.0</ele><time>2026-05-02T10:55:31.922Z</time></trkpt><trkpt lat="44.38550255384413" lon="12.042432249875446"><ele>9.0</ele><time>2026-05-02T10:55:32.922Z</time></trkpt><trkpt lat="44.385582108972486" lon="12.042616237561592"><ele>9.0</ele><time>2026-05-02T10:55:33.922Z</time></trkpt><trkpt lat="44.38566273520237" lon="12.042800531763895"><ele>8.333333333333334</ele><time>2026-05-02T10:55:34.922Z</time></trkpt><trkpt lat="44.38574441807142" lon="12.042991121710065"><ele>7.666666666666667</ele><time>2026-05-02T10:55:35.922Z</time></trkpt><trkpt lat="44.38582932207575" lon="12.043189602669894"><ele>7.0</ele><time>2026-05-02T10:55:36.922Z</time></trkpt><trkpt lat="44.38591455264136" lon="12.043394653295184"><ele>7.0</ele><time>2026-05-02T10:55:37.922Z</time></trkpt><trkpt lat="44.38600212917429" lon="12.043598926426863"><ele>7.0</ele><time>2026-05-02T10:55:38.922Z</time></trkpt><trkpt lat="44.386091154118354" lon="12.043801764616981"><ele>7.0</ele><time>2026-05-02T10:55:39.922Z</time></trkpt><trkpt lat="44.38618662164505" lon="12.044008251909931"><ele>7.666666666666667</ele><time>2026-05-02T10:55:40.922Z</time></trkpt><trkpt lat="44.386280185210914" lon="12.044214448916597"><ele>8.333333333333334</ele><time>2026-05-02T10:55:41.922Z</time></trkpt><trkpt lat="44.38637184107302" lon="12.044424058227879"><ele>9.0</ele><time>2026-05-02T10:55:42.922Z</time></trkpt><trkpt lat="44.38646076007517" lon="12.044637281786857"><ele>9.0</ele><time>2026-05-02T10:55:43.922Z</time></trkpt><trkpt lat="44.386548091781215" lon="12.04485571715919"><ele>9.0</ele><time>2026-05-02T10:55:44.922Z</time></trkpt><trkpt lat="44.386633895329574" lon="12.045075472379642"><ele>9.0</ele><time>2026-05-02T10:55:45.922Z</time></trkpt><trkpt lat="44.38671890259762" lon="12.045295004799922"><ele>9.0</ele><time>2026-05-02T10:55:46.922Z</time></trkpt><trkpt lat="44.38680870874843" lon="12.045512245577214"><ele>9.0</ele><time>2026-05-02T10:55:47.922Z</time></trkpt><trkpt lat="44.38690406851481" lon="12.045724020921003"><ele>9.0</ele><time>2026-05-02T10:55:48.921Z</time></trkpt><trkpt lat="44.3870050807847" lon="12.04592919906281"><ele>9.0</ele><time>2026-05-02T10:55:49.921Z</time></trkpt><trkpt lat="44.38711043162559" lon="12.046133721056583"><ele>9.0</ele><time>2026-05-02T10:55:50.921Z</time></trkpt><trkpt lat="44.38721801302164" lon="12.046335801843842"><ele>9.0</ele><time>2026-05-02T10:55:51.921Z</time></trkpt><trkpt lat="44.38732468300585" lon="12.046536533182813"><ele>8.666666666666666</ele><time>2026-05-02T10:55:52.921Z</time></trkpt><trkpt lat="44.38743216801219" lon="12.046738627009878"><ele>8.333333333333332</ele><time>2026-05-02T10:55:53.921Z</time></trkpt><trkpt lat="44.387539386544475" lon="12.046936154167302"><ele>8.0</ele><time>2026-05-02T10:55:54.921Z</time></trkpt><trkpt lat="44.38764650386531" lon="12.04713486753938"><ele>8.0</ele><time>2026-05-02T10:55:55.921Z</time></trkpt><trkpt lat="44.38775317258302" lon="12.047333128077469"><ele>8.0</ele><time>2026-05-02T10:55:56.921Z</time></trkpt><trkpt lat="44.387859968417665" lon="12.0475322363139"><ele>8.0</ele><time>2026-05-02T10:55:57.921Z</time></trkpt><trkpt lat="44.387969483761196" lon="12.047733714387157"><ele>8.0</ele><time>2026-05-02T10:55:58.921Z</time></trkpt><trkpt lat="44.38807531264962" lon="12.047936355002717"><ele>8.0</ele><time>2026-05-02T10:55:59.921Z</time></trkpt><trkpt lat="44.38818375714276" lon="12.048136355798807"><ele>8.0</ele><time>2026-05-02T10:56:00.921Z</time></trkpt><trkpt lat="44.388289328930796" lon="12.048335974874528"><ele>8.0</ele><time>2026-05-02T10:56:01.92Z</time></trkpt><trkpt lat="44.38839549666599" lon="12.048533256400885"><ele>8.0</ele><time>2026-05-02T10:56:02.919Z</time></trkpt><trkpt lat="44.38849306131365" lon="12.048718481327494"><ele>8.0</ele><time>2026-05-02T10:56:03.919Z</time></trkpt><trkpt lat="44.38858597137802" lon="12.048892578035627"><ele>8.0</ele><time>2026-05-02T10:56:04.919Z</time></trkpt><trkpt lat="44.388674935070874" lon="12.049060589746464"><ele>8.0</ele><time>2026-05-02T10:56:05.92Z</time></trkpt><trkpt lat="44.388760233472304" lon="12.049220302656307"><ele>8.0</ele><time>2026-05-02T10:56:06.92Z</time></trkpt><trkpt lat="44.388839157344876" lon="12.049369746159815"><ele>8.0</ele><time>2026-05-02T10:56:07.92Z</time></trkpt><trkpt lat="44.38890811870801" lon="12.049505331464955"><ele>8.200000000000001</ele><time>2026-05-02T10:56:08.919Z</time></trkpt><trkpt lat="44.38897226516363" lon="12.049637793467301"><ele>8.4</ele><time>2026-05-02T10:56:09.919Z</time></trkpt><trkpt lat="44.38903610932012" lon="12.049761519642608"><ele>8.600000000000001</ele><time>2026-05-02T10:56:10.919Z</time></trkpt><trkpt lat="44.38909296298565" lon="12.049881635368846"><ele>8.8</ele><time>2026-05-02T10:56:11.92Z</time></trkpt><trkpt lat="44.38914629131068" lon="12.049990698922192"><ele>9.0</ele><time>2026-05-02T10:56:12.92Z</time></trkpt><trkpt lat="44.38920696145126" lon="12.050091728484517"><ele>9.0</ele><time>2026-05-02T10:56:13.919Z</time></trkpt><trkpt lat="44.3892776494361" lon="12.050187688795532"><ele>9.0</ele><time>2026-05-02T10:56:14.919Z</time></trkpt><trkpt lat="44.38935195402117" lon="12.050286134222992"><ele>9.0</ele><time>2026-05-02T10:56:15.919Z</time></trkpt><trkpt lat="44.38942899184129" lon="12.050371976362769"><ele>9.0</ele><time>2026-05-02T10:56:16.919Z</time></trkpt><trkpt lat="44.38949978609385" lon="12.050455396310943"><ele>9.0</ele><time>2026-05-02T10:56:17.919Z</time></trkpt><trkpt lat="44.38957367590593" lon="12.050553579827103"><ele>9.0</ele><time>2026-05-02T10:56:18.919Z</time></trkpt><trkpt lat="44.389645000275245" lon="12.050678969807205"><ele>9.0</ele><time>2026-05-02T10:56:19.919Z</time></trkpt><trkpt lat="44.38989156923197" lon="12.051132397860357"><ele>9.0</ele><time>2026-05-02T10:56:22.919Z</time></trkpt><trkpt lat="44.38994337653525" lon="12.051287141630315"><ele>9.0</ele><time>2026-05-02T10:56:23.919Z</time></trkpt><trkpt lat="44.39001093122294" lon="12.05147115923074"><ele>9.0</ele><time>2026-05-02T10:56:24.919Z</time></trkpt><trkpt lat="44.39008923569805" lon="12.051639896869867"><ele>9.0</ele><time>2026-05-02T10:56:25.919Z</time></trkpt><trkpt lat="44.39012518803983" lon="12.051860217067885"><ele>9.0</ele><time>2026-05-02T10:56:26.919Z</time></trkpt><trkpt lat="44.39017754270966" lon="12.052059682479529"><ele>9.0</ele><time>2026-05-02T10:56:27.919Z</time></trkpt><trkpt lat="44.39022825303745" lon="12.052258176962173"><ele>9.0</ele><time>2026-05-02T10:56:28.919Z</time></trkpt><trkpt lat="44.39026792345309" lon="12.052454285752333"><ele>9.0</ele><time>2026-05-02T10:56:29.919Z</time></trkpt><trkpt lat="44.390309539982425" lon="12.052652868521678"><ele>9.0</ele><time>2026-05-02T10:56:30.919Z</time></trkpt><trkpt lat="44.39035134421141" lon="12.052866104333111"><ele>9.0</ele><time>2026-05-02T10:56:31.919Z</time></trkpt><trkpt lat="44.39038776750766" lon="12.053082721465426"><ele>9.0</ele><time>2026-05-02T10:56:32.919Z</time></trkpt><trkpt lat="44.390425327982705" lon="12.053300441881913"><ele>9.0</ele><time>2026-05-02T10:56:33.919Z</time></trkpt><trkpt lat="44.390462243723185" lon="12.053517901699662"><ele>9.0</ele><time>2026-05-02T10:56:34.919Z</time></trkpt><trkpt lat="44.3904966131751" lon="12.053722020673064"><ele>9.0</ele><time>2026-05-02T10:56:35.919Z</time></trkpt><trkpt lat="44.3905315889865" lon="12.053936547165666"><ele>8.666666666666666</ele><time>2026-05-02T10:56:36.919Z</time></trkpt><trkpt lat="44.39056043046326" lon="12.054163629876713"><ele>8.333333333333332</ele><time>2026-05-02T10:56:37.919Z</time></trkpt><trkpt lat="44.390589301539904" lon="12.05439790223928"><ele>8.0</ele><time>2026-05-02T10:56:38.919Z</time></trkpt><trkpt lat="44.39062172755575" lon="12.054619943731025"><ele>8.0</ele><time>2026-05-02T10:56:39.919Z</time></trkpt><trkpt lat="44.39065177118654" lon="12.054827113088349"><ele>8.0</ele><time>2026-05-02T10:56:40.919Z</time></trkpt><trkpt lat="44.39068022418093" lon="12.055049504990661"><ele>8.0</ele><time>2026-05-02T10:56:41.919Z</time></trkpt><trkpt lat="44.390696061509566" lon="12.055282567335063"><ele>8.0</ele><time>2026-05-02T10:56:42.919Z</time></trkpt><trkpt lat="44.390703354328984" lon="12.055523673736777"><ele>8.0</ele><time>2026-05-02T10:56:43.919Z</time></trkpt><trkpt lat="44.390705582378686" lon="12.055768441651397"><ele>8.0</ele><time>2026-05-02T10:56:44.919Z</time></trkpt><trkpt lat="44.39070335354331" lon="12.056012486968688"><ele>8.0</ele><time>2026-05-02T10:56:45.919Z</time></trkpt><trkpt lat="44.39069278809024" lon="12.05625372373551"><ele>8.0</ele><time>2026-05-02T10:56:46.919Z</time></trkpt><trkpt lat="44.390680865537824" lon="12.05649072732608"><ele>8.0</ele><time>2026-05-02T10:56:47.919Z</time></trkpt><trkpt lat="44.39066860281452" lon="12.056723601790516"><ele>7.333333333333333</ele><time>2026-05-02T10:56:48.919Z</time></trkpt><trkpt lat="44.390654621898555" lon="12.056954239436022"><ele>6.666666666666666</ele><time>2026-05-02T10:56:49.919Z</time></trkpt><trkpt lat="44.39063959813252" lon="12.057181699706844"><ele>6.0</ele><time>2026-05-02T10:56:50.919Z</time></trkpt><trkpt lat="44.39062549243386" lon="12.05740930125304"><ele>6.0</ele><time>2026-05-02T10:56:51.919Z</time></trkpt><trkpt lat="44.390614131584755" lon="12.057628416772422"><ele>6.0</ele><time>2026-05-02T10:56:52.919Z</time></trkpt><trkpt lat="44.390598105828694" lon="12.057843697413158"><ele>6.0</ele><time>2026-05-02T10:56:53.919Z</time></trkpt><trkpt lat="44.390572161442044" lon="12.05806450411673"><ele>6.0</ele><time>2026-05-02T10:56:54.919Z</time></trkpt><trkpt lat="44.390538160330145" lon="12.058283332103588"><ele>6.0</ele><time>2026-05-02T10:56:55.919Z</time></trkpt><trkpt lat="44.39050126123184" lon="12.058506077794563"><ele>6.0</ele><time>2026-05-02T10:56:56.919Z</time></trkpt><trkpt lat="44.390468508483046" lon="12.05872322610524"><ele>6.0</ele><time>2026-05-02T10:56:57.919Z</time></trkpt><trkpt lat="44.39043758672533" lon="12.058930153026754"><ele>6.0</ele><time>2026-05-02T10:56:58.919Z</time></trkpt><trkpt lat="44.390407096819644" lon="12.059136273051212"><ele>6.0</ele><time>2026-05-02T10:56:59.919Z</time></trkpt><trkpt lat="44.39038183672298" lon="12.059330993959202"><ele>6.0</ele><time>2026-05-02T10:57:00.919Z</time></trkpt><trkpt lat="44.39036835510022" lon="12.05952067969187"><ele>6.0</ele><time>2026-05-02T10:57:01.919Z</time></trkpt><trkpt lat="44.390366363257876" lon="12.05971244163338"><ele>6.0</ele><time>2026-05-02T10:57:02.919Z</time></trkpt><trkpt lat="44.39038963874026" lon="12.059900987102711"><ele>6.0</ele><time>2026-05-02T10:57:03.919Z</time></trkpt><trkpt lat="44.39042047299411" lon="12.060087405333949"><ele>6.0</ele><time>2026-05-02T10:57:04.919Z</time></trkpt><trkpt lat="44.39045332149836" lon="12.060255765188568"><ele>6.25</ele><time>2026-05-02T10:57:05.919Z</time></trkpt><trkpt lat="44.39048253040554" lon="12.060409532057834"><ele>6.5</ele><time>2026-05-02T10:57:06.919Z</time></trkpt><trkpt lat="44.390512206684384" lon="12.060560563939863"><ele>6.75</ele><time>2026-05-02T10:57:07.919Z</time></trkpt><trkpt lat="44.39054482851192" lon="12.060722978036981"><ele>7.0</ele><time>2026-05-02T10:57:08.919Z</time></trkpt><trkpt lat="44.390579248484315" lon="12.060900597701403"><ele>6.5</ele><time>2026-05-02T10:57:09.919Z</time></trkpt><trkpt lat="44.39061644418822" lon="12.061083971204832"><ele>6.0</ele><time>2026-05-02T10:57:10.919Z</time></trkpt><trkpt lat="44.39064640350614" lon="12.061262170686435"><ele>5.5</ele><time>2026-05-02T10:57:11.919Z</time></trkpt><trkpt lat="44.390673844905734" lon="12.06143325435867"><ele>5.0</ele><time>2026-05-02T10:57:12.919Z</time></trkpt><trkpt lat="44.390701327526735" lon="12.061604668054404"><ele>5.25</ele><time>2026-05-02T10:57:13.919Z</time></trkpt><trkpt lat="44.39071881771268" lon="12.061780395559886"><ele>5.5</ele><time>2026-05-02T10:57:14.919Z</time></trkpt><trkpt lat="44.39072052283489" lon="12.061954534036888"><ele>5.75</ele><time>2026-05-02T10:57:15.919Z</time></trkpt><trkpt lat="44.39071604100445" lon="12.062129244986052"><ele>6.0</ele><time>2026-05-02T10:57:16.919Z</time></trkpt><trkpt lat="44.39070422890304" lon="12.062300374504746"><ele>5.75</ele><time>2026-05-02T10:57:17.919Z</time></trkpt><trkpt lat="44.3906829394165" lon="12.062467685246279"><ele>5.5</ele><time>2026-05-02T10:57:18.919Z</time></trkpt><trkpt lat="44.39065248043982" lon="12.062649936583348"><ele>5.25</ele><time>2026-05-02T10:57:19.919Z</time></trkpt><trkpt lat="44.3906086970966" lon="12.062839326354215"><ele>5.0</ele><time>2026-05-02T10:57:20.919Z</time></trkpt><trkpt lat="44.39055047799769" lon="12.06302342504857"><ele>5.333333333333334</ele><time>2026-05-02T10:57:21.919Z</time></trkpt><trkpt lat="44.39048531199547" lon="12.063214755096654"><ele>5.666666666666667</ele><time>2026-05-02T10:57:22.919Z</time></trkpt><trkpt lat="44.39041271089786" lon="12.063404239722892"><ele>6.0</ele><time>2026-05-02T10:57:23.919Z</time></trkpt><trkpt lat="44.39034009611115" lon="12.063597992497392"><ele>6.0</ele><time>2026-05-02T10:57:24.919Z</time></trkpt><trkpt lat="44.39026721295665" lon="12.063790760264135"><ele>6.0</ele><time>2026-05-02T10:57:25.919Z</time></trkpt><trkpt lat="44.390201557672356" lon="12.06397004309819"><ele>6.0</ele><time>2026-05-02T10:57:26.919Z</time></trkpt><trkpt lat="44.39013779154899" lon="12.064136289285807"><ele>6.0</ele><time>2026-05-02T10:57:27.919Z</time></trkpt><trkpt lat="44.390076137503904" lon="12.06429010167772"><ele>6.0</ele><time>2026-05-02T10:57:28.919Z</time></trkpt><trkpt lat="44.39001790457122" lon="12.064445919776206"><ele>6.0</ele><time>2026-05-02T10:57:29.919Z</time></trkpt><trkpt lat="44.389958552119694" lon="12.064607531121807"><ele>6.0</ele><time>2026-05-02T10:57:30.919Z</time></trkpt><trkpt lat="44.389902805712474" lon="12.064768923657011"><ele>6.0</ele><time>2026-05-02T10:57:31.919Z</time></trkpt><trkpt lat="44.38985271479212" lon="12.06493248246061"><ele>6.0</ele><time>2026-05-02T10:57:32.919Z</time></trkpt><trkpt lat="44.38981151758017" lon="12.065101102882062"><ele>6.0</ele><time>2026-05-02T10:57:33.919Z</time></trkpt><trkpt lat="44.389782947075986" lon="12.065277225278207"><ele>6.0</ele><time>2026-05-02T10:57:34.919Z</time></trkpt><trkpt lat="44.38975779722124" lon="12.065470511839985"><ele>6.0</ele><time>2026-05-02T10:57:35.919Z</time></trkpt><trkpt lat="44.38974637945558" lon="12.06567207007628"><ele>5.75</ele><time>2026-05-02T10:57:36.919Z</time></trkpt><trkpt lat="44.389747135238856" lon="12.065873388375909"><ele>5.5</ele><time>2026-05-02T10:57:37.919Z</time></trkpt><trkpt lat="44.38975711925812" lon="12.066070779805338"><ele>5.25</ele><time>2026-05-02T10:57:38.919Z</time></trkpt><trkpt lat="44.38977320189303" lon="12.066256521345021"><ele>5.0</ele><time>2026-05-02T10:57:39.919Z</time></trkpt><trkpt lat="44.38979787014376" lon="12.066436461407225"><ele>5.25</ele><time>2026-05-02T10:57:40.919Z</time></trkpt><trkpt lat="44.389834126625004" lon="12.066616709957785"><ele>5.5</ele><time>2026-05-02T10:57:41.919Z</time></trkpt><trkpt lat="44.38985916806154" lon="12.066799548006978"><ele>5.75</ele><time>2026-05-02T10:57:42.919Z</time></trkpt><trkpt lat="44.38990280800022" lon="12.066951610454867"><ele>6.0</ele><time>2026-05-02T10:57:43.919Z</time></trkpt><trkpt lat="44.389954107609825" lon="12.067089437133804"><ele>6.0</ele><time>2026-05-02T10:57:44.919Z</time></trkpt><trkpt lat="44.390007157823995" lon="12.067209118301149"><ele>6.0</ele><time>2026-05-02T10:57:45.919Z</time></trkpt><trkpt lat="44.390056198234966" lon="12.067316937482541"><ele>6.0</ele><time>2026-05-02T10:57:46.919Z</time></trkpt><trkpt lat="44.39008718214699" lon="12.067415068688861"><ele>6.0</ele><time>2026-05-02T10:57:47.919Z</time></trkpt><trkpt lat="44.39010252924822" lon="12.067501718886335"><ele>6.0</ele><time>2026-05-02T10:57:48.919Z</time></trkpt><trkpt lat="44.390054578482676" lon="12.067612987754543"><ele>6.0</ele><time>2026-05-02T10:57:49.919Z</time></trkpt><trkpt lat="44.38998372527728" lon="12.067679269030416"><ele>6.0</ele><time>2026-05-02T10:57:50.919Z</time></trkpt><trkpt lat="44.38991912575841" lon="12.06779021027199"><ele>6.0</ele><time>2026-05-02T10:57:51.919Z</time></trkpt><trkpt lat="44.38982938144458" lon="12.06789668817192"><ele>6.0</ele><time>2026-05-02T10:57:52.919Z</time></trkpt><trkpt lat="44.389739931624284" lon="12.068019808683449"><ele>6.0</ele><time>2026-05-02T10:57:53.919Z</time></trkpt><trkpt lat="44.389658077916664" lon="12.068131144862182"><ele>6.166666666666667</ele><time>2026-05-02T10:57:54.919Z</time></trkpt><trkpt lat="44.38959116110554" lon="12.068226376311557"><ele>6.333333333333334</ele><time>2026-05-02T10:57:55.919Z</time></trkpt><trkpt lat="44.38954353497928" lon="12.068304933110905"><ele>6.5</ele><time>2026-05-02T10:57:56.919Z</time></trkpt><trkpt lat="44.38949503996389" lon="12.068375021420906"><ele>6.666666666666667</ele><time>2026-05-02T10:57:57.919Z</time></trkpt><trkpt lat="44.389427087660316" lon="12.0684429739883"><ele>6.833333333333334</ele><time>2026-05-02T10:57:58.919Z</time></trkpt><trkpt lat="44.3893476497504" lon="12.068538537545653"><ele>7.0</ele><time>2026-05-02T10:57:59.919Z</time></trkpt><trkpt lat="44.389260992804836" lon="12.068626051582651"><ele>7.0</ele><time>2026-05-02T10:58:00.919Z</time></trkpt><trkpt lat="44.38916478099168" lon="12.068728862833229"><ele>7.0</ele><time>2026-05-02T10:58:01.919Z</time></trkpt><trkpt lat="44.38907804643534" lon="12.068859605113841"><ele>7.0</ele><time>2026-05-02T10:58:02.919Z</time></trkpt><trkpt lat="44.38898618254024" lon="12.068996547139013"><ele>7.0</ele><time>2026-05-02T10:58:03.919Z</time></trkpt><trkpt lat="44.38889151891731" lon="12.069127703845894"><ele>6.5</ele><time>2026-05-02T10:58:04.919Z</time></trkpt><trkpt lat="44.38879151590169" lon="12.069272403720694"><ele>6.0</ele><time>2026-05-02T10:58:05.919Z</time></trkpt><trkpt lat="44.388683702010596" lon="12.069420035272374"><ele>5.5</ele><time>2026-05-02T10:58:06.919Z</time></trkpt><trkpt lat="44.38858532703822" lon="12.069563951599685"><ele>5.0</ele><time>2026-05-02T10:58:07.916Z</time></trkpt><trkpt lat="44.38848880621208" lon="12.069698569793808"><ele>5.0</ele><time>2026-05-02T10:58:08.916Z</time></trkpt><trkpt lat="44.38839512598087" lon="12.069833490179807"><ele>5.0</ele><time>2026-05-02T10:58:09.916Z</time></trkpt><trkpt lat="44.38832311957355" lon="12.069943343738249"><ele>5.0</ele><time>2026-05-02T10:58:10.917Z</time></trkpt><trkpt lat="44.38824536603962" lon="12.07006673269522"><ele>5.0</ele><time>2026-05-02T10:58:11.916Z</time></trkpt><trkpt lat="44.38818071650114" lon="12.070168752144804"><ele>5.0</ele><time>2026-05-02T10:58:12.916Z</time></trkpt><trkpt lat="44.388118358649095" lon="12.070280172017226"><ele>5.0</ele><time>2026-05-02T10:58:13.916Z</time></trkpt><trkpt lat="44.38807407442077" lon="12.070426729258953"><ele>5.0</ele><time>2026-05-02T10:58:14.917Z</time></trkpt><trkpt lat="44.388088358175544" lon="12.070606566452001"><ele>5.0</ele><time>2026-05-02T10:58:15.917Z</time></trkpt><trkpt lat="44.388090363215156" lon="12.070786684990573"><ele>5.0</ele><time>2026-05-02T10:58:16.916Z</time></trkpt><trkpt lat="44.38810462265206" lon="12.07099378781902"><ele>5.0</ele><time>2026-05-02T10:58:17.916Z</time></trkpt><trkpt lat="44.38811277958336" lon="12.071202820706372"><ele>5.0</ele><time>2026-05-02T10:58:18.916Z</time></trkpt><trkpt lat="44.38805473150546" lon="12.071398691896661"><ele>5.0</ele><time>2026-05-02T10:58:19.916Z</time></trkpt><trkpt lat="44.3880475862589" lon="12.071550761526135"><ele>5.0</ele><time>2026-05-02T10:58:20.916Z</time></trkpt><trkpt lat="44.38804159673168" lon="12.07168580136627"><ele>5.0</ele><time>2026-05-02T10:58:21.916Z</time></trkpt><trkpt lat="44.38803549598404" lon="12.071820894328633"><ele>5.0</ele><time>2026-05-02T10:58:22.916Z</time></trkpt><trkpt lat="44.38802688005162" lon="12.071965463439215"><ele>5.0</ele><time>2026-05-02T10:58:23.916Z</time></trkpt><trkpt lat="44.3880142997409" lon="12.072116839945974"><ele>5.25</ele><time>2026-05-02T10:58:24.916Z</time></trkpt><trkpt lat="44.38800329674461" lon="12.072275788297297"><ele>5.5</ele><time>2026-05-02T10:58:25.916Z</time></trkpt><trkpt lat="44.38796657284045" lon="12.072447074116026"><ele>5.75</ele><time>2026-05-02T10:58:26.916Z</time></trkpt><trkpt lat="44.38790839882628" lon="12.072629855500981"><ele>6.0</ele><time>2026-05-02T10:58:27.916Z</time></trkpt><trkpt lat="44.3878611145677" lon="12.072819350744663"><ele>5.75</ele><time>2026-05-02T10:58:28.916Z</time></trkpt><trkpt lat="44.387789593613284" lon="12.072990458712074"><ele>5.5</ele><time>2026-05-02T10:58:29.916Z</time></trkpt><trkpt lat="44.38771784594982" lon="12.073138948417977"><ele>5.25</ele><time>2026-05-02T10:58:30.916Z</time></trkpt><trkpt lat="44.38765170103153" lon="12.073276873437988"><ele>5.0</ele><time>2026-05-02T10:58:31.916Z</time></trkpt><trkpt lat="44.3875841374403" lon="12.073389986509216"><ele>5.0</ele><time>2026-05-02T10:58:32.916Z</time></trkpt><trkpt lat="44.38752019366147" lon="12.073493181030525"><ele>5.0</ele><time>2026-05-02T10:58:33.916Z</time></trkpt><trkpt lat="44.38745902742063" lon="12.073585949286258"><ele>5.0</ele><time>2026-05-02T10:58:34.916Z</time></trkpt><trkpt lat="44.38739378914093" lon="12.073693501511462"><ele>5.0</ele><time>2026-05-02T10:58:35.916Z</time></trkpt><trkpt lat="44.38733421553876" lon="12.073824989600112"><ele>5.0</ele><time>2026-05-02T10:58:36.916Z</time></trkpt><trkpt lat="44.38727858885923" lon="12.073991335220148"><ele>5.0</ele><time>2026-05-02T10:58:37.916Z</time></trkpt><trkpt lat="44.38718911391718" lon="12.074154449771319"><ele>5.0</ele><time>2026-05-02T10:58:38.916Z</time></trkpt><trkpt lat="44.38712687967266" lon="12.074321610103032"><ele>5.0</ele><time>2026-05-02T10:58:39.916Z</time></trkpt><trkpt lat="44.38706831270465" lon="12.074455024598386"><ele>5.0</ele><time>2026-05-02T10:58:40.916Z</time></trkpt><trkpt lat="44.38701741407325" lon="12.074573070264194"><ele>5.0</ele><time>2026-05-02T10:58:41.916Z</time></trkpt><trkpt lat="44.3869545781076" lon="12.074680082028712"><ele>5.0</ele><time>2026-05-02T10:58:42.916Z</time></trkpt><trkpt lat="44.3868768647948" lon="12.074785649111904"><ele>5.0</ele><time>2026-05-02T10:58:43.916Z</time></trkpt><trkpt lat="44.38679023114202" lon="12.07489101641933"><ele>5.0</ele><time>2026-05-02T10:58:44.916Z</time></trkpt><trkpt lat="44.386692887422065" lon="12.075005279102339"><ele>5.0</ele><time>2026-05-02T10:58:45.916Z</time></trkpt><trkpt lat="44.386593992571925" lon="12.075112391057232"><ele>5.0</ele><time>2026-05-02T10:58:46.916Z</time></trkpt><trkpt lat="44.38650931808229" lon="12.07520606922769"><ele>5.0</ele><time>2026-05-02T10:58:47.916Z</time></trkpt><trkpt lat="44.386435934944124" lon="12.075277494842"><ele>5.0</ele><time>2026-05-02T10:58:48.916Z</time></trkpt><trkpt lat="44.38636410478107" lon="12.075351575632077"><ele>5.0</ele><time>2026-05-02T10:58:49.916Z</time></trkpt><trkpt lat="44.38630226256138" lon="12.075450446711766"><ele>5.0</ele><time>2026-05-02T10:58:50.916Z</time></trkpt><trkpt lat="44.38624100728726" lon="12.075565288852719"><ele>5.0</ele><time>2026-05-02T10:58:51.916Z</time></trkpt><trkpt lat="44.38618650287001" lon="12.075705179903753"><ele>5.0</ele><time>2026-05-02T10:58:52.916Z</time></trkpt><trkpt lat="44.38614354085958" lon="12.075859138264727"><ele>5.0</ele><time>2026-05-02T10:58:53.916Z</time></trkpt><trkpt lat="44.386099770738085" lon="12.075999342144224"><ele>5.0</ele><time>2026-05-02T10:58:54.916Z</time></trkpt><trkpt lat="44.38604167361576" lon="12.076115422289194"><ele>5.0</ele><time>2026-05-02T10:58:55.916Z</time></trkpt><trkpt lat="44.385972269108684" lon="12.076220484963333"><ele>5.0</ele><time>2026-05-02T10:58:56.916Z</time></trkpt><trkpt lat="44.385898810750376" lon="12.076314125917119"><ele>5.0</ele><time>2026-05-02T10:58:57.916Z</time></trkpt><trkpt lat="44.385841700663036" lon="12.076389172389622"><ele>5.0</ele><time>2026-05-02T10:58:58.916Z</time></trkpt><trkpt lat="44.385793149887306" lon="12.07651244801993"><ele>5.0</ele><time>2026-05-02T10:59:00.916Z</time></trkpt><trkpt lat="44.385753851333924" lon="12.076591672210617"><ele>5.0</ele><time>2026-05-02T10:59:01.916Z</time></trkpt><trkpt lat="44.385674570140814" lon="12.076698365390511"><ele>4.75</ele><time>2026-05-02T10:59:02.916Z</time></trkpt><trkpt lat="44.385584140043235" lon="12.076815393269632"><ele>4.5</ele><time>2026-05-02T10:59:03.916Z</time></trkpt><trkpt lat="44.385501689378565" lon="12.076965343995465"><ele>4.25</ele><time>2026-05-02T10:59:04.916Z</time></trkpt><trkpt lat="44.38541006280427" lon="12.077129054671886"><ele>4.0</ele><time>2026-05-02T10:59:05.916Z</time></trkpt><trkpt lat="44.38531107186918" lon="12.077301899729624"><ele>3.6666666666666665</ele><time>2026-05-02T10:59:06.916Z</time></trkpt><trkpt lat="44.38519923356999" lon="12.077481196901367"><ele>3.333333333333333</ele><time>2026-05-02T10:59:07.916Z</time></trkpt><trkpt lat="44.38508272701723" lon="12.077663320624616"><ele>3.0</ele><time>2026-05-02T10:59:08.916Z</time></trkpt><trkpt lat="44.38495860739501" lon="12.077857574860808"><ele>3.0</ele><time>2026-05-02T10:59:09.916Z</time></trkpt><trkpt lat="44.38483224280421" lon="12.078065321958022"><ele>3.0</ele><time>2026-05-02T10:59:10.916Z</time></trkpt><trkpt lat="44.3847025036117" lon="12.078275946161426"><ele>3.0</ele><time>2026-05-02T10:59:11.916Z</time></trkpt><trkpt lat="44.3845688896891" lon="12.078494261139374"><ele>3.333333333333333</ele><time>2026-05-02T10:59:12.916Z</time></trkpt><trkpt lat="44.384434336308885" lon="12.078714408105913"><ele>3.6666666666666665</ele><time>2026-05-02T10:59:13.916Z</time></trkpt><trkpt lat="44.384301524744416" lon="12.078926229821743"><ele>4.0</ele><time>2026-05-02T10:59:14.916Z</time></trkpt><trkpt lat="44.38416959971647" lon="12.079132937531861"><ele>4.0</ele><time>2026-05-02T10:59:15.916Z</time></trkpt><trkpt lat="44.384041398524936" lon="12.079336150014962"><ele>4.0</ele><time>2026-05-02T10:59:16.916Z</time></trkpt><trkpt lat="44.38391325421247" lon="12.079532429569516"><ele>4.0</ele><time>2026-05-02T10:59:17.916Z</time></trkpt><trkpt lat="44.38378797275325" lon="12.079730650976861"><ele>4.0</ele><time>2026-05-02T10:59:18.916Z</time></trkpt><trkpt lat="44.383661188817165" lon="12.079931343689141"><ele>4.0</ele><time>2026-05-02T10:59:19.916Z</time></trkpt><trkpt lat="44.383543469137315" lon="12.080124503926108"><ele>4.0</ele><time>2026-05-02T10:59:20.916Z</time></trkpt><trkpt lat="44.38343279191492" lon="12.080296848955514"><ele>4.0</ele><time>2026-05-02T10:59:21.916Z</time></trkpt><trkpt lat="44.38332601390172" lon="12.080454071844342"><ele>4.0</ele><time>2026-05-02T10:59:22.916Z</time></trkpt><trkpt lat="44.383219406162226" lon="12.08059068205279"><ele>4.0</ele><time>2026-05-02T10:59:23.916Z</time></trkpt><trkpt lat="44.38310956542013" lon="12.080713521026754"><ele>4.0</ele><time>2026-05-02T10:59:24.916Z</time></trkpt><trkpt lat="44.382996605053684" lon="12.080823805620605"><ele>4.333333333333333</ele><time>2026-05-02T10:59:25.916Z</time></trkpt><trkpt lat="44.38287842176481" lon="12.080943760120169"><ele>4.666666666666667</ele><time>2026-05-02T10:59:26.916Z</time></trkpt><trkpt lat="44.38277163563215" lon="12.081096084819771"><ele>5.0</ele><time>2026-05-02T10:59:27.916Z</time></trkpt><trkpt lat="44.38266558672477" lon="12.0812610993899"><ele>5.0</ele><time>2026-05-02T10:59:28.916Z</time></trkpt><trkpt lat="44.38256279781623" lon="12.081456477995543"><ele>5.0</ele><time>2026-05-02T10:59:29.916Z</time></trkpt><trkpt lat="44.38246127132602" lon="12.081643343257538"><ele>5.0</ele><time>2026-05-02T10:59:30.916Z</time></trkpt><trkpt lat="44.38237165467096" lon="12.081825799287158"><ele>5.333333333333334</ele><time>2026-05-02T10:59:31.916Z</time></trkpt><trkpt lat="44.3822800337748" lon="12.08199222431549"><ele>5.666666666666667</ele><time>2026-05-02T10:59:32.916Z</time></trkpt><trkpt lat="44.38219618696737" lon="12.082169318974138"><ele>6.0</ele><time>2026-05-02T10:59:33.916Z</time></trkpt><trkpt lat="44.38214188182409" lon="12.082385416525229"><ele>5.333333333333333</ele><time>2026-05-02T10:59:34.916Z</time></trkpt><trkpt lat="44.382109051101935" lon="12.082630009725392"><ele>4.666666666666666</ele><time>2026-05-02T10:59:35.916Z</time></trkpt><trkpt lat="44.38209742076538" lon="12.082865853894756"><ele>4.0</ele><time>2026-05-02T10:59:36.916Z</time></trkpt><trkpt lat="44.38206902068845" lon="12.083096647187048"><ele>3.333333333333333</ele><time>2026-05-02T10:59:37.916Z</time></trkpt><trkpt lat="44.38202345289879" lon="12.083320196303246"><ele>2.6666666666666665</ele><time>2026-05-02T10:59:38.916Z</time></trkpt><trkpt lat="44.38195481921855" lon="12.083533466750053"><ele>2.0</ele><time>2026-05-02T10:59:39.916Z</time></trkpt><trkpt lat="44.381840894543195" lon="12.083719776118441"><ele>2.0</ele><time>2026-05-02T10:59:40.916Z</time></trkpt><trkpt lat="44.381722048953925" lon="12.083904245277955"><ele>2.0</ele><time>2026-05-02T10:59:41.916Z</time></trkpt><trkpt lat="44.38161301458264" lon="12.084098352072862"><ele>2.0</ele><time>2026-05-02T10:59:42.916Z</time></trkpt><trkpt lat="44.381490614577054" lon="12.084267105740889"><ele>2.333333333333333</ele><time>2026-05-02T10:59:43.916Z</time></trkpt><trkpt lat="44.38136490621238" lon="12.084439157301508"><ele>2.6666666666666665</ele><time>2026-05-02T10:59:44.916Z</time></trkpt><trkpt lat="44.38123963506783" lon="12.084633463108254"><ele>3.0</ele><time>2026-05-02T10:59:45.916Z</time></trkpt><trkpt lat="44.38112370540056" lon="12.08486894646332"><ele>2.5</ele><time>2026-05-02T10:59:46.916Z</time></trkpt><trkpt lat="44.380999877171945" lon="12.085119891704187"><ele>2.0</ele><time>2026-05-02T10:59:47.916Z</time></trkpt><trkpt lat="44.38087833769885" lon="12.085412323982826"><ele>2.0</ele><time>2026-05-02T10:59:48.916Z</time></trkpt><trkpt lat="44.38075735840753" lon="12.085706877332731"><ele>2.0</ele><time>2026-05-02T10:59:49.916Z</time></trkpt><trkpt lat="44.380638126470025" lon="12.085997176404991"><ele>2.0</ele><time>2026-05-02T10:59:50.916Z</time></trkpt><trkpt lat="44.380520260997464" lon="12.086284148556617"><ele>2.0</ele><time>2026-05-02T10:59:51.916Z</time></trkpt><trkpt lat="44.38040416290696" lon="12.086568583307594"><ele>2.0</ele><time>2026-05-02T10:59:52.916Z</time></trkpt><trkpt lat="44.38029216562227" lon="12.086843485743165"><ele>2.0</ele><time>2026-05-02T10:59:53.916Z</time></trkpt><trkpt lat="44.380196811515674" lon="12.087122774912777"><ele>2.0</ele><time>2026-05-02T10:59:54.916Z</time></trkpt><trkpt lat="44.38008592984876" lon="12.0873863134498"><ele>2.333333333333333</ele><time>2026-05-02T10:59:55.916Z</time></trkpt><trkpt lat="44.37997557242558" lon="12.087652677810443"><ele>2.6666666666666665</ele><time>2026-05-02T10:59:56.916Z</time></trkpt><trkpt lat="44.379867616492874" lon="12.087918889649744"><ele>3.0</ele><time>2026-05-02T10:59:57.916Z</time></trkpt><trkpt lat="44.37976327007469" lon="12.088181881602896"><ele>3.0</ele><time>2026-05-02T10:59:58.916Z</time></trkpt><trkpt lat="44.379662253860346" lon="12.088447552479154"><ele>3.0</ele><time>2026-05-02T10:59:59.916Z</time></trkpt><trkpt lat="44.37956130655106" lon="12.088716058879767"><ele>3.0</ele><time>2026-05-02T11:00:00.916Z</time></trkpt><trkpt lat="44.379463820791095" lon="12.088980777788878"><ele>2.6666666666666665</ele><time>2026-05-02T11:00:01.916Z</time></trkpt><trkpt lat="44.379371090716724" lon="12.089245079306636"><ele>2.333333333333333</ele><time>2026-05-02T11:00:02.916Z</time></trkpt><trkpt lat="44.37928190598718" lon="12.089511534256143"><ele>2.0</ele><time>2026-05-02T11:00:03.916Z</time></trkpt><trkpt lat="44.379197262027795" lon="12.089768314073698"><ele>2.333333333333333</ele><time>2026-05-02T11:00:04.916Z</time></trkpt><trkpt lat="44.37910237223599" lon="12.090023113217978"><ele>2.6666666666666665</ele><time>2026-05-02T11:00:05.916Z</time></trkpt><trkpt lat="44.379010793369766" lon="12.090273800199796"><ele>3.0</ele><time>2026-05-02T11:00:06.916Z</time></trkpt><trkpt lat="44.378914077605735" lon="12.090524950722187"><ele>2.3333333333333335</ele><time>2026-05-02T11:00:07.916Z</time></trkpt><trkpt lat="44.3788102807749" lon="12.090773277294115"><ele>1.6666666666666665</ele><time>2026-05-02T11:00:08.916Z</time></trkpt><trkpt lat="44.378706270874424" lon="12.091015017697469"><ele>1.0</ele><time>2026-05-02T11:00:09.916Z</time></trkpt><trkpt lat="44.37860311614328" lon="12.091262156006687"><ele>1.0</ele><time>2026-05-02T11:00:10.916Z</time></trkpt><trkpt lat="44.37850073248169" lon="12.091509555297927"><ele>1.0</ele><time>2026-05-02T11:00:11.916Z</time></trkpt><trkpt lat="44.37840227635679" lon="12.091752134235657"><ele>1.0</ele><time>2026-05-02T11:00:12.916Z</time></trkpt><trkpt lat="44.378305763233236" lon="12.091986743297735"><ele>1.0</ele><time>2026-05-02T11:00:13.913Z</time></trkpt><trkpt lat="44.37820776520405" lon="12.09221805461857"><ele>1.0</ele><time>2026-05-02T11:00:14.913Z</time></trkpt><trkpt lat="44.37810678862877" lon="12.092446125902008"><ele>1.0</ele><time>2026-05-02T11:00:15.913Z</time></trkpt><trkpt lat="44.37800551269528" lon="12.092679003201193"><ele>1.0</ele><time>2026-05-02T11:00:16.914Z</time></trkpt><trkpt lat="44.37790815587098" lon="12.09291815266554"><ele>1.0</ele><time>2026-05-02T11:00:17.914Z</time></trkpt><trkpt lat="44.377810540662466" lon="12.093161405655515"><ele>1.0</ele><time>2026-05-02T11:00:18.914Z</time></trkpt><trkpt lat="44.37771246282254" lon="12.093408193719908"><ele>0.6666666666666666</ele><time>2026-05-02T11:00:19.914Z</time></trkpt><trkpt lat="44.37761398295631" lon="12.093648685721105"><ele>0.3333333333333333</ele><time>2026-05-02T11:00:20.913Z</time></trkpt><trkpt lat="44.37751455741061" lon="12.093882032384917"><ele>0.0</ele><time>2026-05-02T11:00:21.913Z</time></trkpt><trkpt lat="44.37741207388315" lon="12.094108211480485"><ele>0.6666666666666666</ele><time>2026-05-02T11:00:22.913Z</time></trkpt><trkpt lat="44.37731497345527" lon="12.094345623061733"><ele>1.3333333333333333</ele><time>2026-05-02T11:00:23.914Z</time></trkpt><trkpt lat="44.37721663641443" lon="12.094586549885864"><ele>2.0</ele><time>2026-05-02T11:00:24.914Z</time></trkpt><trkpt lat="44.37711880932024" lon="12.094826246901912"><ele>2.6666666666666665</ele><time>2026-05-02T11:00:25.913Z</time></trkpt><trkpt lat="44.37701825280478" lon="12.095062236479892"><ele>3.333333333333333</ele><time>2026-05-02T11:00:26.914Z</time></trkpt><trkpt lat="44.3769174664303" lon="12.095288003331754"><ele>4.0</ele><time>2026-05-02T11:00:27.914Z</time></trkpt><trkpt lat="44.37681885634931" lon="12.095518515740737"><ele>4.0</ele><time>2026-05-02T11:00:28.914Z</time></trkpt><trkpt lat="44.376724657289365" lon="12.095744209343682"><ele>4.0</ele><time>2026-05-02T11:00:29.914Z</time></trkpt><trkpt lat="44.376626052653776" lon="12.095980918686514"><ele>4.0</ele><time>2026-05-02T11:00:30.914Z</time></trkpt><trkpt lat="44.37652988296162" lon="12.096220004710302"><ele>3.333333333333333</ele><time>2026-05-02T11:00:31.914Z</time></trkpt><trkpt lat="44.37643535336109" lon="12.096463269042665"><ele>2.6666666666666665</ele><time>2026-05-02T11:00:32.914Z</time></trkpt><trkpt lat="44.37633819422164" lon="12.096712621442977"><ele>2.0</ele><time>2026-05-02T11:00:33.914Z</time></trkpt><trkpt lat="44.37623848336905" lon="12.096958791893096"><ele>2.0</ele><time>2026-05-02T11:00:34.914Z</time></trkpt><trkpt lat="44.3761379050326" lon="12.09720656304045"><ele>2.0</ele><time>2026-05-02T11:00:35.914Z</time></trkpt><trkpt lat="44.37603783402682" lon="12.09745667829933"><ele>2.0</ele><time>2026-05-02T11:00:36.914Z</time></trkpt><trkpt lat="44.37594104267957" lon="12.097702878966835"><ele>2.0</ele><time>2026-05-02T11:00:37.914Z</time></trkpt><trkpt lat="44.375846094275566" lon="12.097951138129286"><ele>2.0</ele><time>2026-05-02T11:00:38.914Z</time></trkpt><trkpt lat="44.37575092455968" lon="12.09819624344071"><ele>2.0</ele><time>2026-05-02T11:00:39.914Z</time></trkpt><trkpt lat="44.37565635072637" lon="12.09844371224599"><ele>2.0</ele><time>2026-05-02T11:00:40.914Z</time></trkpt><trkpt lat="44.37556035570746" lon="12.098692483298581"><ele>2.0</ele><time>2026-05-02T11:00:41.914Z</time></trkpt><trkpt lat="44.3754645742653" lon="12.098941674248804"><ele>2.0</ele><time>2026-05-02T11:00:42.914Z</time></trkpt><trkpt lat="44.375368550683504" lon="12.099193864066605"><ele>2.0</ele><time>2026-05-02T11:00:43.914Z</time></trkpt><trkpt lat="44.375268272092114" lon="12.099441315235039"><ele>2.0</ele><time>2026-05-02T11:00:44.914Z</time></trkpt><trkpt lat="44.375170142403626" lon="12.099686236658723"><ele>2.0</ele><time>2026-05-02T11:00:45.914Z</time></trkpt><trkpt lat="44.37507314120442" lon="12.09992516395839"><ele>2.0</ele><time>2026-05-02T11:00:46.914Z</time></trkpt><trkpt lat="44.374976379902975" lon="12.100166780046582"><ele>2.0</ele><time>2026-05-02T11:00:47.914Z</time></trkpt><trkpt lat="44.37487715746891" lon="12.100406009143295"><ele>2.0</ele><time>2026-05-02T11:00:48.914Z</time></trkpt><trkpt lat="44.374779785577054" lon="12.100652289083785"><ele>1.3333333333333333</ele><time>2026-05-02T11:00:49.914Z</time></trkpt><trkpt lat="44.37468659560372" lon="12.100903246675122"><ele>0.6666666666666666</ele><time>2026-05-02T11:00:50.914Z</time></trkpt><trkpt lat="44.37459963943451" lon="12.101156929174897"><ele>0.0</ele><time>2026-05-02T11:00:51.914Z</time></trkpt><trkpt lat="44.374515502057946" lon="12.10141131619104"><ele>0.3333333333333333</ele><time>2026-05-02T11:00:52.914Z</time></trkpt><trkpt lat="44.374433726680074" lon="12.10166152053259"><ele>0.6666666666666666</ele><time>2026-05-02T11:00:53.914Z</time></trkpt><trkpt lat="44.374357835067805" lon="12.101894080127813"><ele>1.0</ele><time>2026-05-02T11:00:54.914Z</time></trkpt><trkpt lat="44.37428130793117" lon="12.102123556880496"><ele>1.0</ele><time>2026-05-02T11:00:55.914Z</time></trkpt><trkpt lat="44.3742037853799" lon="12.102351485528308"><ele>1.0</ele><time>2026-05-02T11:00:56.914Z</time></trkpt><trkpt lat="44.37412599686095" lon="12.10256796863438"><ele>1.0</ele><time>2026-05-02T11:00:57.914Z</time></trkpt><trkpt lat="44.374051841380954" lon="12.102778631907544"><ele>1.0</ele><time>2026-05-02T11:00:58.914Z</time></trkpt><trkpt lat="44.37398116620471" lon="12.102994589270219"><ele>1.0</ele><time>2026-05-02T11:00:59.914Z</time></trkpt><trkpt lat="44.37391385140576" lon="12.103213433348088"><ele>1.0</ele><time>2026-05-02T11:01:00.914Z</time></trkpt><trkpt lat="44.37385516398367" lon="12.103441817867555"><ele>1.3333333333333333</ele><time>2026-05-02T11:01:01.914Z</time></trkpt><trkpt lat="44.373812287139685" lon="12.10368484274727"><ele>1.6666666666666665</ele><time>2026-05-02T11:01:02.914Z</time></trkpt><trkpt lat="44.37378139000086" lon="12.103931051528035"><ele>2.0</ele><time>2026-05-02T11:01:03.914Z</time></trkpt><trkpt lat="44.37376539653998" lon="12.104168929747749"><ele>2.0</ele><time>2026-05-02T11:01:04.914Z</time></trkpt><trkpt lat="44.37375522371801" lon="12.104394552063363"><ele>2.0</ele><time>2026-05-02T11:01:05.914Z</time></trkpt><trkpt lat="44.37374047651729" lon="12.104606084978153"><ele>2.0</ele><time>2026-05-02T11:01:06.914Z</time></trkpt><trkpt lat="44.373709377485355" lon="12.104819458544513"><ele>2.333333333333333</ele><time>2026-05-02T11:01:07.914Z</time></trkpt><trkpt lat="44.37366093103771" lon="12.105028564574079"><ele>2.6666666666666665</ele><time>2026-05-02T11:01:08.914Z</time></trkpt><trkpt lat="44.37360734574345" lon="12.10523732204942"><ele>3.0</ele><time>2026-05-02T11:01:09.914Z</time></trkpt><trkpt lat="44.373559706229514" lon="12.10544433528218"><ele>3.0</ele><time>2026-05-02T11:01:10.914Z</time></trkpt><trkpt lat="44.37353019244782" lon="12.105655109795897"><ele>3.0</ele><time>2026-05-02T11:01:11.914Z</time></trkpt><trkpt lat="44.37351129424318" lon="12.105860423251139"><ele>3.0</ele><time>2026-05-02T11:01:12.914Z</time></trkpt><trkpt lat="44.37349877080749" lon="12.10606204066646"><ele>3.0</ele><time>2026-05-02T11:01:13.914Z</time></trkpt><trkpt lat="44.373480041227886" lon="12.106257498354731"><ele>3.0</ele><time>2026-05-02T11:01:14.914Z</time></trkpt><trkpt lat="44.373437928745275" lon="12.106455655362168"><ele>3.0</ele><time>2026-05-02T11:01:15.914Z</time></trkpt><trkpt lat="44.3733823953811" lon="12.106650468796515"><ele>3.0</ele><time>2026-05-02T11:01:16.914Z</time></trkpt><trkpt lat="44.37330276563084" lon="12.106833627302496"><ele>3.0</ele><time>2026-05-02T11:01:17.914Z</time></trkpt><trkpt lat="44.373201016375916" lon="12.106993896449984"><ele>3.0</ele><time>2026-05-02T11:01:18.914Z</time></trkpt><trkpt lat="44.373090274989934" lon="12.107144947517432"><ele>3.0</ele><time>2026-05-02T11:01:19.914Z</time></trkpt><trkpt lat="44.37299126552498" lon="12.107302410454071"><ele>2.6666666666666665</ele><time>2026-05-02T11:01:20.914Z</time></trkpt><trkpt lat="44.372901653616644" lon="12.107493405442463"><ele>2.333333333333333</ele><time>2026-05-02T11:01:21.914Z</time></trkpt><trkpt lat="44.372822445146" lon="12.107696649985504"><ele>2.0</ele><time>2026-05-02T11:01:22.914Z</time></trkpt><trkpt lat="44.372731587321645" lon="12.10790272340642"><ele>2.0</ele><time>2026-05-02T11:01:23.914Z</time></trkpt><trkpt lat="44.372635019243575" lon="12.108092348799076"><ele>2.0</ele><time>2026-05-02T11:01:24.914Z</time></trkpt><trkpt lat="44.37254546602675" lon="12.108283035939147"><ele>2.0</ele><time>2026-05-02T11:01:25.914Z</time></trkpt><trkpt lat="44.37247959957759" lon="12.108495189041315"><ele>2.0</ele><time>2026-05-02T11:01:26.914Z</time></trkpt><trkpt lat="44.37244626042533" lon="12.108713116842408"><ele>2.0</ele><time>2026-05-02T11:01:27.914Z</time></trkpt><trkpt lat="44.37243835624208" lon="12.108945148076243"><ele>2.0</ele><time>2026-05-02T11:01:28.914Z</time></trkpt><trkpt lat="44.372451977631584" lon="12.109181852417244"><ele>2.333333333333333</ele><time>2026-05-02T11:01:29.914Z</time></trkpt><trkpt lat="44.37246382207417" lon="12.109415835554184"><ele>2.6666666666666665</ele><time>2026-05-02T11:01:30.914Z</time></trkpt><trkpt lat="44.37246222234469" lon="12.109641401643765"><ele>3.0</ele><time>2026-05-02T11:01:31.914Z</time></trkpt><trkpt lat="44.37246301535536" lon="12.109861972847915"><ele>2.6666666666666665</ele><time>2026-05-02T11:01:32.914Z</time></trkpt><trkpt lat="44.372475268670485" lon="12.11007936266782"><ele>2.333333333333333</ele><time>2026-05-02T11:01:33.914Z</time></trkpt><trkpt lat="44.37250297455408" lon="12.110295061685338"><ele>2.0</ele><time>2026-05-02T11:01:34.914Z</time></trkpt><trkpt lat="44.37254236809342" lon="12.110513951937419"><ele>2.0</ele><time>2026-05-02T11:01:35.914Z</time></trkpt><trkpt lat="44.37260515782516" lon="12.110713485983432"><ele>2.0</ele><time>2026-05-02T11:01:36.914Z</time></trkpt><trkpt lat="44.372694433674226" lon="12.110911353838116"><ele>2.0</ele><time>2026-05-02T11:01:37.914Z</time></trkpt><trkpt lat="44.372814609708634" lon="12.111084588382097"><ele>1.6666666666666665</ele><time>2026-05-02T11:01:38.914Z</time></trkpt><trkpt lat="44.37295654548675" lon="12.111234104061085"><ele>1.3333333333333333</ele><time>2026-05-02T11:01:39.914Z</time></trkpt><trkpt lat="44.37311431753996" lon="12.111364831947954"><ele>1.0</ele><time>2026-05-02T11:01:40.914Z</time></trkpt><trkpt lat="44.37327465709945" lon="12.111495762026463"><ele>1.3333333333333333</ele><time>2026-05-02T11:01:41.914Z</time></trkpt><trkpt lat="44.373433286974745" lon="12.11163552850053"><ele>1.6666666666666665</ele><time>2026-05-02T11:01:42.914Z</time></trkpt><trkpt lat="44.37358023117426" lon="12.111778211050856"><ele>2.0</ele><time>2026-05-02T11:01:43.914Z</time></trkpt><trkpt lat="44.37370553206112" lon="12.11191663215564"><ele>2.0</ele><time>2026-05-02T11:01:44.913Z</time></trkpt><trkpt lat="44.37381905949415" lon="12.11206932240011"><ele>2.0</ele><time>2026-05-02T11:01:45.913Z</time></trkpt><trkpt lat="44.37393301474372" lon="12.112242154997912"><ele>2.0</ele><time>2026-05-02T11:01:46.913Z</time></trkpt><trkpt lat="44.374038431618345" lon="12.112442640923568"><ele>2.0</ele><time>2026-05-02T11:01:47.913Z</time></trkpt><trkpt lat="44.3741279952601" lon="12.112677326971466"><ele>2.0</ele><time>2026-05-02T11:01:48.913Z</time></trkpt><trkpt lat="44.37420549558683" lon="12.11292187710685"><ele>2.0</ele><time>2026-05-02T11:01:49.913Z</time></trkpt><trkpt lat="44.37427896389521" lon="12.113172201189217"><ele>2.0</ele><time>2026-05-02T11:01:50.913Z</time></trkpt><trkpt lat="44.374350123306286" lon="12.113412861839079"><ele>2.0</ele><time>2026-05-02T11:01:51.913Z</time></trkpt><trkpt lat="44.37442088373595" lon="12.113641616092153"><ele>2.0</ele><time>2026-05-02T11:01:52.913Z</time></trkpt><trkpt lat="44.374484520920866" lon="12.113874322078587"><ele>2.333333333333333</ele><time>2026-05-02T11:01:53.913Z</time></trkpt><trkpt lat="44.374542231999285" lon="12.114116722556043"><ele>2.6666666666666665</ele><time>2026-05-02T11:01:54.913Z</time></trkpt><trkpt lat="44.37459118061519" lon="12.114358631588821"><ele>3.0</ele><time>2026-05-02T11:01:55.913Z</time></trkpt><trkpt lat="44.374632311554834" lon="12.114602434612943"><ele>3.0</ele><time>2026-05-02T11:01:56.913Z</time></trkpt><trkpt lat="44.37464693572033" lon="12.114853233974397"><ele>3.0</ele><time>2026-05-02T11:01:57.913Z</time></trkpt><trkpt lat="44.374688449977576" lon="12.115097276367477"><ele>3.0</ele><time>2026-05-02T11:01:58.913Z</time></trkpt><trkpt lat="44.37471212717632" lon="12.115353469165633"><ele>2.3333333333333335</ele><time>2026-05-02T11:01:59.913Z</time></trkpt><trkpt lat="44.37474023700095" lon="12.115612225807187"><ele>1.6666666666666665</ele><time>2026-05-02T11:02:00.913Z</time></trkpt><trkpt lat="44.37477127726401" lon="12.115875516713269"><ele>1.0</ele><time>2026-05-02T11:02:01.913Z</time></trkpt><trkpt lat="44.37481174116008" lon="12.116136723345953"><ele>1.0</ele><time>2026-05-02T11:02:02.913Z</time></trkpt><trkpt lat="44.374865247247065" lon="12.11640177498603"><ele>1.0</ele><time>2026-05-02T11:02:03.913Z</time></trkpt><trkpt lat="44.374926892280186" lon="12.116663437167658"><ele>1.0</ele><time>2026-05-02T11:02:04.913Z</time></trkpt><trkpt lat="44.375002742914305" lon="12.116921700799006"><ele>1.0</ele><time>2026-05-02T11:02:05.913Z</time></trkpt><trkpt lat="44.37509145023341" lon="12.117180894285404"><ele>1.0</ele><time>2026-05-02T11:02:06.913Z</time></trkpt><trkpt lat="44.37518853037149" lon="12.117431173898312"><ele>1.0</ele><time>2026-05-02T11:02:07.913Z</time></trkpt><trkpt lat="44.375289203097736" lon="12.117669109380387"><ele>1.0</ele><time>2026-05-02T11:02:08.913Z</time></trkpt><trkpt lat="44.375388081881646" lon="12.11789615229975"><ele>1.0</ele><time>2026-05-02T11:02:09.913Z</time></trkpt><trkpt lat="44.37548399114266" lon="12.11812288594906"><ele>1.0</ele><time>2026-05-02T11:02:10.913Z</time></trkpt><trkpt lat="44.37557120813335" lon="12.118355685444904"><ele>1.3333333333333333</ele><time>2026-05-02T11:02:11.913Z</time></trkpt><trkpt lat="44.37563528046411" lon="12.118600933375651"><ele>1.6666666666666665</ele><time>2026-05-02T11:02:12.913Z</time></trkpt><trkpt lat="44.37566638872193" lon="12.118860665782126"><ele>2.0</ele><time>2026-05-02T11:02:13.913Z</time></trkpt><trkpt lat="44.3757021686632" lon="12.119110779316017"><ele>2.333333333333333</ele><time>2026-05-02T11:02:14.913Z</time></trkpt><trkpt lat="44.37573283626001" lon="12.119342836281582"><ele>2.6666666666666665</ele><time>2026-05-02T11:02:15.913Z</time></trkpt><trkpt lat="44.37577295459986" lon="12.11954824288951"><ele>3.0</ele><time>2026-05-02T11:02:16.913Z</time></trkpt><trkpt lat="44.375793598484584" lon="12.11974089051817"><ele>3.0</ele><time>2026-05-02T11:02:17.913Z</time></trkpt><trkpt lat="44.37580554868555" lon="12.119915830007217"><ele>3.0</ele><time>2026-05-02T11:02:18.913Z</time></trkpt><trkpt lat="44.3758062665864" lon="12.120088004602279"><ele>3.0</ele><time>2026-05-02T11:02:19.911Z</time></trkpt><trkpt lat="44.375747251662375" lon="12.120255820732387"><ele>3.0</ele><time>2026-05-02T11:02:20.911Z</time></trkpt><trkpt lat="44.375659771631234" lon="12.120411510821269"><ele>3.0</ele><time>2026-05-02T11:02:21.911Z</time></trkpt><trkpt lat="44.3755588951164" lon="12.120587801194453"><ele>3.0</ele><time>2026-05-02T11:02:22.912Z</time></trkpt><trkpt lat="44.375462293696245" lon="12.120765621564168"><ele>3.0</ele><time>2026-05-02T11:02:23.912Z</time></trkpt><trkpt lat="44.37535404240255" lon="12.12093134957573"><ele>2.6666666666666665</ele><time>2026-05-02T11:02:24.912Z</time></trkpt><trkpt lat="44.37524827359327" lon="12.121105088033303"><ele>2.333333333333333</ele><time>2026-05-02T11:02:25.911Z</time></trkpt><trkpt lat="44.3751411785267" lon="12.12128600301389"><ele>2.0</ele><time>2026-05-02T11:02:26.911Z</time></trkpt><trkpt lat="44.375032448672016" lon="12.121466678386517"><ele>2.0</ele><time>2026-05-02T11:02:27.911Z</time></trkpt><trkpt lat="44.37492250558999" lon="12.121645517228696"><ele>2.0</ele><time>2026-05-02T11:02:28.911Z</time></trkpt><trkpt lat="44.374819183577024" lon="12.121814769214456"><ele>2.0</ele><time>2026-05-02T11:02:29.911Z</time></trkpt><trkpt lat="44.374717416812" lon="12.121986536933582"><ele>2.0</ele><time>2026-05-02T11:02:30.911Z</time></trkpt><trkpt lat="44.37461561068211" lon="12.122156823793501"><ele>2.0</ele><time>2026-05-02T11:02:31.912Z</time></trkpt><trkpt lat="44.37451028144362" lon="12.12233019794929"><ele>2.0</ele><time>2026-05-02T11:02:32.911Z</time></trkpt><trkpt lat="44.37440565207519" lon="12.122506114133703"><ele>2.0</ele><time>2026-05-02T11:02:33.911Z</time></trkpt><trkpt lat="44.37430130896144" lon="12.122681324783617"><ele>2.0</ele><time>2026-05-02T11:02:34.911Z</time></trkpt><trkpt lat="44.37419834930409" lon="12.122857288064665"><ele>2.0</ele><time>2026-05-02T11:02:35.911Z</time></trkpt><trkpt lat="44.3740905275121" lon="12.123038713681764"><ele>2.0</ele><time>2026-05-02T11:02:36.911Z</time></trkpt><trkpt lat="44.3739816843676" lon="12.12322480413338"><ele>2.0</ele><time>2026-05-02T11:02:37.911Z</time></trkpt><trkpt lat="44.37387390337847" lon="12.123408225112872"><ele>2.0</ele><time>2026-05-02T11:02:38.911Z</time></trkpt><trkpt lat="44.373771757940425" lon="12.123580010269523"><ele>2.0</ele><time>2026-05-02T11:02:39.911Z</time></trkpt><trkpt lat="44.37367065650266" lon="12.123761553378303"><ele>2.0</ele><time>2026-05-02T11:02:40.911Z</time></trkpt><trkpt lat="44.373572103394565" lon="12.123952513179"><ele>2.0</ele><time>2026-05-02T11:02:41.911Z</time></trkpt><trkpt lat="44.37347351043179" lon="12.12414296538177"><ele>2.333333333333333</ele><time>2026-05-02T11:02:42.911Z</time></trkpt><trkpt lat="44.37337729729535" lon="12.124340765508723"><ele>2.6666666666666665</ele><time>2026-05-02T11:02:43.911Z</time></trkpt><trkpt lat="44.373282726965" lon="12.124540908475288"><ele>3.0</ele><time>2026-05-02T11:02:44.911Z</time></trkpt><trkpt lat="44.37319207116732" lon="12.124743939581963"><ele>3.0</ele><time>2026-05-02T11:02:45.911Z</time></trkpt><trkpt lat="44.3731001823469" lon="12.124945755997581"><ele>3.0</ele><time>2026-05-02T11:02:46.911Z</time></trkpt><trkpt lat="44.3730066390115" lon="12.12515343475634"><ele>3.0</ele><time>2026-05-02T11:02:47.911Z</time></trkpt><trkpt lat="44.37291267375265" lon="12.12536724046829"><ele>3.0</ele><time>2026-05-02T11:02:48.911Z</time></trkpt><trkpt lat="44.372815821545174" lon="12.125586389459144"><ele>3.0</ele><time>2026-05-02T11:02:49.911Z</time></trkpt><trkpt lat="44.3727256315703" lon="12.125806056709639"><ele>3.0</ele><time>2026-05-02T11:02:50.911Z</time></trkpt><trkpt lat="44.37264278078614" lon="12.126019382407987"><ele>3.0</ele><time>2026-05-02T11:02:51.911Z</time></trkpt><trkpt lat="44.372558642484194" lon="12.126227928167662"><ele>3.0</ele><time>2026-05-02T11:02:52.911Z</time></trkpt><trkpt lat="44.37247261403022" lon="12.126433709107873"><ele>3.0</ele><time>2026-05-02T11:02:53.911Z</time></trkpt><trkpt lat="44.37237876602791" lon="12.12663840898901"><ele>3.0</ele><time>2026-05-02T11:02:54.911Z</time></trkpt><trkpt lat="44.37227954154458" lon="12.126847924857278"><ele>3.0</ele><time>2026-05-02T11:02:55.911Z</time></trkpt><trkpt lat="44.372180890938935" lon="12.12704863419603"><ele>3.0</ele><time>2026-05-02T11:02:56.911Z</time></trkpt><trkpt lat="44.37208812429313" lon="12.127248812062309"><ele>3.333333333333333</ele><time>2026-05-02T11:02:57.911Z</time></trkpt><trkpt lat="44.371996588677206" lon="12.12744449146805"><ele>3.6666666666666665</ele><time>2026-05-02T11:02:58.911Z</time></trkpt><trkpt lat="44.37190318470688" lon="12.127638745655737"><ele>4.0</ele><time>2026-05-02T11:02:59.911Z</time></trkpt><trkpt lat="44.37181055557823" lon="12.127836908915384"><ele>4.0</ele><time>2026-05-02T11:03:00.911Z</time></trkpt><trkpt lat="44.37171552913829" lon="12.128037692665536"><ele>4.0</ele><time>2026-05-02T11:03:01.911Z</time></trkpt><trkpt lat="44.371621418422734" lon="12.12824064109648"><ele>4.0</ele><time>2026-05-02T11:03:02.911Z</time></trkpt><trkpt lat="44.37152717107877" lon="12.128450003116969"><ele>4.0</ele><time>2026-05-02T11:03:03.911Z</time></trkpt><trkpt lat="44.37143435529618" lon="12.128659688857939"><ele>4.0</ele><time>2026-05-02T11:03:04.911Z</time></trkpt><trkpt lat="44.37134486805357" lon="12.128871944947134"><ele>4.0</ele><time>2026-05-02T11:03:05.911Z</time></trkpt><trkpt lat="44.37126101420152" lon="12.129088667615724"><ele>4.0</ele><time>2026-05-02T11:03:06.911Z</time></trkpt><trkpt lat="44.37117625966606" lon="12.1293099207197"><ele>4.0</ele><time>2026-05-02T11:03:07.911Z</time></trkpt><trkpt lat="44.37109594865573" lon="12.129529783234178"><ele>4.0</ele><time>2026-05-02T11:03:08.911Z</time></trkpt><trkpt lat="44.37101630321233" lon="12.129741804426644"><ele>4.0</ele><time>2026-05-02T11:03:09.911Z</time></trkpt><trkpt lat="44.37094219101264" lon="12.129952354451156"><ele>4.0</ele><time>2026-05-02T11:03:10.911Z</time></trkpt><trkpt lat="44.370876698175564" lon="12.130169404987118"><ele>4.0</ele><time>2026-05-02T11:03:11.911Z</time></trkpt><trkpt lat="44.37081085999881" lon="12.13038963126418"><ele>4.0</ele><time>2026-05-02T11:03:12.911Z</time></trkpt><trkpt lat="44.37075021410368" lon="12.13060880248744"><ele>4.0</ele><time>2026-05-02T11:03:13.911Z</time></trkpt><trkpt lat="44.37069016211019" lon="12.130825901393147"><ele>4.0</ele><time>2026-05-02T11:03:14.911Z</time></trkpt><trkpt lat="44.37062250561619" lon="12.131022111649438"><ele>3.75</ele><time>2026-05-02T11:03:15.911Z</time></trkpt><trkpt lat="44.37056201336474" lon="12.13120949612338"><ele>3.5</ele><time>2026-05-02T11:03:16.911Z</time></trkpt><trkpt lat="44.37049306169452" lon="12.131386325074399"><ele>3.25</ele><time>2026-05-02T11:03:17.911Z</time></trkpt><trkpt lat="44.37042005743818" lon="12.13156880590471"><ele>3.0</ele><time>2026-05-02T11:03:18.911Z</time></trkpt><trkpt lat="44.370339220336355" lon="12.131757133218004"><ele>2.75</ele><time>2026-05-02T11:03:19.911Z</time></trkpt><trkpt lat="44.37025871191378" lon="12.13194189636766"><ele>2.5</ele><time>2026-05-02T11:03:20.911Z</time></trkpt><trkpt lat="44.37018237354141" lon="12.13212090494107"><ele>2.25</ele><time>2026-05-02T11:03:21.911Z</time></trkpt><trkpt lat="44.370115031153205" lon="12.132282119987538"><ele>2.0</ele><time>2026-05-02T11:03:22.911Z</time></trkpt><trkpt lat="44.37005923575541" lon="12.132434431956138"><ele>2.0</ele><time>2026-05-02T11:03:23.911Z</time></trkpt><trkpt lat="44.37000033126713" lon="12.132575319491396"><ele>2.0</ele><time>2026-05-02T11:03:24.911Z</time></trkpt><trkpt lat="44.36994642697199" lon="12.132702911669325"><ele>2.0</ele><time>2026-05-02T11:03:25.911Z</time></trkpt><trkpt lat="44.3698962914131" lon="12.132832321595759"><ele>2.0</ele><time>2026-05-02T11:03:26.911Z</time></trkpt><trkpt lat="44.369846726318656" lon="12.132962600949961"><ele>2.0</ele><time>2026-05-02T11:03:27.911Z</time></trkpt><trkpt lat="44.369797947585596" lon="12.133106377362276"><ele>2.0</ele><time>2026-05-02T11:03:28.911Z</time></trkpt><trkpt lat="44.36974500071132" lon="12.133263247578537"><ele>2.0</ele><time>2026-05-02T11:03:29.911Z</time></trkpt><trkpt lat="44.36969085993427" lon="12.133427874728566"><ele>2.0</ele><time>2026-05-02T11:03:30.911Z</time></trkpt><trkpt lat="44.369637835195356" lon="12.133599856969006"><ele>2.0</ele><time>2026-05-02T11:03:31.911Z</time></trkpt><trkpt lat="44.36958547388526" lon="12.133783455272596"><ele>2.333333333333333</ele><time>2026-05-02T11:03:32.911Z</time></trkpt><trkpt lat="44.36953516056755" lon="12.133980926482053"><ele>2.6666666666666665</ele><time>2026-05-02T11:03:33.911Z</time></trkpt><trkpt lat="44.36948397883912" lon="12.134188198140311"><ele>3.0</ele><time>2026-05-02T11:03:34.911Z</time></trkpt><trkpt lat="44.369427547110206" lon="12.134402088742485"><ele>3.0</ele><time>2026-05-02T11:03:35.911Z</time></trkpt><trkpt lat="44.369357022512766" lon="12.134623683500761"><ele>3.0</ele><time>2026-05-02T11:03:36.911Z</time></trkpt><trkpt lat="44.36927281559463" lon="12.134846315182552"><ele>3.0</ele><time>2026-05-02T11:03:37.911Z</time></trkpt><trkpt lat="44.369192026294726" lon="12.135059354235487"><ele>3.0</ele><time>2026-05-02T11:03:38.911Z</time></trkpt><trkpt lat="44.36910666301747" lon="12.135261335060827"><ele>3.0</ele><time>2026-05-02T11:03:39.911Z</time></trkpt><trkpt lat="44.369021535982434" lon="12.13546248149586"><ele>3.0</ele><time>2026-05-02T11:03:40.911Z</time></trkpt><trkpt lat="44.368938577010205" lon="12.135663748655126"><ele>3.333333333333333</ele><time>2026-05-02T11:03:41.911Z</time></trkpt><trkpt lat="44.36885748646592" lon="12.135865298971535"><ele>3.6666666666666665</ele><time>2026-05-02T11:03:42.911Z</time></trkpt><trkpt lat="44.36877986504719" lon="12.136064062104147"><ele>4.0</ele><time>2026-05-02T11:03:43.911Z</time></trkpt><trkpt lat="44.368702201426395" lon="12.136255494730468"><ele>4.0</ele><time>2026-05-02T11:03:44.911Z</time></trkpt><trkpt lat="44.36862552849077" lon="12.136446182485155"><ele>4.0</ele><time>2026-05-02T11:03:45.911Z</time></trkpt><trkpt lat="44.36855027022011" lon="12.136636632588443"><ele>4.0</ele><time>2026-05-02T11:03:46.911Z</time></trkpt><trkpt lat="44.36847525688483" lon="12.136827038709379"><ele>4.2</ele><time>2026-05-02T11:03:47.911Z</time></trkpt><trkpt lat="44.368407114424876" lon="12.136993746345677"><ele>4.4</ele><time>2026-05-02T11:03:48.911Z</time></trkpt><trkpt lat="44.36834720385875" lon="12.137130138406791"><ele>4.6</ele><time>2026-05-02T11:03:49.911Z</time></trkpt><trkpt lat="44.36829509667594" lon="12.13724187835693"><ele>4.8</ele><time>2026-05-02T11:03:50.911Z</time></trkpt><trkpt lat="44.368248719803766" lon="12.137329084436905"><ele>5.0</ele><time>2026-05-02T11:03:51.911Z</time></trkpt><trkpt lat="44.3681910396863" lon="12.137383259731484"><ele>5.0</ele><time>2026-05-02T11:03:52.911Z</time></trkpt><trkpt lat="44.36821116969692" lon="12.13764779357687"><ele>5.0</ele><time>2026-05-02T11:03:54.911Z</time></trkpt><trkpt lat="44.36825506909619" lon="12.13779537393031"><ele>5.0</ele><time>2026-05-02T11:03:55.911Z</time></trkpt><trkpt lat="44.36831927700801" lon="12.137963331475941"><ele>5.0</ele><time>2026-05-02T11:03:56.911Z</time></trkpt><trkpt lat="44.368392112008394" lon="12.138152718940255"><ele>4.666666666666667</ele><time>2026-05-02T11:03:57.911Z</time></trkpt><trkpt lat="44.36846975470616" lon="12.138359002147316"><ele>4.333333333333333</ele><time>2026-05-02T11:03:58.911Z</time></trkpt><trkpt lat="44.3685523984362" lon="12.138578297195426"><ele>4.0</ele><time>2026-05-02T11:03:59.911Z</time></trkpt><trkpt lat="44.3686327560806" lon="12.13881007068313"><ele>4.0</ele><time>2026-05-02T11:04:00.911Z</time></trkpt><trkpt lat="44.368705725997245" lon="12.139043271048806"><ele>4.0</ele><time>2026-05-02T11:04:01.911Z</time></trkpt><trkpt lat="44.368784000908626" lon="12.139281064941072"><ele>4.0</ele><time>2026-05-02T11:04:02.911Z</time></trkpt><trkpt lat="44.36886505350321" lon="12.139520215842575"><ele>4.0</ele><time>2026-05-02T11:04:03.911Z</time></trkpt><trkpt lat="44.368940234084185" lon="12.139767542517001"><ele>4.0</ele><time>2026-05-02T11:04:04.911Z</time></trkpt><trkpt lat="44.36901082142933" lon="12.140021528561746"><ele>4.0</ele><time>2026-05-02T11:04:05.911Z</time></trkpt><trkpt lat="44.36908040237017" lon="12.140278985029228"><ele>4.333333333333333</ele><time>2026-05-02T11:04:06.911Z</time></trkpt><trkpt lat="44.369146831500835" lon="12.14054678305027"><ele>4.666666666666667</ele><time>2026-05-02T11:04:07.911Z</time></trkpt><trkpt lat="44.36921354643258" lon="12.140808334175176"><ele>5.0</ele><time>2026-05-02T11:04:08.911Z</time></trkpt><trkpt lat="44.36928182478138" lon="12.141066109183097"><ele>5.666666666666667</ele><time>2026-05-02T11:04:09.911Z</time></trkpt><trkpt lat="44.36935310712811" lon="12.14131145479899"><ele>6.333333333333334</ele><time>2026-05-02T11:04:10.911Z</time></trkpt><trkpt lat="44.36943261965246" lon="12.141555281721296"><ele>7.0</ele><time>2026-05-02T11:04:11.911Z</time></trkpt><trkpt lat="44.36950235398155" lon="12.141804609283884"><ele>7.0</ele><time>2026-05-02T11:04:12.911Z</time></trkpt><trkpt lat="44.36959180056662" lon="12.142044925238327"><ele>7.0</ele><time>2026-05-02T11:04:13.911Z</time></trkpt><trkpt lat="44.36968678143179" lon="12.142280933352978"><ele>7.0</ele><time>2026-05-02T11:04:14.911Z</time></trkpt><trkpt lat="44.369799604852496" lon="12.142500958197795"><ele>6.666666666666667</ele><time>2026-05-02T11:04:15.911Z</time></trkpt><trkpt lat="44.36990509956903" lon="12.142728051756636"><ele>6.333333333333334</ele><time>2026-05-02T11:04:16.911Z</time></trkpt><trkpt lat="44.37001319696037" lon="12.142950726786346"><ele>6.0</ele><time>2026-05-02T11:04:17.911Z</time></trkpt><trkpt lat="44.37011146051452" lon="12.143183309192251"><ele>6.0</ele><time>2026-05-02T11:04:18.911Z</time></trkpt><trkpt lat="44.3702331504646" lon="12.143383043356948"><ele>6.0</ele><time>2026-05-02T11:04:19.911Z</time></trkpt><trkpt lat="44.37034381328244" lon="12.143583513757614"><ele>6.0</ele><time>2026-05-02T11:04:20.911Z</time></trkpt><trkpt lat="44.37045580827511" lon="12.143758641042796"><ele>6.333333333333334</ele><time>2026-05-02T11:04:21.911Z</time></trkpt><trkpt lat="44.37058578951537" lon="12.143914503164929"><ele>6.666666666666667</ele><time>2026-05-02T11:04:22.911Z</time></trkpt><trkpt lat="44.37072973135071" lon="12.144061039421262"><ele>7.0</ele><time>2026-05-02T11:04:23.911Z</time></trkpt><trkpt lat="44.37087035031253" lon="12.144217747101655"><ele>7.0</ele><time>2026-05-02T11:04:24.911Z</time></trkpt><trkpt lat="44.37102986546289" lon="12.144347256943437"><ele>7.0</ele><time>2026-05-02T11:04:25.91Z</time></trkpt><trkpt lat="44.37119396908998" lon="12.144484971179141"><ele>7.0</ele><time>2026-05-02T11:04:26.91Z</time></trkpt><trkpt lat="44.371355128663986" lon="12.144628429392764"><ele>6.333333333333334</ele><time>2026-05-02T11:04:27.91Z</time></trkpt><trkpt lat="44.37151694646867" lon="12.144775753915038"><ele>5.666666666666667</ele><time>2026-05-02T11:04:28.91Z</time></trkpt><trkpt lat="44.37167732840873" lon="12.144917600172034"><ele>5.0</ele><time>2026-05-02T11:04:29.91Z</time></trkpt><trkpt lat="44.371837755640406" lon="12.145065067884062"><ele>5.0</ele><time>2026-05-02T11:04:30.91Z</time></trkpt><trkpt lat="44.371999830536815" lon="12.145214025666453"><ele>5.0</ele><time>2026-05-02T11:04:31.909Z</time></trkpt><trkpt lat="44.37215745068168" lon="12.145367357642353"><ele>5.0</ele><time>2026-05-02T11:04:32.91Z</time></trkpt><trkpt lat="44.3723108724605" lon="12.145522530742458"><ele>4.333333333333334</ele><time>2026-05-02T11:04:33.91Z</time></trkpt><trkpt lat="44.3724620703733" lon="12.145680779969666"><ele>3.666666666666667</ele><time>2026-05-02T11:04:34.91Z</time></trkpt><trkpt lat="44.37261084292295" lon="12.145835565161013"><ele>3.0</ele><time>2026-05-02T11:04:35.91Z</time></trkpt><trkpt lat="44.372752939286634" lon="12.145991275662842"><ele>3.0</ele><time>2026-05-02T11:04:36.91Z</time></trkpt><trkpt lat="44.372896618109635" lon="12.14615365183152"><ele>3.0</ele><time>2026-05-02T11:04:37.909Z</time></trkpt><trkpt lat="44.37303913594053" lon="12.14631814020098"><ele>3.0</ele><time>2026-05-02T11:04:38.909Z</time></trkpt><trkpt lat="44.37318195317609" lon="12.146478625896563"><ele>3.666666666666667</ele><time>2026-05-02T11:04:39.909Z</time></trkpt><trkpt lat="44.37332203192625" lon="12.146638564990896"><ele>4.333333333333334</ele><time>2026-05-02T11:04:40.909Z</time></trkpt><trkpt lat="44.37346239521114" lon="12.146798089633549"><ele>5.0</ele><time>2026-05-02T11:04:41.909Z</time></trkpt><trkpt lat="44.37360813153958" lon="12.146959393234114"><ele>5.0</ele><time>2026-05-02T11:04:42.909Z</time></trkpt><trkpt lat="44.37375886520256" lon="12.147116089994903"><ele>5.0</ele><time>2026-05-02T11:04:43.909Z</time></trkpt><trkpt lat="44.37391476097231" lon="12.147270443076245"><ele>5.0</ele><time>2026-05-02T11:04:44.909Z</time></trkpt><trkpt lat="44.37407367200811" lon="12.147424215580465"><ele>4.666666666666667</ele><time>2026-05-02T11:04:45.909Z</time></trkpt><trkpt lat="44.374227182462946" lon="12.147573582969358"><ele>4.333333333333333</ele><time>2026-05-02T11:04:46.909Z</time></trkpt><trkpt lat="44.374380283025744" lon="12.147715809162907"><ele>4.0</ele><time>2026-05-02T11:04:47.909Z</time></trkpt><trkpt lat="44.37453300932656" lon="12.147861067078942"><ele>4.0</ele><time>2026-05-02T11:04:48.909Z</time></trkpt><trkpt lat="44.374687376615704" lon="12.148009608182909"><ele>4.0</ele><time>2026-05-02T11:04:49.909Z</time></trkpt><trkpt lat="44.37484150092433" lon="12.148167275890568"><ele>4.0</ele><time>2026-05-02T11:04:50.909Z</time></trkpt><trkpt lat="44.374995626616766" lon="12.148340546081421"><ele>4.0</ele><time>2026-05-02T11:04:51.909Z</time></trkpt><trkpt lat="44.37514558632131" lon="12.148523224040504"><ele>4.0</ele><time>2026-05-02T11:04:52.909Z</time></trkpt><trkpt lat="44.375292153774204" lon="12.148714407537991"><ele>4.0</ele><time>2026-05-02T11:04:53.909Z</time></trkpt><trkpt lat="44.37543633155644" lon="12.148911268584369"><ele>4.0</ele><time>2026-05-02T11:04:54.909Z</time></trkpt><trkpt lat="44.3755802040189" lon="12.149111786380098"><ele>4.0</ele><time>2026-05-02T11:04:55.909Z</time></trkpt><trkpt lat="44.37571609225502" lon="12.149314034344783"><ele>4.0</ele><time>2026-05-02T11:04:56.909Z</time></trkpt><trkpt lat="44.37584420379469" lon="12.14951588214664"><ele>4.0</ele><time>2026-05-02T11:04:57.909Z</time></trkpt><trkpt lat="44.375968194356574" lon="12.149725129762178"><ele>4.0</ele><time>2026-05-02T11:04:58.909Z</time></trkpt><trkpt lat="44.37608919256078" lon="12.149932669354405"><ele>4.0</ele><time>2026-05-02T11:04:59.909Z</time></trkpt><trkpt lat="44.37620779468383" lon="12.15013586644778"><ele>4.333333333333333</ele><time>2026-05-02T11:05:00.91Z</time></trkpt><trkpt lat="44.37632470291443" lon="12.150333375039526"><ele>4.666666666666667</ele><time>2026-05-02T11:05:01.91Z</time></trkpt><trkpt lat="44.37644417058907" lon="12.150527125844427"><ele>5.0</ele><time>2026-05-02T11:05:02.911Z</time></trkpt><trkpt lat="44.37656739179176" lon="12.15071839313422"><ele>4.333333333333334</ele><time>2026-05-02T11:05:03.912Z</time></trkpt><trkpt lat="44.37669426239031" lon="12.150900053017764"><ele>3.666666666666667</ele><time>2026-05-02T11:05:04.913Z</time></trkpt><trkpt lat="44.37682775245459" lon="12.151077774152125"><ele>3.0</ele><time>2026-05-02T11:05:05.913Z</time></trkpt><trkpt lat="44.3769618997513" lon="12.15125368000512"><ele>3.0</ele><time>2026-05-02T11:05:06.914Z</time></trkpt><trkpt lat="44.37709507813836" lon="12.151423588490488"><ele>3.0</ele><time>2026-05-02T11:05:07.915Z</time></trkpt><trkpt lat="44.37722535252242" lon="12.15159070647792"><ele>3.0</ele><time>2026-05-02T11:05:08.915Z</time></trkpt><trkpt lat="44.37735061360378" lon="12.151749305521399"><ele>3.666666666666667</ele><time>2026-05-02T11:05:09.916Z</time></trkpt><trkpt lat="44.37748015622325" lon="12.151899823563632"><ele>4.333333333333334</ele><time>2026-05-02T11:05:10.916Z</time></trkpt><trkpt lat="44.37761517712861" lon="12.152048729454007"><ele>5.0</ele><time>2026-05-02T11:05:11.917Z</time></trkpt><trkpt lat="44.377752556397745" lon="12.152198889171249"><ele>5.0</ele><time>2026-05-02T11:05:12.917Z</time></trkpt><trkpt lat="44.37788649743853" lon="12.152358805328824"><ele>5.0</ele><time>2026-05-02T11:05:13.917Z</time></trkpt><trkpt lat="44.378017419845555" lon="12.152513145338231"><ele>5.0</ele><time>2026-05-02T11:05:14.918Z</time></trkpt><trkpt lat="44.37814591716734" lon="12.152668797363122"><ele>5.333333333333334</ele><time>2026-05-02T11:05:15.918Z</time></trkpt><trkpt lat="44.37827241097731" lon="12.152827758311197"><ele>5.666666666666667</ele><time>2026-05-02T11:05:16.918Z</time></trkpt><trkpt lat="44.378396553343855" lon="12.152991582605997"><ele>6.0</ele><time>2026-05-02T11:05:17.919Z</time></trkpt><trkpt lat="44.37852003866977" lon="12.153171509994117"><ele>6.333333333333334</ele><time>2026-05-02T11:05:18.919Z</time></trkpt><trkpt lat="44.37865159985474" lon="12.153368515085809"><ele>6.666666666666667</ele><time>2026-05-02T11:05:19.919Z</time></trkpt><trkpt lat="44.37877508584538" lon="12.153557861606977"><ele>7.0</ele><time>2026-05-02T11:05:20.92Z</time></trkpt><trkpt lat="44.378897853328986" lon="12.153742989947956"><ele>6.0</ele><time>2026-05-02T11:05:21.92Z</time></trkpt><trkpt lat="44.37902208864426" lon="12.153933058786281"><ele>5.0</ele><time>2026-05-02T11:05:22.92Z</time></trkpt><trkpt lat="44.37914958734632" lon="12.154123647675164"><ele>4.0</ele><time>2026-05-02T11:05:23.92Z</time></trkpt><trkpt lat="44.379275245289705" lon="12.154309551594691"><ele>4.0</ele><time>2026-05-02T11:05:24.92Z</time></trkpt><trkpt lat="44.37940219558511" lon="12.154493752218892"><ele>4.0</ele><time>2026-05-02T11:05:25.921Z</time></trkpt><trkpt lat="44.379527020927654" lon="12.154674746039777"><ele>4.0</ele><time>2026-05-02T11:05:26.921Z</time></trkpt><trkpt lat="44.37964957261766" lon="12.15485107358229"><ele>4.0</ele><time>2026-05-02T11:05:27.921Z</time></trkpt><trkpt lat="44.379773271588" lon="12.15502433572192"><ele>4.0</ele><time>2026-05-02T11:05:28.921Z</time></trkpt><trkpt lat="44.37989584541244" lon="12.155198058485537"><ele>4.0</ele><time>2026-05-02T11:05:29.921Z</time></trkpt><trkpt lat="44.38002255621713" lon="12.155371119566908"><ele>4.0</ele><time>2026-05-02T11:05:30.921Z</time></trkpt><trkpt lat="44.38014829617485" lon="12.155549850005235"><ele>4.0</ele><time>2026-05-02T11:05:31.922Z</time></trkpt><trkpt lat="44.38027634314542" lon="12.1557185647991"><ele>4.0</ele><time>2026-05-02T11:05:32.922Z</time></trkpt><trkpt lat="44.380404643638315" lon="12.155881772532982"><ele>3.6666666666666665</ele><time>2026-05-02T11:05:33.922Z</time></trkpt><trkpt lat="44.38053562328752" lon="12.156045222637193"><ele>3.333333333333333</ele><time>2026-05-02T11:05:34.922Z</time></trkpt><trkpt lat="44.38066718147447" lon="12.156208362854052"><ele>3.0</ele><time>2026-05-02T11:05:35.922Z</time></trkpt><trkpt lat="44.38080021842722" lon="12.156368405248411"><ele>3.666666666666667</ele><time>2026-05-02T11:05:36.922Z</time></trkpt><trkpt lat="44.380936890038356" lon="12.156537942933971"><ele>4.333333333333334</ele><time>2026-05-02T11:05:37.922Z</time></trkpt><trkpt lat="44.38107233847759" lon="12.156707862512295"><ele>5.0</ele><time>2026-05-02T11:05:38.922Z</time></trkpt><trkpt lat="44.381206351471306" lon="12.156872708682636"><ele>5.0</ele><time>2026-05-02T11:05:39.922Z</time></trkpt><trkpt lat="44.38134207578774" lon="12.157042081610372"><ele>5.0</ele><time>2026-05-02T11:05:40.922Z</time></trkpt><trkpt lat="44.38147819514067" lon="12.157209727923725"><ele>5.0</ele><time>2026-05-02T11:05:41.922Z</time></trkpt><trkpt lat="44.3816127917356" lon="12.157373586219244"><ele>4.333333333333334</ele><time>2026-05-02T11:05:42.923Z</time></trkpt><trkpt lat="44.38174671567" lon="12.157537603267258"><ele>3.666666666666667</ele><time>2026-05-02T11:05:43.923Z</time></trkpt><trkpt lat="44.38188341402598" lon="12.157705292480607"><ele>3.0</ele><time>2026-05-02T11:05:44.923Z</time></trkpt><trkpt lat="44.38201802572212" lon="12.157870653717149"><ele>3.0</ele><time>2026-05-02T11:05:45.923Z</time></trkpt><trkpt lat="44.38215000675715" lon="12.158031399412467"><ele>3.0</ele><time>2026-05-02T11:05:46.923Z</time></trkpt><trkpt lat="44.38228333869812" lon="12.158195386010451"><ele>3.0</ele><time>2026-05-02T11:05:47.923Z</time></trkpt><trkpt lat="44.38242019360229" lon="12.158363309171355"><ele>3.666666666666667</ele><time>2026-05-02T11:05:48.923Z</time></trkpt><trkpt lat="44.38255833188271" lon="12.158531987353395"><ele>4.333333333333334</ele><time>2026-05-02T11:05:49.923Z</time></trkpt><trkpt lat="44.38269685810845" lon="12.158697882598329"><ele>5.0</ele><time>2026-05-02T11:05:50.923Z</time></trkpt><trkpt lat="44.382834753103324" lon="12.1588652496598"><ele>4.666666666666667</ele><time>2026-05-02T11:05:51.923Z</time></trkpt><trkpt lat="44.38297536455714" lon="12.159035231276432"><ele>4.333333333333333</ele><time>2026-05-02T11:05:52.923Z</time></trkpt><trkpt lat="44.383117071027904" lon="12.159203965235323"><ele>4.0</ele><time>2026-05-02T11:05:53.923Z</time></trkpt><trkpt lat="44.38325560030097" lon="12.159369646710898"><ele>4.0</ele><time>2026-05-02T11:05:54.923Z</time></trkpt><trkpt lat="44.38339259019331" lon="12.15953241618613"><ele>4.0</ele><time>2026-05-02T11:05:55.923Z</time></trkpt><trkpt lat="44.38353080748828" lon="12.159694168552841"><ele>4.0</ele><time>2026-05-02T11:05:56.923Z</time></trkpt><trkpt lat="44.3836689375791" lon="12.159856903733193"><ele>4.333333333333333</ele><time>2026-05-02T11:05:57.923Z</time></trkpt><trkpt lat="44.38379346651269" lon="12.160033976829558"><ele>4.666666666666667</ele><time>2026-05-02T11:05:58.923Z</time></trkpt><trkpt lat="44.38393510746" lon="12.16020285908159"><ele>5.0</ele><time>2026-05-02T11:05:59.923Z</time></trkpt><trkpt lat="44.384078640457965" lon="12.160379675395017"><ele>4.333333333333334</ele><time>2026-05-02T11:06:00.923Z</time></trkpt><trkpt lat="44.38421633870254" lon="12.16056483306831"><ele>3.666666666666667</ele><time>2026-05-02T11:06:01.923Z</time></trkpt><trkpt lat="44.384349194803555" lon="12.160751239303769"><ele>3.0</ele><time>2026-05-02T11:06:02.923Z</time></trkpt><trkpt lat="44.384482601091634" lon="12.1609419746886"><ele>3.0</ele><time>2026-05-02T11:06:03.923Z</time></trkpt><trkpt lat="44.38461808495555" lon="12.161133713519412"><ele>3.0</ele><time>2026-05-02T11:06:04.923Z</time></trkpt><trkpt lat="44.38475328225434" lon="12.161317974039186"><ele>3.0</ele><time>2026-05-02T11:06:05.923Z</time></trkpt><trkpt lat="44.384894377964095" lon="12.161500990840144"><ele>3.333333333333333</ele><time>2026-05-02T11:06:06.923Z</time></trkpt><trkpt lat="44.38503697390823" lon="12.161679727457445"><ele>3.6666666666666665</ele><time>2026-05-02T11:06:07.923Z</time></trkpt><trkpt lat="44.385184094457" lon="12.161853594071955"><ele>4.0</ele><time>2026-05-02T11:06:08.923Z</time></trkpt><trkpt lat="44.38533434048641" lon="12.162025596070968"><ele>4.0</ele><time>2026-05-02T11:06:09.923Z</time></trkpt><trkpt lat="44.38548890786312" lon="12.162196015506316"><ele>4.0</ele><time>2026-05-02T11:06:10.923Z</time></trkpt><trkpt lat="44.385646447146684" lon="12.162366292433441"><ele>4.0</ele><time>2026-05-02T11:06:11.923Z</time></trkpt><trkpt lat="44.38580627502457" lon="12.162535999138539"><ele>3.6666666666666665</ele><time>2026-05-02T11:06:12.923Z</time></trkpt><trkpt lat="44.38596163097325" lon="12.162700963159187"><ele>3.333333333333333</ele><time>2026-05-02T11:06:13.923Z</time></trkpt><trkpt lat="44.386109458202704" lon="12.162857687932929"><ele>3.0</ele><time>2026-05-02T11:06:14.923Z</time></trkpt><trkpt lat="44.38625881457996" lon="12.163014852314763"><ele>3.0</ele><time>2026-05-02T11:06:15.923Z</time></trkpt><trkpt lat="44.38640578237953" lon="12.16317259523372"><ele>3.0</ele><time>2026-05-02T11:06:16.923Z</time></trkpt><trkpt lat="44.386551470633805" lon="12.163329100131625"><ele>3.0</ele><time>2026-05-02T11:06:17.923Z</time></trkpt><trkpt lat="44.386695162851225" lon="12.16348565057601"><ele>3.0</ele><time>2026-05-02T11:06:18.923Z</time></trkpt><trkpt lat="44.38683859550839" lon="12.163643993686508"><ele>3.0</ele><time>2026-05-02T11:06:19.923Z</time></trkpt><trkpt lat="44.38698544350303" lon="12.163802567238145"><ele>3.0</ele><time>2026-05-02T11:06:20.923Z</time></trkpt><trkpt lat="44.38713197138744" lon="12.163952865825781"><ele>3.666666666666667</ele><time>2026-05-02T11:06:21.923Z</time></trkpt><trkpt lat="44.38727868568161" lon="12.164099051798184"><ele>4.333333333333334</ele><time>2026-05-02T11:06:22.923Z</time></trkpt><trkpt lat="44.387428531414436" lon="12.164250392814951"><ele>5.0</ele><time>2026-05-02T11:06:23.923Z</time></trkpt><trkpt lat="44.38757884516341" lon="12.164404753154397"><ele>5.0</ele><time>2026-05-02T11:06:24.923Z</time></trkpt><trkpt lat="44.38772017724489" lon="12.164565258648022"><ele>5.0</ele><time>2026-05-02T11:06:25.923Z</time></trkpt><trkpt lat="44.387861053365576" lon="12.164739455861989"><ele>5.0</ele><time>2026-05-02T11:06:26.923Z</time></trkpt><trkpt lat="44.387992524190885" lon="12.164929760012583"><ele>5.0</ele><time>2026-05-02T11:06:27.923Z</time></trkpt><trkpt lat="44.3881262542331" lon="12.165127101343238"><ele>5.0</ele><time>2026-05-02T11:06:28.923Z</time></trkpt><trkpt lat="44.38824903985754" lon="12.165331943206441"><ele>5.0</ele><time>2026-05-02T11:06:29.923Z</time></trkpt><trkpt lat="44.38836142851339" lon="12.165532479175628"><ele>4.333333333333334</ele><time>2026-05-02T11:06:30.923Z</time></trkpt><trkpt lat="44.388474994483396" lon="12.165723027731179"><ele>3.666666666666667</ele><time>2026-05-02T11:06:31.922Z</time></trkpt><trkpt lat="44.38858992110467" lon="12.165898037626162"><ele>3.0</ele><time>2026-05-02T11:06:32.921Z</time></trkpt><trkpt lat="44.38870913779937" lon="12.166072564075485"><ele>3.0</ele><time>2026-05-02T11:06:33.921Z</time></trkpt><trkpt lat="44.388823191871964" lon="12.166245880842462"><ele>3.0</ele><time>2026-05-02T11:06:34.921Z</time></trkpt><trkpt lat="44.388938348461636" lon="12.166422377441696"><ele>3.0</ele><time>2026-05-02T11:06:35.921Z</time></trkpt><trkpt lat="44.38905545569613" lon="12.16659535511928"><ele>3.666666666666667</ele><time>2026-05-02T11:06:36.921Z</time></trkpt><trkpt lat="44.38917473959485" lon="12.166778847233262"><ele>4.333333333333334</ele><time>2026-05-02T11:06:37.922Z</time></trkpt><trkpt lat="44.38929945398385" lon="12.166973030931645"><ele>5.0</ele><time>2026-05-02T11:06:38.921Z</time></trkpt><trkpt lat="44.38943158594117" lon="12.167176452770859"><ele>5.0</ele><time>2026-05-02T11:06:39.921Z</time></trkpt><trkpt lat="44.389561829298934" lon="12.167373061503994"><ele>5.0</ele><time>2026-05-02T11:06:40.922Z</time></trkpt><trkpt lat="44.389689672166064" lon="12.167559657072056"><ele>5.0</ele><time>2026-05-02T11:06:41.921Z</time></trkpt><trkpt lat="44.38982793669903" lon="12.167742614637817"><ele>5.0</ele><time>2026-05-02T11:06:42.921Z</time></trkpt><trkpt lat="44.38996753478275" lon="12.167914615433991"><ele>5.0</ele><time>2026-05-02T11:06:43.922Z</time></trkpt><trkpt lat="44.39011612862617" lon="12.168082557647766"><ele>5.0</ele><time>2026-05-02T11:06:44.922Z</time></trkpt><trkpt lat="44.39026369781223" lon="12.168236673102111"><ele>5.0</ele><time>2026-05-02T11:06:45.922Z</time></trkpt><trkpt lat="44.39039871099065" lon="12.168391112112424"><ele>5.0</ele><time>2026-05-02T11:06:46.922Z</time></trkpt><trkpt lat="44.39054044401045" lon="12.168554416715471"><ele>5.0</ele><time>2026-05-02T11:06:47.922Z</time></trkpt><trkpt lat="44.3906782827807" lon="12.168717534136599"><ele>4.333333333333334</ele><time>2026-05-02T11:06:48.922Z</time></trkpt><trkpt lat="44.39081270883388" lon="12.168879724623531"><ele>3.666666666666667</ele><time>2026-05-02T11:06:49.922Z</time></trkpt><trkpt lat="44.3909503444854" lon="12.169044619376628"><ele>3.0</ele><time>2026-05-02T11:06:50.922Z</time></trkpt><trkpt lat="44.39108297763771" lon="12.169204854192117"><ele>3.0</ele><time>2026-05-02T11:06:51.922Z</time></trkpt><trkpt lat="44.39121901634846" lon="12.169363620647433"><ele>3.0</ele><time>2026-05-02T11:06:52.922Z</time></trkpt><trkpt lat="44.39135463825884" lon="12.16952298328224"><ele>3.0</ele><time>2026-05-02T11:06:53.922Z</time></trkpt><trkpt lat="44.391491148545654" lon="12.169685797889555"><ele>3.0</ele><time>2026-05-02T11:06:54.922Z</time></trkpt><trkpt lat="44.3916275637617" lon="12.169848822655968"><ele>3.0</ele><time>2026-05-02T11:06:55.922Z</time></trkpt><trkpt lat="44.39176774392124" lon="12.170012461613831"><ele>3.0</ele><time>2026-05-02T11:06:56.922Z</time></trkpt><trkpt lat="44.39190832641978" lon="12.17017564111801"><ele>3.0</ele><time>2026-05-02T11:06:57.922Z</time></trkpt><trkpt lat="44.39204877501556" lon="12.170337003756748"><ele>3.0</ele><time>2026-05-02T11:06:58.922Z</time></trkpt><trkpt lat="44.39218695758715" lon="12.170496463440577"><ele>3.0</ele><time>2026-05-02T11:06:59.922Z</time></trkpt><trkpt lat="44.392322532362876" lon="12.17065521215073"><ele>3.333333333333333</ele><time>2026-05-02T11:07:00.922Z</time></trkpt><trkpt lat="44.39245768211522" lon="12.170807519945459"><ele>3.6666666666666665</ele><time>2026-05-02T11:07:01.922Z</time></trkpt><trkpt lat="44.392594936428765" lon="12.17096056537504"><ele>4.0</ele><time>2026-05-02T11:07:02.922Z</time></trkpt><trkpt lat="44.39273272855148" lon="12.17110620055805"><ele>4.0</ele><time>2026-05-02T11:07:03.922Z</time></trkpt><trkpt lat="44.39287558169788" lon="12.171249967433704"><ele>4.0</ele><time>2026-05-02T11:07:04.922Z</time></trkpt><trkpt lat="44.39301301926306" lon="12.17137718247951"><ele>4.0</ele><time>2026-05-02T11:07:05.922Z</time></trkpt><trkpt lat="44.39314290121359" lon="12.171489869069179"><ele>4.333333333333333</ele><time>2026-05-02T11:07:06.922Z</time></trkpt><trkpt lat="44.393270752245876" lon="12.171583914707176"><ele>4.666666666666667</ele><time>2026-05-02T11:07:07.922Z</time></trkpt><trkpt lat="44.393401020521985" lon="12.171684581029295"><ele>5.0</ele><time>2026-05-02T11:07:08.922Z</time></trkpt><trkpt lat="44.39353983166103" lon="12.171791663639656"><ele>5.0</ele><time>2026-05-02T11:07:09.922Z</time></trkpt><trkpt lat="44.393679535565674" lon="12.171909653140615"><ele>5.0</ele><time>2026-05-02T11:07:10.922Z</time></trkpt><trkpt lat="44.39381773248813" lon="12.172025356211755"><ele>5.0</ele><time>2026-05-02T11:07:11.922Z</time></trkpt><trkpt lat="44.393948887997325" lon="12.172137106225886"><ele>5.0</ele><time>2026-05-02T11:07:12.922Z</time></trkpt><trkpt lat="44.39407369986679" lon="12.17225006865779"><ele>5.0</ele><time>2026-05-02T11:07:13.922Z</time></trkpt><trkpt lat="44.39419426621756" lon="12.172352750674657"><ele>5.0</ele><time>2026-05-02T11:07:14.922Z</time></trkpt><trkpt lat="44.39431017726096" lon="12.172451595682743"><ele>5.0</ele><time>2026-05-02T11:07:15.922Z</time></trkpt><trkpt lat="44.39442814572658" lon="12.172554092261697"><ele>5.0</ele><time>2026-05-02T11:07:16.922Z</time></trkpt><trkpt lat="44.394545611108576" lon="12.172657973351042"><ele>5.0</ele><time>2026-05-02T11:07:17.922Z</time></trkpt><trkpt lat="44.39466740845537" lon="12.172751304579018"><ele>5.0</ele><time>2026-05-02T11:07:18.922Z</time></trkpt><trkpt lat="44.3947968537309" lon="12.172863311334297"><ele>5.0</ele><time>2026-05-02T11:07:19.922Z</time></trkpt><trkpt lat="44.39492725020277" lon="12.172978274111873"><ele>4.666666666666667</ele><time>2026-05-02T11:07:20.922Z</time></trkpt><trkpt lat="44.395062898959544" lon="12.173087501896452"><ele>4.333333333333333</ele><time>2026-05-02T11:07:21.922Z</time></trkpt><trkpt lat="44.39519490996966" lon="12.173185159261523"><ele>4.0</ele><time>2026-05-02T11:07:22.922Z</time></trkpt><trkpt lat="44.39532412199122" lon="12.173277624437716"><ele>3.75</ele><time>2026-05-02T11:07:23.922Z</time></trkpt><trkpt lat="44.39545683677775" lon="12.173359432451582"><ele>3.5</ele><time>2026-05-02T11:07:24.922Z</time></trkpt><trkpt lat="44.395583732947784" lon="12.173440746111936"><ele>3.25</ele><time>2026-05-02T11:07:25.922Z</time></trkpt><trkpt lat="44.39571458147587" lon="12.173504860341522"><ele>3.0</ele><time>2026-05-02T11:07:26.922Z</time></trkpt><trkpt lat="44.39584846156993" lon="12.173578513771128"><ele>3.0</ele><time>2026-05-02T11:07:27.922Z</time></trkpt><trkpt lat="44.39598426348478" lon="12.173648073608486"><ele>3.0</ele><time>2026-05-02T11:07:28.922Z</time></trkpt><trkpt lat="44.39612350744843" lon="12.173713871307996"><ele>3.0</ele><time>2026-05-02T11:07:29.922Z</time></trkpt><trkpt lat="44.39626463735696" lon="12.173777336429081"><ele>3.0</ele><time>2026-05-02T11:07:30.922Z</time></trkpt><trkpt lat="44.39640773430139" lon="12.173843130602807"><ele>3.0</ele><time>2026-05-02T11:07:31.922Z</time></trkpt><trkpt lat="44.39654218700806" lon="12.173904541112952"><ele>3.0</ele><time>2026-05-02T11:07:32.922Z</time></trkpt><trkpt lat="44.396679778993374" lon="12.173968172277116"><ele>3.0</ele><time>2026-05-02T11:07:33.922Z</time></trkpt><trkpt lat="44.39681734040492" lon="12.174032885878585"><ele>3.0</ele><time>2026-05-02T11:07:34.922Z</time></trkpt><trkpt lat="44.39695807287449" lon="12.174093538302385"><ele>3.0</ele><time>2026-05-02T11:07:35.922Z</time></trkpt><trkpt lat="44.39709587385271" lon="12.174159040833176"><ele>3.0</ele><time>2026-05-02T11:07:36.922Z</time></trkpt><trkpt lat="44.397235421579246" lon="12.174217827459106"><ele>3.0</ele><time>2026-05-02T11:07:37.922Z</time></trkpt><trkpt lat="44.3973725698683" lon="12.1742896642334"><ele>3.0</ele><time>2026-05-02T11:07:38.922Z</time></trkpt><trkpt lat="44.397509305730715" lon="12.174359635531127"><ele>3.0</ele><time>2026-05-02T11:07:39.922Z</time></trkpt><trkpt lat="44.39764998839029" lon="12.174409358648198"><ele>3.0</ele><time>2026-05-02T11:07:40.922Z</time></trkpt><trkpt lat="44.397787661170355" lon="12.17446946977602"><ele>3.0</ele><time>2026-05-02T11:07:41.922Z</time></trkpt><trkpt lat="44.39792259596835" lon="12.174528501726876"><ele>3.0</ele><time>2026-05-02T11:07:42.922Z</time></trkpt><trkpt lat="44.39806109239823" lon="12.174578953731762"><ele>4.0</ele><time>2026-05-02T11:07:43.922Z</time></trkpt><trkpt lat="44.39820018947413" lon="12.174644327105844"><ele>5.0</ele><time>2026-05-02T11:07:44.922Z</time></trkpt><trkpt lat="44.39834796683842" lon="12.174697038807496"><ele>6.0</ele><time>2026-05-02T11:07:45.922Z</time></trkpt><trkpt lat="44.3984855012451" lon="12.17475847638466"><ele>7.0</ele><time>2026-05-02T11:07:46.922Z</time></trkpt><trkpt lat="44.39862138995944" lon="12.174818634423296"><ele>6.75</ele><time>2026-05-02T11:07:47.922Z</time></trkpt><trkpt lat="44.398759131017414" lon="12.174866526870217"><ele>6.5</ele><time>2026-05-02T11:07:48.922Z</time></trkpt><trkpt lat="44.39888902033041" lon="12.174917916177769"><ele>6.25</ele><time>2026-05-02T11:07:49.922Z</time></trkpt><trkpt lat="44.399012315627836" lon="12.174966745422399"><ele>6.0</ele><time>2026-05-02T11:07:50.922Z</time></trkpt><trkpt lat="44.39911348205302" lon="12.175010656620056"><ele>5.6</ele><time>2026-05-02T11:07:51.922Z</time></trkpt><trkpt lat="44.39920242100941" lon="12.175037433741599"><ele>5.199999999999999</ele><time>2026-05-02T11:07:52.922Z</time></trkpt><trkpt lat="44.39927645977294" lon="12.175086724487086"><ele>4.800000000000001</ele><time>2026-05-02T11:07:54.922Z</time></trkpt><trkpt lat="44.399322538730715" lon="12.175196684585899"><ele>4.4</ele><time>2026-05-02T11:07:56.922Z</time></trkpt><trkpt lat="44.39929285695524" lon="12.175330979048644"><ele>4.0</ele><time>2026-05-02T11:07:57.922Z</time></trkpt><trkpt lat="44.399259753857855" lon="12.17545200391363"><ele>4.0</ele><time>2026-05-02T11:07:58.922Z</time></trkpt><trkpt lat="44.399221280221276" lon="12.175581502385503"><ele>4.0</ele><time>2026-05-02T11:07:59.922Z</time></trkpt><trkpt lat="44.399183248937916" lon="12.175725836563313"><ele>4.0</ele><time>2026-05-02T11:08:00.922Z</time></trkpt><trkpt lat="44.3991479416253" lon="12.175893154691765"><ele>4.0</ele><time>2026-05-02T11:08:01.922Z</time></trkpt><trkpt lat="44.39911878985149" lon="12.176071738045882"><ele>4.0</ele><time>2026-05-02T11:08:02.922Z</time></trkpt><trkpt lat="44.3990808682102" lon="12.176259157979107"><ele>4.0</ele><time>2026-05-02T11:08:03.922Z</time></trkpt><trkpt lat="44.39904348835745" lon="12.176453340417638"><ele>4.0</ele><time>2026-05-02T11:08:04.922Z</time></trkpt><trkpt lat="44.39900114532556" lon="12.176656593283303"><ele>4.0</ele><time>2026-05-02T11:08:05.922Z</time></trkpt><trkpt lat="44.398959203814314" lon="12.176866022793568"><ele>4.0</ele><time>2026-05-02T11:08:06.922Z</time></trkpt><trkpt lat="44.39891820832283" lon="12.17708520235211"><ele>4.0</ele><time>2026-05-02T11:08:07.922Z</time></trkpt><trkpt lat="44.39887633442021" lon="12.177299845194572"><ele>4.0</ele><time>2026-05-02T11:08:08.922Z</time></trkpt><trkpt lat="44.39882862313524" lon="12.177501707203392"><ele>3.75</ele><time>2026-05-02T11:08:09.922Z</time></trkpt><trkpt lat="44.39877837660679" lon="12.177691831296544"><ele>3.5</ele><time>2026-05-02T11:08:10.922Z</time></trkpt><trkpt lat="44.3987060896127" lon="12.177845630914371"><ele>3.25</ele><time>2026-05-02T11:08:11.922Z</time></trkpt><trkpt lat="44.39864096941425" lon="12.177995368655314"><ele>3.0</ele><time>2026-05-02T11:08:12.922Z</time></trkpt><trkpt lat="44.398577640858164" lon="12.178120466529567"><ele>2.8333333333333335</ele><time>2026-05-02T11:08:13.922Z</time></trkpt><trkpt lat="44.39852566294732" lon="12.178216806304446"><ele>2.6666666666666665</ele><time>2026-05-02T11:08:14.922Z</time></trkpt><trkpt lat="44.39849187048814" lon="12.178308232367257"><ele>2.5</ele><time>2026-05-02T11:08:15.922Z</time></trkpt><trkpt lat="44.398405986925475" lon="12.178353865492255"><ele>2.333333333333333</ele><time>2026-05-02T11:08:16.922Z</time></trkpt><trkpt lat="44.39831366725976" lon="12.178333905492222"><ele>2.1666666666666665</ele><time>2026-05-02T11:08:17.922Z</time></trkpt><trkpt lat="44.39821898735177" lon="12.178361921250573"><ele>2.0</ele><time>2026-05-02T11:08:18.922Z</time></trkpt><trkpt lat="44.39812527723522" lon="12.178411072100648"><ele>2.0</ele><time>2026-05-02T11:08:19.922Z</time></trkpt><trkpt lat="44.398053070296385" lon="12.178505082566849"><ele>2.0</ele><time>2026-05-02T11:08:20.922Z</time></trkpt><trkpt lat="44.39799464995602" lon="12.178619815319157"><ele>2.0</ele><time>2026-05-02T11:08:21.922Z</time></trkpt><trkpt lat="44.39800495937058" lon="12.178802246309969"><ele>2.0</ele><time>2026-05-02T11:08:22.922Z</time></trkpt><trkpt lat="44.39803189106638" lon="12.17895152321707"><ele>2.0</ele><time>2026-05-02T11:08:23.922Z</time></trkpt><trkpt lat="44.398099729150374" lon="12.17907446919582"><ele>2.2</ele><time>2026-05-02T11:08:24.922Z</time></trkpt><trkpt lat="44.398196118215495" lon="12.17914944149558"><ele>2.4000000000000004</ele><time>2026-05-02T11:08:25.922Z</time></trkpt><trkpt lat="44.398303074747574" lon="12.179164216974073"><ele>2.5999999999999996</ele><time>2026-05-02T11:08:26.922Z</time></trkpt><trkpt lat="44.39840981489967" lon="12.179152994324443"><ele>2.8</ele><time>2026-05-02T11:08:27.922Z</time></trkpt><trkpt lat="44.398521773141795" lon="12.17912821756443"><ele>3.0</ele><time>2026-05-02T11:08:28.922Z</time></trkpt><trkpt lat="44.39862462662525" lon="12.179175509565368"><ele>3.0</ele><time>2026-05-02T11:08:29.922Z</time></trkpt><trkpt lat="44.39871566963432" lon="12.179281263376398"><ele>3.0</ele><time>2026-05-02T11:08:30.922Z</time></trkpt><trkpt lat="44.39880561709288" lon="12.17942626718475"><ele>3.0</ele><time>2026-05-02T11:08:31.922Z</time></trkpt><trkpt lat="44.39890196737807" lon="12.179576120719808"><ele>3.0</ele><time>2026-05-02T11:08:32.922Z</time></trkpt><trkpt lat="44.399004859898916" lon="12.179721424422498"><ele>3.0</ele><time>2026-05-02T11:08:33.922Z</time></trkpt><trkpt lat="44.39910851870778" lon="12.17986812425209"><ele>3.0</ele><time>2026-05-02T11:08:34.922Z</time></trkpt><trkpt lat="44.399219671968176" lon="12.180019321890494"><ele>3.0</ele><time>2026-05-02T11:08:35.922Z</time></trkpt><trkpt lat="44.39933467262046" lon="12.180172827461197"><ele>3.0</ele><time>2026-05-02T11:08:36.922Z</time></trkpt><trkpt lat="44.39944875868586" lon="12.180325914454999"><ele>3.0</ele><time>2026-05-02T11:08:37.919Z</time></trkpt><trkpt lat="44.3995633082391" lon="12.180482394143004"><ele>3.0</ele><time>2026-05-02T11:08:38.919Z</time></trkpt><trkpt lat="44.399678386906125" lon="12.180638972276181"><ele>3.333333333333333</ele><time>2026-05-02T11:08:39.919Z</time></trkpt><trkpt lat="44.39979474965108" lon="12.180797649122145"><ele>3.6666666666666665</ele><time>2026-05-02T11:08:40.919Z</time></trkpt><trkpt lat="44.39991734597575" lon="12.180963633722065"><ele>4.0</ele><time>2026-05-02T11:08:41.919Z</time></trkpt><trkpt lat="44.40003548305303" lon="12.18112898417469"><ele>4.0</ele><time>2026-05-02T11:08:42.919Z</time></trkpt><trkpt lat="44.400157802337105" lon="12.181300240579018"><ele>4.0</ele><time>2026-05-02T11:08:43.919Z</time></trkpt><trkpt lat="44.40027795000508" lon="12.18147255080912"><ele>4.0</ele><time>2026-05-02T11:08:44.919Z</time></trkpt><trkpt lat="44.40040080239175" lon="12.18164404453714"><ele>4.0</ele><time>2026-05-02T11:08:45.919Z</time></trkpt><trkpt lat="44.400528272554155" lon="12.181817560513402"><ele>4.0</ele><time>2026-05-02T11:08:46.919Z</time></trkpt><trkpt lat="44.40065744523745" lon="12.181993164464233"><ele>4.0</ele><time>2026-05-02T11:08:47.919Z</time></trkpt><trkpt lat="44.40078555778933" lon="12.182167779583837"><ele>4.0</ele><time>2026-05-02T11:08:48.919Z</time></trkpt><trkpt lat="44.40090695752704" lon="12.182337503460746"><ele>4.0</ele><time>2026-05-02T11:08:49.918Z</time></trkpt><trkpt lat="44.401031783700354" lon="12.18249938766841"><ele>4.0</ele><time>2026-05-02T11:08:50.919Z</time></trkpt><trkpt lat="44.40114500485287" lon="12.182660054731523"><ele>3.6666666666666665</ele><time>2026-05-02T11:08:51.919Z</time></trkpt><trkpt lat="44.40126312290446" lon="12.182819828434246"><ele>3.333333333333333</ele><time>2026-05-02T11:08:52.919Z</time></trkpt><trkpt lat="44.40137820348549" lon="12.182977486471728"><ele>3.0</ele><time>2026-05-02T11:08:53.919Z</time></trkpt><trkpt lat="44.40149012866611" lon="12.183133731881176"><ele>3.25</ele><time>2026-05-02T11:08:54.919Z</time></trkpt><trkpt lat="44.4016008893767" lon="12.183285217996717"><ele>3.5</ele><time>2026-05-02T11:08:55.919Z</time></trkpt><trkpt lat="44.40170889075386" lon="12.18342880040946"><ele>3.75</ele><time>2026-05-02T11:08:56.919Z</time></trkpt><trkpt lat="44.40179982073814" lon="12.183547761364297"><ele>4.0</ele><time>2026-05-02T11:08:57.919Z</time></trkpt><trkpt lat="44.40188617980695" lon="12.183649632846013"><ele>3.9999999999999996</ele><time>2026-05-02T11:08:58.919Z</time></trkpt><trkpt lat="44.401961486007046" lon="12.183743137193586"><ele>4.0</ele><time>2026-05-02T11:08:59.919Z</time></trkpt><trkpt lat="44.402028747324806" lon="12.18382800151185"><ele>4.0</ele><time>2026-05-02T11:09:00.919Z</time></trkpt><trkpt lat="44.40209095650721" lon="12.183905354342633"><ele>4.0</ele><time>2026-05-02T11:09:01.919Z</time></trkpt><trkpt lat="44.40214306744932" lon="12.183965841235308"><ele>3.9999999999999996</ele><time>2026-05-02T11:09:02.919Z</time></trkpt><trkpt lat="44.402191213948264" lon="12.184024404846355"><ele>4.0</ele><time>2026-05-02T11:09:03.919Z</time></trkpt><trkpt lat="44.40224424033167" lon="12.18409860862008"><ele>3.9999999999999996</ele><time>2026-05-02T11:09:05.919Z</time></trkpt><trkpt lat="44.40230087944451" lon="12.184167490100428"><ele>4.0</ele><time>2026-05-02T11:09:08.919Z</time></trkpt><trkpt lat="44.40236538907079" lon="12.184179072780347"><ele>4.0</ele><time>2026-05-02T11:09:17.919Z</time></trkpt><trkpt lat="44.40234389592872" lon="12.184267439875331"><ele>4.0</ele><time>2026-05-02T11:09:20.919Z</time></trkpt><trkpt lat="44.402378748642505" lon="12.184439982708314"><ele>3.9999999999999996</ele><time>2026-05-02T11:09:22.919Z</time></trkpt><trkpt lat="44.40238166723142" lon="12.184575891396904"><ele>4.0</ele><time>2026-05-02T11:09:23.919Z</time></trkpt><trkpt lat="44.402422729665766" lon="12.184714879680609"><ele>4.0</ele><time>2026-05-02T11:09:24.919Z</time></trkpt><trkpt lat="44.402506503407174" lon="12.184830009594092"><ele>4.0</ele><time>2026-05-02T11:09:25.919Z</time></trkpt><trkpt lat="44.40261544715876" lon="12.184885410924254"><ele>4.0</ele><time>2026-05-02T11:09:26.919Z</time></trkpt><trkpt lat="44.40271410580546" lon="12.184902119647154"><ele>4.0</ele><time>2026-05-02T11:09:27.919Z</time></trkpt><trkpt lat="44.40281568575565" lon="12.18497377850498"><ele>4.0</ele><time>2026-05-02T11:09:28.919Z</time></trkpt><trkpt lat="44.40289998313935" lon="12.185080972301314"><ele>3.75</ele><time>2026-05-02T11:09:29.919Z</time></trkpt><trkpt lat="44.40300004808132" lon="12.185212105962014"><ele>3.5</ele><time>2026-05-02T11:09:30.919Z</time></trkpt><trkpt lat="44.40312661010248" lon="12.185311464233248"><ele>3.25</ele><time>2026-05-02T11:09:31.919Z</time></trkpt><trkpt lat="44.40322915568198" lon="12.185455839208831"><ele>3.0</ele><time>2026-05-02T11:09:32.919Z</time></trkpt><trkpt lat="44.40334280378705" lon="12.185590376291016"><ele>4.0</ele><time>2026-05-02T11:09:33.919Z</time></trkpt><trkpt lat="44.403466756062336" lon="12.185721357735472"><ele>5.0</ele><time>2026-05-02T11:09:34.919Z</time></trkpt><trkpt lat="44.40358907986572" lon="12.185860787686988"><ele>6.0</ele><time>2026-05-02T11:09:35.919Z</time></trkpt><trkpt lat="44.403709659188145" lon="12.1859987702655"><ele>6.0</ele><time>2026-05-02T11:09:36.919Z</time></trkpt><trkpt lat="44.403829807513546" lon="12.18613450485543"><ele>6.0</ele><time>2026-05-02T11:09:37.919Z</time></trkpt><trkpt lat="44.40393630970891" lon="12.186273560431893"><ele>6.0</ele><time>2026-05-02T11:09:38.919Z</time></trkpt><trkpt lat="44.404059701712264" lon="12.186416935669861"><ele>2.0</ele><time>2026-05-02T11:09:39.919Z</time></trkpt><trkpt lat="44.40417233401939" lon="12.186558558991177"><ele>4.0</ele><time>2026-05-02T11:09:40.919Z</time></trkpt></trkseg></trk></gpx>